<?xml version="1.0" encoding="UTF-8"?>
<gpx version="1.1" creator="https://www.youtrack.es" xsi:schemaLocation="http://www.topografix.com/GPX/1/1 http://www.topografix.com/GPX/1/1/gpx.xsd http://www.garmin.com/xmlschemas/GpxExtensions/v3 http://www.garmin.com/xmlschemas/GpxExtensionsv3.xsd http://www.garmin.com/xmlschemas/TrackPointExtension/v1 http://www.garmin.com/xmlschemas/TrackPointExtensionv1.xsd" xmlns:gpxtpx="http://www.garmin.com/xmlschemas/TrackPointExtension/v1" xmlns:gpxx="http://www.garmin.com/xmlschemas/GpxExtensions/v3" xmlns:xsi="http://www.w3.org/2001/XMLSchema-instance">
  <metadata>
    <link href="https://www.youtrack.es">
      <text>YouTrack.es</text>
    </link>
    <time>2026-05-08T16:15:28Z</time>
  </metadata>
  <trk>
    <src>https://www.youtrack.es</src>
    <link href="https://www.youtrack.es/ruta/35630-gijona-santander">
      <text>YouTrack.es</text>
    </link>
    <trkseg>
      <trkpt lat="43.537322" lon="-5.645672">
        <ele>5.068</ele>
        <time>2022-08-27T08:19:30Z</time>
      </trkpt>
      <trkpt lat="43.537357" lon="-5.645740">
        <ele>5.042</ele>
        <time>2022-08-27T08:19:33Z</time>
      </trkpt>
      <trkpt lat="43.537375" lon="-5.645823">
        <ele>26.126</ele>
        <time>2022-08-27T08:19:35Z</time>
      </trkpt>
      <trkpt lat="43.537398" lon="-5.645881">
        <ele>30.209</ele>
        <time>2022-08-27T08:19:38Z</time>
      </trkpt>
      <trkpt lat="43.537411" lon="-5.645946">
        <ele>30.727</ele>
        <time>2022-08-27T08:19:40Z</time>
      </trkpt>
      <trkpt lat="43.537434" lon="-5.646019">
        <ele>31.097</ele>
        <time>2022-08-27T08:19:42Z</time>
      </trkpt>
      <trkpt lat="43.537481" lon="-5.646074">
        <ele>31.358</ele>
        <time>2022-08-27T08:19:44Z</time>
      </trkpt>
      <trkpt lat="43.537509" lon="-5.646144">
        <ele>31.986</ele>
        <time>2022-08-27T08:19:46Z</time>
      </trkpt>
      <trkpt lat="43.537534" lon="-5.646222">
        <ele>32.996</ele>
        <time>2022-08-27T08:19:48Z</time>
      </trkpt>
      <trkpt lat="43.537567" lon="-5.646290">
        <ele>33.562</ele>
        <time>2022-08-27T08:19:50Z</time>
      </trkpt>
      <trkpt lat="43.537614" lon="-5.646357">
        <ele>34.536</ele>
        <time>2022-08-27T08:19:53Z</time>
      </trkpt>
      <trkpt lat="43.537664" lon="-5.646354">
        <ele>34.843</ele>
        <time>2022-08-27T08:19:54Z</time>
      </trkpt>
      <trkpt lat="43.537707" lon="-5.646337">
        <ele>35.310</ele>
        <time>2022-08-27T08:19:56Z</time>
      </trkpt>
      <trkpt lat="43.537785" lon="-5.646332">
        <ele>36.176</ele>
        <time>2022-08-27T08:19:58Z</time>
      </trkpt>
      <trkpt lat="43.537852" lon="-5.646329">
        <ele>37.290</ele>
        <time>2022-08-27T08:20:00Z</time>
      </trkpt>
      <trkpt lat="43.537922" lon="-5.646282">
        <ele>38.519</ele>
        <time>2022-08-27T08:20:02Z</time>
      </trkpt>
      <trkpt lat="43.538000" lon="-5.646230">
        <ele>39.309</ele>
        <time>2022-08-27T08:20:03Z</time>
      </trkpt>
      <trkpt lat="43.538058" lon="-5.646177">
        <ele>39.598</ele>
        <time>2022-08-27T08:20:06Z</time>
      </trkpt>
      <trkpt lat="43.538111" lon="-5.646117">
        <ele>39.938</ele>
        <time>2022-08-27T08:20:08Z</time>
      </trkpt>
      <trkpt lat="43.538173" lon="-5.646067">
        <ele>40.019</ele>
        <time>2022-08-27T08:20:10Z</time>
      </trkpt>
      <trkpt lat="43.538241" lon="-5.646022">
        <ele>40.047</ele>
        <time>2022-08-27T08:20:12Z</time>
      </trkpt>
      <trkpt lat="43.538311" lon="-5.645972">
        <ele>39.827</ele>
        <time>2022-08-27T08:20:14Z</time>
      </trkpt>
      <trkpt lat="43.538366" lon="-5.645912">
        <ele>39.583</ele>
        <time>2022-08-27T08:20:16Z</time>
      </trkpt>
      <trkpt lat="43.538426" lon="-5.645860">
        <ele>39.527</ele>
        <time>2022-08-27T08:20:17Z</time>
      </trkpt>
      <trkpt lat="43.538491" lon="-5.645803">
        <ele>39.874</ele>
        <time>2022-08-27T08:20:20Z</time>
      </trkpt>
      <trkpt lat="43.538546" lon="-5.645748">
        <ele>40.871</ele>
        <time>2022-08-27T08:20:22Z</time>
      </trkpt>
      <trkpt lat="43.538616" lon="-5.645698">
        <ele>41.464</ele>
        <time>2022-08-27T08:20:24Z</time>
      </trkpt>
      <trkpt lat="43.538678" lon="-5.645645">
        <ele>41.806</ele>
        <time>2022-08-27T08:20:26Z</time>
      </trkpt>
      <trkpt lat="43.538741" lon="-5.645588">
        <ele>41.816</ele>
        <time>2022-08-27T08:20:28Z</time>
      </trkpt>
      <trkpt lat="43.538794" lon="-5.645558">
        <ele>41.809</ele>
        <time>2022-08-27T08:20:30Z</time>
      </trkpt>
      <trkpt lat="43.538852" lon="-5.645526">
        <ele>41.827</ele>
        <time>2022-08-27T08:20:32Z</time>
      </trkpt>
      <trkpt lat="43.538909" lon="-5.645498">
        <ele>41.687</ele>
        <time>2022-08-27T08:20:34Z</time>
      </trkpt>
      <trkpt lat="43.538949" lon="-5.645450">
        <ele>41.188</ele>
        <time>2022-08-27T08:20:36Z</time>
      </trkpt>
      <trkpt lat="43.538997" lon="-5.645390">
        <ele>40.676</ele>
        <time>2022-08-27T08:20:38Z</time>
      </trkpt>
      <trkpt lat="43.539054" lon="-5.645328">
        <ele>40.566</ele>
        <time>2022-08-27T08:20:40Z</time>
      </trkpt>
      <trkpt lat="43.539111" lon="-5.645266">
        <ele>40.552</ele>
        <time>2022-08-27T08:20:42Z</time>
      </trkpt>
      <trkpt lat="43.539166" lon="-5.645206">
        <ele>40.456</ele>
        <time>2022-08-27T08:20:44Z</time>
      </trkpt>
      <trkpt lat="43.539221" lon="-5.645146">
        <ele>40.483</ele>
        <time>2022-08-27T08:20:46Z</time>
      </trkpt>
      <trkpt lat="43.539291" lon="-5.645094">
        <ele>40.190</ele>
        <time>2022-08-27T08:20:48Z</time>
      </trkpt>
      <trkpt lat="43.539354" lon="-5.645034">
        <ele>39.784</ele>
        <time>2022-08-27T08:20:50Z</time>
      </trkpt>
      <trkpt lat="43.539417" lon="-5.644994">
        <ele>39.407</ele>
        <time>2022-08-27T08:20:52Z</time>
      </trkpt>
      <trkpt lat="43.539494" lon="-5.644957">
        <ele>39.417</ele>
        <time>2022-08-27T08:20:53Z</time>
      </trkpt>
      <trkpt lat="43.539557" lon="-5.644905">
        <ele>39.809</ele>
        <time>2022-08-27T08:20:56Z</time>
      </trkpt>
      <trkpt lat="43.539617" lon="-5.644852">
        <ele>41.619</ele>
        <time>2022-08-27T08:20:58Z</time>
      </trkpt>
      <trkpt lat="43.539669" lon="-5.644792">
        <ele>41.849</ele>
        <time>2022-08-27T08:21:00Z</time>
      </trkpt>
      <trkpt lat="43.539734" lon="-5.644740">
        <ele>41.870</ele>
        <time>2022-08-27T08:21:02Z</time>
      </trkpt>
      <trkpt lat="43.539787" lon="-5.644680">
        <ele>41.368</ele>
        <time>2022-08-27T08:21:04Z</time>
      </trkpt>
      <trkpt lat="43.539797" lon="-5.644582">
        <ele>41.028</ele>
        <time>2022-08-27T08:21:06Z</time>
      </trkpt>
      <trkpt lat="43.539800" lon="-5.644484">
        <ele>40.714</ele>
        <time>2022-08-27T08:21:08Z</time>
      </trkpt>
      <trkpt lat="43.539832" lon="-5.644394">
        <ele>40.518</ele>
        <time>2022-08-27T08:21:10Z</time>
      </trkpt>
      <trkpt lat="43.539885" lon="-5.644334">
        <ele>40.565</ele>
        <time>2022-08-27T08:21:12Z</time>
      </trkpt>
      <trkpt lat="43.539950" lon="-5.644294">
        <ele>40.522</ele>
        <time>2022-08-27T08:21:14Z</time>
      </trkpt>
      <trkpt lat="43.540025" lon="-5.644292">
        <ele>40.699</ele>
        <time>2022-08-27T08:21:16Z</time>
      </trkpt>
      <trkpt lat="43.540097" lon="-5.644315">
        <ele>40.607</ele>
        <time>2022-08-27T08:21:18Z</time>
      </trkpt>
      <trkpt lat="43.540167" lon="-5.644347">
        <ele>40.027</ele>
        <time>2022-08-27T08:21:20Z</time>
      </trkpt>
      <trkpt lat="43.540247" lon="-5.644339">
        <ele>39.109</ele>
        <time>2022-08-27T08:21:22Z</time>
      </trkpt>
      <trkpt lat="43.540315" lon="-5.644302">
        <ele>38.250</ele>
        <time>2022-08-27T08:21:24Z</time>
      </trkpt>
      <trkpt lat="43.540383" lon="-5.644254">
        <ele>37.370</ele>
        <time>2022-08-27T08:21:26Z</time>
      </trkpt>
      <trkpt lat="43.540445" lon="-5.644199">
        <ele>36.931</ele>
        <time>2022-08-27T08:21:28Z</time>
      </trkpt>
      <trkpt lat="43.540503" lon="-5.644146">
        <ele>36.939</ele>
        <time>2022-08-27T08:21:30Z</time>
      </trkpt>
      <trkpt lat="43.540556" lon="-5.644101">
        <ele>37.269</ele>
        <time>2022-08-27T08:21:32Z</time>
      </trkpt>
      <trkpt lat="43.540614" lon="-5.644061">
        <ele>37.455</ele>
        <time>2022-08-27T08:21:34Z</time>
      </trkpt>
      <trkpt lat="43.540661" lon="-5.644023">
        <ele>37.349</ele>
        <time>2022-08-27T08:21:36Z</time>
      </trkpt>
      <trkpt lat="43.540701" lon="-5.643986">
        <ele>37.396</ele>
        <time>2022-08-27T08:21:38Z</time>
      </trkpt>
      <trkpt lat="43.540759" lon="-5.643938">
        <ele>37.263</ele>
        <time>2022-08-27T08:21:41Z</time>
      </trkpt>
      <trkpt lat="43.540812" lon="-5.643905">
        <ele>37.234</ele>
        <time>2022-08-27T08:21:44Z</time>
      </trkpt>
      <trkpt lat="43.540842" lon="-5.643858">
        <ele>36.555</ele>
        <time>2022-08-27T08:22:18Z</time>
      </trkpt>
      <trkpt lat="43.540900" lon="-5.643823">
        <ele>36.510</ele>
        <time>2022-08-27T08:22:20Z</time>
      </trkpt>
      <trkpt lat="43.540962" lon="-5.643773">
        <ele>36.509</ele>
        <time>2022-08-27T08:22:22Z</time>
      </trkpt>
      <trkpt lat="43.541032" lon="-5.643716">
        <ele>36.554</ele>
        <time>2022-08-27T08:22:24Z</time>
      </trkpt>
      <trkpt lat="43.541102" lon="-5.643661">
        <ele>37.384</ele>
        <time>2022-08-27T08:22:26Z</time>
      </trkpt>
      <trkpt lat="43.541177" lon="-5.643603">
        <ele>36.965</ele>
        <time>2022-08-27T08:22:28Z</time>
      </trkpt>
      <trkpt lat="43.541244" lon="-5.643533">
        <ele>36.963</ele>
        <time>2022-08-27T08:22:30Z</time>
      </trkpt>
      <trkpt lat="43.541296" lon="-5.643438">
        <ele>37.383</ele>
        <time>2022-08-27T08:22:32Z</time>
      </trkpt>
      <trkpt lat="43.541341" lon="-5.643326">
        <ele>38.339</ele>
        <time>2022-08-27T08:22:34Z</time>
      </trkpt>
      <trkpt lat="43.541363" lon="-5.643268">
        <ele>38.613</ele>
        <time>2022-08-27T08:22:35Z</time>
      </trkpt>
      <trkpt lat="43.541410" lon="-5.643138">
        <ele>39.220</ele>
        <time>2022-08-27T08:22:37Z</time>
      </trkpt>
      <trkpt lat="43.541427" lon="-5.643066">
        <ele>39.567</ele>
        <time>2022-08-27T08:22:38Z</time>
      </trkpt>
      <trkpt lat="43.541460" lon="-5.642924">
        <ele>39.873</ele>
        <time>2022-08-27T08:22:40Z</time>
      </trkpt>
      <trkpt lat="43.541508" lon="-5.642801">
        <ele>39.885</ele>
        <time>2022-08-27T08:22:42Z</time>
      </trkpt>
      <trkpt lat="43.541535" lon="-5.642743">
        <ele>39.813</ele>
        <time>2022-08-27T08:22:43Z</time>
      </trkpt>
      <trkpt lat="43.541560" lon="-5.642691">
        <ele>39.809</ele>
        <time>2022-08-27T08:22:44Z</time>
      </trkpt>
      <trkpt lat="43.541583" lon="-5.642638">
        <ele>39.738</ele>
        <time>2022-08-27T08:22:45Z</time>
      </trkpt>
      <trkpt lat="43.541618" lon="-5.642531">
        <ele>39.598</ele>
        <time>2022-08-27T08:22:47Z</time>
      </trkpt>
      <trkpt lat="43.541655" lon="-5.642413">
        <ele>39.339</ele>
        <time>2022-08-27T08:22:49Z</time>
      </trkpt>
      <trkpt lat="43.541670" lon="-5.642350">
        <ele>39.227</ele>
        <time>2022-08-27T08:22:50Z</time>
      </trkpt>
      <trkpt lat="43.541687" lon="-5.642287">
        <ele>39.167</ele>
        <time>2022-08-27T08:22:51Z</time>
      </trkpt>
      <trkpt lat="43.541704" lon="-5.642222">
        <ele>38.943</ele>
        <time>2022-08-27T08:22:52Z</time>
      </trkpt>
      <trkpt lat="43.541736" lon="-5.642094">
        <ele>38.517</ele>
        <time>2022-08-27T08:22:54Z</time>
      </trkpt>
      <trkpt lat="43.541779" lon="-5.641967">
        <ele>38.584</ele>
        <time>2022-08-27T08:22:55Z</time>
      </trkpt>
      <trkpt lat="43.541802" lon="-5.641904">
        <ele>38.521</ele>
        <time>2022-08-27T08:22:57Z</time>
      </trkpt>
      <trkpt lat="43.541822" lon="-5.641839">
        <ele>38.559</ele>
        <time>2022-08-27T08:22:58Z</time>
      </trkpt>
      <trkpt lat="43.541860" lon="-5.641711">
        <ele>38.603</ele>
        <time>2022-08-27T08:23:00Z</time>
      </trkpt>
      <trkpt lat="43.541895" lon="-5.641581">
        <ele>38.523</ele>
        <time>2022-08-27T08:23:02Z</time>
      </trkpt>
      <trkpt lat="43.541910" lon="-5.641513">
        <ele>38.209</ele>
        <time>2022-08-27T08:23:03Z</time>
      </trkpt>
      <trkpt lat="43.541927" lon="-5.641450">
        <ele>38.086</ele>
        <time>2022-08-27T08:23:04Z</time>
      </trkpt>
      <trkpt lat="43.541960" lon="-5.641323">
        <ele>37.546</ele>
        <time>2022-08-27T08:23:06Z</time>
      </trkpt>
      <trkpt lat="43.541975" lon="-5.641258">
        <ele>37.437</ele>
        <time>2022-08-27T08:23:07Z</time>
      </trkpt>
      <trkpt lat="43.542002" lon="-5.641120">
        <ele>37.285</ele>
        <time>2022-08-27T08:23:09Z</time>
      </trkpt>
      <trkpt lat="43.542019" lon="-5.640980">
        <ele>36.945</ele>
        <time>2022-08-27T08:23:11Z</time>
      </trkpt>
      <trkpt lat="43.542024" lon="-5.640912">
        <ele>36.821</ele>
        <time>2022-08-27T08:23:12Z</time>
      </trkpt>
      <trkpt lat="43.542029" lon="-5.640842">
        <ele>36.715</ele>
        <time>2022-08-27T08:23:13Z</time>
      </trkpt>
      <trkpt lat="43.542037" lon="-5.640774">
        <ele>36.622</ele>
        <time>2022-08-27T08:23:14Z</time>
      </trkpt>
      <trkpt lat="43.542050" lon="-5.640636">
        <ele>36.279</ele>
        <time>2022-08-27T08:23:16Z</time>
      </trkpt>
      <trkpt lat="43.542062" lon="-5.640501">
        <ele>36.115</ele>
        <time>2022-08-27T08:23:18Z</time>
      </trkpt>
      <trkpt lat="43.542082" lon="-5.640364">
        <ele>36.165</ele>
        <time>2022-08-27T08:23:20Z</time>
      </trkpt>
      <trkpt lat="43.542089" lon="-5.640297">
        <ele>36.111</ele>
        <time>2022-08-27T08:23:21Z</time>
      </trkpt>
      <trkpt lat="43.542102" lon="-5.640154">
        <ele>36.009</ele>
        <time>2022-08-27T08:23:23Z</time>
      </trkpt>
      <trkpt lat="43.542119" lon="-5.640016">
        <ele>36.092</ele>
        <time>2022-08-27T08:23:25Z</time>
      </trkpt>
      <trkpt lat="43.542127" lon="-5.639946">
        <ele>36.052</ele>
        <time>2022-08-27T08:23:26Z</time>
      </trkpt>
      <trkpt lat="43.542137" lon="-5.639809">
        <ele>36.023</ele>
        <time>2022-08-27T08:23:28Z</time>
      </trkpt>
      <trkpt lat="43.542140" lon="-5.639739">
        <ele>36.051</ele>
        <time>2022-08-27T08:23:29Z</time>
      </trkpt>
      <trkpt lat="43.542142" lon="-5.639601">
        <ele>36.491</ele>
        <time>2022-08-27T08:23:31Z</time>
      </trkpt>
      <trkpt lat="43.542147" lon="-5.639461">
        <ele>36.647</ele>
        <time>2022-08-27T08:23:33Z</time>
      </trkpt>
      <trkpt lat="43.542149" lon="-5.639333">
        <ele>36.811</ele>
        <time>2022-08-27T08:23:35Z</time>
      </trkpt>
      <trkpt lat="43.542144" lon="-5.639266">
        <ele>36.968</ele>
        <time>2022-08-27T08:23:36Z</time>
      </trkpt>
      <trkpt lat="43.542141" lon="-5.639203">
        <ele>37.055</ele>
        <time>2022-08-27T08:23:37Z</time>
      </trkpt>
      <trkpt lat="43.542129" lon="-5.639071">
        <ele>37.428</ele>
        <time>2022-08-27T08:23:39Z</time>
      </trkpt>
      <trkpt lat="43.542117" lon="-5.639006">
        <ele>37.689</ele>
        <time>2022-08-27T08:23:40Z</time>
      </trkpt>
      <trkpt lat="43.542109" lon="-5.638941">
        <ele>37.917</ele>
        <time>2022-08-27T08:23:41Z</time>
      </trkpt>
      <trkpt lat="43.542086" lon="-5.638801">
        <ele>38.309</ele>
        <time>2022-08-27T08:23:43Z</time>
      </trkpt>
      <trkpt lat="43.542079" lon="-5.638733">
        <ele>38.473</ele>
        <time>2022-08-27T08:23:44Z</time>
      </trkpt>
      <trkpt lat="43.542059" lon="-5.638598">
        <ele>38.493</ele>
        <time>2022-08-27T08:23:46Z</time>
      </trkpt>
      <trkpt lat="43.542051" lon="-5.638526">
        <ele>38.484</ele>
        <time>2022-08-27T08:23:47Z</time>
      </trkpt>
      <trkpt lat="43.542024" lon="-5.638394">
        <ele>38.412</ele>
        <time>2022-08-27T08:23:49Z</time>
      </trkpt>
      <trkpt lat="43.542011" lon="-5.638329">
        <ele>38.412</ele>
        <time>2022-08-27T08:23:50Z</time>
      </trkpt>
      <trkpt lat="43.541999" lon="-5.638261">
        <ele>38.678</ele>
        <time>2022-08-27T08:23:51Z</time>
      </trkpt>
      <trkpt lat="43.541989" lon="-5.638196">
        <ele>39.052</ele>
        <time>2022-08-27T08:23:52Z</time>
      </trkpt>
      <trkpt lat="43.541966" lon="-5.638066">
        <ele>39.889</ele>
        <time>2022-08-27T08:23:54Z</time>
      </trkpt>
      <trkpt lat="43.541954" lon="-5.637999">
        <ele>39.926</ele>
        <time>2022-08-27T08:23:55Z</time>
      </trkpt>
      <trkpt lat="43.541942" lon="-5.637934">
        <ele>39.986</ele>
        <time>2022-08-27T08:23:56Z</time>
      </trkpt>
      <trkpt lat="43.541914" lon="-5.637801">
        <ele>39.960</ele>
        <time>2022-08-27T08:23:57Z</time>
      </trkpt>
      <trkpt lat="43.541907" lon="-5.637734">
        <ele>39.926</ele>
        <time>2022-08-27T08:23:59Z</time>
      </trkpt>
      <trkpt lat="43.541897" lon="-5.637667">
        <ele>39.909</ele>
        <time>2022-08-27T08:24:00Z</time>
      </trkpt>
      <trkpt lat="43.541887" lon="-5.637600">
        <ele>39.969</ele>
        <time>2022-08-27T08:24:01Z</time>
      </trkpt>
      <trkpt lat="43.541867" lon="-5.637475">
        <ele>39.849</ele>
        <time>2022-08-27T08:24:03Z</time>
      </trkpt>
      <trkpt lat="43.541845" lon="-5.637350">
        <ele>39.690</ele>
        <time>2022-08-27T08:24:05Z</time>
      </trkpt>
      <trkpt lat="43.541837" lon="-5.637228">
        <ele>39.658</ele>
        <time>2022-08-27T08:24:07Z</time>
      </trkpt>
      <trkpt lat="43.541810" lon="-5.637111">
        <ele>39.818</ele>
        <time>2022-08-27T08:24:09Z</time>
      </trkpt>
      <trkpt lat="43.541798" lon="-5.636984">
        <ele>40.944</ele>
        <time>2022-08-27T08:24:11Z</time>
      </trkpt>
      <trkpt lat="43.541793" lon="-5.636919">
        <ele>41.398</ele>
        <time>2022-08-27T08:24:12Z</time>
      </trkpt>
      <trkpt lat="43.541791" lon="-5.636789">
        <ele>41.465</ele>
        <time>2022-08-27T08:24:14Z</time>
      </trkpt>
      <trkpt lat="43.541789" lon="-5.636722">
        <ele>41.472</ele>
        <time>2022-08-27T08:24:15Z</time>
      </trkpt>
      <trkpt lat="43.541792" lon="-5.636659">
        <ele>41.445</ele>
        <time>2022-08-27T08:24:16Z</time>
      </trkpt>
      <trkpt lat="43.541797" lon="-5.636597">
        <ele>41.347</ele>
        <time>2022-08-27T08:24:17Z</time>
      </trkpt>
      <trkpt lat="43.541799" lon="-5.636464">
        <ele>40.611</ele>
        <time>2022-08-27T08:24:19Z</time>
      </trkpt>
      <trkpt lat="43.541802" lon="-5.636399">
        <ele>40.209</ele>
        <time>2022-08-27T08:24:20Z</time>
      </trkpt>
      <trkpt lat="43.541812" lon="-5.636266">
        <ele>39.755</ele>
        <time>2022-08-27T08:24:22Z</time>
      </trkpt>
      <trkpt lat="43.541817" lon="-5.636201">
        <ele>39.535</ele>
        <time>2022-08-27T08:24:23Z</time>
      </trkpt>
      <trkpt lat="43.541829" lon="-5.636076">
        <ele>39.366</ele>
        <time>2022-08-27T08:24:25Z</time>
      </trkpt>
      <trkpt lat="43.541836" lon="-5.636006">
        <ele>39.284</ele>
        <time>2022-08-27T08:24:26Z</time>
      </trkpt>
      <trkpt lat="43.541839" lon="-5.635939">
        <ele>39.184</ele>
        <time>2022-08-27T08:24:27Z</time>
      </trkpt>
      <trkpt lat="43.541844" lon="-5.635874">
        <ele>39.030</ele>
        <time>2022-08-27T08:24:28Z</time>
      </trkpt>
      <trkpt lat="43.541847" lon="-5.635742">
        <ele>38.514</ele>
        <time>2022-08-27T08:24:30Z</time>
      </trkpt>
      <trkpt lat="43.541854" lon="-5.635620">
        <ele>38.481</ele>
        <time>2022-08-27T08:24:32Z</time>
      </trkpt>
      <trkpt lat="43.541864" lon="-5.635497">
        <ele>38.358</ele>
        <time>2022-08-27T08:24:34Z</time>
      </trkpt>
      <trkpt lat="43.541872" lon="-5.635382">
        <ele>38.338</ele>
        <time>2022-08-27T08:24:36Z</time>
      </trkpt>
      <trkpt lat="43.541884" lon="-5.635264">
        <ele>38.370</ele>
        <time>2022-08-27T08:24:38Z</time>
      </trkpt>
      <trkpt lat="43.541897" lon="-5.635149">
        <ele>38.217</ele>
        <time>2022-08-27T08:24:40Z</time>
      </trkpt>
      <trkpt lat="43.541907" lon="-5.635042">
        <ele>38.309</ele>
        <time>2022-08-27T08:24:42Z</time>
      </trkpt>
      <trkpt lat="43.541919" lon="-5.634940">
        <ele>38.334</ele>
        <time>2022-08-27T08:24:44Z</time>
      </trkpt>
      <trkpt lat="43.541916" lon="-5.634837">
        <ele>38.524</ele>
        <time>2022-08-27T08:24:46Z</time>
      </trkpt>
      <trkpt lat="43.541929" lon="-5.634734">
        <ele>39.595</ele>
        <time>2022-08-27T08:24:48Z</time>
      </trkpt>
      <trkpt lat="43.541941" lon="-5.634626">
        <ele>40.693</ele>
        <time>2022-08-27T08:24:50Z</time>
      </trkpt>
      <trkpt lat="43.541946" lon="-5.634511">
        <ele>41.773</ele>
        <time>2022-08-27T08:24:52Z</time>
      </trkpt>
      <trkpt lat="43.541958" lon="-5.634401">
        <ele>41.769</ele>
        <time>2022-08-27T08:24:54Z</time>
      </trkpt>
      <trkpt lat="43.541966" lon="-5.634296">
        <ele>41.773</ele>
        <time>2022-08-27T08:24:56Z</time>
      </trkpt>
      <trkpt lat="43.541973" lon="-5.634189">
        <ele>41.430</ele>
        <time>2022-08-27T08:24:58Z</time>
      </trkpt>
      <trkpt lat="43.541985" lon="-5.634079">
        <ele>41.477</ele>
        <time>2022-08-27T08:25:00Z</time>
      </trkpt>
      <trkpt lat="43.541993" lon="-5.633969">
        <ele>41.571</ele>
        <time>2022-08-27T08:25:02Z</time>
      </trkpt>
      <trkpt lat="43.541998" lon="-5.633864">
        <ele>41.941</ele>
        <time>2022-08-27T08:25:04Z</time>
      </trkpt>
      <trkpt lat="43.541998" lon="-5.633764">
        <ele>42.415</ele>
        <time>2022-08-27T08:25:06Z</time>
      </trkpt>
      <trkpt lat="43.541996" lon="-5.633662">
        <ele>42.709</ele>
        <time>2022-08-27T08:25:08Z</time>
      </trkpt>
      <trkpt lat="43.541996" lon="-5.633557">
        <ele>42.968</ele>
        <time>2022-08-27T08:25:10Z</time>
      </trkpt>
      <trkpt lat="43.541989" lon="-5.633452">
        <ele>42.988</ele>
        <time>2022-08-27T08:25:12Z</time>
      </trkpt>
      <trkpt lat="43.541979" lon="-5.633347">
        <ele>42.919</ele>
        <time>2022-08-27T08:25:14Z</time>
      </trkpt>
      <trkpt lat="43.541964" lon="-5.633249">
        <ele>43.077</ele>
        <time>2022-08-27T08:25:16Z</time>
      </trkpt>
      <trkpt lat="43.541944" lon="-5.633156">
        <ele>43.497</ele>
        <time>2022-08-27T08:25:18Z</time>
      </trkpt>
      <trkpt lat="43.541916" lon="-5.633068">
        <ele>43.743</ele>
        <time>2022-08-27T08:25:20Z</time>
      </trkpt>
      <trkpt lat="43.541883" lon="-5.632983">
        <ele>43.817</ele>
        <time>2022-08-27T08:25:22Z</time>
      </trkpt>
      <trkpt lat="43.541855" lon="-5.632891">
        <ele>43.844</ele>
        <time>2022-08-27T08:25:24Z</time>
      </trkpt>
      <trkpt lat="43.541828" lon="-5.632804">
        <ele>44.011</ele>
        <time>2022-08-27T08:25:26Z</time>
      </trkpt>
      <trkpt lat="43.541801" lon="-5.632716">
        <ele>44.249</ele>
        <time>2022-08-27T08:25:28Z</time>
      </trkpt>
      <trkpt lat="43.541776" lon="-5.632633">
        <ele>44.802</ele>
        <time>2022-08-27T08:25:30Z</time>
      </trkpt>
      <trkpt lat="43.541751" lon="-5.632556">
        <ele>44.922</ele>
        <time>2022-08-27T08:25:32Z</time>
      </trkpt>
      <trkpt lat="43.541719" lon="-5.632474">
        <ele>45.109</ele>
        <time>2022-08-27T08:25:34Z</time>
      </trkpt>
      <trkpt lat="43.541689" lon="-5.632391">
        <ele>45.115</ele>
        <time>2022-08-27T08:25:36Z</time>
      </trkpt>
      <trkpt lat="43.541654" lon="-5.632309">
        <ele>44.815</ele>
        <time>2022-08-27T08:25:38Z</time>
      </trkpt>
      <trkpt lat="43.541621" lon="-5.632217">
        <ele>44.246</ele>
        <time>2022-08-27T08:25:40Z</time>
      </trkpt>
      <trkpt lat="43.541589" lon="-5.632122">
        <ele>44.164</ele>
        <time>2022-08-27T08:25:42Z</time>
      </trkpt>
      <trkpt lat="43.541554" lon="-5.632025">
        <ele>44.044</ele>
        <time>2022-08-27T08:25:44Z</time>
      </trkpt>
      <trkpt lat="43.541522" lon="-5.631920">
        <ele>43.960</ele>
        <time>2022-08-27T08:25:46Z</time>
      </trkpt>
      <trkpt lat="43.541497" lon="-5.631815">
        <ele>43.894</ele>
        <time>2022-08-27T08:25:48Z</time>
      </trkpt>
      <trkpt lat="43.541467" lon="-5.631715">
        <ele>43.551</ele>
        <time>2022-08-27T08:25:50Z</time>
      </trkpt>
      <trkpt lat="43.541437" lon="-5.631622">
        <ele>42.988</ele>
        <time>2022-08-27T08:25:52Z</time>
      </trkpt>
      <trkpt lat="43.541405" lon="-5.631530">
        <ele>42.948</ele>
        <time>2022-08-27T08:25:54Z</time>
      </trkpt>
      <trkpt lat="43.541373" lon="-5.631445">
        <ele>42.961</ele>
        <time>2022-08-27T08:25:56Z</time>
      </trkpt>
      <trkpt lat="43.541345" lon="-5.631358">
        <ele>43.117</ele>
        <time>2022-08-27T08:25:58Z</time>
      </trkpt>
      <trkpt lat="43.541315" lon="-5.631266">
        <ele>43.309</ele>
        <time>2022-08-27T08:26:00Z</time>
      </trkpt>
      <trkpt lat="43.541285" lon="-5.631181">
        <ele>43.625</ele>
        <time>2022-08-27T08:26:02Z</time>
      </trkpt>
      <trkpt lat="43.541260" lon="-5.631103">
        <ele>43.745</ele>
        <time>2022-08-27T08:26:04Z</time>
      </trkpt>
      <trkpt lat="43.541247" lon="-5.631038">
        <ele>43.746</ele>
        <time>2022-08-27T08:26:06Z</time>
      </trkpt>
      <trkpt lat="43.541222" lon="-5.630986">
        <ele>43.844</ele>
        <time>2022-08-27T08:26:08Z</time>
      </trkpt>
      <trkpt lat="43.541190" lon="-5.630909">
        <ele>43.984</ele>
        <time>2022-08-27T08:26:11Z</time>
      </trkpt>
      <trkpt lat="43.541163" lon="-5.630822">
        <ele>44.610</ele>
        <time>2022-08-27T08:26:14Z</time>
      </trkpt>
      <trkpt lat="43.541145" lon="-5.630764">
        <ele>44.824</ele>
        <time>2022-08-27T08:26:16Z</time>
      </trkpt>
      <trkpt lat="43.541132" lon="-5.630704">
        <ele>45.111</ele>
        <time>2022-08-27T08:26:18Z</time>
      </trkpt>
      <trkpt lat="43.541110" lon="-5.630627">
        <ele>45.138</ele>
        <time>2022-08-27T08:26:21Z</time>
      </trkpt>
      <trkpt lat="43.541110" lon="-5.630560">
        <ele>45.298</ele>
        <time>2022-08-27T08:26:24Z</time>
      </trkpt>
      <trkpt lat="43.541070" lon="-5.630518">
        <ele>47.615</ele>
        <time>2022-08-27T08:26:27Z</time>
      </trkpt>
      <trkpt lat="43.541037" lon="-5.630476">
        <ele>48.126</ele>
        <time>2022-08-27T08:26:29Z</time>
      </trkpt>
      <trkpt lat="43.540995" lon="-5.630413">
        <ele>48.109</ele>
        <time>2022-08-27T08:26:31Z</time>
      </trkpt>
      <trkpt lat="43.540962" lon="-5.630365">
        <ele>47.910</ele>
        <time>2022-08-27T08:26:34Z</time>
      </trkpt>
      <trkpt lat="43.540932" lon="-5.630310">
        <ele>47.180</ele>
        <time>2022-08-27T08:26:40Z</time>
      </trkpt>
      <trkpt lat="43.540940" lon="-5.630242">
        <ele>45.931</ele>
        <time>2022-08-27T08:27:22Z</time>
      </trkpt>
      <trkpt lat="43.540905" lon="-5.630199">
        <ele>45.939</ele>
        <time>2022-08-27T08:27:24Z</time>
      </trkpt>
      <trkpt lat="43.540857" lon="-5.630134">
        <ele>45.989</ele>
        <time>2022-08-27T08:27:27Z</time>
      </trkpt>
      <trkpt lat="43.540814" lon="-5.630059">
        <ele>45.985</ele>
        <time>2022-08-27T08:27:29Z</time>
      </trkpt>
      <trkpt lat="43.540767" lon="-5.629989">
        <ele>46.249</ele>
        <time>2022-08-27T08:27:31Z</time>
      </trkpt>
      <trkpt lat="43.540720" lon="-5.629914">
        <ele>49.556</ele>
        <time>2022-08-27T08:27:33Z</time>
      </trkpt>
      <trkpt lat="43.540665" lon="-5.629836">
        <ele>49.463</ele>
        <time>2022-08-27T08:27:35Z</time>
      </trkpt>
      <trkpt lat="43.540618" lon="-5.629756">
        <ele>49.271</ele>
        <time>2022-08-27T08:27:37Z</time>
      </trkpt>
      <trkpt lat="43.540568" lon="-5.629678">
        <ele>48.941</ele>
        <time>2022-08-27T08:27:39Z</time>
      </trkpt>
      <trkpt lat="43.540518" lon="-5.629598">
        <ele>48.715</ele>
        <time>2022-08-27T08:27:41Z</time>
      </trkpt>
      <trkpt lat="43.540468" lon="-5.629513">
        <ele>48.709</ele>
        <time>2022-08-27T08:27:43Z</time>
      </trkpt>
      <trkpt lat="43.540416" lon="-5.629431">
        <ele>48.598</ele>
        <time>2022-08-27T08:27:45Z</time>
      </trkpt>
      <trkpt lat="43.540364" lon="-5.629358">
        <ele>48.118</ele>
        <time>2022-08-27T08:27:47Z</time>
      </trkpt>
      <trkpt lat="43.540316" lon="-5.629280">
        <ele>48.049</ele>
        <time>2022-08-27T08:27:49Z</time>
      </trkpt>
      <trkpt lat="43.540273" lon="-5.629205">
        <ele>47.737</ele>
        <time>2022-08-27T08:27:51Z</time>
      </trkpt>
      <trkpt lat="43.540228" lon="-5.629137">
        <ele>47.617</ele>
        <time>2022-08-27T08:27:53Z</time>
      </trkpt>
      <trkpt lat="43.540181" lon="-5.629070">
        <ele>47.543</ele>
        <time>2022-08-27T08:27:55Z</time>
      </trkpt>
      <trkpt lat="43.540146" lon="-5.629000">
        <ele>47.517</ele>
        <time>2022-08-27T08:27:57Z</time>
      </trkpt>
      <trkpt lat="43.540111" lon="-5.628937">
        <ele>47.624</ele>
        <time>2022-08-27T08:27:59Z</time>
      </trkpt>
      <trkpt lat="43.540084" lon="-5.628857">
        <ele>48.131</ele>
        <time>2022-08-27T08:28:01Z</time>
      </trkpt>
      <trkpt lat="43.540054" lon="-5.628769">
        <ele>48.729</ele>
        <time>2022-08-27T08:28:03Z</time>
      </trkpt>
      <trkpt lat="43.540029" lon="-5.628672">
        <ele>49.800</ele>
        <time>2022-08-27T08:28:05Z</time>
      </trkpt>
      <trkpt lat="43.540002" lon="-5.628569">
        <ele>50.020</ele>
        <time>2022-08-27T08:28:07Z</time>
      </trkpt>
      <trkpt lat="43.539975" lon="-5.628472">
        <ele>50.009</ele>
        <time>2022-08-27T08:28:09Z</time>
      </trkpt>
      <trkpt lat="43.539953" lon="-5.628382">
        <ele>50.053</ele>
        <time>2022-08-27T08:28:11Z</time>
      </trkpt>
      <trkpt lat="43.539926" lon="-5.628305">
        <ele>50.063</ele>
        <time>2022-08-27T08:28:13Z</time>
      </trkpt>
      <trkpt lat="43.539898" lon="-5.628230">
        <ele>49.974</ele>
        <time>2022-08-27T08:28:15Z</time>
      </trkpt>
      <trkpt lat="43.539885" lon="-5.628142">
        <ele>49.822</ele>
        <time>2022-08-27T08:28:17Z</time>
      </trkpt>
      <trkpt lat="43.539875" lon="-5.628052">
        <ele>49.582</ele>
        <time>2022-08-27T08:28:19Z</time>
      </trkpt>
      <trkpt lat="43.539862" lon="-5.627957">
        <ele>49.448</ele>
        <time>2022-08-27T08:28:21Z</time>
      </trkpt>
      <trkpt lat="43.539839" lon="-5.627864">
        <ele>49.412</ele>
        <time>2022-08-27T08:28:23Z</time>
      </trkpt>
      <trkpt lat="43.539819" lon="-5.627777">
        <ele>49.459</ele>
        <time>2022-08-27T08:28:25Z</time>
      </trkpt>
      <trkpt lat="43.539794" lon="-5.627690">
        <ele>50.286</ele>
        <time>2022-08-27T08:28:27Z</time>
      </trkpt>
      <trkpt lat="43.539771" lon="-5.627607">
        <ele>51.298</ele>
        <time>2022-08-27T08:28:29Z</time>
      </trkpt>
      <trkpt lat="43.539743" lon="-5.627534">
        <ele>51.615</ele>
        <time>2022-08-27T08:28:31Z</time>
      </trkpt>
      <trkpt lat="43.539711" lon="-5.627462">
        <ele>51.826</ele>
        <time>2022-08-27T08:28:33Z</time>
      </trkpt>
      <trkpt lat="43.539688" lon="-5.627385">
        <ele>51.909</ele>
        <time>2022-08-27T08:28:35Z</time>
      </trkpt>
      <trkpt lat="43.539661" lon="-5.627302">
        <ele>52.120</ele>
        <time>2022-08-27T08:28:37Z</time>
      </trkpt>
      <trkpt lat="43.539641" lon="-5.627219">
        <ele>52.490</ele>
        <time>2022-08-27T08:28:39Z</time>
      </trkpt>
      <trkpt lat="43.539621" lon="-5.627141">
        <ele>52.681</ele>
        <time>2022-08-27T08:28:41Z</time>
      </trkpt>
      <trkpt lat="43.539601" lon="-5.627058">
        <ele>52.949</ele>
        <time>2022-08-27T08:28:43Z</time>
      </trkpt>
      <trkpt lat="43.539581" lon="-5.626975">
        <ele>53.039</ele>
        <time>2022-08-27T08:28:45Z</time>
      </trkpt>
      <trkpt lat="43.539553" lon="-5.626905">
        <ele>53.345</ele>
        <time>2022-08-27T08:28:47Z</time>
      </trkpt>
      <trkpt lat="43.539526" lon="-5.626838">
        <ele>53.529</ele>
        <time>2022-08-27T08:28:49Z</time>
      </trkpt>
      <trkpt lat="43.539506" lon="-5.626768">
        <ele>53.686</ele>
        <time>2022-08-27T08:28:51Z</time>
      </trkpt>
      <trkpt lat="43.539479" lon="-5.626703">
        <ele>53.663</ele>
        <time>2022-08-27T08:28:53Z</time>
      </trkpt>
      <trkpt lat="43.539447" lon="-5.626633">
        <ele>53.734</ele>
        <time>2022-08-27T08:28:55Z</time>
      </trkpt>
      <trkpt lat="43.539427" lon="-5.626566">
        <ele>54.055</ele>
        <time>2022-08-27T08:28:57Z</time>
      </trkpt>
      <trkpt lat="43.539400" lon="-5.626496">
        <ele>54.710</ele>
        <time>2022-08-27T08:28:59Z</time>
      </trkpt>
      <trkpt lat="43.539375" lon="-5.626426">
        <ele>55.509</ele>
        <time>2022-08-27T08:29:01Z</time>
      </trkpt>
      <trkpt lat="43.539353" lon="-5.626353">
        <ele>55.514</ele>
        <time>2022-08-27T08:29:03Z</time>
      </trkpt>
      <trkpt lat="43.539330" lon="-5.626275">
        <ele>55.694</ele>
        <time>2022-08-27T08:29:05Z</time>
      </trkpt>
      <trkpt lat="43.539308" lon="-5.626207">
        <ele>55.825</ele>
        <time>2022-08-27T08:29:07Z</time>
      </trkpt>
      <trkpt lat="43.539283" lon="-5.626137">
        <ele>56.893</ele>
        <time>2022-08-27T08:29:09Z</time>
      </trkpt>
      <trkpt lat="43.539263" lon="-5.626070">
        <ele>57.143</ele>
        <time>2022-08-27T08:29:11Z</time>
      </trkpt>
      <trkpt lat="43.539240" lon="-5.626007">
        <ele>57.139</ele>
        <time>2022-08-27T08:29:13Z</time>
      </trkpt>
      <trkpt lat="43.539213" lon="-5.625929">
        <ele>57.183</ele>
        <time>2022-08-27T08:29:15Z</time>
      </trkpt>
      <trkpt lat="43.539180" lon="-5.625844">
        <ele>57.120</ele>
        <time>2022-08-27T08:29:17Z</time>
      </trkpt>
      <trkpt lat="43.539137" lon="-5.625772">
        <ele>57.057</ele>
        <time>2022-08-27T08:29:19Z</time>
      </trkpt>
      <trkpt lat="43.539100" lon="-5.625707">
        <ele>57.567</ele>
        <time>2022-08-27T08:29:21Z</time>
      </trkpt>
      <trkpt lat="43.539060" lon="-5.625639">
        <ele>58.481</ele>
        <time>2022-08-27T08:29:23Z</time>
      </trkpt>
      <trkpt lat="43.539017" lon="-5.625579">
        <ele>58.819</ele>
        <time>2022-08-27T08:29:25Z</time>
      </trkpt>
      <trkpt lat="43.538964" lon="-5.625509">
        <ele>59.509</ele>
        <time>2022-08-27T08:29:27Z</time>
      </trkpt>
      <trkpt lat="43.538917" lon="-5.625436">
        <ele>60.487</ele>
        <time>2022-08-27T08:29:29Z</time>
      </trkpt>
      <trkpt lat="43.538877" lon="-5.625361">
        <ele>60.447</ele>
        <time>2022-08-27T08:29:31Z</time>
      </trkpt>
      <trkpt lat="43.538837" lon="-5.625293">
        <ele>60.478</ele>
        <time>2022-08-27T08:29:33Z</time>
      </trkpt>
      <trkpt lat="43.538784" lon="-5.625215">
        <ele>60.236</ele>
        <time>2022-08-27T08:29:35Z</time>
      </trkpt>
      <trkpt lat="43.538744" lon="-5.625142">
        <ele>60.076</ele>
        <time>2022-08-27T08:29:37Z</time>
      </trkpt>
      <trkpt lat="43.538694" lon="-5.625069">
        <ele>59.842</ele>
        <time>2022-08-27T08:29:39Z</time>
      </trkpt>
      <trkpt lat="43.538642" lon="-5.624979">
        <ele>59.256</ele>
        <time>2022-08-27T08:29:41Z</time>
      </trkpt>
      <trkpt lat="43.538594" lon="-5.624902">
        <ele>58.993</ele>
        <time>2022-08-27T08:29:43Z</time>
      </trkpt>
      <trkpt lat="43.538544" lon="-5.624812">
        <ele>58.270</ele>
        <time>2022-08-27T08:29:45Z</time>
      </trkpt>
      <trkpt lat="43.538491" lon="-5.624722">
        <ele>57.143</ele>
        <time>2022-08-27T08:29:47Z</time>
      </trkpt>
      <trkpt lat="43.538433" lon="-5.624599">
        <ele>56.464</ele>
        <time>2022-08-27T08:29:49Z</time>
      </trkpt>
      <trkpt lat="43.538403" lon="-5.624532">
        <ele>56.010</ele>
        <time>2022-08-27T08:29:50Z</time>
      </trkpt>
      <trkpt lat="43.538346" lon="-5.624409">
        <ele>55.909</ele>
        <time>2022-08-27T08:29:52Z</time>
      </trkpt>
      <trkpt lat="43.538314" lon="-5.624352">
        <ele>55.935</ele>
        <time>2022-08-27T08:29:53Z</time>
      </trkpt>
      <trkpt lat="43.538252" lon="-5.624235">
        <ele>55.945</ele>
        <time>2022-08-27T08:29:55Z</time>
      </trkpt>
      <trkpt lat="43.538225" lon="-5.624170">
        <ele>55.896</ele>
        <time>2022-08-27T08:29:56Z</time>
      </trkpt>
      <trkpt lat="43.538197" lon="-5.624107">
        <ele>55.784</ele>
        <time>2022-08-27T08:29:57Z</time>
      </trkpt>
      <trkpt lat="43.538139" lon="-5.623974">
        <ele>55.654</ele>
        <time>2022-08-27T08:29:59Z</time>
      </trkpt>
      <trkpt lat="43.538112" lon="-5.623909">
        <ele>55.550</ele>
        <time>2022-08-27T08:30:00Z</time>
      </trkpt>
      <trkpt lat="43.538087" lon="-5.623844">
        <ele>55.514</ele>
        <time>2022-08-27T08:30:01Z</time>
      </trkpt>
      <trkpt lat="43.538040" lon="-5.623712">
        <ele>55.531</ele>
        <time>2022-08-27T08:30:03Z</time>
      </trkpt>
      <trkpt lat="43.538018" lon="-5.623642">
        <ele>55.578</ele>
        <time>2022-08-27T08:30:04Z</time>
      </trkpt>
      <trkpt lat="43.537976" lon="-5.623500">
        <ele>55.399</ele>
        <time>2022-08-27T08:30:06Z</time>
      </trkpt>
      <trkpt lat="43.537956" lon="-5.623430">
        <ele>54.707</ele>
        <time>2022-08-27T08:30:07Z</time>
      </trkpt>
      <trkpt lat="43.537913" lon="-5.623288">
        <ele>53.627</ele>
        <time>2022-08-27T08:30:09Z</time>
      </trkpt>
      <trkpt lat="43.537893" lon="-5.623215">
        <ele>53.209</ele>
        <time>2022-08-27T08:30:10Z</time>
      </trkpt>
      <trkpt lat="43.537870" lon="-5.623147">
        <ele>53.230</ele>
        <time>2022-08-27T08:30:11Z</time>
      </trkpt>
      <trkpt lat="43.537828" lon="-5.623019">
        <ele>53.250</ele>
        <time>2022-08-27T08:30:13Z</time>
      </trkpt>
      <trkpt lat="43.537785" lon="-5.622897">
        <ele>53.311</ele>
        <time>2022-08-27T08:30:15Z</time>
      </trkpt>
      <trkpt lat="43.537763" lon="-5.622839">
        <ele>53.589</ele>
        <time>2022-08-27T08:30:16Z</time>
      </trkpt>
      <trkpt lat="43.537741" lon="-5.622784">
        <ele>53.829</ele>
        <time>2022-08-27T08:30:17Z</time>
      </trkpt>
      <trkpt lat="43.537699" lon="-5.622684">
        <ele>54.015</ele>
        <time>2022-08-27T08:30:19Z</time>
      </trkpt>
      <trkpt lat="43.537637" lon="-5.622604">
        <ele>54.049</ele>
        <time>2022-08-27T08:30:21Z</time>
      </trkpt>
      <trkpt lat="43.537579" lon="-5.622527">
        <ele>54.386</ele>
        <time>2022-08-27T08:30:23Z</time>
      </trkpt>
      <trkpt lat="43.537517" lon="-5.622444">
        <ele>54.543</ele>
        <time>2022-08-27T08:30:25Z</time>
      </trkpt>
      <trkpt lat="43.537442" lon="-5.622362">
        <ele>54.756</ele>
        <time>2022-08-27T08:30:27Z</time>
      </trkpt>
      <trkpt lat="43.537405" lon="-5.622312">
        <ele>54.859</ele>
        <time>2022-08-27T08:30:28Z</time>
      </trkpt>
      <trkpt lat="43.537372" lon="-5.622270">
        <ele>55.814</ele>
        <time>2022-08-27T08:30:29Z</time>
      </trkpt>
      <trkpt lat="43.537305" lon="-5.622185">
        <ele>56.009</ele>
        <time>2022-08-27T08:30:31Z</time>
      </trkpt>
      <trkpt lat="43.537233" lon="-5.622098">
        <ele>56.286</ele>
        <time>2022-08-27T08:30:33Z</time>
      </trkpt>
      <trkpt lat="43.537168" lon="-5.622016">
        <ele>56.426</ele>
        <time>2022-08-27T08:30:35Z</time>
      </trkpt>
      <trkpt lat="43.537095" lon="-5.621936">
        <ele>56.547</ele>
        <time>2022-08-27T08:30:37Z</time>
      </trkpt>
      <trkpt lat="43.537035" lon="-5.621861">
        <ele>57.155</ele>
        <time>2022-08-27T08:30:39Z</time>
      </trkpt>
      <trkpt lat="43.536970" lon="-5.621791">
        <ele>57.725</ele>
        <time>2022-08-27T08:30:41Z</time>
      </trkpt>
      <trkpt lat="43.536910" lon="-5.621706">
        <ele>57.851</ele>
        <time>2022-08-27T08:30:43Z</time>
      </trkpt>
      <trkpt lat="43.536868" lon="-5.621621">
        <ele>58.115</ele>
        <time>2022-08-27T08:30:45Z</time>
      </trkpt>
      <trkpt lat="43.536823" lon="-5.621533">
        <ele>58.182</ele>
        <time>2022-08-27T08:30:47Z</time>
      </trkpt>
      <trkpt lat="43.536785" lon="-5.621440">
        <ele>58.129</ele>
        <time>2022-08-27T08:30:49Z</time>
      </trkpt>
      <trkpt lat="43.536768" lon="-5.621382">
        <ele>58.126</ele>
        <time>2022-08-27T08:30:50Z</time>
      </trkpt>
      <trkpt lat="43.536740" lon="-5.621269">
        <ele>58.047</ele>
        <time>2022-08-27T08:30:52Z</time>
      </trkpt>
      <trkpt lat="43.536720" lon="-5.621156">
        <ele>57.511</ele>
        <time>2022-08-27T08:30:54Z</time>
      </trkpt>
      <trkpt lat="43.536700" lon="-5.621044">
        <ele>57.509</ele>
        <time>2022-08-27T08:30:56Z</time>
      </trkpt>
      <trkpt lat="43.536675" lon="-5.620937">
        <ele>57.583</ele>
        <time>2022-08-27T08:30:58Z</time>
      </trkpt>
      <trkpt lat="43.536662" lon="-5.620872">
        <ele>57.683</ele>
        <time>2022-08-27T08:30:59Z</time>
      </trkpt>
      <trkpt lat="43.536645" lon="-5.620814">
        <ele>57.864</ele>
        <time>2022-08-27T08:31:00Z</time>
      </trkpt>
      <trkpt lat="43.536622" lon="-5.620707">
        <ele>58.592</ele>
        <time>2022-08-27T08:31:02Z</time>
      </trkpt>
      <trkpt lat="43.536604" lon="-5.620590">
        <ele>59.562</ele>
        <time>2022-08-27T08:31:04Z</time>
      </trkpt>
      <trkpt lat="43.536584" lon="-5.620478">
        <ele>60.738</ele>
        <time>2022-08-27T08:31:06Z</time>
      </trkpt>
      <trkpt lat="43.536557" lon="-5.620371">
        <ele>61.162</ele>
        <time>2022-08-27T08:31:08Z</time>
      </trkpt>
      <trkpt lat="43.536540" lon="-5.620256">
        <ele>61.199</ele>
        <time>2022-08-27T08:31:10Z</time>
      </trkpt>
      <trkpt lat="43.536528" lon="-5.620141">
        <ele>61.146</ele>
        <time>2022-08-27T08:31:12Z</time>
      </trkpt>
      <trkpt lat="43.536511" lon="-5.620029">
        <ele>60.938</ele>
        <time>2022-08-27T08:31:14Z</time>
      </trkpt>
      <trkpt lat="43.536496" lon="-5.619914">
        <ele>60.970</ele>
        <time>2022-08-27T08:31:16Z</time>
      </trkpt>
      <trkpt lat="43.536468" lon="-5.619802">
        <ele>60.917</ele>
        <time>2022-08-27T08:31:18Z</time>
      </trkpt>
      <trkpt lat="43.536451" lon="-5.619699">
        <ele>61.109</ele>
        <time>2022-08-27T08:31:20Z</time>
      </trkpt>
      <trkpt lat="43.536439" lon="-5.619604">
        <ele>61.124</ele>
        <time>2022-08-27T08:31:22Z</time>
      </trkpt>
      <trkpt lat="43.536422" lon="-5.619517">
        <ele>61.064</ele>
        <time>2022-08-27T08:31:24Z</time>
      </trkpt>
      <trkpt lat="43.536400" lon="-5.619420">
        <ele>60.685</ele>
        <time>2022-08-27T08:31:26Z</time>
      </trkpt>
      <trkpt lat="43.536388" lon="-5.619327">
        <ele>60.413</ele>
        <time>2022-08-27T08:31:28Z</time>
      </trkpt>
      <trkpt lat="43.536373" lon="-5.619215">
        <ele>60.383</ele>
        <time>2022-08-27T08:31:30Z</time>
      </trkpt>
      <trkpt lat="43.536353" lon="-5.619107">
        <ele>59.639</ele>
        <time>2022-08-27T08:31:32Z</time>
      </trkpt>
      <trkpt lat="43.536340" lon="-5.619000">
        <ele>59.443</ele>
        <time>2022-08-27T08:31:34Z</time>
      </trkpt>
      <trkpt lat="43.536338" lon="-5.618888">
        <ele>59.470</ele>
        <time>2022-08-27T08:31:36Z</time>
      </trkpt>
      <trkpt lat="43.536323" lon="-5.618780">
        <ele>59.477</ele>
        <time>2022-08-27T08:31:38Z</time>
      </trkpt>
      <trkpt lat="43.536308" lon="-5.618667">
        <ele>59.663</ele>
        <time>2022-08-27T08:31:40Z</time>
      </trkpt>
      <trkpt lat="43.536285" lon="-5.618570">
        <ele>59.944</ele>
        <time>2022-08-27T08:31:42Z</time>
      </trkpt>
      <trkpt lat="43.536263" lon="-5.618502">
        <ele>59.918</ele>
        <time>2022-08-27T08:31:44Z</time>
      </trkpt>
      <trkpt lat="43.536230" lon="-5.618437">
        <ele>60.109</ele>
        <time>2022-08-27T08:31:46Z</time>
      </trkpt>
      <trkpt lat="43.536193" lon="-5.618364">
        <ele>60.227</ele>
        <time>2022-08-27T08:31:48Z</time>
      </trkpt>
      <trkpt lat="43.536153" lon="-5.618281">
        <ele>60.897</ele>
        <time>2022-08-27T08:31:50Z</time>
      </trkpt>
      <trkpt lat="43.536116" lon="-5.618198">
        <ele>61.648</ele>
        <time>2022-08-27T08:31:52Z</time>
      </trkpt>
      <trkpt lat="43.536073" lon="-5.618110">
        <ele>62.316</ele>
        <time>2022-08-27T08:31:54Z</time>
      </trkpt>
      <trkpt lat="43.536030" lon="-5.618023">
        <ele>63.026</ele>
        <time>2022-08-27T08:31:56Z</time>
      </trkpt>
      <trkpt lat="43.535988" lon="-5.617930">
        <ele>63.612</ele>
        <time>2022-08-27T08:31:58Z</time>
      </trkpt>
      <trkpt lat="43.535953" lon="-5.617833">
        <ele>64.166</ele>
        <time>2022-08-27T08:32:00Z</time>
      </trkpt>
      <trkpt lat="43.535933" lon="-5.617736">
        <ele>64.393</ele>
        <time>2022-08-27T08:32:02Z</time>
      </trkpt>
      <trkpt lat="43.535930" lon="-5.617633">
        <ele>64.530</ele>
        <time>2022-08-27T08:32:04Z</time>
      </trkpt>
      <trkpt lat="43.535942" lon="-5.617521">
        <ele>64.721</ele>
        <time>2022-08-27T08:32:06Z</time>
      </trkpt>
      <trkpt lat="43.535957" lon="-5.617411">
        <ele>65.241</ele>
        <time>2022-08-27T08:32:08Z</time>
      </trkpt>
      <trkpt lat="43.535972" lon="-5.617299">
        <ele>65.305</ele>
        <time>2022-08-27T08:32:10Z</time>
      </trkpt>
      <trkpt lat="43.535989" lon="-5.617194">
        <ele>65.209</ele>
        <time>2022-08-27T08:32:12Z</time>
      </trkpt>
      <trkpt lat="43.536004" lon="-5.617091">
        <ele>64.553</ele>
        <time>2022-08-27T08:32:14Z</time>
      </trkpt>
      <trkpt lat="43.536019" lon="-5.616994">
        <ele>63.763</ele>
        <time>2022-08-27T08:32:16Z</time>
      </trkpt>
      <trkpt lat="43.536029" lon="-5.616892">
        <ele>63.294</ele>
        <time>2022-08-27T08:32:18Z</time>
      </trkpt>
      <trkpt lat="43.536042" lon="-5.616790">
        <ele>62.832</ele>
        <time>2022-08-27T08:32:20Z</time>
      </trkpt>
      <trkpt lat="43.536055" lon="-5.616690">
        <ele>62.862</ele>
        <time>2022-08-27T08:32:22Z</time>
      </trkpt>
      <trkpt lat="43.536072" lon="-5.616588">
        <ele>62.948</ele>
        <time>2022-08-27T08:32:23Z</time>
      </trkpt>
      <trkpt lat="43.536087" lon="-5.616478">
        <ele>63.392</ele>
        <time>2022-08-27T08:32:26Z</time>
      </trkpt>
      <trkpt lat="43.536104" lon="-5.616376">
        <ele>63.699</ele>
        <time>2022-08-27T08:32:28Z</time>
      </trkpt>
      <trkpt lat="43.536126" lon="-5.616274">
        <ele>63.796</ele>
        <time>2022-08-27T08:32:30Z</time>
      </trkpt>
      <trkpt lat="43.536138" lon="-5.616166">
        <ele>63.917</ele>
        <time>2022-08-27T08:32:32Z</time>
      </trkpt>
      <trkpt lat="43.536146" lon="-5.616066">
        <ele>63.987</ele>
        <time>2022-08-27T08:32:34Z</time>
      </trkpt>
      <trkpt lat="43.536154" lon="-5.615963">
        <ele>63.815</ele>
        <time>2022-08-27T08:32:36Z</time>
      </trkpt>
      <trkpt lat="43.536174" lon="-5.615848">
        <ele>63.609</ele>
        <time>2022-08-27T08:32:37Z</time>
      </trkpt>
      <trkpt lat="43.536184" lon="-5.615786">
        <ele>63.632</ele>
        <time>2022-08-27T08:32:39Z</time>
      </trkpt>
      <trkpt lat="43.536192" lon="-5.615724">
        <ele>63.632</ele>
        <time>2022-08-27T08:32:40Z</time>
      </trkpt>
      <trkpt lat="43.536215" lon="-5.615601">
        <ele>64.193</ele>
        <time>2022-08-27T08:32:42Z</time>
      </trkpt>
      <trkpt lat="43.536235" lon="-5.615478">
        <ele>64.441</ele>
        <time>2022-08-27T08:32:44Z</time>
      </trkpt>
      <trkpt lat="43.536252" lon="-5.615356">
        <ele>65.321</ele>
        <time>2022-08-27T08:32:46Z</time>
      </trkpt>
      <trkpt lat="43.536270" lon="-5.615238">
        <ele>66.347</ele>
        <time>2022-08-27T08:32:48Z</time>
      </trkpt>
      <trkpt lat="43.536290" lon="-5.615125">
        <ele>66.371</ele>
        <time>2022-08-27T08:32:50Z</time>
      </trkpt>
      <trkpt lat="43.536297" lon="-5.615063">
        <ele>66.728</ele>
        <time>2022-08-27T08:32:51Z</time>
      </trkpt>
      <trkpt lat="43.536312" lon="-5.614950">
        <ele>66.855</ele>
        <time>2022-08-27T08:32:53Z</time>
      </trkpt>
      <trkpt lat="43.536332" lon="-5.614842">
        <ele>67.079</ele>
        <time>2022-08-27T08:32:55Z</time>
      </trkpt>
      <trkpt lat="43.536349" lon="-5.614744">
        <ele>66.805</ele>
        <time>2022-08-27T08:32:57Z</time>
      </trkpt>
      <trkpt lat="43.536357" lon="-5.614644">
        <ele>66.925</ele>
        <time>2022-08-27T08:32:59Z</time>
      </trkpt>
      <trkpt lat="43.536364" lon="-5.614546">
        <ele>66.909</ele>
        <time>2022-08-27T08:33:01Z</time>
      </trkpt>
      <trkpt lat="43.536367" lon="-5.614459">
        <ele>66.918</ele>
        <time>2022-08-27T08:33:03Z</time>
      </trkpt>
      <trkpt lat="43.536374" lon="-5.614366">
        <ele>66.938</ele>
        <time>2022-08-27T08:33:05Z</time>
      </trkpt>
      <trkpt lat="43.536391" lon="-5.614274">
        <ele>66.929</ele>
        <time>2022-08-27T08:33:07Z</time>
      </trkpt>
      <trkpt lat="43.536411" lon="-5.614186">
        <ele>66.987</ele>
        <time>2022-08-27T08:33:09Z</time>
      </trkpt>
      <trkpt lat="43.536424" lon="-5.614108">
        <ele>68.127</ele>
        <time>2022-08-27T08:33:11Z</time>
      </trkpt>
      <trkpt lat="43.536436" lon="-5.614030">
        <ele>69.763</ele>
        <time>2022-08-27T08:33:13Z</time>
      </trkpt>
      <trkpt lat="43.536451" lon="-5.613950">
        <ele>70.717</ele>
        <time>2022-08-27T08:33:15Z</time>
      </trkpt>
      <trkpt lat="43.536459" lon="-5.613863">
        <ele>70.794</ele>
        <time>2022-08-27T08:33:17Z</time>
      </trkpt>
      <trkpt lat="43.536466" lon="-5.613780">
        <ele>70.881</ele>
        <time>2022-08-27T08:33:19Z</time>
      </trkpt>
      <trkpt lat="43.536469" lon="-5.613698">
        <ele>71.054</ele>
        <time>2022-08-27T08:33:21Z</time>
      </trkpt>
      <trkpt lat="43.536474" lon="-5.613623">
        <ele>71.556</ele>
        <time>2022-08-27T08:33:23Z</time>
      </trkpt>
      <trkpt lat="43.536476" lon="-5.613556">
        <ele>72.311</ele>
        <time>2022-08-27T08:33:25Z</time>
      </trkpt>
      <trkpt lat="43.536474" lon="-5.613483">
        <ele>73.709</ele>
        <time>2022-08-27T08:33:27Z</time>
      </trkpt>
      <trkpt lat="43.536477" lon="-5.613410">
        <ele>74.586</ele>
        <time>2022-08-27T08:33:29Z</time>
      </trkpt>
      <trkpt lat="43.536477" lon="-5.613338">
        <ele>74.786</ele>
        <time>2022-08-27T08:33:31Z</time>
      </trkpt>
      <trkpt lat="43.536474" lon="-5.613261">
        <ele>74.987</ele>
        <time>2022-08-27T08:33:33Z</time>
      </trkpt>
      <trkpt lat="43.536464" lon="-5.613183">
        <ele>75.635</ele>
        <time>2022-08-27T08:33:35Z</time>
      </trkpt>
      <trkpt lat="43.536452" lon="-5.613108">
        <ele>75.765</ele>
        <time>2022-08-27T08:33:37Z</time>
      </trkpt>
      <trkpt lat="43.536457" lon="-5.613025">
        <ele>76.061</ele>
        <time>2022-08-27T08:33:39Z</time>
      </trkpt>
      <trkpt lat="43.536459" lon="-5.612938">
        <ele>76.795</ele>
        <time>2022-08-27T08:33:41Z</time>
      </trkpt>
      <trkpt lat="43.536464" lon="-5.612866">
        <ele>78.092</ele>
        <time>2022-08-27T08:33:43Z</time>
      </trkpt>
      <trkpt lat="43.536467" lon="-5.612786">
        <ele>78.339</ele>
        <time>2022-08-27T08:33:45Z</time>
      </trkpt>
      <trkpt lat="43.536467" lon="-5.612714">
        <ele>78.361</ele>
        <time>2022-08-27T08:33:47Z</time>
      </trkpt>
      <trkpt lat="43.536462" lon="-5.612641">
        <ele>78.321</ele>
        <time>2022-08-27T08:33:49Z</time>
      </trkpt>
      <trkpt lat="43.536454" lon="-5.612558">
        <ele>77.713</ele>
        <time>2022-08-27T08:33:51Z</time>
      </trkpt>
      <trkpt lat="43.536449" lon="-5.612476">
        <ele>77.609</ele>
        <time>2022-08-27T08:33:53Z</time>
      </trkpt>
      <trkpt lat="43.536442" lon="-5.612401">
        <ele>77.387</ele>
        <time>2022-08-27T08:33:55Z</time>
      </trkpt>
      <trkpt lat="43.536434" lon="-5.612329">
        <ele>77.237</ele>
        <time>2022-08-27T08:33:57Z</time>
      </trkpt>
      <trkpt lat="43.536427" lon="-5.612236">
        <ele>77.438</ele>
        <time>2022-08-27T08:34:00Z</time>
      </trkpt>
      <trkpt lat="43.536422" lon="-5.612149">
        <ele>77.676</ele>
        <time>2022-08-27T08:34:02Z</time>
      </trkpt>
      <trkpt lat="43.536417" lon="-5.612059">
        <ele>77.856</ele>
        <time>2022-08-27T08:34:04Z</time>
      </trkpt>
      <trkpt lat="43.536409" lon="-5.611979">
        <ele>78.022</ele>
        <time>2022-08-27T08:34:06Z</time>
      </trkpt>
      <trkpt lat="43.536382" lon="-5.611912">
        <ele>78.086</ele>
        <time>2022-08-27T08:34:08Z</time>
      </trkpt>
      <trkpt lat="43.536344" lon="-5.611849">
        <ele>78.423</ele>
        <time>2022-08-27T08:34:10Z</time>
      </trkpt>
      <trkpt lat="43.536307" lon="-5.611786">
        <ele>78.670</ele>
        <time>2022-08-27T08:34:12Z</time>
      </trkpt>
      <trkpt lat="43.536272" lon="-5.611713">
        <ele>78.627</ele>
        <time>2022-08-27T08:34:14Z</time>
      </trkpt>
      <trkpt lat="43.536235" lon="-5.611658">
        <ele>79.068</ele>
        <time>2022-08-27T08:34:16Z</time>
      </trkpt>
      <trkpt lat="43.536198" lon="-5.611598">
        <ele>79.414</ele>
        <time>2022-08-27T08:34:18Z</time>
      </trkpt>
      <trkpt lat="43.536158" lon="-5.611540">
        <ele>79.909</ele>
        <time>2022-08-27T08:34:20Z</time>
      </trkpt>
      <trkpt lat="43.536121" lon="-5.611480">
        <ele>80.263</ele>
        <time>2022-08-27T08:34:22Z</time>
      </trkpt>
      <trkpt lat="43.536088" lon="-5.611418">
        <ele>80.393</ele>
        <time>2022-08-27T08:34:24Z</time>
      </trkpt>
      <trkpt lat="43.536043" lon="-5.611363">
        <ele>80.884</ele>
        <time>2022-08-27T08:34:26Z</time>
      </trkpt>
      <trkpt lat="43.536008" lon="-5.611306">
        <ele>81.822</ele>
        <time>2022-08-27T08:34:28Z</time>
      </trkpt>
      <trkpt lat="43.535968" lon="-5.611256">
        <ele>83.872</ele>
        <time>2022-08-27T08:34:30Z</time>
      </trkpt>
      <trkpt lat="43.535930" lon="-5.611204">
        <ele>84.248</ele>
        <time>2022-08-27T08:34:32Z</time>
      </trkpt>
      <trkpt lat="43.535893" lon="-5.611141">
        <ele>84.752</ele>
        <time>2022-08-27T08:34:34Z</time>
      </trkpt>
      <trkpt lat="43.535845" lon="-5.611084">
        <ele>85.029</ele>
        <time>2022-08-27T08:34:36Z</time>
      </trkpt>
      <trkpt lat="43.535802" lon="-5.611026">
        <ele>85.046</ele>
        <time>2022-08-27T08:34:38Z</time>
      </trkpt>
      <trkpt lat="43.535759" lon="-5.610973">
        <ele>85.464</ele>
        <time>2022-08-27T08:34:40Z</time>
      </trkpt>
      <trkpt lat="43.535714" lon="-5.610918">
        <ele>85.706</ele>
        <time>2022-08-27T08:34:42Z</time>
      </trkpt>
      <trkpt lat="43.535666" lon="-5.610870">
        <ele>85.916</ele>
        <time>2022-08-27T08:34:44Z</time>
      </trkpt>
      <trkpt lat="43.535614" lon="-5.610830">
        <ele>85.909</ele>
        <time>2022-08-27T08:34:46Z</time>
      </trkpt>
      <trkpt lat="43.535566" lon="-5.610792">
        <ele>85.917</ele>
        <time>2022-08-27T08:34:48Z</time>
      </trkpt>
      <trkpt lat="43.535511" lon="-5.610750">
        <ele>85.727</ele>
        <time>2022-08-27T08:34:50Z</time>
      </trkpt>
      <trkpt lat="43.535461" lon="-5.610712">
        <ele>85.698</ele>
        <time>2022-08-27T08:34:52Z</time>
      </trkpt>
      <trkpt lat="43.535406" lon="-5.610682">
        <ele>85.636</ele>
        <time>2022-08-27T08:34:54Z</time>
      </trkpt>
      <trkpt lat="43.535353" lon="-5.610649">
        <ele>85.646</ele>
        <time>2022-08-27T08:34:56Z</time>
      </trkpt>
      <trkpt lat="43.535293" lon="-5.610616">
        <ele>85.882</ele>
        <time>2022-08-27T08:34:58Z</time>
      </trkpt>
      <trkpt lat="43.535240" lon="-5.610589">
        <ele>85.986</ele>
        <time>2022-08-27T08:35:00Z</time>
      </trkpt>
      <trkpt lat="43.535188" lon="-5.610556">
        <ele>86.093</ele>
        <time>2022-08-27T08:35:02Z</time>
      </trkpt>
      <trkpt lat="43.535133" lon="-5.610521">
        <ele>86.150</ele>
        <time>2022-08-27T08:35:04Z</time>
      </trkpt>
      <trkpt lat="43.535080" lon="-5.610483">
        <ele>86.151</ele>
        <time>2022-08-27T08:35:06Z</time>
      </trkpt>
      <trkpt lat="43.535030" lon="-5.610436">
        <ele>86.101</ele>
        <time>2022-08-27T08:35:08Z</time>
      </trkpt>
      <trkpt lat="43.534985" lon="-5.610381">
        <ele>86.211</ele>
        <time>2022-08-27T08:35:10Z</time>
      </trkpt>
      <trkpt lat="43.534945" lon="-5.610321">
        <ele>86.209</ele>
        <time>2022-08-27T08:35:12Z</time>
      </trkpt>
      <trkpt lat="43.534905" lon="-5.610258">
        <ele>86.236</ele>
        <time>2022-08-27T08:35:14Z</time>
      </trkpt>
      <trkpt lat="43.534870" lon="-5.610205">
        <ele>86.316</ele>
        <time>2022-08-27T08:35:16Z</time>
      </trkpt>
      <trkpt lat="43.534838" lon="-5.610147">
        <ele>86.667</ele>
        <time>2022-08-27T08:35:18Z</time>
      </trkpt>
      <trkpt lat="43.534810" lon="-5.610085">
        <ele>86.815</ele>
        <time>2022-08-27T08:35:20Z</time>
      </trkpt>
      <trkpt lat="43.534787" lon="-5.610017">
        <ele>87.385</ele>
        <time>2022-08-27T08:35:22Z</time>
      </trkpt>
      <trkpt lat="43.534760" lon="-5.609947">
        <ele>88.051</ele>
        <time>2022-08-27T08:35:24Z</time>
      </trkpt>
      <trkpt lat="43.534730" lon="-5.609884">
        <ele>88.745</ele>
        <time>2022-08-27T08:35:26Z</time>
      </trkpt>
      <trkpt lat="43.534703" lon="-5.609817">
        <ele>89.082</ele>
        <time>2022-08-27T08:35:28Z</time>
      </trkpt>
      <trkpt lat="43.534695" lon="-5.609742">
        <ele>89.549</ele>
        <time>2022-08-27T08:35:30Z</time>
      </trkpt>
      <trkpt lat="43.534688" lon="-5.609679">
        <ele>89.966</ele>
        <time>2022-08-27T08:35:32Z</time>
      </trkpt>
      <trkpt lat="43.534683" lon="-5.609602">
        <ele>89.829</ele>
        <time>2022-08-27T08:35:34Z</time>
      </trkpt>
      <trkpt lat="43.534683" lon="-5.609524">
        <ele>89.821</ele>
        <time>2022-08-27T08:35:36Z</time>
      </trkpt>
      <trkpt lat="43.534683" lon="-5.609449">
        <ele>90.009</ele>
        <time>2022-08-27T08:35:38Z</time>
      </trkpt>
      <trkpt lat="43.534681" lon="-5.609369">
        <ele>90.017</ele>
        <time>2022-08-27T08:35:40Z</time>
      </trkpt>
      <trkpt lat="43.534679" lon="-5.609299">
        <ele>90.017</ele>
        <time>2022-08-27T08:35:42Z</time>
      </trkpt>
      <trkpt lat="43.534681" lon="-5.609226">
        <ele>90.188</ele>
        <time>2022-08-27T08:35:44Z</time>
      </trkpt>
      <trkpt lat="43.534676" lon="-5.609154">
        <ele>90.466</ele>
        <time>2022-08-27T08:35:46Z</time>
      </trkpt>
      <trkpt lat="43.534679" lon="-5.609077">
        <ele>90.576</ele>
        <time>2022-08-27T08:35:48Z</time>
      </trkpt>
      <trkpt lat="43.534676" lon="-5.608997">
        <ele>90.912</ele>
        <time>2022-08-27T08:35:50Z</time>
      </trkpt>
      <trkpt lat="43.534671" lon="-5.608919">
        <ele>91.546</ele>
        <time>2022-08-27T08:35:52Z</time>
      </trkpt>
      <trkpt lat="43.534668" lon="-5.608854">
        <ele>92.083</ele>
        <time>2022-08-27T08:35:54Z</time>
      </trkpt>
      <trkpt lat="43.534665" lon="-5.608782">
        <ele>92.180</ele>
        <time>2022-08-27T08:35:56Z</time>
      </trkpt>
      <trkpt lat="43.534663" lon="-5.608704">
        <ele>92.357</ele>
        <time>2022-08-27T08:35:58Z</time>
      </trkpt>
      <trkpt lat="43.534660" lon="-5.608627">
        <ele>92.500</ele>
        <time>2022-08-27T08:36:00Z</time>
      </trkpt>
      <trkpt lat="43.534662" lon="-5.608544">
        <ele>93.020</ele>
        <time>2022-08-27T08:36:02Z</time>
      </trkpt>
      <trkpt lat="43.534664" lon="-5.608462">
        <ele>94.209</ele>
        <time>2022-08-27T08:36:04Z</time>
      </trkpt>
      <trkpt lat="43.534669" lon="-5.608384">
        <ele>94.866</ele>
        <time>2022-08-27T08:36:06Z</time>
      </trkpt>
      <trkpt lat="43.534677" lon="-5.608311">
        <ele>95.576</ele>
        <time>2022-08-27T08:36:08Z</time>
      </trkpt>
      <trkpt lat="43.534687" lon="-5.608231">
        <ele>96.197</ele>
        <time>2022-08-27T08:36:10Z</time>
      </trkpt>
      <trkpt lat="43.534695" lon="-5.608153">
        <ele>96.255</ele>
        <time>2022-08-27T08:36:12Z</time>
      </trkpt>
      <trkpt lat="43.534703" lon="-5.608083">
        <ele>96.275</ele>
        <time>2022-08-27T08:36:14Z</time>
      </trkpt>
      <trkpt lat="43.534716" lon="-5.608010">
        <ele>96.281</ele>
        <time>2022-08-27T08:36:16Z</time>
      </trkpt>
      <trkpt lat="43.534729" lon="-5.607938">
        <ele>96.275</ele>
        <time>2022-08-27T08:36:18Z</time>
      </trkpt>
      <trkpt lat="43.534741" lon="-5.607865">
        <ele>96.122</ele>
        <time>2022-08-27T08:36:20Z</time>
      </trkpt>
      <trkpt lat="43.534748" lon="-5.607797">
        <ele>96.189</ele>
        <time>2022-08-27T08:36:22Z</time>
      </trkpt>
      <trkpt lat="43.534758" lon="-5.607722">
        <ele>96.294</ele>
        <time>2022-08-27T08:36:24Z</time>
      </trkpt>
      <trkpt lat="43.534771" lon="-5.607644">
        <ele>96.557</ele>
        <time>2022-08-27T08:36:26Z</time>
      </trkpt>
      <trkpt lat="43.534783" lon="-5.607569">
        <ele>97.322</ele>
        <time>2022-08-27T08:36:28Z</time>
      </trkpt>
      <trkpt lat="43.534795" lon="-5.607494">
        <ele>98.009</ele>
        <time>2022-08-27T08:36:30Z</time>
      </trkpt>
      <trkpt lat="43.534810" lon="-5.607417">
        <ele>98.220</ele>
        <time>2022-08-27T08:36:32Z</time>
      </trkpt>
      <trkpt lat="43.534822" lon="-5.607345">
        <ele>98.260</ele>
        <time>2022-08-27T08:36:34Z</time>
      </trkpt>
      <trkpt lat="43.534830" lon="-5.607275">
        <ele>98.431</ele>
        <time>2022-08-27T08:36:36Z</time>
      </trkpt>
      <trkpt lat="43.534838" lon="-5.607197">
        <ele>98.399</ele>
        <time>2022-08-27T08:36:38Z</time>
      </trkpt>
      <trkpt lat="43.534846" lon="-5.607120">
        <ele>98.389</ele>
        <time>2022-08-27T08:36:40Z</time>
      </trkpt>
      <trkpt lat="43.534856" lon="-5.607038">
        <ele>98.465</ele>
        <time>2022-08-27T08:36:42Z</time>
      </trkpt>
      <trkpt lat="43.534871" lon="-5.606958">
        <ele>98.569</ele>
        <time>2022-08-27T08:36:44Z</time>
      </trkpt>
      <trkpt lat="43.534879" lon="-5.606883">
        <ele>98.966</ele>
        <time>2022-08-27T08:36:46Z</time>
      </trkpt>
      <trkpt lat="43.534884" lon="-5.606805">
        <ele>99.643</ele>
        <time>2022-08-27T08:36:48Z</time>
      </trkpt>
      <trkpt lat="43.534884" lon="-5.606723">
        <ele>99.888</ele>
        <time>2022-08-27T08:36:50Z</time>
      </trkpt>
      <trkpt lat="43.534874" lon="-5.606646">
        <ele>100.524</ele>
        <time>2022-08-27T08:36:52Z</time>
      </trkpt>
      <trkpt lat="43.534842" lon="-5.606596">
        <ele>101.026</ele>
        <time>2022-08-27T08:36:54Z</time>
      </trkpt>
      <trkpt lat="43.534790" lon="-5.606563">
        <ele>101.109</ele>
        <time>2022-08-27T08:36:56Z</time>
      </trkpt>
      <trkpt lat="43.534735" lon="-5.606546">
        <ele>102.199</ele>
        <time>2022-08-27T08:36:58Z</time>
      </trkpt>
      <trkpt lat="43.534672" lon="-5.606541">
        <ele>103.319</ele>
        <time>2022-08-27T08:37:00Z</time>
      </trkpt>
      <trkpt lat="43.534615" lon="-5.606564">
        <ele>103.710</ele>
        <time>2022-08-27T08:37:02Z</time>
      </trkpt>
      <trkpt lat="43.534563" lon="-5.606599">
        <ele>103.988</ele>
        <time>2022-08-27T08:37:04Z</time>
      </trkpt>
      <trkpt lat="43.534503" lon="-5.606652">
        <ele>104.128</ele>
        <time>2022-08-27T08:37:06Z</time>
      </trkpt>
      <trkpt lat="43.534451" lon="-5.606695">
        <ele>104.234</ele>
        <time>2022-08-27T08:37:08Z</time>
      </trkpt>
      <trkpt lat="43.534406" lon="-5.606742">
        <ele>104.138</ele>
        <time>2022-08-27T08:37:10Z</time>
      </trkpt>
      <trkpt lat="43.534361" lon="-5.606785">
        <ele>104.145</ele>
        <time>2022-08-27T08:37:12Z</time>
      </trkpt>
      <trkpt lat="43.534309" lon="-5.606822">
        <ele>104.112</ele>
        <time>2022-08-27T08:37:14Z</time>
      </trkpt>
      <trkpt lat="43.534256" lon="-5.606855">
        <ele>104.295</ele>
        <time>2022-08-27T08:37:16Z</time>
      </trkpt>
      <trkpt lat="43.534204" lon="-5.606883">
        <ele>104.249</ele>
        <time>2022-08-27T08:37:18Z</time>
      </trkpt>
      <trkpt lat="43.534146" lon="-5.606913">
        <ele>104.223</ele>
        <time>2022-08-27T08:37:20Z</time>
      </trkpt>
      <trkpt lat="43.534093" lon="-5.606935">
        <ele>104.209</ele>
        <time>2022-08-27T08:37:22Z</time>
      </trkpt>
      <trkpt lat="43.534038" lon="-5.606967">
        <ele>104.250</ele>
        <time>2022-08-27T08:37:24Z</time>
      </trkpt>
      <trkpt lat="43.533983" lon="-5.606992">
        <ele>104.620</ele>
        <time>2022-08-27T08:37:26Z</time>
      </trkpt>
      <trkpt lat="43.533925" lon="-5.607019">
        <ele>105.061</ele>
        <time>2022-08-27T08:37:28Z</time>
      </trkpt>
      <trkpt lat="43.533868" lon="-5.607041">
        <ele>105.849</ele>
        <time>2022-08-27T08:37:30Z</time>
      </trkpt>
      <trkpt lat="43.533815" lon="-5.607058">
        <ele>106.679</ele>
        <time>2022-08-27T08:37:32Z</time>
      </trkpt>
      <trkpt lat="43.533758" lon="-5.607073">
        <ele>106.835</ele>
        <time>2022-08-27T08:37:34Z</time>
      </trkpt>
      <trkpt lat="43.533705" lon="-5.607081">
        <ele>106.879</ele>
        <time>2022-08-27T08:37:36Z</time>
      </trkpt>
      <trkpt lat="43.533655" lon="-5.607071">
        <ele>106.516</ele>
        <time>2022-08-27T08:37:38Z</time>
      </trkpt>
      <trkpt lat="43.533603" lon="-5.607061">
        <ele>106.333</ele>
        <time>2022-08-27T08:37:40Z</time>
      </trkpt>
      <trkpt lat="43.533550" lon="-5.607053">
        <ele>106.312</ele>
        <time>2022-08-27T08:37:42Z</time>
      </trkpt>
      <trkpt lat="43.533497" lon="-5.607036">
        <ele>106.332</ele>
        <time>2022-08-27T08:37:44Z</time>
      </trkpt>
      <trkpt lat="43.533440" lon="-5.607013">
        <ele>107.305</ele>
        <time>2022-08-27T08:37:46Z</time>
      </trkpt>
      <trkpt lat="43.533387" lon="-5.606986">
        <ele>108.109</ele>
        <time>2022-08-27T08:37:48Z</time>
      </trkpt>
      <trkpt lat="43.533334" lon="-5.606958">
        <ele>108.662</ele>
        <time>2022-08-27T08:37:50Z</time>
      </trkpt>
      <trkpt lat="43.533279" lon="-5.606931">
        <ele>108.792</ele>
        <time>2022-08-27T08:37:52Z</time>
      </trkpt>
      <trkpt lat="43.533221" lon="-5.606909">
        <ele>108.723</ele>
        <time>2022-08-27T08:37:54Z</time>
      </trkpt>
      <trkpt lat="43.533171" lon="-5.606886">
        <ele>108.741</ele>
        <time>2022-08-27T08:37:56Z</time>
      </trkpt>
      <trkpt lat="43.533116" lon="-5.606846">
        <ele>108.721</ele>
        <time>2022-08-27T08:37:58Z</time>
      </trkpt>
      <trkpt lat="43.533064" lon="-5.606804">
        <ele>109.197</ele>
        <time>2022-08-27T08:38:00Z</time>
      </trkpt>
      <trkpt lat="43.533009" lon="-5.606767">
        <ele>109.621</ele>
        <time>2022-08-27T08:38:02Z</time>
      </trkpt>
      <trkpt lat="43.532962" lon="-5.606732">
        <ele>109.798</ele>
        <time>2022-08-27T08:38:04Z</time>
      </trkpt>
      <trkpt lat="43.532919" lon="-5.606685">
        <ele>109.995</ele>
        <time>2022-08-27T08:38:06Z</time>
      </trkpt>
      <trkpt lat="43.532874" lon="-5.606645">
        <ele>111.028</ele>
        <time>2022-08-27T08:38:08Z</time>
      </trkpt>
      <trkpt lat="43.532836" lon="-5.606593">
        <ele>112.889</ele>
        <time>2022-08-27T08:38:10Z</time>
      </trkpt>
      <trkpt lat="43.532798" lon="-5.606540">
        <ele>114.017</ele>
        <time>2022-08-27T08:38:12Z</time>
      </trkpt>
      <trkpt lat="43.532766" lon="-5.606490">
        <ele>114.309</ele>
        <time>2022-08-27T08:38:14Z</time>
      </trkpt>
      <trkpt lat="43.532739" lon="-5.606432">
        <ele>114.613</ele>
        <time>2022-08-27T08:38:16Z</time>
      </trkpt>
      <trkpt lat="43.532716" lon="-5.606370">
        <ele>114.853</ele>
        <time>2022-08-27T08:38:18Z</time>
      </trkpt>
      <trkpt lat="43.532696" lon="-5.606308">
        <ele>114.974</ele>
        <time>2022-08-27T08:38:20Z</time>
      </trkpt>
      <trkpt lat="43.532683" lon="-5.606236">
        <ele>114.922</ele>
        <time>2022-08-27T08:38:22Z</time>
      </trkpt>
      <trkpt lat="43.532670" lon="-5.606158">
        <ele>114.992</ele>
        <time>2022-08-27T08:38:24Z</time>
      </trkpt>
      <trkpt lat="43.532660" lon="-5.606088">
        <ele>115.078</ele>
        <time>2022-08-27T08:38:26Z</time>
      </trkpt>
      <trkpt lat="43.532648" lon="-5.606011">
        <ele>115.062</ele>
        <time>2022-08-27T08:38:28Z</time>
      </trkpt>
      <trkpt lat="43.532635" lon="-5.605946">
        <ele>115.859</ele>
        <time>2022-08-27T08:38:30Z</time>
      </trkpt>
      <trkpt lat="43.532618" lon="-5.605871">
        <ele>116.696</ele>
        <time>2022-08-27T08:38:32Z</time>
      </trkpt>
      <trkpt lat="43.532606" lon="-5.605801">
        <ele>117.392</ele>
        <time>2022-08-27T08:38:34Z</time>
      </trkpt>
      <trkpt lat="43.532591" lon="-5.605731">
        <ele>117.773</ele>
        <time>2022-08-27T08:38:36Z</time>
      </trkpt>
      <trkpt lat="43.532579" lon="-5.605659">
        <ele>117.720</ele>
        <time>2022-08-27T08:38:38Z</time>
      </trkpt>
      <trkpt lat="43.532567" lon="-5.605597">
        <ele>117.709</ele>
        <time>2022-08-27T08:38:40Z</time>
      </trkpt>
      <trkpt lat="43.532555" lon="-5.605530">
        <ele>117.980</ele>
        <time>2022-08-27T08:38:42Z</time>
      </trkpt>
      <trkpt lat="43.532545" lon="-5.605468">
        <ele>117.910</ele>
        <time>2022-08-27T08:38:44Z</time>
      </trkpt>
      <trkpt lat="43.532535" lon="-5.605401">
        <ele>117.951</ele>
        <time>2022-08-27T08:38:46Z</time>
      </trkpt>
      <trkpt lat="43.532518" lon="-5.605333">
        <ele>118.949</ele>
        <time>2022-08-27T08:38:48Z</time>
      </trkpt>
      <trkpt lat="43.532505" lon="-5.605263">
        <ele>119.749</ele>
        <time>2022-08-27T08:38:50Z</time>
      </trkpt>
      <trkpt lat="43.532495" lon="-5.605191">
        <ele>119.945</ele>
        <time>2022-08-27T08:38:52Z</time>
      </trkpt>
      <trkpt lat="43.532483" lon="-5.605123">
        <ele>119.959</ele>
        <time>2022-08-27T08:38:54Z</time>
      </trkpt>
      <trkpt lat="43.532468" lon="-5.605050">
        <ele>119.926</ele>
        <time>2022-08-27T08:38:56Z</time>
      </trkpt>
      <trkpt lat="43.532455" lon="-5.604980">
        <ele>119.533</ele>
        <time>2022-08-27T08:38:58Z</time>
      </trkpt>
      <trkpt lat="43.532445" lon="-5.604913">
        <ele>119.521</ele>
        <time>2022-08-27T08:39:00Z</time>
      </trkpt>
      <trkpt lat="43.532437" lon="-5.604843">
        <ele>119.541</ele>
        <time>2022-08-27T08:39:02Z</time>
      </trkpt>
      <trkpt lat="43.532425" lon="-5.604750">
        <ele>119.605</ele>
        <time>2022-08-27T08:39:05Z</time>
      </trkpt>
      <trkpt lat="43.532405" lon="-5.604682">
        <ele>120.809</ele>
        <time>2022-08-27T08:39:07Z</time>
      </trkpt>
      <trkpt lat="43.532383" lon="-5.604622">
        <ele>121.823</ele>
        <time>2022-08-27T08:39:09Z</time>
      </trkpt>
      <trkpt lat="43.532353" lon="-5.604562">
        <ele>122.453</ele>
        <time>2022-08-27T08:39:11Z</time>
      </trkpt>
      <trkpt lat="43.532320" lon="-5.604517">
        <ele>122.724</ele>
        <time>2022-08-27T08:39:13Z</time>
      </trkpt>
      <trkpt lat="43.532280" lon="-5.604480">
        <ele>122.942</ele>
        <time>2022-08-27T08:39:15Z</time>
      </trkpt>
      <trkpt lat="43.532235" lon="-5.604462">
        <ele>123.942</ele>
        <time>2022-08-27T08:39:17Z</time>
      </trkpt>
      <trkpt lat="43.532183" lon="-5.604450">
        <ele>124.528</ele>
        <time>2022-08-27T08:39:19Z</time>
      </trkpt>
      <trkpt lat="43.532133" lon="-5.604447">
        <ele>124.952</ele>
        <time>2022-08-27T08:39:21Z</time>
      </trkpt>
      <trkpt lat="43.532083" lon="-5.604440">
        <ele>125.029</ele>
        <time>2022-08-27T08:39:23Z</time>
      </trkpt>
      <trkpt lat="43.532033" lon="-5.604437">
        <ele>125.546</ele>
        <time>2022-08-27T08:39:25Z</time>
      </trkpt>
      <trkpt lat="43.531983" lon="-5.604425">
        <ele>125.641</ele>
        <time>2022-08-27T08:39:27Z</time>
      </trkpt>
      <trkpt lat="43.531936" lon="-5.604407">
        <ele>125.681</ele>
        <time>2022-08-27T08:39:29Z</time>
      </trkpt>
      <trkpt lat="43.531893" lon="-5.604389">
        <ele>125.609</ele>
        <time>2022-08-27T08:39:31Z</time>
      </trkpt>
      <trkpt lat="43.531831" lon="-5.604369">
        <ele>125.609</ele>
        <time>2022-08-27T08:39:34Z</time>
      </trkpt>
      <trkpt lat="43.531786" lon="-5.604374">
        <ele>125.635</ele>
        <time>2022-08-27T08:39:36Z</time>
      </trkpt>
      <trkpt lat="43.531734" lon="-5.604392">
        <ele>125.585</ele>
        <time>2022-08-27T08:39:38Z</time>
      </trkpt>
      <trkpt lat="43.531666" lon="-5.604414">
        <ele>124.846</ele>
        <time>2022-08-27T08:39:41Z</time>
      </trkpt>
      <trkpt lat="43.531618" lon="-5.604426">
        <ele>124.814</ele>
        <time>2022-08-27T08:39:43Z</time>
      </trkpt>
      <trkpt lat="43.531571" lon="-5.604439">
        <ele>124.844</ele>
        <time>2022-08-27T08:39:45Z</time>
      </trkpt>
      <trkpt lat="43.531508" lon="-5.604459">
        <ele>125.490</ele>
        <time>2022-08-27T08:39:48Z</time>
      </trkpt>
      <trkpt lat="43.531461" lon="-5.604476">
        <ele>125.674</ele>
        <time>2022-08-27T08:39:50Z</time>
      </trkpt>
      <trkpt lat="43.531413" lon="-5.604484">
        <ele>125.871</ele>
        <time>2022-08-27T08:39:52Z</time>
      </trkpt>
      <trkpt lat="43.531358" lon="-5.604486">
        <ele>126.248</ele>
        <time>2022-08-27T08:39:54Z</time>
      </trkpt>
      <trkpt lat="43.531303" lon="-5.604486">
        <ele>126.232</ele>
        <time>2022-08-27T08:39:56Z</time>
      </trkpt>
      <trkpt lat="43.531246" lon="-5.604481">
        <ele>126.392</ele>
        <time>2022-08-27T08:39:58Z</time>
      </trkpt>
      <trkpt lat="43.531191" lon="-5.604468">
        <ele>126.411</ele>
        <time>2022-08-27T08:40:00Z</time>
      </trkpt>
      <trkpt lat="43.531133" lon="-5.604460">
        <ele>126.609</ele>
        <time>2022-08-27T08:40:02Z</time>
      </trkpt>
      <trkpt lat="43.531076" lon="-5.604443">
        <ele>126.734</ele>
        <time>2022-08-27T08:40:04Z</time>
      </trkpt>
      <trkpt lat="43.531013" lon="-5.604413">
        <ele>127.434</ele>
        <time>2022-08-27T08:40:06Z</time>
      </trkpt>
      <trkpt lat="43.530948" lon="-5.604406">
        <ele>127.875</ele>
        <time>2022-08-27T08:40:08Z</time>
      </trkpt>
      <trkpt lat="43.530886" lon="-5.604404">
        <ele>128.033</ele>
        <time>2022-08-27T08:40:10Z</time>
      </trkpt>
      <trkpt lat="43.530839" lon="-5.604396">
        <ele>129.443</ele>
        <time>2022-08-27T08:40:12Z</time>
      </trkpt>
      <trkpt lat="43.530784" lon="-5.604383">
        <ele>130.879</ele>
        <time>2022-08-27T08:40:14Z</time>
      </trkpt>
      <trkpt lat="43.530731" lon="-5.604351">
        <ele>131.963</ele>
        <time>2022-08-27T08:40:16Z</time>
      </trkpt>
      <trkpt lat="43.530676" lon="-5.604314">
        <ele>132.650</ele>
        <time>2022-08-27T08:40:18Z</time>
      </trkpt>
      <trkpt lat="43.530628" lon="-5.604266">
        <ele>133.397</ele>
        <time>2022-08-27T08:40:20Z</time>
      </trkpt>
      <trkpt lat="43.530590" lon="-5.604221">
        <ele>133.783</ele>
        <time>2022-08-27T08:40:22Z</time>
      </trkpt>
      <trkpt lat="43.530557" lon="-5.604178">
        <ele>133.725</ele>
        <time>2022-08-27T08:40:24Z</time>
      </trkpt>
      <trkpt lat="43.530515" lon="-5.604133">
        <ele>133.917</ele>
        <time>2022-08-27T08:40:26Z</time>
      </trkpt>
      <trkpt lat="43.530468" lon="-5.604070">
        <ele>134.509</ele>
        <time>2022-08-27T08:40:28Z</time>
      </trkpt>
      <trkpt lat="43.530426" lon="-5.604008">
        <ele>134.569</ele>
        <time>2022-08-27T08:40:30Z</time>
      </trkpt>
      <trkpt lat="43.530384" lon="-5.603945">
        <ele>134.589</ele>
        <time>2022-08-27T08:40:32Z</time>
      </trkpt>
      <trkpt lat="43.530342" lon="-5.603885">
        <ele>134.010</ele>
        <time>2022-08-27T08:40:34Z</time>
      </trkpt>
      <trkpt lat="43.530309" lon="-5.603825">
        <ele>133.448</ele>
        <time>2022-08-27T08:40:36Z</time>
      </trkpt>
      <trkpt lat="43.530279" lon="-5.603768">
        <ele>133.238</ele>
        <time>2022-08-27T08:40:38Z</time>
      </trkpt>
      <trkpt lat="43.530249" lon="-5.603700">
        <ele>132.724</ele>
        <time>2022-08-27T08:40:40Z</time>
      </trkpt>
      <trkpt lat="43.530226" lon="-5.603633">
        <ele>131.848</ele>
        <time>2022-08-27T08:40:42Z</time>
      </trkpt>
      <trkpt lat="43.530194" lon="-5.603566">
        <ele>131.195</ele>
        <time>2022-08-27T08:40:44Z</time>
      </trkpt>
      <trkpt lat="43.530162" lon="-5.603489">
        <ele>131.092</ele>
        <time>2022-08-27T08:40:46Z</time>
      </trkpt>
      <trkpt lat="43.530124" lon="-5.603407">
        <ele>130.986</ele>
        <time>2022-08-27T08:40:48Z</time>
      </trkpt>
      <trkpt lat="43.530094" lon="-5.603327">
        <ele>130.860</ele>
        <time>2022-08-27T08:40:50Z</time>
      </trkpt>
      <trkpt lat="43.530066" lon="-5.603262">
        <ele>130.826</ele>
        <time>2022-08-27T08:40:52Z</time>
      </trkpt>
      <trkpt lat="43.530033" lon="-5.603195">
        <ele>130.509</ele>
        <time>2022-08-27T08:40:54Z</time>
      </trkpt>
      <trkpt lat="43.530010" lon="-5.603113">
        <ele>130.269</ele>
        <time>2022-08-27T08:40:56Z</time>
      </trkpt>
      <trkpt lat="43.529992" lon="-5.603020">
        <ele>130.179</ele>
        <time>2022-08-27T08:40:58Z</time>
      </trkpt>
      <trkpt lat="43.529975" lon="-5.602928">
        <ele>130.080</ele>
        <time>2022-08-27T08:41:00Z</time>
      </trkpt>
      <trkpt lat="43.529970" lon="-5.602838">
        <ele>129.998</ele>
        <time>2022-08-27T08:41:02Z</time>
      </trkpt>
      <trkpt lat="43.529963" lon="-5.602751">
        <ele>128.918</ele>
        <time>2022-08-27T08:41:04Z</time>
      </trkpt>
      <trkpt lat="43.529948" lon="-5.602669">
        <ele>127.944</ele>
        <time>2022-08-27T08:41:06Z</time>
      </trkpt>
      <trkpt lat="43.529910" lon="-5.602581">
        <ele>127.358</ele>
        <time>2022-08-27T08:41:08Z</time>
      </trkpt>
      <trkpt lat="43.529867" lon="-5.602521">
        <ele>127.395</ele>
        <time>2022-08-27T08:41:10Z</time>
      </trkpt>
      <trkpt lat="43.529812" lon="-5.602469">
        <ele>127.872</ele>
        <time>2022-08-27T08:41:12Z</time>
      </trkpt>
      <trkpt lat="43.529744" lon="-5.602397">
        <ele>129.678</ele>
        <time>2022-08-27T08:41:14Z</time>
      </trkpt>
      <trkpt lat="43.529682" lon="-5.602339">
        <ele>130.733</ele>
        <time>2022-08-27T08:41:16Z</time>
      </trkpt>
      <trkpt lat="43.529619" lon="-5.602274">
        <ele>132.526</ele>
        <time>2022-08-27T08:41:18Z</time>
      </trkpt>
      <trkpt lat="43.529574" lon="-5.602232">
        <ele>134.309</ele>
        <time>2022-08-27T08:41:20Z</time>
      </trkpt>
      <trkpt lat="43.529522" lon="-5.602184">
        <ele>135.998</ele>
        <time>2022-08-27T08:41:22Z</time>
      </trkpt>
      <trkpt lat="43.529469" lon="-5.602136">
        <ele>136.198</ele>
        <time>2022-08-27T08:41:24Z</time>
      </trkpt>
      <trkpt lat="43.529407" lon="-5.602091">
        <ele>137.399</ele>
        <time>2022-08-27T08:41:26Z</time>
      </trkpt>
      <trkpt lat="43.529360" lon="-5.602038">
        <ele>137.677</ele>
        <time>2022-08-27T08:41:28Z</time>
      </trkpt>
      <trkpt lat="43.529315" lon="-5.601983">
        <ele>138.787</ele>
        <time>2022-08-27T08:41:30Z</time>
      </trkpt>
      <trkpt lat="43.529283" lon="-5.601938">
        <ele>138.713</ele>
        <time>2022-08-27T08:41:32Z</time>
      </trkpt>
      <trkpt lat="43.529243" lon="-5.601856">
        <ele>138.797</ele>
        <time>2022-08-27T08:41:34Z</time>
      </trkpt>
      <trkpt lat="43.529183" lon="-5.601783">
        <ele>138.774</ele>
        <time>2022-08-27T08:41:36Z</time>
      </trkpt>
      <trkpt lat="43.529130" lon="-5.601696">
        <ele>137.261</ele>
        <time>2022-08-27T08:41:38Z</time>
      </trkpt>
      <trkpt lat="43.529085" lon="-5.601608">
        <ele>136.646</ele>
        <time>2022-08-27T08:41:40Z</time>
      </trkpt>
      <trkpt lat="43.529058" lon="-5.601500">
        <ele>135.588</ele>
        <time>2022-08-27T08:41:42Z</time>
      </trkpt>
      <trkpt lat="43.529048" lon="-5.601438">
        <ele>134.916</ele>
        <time>2022-08-27T08:41:43Z</time>
      </trkpt>
      <trkpt lat="43.529045" lon="-5.601336">
        <ele>132.309</ele>
        <time>2022-08-27T08:41:45Z</time>
      </trkpt>
      <trkpt lat="43.529017" lon="-5.601193">
        <ele>124.315</ele>
        <time>2022-08-27T08:41:47Z</time>
      </trkpt>
      <trkpt lat="43.528997" lon="-5.601033">
        <ele>122.325</ele>
        <time>2022-08-27T08:41:49Z</time>
      </trkpt>
      <trkpt lat="43.528997" lon="-5.600866">
        <ele>121.266</ele>
        <time>2022-08-27T08:41:51Z</time>
      </trkpt>
      <trkpt lat="43.529010" lon="-5.600786">
        <ele>120.924</ele>
        <time>2022-08-27T08:41:52Z</time>
      </trkpt>
      <trkpt lat="43.529030" lon="-5.600623">
        <ele>120.534</ele>
        <time>2022-08-27T08:41:54Z</time>
      </trkpt>
      <trkpt lat="43.529048" lon="-5.600550">
        <ele>120.410</ele>
        <time>2022-08-27T08:41:55Z</time>
      </trkpt>
      <trkpt lat="43.529065" lon="-5.600475">
        <ele>120.384</ele>
        <time>2022-08-27T08:41:56Z</time>
      </trkpt>
      <trkpt lat="43.529107" lon="-5.600310">
        <ele>119.921</ele>
        <time>2022-08-27T08:41:58Z</time>
      </trkpt>
      <trkpt lat="43.529129" lon="-5.600223">
        <ele>119.778</ele>
        <time>2022-08-27T08:41:59Z</time>
      </trkpt>
      <trkpt lat="43.529136" lon="-5.600135">
        <ele>119.782</ele>
        <time>2022-08-27T08:42:00Z</time>
      </trkpt>
      <trkpt lat="43.529091" lon="-5.599963">
        <ele>120.343</ele>
        <time>2022-08-27T08:42:02Z</time>
      </trkpt>
      <trkpt lat="43.529038" lon="-5.599901">
        <ele>120.817</ele>
        <time>2022-08-27T08:42:03Z</time>
      </trkpt>
      <trkpt lat="43.528903" lon="-5.599884">
        <ele>121.409</ele>
        <time>2022-08-27T08:42:05Z</time>
      </trkpt>
      <trkpt lat="43.528833" lon="-5.599896">
        <ele>122.219</ele>
        <time>2022-08-27T08:42:06Z</time>
      </trkpt>
      <trkpt lat="43.528696" lon="-5.599916">
        <ele>124.129</ele>
        <time>2022-08-27T08:42:08Z</time>
      </trkpt>
      <trkpt lat="43.528563" lon="-5.599943">
        <ele>125.430</ele>
        <time>2022-08-27T08:42:10Z</time>
      </trkpt>
      <trkpt lat="43.528506" lon="-5.599951">
        <ele>126.328</ele>
        <time>2022-08-27T08:42:11Z</time>
      </trkpt>
      <trkpt lat="43.528451" lon="-5.599959">
        <ele>126.838</ele>
        <time>2022-08-27T08:42:12Z</time>
      </trkpt>
      <trkpt lat="43.528351" lon="-5.599976">
        <ele>128.254</ele>
        <time>2022-08-27T08:42:14Z</time>
      </trkpt>
      <trkpt lat="43.528263" lon="-5.599986">
        <ele>129.088</ele>
        <time>2022-08-27T08:42:16Z</time>
      </trkpt>
      <trkpt lat="43.528178" lon="-5.599974">
        <ele>129.915</ele>
        <time>2022-08-27T08:42:18Z</time>
      </trkpt>
      <trkpt lat="43.528093" lon="-5.599951">
        <ele>130.462</ele>
        <time>2022-08-27T08:42:20Z</time>
      </trkpt>
      <trkpt lat="43.528016" lon="-5.599933">
        <ele>130.742</ele>
        <time>2022-08-27T08:42:22Z</time>
      </trkpt>
      <trkpt lat="43.527946" lon="-5.599895">
        <ele>131.522</ele>
        <time>2022-08-27T08:42:24Z</time>
      </trkpt>
      <trkpt lat="43.527876" lon="-5.599857">
        <ele>131.814</ele>
        <time>2022-08-27T08:42:26Z</time>
      </trkpt>
      <trkpt lat="43.527819" lon="-5.599802">
        <ele>132.109</ele>
        <time>2022-08-27T08:42:28Z</time>
      </trkpt>
      <trkpt lat="43.527766" lon="-5.599744">
        <ele>133.175</ele>
        <time>2022-08-27T08:42:30Z</time>
      </trkpt>
      <trkpt lat="43.527714" lon="-5.599687">
        <ele>133.845</ele>
        <time>2022-08-27T08:42:32Z</time>
      </trkpt>
      <trkpt lat="43.527671" lon="-5.599629">
        <ele>134.276</ele>
        <time>2022-08-27T08:42:34Z</time>
      </trkpt>
      <trkpt lat="43.527628" lon="-5.599564">
        <ele>134.474</ele>
        <time>2022-08-27T08:42:36Z</time>
      </trkpt>
      <trkpt lat="43.527588" lon="-5.599501">
        <ele>135.254</ele>
        <time>2022-08-27T08:42:38Z</time>
      </trkpt>
      <trkpt lat="43.527548" lon="-5.599448">
        <ele>135.660</ele>
        <time>2022-08-27T08:42:40Z</time>
      </trkpt>
      <trkpt lat="43.527521" lon="-5.599385">
        <ele>136.254</ele>
        <time>2022-08-27T08:42:42Z</time>
      </trkpt>
      <trkpt lat="43.527504" lon="-5.599303">
        <ele>137.091</ele>
        <time>2022-08-27T08:42:44Z</time>
      </trkpt>
      <trkpt lat="43.527487" lon="-5.599216">
        <ele>137.778</ele>
        <time>2022-08-27T08:42:46Z</time>
      </trkpt>
      <trkpt lat="43.527482" lon="-5.599131">
        <ele>137.859</ele>
        <time>2022-08-27T08:42:48Z</time>
      </trkpt>
      <trkpt lat="43.527487" lon="-5.599041">
        <ele>137.803</ele>
        <time>2022-08-27T08:42:50Z</time>
      </trkpt>
      <trkpt lat="43.527492" lon="-5.598961">
        <ele>137.623</ele>
        <time>2022-08-27T08:42:52Z</time>
      </trkpt>
      <trkpt lat="43.527494" lon="-5.598878">
        <ele>137.409</ele>
        <time>2022-08-27T08:42:54Z</time>
      </trkpt>
      <trkpt lat="43.527496" lon="-5.598798">
        <ele>137.226</ele>
        <time>2022-08-27T08:42:56Z</time>
      </trkpt>
      <trkpt lat="43.527503" lon="-5.598721">
        <ele>137.196</ele>
        <time>2022-08-27T08:42:58Z</time>
      </trkpt>
      <trkpt lat="43.527498" lon="-5.598656">
        <ele>137.027</ele>
        <time>2022-08-27T08:43:00Z</time>
      </trkpt>
      <trkpt lat="43.527488" lon="-5.598594">
        <ele>137.085</ele>
        <time>2022-08-27T08:43:02Z</time>
      </trkpt>
      <trkpt lat="43.527470" lon="-5.598509">
        <ele>136.845</ele>
        <time>2022-08-27T08:43:05Z</time>
      </trkpt>
      <trkpt lat="43.527422" lon="-5.598464">
        <ele>136.981</ele>
        <time>2022-08-27T08:43:08Z</time>
      </trkpt>
      <trkpt lat="43.527374" lon="-5.598427">
        <ele>136.965</ele>
        <time>2022-08-27T08:43:11Z</time>
      </trkpt>
      <trkpt lat="43.527319" lon="-5.598404">
        <ele>137.442</ele>
        <time>2022-08-27T08:43:14Z</time>
      </trkpt>
      <trkpt lat="43.527264" lon="-5.598371">
        <ele>137.749</ele>
        <time>2022-08-27T08:43:17Z</time>
      </trkpt>
      <trkpt lat="43.527202" lon="-5.598358">
        <ele>138.037</ele>
        <time>2022-08-27T08:43:20Z</time>
      </trkpt>
      <trkpt lat="43.527150" lon="-5.598305">
        <ele>139.249</ele>
        <time>2022-08-27T08:43:23Z</time>
      </trkpt>
      <trkpt lat="43.527097" lon="-5.598258">
        <ele>140.513</ele>
        <time>2022-08-27T08:43:26Z</time>
      </trkpt>
      <trkpt lat="43.527050" lon="-5.598213">
        <ele>141.909</ele>
        <time>2022-08-27T08:43:29Z</time>
      </trkpt>
      <trkpt lat="43.527002" lon="-5.598185">
        <ele>142.334</ele>
        <time>2022-08-27T08:43:32Z</time>
      </trkpt>
      <trkpt lat="43.526959" lon="-5.598147">
        <ele>142.954</ele>
        <time>2022-08-27T08:43:35Z</time>
      </trkpt>
      <trkpt lat="43.526904" lon="-5.598102">
        <ele>143.795</ele>
        <time>2022-08-27T08:43:38Z</time>
      </trkpt>
      <trkpt lat="43.526866" lon="-5.598065">
        <ele>144.313</ele>
        <time>2022-08-27T08:43:40Z</time>
      </trkpt>
      <trkpt lat="43.526824" lon="-5.598037">
        <ele>145.233</ele>
        <time>2022-08-27T08:43:42Z</time>
      </trkpt>
      <trkpt lat="43.526786" lon="-5.598000">
        <ele>145.799</ele>
        <time>2022-08-27T08:43:44Z</time>
      </trkpt>
      <trkpt lat="43.526751" lon="-5.597955">
        <ele>147.093</ele>
        <time>2022-08-27T08:43:46Z</time>
      </trkpt>
      <trkpt lat="43.526694" lon="-5.597897">
        <ele>147.890</ele>
        <time>2022-08-27T08:43:49Z</time>
      </trkpt>
      <trkpt lat="43.526652" lon="-5.597870">
        <ele>147.877</ele>
        <time>2022-08-27T08:43:51Z</time>
      </trkpt>
      <trkpt lat="43.526605" lon="-5.597818">
        <ele>147.838</ele>
        <time>2022-08-27T08:43:54Z</time>
      </trkpt>
      <trkpt lat="43.526565" lon="-5.597775">
        <ele>147.570</ele>
        <time>2022-08-27T08:43:57Z</time>
      </trkpt>
      <trkpt lat="43.526533" lon="-5.597723">
        <ele>147.317</ele>
        <time>2022-08-27T08:44:00Z</time>
      </trkpt>
      <trkpt lat="43.526506" lon="-5.597670">
        <ele>147.009</ele>
        <time>2022-08-27T08:44:02Z</time>
      </trkpt>
      <trkpt lat="43.526469" lon="-5.597627">
        <ele>147.064</ele>
        <time>2022-08-27T08:44:04Z</time>
      </trkpt>
      <trkpt lat="43.526422" lon="-5.597575">
        <ele>147.084</ele>
        <time>2022-08-27T08:44:07Z</time>
      </trkpt>
      <trkpt lat="43.526392" lon="-5.597515">
        <ele>147.525</ele>
        <time>2022-08-27T08:44:10Z</time>
      </trkpt>
      <trkpt lat="43.526350" lon="-5.597445">
        <ele>148.253</ele>
        <time>2022-08-27T08:44:13Z</time>
      </trkpt>
      <trkpt lat="43.526307" lon="-5.597378">
        <ele>148.523</ele>
        <time>2022-08-27T08:44:16Z</time>
      </trkpt>
      <trkpt lat="43.526275" lon="-5.597296">
        <ele>149.399</ele>
        <time>2022-08-27T08:44:19Z</time>
      </trkpt>
      <trkpt lat="43.526247" lon="-5.597246">
        <ele>149.573</ele>
        <time>2022-08-27T08:44:21Z</time>
      </trkpt>
      <trkpt lat="43.526225" lon="-5.597191">
        <ele>149.530</ele>
        <time>2022-08-27T08:44:23Z</time>
      </trkpt>
      <trkpt lat="43.526212" lon="-5.597104">
        <ele>149.527</ele>
        <time>2022-08-27T08:44:26Z</time>
      </trkpt>
      <trkpt lat="43.526207" lon="-5.597039">
        <ele>149.679</ele>
        <time>2022-08-27T08:44:28Z</time>
      </trkpt>
      <trkpt lat="43.526192" lon="-5.596977">
        <ele>149.605</ele>
        <time>2022-08-27T08:44:30Z</time>
      </trkpt>
      <trkpt lat="43.526174" lon="-5.596887">
        <ele>149.725</ele>
        <time>2022-08-27T08:44:33Z</time>
      </trkpt>
      <trkpt lat="43.526171" lon="-5.596822">
        <ele>150.309</ele>
        <time>2022-08-27T08:44:35Z</time>
      </trkpt>
      <trkpt lat="43.526166" lon="-5.596759">
        <ele>150.658</ele>
        <time>2022-08-27T08:44:37Z</time>
      </trkpt>
      <trkpt lat="43.526149" lon="-5.596697">
        <ele>151.498</ele>
        <time>2022-08-27T08:44:39Z</time>
      </trkpt>
      <trkpt lat="43.526161" lon="-5.596619">
        <ele>152.079</ele>
        <time>2022-08-27T08:44:42Z</time>
      </trkpt>
      <trkpt lat="43.526139" lon="-5.596537">
        <ele>152.817</ele>
        <time>2022-08-27T08:44:45Z</time>
      </trkpt>
      <trkpt lat="43.526142" lon="-5.596472">
        <ele>153.137</ele>
        <time>2022-08-27T08:44:47Z</time>
      </trkpt>
      <trkpt lat="43.526140" lon="-5.596407">
        <ele>153.113</ele>
        <time>2022-08-27T08:44:49Z</time>
      </trkpt>
      <trkpt lat="43.526130" lon="-5.596337">
        <ele>154.047</ele>
        <time>2022-08-27T08:44:51Z</time>
      </trkpt>
      <trkpt lat="43.526127" lon="-5.596270">
        <ele>154.244</ele>
        <time>2022-08-27T08:44:53Z</time>
      </trkpt>
      <trkpt lat="43.526135" lon="-5.596207">
        <ele>154.591</ele>
        <time>2022-08-27T08:44:55Z</time>
      </trkpt>
      <trkpt lat="43.526142" lon="-5.596122">
        <ele>154.665</ele>
        <time>2022-08-27T08:44:58Z</time>
      </trkpt>
      <trkpt lat="43.526154" lon="-5.596039">
        <ele>154.668</ele>
        <time>2022-08-27T08:45:01Z</time>
      </trkpt>
      <trkpt lat="43.526149" lon="-5.595967">
        <ele>154.314</ele>
        <time>2022-08-27T08:45:04Z</time>
      </trkpt>
      <trkpt lat="43.526159" lon="-5.595882">
        <ele>154.309</ele>
        <time>2022-08-27T08:45:07Z</time>
      </trkpt>
      <trkpt lat="43.526169" lon="-5.595797">
        <ele>154.357</ele>
        <time>2022-08-27T08:45:10Z</time>
      </trkpt>
      <trkpt lat="43.526154" lon="-5.595707">
        <ele>154.367</ele>
        <time>2022-08-27T08:45:13Z</time>
      </trkpt>
      <trkpt lat="43.526124" lon="-5.595657">
        <ele>154.448</ele>
        <time>2022-08-27T08:45:15Z</time>
      </trkpt>
      <trkpt lat="43.526094" lon="-5.595605">
        <ele>154.586</ele>
        <time>2022-08-27T08:45:17Z</time>
      </trkpt>
      <trkpt lat="43.526037" lon="-5.595563">
        <ele>154.536</ele>
        <time>2022-08-27T08:45:20Z</time>
      </trkpt>
      <trkpt lat="43.525992" lon="-5.595540">
        <ele>155.462</ele>
        <time>2022-08-27T08:45:22Z</time>
      </trkpt>
      <trkpt lat="43.525942" lon="-5.595528">
        <ele>156.346</ele>
        <time>2022-08-27T08:45:24Z</time>
      </trkpt>
      <trkpt lat="43.525890" lon="-5.595518">
        <ele>157.323</ele>
        <time>2022-08-27T08:45:26Z</time>
      </trkpt>
      <trkpt lat="43.525838" lon="-5.595511">
        <ele>158.340</ele>
        <time>2022-08-27T08:45:28Z</time>
      </trkpt>
      <trkpt lat="43.525790" lon="-5.595501">
        <ele>159.071</ele>
        <time>2022-08-27T08:45:30Z</time>
      </trkpt>
      <trkpt lat="43.525740" lon="-5.595483">
        <ele>160.041</ele>
        <time>2022-08-27T08:45:32Z</time>
      </trkpt>
      <trkpt lat="43.525698" lon="-5.595456">
        <ele>160.015</ele>
        <time>2022-08-27T08:45:34Z</time>
      </trkpt>
      <trkpt lat="43.525641" lon="-5.595404">
        <ele>160.409</ele>
        <time>2022-08-27T08:45:37Z</time>
      </trkpt>
      <trkpt lat="43.525599" lon="-5.595342">
        <ele>160.438</ele>
        <time>2022-08-27T08:45:40Z</time>
      </trkpt>
      <trkpt lat="43.525566" lon="-5.595292">
        <ele>160.448</ele>
        <time>2022-08-27T08:45:42Z</time>
      </trkpt>
      <trkpt lat="43.525531" lon="-5.595235">
        <ele>160.579</ele>
        <time>2022-08-27T08:45:44Z</time>
      </trkpt>
      <trkpt lat="43.525511" lon="-5.595173">
        <ele>160.937</ele>
        <time>2022-08-27T08:45:46Z</time>
      </trkpt>
      <trkpt lat="43.525496" lon="-5.595108">
        <ele>161.237</ele>
        <time>2022-08-27T08:45:48Z</time>
      </trkpt>
      <trkpt lat="43.525478" lon="-5.595041">
        <ele>161.693</ele>
        <time>2022-08-27T08:45:50Z</time>
      </trkpt>
      <trkpt lat="43.525458" lon="-5.594973">
        <ele>161.757</ele>
        <time>2022-08-27T08:45:52Z</time>
      </trkpt>
      <trkpt lat="43.525440" lon="-5.594903">
        <ele>162.034</ele>
        <time>2022-08-27T08:45:54Z</time>
      </trkpt>
      <trkpt lat="43.525427" lon="-5.594835">
        <ele>162.211</ele>
        <time>2022-08-27T08:45:56Z</time>
      </trkpt>
      <trkpt lat="43.525410" lon="-5.594768">
        <ele>162.226</ele>
        <time>2022-08-27T08:45:58Z</time>
      </trkpt>
      <trkpt lat="43.525397" lon="-5.594703">
        <ele>162.347</ele>
        <time>2022-08-27T08:46:00Z</time>
      </trkpt>
      <trkpt lat="43.525382" lon="-5.594636">
        <ele>162.611</ele>
        <time>2022-08-27T08:46:02Z</time>
      </trkpt>
      <trkpt lat="43.525372" lon="-5.594566">
        <ele>162.709</ele>
        <time>2022-08-27T08:46:04Z</time>
      </trkpt>
      <trkpt lat="43.525364" lon="-5.594494">
        <ele>162.793</ele>
        <time>2022-08-27T08:46:06Z</time>
      </trkpt>
      <trkpt lat="43.525366" lon="-5.594422">
        <ele>163.123</ele>
        <time>2022-08-27T08:46:08Z</time>
      </trkpt>
      <trkpt lat="43.525381" lon="-5.594349">
        <ele>163.594</ele>
        <time>2022-08-27T08:46:10Z</time>
      </trkpt>
      <trkpt lat="43.525399" lon="-5.594274">
        <ele>163.532</ele>
        <time>2022-08-27T08:46:12Z</time>
      </trkpt>
      <trkpt lat="43.525416" lon="-5.594201">
        <ele>163.652</ele>
        <time>2022-08-27T08:46:14Z</time>
      </trkpt>
      <trkpt lat="43.525441" lon="-5.594139">
        <ele>163.888</ele>
        <time>2022-08-27T08:46:16Z</time>
      </trkpt>
      <trkpt lat="43.525471" lon="-5.594077">
        <ele>164.382</ele>
        <time>2022-08-27T08:46:17Z</time>
      </trkpt>
      <trkpt lat="43.525498" lon="-5.594014">
        <ele>164.619</ele>
        <time>2022-08-27T08:46:20Z</time>
      </trkpt>
      <trkpt lat="43.525528" lon="-5.593951">
        <ele>164.756</ele>
        <time>2022-08-27T08:46:22Z</time>
      </trkpt>
      <trkpt lat="43.525558" lon="-5.593888">
        <ele>164.993</ele>
        <time>2022-08-27T08:46:24Z</time>
      </trkpt>
      <trkpt lat="43.525590" lon="-5.593828">
        <ele>165.265</ele>
        <time>2022-08-27T08:46:26Z</time>
      </trkpt>
      <trkpt lat="43.525620" lon="-5.593765">
        <ele>165.421</ele>
        <time>2022-08-27T08:46:28Z</time>
      </trkpt>
      <trkpt lat="43.525655" lon="-5.593705">
        <ele>165.809</ele>
        <time>2022-08-27T08:46:30Z</time>
      </trkpt>
      <trkpt lat="43.525688" lon="-5.593647">
        <ele>166.340</ele>
        <time>2022-08-27T08:46:32Z</time>
      </trkpt>
      <trkpt lat="43.525721" lon="-5.593590">
        <ele>166.640</ele>
        <time>2022-08-27T08:46:34Z</time>
      </trkpt>
      <trkpt lat="43.525758" lon="-5.593537">
        <ele>167.091</ele>
        <time>2022-08-27T08:46:36Z</time>
      </trkpt>
      <trkpt lat="43.525796" lon="-5.593487">
        <ele>167.889</ele>
        <time>2022-08-27T08:46:38Z</time>
      </trkpt>
      <trkpt lat="43.525836" lon="-5.593435">
        <ele>168.269</ele>
        <time>2022-08-27T08:46:40Z</time>
      </trkpt>
      <trkpt lat="43.525873" lon="-5.593385">
        <ele>168.885</ele>
        <time>2022-08-27T08:46:42Z</time>
      </trkpt>
      <trkpt lat="43.525913" lon="-5.593343">
        <ele>169.239</ele>
        <time>2022-08-27T08:46:44Z</time>
      </trkpt>
      <trkpt lat="43.525955" lon="-5.593301">
        <ele>169.676</ele>
        <time>2022-08-27T08:46:46Z</time>
      </trkpt>
      <trkpt lat="43.525997" lon="-5.593266">
        <ele>170.363</ele>
        <time>2022-08-27T08:46:48Z</time>
      </trkpt>
      <trkpt lat="43.526047" lon="-5.593241">
        <ele>170.482</ele>
        <time>2022-08-27T08:46:49Z</time>
      </trkpt>
      <trkpt lat="43.526095" lon="-5.593224">
        <ele>170.543</ele>
        <time>2022-08-27T08:46:52Z</time>
      </trkpt>
      <trkpt lat="43.526143" lon="-5.593202">
        <ele>170.617</ele>
        <time>2022-08-27T08:46:54Z</time>
      </trkpt>
      <trkpt lat="43.526191" lon="-5.593179">
        <ele>171.309</ele>
        <time>2022-08-27T08:46:56Z</time>
      </trkpt>
      <trkpt lat="43.526236" lon="-5.593159">
        <ele>171.619</ele>
        <time>2022-08-27T08:46:58Z</time>
      </trkpt>
      <trkpt lat="43.526284" lon="-5.593141">
        <ele>172.229</ele>
        <time>2022-08-27T08:47:00Z</time>
      </trkpt>
      <trkpt lat="43.526329" lon="-5.593121">
        <ele>172.670</ele>
        <time>2022-08-27T08:47:02Z</time>
      </trkpt>
      <trkpt lat="43.526384" lon="-5.593093">
        <ele>172.738</ele>
        <time>2022-08-27T08:47:04Z</time>
      </trkpt>
      <trkpt lat="43.526436" lon="-5.593051">
        <ele>172.918</ele>
        <time>2022-08-27T08:47:06Z</time>
      </trkpt>
      <trkpt lat="43.526488" lon="-5.593009">
        <ele>173.364</ele>
        <time>2022-08-27T08:47:08Z</time>
      </trkpt>
      <trkpt lat="43.526530" lon="-5.592959">
        <ele>173.618</ele>
        <time>2022-08-27T08:47:10Z</time>
      </trkpt>
      <trkpt lat="43.526565" lon="-5.592906">
        <ele>173.825</ele>
        <time>2022-08-27T08:47:12Z</time>
      </trkpt>
      <trkpt lat="43.526585" lon="-5.592844">
        <ele>174.692</ele>
        <time>2022-08-27T08:47:14Z</time>
      </trkpt>
      <trkpt lat="43.526600" lon="-5.592777">
        <ele>175.425</ele>
        <time>2022-08-27T08:47:16Z</time>
      </trkpt>
      <trkpt lat="43.526612" lon="-5.592712">
        <ele>176.026</ele>
        <time>2022-08-27T08:47:18Z</time>
      </trkpt>
      <trkpt lat="43.526612" lon="-5.592635">
        <ele>176.108</ele>
        <time>2022-08-27T08:47:20Z</time>
      </trkpt>
      <trkpt lat="43.526609" lon="-5.592558">
        <ele>176.309</ele>
        <time>2022-08-27T08:47:22Z</time>
      </trkpt>
      <trkpt lat="43.526609" lon="-5.592483">
        <ele>176.843</ele>
        <time>2022-08-27T08:47:24Z</time>
      </trkpt>
      <trkpt lat="43.526607" lon="-5.592413">
        <ele>176.893</ele>
        <time>2022-08-27T08:47:26Z</time>
      </trkpt>
      <trkpt lat="43.526602" lon="-5.592338">
        <ele>176.944</ele>
        <time>2022-08-27T08:47:28Z</time>
      </trkpt>
      <trkpt lat="43.526597" lon="-5.592261">
        <ele>176.922</ele>
        <time>2022-08-27T08:47:30Z</time>
      </trkpt>
      <trkpt lat="43.526594" lon="-5.592189">
        <ele>176.722</ele>
        <time>2022-08-27T08:47:32Z</time>
      </trkpt>
      <trkpt lat="43.526589" lon="-5.592116">
        <ele>176.758</ele>
        <time>2022-08-27T08:47:34Z</time>
      </trkpt>
      <trkpt lat="43.526584" lon="-5.592043">
        <ele>176.562</ele>
        <time>2022-08-27T08:47:36Z</time>
      </trkpt>
      <trkpt lat="43.526577" lon="-5.591970">
        <ele>176.559</ele>
        <time>2022-08-27T08:47:38Z</time>
      </trkpt>
      <trkpt lat="43.526570" lon="-5.591897">
        <ele>176.566</ele>
        <time>2022-08-27T08:47:40Z</time>
      </trkpt>
      <trkpt lat="43.526570" lon="-5.591829">
        <ele>176.515</ele>
        <time>2022-08-27T08:47:42Z</time>
      </trkpt>
      <trkpt lat="43.526568" lon="-5.591762">
        <ele>176.665</ele>
        <time>2022-08-27T08:47:44Z</time>
      </trkpt>
      <trkpt lat="43.526568" lon="-5.591692">
        <ele>176.611</ele>
        <time>2022-08-27T08:47:46Z</time>
      </trkpt>
      <trkpt lat="43.526555" lon="-5.591615">
        <ele>176.709</ele>
        <time>2022-08-27T08:47:48Z</time>
      </trkpt>
      <trkpt lat="43.526540" lon="-5.591535">
        <ele>176.762</ele>
        <time>2022-08-27T08:47:50Z</time>
      </trkpt>
      <trkpt lat="43.526518" lon="-5.591462">
        <ele>176.852</ele>
        <time>2022-08-27T08:47:52Z</time>
      </trkpt>
      <trkpt lat="43.526495" lon="-5.591392">
        <ele>176.883</ele>
        <time>2022-08-27T08:47:54Z</time>
      </trkpt>
      <trkpt lat="43.526472" lon="-5.591317">
        <ele>176.861</ele>
        <time>2022-08-27T08:47:56Z</time>
      </trkpt>
      <trkpt lat="43.526444" lon="-5.591245">
        <ele>176.891</ele>
        <time>2022-08-27T08:47:58Z</time>
      </trkpt>
      <trkpt lat="43.526414" lon="-5.591170">
        <ele>176.737</ele>
        <time>2022-08-27T08:48:00Z</time>
      </trkpt>
      <trkpt lat="43.526381" lon="-5.591092">
        <ele>176.611</ele>
        <time>2022-08-27T08:48:02Z</time>
      </trkpt>
      <trkpt lat="43.526348" lon="-5.591009">
        <ele>176.718</ele>
        <time>2022-08-27T08:48:04Z</time>
      </trkpt>
      <trkpt lat="43.526318" lon="-5.590926">
        <ele>176.865</ele>
        <time>2022-08-27T08:48:06Z</time>
      </trkpt>
      <trkpt lat="43.526281" lon="-5.590833">
        <ele>177.063</ele>
        <time>2022-08-27T08:48:08Z</time>
      </trkpt>
      <trkpt lat="43.526244" lon="-5.590738">
        <ele>177.244</ele>
        <time>2022-08-27T08:48:10Z</time>
      </trkpt>
      <trkpt lat="43.526206" lon="-5.590635">
        <ele>177.618</ele>
        <time>2022-08-27T08:48:12Z</time>
      </trkpt>
      <trkpt lat="43.526184" lon="-5.590580">
        <ele>177.809</ele>
        <time>2022-08-27T08:48:13Z</time>
      </trkpt>
      <trkpt lat="43.526139" lon="-5.590477">
        <ele>178.187</ele>
        <time>2022-08-27T08:48:15Z</time>
      </trkpt>
      <trkpt lat="43.526096" lon="-5.590370">
        <ele>178.127</ele>
        <time>2022-08-27T08:48:17Z</time>
      </trkpt>
      <trkpt lat="43.526056" lon="-5.590255">
        <ele>177.988</ele>
        <time>2022-08-27T08:48:19Z</time>
      </trkpt>
      <trkpt lat="43.526034" lon="-5.590198">
        <ele>177.926</ele>
        <time>2022-08-27T08:48:20Z</time>
      </trkpt>
      <trkpt lat="43.525991" lon="-5.590086">
        <ele>177.746</ele>
        <time>2022-08-27T08:48:22Z</time>
      </trkpt>
      <trkpt lat="43.525946" lon="-5.589978">
        <ele>177.752</ele>
        <time>2022-08-27T08:48:24Z</time>
      </trkpt>
      <trkpt lat="43.525921" lon="-5.589926">
        <ele>177.996</ele>
        <time>2022-08-27T08:48:25Z</time>
      </trkpt>
      <trkpt lat="43.525868" lon="-5.589828">
        <ele>178.243</ele>
        <time>2022-08-27T08:48:27Z</time>
      </trkpt>
      <trkpt lat="43.525813" lon="-5.589735">
        <ele>178.270</ele>
        <time>2022-08-27T08:48:29Z</time>
      </trkpt>
      <trkpt lat="43.525750" lon="-5.589657">
        <ele>178.286</ele>
        <time>2022-08-27T08:48:31Z</time>
      </trkpt>
      <trkpt lat="43.525682" lon="-5.589582">
        <ele>177.860</ele>
        <time>2022-08-27T08:48:33Z</time>
      </trkpt>
      <trkpt lat="43.525612" lon="-5.589510">
        <ele>177.626</ele>
        <time>2022-08-27T08:48:35Z</time>
      </trkpt>
      <trkpt lat="43.525544" lon="-5.589443">
        <ele>177.409</ele>
        <time>2022-08-27T08:48:37Z</time>
      </trkpt>
      <trkpt lat="43.525476" lon="-5.589373">
        <ele>177.479</ele>
        <time>2022-08-27T08:48:39Z</time>
      </trkpt>
      <trkpt lat="43.525409" lon="-5.589308">
        <ele>177.589</ele>
        <time>2022-08-27T08:48:41Z</time>
      </trkpt>
      <trkpt lat="43.525342" lon="-5.589243">
        <ele>177.530</ele>
        <time>2022-08-27T08:48:43Z</time>
      </trkpt>
      <trkpt lat="43.525274" lon="-5.589178">
        <ele>177.538</ele>
        <time>2022-08-27T08:48:45Z</time>
      </trkpt>
      <trkpt lat="43.525202" lon="-5.589110">
        <ele>177.548</ele>
        <time>2022-08-27T08:48:47Z</time>
      </trkpt>
      <trkpt lat="43.525130" lon="-5.589050">
        <ele>177.764</ele>
        <time>2022-08-27T08:48:49Z</time>
      </trkpt>
      <trkpt lat="43.525057" lon="-5.589005">
        <ele>177.788</ele>
        <time>2022-08-27T08:48:51Z</time>
      </trkpt>
      <trkpt lat="43.524982" lon="-5.588977">
        <ele>177.585</ele>
        <time>2022-08-27T08:48:53Z</time>
      </trkpt>
      <trkpt lat="43.524907" lon="-5.588967">
        <ele>177.142</ele>
        <time>2022-08-27T08:48:55Z</time>
      </trkpt>
      <trkpt lat="43.524829" lon="-5.588965">
        <ele>176.775</ele>
        <time>2022-08-27T08:48:57Z</time>
      </trkpt>
      <trkpt lat="43.524751" lon="-5.588970">
        <ele>176.728</ele>
        <time>2022-08-27T08:48:59Z</time>
      </trkpt>
      <trkpt lat="43.524673" lon="-5.588980">
        <ele>176.720</ele>
        <time>2022-08-27T08:49:01Z</time>
      </trkpt>
      <trkpt lat="43.524588" lon="-5.588992">
        <ele>176.709</ele>
        <time>2022-08-27T08:49:03Z</time>
      </trkpt>
      <trkpt lat="43.524541" lon="-5.588997">
        <ele>176.838</ele>
        <time>2022-08-27T08:49:04Z</time>
      </trkpt>
      <trkpt lat="43.524453" lon="-5.589007">
        <ele>176.748</ele>
        <time>2022-08-27T08:49:06Z</time>
      </trkpt>
      <trkpt lat="43.524406" lon="-5.589014">
        <ele>176.749</ele>
        <time>2022-08-27T08:49:07Z</time>
      </trkpt>
      <trkpt lat="43.524314" lon="-5.589026">
        <ele>176.597</ele>
        <time>2022-08-27T08:49:09Z</time>
      </trkpt>
      <trkpt lat="43.524269" lon="-5.589028">
        <ele>176.437</ele>
        <time>2022-08-27T08:49:10Z</time>
      </trkpt>
      <trkpt lat="43.524177" lon="-5.589035">
        <ele>176.383</ele>
        <time>2022-08-27T08:49:12Z</time>
      </trkpt>
      <trkpt lat="43.524130" lon="-5.589035">
        <ele>176.247</ele>
        <time>2022-08-27T08:49:13Z</time>
      </trkpt>
      <trkpt lat="43.524083" lon="-5.589037">
        <ele>176.274</ele>
        <time>2022-08-27T08:49:14Z</time>
      </trkpt>
      <trkpt lat="43.523990" lon="-5.589045">
        <ele>176.021</ele>
        <time>2022-08-27T08:49:16Z</time>
      </trkpt>
      <trkpt lat="43.523905" lon="-5.589052">
        <ele>175.963</ele>
        <time>2022-08-27T08:49:18Z</time>
      </trkpt>
      <trkpt lat="43.523815" lon="-5.589052">
        <ele>175.844</ele>
        <time>2022-08-27T08:49:20Z</time>
      </trkpt>
      <trkpt lat="43.523727" lon="-5.589069">
        <ele>175.818</ele>
        <time>2022-08-27T08:49:22Z</time>
      </trkpt>
      <trkpt lat="43.523680" lon="-5.589072">
        <ele>175.809</ele>
        <time>2022-08-27T08:49:23Z</time>
      </trkpt>
      <trkpt lat="43.523632" lon="-5.589075">
        <ele>175.997</ele>
        <time>2022-08-27T08:49:24Z</time>
      </trkpt>
      <trkpt lat="43.523535" lon="-5.589080">
        <ele>176.227</ele>
        <time>2022-08-27T08:49:26Z</time>
      </trkpt>
      <trkpt lat="43.523433" lon="-5.589082">
        <ele>176.878</ele>
        <time>2022-08-27T08:49:28Z</time>
      </trkpt>
      <trkpt lat="43.523328" lon="-5.589090">
        <ele>177.346</ele>
        <time>2022-08-27T08:49:30Z</time>
      </trkpt>
      <trkpt lat="43.523221" lon="-5.589092">
        <ele>177.386</ele>
        <time>2022-08-27T08:49:32Z</time>
      </trkpt>
      <trkpt lat="43.523164" lon="-5.589092">
        <ele>177.262</ele>
        <time>2022-08-27T08:49:33Z</time>
      </trkpt>
      <trkpt lat="43.523107" lon="-5.589095">
        <ele>177.066</ele>
        <time>2022-08-27T08:49:34Z</time>
      </trkpt>
      <trkpt lat="43.522994" lon="-5.589100">
        <ele>176.833</ele>
        <time>2022-08-27T08:49:36Z</time>
      </trkpt>
      <trkpt lat="43.522936" lon="-5.589100">
        <ele>176.840</ele>
        <time>2022-08-27T08:49:37Z</time>
      </trkpt>
      <trkpt lat="43.522819" lon="-5.589095">
        <ele>177.079</ele>
        <time>2022-08-27T08:49:39Z</time>
      </trkpt>
      <trkpt lat="43.522762" lon="-5.589092">
        <ele>177.005</ele>
        <time>2022-08-27T08:49:40Z</time>
      </trkpt>
      <trkpt lat="43.522647" lon="-5.589090">
        <ele>176.925</ele>
        <time>2022-08-27T08:49:42Z</time>
      </trkpt>
      <trkpt lat="43.522590" lon="-5.589090">
        <ele>176.809</ele>
        <time>2022-08-27T08:49:43Z</time>
      </trkpt>
      <trkpt lat="43.522475" lon="-5.589087">
        <ele>176.658</ele>
        <time>2022-08-27T08:49:45Z</time>
      </trkpt>
      <trkpt lat="43.522360" lon="-5.589090">
        <ele>176.248</ele>
        <time>2022-08-27T08:49:47Z</time>
      </trkpt>
      <trkpt lat="43.522240" lon="-5.589093">
        <ele>175.899</ele>
        <time>2022-08-27T08:49:49Z</time>
      </trkpt>
      <trkpt lat="43.522123" lon="-5.589096">
        <ele>175.687</ele>
        <time>2022-08-27T08:49:51Z</time>
      </trkpt>
      <trkpt lat="43.522065" lon="-5.589094">
        <ele>175.597</ele>
        <time>2022-08-27T08:49:52Z</time>
      </trkpt>
      <trkpt lat="43.521950" lon="-5.589092">
        <ele>175.553</ele>
        <time>2022-08-27T08:49:54Z</time>
      </trkpt>
      <trkpt lat="43.521893" lon="-5.589095">
        <ele>175.697</ele>
        <time>2022-08-27T08:49:55Z</time>
      </trkpt>
      <trkpt lat="43.521775" lon="-5.589115">
        <ele>175.934</ele>
        <time>2022-08-27T08:49:57Z</time>
      </trkpt>
      <trkpt lat="43.521665" lon="-5.589168">
        <ele>176.111</ele>
        <time>2022-08-27T08:49:59Z</time>
      </trkpt>
      <trkpt lat="43.521552" lon="-5.589218">
        <ele>176.181</ele>
        <time>2022-08-27T08:50:01Z</time>
      </trkpt>
      <trkpt lat="43.521429" lon="-5.589206">
        <ele>176.561</ele>
        <time>2022-08-27T08:50:03Z</time>
      </trkpt>
      <trkpt lat="43.521317" lon="-5.589153">
        <ele>177.017</ele>
        <time>2022-08-27T08:50:05Z</time>
      </trkpt>
      <trkpt lat="43.521222" lon="-5.589068">
        <ele>177.309</ele>
        <time>2022-08-27T08:50:07Z</time>
      </trkpt>
      <trkpt lat="43.521179" lon="-5.589020">
        <ele>177.469</ele>
        <time>2022-08-27T08:50:08Z</time>
      </trkpt>
      <trkpt lat="43.521136" lon="-5.588973">
        <ele>177.419</ele>
        <time>2022-08-27T08:50:09Z</time>
      </trkpt>
      <trkpt lat="43.521053" lon="-5.588891">
        <ele>177.510</ele>
        <time>2022-08-27T08:50:11Z</time>
      </trkpt>
      <trkpt lat="43.521013" lon="-5.588858">
        <ele>177.688</ele>
        <time>2022-08-27T08:50:12Z</time>
      </trkpt>
      <trkpt lat="43.520973" lon="-5.588823">
        <ele>177.698</ele>
        <time>2022-08-27T08:50:13Z</time>
      </trkpt>
      <trkpt lat="43.520933" lon="-5.588790">
        <ele>177.794</ele>
        <time>2022-08-27T08:50:14Z</time>
      </trkpt>
      <trkpt lat="43.520856" lon="-5.588718">
        <ele>177.878</ele>
        <time>2022-08-27T08:50:16Z</time>
      </trkpt>
      <trkpt lat="43.520783" lon="-5.588653">
        <ele>178.035</ele>
        <time>2022-08-27T08:50:18Z</time>
      </trkpt>
      <trkpt lat="43.520721" lon="-5.588585">
        <ele>178.342</ele>
        <time>2022-08-27T08:50:20Z</time>
      </trkpt>
      <trkpt lat="43.520661" lon="-5.588530">
        <ele>178.783</ele>
        <time>2022-08-27T08:50:22Z</time>
      </trkpt>
      <trkpt lat="43.520599" lon="-5.588488">
        <ele>178.725</ele>
        <time>2022-08-27T08:50:24Z</time>
      </trkpt>
      <trkpt lat="43.520546" lon="-5.588438">
        <ele>178.717</ele>
        <time>2022-08-27T08:50:26Z</time>
      </trkpt>
      <trkpt lat="43.520484" lon="-5.588386">
        <ele>178.809</ele>
        <time>2022-08-27T08:50:28Z</time>
      </trkpt>
      <trkpt lat="43.520419" lon="-5.588338">
        <ele>179.129</ele>
        <time>2022-08-27T08:50:30Z</time>
      </trkpt>
      <trkpt lat="43.520359" lon="-5.588281">
        <ele>179.349</ele>
        <time>2022-08-27T08:50:32Z</time>
      </trkpt>
      <trkpt lat="43.520302" lon="-5.588229">
        <ele>179.420</ele>
        <time>2022-08-27T08:50:34Z</time>
      </trkpt>
      <trkpt lat="43.520247" lon="-5.588186">
        <ele>179.648</ele>
        <time>2022-08-27T08:50:36Z</time>
      </trkpt>
      <trkpt lat="43.520187" lon="-5.588144">
        <ele>179.658</ele>
        <time>2022-08-27T08:50:38Z</time>
      </trkpt>
      <trkpt lat="43.520119" lon="-5.588099">
        <ele>179.424</ele>
        <time>2022-08-27T08:50:40Z</time>
      </trkpt>
      <trkpt lat="43.520056" lon="-5.588052">
        <ele>179.258</ele>
        <time>2022-08-27T08:50:42Z</time>
      </trkpt>
      <trkpt lat="43.519994" lon="-5.588005">
        <ele>179.135</ele>
        <time>2022-08-27T08:50:44Z</time>
      </trkpt>
      <trkpt lat="43.519924" lon="-5.587952">
        <ele>178.672</ele>
        <time>2022-08-27T08:50:46Z</time>
      </trkpt>
      <trkpt lat="43.519857" lon="-5.587895">
        <ele>177.892</ele>
        <time>2022-08-27T08:50:48Z</time>
      </trkpt>
      <trkpt lat="43.519785" lon="-5.587833">
        <ele>176.973</ele>
        <time>2022-08-27T08:50:50Z</time>
      </trkpt>
      <trkpt lat="43.519708" lon="-5.587766">
        <ele>176.420</ele>
        <time>2022-08-27T08:50:52Z</time>
      </trkpt>
      <trkpt lat="43.519640" lon="-5.587686">
        <ele>176.209</ele>
        <time>2022-08-27T08:50:54Z</time>
      </trkpt>
      <trkpt lat="43.519567" lon="-5.587588">
        <ele>176.150</ele>
        <time>2022-08-27T08:50:56Z</time>
      </trkpt>
      <trkpt lat="43.519534" lon="-5.587533">
        <ele>176.130</ele>
        <time>2022-08-27T08:50:57Z</time>
      </trkpt>
      <trkpt lat="43.519501" lon="-5.587480">
        <ele>176.111</ele>
        <time>2022-08-27T08:50:58Z</time>
      </trkpt>
      <trkpt lat="43.519433" lon="-5.587370">
        <ele>176.359</ele>
        <time>2022-08-27T08:51:00Z</time>
      </trkpt>
      <trkpt lat="43.519368" lon="-5.587262">
        <ele>176.629</ele>
        <time>2022-08-27T08:51:02Z</time>
      </trkpt>
      <trkpt lat="43.519336" lon="-5.587207">
        <ele>176.825</ele>
        <time>2022-08-27T08:51:03Z</time>
      </trkpt>
      <trkpt lat="43.519301" lon="-5.587150">
        <ele>176.829</ele>
        <time>2022-08-27T08:51:04Z</time>
      </trkpt>
      <trkpt lat="43.519268" lon="-5.587093">
        <ele>176.826</ele>
        <time>2022-08-27T08:51:05Z</time>
      </trkpt>
      <trkpt lat="43.519236" lon="-5.587040">
        <ele>176.963</ele>
        <time>2022-08-27T08:51:06Z</time>
      </trkpt>
      <trkpt lat="43.519203" lon="-5.586988">
        <ele>177.075</ele>
        <time>2022-08-27T08:51:07Z</time>
      </trkpt>
      <trkpt lat="43.519141" lon="-5.586885">
        <ele>177.128</ele>
        <time>2022-08-27T08:51:09Z</time>
      </trkpt>
      <trkpt lat="43.519113" lon="-5.586835">
        <ele>177.220</ele>
        <time>2022-08-27T08:51:10Z</time>
      </trkpt>
      <trkpt lat="43.519053" lon="-5.586733">
        <ele>177.309</ele>
        <time>2022-08-27T08:51:12Z</time>
      </trkpt>
      <trkpt lat="43.518991" lon="-5.586630">
        <ele>177.318</ele>
        <time>2022-08-27T08:51:14Z</time>
      </trkpt>
      <trkpt lat="43.518959" lon="-5.586578">
        <ele>177.348</ele>
        <time>2022-08-27T08:51:15Z</time>
      </trkpt>
      <trkpt lat="43.518929" lon="-5.586525">
        <ele>177.379</ele>
        <time>2022-08-27T08:51:16Z</time>
      </trkpt>
      <trkpt lat="43.518896" lon="-5.586472">
        <ele>177.387</ele>
        <time>2022-08-27T08:51:17Z</time>
      </trkpt>
      <trkpt lat="43.518864" lon="-5.586415">
        <ele>177.387</ele>
        <time>2022-08-27T08:51:18Z</time>
      </trkpt>
      <trkpt lat="43.518802" lon="-5.586308">
        <ele>177.393</ele>
        <time>2022-08-27T08:51:20Z</time>
      </trkpt>
      <trkpt lat="43.518770" lon="-5.586255">
        <ele>177.237</ele>
        <time>2022-08-27T08:51:21Z</time>
      </trkpt>
      <trkpt lat="43.518705" lon="-5.586147">
        <ele>176.914</ele>
        <time>2022-08-27T08:51:23Z</time>
      </trkpt>
      <trkpt lat="43.518673" lon="-5.586094">
        <ele>176.951</ele>
        <time>2022-08-27T08:51:24Z</time>
      </trkpt>
      <trkpt lat="43.518610" lon="-5.585989">
        <ele>176.722</ele>
        <time>2022-08-27T08:51:26Z</time>
      </trkpt>
      <trkpt lat="43.518547" lon="-5.585886">
        <ele>176.862</ele>
        <time>2022-08-27T08:51:28Z</time>
      </trkpt>
      <trkpt lat="43.518480" lon="-5.585778">
        <ele>176.808</ele>
        <time>2022-08-27T08:51:30Z</time>
      </trkpt>
      <trkpt lat="43.518440" lon="-5.585728">
        <ele>176.809</ele>
        <time>2022-08-27T08:51:31Z</time>
      </trkpt>
      <trkpt lat="43.518347" lon="-5.585640">
        <ele>176.883</ele>
        <time>2022-08-27T08:51:33Z</time>
      </trkpt>
      <trkpt lat="43.518297" lon="-5.585603">
        <ele>176.513</ele>
        <time>2022-08-27T08:51:34Z</time>
      </trkpt>
      <trkpt lat="43.518179" lon="-5.585546">
        <ele>175.674</ele>
        <time>2022-08-27T08:51:36Z</time>
      </trkpt>
      <trkpt lat="43.518046" lon="-5.585474">
        <ele>175.122</ele>
        <time>2022-08-27T08:51:38Z</time>
      </trkpt>
      <trkpt lat="43.517913" lon="-5.585354">
        <ele>173.742</ele>
        <time>2022-08-27T08:51:40Z</time>
      </trkpt>
      <trkpt lat="43.517851" lon="-5.585276">
        <ele>173.518</ele>
        <time>2022-08-27T08:51:41Z</time>
      </trkpt>
      <trkpt lat="43.517744" lon="-5.585103">
        <ele>173.452</ele>
        <time>2022-08-27T08:51:43Z</time>
      </trkpt>
      <trkpt lat="43.517646" lon="-5.584913">
        <ele>172.879</ele>
        <time>2022-08-27T08:51:45Z</time>
      </trkpt>
      <trkpt lat="43.517598" lon="-5.584818">
        <ele>172.666</ele>
        <time>2022-08-27T08:51:46Z</time>
      </trkpt>
      <trkpt lat="43.517548" lon="-5.584723">
        <ele>172.036</ele>
        <time>2022-08-27T08:51:47Z</time>
      </trkpt>
      <trkpt lat="43.517501" lon="-5.584628">
        <ele>171.417</ele>
        <time>2022-08-27T08:51:48Z</time>
      </trkpt>
      <trkpt lat="43.517398" lon="-5.584421">
        <ele>170.618</ele>
        <time>2022-08-27T08:51:50Z</time>
      </trkpt>
      <trkpt lat="43.517345" lon="-5.584314">
        <ele>170.309</ele>
        <time>2022-08-27T08:51:51Z</time>
      </trkpt>
      <trkpt lat="43.517292" lon="-5.584206">
        <ele>169.994</ele>
        <time>2022-08-27T08:51:52Z</time>
      </trkpt>
      <trkpt lat="43.517185" lon="-5.583993">
        <ele>169.414</ele>
        <time>2022-08-27T08:51:54Z</time>
      </trkpt>
      <trkpt lat="43.517132" lon="-5.583886">
        <ele>169.085</ele>
        <time>2022-08-27T08:51:55Z</time>
      </trkpt>
      <trkpt lat="43.517027" lon="-5.583671">
        <ele>168.093</ele>
        <time>2022-08-27T08:51:57Z</time>
      </trkpt>
      <trkpt lat="43.516975" lon="-5.583566">
        <ele>167.743</ele>
        <time>2022-08-27T08:51:58Z</time>
      </trkpt>
      <trkpt lat="43.516872" lon="-5.583359">
        <ele>165.719</ele>
        <time>2022-08-27T08:52:00Z</time>
      </trkpt>
      <trkpt lat="43.516824" lon="-5.583257">
        <ele>165.133</ele>
        <time>2022-08-27T08:52:01Z</time>
      </trkpt>
      <trkpt lat="43.516722" lon="-5.583050">
        <ele>163.970</ele>
        <time>2022-08-27T08:52:03Z</time>
      </trkpt>
      <trkpt lat="43.516622" lon="-5.582855">
        <ele>162.717</ele>
        <time>2022-08-27T08:52:05Z</time>
      </trkpt>
      <trkpt lat="43.516564" lon="-5.582778">
        <ele>161.913</ele>
        <time>2022-08-27T08:52:06Z</time>
      </trkpt>
      <trkpt lat="43.516496" lon="-5.582715">
        <ele>161.343</ele>
        <time>2022-08-27T08:52:07Z</time>
      </trkpt>
      <trkpt lat="43.516336" lon="-5.582683">
        <ele>160.607</ele>
        <time>2022-08-27T08:52:09Z</time>
      </trkpt>
      <trkpt lat="43.516169" lon="-5.582700">
        <ele>159.209</ele>
        <time>2022-08-27T08:52:11Z</time>
      </trkpt>
      <trkpt lat="43.516082" lon="-5.582675">
        <ele>158.522</ele>
        <time>2022-08-27T08:52:12Z</time>
      </trkpt>
      <trkpt lat="43.516000" lon="-5.582628">
        <ele>158.122</ele>
        <time>2022-08-27T08:52:13Z</time>
      </trkpt>
      <trkpt lat="43.515843" lon="-5.582505">
        <ele>157.153</ele>
        <time>2022-08-27T08:52:15Z</time>
      </trkpt>
      <trkpt lat="43.515685" lon="-5.582358">
        <ele>155.541</ele>
        <time>2022-08-27T08:52:17Z</time>
      </trkpt>
      <trkpt lat="43.515603" lon="-5.582288">
        <ele>154.971</ele>
        <time>2022-08-27T08:52:18Z</time>
      </trkpt>
      <trkpt lat="43.515436" lon="-5.582150">
        <ele>154.077</ele>
        <time>2022-08-27T08:52:20Z</time>
      </trkpt>
      <trkpt lat="43.515358" lon="-5.582080">
        <ele>153.431</ele>
        <time>2022-08-27T08:52:21Z</time>
      </trkpt>
      <trkpt lat="43.515285" lon="-5.582003">
        <ele>152.478</ele>
        <time>2022-08-27T08:52:22Z</time>
      </trkpt>
      <trkpt lat="43.515218" lon="-5.581926">
        <ele>152.425</ele>
        <time>2022-08-27T08:52:23Z</time>
      </trkpt>
      <trkpt lat="43.515151" lon="-5.581861">
        <ele>151.911</ele>
        <time>2022-08-27T08:52:24Z</time>
      </trkpt>
      <trkpt lat="43.514996" lon="-5.581814">
        <ele>150.921</ele>
        <time>2022-08-27T08:52:26Z</time>
      </trkpt>
      <trkpt lat="43.514846" lon="-5.581781">
        <ele>149.703</ele>
        <time>2022-08-27T08:52:28Z</time>
      </trkpt>
      <trkpt lat="43.514754" lon="-5.581661">
        <ele>149.109</ele>
        <time>2022-08-27T08:52:30Z</time>
      </trkpt>
      <trkpt lat="43.514744" lon="-5.581516">
        <ele>149.172</ele>
        <time>2022-08-27T08:52:32Z</time>
      </trkpt>
      <trkpt lat="43.514814" lon="-5.581401">
        <ele>150.222</ele>
        <time>2022-08-27T08:52:34Z</time>
      </trkpt>
      <trkpt lat="43.514861" lon="-5.581363">
        <ele>150.993</ele>
        <time>2022-08-27T08:52:35Z</time>
      </trkpt>
      <trkpt lat="43.514913" lon="-5.581341">
        <ele>151.781</ele>
        <time>2022-08-27T08:52:36Z</time>
      </trkpt>
      <trkpt lat="43.514966" lon="-5.581333">
        <ele>152.361</ele>
        <time>2022-08-27T08:52:37Z</time>
      </trkpt>
      <trkpt lat="43.515078" lon="-5.581318">
        <ele>153.447</ele>
        <time>2022-08-27T08:52:39Z</time>
      </trkpt>
      <trkpt lat="43.515133" lon="-5.581288">
        <ele>153.781</ele>
        <time>2022-08-27T08:52:40Z</time>
      </trkpt>
      <trkpt lat="43.515185" lon="-5.581250">
        <ele>153.848</ele>
        <time>2022-08-27T08:52:41Z</time>
      </trkpt>
      <trkpt lat="43.515292" lon="-5.581200">
        <ele>154.465</ele>
        <time>2022-08-27T08:52:43Z</time>
      </trkpt>
      <trkpt lat="43.515402" lon="-5.581197">
        <ele>154.672</ele>
        <time>2022-08-27T08:52:45Z</time>
      </trkpt>
      <trkpt lat="43.515507" lon="-5.581209">
        <ele>154.513</ele>
        <time>2022-08-27T08:52:47Z</time>
      </trkpt>
      <trkpt lat="43.515595" lon="-5.581227">
        <ele>154.014</ele>
        <time>2022-08-27T08:52:49Z</time>
      </trkpt>
      <trkpt lat="43.515642" lon="-5.581235">
        <ele>154.009</ele>
        <time>2022-08-27T08:52:50Z</time>
      </trkpt>
      <trkpt lat="43.515737" lon="-5.581243">
        <ele>154.088</ele>
        <time>2022-08-27T08:52:52Z</time>
      </trkpt>
      <trkpt lat="43.515825" lon="-5.581248">
        <ele>154.148</ele>
        <time>2022-08-27T08:52:54Z</time>
      </trkpt>
      <trkpt lat="43.515913" lon="-5.581248">
        <ele>154.249</ele>
        <time>2022-08-27T08:52:56Z</time>
      </trkpt>
      <trkpt lat="43.515998" lon="-5.581245">
        <ele>154.297</ele>
        <time>2022-08-27T08:52:58Z</time>
      </trkpt>
      <trkpt lat="43.516076" lon="-5.581227">
        <ele>154.377</ele>
        <time>2022-08-27T08:53:00Z</time>
      </trkpt>
      <trkpt lat="43.516151" lon="-5.581195">
        <ele>154.313</ele>
        <time>2022-08-27T08:53:02Z</time>
      </trkpt>
      <trkpt lat="43.516224" lon="-5.581152">
        <ele>155.027</ele>
        <time>2022-08-27T08:53:04Z</time>
      </trkpt>
      <trkpt lat="43.516302" lon="-5.581099">
        <ele>155.994</ele>
        <time>2022-08-27T08:53:06Z</time>
      </trkpt>
      <trkpt lat="43.516374" lon="-5.581044">
        <ele>156.411</ele>
        <time>2022-08-27T08:53:08Z</time>
      </trkpt>
      <trkpt lat="43.516439" lon="-5.581001">
        <ele>157.427</ele>
        <time>2022-08-27T08:53:10Z</time>
      </trkpt>
      <trkpt lat="43.516509" lon="-5.580954">
        <ele>157.568</ele>
        <time>2022-08-27T08:53:12Z</time>
      </trkpt>
      <trkpt lat="43.516551" lon="-5.580929">
        <ele>157.614</ele>
        <time>2022-08-27T08:53:13Z</time>
      </trkpt>
      <trkpt lat="43.516624" lon="-5.580882">
        <ele>157.609</ele>
        <time>2022-08-27T08:53:15Z</time>
      </trkpt>
      <trkpt lat="43.516691" lon="-5.580835">
        <ele>157.613</ele>
        <time>2022-08-27T08:53:17Z</time>
      </trkpt>
      <trkpt lat="43.516754" lon="-5.580790">
        <ele>157.643</ele>
        <time>2022-08-27T08:53:19Z</time>
      </trkpt>
      <trkpt lat="43.516817" lon="-5.580747">
        <ele>157.964</ele>
        <time>2022-08-27T08:53:21Z</time>
      </trkpt>
      <trkpt lat="43.516885" lon="-5.580700">
        <ele>159.082</ele>
        <time>2022-08-27T08:53:23Z</time>
      </trkpt>
      <trkpt lat="43.516953" lon="-5.580647">
        <ele>159.352</ele>
        <time>2022-08-27T08:53:25Z</time>
      </trkpt>
      <trkpt lat="43.517015" lon="-5.580585">
        <ele>159.428</ele>
        <time>2022-08-27T08:53:27Z</time>
      </trkpt>
      <trkpt lat="43.517068" lon="-5.580515">
        <ele>159.672</ele>
        <time>2022-08-27T08:53:29Z</time>
      </trkpt>
      <trkpt lat="43.517113" lon="-5.580438">
        <ele>160.349</ele>
        <time>2022-08-27T08:53:31Z</time>
      </trkpt>
      <trkpt lat="43.517161" lon="-5.580365">
        <ele>160.786</ele>
        <time>2022-08-27T08:53:33Z</time>
      </trkpt>
      <trkpt lat="43.517198" lon="-5.580278">
        <ele>160.715</ele>
        <time>2022-08-27T08:53:35Z</time>
      </trkpt>
      <trkpt lat="43.517236" lon="-5.580195">
        <ele>160.765</ele>
        <time>2022-08-27T08:53:37Z</time>
      </trkpt>
      <trkpt lat="43.517274" lon="-5.580110">
        <ele>160.711</ele>
        <time>2022-08-27T08:53:39Z</time>
      </trkpt>
      <trkpt lat="43.517314" lon="-5.580032">
        <ele>160.709</ele>
        <time>2022-08-27T08:53:41Z</time>
      </trkpt>
      <trkpt lat="43.517349" lon="-5.579952">
        <ele>160.722</ele>
        <time>2022-08-27T08:53:43Z</time>
      </trkpt>
      <trkpt lat="43.517382" lon="-5.579870">
        <ele>160.752</ele>
        <time>2022-08-27T08:53:45Z</time>
      </trkpt>
      <trkpt lat="43.517415" lon="-5.579785">
        <ele>160.673</ele>
        <time>2022-08-27T08:53:47Z</time>
      </trkpt>
      <trkpt lat="43.517450" lon="-5.579702">
        <ele>160.331</ele>
        <time>2022-08-27T08:53:49Z</time>
      </trkpt>
      <trkpt lat="43.517480" lon="-5.579617">
        <ele>160.191</ele>
        <time>2022-08-27T08:53:51Z</time>
      </trkpt>
      <trkpt lat="43.517512" lon="-5.579535">
        <ele>159.987</ele>
        <time>2022-08-27T08:53:53Z</time>
      </trkpt>
      <trkpt lat="43.517545" lon="-5.579452">
        <ele>159.811</ele>
        <time>2022-08-27T08:53:55Z</time>
      </trkpt>
      <trkpt lat="43.517577" lon="-5.579369">
        <ele>159.718</ele>
        <time>2022-08-27T08:53:57Z</time>
      </trkpt>
      <trkpt lat="43.517607" lon="-5.579286">
        <ele>159.665</ele>
        <time>2022-08-27T08:53:59Z</time>
      </trkpt>
      <trkpt lat="43.517645" lon="-5.579204">
        <ele>159.036</ele>
        <time>2022-08-27T08:54:01Z</time>
      </trkpt>
      <trkpt lat="43.517692" lon="-5.579124">
        <ele>158.917</ele>
        <time>2022-08-27T08:54:03Z</time>
      </trkpt>
      <trkpt lat="43.517747" lon="-5.579044">
        <ele>158.918</ele>
        <time>2022-08-27T08:54:05Z</time>
      </trkpt>
      <trkpt lat="43.517792" lon="-5.578976">
        <ele>159.309</ele>
        <time>2022-08-27T08:54:07Z</time>
      </trkpt>
      <trkpt lat="43.517840" lon="-5.578916">
        <ele>159.714</ele>
        <time>2022-08-27T08:54:09Z</time>
      </trkpt>
      <trkpt lat="43.517895" lon="-5.578864">
        <ele>160.594</ele>
        <time>2022-08-27T08:54:11Z</time>
      </trkpt>
      <trkpt lat="43.517937" lon="-5.578819">
        <ele>160.975</ele>
        <time>2022-08-27T08:54:13Z</time>
      </trkpt>
      <trkpt lat="43.517989" lon="-5.578771">
        <ele>161.943</ele>
        <time>2022-08-27T08:54:15Z</time>
      </trkpt>
      <trkpt lat="43.518052" lon="-5.578731">
        <ele>163.783</ele>
        <time>2022-08-27T08:54:17Z</time>
      </trkpt>
      <trkpt lat="43.518114" lon="-5.578696">
        <ele>165.669</ele>
        <time>2022-08-27T08:54:19Z</time>
      </trkpt>
      <trkpt lat="43.518177" lon="-5.578661">
        <ele>167.053</ele>
        <time>2022-08-27T08:54:21Z</time>
      </trkpt>
      <trkpt lat="43.518240" lon="-5.578633">
        <ele>168.090</ele>
        <time>2022-08-27T08:54:23Z</time>
      </trkpt>
      <trkpt lat="43.518307" lon="-5.578605">
        <ele>167.947</ele>
        <time>2022-08-27T08:54:25Z</time>
      </trkpt>
      <trkpt lat="43.518380" lon="-5.578582">
        <ele>167.947</ele>
        <time>2022-08-27T08:54:27Z</time>
      </trkpt>
      <trkpt lat="43.518455" lon="-5.578555">
        <ele>167.229</ele>
        <time>2022-08-27T08:54:29Z</time>
      </trkpt>
      <trkpt lat="43.518527" lon="-5.578538">
        <ele>166.721</ele>
        <time>2022-08-27T08:54:31Z</time>
      </trkpt>
      <trkpt lat="43.518599" lon="-5.578516">
        <ele>166.609</ele>
        <time>2022-08-27T08:54:33Z</time>
      </trkpt>
      <trkpt lat="43.518671" lon="-5.578491">
        <ele>166.665</ele>
        <time>2022-08-27T08:54:35Z</time>
      </trkpt>
      <trkpt lat="43.518746" lon="-5.578463">
        <ele>166.625</ele>
        <time>2022-08-27T08:54:37Z</time>
      </trkpt>
      <trkpt lat="43.518819" lon="-5.578431">
        <ele>166.676</ele>
        <time>2022-08-27T08:54:39Z</time>
      </trkpt>
      <trkpt lat="43.518894" lon="-5.578393">
        <ele>166.664</ele>
        <time>2022-08-27T08:54:41Z</time>
      </trkpt>
      <trkpt lat="43.518969" lon="-5.578345">
        <ele>166.314</ele>
        <time>2022-08-27T08:54:43Z</time>
      </trkpt>
      <trkpt lat="43.519039" lon="-5.578275">
        <ele>166.240</ele>
        <time>2022-08-27T08:54:45Z</time>
      </trkpt>
      <trkpt lat="43.519092" lon="-5.578190">
        <ele>166.274</ele>
        <time>2022-08-27T08:54:47Z</time>
      </trkpt>
      <trkpt lat="43.519132" lon="-5.578088">
        <ele>165.931</ele>
        <time>2022-08-27T08:54:49Z</time>
      </trkpt>
      <trkpt lat="43.519155" lon="-5.577970">
        <ele>165.588</ele>
        <time>2022-08-27T08:54:51Z</time>
      </trkpt>
      <trkpt lat="43.519165" lon="-5.577845">
        <ele>164.974</ele>
        <time>2022-08-27T08:54:53Z</time>
      </trkpt>
      <trkpt lat="43.519165" lon="-5.577708">
        <ele>163.356</ele>
        <time>2022-08-27T08:54:55Z</time>
      </trkpt>
      <trkpt lat="43.519142" lon="-5.577561">
        <ele>162.421</ele>
        <time>2022-08-27T08:54:57Z</time>
      </trkpt>
      <trkpt lat="43.519117" lon="-5.577394">
        <ele>161.709</ele>
        <time>2022-08-27T08:54:59Z</time>
      </trkpt>
      <trkpt lat="43.519085" lon="-5.577216">
        <ele>161.458</ele>
        <time>2022-08-27T08:55:01Z</time>
      </trkpt>
      <trkpt lat="43.519070" lon="-5.577124">
        <ele>161.178</ele>
        <time>2022-08-27T08:55:02Z</time>
      </trkpt>
      <trkpt lat="43.519035" lon="-5.576932">
        <ele>160.529</ele>
        <time>2022-08-27T08:55:04Z</time>
      </trkpt>
      <trkpt lat="43.518992" lon="-5.576734">
        <ele>159.877</ele>
        <time>2022-08-27T08:55:06Z</time>
      </trkpt>
      <trkpt lat="43.518970" lon="-5.576629">
        <ele>159.417</ele>
        <time>2022-08-27T08:55:07Z</time>
      </trkpt>
      <trkpt lat="43.518938" lon="-5.576527">
        <ele>158.883</ele>
        <time>2022-08-27T08:55:08Z</time>
      </trkpt>
      <trkpt lat="43.518841" lon="-5.576340">
        <ele>157.687</ele>
        <time>2022-08-27T08:55:10Z</time>
      </trkpt>
      <trkpt lat="43.518708" lon="-5.576203">
        <ele>156.684</ele>
        <time>2022-08-27T08:55:12Z</time>
      </trkpt>
      <trkpt lat="43.518551" lon="-5.576115">
        <ele>155.581</ele>
        <time>2022-08-27T08:55:14Z</time>
      </trkpt>
      <trkpt lat="43.518408" lon="-5.576007">
        <ele>154.031</ele>
        <time>2022-08-27T08:55:16Z</time>
      </trkpt>
      <trkpt lat="43.518338" lon="-5.575937">
        <ele>153.261</ele>
        <time>2022-08-27T08:55:17Z</time>
      </trkpt>
      <trkpt lat="43.518273" lon="-5.575857">
        <ele>152.507</ele>
        <time>2022-08-27T08:55:18Z</time>
      </trkpt>
      <trkpt lat="43.518151" lon="-5.575674">
        <ele>150.709</ele>
        <time>2022-08-27T08:55:20Z</time>
      </trkpt>
      <trkpt lat="43.518088" lon="-5.575586">
        <ele>149.654</ele>
        <time>2022-08-27T08:55:21Z</time>
      </trkpt>
      <trkpt lat="43.517953" lon="-5.575431">
        <ele>146.824</ele>
        <time>2022-08-27T08:55:23Z</time>
      </trkpt>
      <trkpt lat="43.517798" lon="-5.575334">
        <ele>144.175</ele>
        <time>2022-08-27T08:55:25Z</time>
      </trkpt>
      <trkpt lat="43.517731" lon="-5.575287">
        <ele>142.973</ele>
        <time>2022-08-27T08:55:26Z</time>
      </trkpt>
      <trkpt lat="43.517676" lon="-5.575235">
        <ele>141.743</ele>
        <time>2022-08-27T08:55:27Z</time>
      </trkpt>
      <trkpt lat="43.517629" lon="-5.575172">
        <ele>140.679</ele>
        <time>2022-08-27T08:55:28Z</time>
      </trkpt>
      <trkpt lat="43.517579" lon="-5.574990">
        <ele>138.783</ele>
        <time>2022-08-27T08:55:30Z</time>
      </trkpt>
      <trkpt lat="43.517596" lon="-5.574813">
        <ele>137.350</ele>
        <time>2022-08-27T08:55:32Z</time>
      </trkpt>
      <trkpt lat="43.517708" lon="-5.574698">
        <ele>136.357</ele>
        <time>2022-08-27T08:55:34Z</time>
      </trkpt>
      <trkpt lat="43.517795" lon="-5.574681">
        <ele>135.935</ele>
        <time>2022-08-27T08:55:35Z</time>
      </trkpt>
      <trkpt lat="43.517975" lon="-5.574653">
        <ele>135.186</ele>
        <time>2022-08-27T08:55:37Z</time>
      </trkpt>
      <trkpt lat="43.518053" lon="-5.574635">
        <ele>134.714</ele>
        <time>2022-08-27T08:55:38Z</time>
      </trkpt>
      <trkpt lat="43.518135" lon="-5.574612">
        <ele>134.409</ele>
        <time>2022-08-27T08:55:39Z</time>
      </trkpt>
      <trkpt lat="43.518278" lon="-5.574525">
        <ele>134.464</ele>
        <time>2022-08-27T08:55:41Z</time>
      </trkpt>
      <trkpt lat="43.518348" lon="-5.574460">
        <ele>134.774</ele>
        <time>2022-08-27T08:55:42Z</time>
      </trkpt>
      <trkpt lat="43.518480" lon="-5.574292">
        <ele>135.475</ele>
        <time>2022-08-27T08:55:44Z</time>
      </trkpt>
      <trkpt lat="43.518613" lon="-5.574119">
        <ele>136.493</ele>
        <time>2022-08-27T08:55:46Z</time>
      </trkpt>
      <trkpt lat="43.518668" lon="-5.574031">
        <ele>136.983</ele>
        <time>2022-08-27T08:55:47Z</time>
      </trkpt>
      <trkpt lat="43.518718" lon="-5.573944">
        <ele>137.389</ele>
        <time>2022-08-27T08:55:48Z</time>
      </trkpt>
      <trkpt lat="43.518825" lon="-5.573779">
        <ele>138.473</ele>
        <time>2022-08-27T08:55:50Z</time>
      </trkpt>
      <trkpt lat="43.518875" lon="-5.573702">
        <ele>138.890</ele>
        <time>2022-08-27T08:55:51Z</time>
      </trkpt>
      <trkpt lat="43.518982" lon="-5.573569">
        <ele>139.387</ele>
        <time>2022-08-27T08:55:53Z</time>
      </trkpt>
      <trkpt lat="43.519060" lon="-5.573489">
        <ele>139.618</ele>
        <time>2022-08-27T08:55:55Z</time>
      </trkpt>
      <trkpt lat="43.519105" lon="-5.573487">
        <ele>139.798</ele>
        <time>2022-08-27T08:55:56Z</time>
      </trkpt>
      <trkpt lat="43.519167" lon="-5.573499">
        <ele>139.817</ele>
        <time>2022-08-27T08:55:57Z</time>
      </trkpt>
      <trkpt lat="43.519232" lon="-5.573521">
        <ele>140.009</ele>
        <time>2022-08-27T08:55:58Z</time>
      </trkpt>
      <trkpt lat="43.519337" lon="-5.573606">
        <ele>141.452</ele>
        <time>2022-08-27T08:56:00Z</time>
      </trkpt>
      <trkpt lat="43.519365" lon="-5.573673">
        <ele>142.492</ele>
        <time>2022-08-27T08:56:01Z</time>
      </trkpt>
      <trkpt lat="43.519372" lon="-5.573800">
        <ele>143.873</ele>
        <time>2022-08-27T08:56:03Z</time>
      </trkpt>
      <trkpt lat="43.519354" lon="-5.573898">
        <ele>144.681</ele>
        <time>2022-08-27T08:56:05Z</time>
      </trkpt>
      <trkpt lat="43.519337" lon="-5.573990">
        <ele>145.341</ele>
        <time>2022-08-27T08:56:07Z</time>
      </trkpt>
      <trkpt lat="43.519329" lon="-5.574078">
        <ele>145.927</ele>
        <time>2022-08-27T08:56:09Z</time>
      </trkpt>
      <trkpt lat="43.519326" lon="-5.574158">
        <ele>146.511</ele>
        <time>2022-08-27T08:56:11Z</time>
      </trkpt>
      <trkpt lat="43.519336" lon="-5.574246">
        <ele>147.378</ele>
        <time>2022-08-27T08:56:13Z</time>
      </trkpt>
      <trkpt lat="43.519344" lon="-5.574318">
        <ele>148.115</ele>
        <time>2022-08-27T08:56:15Z</time>
      </trkpt>
      <trkpt lat="43.519357" lon="-5.574403">
        <ele>149.124</ele>
        <time>2022-08-27T08:56:17Z</time>
      </trkpt>
      <trkpt lat="43.519394" lon="-5.574476">
        <ele>149.704</ele>
        <time>2022-08-27T08:56:18Z</time>
      </trkpt>
      <trkpt lat="43.519442" lon="-5.574539">
        <ele>150.714</ele>
        <time>2022-08-27T08:56:21Z</time>
      </trkpt>
      <trkpt lat="43.519490" lon="-5.574587">
        <ele>151.109</ele>
        <time>2022-08-27T08:56:23Z</time>
      </trkpt>
      <trkpt lat="43.519540" lon="-5.574622">
        <ele>152.273</ele>
        <time>2022-08-27T08:56:25Z</time>
      </trkpt>
      <trkpt lat="43.519587" lon="-5.574645">
        <ele>153.053</ele>
        <time>2022-08-27T08:56:27Z</time>
      </trkpt>
      <trkpt lat="43.519642" lon="-5.574648">
        <ele>153.694</ele>
        <time>2022-08-27T08:56:29Z</time>
      </trkpt>
      <trkpt lat="43.519700" lon="-5.574646">
        <ele>154.642</ele>
        <time>2022-08-27T08:56:31Z</time>
      </trkpt>
      <trkpt lat="43.519758" lon="-5.574653">
        <ele>155.812</ele>
        <time>2022-08-27T08:56:33Z</time>
      </trkpt>
      <trkpt lat="43.519818" lon="-5.574656">
        <ele>157.068</ele>
        <time>2022-08-27T08:56:35Z</time>
      </trkpt>
      <trkpt lat="43.519886" lon="-5.574659">
        <ele>157.962</ele>
        <time>2022-08-27T08:56:37Z</time>
      </trkpt>
      <trkpt lat="43.519951" lon="-5.574662">
        <ele>158.049</ele>
        <time>2022-08-27T08:56:39Z</time>
      </trkpt>
      <trkpt lat="43.520018" lon="-5.574669">
        <ele>158.046</ele>
        <time>2022-08-27T08:56:41Z</time>
      </trkpt>
      <trkpt lat="43.520081" lon="-5.574681">
        <ele>157.745</ele>
        <time>2022-08-27T08:56:43Z</time>
      </trkpt>
      <trkpt lat="43.520148" lon="-5.574693">
        <ele>157.747</ele>
        <time>2022-08-27T08:56:45Z</time>
      </trkpt>
      <trkpt lat="43.520211" lon="-5.574701">
        <ele>157.711</ele>
        <time>2022-08-27T08:56:47Z</time>
      </trkpt>
      <trkpt lat="43.520279" lon="-5.574704">
        <ele>157.909</ele>
        <time>2022-08-27T08:56:49Z</time>
      </trkpt>
      <trkpt lat="43.520341" lon="-5.574701">
        <ele>158.385</ele>
        <time>2022-08-27T08:56:51Z</time>
      </trkpt>
      <trkpt lat="43.520398" lon="-5.574691">
        <ele>158.845</ele>
        <time>2022-08-27T08:56:53Z</time>
      </trkpt>
      <trkpt lat="43.520458" lon="-5.574678">
        <ele>159.436</ele>
        <time>2022-08-27T08:56:55Z</time>
      </trkpt>
      <trkpt lat="43.520523" lon="-5.574660">
        <ele>159.924</ele>
        <time>2022-08-27T08:56:57Z</time>
      </trkpt>
      <trkpt lat="43.520581" lon="-5.574635">
        <ele>161.054</ele>
        <time>2022-08-27T08:56:59Z</time>
      </trkpt>
      <trkpt lat="43.520636" lon="-5.574600">
        <ele>162.070</ele>
        <time>2022-08-27T08:57:01Z</time>
      </trkpt>
      <trkpt lat="43.520689" lon="-5.574557">
        <ele>164.184</ele>
        <time>2022-08-27T08:57:03Z</time>
      </trkpt>
      <trkpt lat="43.520744" lon="-5.574504">
        <ele>165.621</ele>
        <time>2022-08-27T08:57:05Z</time>
      </trkpt>
      <trkpt lat="43.520789" lon="-5.574437">
        <ele>165.938</ele>
        <time>2022-08-27T08:57:07Z</time>
      </trkpt>
      <trkpt lat="43.520832" lon="-5.574372">
        <ele>165.991</ele>
        <time>2022-08-27T08:57:09Z</time>
      </trkpt>
      <trkpt lat="43.520867" lon="-5.574295">
        <ele>165.881</ele>
        <time>2022-08-27T08:57:11Z</time>
      </trkpt>
      <trkpt lat="43.520897" lon="-5.574213">
        <ele>165.119</ele>
        <time>2022-08-27T08:57:13Z</time>
      </trkpt>
      <trkpt lat="43.520912" lon="-5.574128">
        <ele>164.209</ele>
        <time>2022-08-27T08:57:15Z</time>
      </trkpt>
      <trkpt lat="43.520934" lon="-5.574051">
        <ele>163.740</ele>
        <time>2022-08-27T08:57:17Z</time>
      </trkpt>
      <trkpt lat="43.520951" lon="-5.573973">
        <ele>162.710</ele>
        <time>2022-08-27T08:57:19Z</time>
      </trkpt>
      <trkpt lat="43.520976" lon="-5.573890">
        <ele>162.511</ele>
        <time>2022-08-27T08:57:21Z</time>
      </trkpt>
      <trkpt lat="43.521003" lon="-5.573813">
        <ele>162.419</ele>
        <time>2022-08-27T08:57:23Z</time>
      </trkpt>
      <trkpt lat="43.521040" lon="-5.573740">
        <ele>162.339</ele>
        <time>2022-08-27T08:57:25Z</time>
      </trkpt>
      <trkpt lat="43.521092" lon="-5.573673">
        <ele>162.315</ele>
        <time>2022-08-27T08:57:27Z</time>
      </trkpt>
      <trkpt lat="43.521145" lon="-5.573621">
        <ele>162.429</ele>
        <time>2022-08-27T08:57:29Z</time>
      </trkpt>
      <trkpt lat="43.521197" lon="-5.573569">
        <ele>162.536</ele>
        <time>2022-08-27T08:57:31Z</time>
      </trkpt>
      <trkpt lat="43.521252" lon="-5.573527">
        <ele>162.733</ele>
        <time>2022-08-27T08:57:33Z</time>
      </trkpt>
      <trkpt lat="43.521315" lon="-5.573495">
        <ele>162.976</ele>
        <time>2022-08-27T08:57:35Z</time>
      </trkpt>
      <trkpt lat="43.521382" lon="-5.573463">
        <ele>163.090</ele>
        <time>2022-08-27T08:57:37Z</time>
      </trkpt>
      <trkpt lat="43.521447" lon="-5.573433">
        <ele>163.219</ele>
        <time>2022-08-27T08:57:39Z</time>
      </trkpt>
      <trkpt lat="43.521510" lon="-5.573405">
        <ele>163.609</ele>
        <time>2022-08-27T08:57:41Z</time>
      </trkpt>
      <trkpt lat="43.521577" lon="-5.573375">
        <ele>163.998</ele>
        <time>2022-08-27T08:57:43Z</time>
      </trkpt>
      <trkpt lat="43.521639" lon="-5.573347">
        <ele>164.258</ele>
        <time>2022-08-27T08:57:45Z</time>
      </trkpt>
      <trkpt lat="43.521699" lon="-5.573315">
        <ele>164.799</ele>
        <time>2022-08-27T08:57:47Z</time>
      </trkpt>
      <trkpt lat="43.521754" lon="-5.573273">
        <ele>165.647</ele>
        <time>2022-08-27T08:57:49Z</time>
      </trkpt>
      <trkpt lat="43.521807" lon="-5.573220">
        <ele>165.917</ele>
        <time>2022-08-27T08:57:51Z</time>
      </trkpt>
      <trkpt lat="43.521855" lon="-5.573160">
        <ele>166.253</ele>
        <time>2022-08-27T08:57:53Z</time>
      </trkpt>
      <trkpt lat="43.521892" lon="-5.573090">
        <ele>166.227</ele>
        <time>2022-08-27T08:57:55Z</time>
      </trkpt>
      <trkpt lat="43.521919" lon="-5.573017">
        <ele>166.214</ele>
        <time>2022-08-27T08:57:57Z</time>
      </trkpt>
      <trkpt lat="43.521932" lon="-5.572935">
        <ele>166.291</ele>
        <time>2022-08-27T08:57:59Z</time>
      </trkpt>
      <trkpt lat="43.521930" lon="-5.572842">
        <ele>166.136</ele>
        <time>2022-08-27T08:58:01Z</time>
      </trkpt>
      <trkpt lat="43.521922" lon="-5.572747">
        <ele>166.017</ele>
        <time>2022-08-27T08:58:03Z</time>
      </trkpt>
      <trkpt lat="43.521910" lon="-5.572650">
        <ele>166.018</ele>
        <time>2022-08-27T08:58:05Z</time>
      </trkpt>
      <trkpt lat="43.521900" lon="-5.572552">
        <ele>166.009</ele>
        <time>2022-08-27T08:58:07Z</time>
      </trkpt>
      <trkpt lat="43.521892" lon="-5.572450">
        <ele>165.524</ele>
        <time>2022-08-27T08:58:09Z</time>
      </trkpt>
      <trkpt lat="43.521880" lon="-5.572345">
        <ele>165.284</ele>
        <time>2022-08-27T08:58:11Z</time>
      </trkpt>
      <trkpt lat="43.521867" lon="-5.572235">
        <ele>165.165</ele>
        <time>2022-08-27T08:58:13Z</time>
      </trkpt>
      <trkpt lat="43.521852" lon="-5.572125">
        <ele>165.133</ele>
        <time>2022-08-27T08:58:15Z</time>
      </trkpt>
      <trkpt lat="43.521842" lon="-5.572008">
        <ele>165.043</ele>
        <time>2022-08-27T08:58:17Z</time>
      </trkpt>
      <trkpt lat="43.521830" lon="-5.571891">
        <ele>164.939</ele>
        <time>2022-08-27T08:58:19Z</time>
      </trkpt>
      <trkpt lat="43.521817" lon="-5.571774">
        <ele>164.823</ele>
        <time>2022-08-27T08:58:21Z</time>
      </trkpt>
      <trkpt lat="43.521800" lon="-5.571652">
        <ele>164.880</ele>
        <time>2022-08-27T08:58:23Z</time>
      </trkpt>
      <trkpt lat="43.521793" lon="-5.571589">
        <ele>164.887</ele>
        <time>2022-08-27T08:58:24Z</time>
      </trkpt>
      <trkpt lat="43.521785" lon="-5.571527">
        <ele>164.829</ele>
        <time>2022-08-27T08:58:25Z</time>
      </trkpt>
      <trkpt lat="43.521778" lon="-5.571400">
        <ele>164.900</ele>
        <time>2022-08-27T08:58:27Z</time>
      </trkpt>
      <trkpt lat="43.521771" lon="-5.571338">
        <ele>164.920</ele>
        <time>2022-08-27T08:58:28Z</time>
      </trkpt>
      <trkpt lat="43.521753" lon="-5.571213">
        <ele>164.909</ele>
        <time>2022-08-27T08:58:30Z</time>
      </trkpt>
      <trkpt lat="43.521741" lon="-5.571150">
        <ele>164.933</ele>
        <time>2022-08-27T08:58:31Z</time>
      </trkpt>
      <trkpt lat="43.521726" lon="-5.571087">
        <ele>164.933</ele>
        <time>2022-08-27T08:58:32Z</time>
      </trkpt>
      <trkpt lat="43.521688" lon="-5.570954">
        <ele>164.994</ele>
        <time>2022-08-27T08:58:34Z</time>
      </trkpt>
      <trkpt lat="43.521626" lon="-5.570816">
        <ele>164.532</ele>
        <time>2022-08-27T08:58:36Z</time>
      </trkpt>
      <trkpt lat="43.521588" lon="-5.570748">
        <ele>164.372</ele>
        <time>2022-08-27T08:58:37Z</time>
      </trkpt>
      <trkpt lat="43.521545" lon="-5.570683">
        <ele>164.318</ele>
        <time>2022-08-27T08:58:38Z</time>
      </trkpt>
      <trkpt lat="43.521497" lon="-5.570616">
        <ele>164.342</ele>
        <time>2022-08-27T08:58:39Z</time>
      </trkpt>
      <trkpt lat="43.521445" lon="-5.570551">
        <ele>164.329</ele>
        <time>2022-08-27T08:58:40Z</time>
      </trkpt>
      <trkpt lat="43.521340" lon="-5.570414">
        <ele>164.076</ele>
        <time>2022-08-27T08:58:42Z</time>
      </trkpt>
      <trkpt lat="43.521290" lon="-5.570341">
        <ele>163.948</ele>
        <time>2022-08-27T08:58:43Z</time>
      </trkpt>
      <trkpt lat="43.521242" lon="-5.570266">
        <ele>163.761</ele>
        <time>2022-08-27T08:58:44Z</time>
      </trkpt>
      <trkpt lat="43.521152" lon="-5.570098">
        <ele>163.117</ele>
        <time>2022-08-27T08:58:46Z</time>
      </trkpt>
      <trkpt lat="43.521085" lon="-5.569903">
        <ele>162.709</ele>
        <time>2022-08-27T08:58:48Z</time>
      </trkpt>
      <trkpt lat="43.521060" lon="-5.569798">
        <ele>162.595</ele>
        <time>2022-08-27T08:58:49Z</time>
      </trkpt>
      <trkpt lat="43.521020" lon="-5.569578">
        <ele>162.145</ele>
        <time>2022-08-27T08:58:51Z</time>
      </trkpt>
      <trkpt lat="43.520983" lon="-5.569350">
        <ele>161.296</ele>
        <time>2022-08-27T08:58:53Z</time>
      </trkpt>
      <trkpt lat="43.520965" lon="-5.569235">
        <ele>160.784</ele>
        <time>2022-08-27T08:58:54Z</time>
      </trkpt>
      <trkpt lat="43.520947" lon="-5.569120">
        <ele>160.274</ele>
        <time>2022-08-27T08:58:55Z</time>
      </trkpt>
      <trkpt lat="43.520915" lon="-5.568888">
        <ele>158.810</ele>
        <time>2022-08-27T08:58:57Z</time>
      </trkpt>
      <trkpt lat="43.520898" lon="-5.568773">
        <ele>158.284</ele>
        <time>2022-08-27T08:58:58Z</time>
      </trkpt>
      <trkpt lat="43.520880" lon="-5.568655">
        <ele>157.561</ele>
        <time>2022-08-27T08:58:59Z</time>
      </trkpt>
      <trkpt lat="43.520842" lon="-5.568427">
        <ele>156.448</ele>
        <time>2022-08-27T08:59:01Z</time>
      </trkpt>
      <trkpt lat="43.520837" lon="-5.568199">
        <ele>155.434</ele>
        <time>2022-08-27T08:59:03Z</time>
      </trkpt>
      <trkpt lat="43.520884" lon="-5.567992">
        <ele>155.055</ele>
        <time>2022-08-27T08:59:05Z</time>
      </trkpt>
      <trkpt lat="43.520934" lon="-5.567917">
        <ele>155.010</ele>
        <time>2022-08-27T08:59:06Z</time>
      </trkpt>
      <trkpt lat="43.521071" lon="-5.567854">
        <ele>155.009</ele>
        <time>2022-08-27T08:59:08Z</time>
      </trkpt>
      <trkpt lat="43.521141" lon="-5.567877">
        <ele>155.014</ele>
        <time>2022-08-27T08:59:09Z</time>
      </trkpt>
      <trkpt lat="43.521254" lon="-5.567985">
        <ele>155.094</ele>
        <time>2022-08-27T08:59:11Z</time>
      </trkpt>
      <trkpt lat="43.521356" lon="-5.568073">
        <ele>155.445</ele>
        <time>2022-08-27T08:59:13Z</time>
      </trkpt>
      <trkpt lat="43.521441" lon="-5.568153">
        <ele>155.773</ele>
        <time>2022-08-27T08:59:15Z</time>
      </trkpt>
      <trkpt lat="43.521511" lon="-5.568230">
        <ele>156.263</ele>
        <time>2022-08-27T08:59:17Z</time>
      </trkpt>
      <trkpt lat="43.521569" lon="-5.568292">
        <ele>156.589</ele>
        <time>2022-08-27T08:59:19Z</time>
      </trkpt>
      <trkpt lat="43.521622" lon="-5.568334">
        <ele>157.023</ele>
        <time>2022-08-27T08:59:21Z</time>
      </trkpt>
      <trkpt lat="43.521679" lon="-5.568372">
        <ele>157.320</ele>
        <time>2022-08-27T08:59:23Z</time>
      </trkpt>
      <trkpt lat="43.521737" lon="-5.568407">
        <ele>157.677</ele>
        <time>2022-08-27T08:59:25Z</time>
      </trkpt>
      <trkpt lat="43.521799" lon="-5.568430">
        <ele>158.182</ele>
        <time>2022-08-27T08:59:27Z</time>
      </trkpt>
      <trkpt lat="43.521864" lon="-5.568448">
        <ele>158.643</ele>
        <time>2022-08-27T08:59:29Z</time>
      </trkpt>
      <trkpt lat="43.521934" lon="-5.568461">
        <ele>159.517</ele>
        <time>2022-08-27T08:59:31Z</time>
      </trkpt>
      <trkpt lat="43.522002" lon="-5.568476">
        <ele>159.909</ele>
        <time>2022-08-27T08:59:33Z</time>
      </trkpt>
      <trkpt lat="43.522074" lon="-5.568489">
        <ele>160.969</ele>
        <time>2022-08-27T08:59:35Z</time>
      </trkpt>
      <trkpt lat="43.522154" lon="-5.568502">
        <ele>161.639</ele>
        <time>2022-08-27T08:59:37Z</time>
      </trkpt>
      <trkpt lat="43.522232" lon="-5.568515">
        <ele>162.550</ele>
        <time>2022-08-27T08:59:39Z</time>
      </trkpt>
      <trkpt lat="43.522310" lon="-5.568530">
        <ele>163.338</ele>
        <time>2022-08-27T08:59:41Z</time>
      </trkpt>
      <trkpt lat="43.522390" lon="-5.568547">
        <ele>164.038</ele>
        <time>2022-08-27T08:59:43Z</time>
      </trkpt>
      <trkpt lat="43.522470" lon="-5.568555">
        <ele>164.334</ele>
        <time>2022-08-27T08:59:45Z</time>
      </trkpt>
      <trkpt lat="43.522543" lon="-5.568543">
        <ele>165.038</ele>
        <time>2022-08-27T08:59:47Z</time>
      </trkpt>
      <trkpt lat="43.522615" lon="-5.568513">
        <ele>165.325</ele>
        <time>2022-08-27T08:59:49Z</time>
      </trkpt>
      <trkpt lat="43.522678" lon="-5.568466">
        <ele>165.632</ele>
        <time>2022-08-27T08:59:51Z</time>
      </trkpt>
      <trkpt lat="43.522735" lon="-5.568406">
        <ele>166.361</ele>
        <time>2022-08-27T08:59:53Z</time>
      </trkpt>
      <trkpt lat="43.522782" lon="-5.568331">
        <ele>166.721</ele>
        <time>2022-08-27T08:59:55Z</time>
      </trkpt>
      <trkpt lat="43.522807" lon="-5.568243">
        <ele>167.013</ele>
        <time>2022-08-27T08:59:57Z</time>
      </trkpt>
      <trkpt lat="43.522827" lon="-5.568146">
        <ele>167.209</ele>
        <time>2022-08-27T08:59:59Z</time>
      </trkpt>
      <trkpt lat="43.522839" lon="-5.568048">
        <ele>167.437</ele>
        <time>2022-08-27T09:00:01Z</time>
      </trkpt>
      <trkpt lat="43.522842" lon="-5.567953">
        <ele>167.617</ele>
        <time>2022-08-27T09:00:03Z</time>
      </trkpt>
      <trkpt lat="43.522840" lon="-5.567861">
        <ele>167.948</ele>
        <time>2022-08-27T09:00:05Z</time>
      </trkpt>
      <trkpt lat="43.522838" lon="-5.567766">
        <ele>168.216</ele>
        <time>2022-08-27T09:00:07Z</time>
      </trkpt>
      <trkpt lat="43.522823" lon="-5.567676">
        <ele>168.486</ele>
        <time>2022-08-27T09:00:09Z</time>
      </trkpt>
      <trkpt lat="43.522808" lon="-5.567583">
        <ele>168.532</ele>
        <time>2022-08-27T09:00:11Z</time>
      </trkpt>
      <trkpt lat="43.522785" lon="-5.567490">
        <ele>168.736</ele>
        <time>2022-08-27T09:00:13Z</time>
      </trkpt>
      <trkpt lat="43.522760" lon="-5.567398">
        <ele>169.063</ele>
        <time>2022-08-27T09:00:15Z</time>
      </trkpt>
      <trkpt lat="43.522735" lon="-5.567310">
        <ele>169.130</ele>
        <time>2022-08-27T09:00:17Z</time>
      </trkpt>
      <trkpt lat="43.522708" lon="-5.567220">
        <ele>169.518</ele>
        <time>2022-08-27T09:00:19Z</time>
      </trkpt>
      <trkpt lat="43.522678" lon="-5.567130">
        <ele>169.898</ele>
        <time>2022-08-27T09:00:21Z</time>
      </trkpt>
      <trkpt lat="43.522645" lon="-5.567042">
        <ele>170.017</ele>
        <time>2022-08-27T09:00:23Z</time>
      </trkpt>
      <trkpt lat="43.522608" lon="-5.566957">
        <ele>170.009</ele>
        <time>2022-08-27T09:00:25Z</time>
      </trkpt>
      <trkpt lat="43.522580" lon="-5.566867">
        <ele>170.182</ele>
        <time>2022-08-27T09:00:27Z</time>
      </trkpt>
      <trkpt lat="43.522548" lon="-5.566782">
        <ele>170.232</ele>
        <time>2022-08-27T09:00:29Z</time>
      </trkpt>
      <trkpt lat="43.522521" lon="-5.566690">
        <ele>170.543</ele>
        <time>2022-08-27T09:00:31Z</time>
      </trkpt>
      <trkpt lat="43.522498" lon="-5.566598">
        <ele>170.761</ele>
        <time>2022-08-27T09:00:33Z</time>
      </trkpt>
      <trkpt lat="43.522466" lon="-5.566513">
        <ele>170.741</ele>
        <time>2022-08-27T09:00:35Z</time>
      </trkpt>
      <trkpt lat="43.522439" lon="-5.566431">
        <ele>170.977</ele>
        <time>2022-08-27T09:00:37Z</time>
      </trkpt>
      <trkpt lat="43.522412" lon="-5.566346">
        <ele>171.011</ele>
        <time>2022-08-27T09:00:39Z</time>
      </trkpt>
      <trkpt lat="43.522382" lon="-5.566258">
        <ele>171.218</ele>
        <time>2022-08-27T09:00:41Z</time>
      </trkpt>
      <trkpt lat="43.522352" lon="-5.566165">
        <ele>171.225</ele>
        <time>2022-08-27T09:00:43Z</time>
      </trkpt>
      <trkpt lat="43.522330" lon="-5.566075">
        <ele>171.955</ele>
        <time>2022-08-27T09:00:45Z</time>
      </trkpt>
      <trkpt lat="43.522300" lon="-5.565982">
        <ele>172.307</ele>
        <time>2022-08-27T09:00:47Z</time>
      </trkpt>
      <trkpt lat="43.522277" lon="-5.565890">
        <ele>172.517</ele>
        <time>2022-08-27T09:00:49Z</time>
      </trkpt>
      <trkpt lat="43.522247" lon="-5.565798">
        <ele>172.909</ele>
        <time>2022-08-27T09:00:51Z</time>
      </trkpt>
      <trkpt lat="43.522215" lon="-5.565705">
        <ele>173.436</ele>
        <time>2022-08-27T09:00:53Z</time>
      </trkpt>
      <trkpt lat="43.522173" lon="-5.565622">
        <ele>173.496</ele>
        <time>2022-08-27T09:00:55Z</time>
      </trkpt>
      <trkpt lat="43.522151" lon="-5.565522">
        <ele>173.437</ele>
        <time>2022-08-27T09:00:57Z</time>
      </trkpt>
      <trkpt lat="43.522131" lon="-5.565425">
        <ele>173.435</ele>
        <time>2022-08-27T09:00:59Z</time>
      </trkpt>
      <trkpt lat="43.522114" lon="-5.565333">
        <ele>173.445</ele>
        <time>2022-08-27T09:01:01Z</time>
      </trkpt>
      <trkpt lat="43.522086" lon="-5.565248">
        <ele>174.081</ele>
        <time>2022-08-27T09:01:03Z</time>
      </trkpt>
      <trkpt lat="43.522053" lon="-5.565161">
        <ele>174.445</ele>
        <time>2022-08-27T09:01:05Z</time>
      </trkpt>
      <trkpt lat="43.522025" lon="-5.565069">
        <ele>174.492</ele>
        <time>2022-08-27T09:01:07Z</time>
      </trkpt>
      <trkpt lat="43.522007" lon="-5.564989">
        <ele>174.679</ele>
        <time>2022-08-27T09:01:09Z</time>
      </trkpt>
      <trkpt lat="43.521982" lon="-5.564919">
        <ele>174.668</ele>
        <time>2022-08-27T09:01:11Z</time>
      </trkpt>
      <trkpt lat="43.521954" lon="-5.564844">
        <ele>174.642</ele>
        <time>2022-08-27T09:01:13Z</time>
      </trkpt>
      <trkpt lat="43.521929" lon="-5.564771">
        <ele>174.826</ele>
        <time>2022-08-27T09:01:15Z</time>
      </trkpt>
      <trkpt lat="43.521901" lon="-5.564699">
        <ele>174.909</ele>
        <time>2022-08-27T09:01:17Z</time>
      </trkpt>
      <trkpt lat="43.521874" lon="-5.564632">
        <ele>175.357</ele>
        <time>2022-08-27T09:01:19Z</time>
      </trkpt>
      <trkpt lat="43.521851" lon="-5.564559">
        <ele>175.767</ele>
        <time>2022-08-27T09:01:21Z</time>
      </trkpt>
      <trkpt lat="43.521829" lon="-5.564484">
        <ele>176.018</ele>
        <time>2022-08-27T09:01:23Z</time>
      </trkpt>
      <trkpt lat="43.521811" lon="-5.564409">
        <ele>176.276</ele>
        <time>2022-08-27T09:01:25Z</time>
      </trkpt>
      <trkpt lat="43.521794" lon="-5.564334">
        <ele>176.366</ele>
        <time>2022-08-27T09:01:27Z</time>
      </trkpt>
      <trkpt lat="43.521767" lon="-5.564261">
        <ele>176.532</ele>
        <time>2022-08-27T09:01:29Z</time>
      </trkpt>
      <trkpt lat="43.521742" lon="-5.564191">
        <ele>176.696</ele>
        <time>2022-08-27T09:01:31Z</time>
      </trkpt>
      <trkpt lat="43.521717" lon="-5.564121">
        <ele>176.843</ele>
        <time>2022-08-27T09:01:33Z</time>
      </trkpt>
      <trkpt lat="43.521694" lon="-5.564054">
        <ele>177.220</ele>
        <time>2022-08-27T09:01:35Z</time>
      </trkpt>
      <trkpt lat="43.521681" lon="-5.563986">
        <ele>177.836</ele>
        <time>2022-08-27T09:01:37Z</time>
      </trkpt>
      <trkpt lat="43.521658" lon="-5.563919">
        <ele>178.817</ele>
        <time>2022-08-27T09:01:39Z</time>
      </trkpt>
      <trkpt lat="43.521636" lon="-5.563851">
        <ele>179.318</ele>
        <time>2022-08-27T09:01:41Z</time>
      </trkpt>
      <trkpt lat="43.521614" lon="-5.563781">
        <ele>179.309</ele>
        <time>2022-08-27T09:01:43Z</time>
      </trkpt>
      <trkpt lat="43.521589" lon="-5.563709">
        <ele>179.364</ele>
        <time>2022-08-27T09:01:45Z</time>
      </trkpt>
      <trkpt lat="43.521567" lon="-5.563636">
        <ele>179.344</ele>
        <time>2022-08-27T09:01:47Z</time>
      </trkpt>
      <trkpt lat="43.521544" lon="-5.563566">
        <ele>179.315</ele>
        <time>2022-08-27T09:01:49Z</time>
      </trkpt>
      <trkpt lat="43.521519" lon="-5.563493">
        <ele>179.423</ele>
        <time>2022-08-27T09:01:50Z</time>
      </trkpt>
      <trkpt lat="43.521492" lon="-5.563426">
        <ele>179.933</ele>
        <time>2022-08-27T09:01:53Z</time>
      </trkpt>
      <trkpt lat="43.521467" lon="-5.563354">
        <ele>180.579</ele>
        <time>2022-08-27T09:01:55Z</time>
      </trkpt>
      <trkpt lat="43.521442" lon="-5.563277">
        <ele>180.733</ele>
        <time>2022-08-27T09:01:57Z</time>
      </trkpt>
      <trkpt lat="43.521417" lon="-5.563204">
        <ele>181.090</ele>
        <time>2022-08-27T09:01:59Z</time>
      </trkpt>
      <trkpt lat="43.521397" lon="-5.563132">
        <ele>181.267</ele>
        <time>2022-08-27T09:02:01Z</time>
      </trkpt>
      <trkpt lat="43.521372" lon="-5.563062">
        <ele>181.565</ele>
        <time>2022-08-27T09:02:03Z</time>
      </trkpt>
      <trkpt lat="43.521352" lon="-5.562990">
        <ele>181.568</ele>
        <time>2022-08-27T09:02:05Z</time>
      </trkpt>
      <trkpt lat="43.521330" lon="-5.562913">
        <ele>181.814</ele>
        <time>2022-08-27T09:02:07Z</time>
      </trkpt>
      <trkpt lat="43.521308" lon="-5.562841">
        <ele>182.409</ele>
        <time>2022-08-27T09:02:09Z</time>
      </trkpt>
      <trkpt lat="43.521290" lon="-5.562766">
        <ele>183.287</ele>
        <time>2022-08-27T09:02:11Z</time>
      </trkpt>
      <trkpt lat="43.521267" lon="-5.562689">
        <ele>183.557</ele>
        <time>2022-08-27T09:02:13Z</time>
      </trkpt>
      <trkpt lat="43.521247" lon="-5.562616">
        <ele>184.318</ele>
        <time>2022-08-27T09:02:15Z</time>
      </trkpt>
      <trkpt lat="43.521222" lon="-5.562546">
        <ele>185.196</ele>
        <time>2022-08-27T09:02:17Z</time>
      </trkpt>
      <trkpt lat="43.521197" lon="-5.562481">
        <ele>186.156</ele>
        <time>2022-08-27T09:02:19Z</time>
      </trkpt>
      <trkpt lat="43.521184" lon="-5.562419">
        <ele>186.362</ele>
        <time>2022-08-27T09:02:21Z</time>
      </trkpt>
      <trkpt lat="43.521161" lon="-5.562366">
        <ele>186.356</ele>
        <time>2022-08-27T09:02:23Z</time>
      </trkpt>
      <trkpt lat="43.521128" lon="-5.562298">
        <ele>186.493</ele>
        <time>2022-08-27T09:02:26Z</time>
      </trkpt>
      <trkpt lat="43.521108" lon="-5.562240">
        <ele>186.610</ele>
        <time>2022-08-27T09:02:29Z</time>
      </trkpt>
      <trkpt lat="43.521093" lon="-5.562180">
        <ele>186.981</ele>
        <time>2022-08-27T09:02:32Z</time>
      </trkpt>
      <trkpt lat="43.521070" lon="-5.562110">
        <ele>187.261</ele>
        <time>2022-08-27T09:02:35Z</time>
      </trkpt>
      <trkpt lat="43.521047" lon="-5.562030">
        <ele>187.617</ele>
        <time>2022-08-27T09:02:39Z</time>
      </trkpt>
      <trkpt lat="43.521027" lon="-5.561967">
        <ele>188.209</ele>
        <time>2022-08-27T09:02:42Z</time>
      </trkpt>
      <trkpt lat="43.521007" lon="-5.561910">
        <ele>188.759</ele>
        <time>2022-08-27T09:02:45Z</time>
      </trkpt>
      <trkpt lat="43.520985" lon="-5.561840">
        <ele>189.719</ele>
        <time>2022-08-27T09:02:49Z</time>
      </trkpt>
      <trkpt lat="43.520967" lon="-5.561777">
        <ele>190.240</ele>
        <time>2022-08-27T09:02:53Z</time>
      </trkpt>
      <trkpt lat="43.520950" lon="-5.561715">
        <ele>190.248</ele>
        <time>2022-08-27T09:02:57Z</time>
      </trkpt>
      <trkpt lat="43.520927" lon="-5.561648">
        <ele>190.248</ele>
        <time>2022-08-27T09:03:01Z</time>
      </trkpt>
      <trkpt lat="43.520902" lon="-5.561586">
        <ele>190.284</ele>
        <time>2022-08-27T09:03:05Z</time>
      </trkpt>
      <trkpt lat="43.520930" lon="-5.561656">
        <ele>190.718</ele>
        <time>2022-08-27T09:03:20Z</time>
      </trkpt>
      <trkpt lat="43.520943" lon="-5.561744">
        <ele>191.155</ele>
        <time>2022-08-27T09:03:22Z</time>
      </trkpt>
      <trkpt lat="43.520921" lon="-5.561826">
        <ele>191.122</ele>
        <time>2022-08-27T09:03:24Z</time>
      </trkpt>
      <trkpt lat="43.520911" lon="-5.561896">
        <ele>191.089</ele>
        <time>2022-08-27T09:03:27Z</time>
      </trkpt>
      <trkpt lat="43.520941" lon="-5.561804">
        <ele>190.106</ele>
        <time>2022-08-27T09:05:07Z</time>
      </trkpt>
      <trkpt lat="43.520946" lon="-5.561729">
        <ele>186.926</ele>
        <time>2022-08-27T09:05:12Z</time>
      </trkpt>
      <trkpt lat="43.520928" lon="-5.561667">
        <ele>186.909</ele>
        <time>2022-08-27T09:05:16Z</time>
      </trkpt>
      <trkpt lat="43.520883" lon="-5.561520">
        <ele>186.999</ele>
        <time>2022-08-27T09:06:09Z</time>
      </trkpt>
      <trkpt lat="43.520851" lon="-5.561425">
        <ele>185.069</ele>
        <time>2022-08-27T09:06:23Z</time>
      </trkpt>
      <trkpt lat="43.520833" lon="-5.561367">
        <ele>187.510</ele>
        <time>2022-08-27T09:06:25Z</time>
      </trkpt>
      <trkpt lat="43.520811" lon="-5.561299">
        <ele>187.518</ele>
        <time>2022-08-27T09:06:27Z</time>
      </trkpt>
      <trkpt lat="43.520791" lon="-5.561227">
        <ele>189.518</ele>
        <time>2022-08-27T09:06:29Z</time>
      </trkpt>
      <trkpt lat="43.520768" lon="-5.561150">
        <ele>189.564</ele>
        <time>2022-08-27T09:06:31Z</time>
      </trkpt>
      <trkpt lat="43.520743" lon="-5.561068">
        <ele>189.158</ele>
        <time>2022-08-27T09:06:33Z</time>
      </trkpt>
      <trkpt lat="43.520713" lon="-5.560983">
        <ele>189.275</ele>
        <time>2022-08-27T09:06:35Z</time>
      </trkpt>
      <trkpt lat="43.520686" lon="-5.560900">
        <ele>189.352</ele>
        <time>2022-08-27T09:06:37Z</time>
      </trkpt>
      <trkpt lat="43.520658" lon="-5.560815">
        <ele>189.689</ele>
        <time>2022-08-27T09:06:39Z</time>
      </trkpt>
      <trkpt lat="43.520633" lon="-5.560728">
        <ele>189.606</ele>
        <time>2022-08-27T09:06:41Z</time>
      </trkpt>
      <trkpt lat="43.520603" lon="-5.560638">
        <ele>189.526</ele>
        <time>2022-08-27T09:06:43Z</time>
      </trkpt>
      <trkpt lat="43.520571" lon="-5.560545">
        <ele>189.409</ele>
        <time>2022-08-27T09:06:45Z</time>
      </trkpt>
      <trkpt lat="43.520556" lon="-5.560448">
        <ele>189.219</ele>
        <time>2022-08-27T09:06:47Z</time>
      </trkpt>
      <trkpt lat="43.520524" lon="-5.560368">
        <ele>189.089</ele>
        <time>2022-08-27T09:06:49Z</time>
      </trkpt>
      <trkpt lat="43.520479" lon="-5.560060">
        <ele>188.910</ele>
        <time>2022-08-27T09:06:51Z</time>
      </trkpt>
      <trkpt lat="43.520421" lon="-5.560087">
        <ele>198.168</ele>
        <time>2022-08-27T09:06:52Z</time>
      </trkpt>
      <trkpt lat="43.520383" lon="-5.559997">
        <ele>201.658</ele>
        <time>2022-08-27T09:06:57Z</time>
      </trkpt>
      <trkpt lat="43.520350" lon="-5.559897">
        <ele>196.694</ele>
        <time>2022-08-27T09:06:59Z</time>
      </trkpt>
      <trkpt lat="43.520317" lon="-5.559787">
        <ele>194.238</ele>
        <time>2022-08-27T09:07:01Z</time>
      </trkpt>
      <trkpt lat="43.520284" lon="-5.559677">
        <ele>193.175</ele>
        <time>2022-08-27T09:07:03Z</time>
      </trkpt>
      <trkpt lat="43.520251" lon="-5.559572">
        <ele>193.192</ele>
        <time>2022-08-27T09:07:05Z</time>
      </trkpt>
      <trkpt lat="43.520218" lon="-5.559464">
        <ele>192.973</ele>
        <time>2022-08-27T09:07:07Z</time>
      </trkpt>
      <trkpt lat="43.520183" lon="-5.559354">
        <ele>192.485</ele>
        <time>2022-08-27T09:07:09Z</time>
      </trkpt>
      <trkpt lat="43.520151" lon="-5.559241">
        <ele>192.113</ele>
        <time>2022-08-27T09:07:11Z</time>
      </trkpt>
      <trkpt lat="43.520123" lon="-5.559131">
        <ele>192.109</ele>
        <time>2022-08-27T09:07:13Z</time>
      </trkpt>
      <trkpt lat="43.520090" lon="-5.559021">
        <ele>192.338</ele>
        <time>2022-08-27T09:07:15Z</time>
      </trkpt>
      <trkpt lat="43.520055" lon="-5.558913">
        <ele>192.888</ele>
        <time>2022-08-27T09:07:17Z</time>
      </trkpt>
      <trkpt lat="43.520025" lon="-5.558808">
        <ele>192.919</ele>
        <time>2022-08-27T09:07:19Z</time>
      </trkpt>
      <trkpt lat="43.519993" lon="-5.558708">
        <ele>192.967</ele>
        <time>2022-08-27T09:07:21Z</time>
      </trkpt>
      <trkpt lat="43.519956" lon="-5.558611">
        <ele>192.917</ele>
        <time>2022-08-27T09:07:23Z</time>
      </trkpt>
      <trkpt lat="43.519923" lon="-5.558509">
        <ele>192.693</ele>
        <time>2022-08-27T09:07:25Z</time>
      </trkpt>
      <trkpt lat="43.519895" lon="-5.558409">
        <ele>192.587</ele>
        <time>2022-08-27T09:07:27Z</time>
      </trkpt>
      <trkpt lat="43.519877" lon="-5.558312">
        <ele>192.514</ele>
        <time>2022-08-27T09:07:29Z</time>
      </trkpt>
      <trkpt lat="43.519850" lon="-5.558227">
        <ele>192.841</ele>
        <time>2022-08-27T09:07:31Z</time>
      </trkpt>
      <trkpt lat="43.519820" lon="-5.558154">
        <ele>193.243</ele>
        <time>2022-08-27T09:07:33Z</time>
      </trkpt>
      <trkpt lat="43.519802" lon="-5.558072">
        <ele>193.464</ele>
        <time>2022-08-27T09:07:35Z</time>
      </trkpt>
      <trkpt lat="43.519779" lon="-5.557985">
        <ele>193.510</ele>
        <time>2022-08-27T09:07:37Z</time>
      </trkpt>
      <trkpt lat="43.519757" lon="-5.557897">
        <ele>193.609</ele>
        <time>2022-08-27T09:07:39Z</time>
      </trkpt>
      <trkpt lat="43.519730" lon="-5.557812">
        <ele>193.925</ele>
        <time>2022-08-27T09:07:41Z</time>
      </trkpt>
      <trkpt lat="43.519700" lon="-5.557720">
        <ele>194.475</ele>
        <time>2022-08-27T09:07:43Z</time>
      </trkpt>
      <trkpt lat="43.519670" lon="-5.557625">
        <ele>194.536</ele>
        <time>2022-08-27T09:07:45Z</time>
      </trkpt>
      <trkpt lat="43.519638" lon="-5.557528">
        <ele>194.684</ele>
        <time>2022-08-27T09:07:47Z</time>
      </trkpt>
      <trkpt lat="43.519606" lon="-5.557431">
        <ele>194.664</ele>
        <time>2022-08-27T09:07:49Z</time>
      </trkpt>
      <trkpt lat="43.519573" lon="-5.557338">
        <ele>194.530</ele>
        <time>2022-08-27T09:07:51Z</time>
      </trkpt>
      <trkpt lat="43.519543" lon="-5.557245">
        <ele>194.494</ele>
        <time>2022-08-27T09:07:53Z</time>
      </trkpt>
      <trkpt lat="43.519515" lon="-5.557148">
        <ele>194.281</ele>
        <time>2022-08-27T09:07:55Z</time>
      </trkpt>
      <trkpt lat="43.519495" lon="-5.557051">
        <ele>194.218</ele>
        <time>2022-08-27T09:07:57Z</time>
      </trkpt>
      <trkpt lat="43.519468" lon="-5.556958">
        <ele>194.249</ele>
        <time>2022-08-27T09:07:59Z</time>
      </trkpt>
      <trkpt lat="43.519440" lon="-5.556871">
        <ele>194.202</ele>
        <time>2022-08-27T09:08:01Z</time>
      </trkpt>
      <trkpt lat="43.519407" lon="-5.556784">
        <ele>194.322</ele>
        <time>2022-08-27T09:08:03Z</time>
      </trkpt>
      <trkpt lat="43.519374" lon="-5.556696">
        <ele>194.309</ele>
        <time>2022-08-27T09:08:05Z</time>
      </trkpt>
      <trkpt lat="43.519341" lon="-5.556611">
        <ele>194.215</ele>
        <time>2022-08-27T09:08:07Z</time>
      </trkpt>
      <trkpt lat="43.519311" lon="-5.556524">
        <ele>194.295</ele>
        <time>2022-08-27T09:08:09Z</time>
      </trkpt>
      <trkpt lat="43.519284" lon="-5.556434">
        <ele>193.926</ele>
        <time>2022-08-27T09:08:11Z</time>
      </trkpt>
      <trkpt lat="43.519259" lon="-5.556344">
        <ele>193.714</ele>
        <time>2022-08-27T09:08:13Z</time>
      </trkpt>
      <trkpt lat="43.519229" lon="-5.556251">
        <ele>193.444</ele>
        <time>2022-08-27T09:08:15Z</time>
      </trkpt>
      <trkpt lat="43.519209" lon="-5.556156">
        <ele>193.160</ele>
        <time>2022-08-27T09:08:17Z</time>
      </trkpt>
      <trkpt lat="43.519174" lon="-5.556063">
        <ele>193.074</ele>
        <time>2022-08-27T09:08:19Z</time>
      </trkpt>
      <trkpt lat="43.519144" lon="-5.555971">
        <ele>192.851</ele>
        <time>2022-08-27T09:08:21Z</time>
      </trkpt>
      <trkpt lat="43.519117" lon="-5.555876">
        <ele>192.628</ele>
        <time>2022-08-27T09:08:23Z</time>
      </trkpt>
      <trkpt lat="43.519085" lon="-5.555781">
        <ele>192.596</ele>
        <time>2022-08-27T09:08:25Z</time>
      </trkpt>
      <trkpt lat="43.519052" lon="-5.555683">
        <ele>192.231</ele>
        <time>2022-08-27T09:08:27Z</time>
      </trkpt>
      <trkpt lat="43.519020" lon="-5.555586">
        <ele>192.224</ele>
        <time>2022-08-27T09:08:29Z</time>
      </trkpt>
      <trkpt lat="43.518985" lon="-5.555491">
        <ele>192.309</ele>
        <time>2022-08-27T09:08:31Z</time>
      </trkpt>
      <trkpt lat="43.518948" lon="-5.555391">
        <ele>192.430</ele>
        <time>2022-08-27T09:08:33Z</time>
      </trkpt>
      <trkpt lat="43.518911" lon="-5.555293">
        <ele>192.460</ele>
        <time>2022-08-27T09:08:35Z</time>
      </trkpt>
      <trkpt lat="43.518879" lon="-5.555191">
        <ele>192.471</ele>
        <time>2022-08-27T09:08:37Z</time>
      </trkpt>
      <trkpt lat="43.518849" lon="-5.555086">
        <ele>192.479</ele>
        <time>2022-08-27T09:08:39Z</time>
      </trkpt>
      <trkpt lat="43.518826" lon="-5.554986">
        <ele>192.979</ele>
        <time>2022-08-27T09:08:41Z</time>
      </trkpt>
      <trkpt lat="43.518791" lon="-5.554893">
        <ele>193.155</ele>
        <time>2022-08-27T09:08:43Z</time>
      </trkpt>
      <trkpt lat="43.518749" lon="-5.554803">
        <ele>194.079</ele>
        <time>2022-08-27T09:08:45Z</time>
      </trkpt>
      <trkpt lat="43.518711" lon="-5.554715">
        <ele>194.876</ele>
        <time>2022-08-27T09:08:47Z</time>
      </trkpt>
      <trkpt lat="43.518669" lon="-5.554620">
        <ele>195.553</ele>
        <time>2022-08-27T09:08:49Z</time>
      </trkpt>
      <trkpt lat="43.518624" lon="-5.554528">
        <ele>195.749</ele>
        <time>2022-08-27T09:08:51Z</time>
      </trkpt>
      <trkpt lat="43.518572" lon="-5.554433">
        <ele>195.902</ele>
        <time>2022-08-27T09:08:53Z</time>
      </trkpt>
      <trkpt lat="43.518544" lon="-5.554385">
        <ele>196.022</ele>
        <time>2022-08-27T09:08:54Z</time>
      </trkpt>
      <trkpt lat="43.518479" lon="-5.554285">
        <ele>196.009</ele>
        <time>2022-08-27T09:08:56Z</time>
      </trkpt>
      <trkpt lat="43.518414" lon="-5.554175">
        <ele>195.675</ele>
        <time>2022-08-27T09:08:58Z</time>
      </trkpt>
      <trkpt lat="43.518379" lon="-5.554115">
        <ele>195.485</ele>
        <time>2022-08-27T09:08:59Z</time>
      </trkpt>
      <trkpt lat="43.518344" lon="-5.554052">
        <ele>195.286</ele>
        <time>2022-08-27T09:09:00Z</time>
      </trkpt>
      <trkpt lat="43.518304" lon="-5.553984">
        <ele>195.024</ele>
        <time>2022-08-27T09:09:01Z</time>
      </trkpt>
      <trkpt lat="43.518221" lon="-5.553837">
        <ele>194.044</ele>
        <time>2022-08-27T09:09:03Z</time>
      </trkpt>
      <trkpt lat="43.518131" lon="-5.553680">
        <ele>193.250</ele>
        <time>2022-08-27T09:09:05Z</time>
      </trkpt>
      <trkpt lat="43.518084" lon="-5.553598">
        <ele>192.884</ele>
        <time>2022-08-27T09:09:06Z</time>
      </trkpt>
      <trkpt lat="43.518034" lon="-5.553516">
        <ele>192.541</ele>
        <time>2022-08-27T09:09:07Z</time>
      </trkpt>
      <trkpt lat="43.517931" lon="-5.553341">
        <ele>191.968</ele>
        <time>2022-08-27T09:09:09Z</time>
      </trkpt>
      <trkpt lat="43.517878" lon="-5.553251">
        <ele>191.634</ele>
        <time>2022-08-27T09:09:10Z</time>
      </trkpt>
      <trkpt lat="43.517771" lon="-5.553066">
        <ele>190.955</ele>
        <time>2022-08-27T09:09:12Z</time>
      </trkpt>
      <trkpt lat="43.517666" lon="-5.552879">
        <ele>190.110</ele>
        <time>2022-08-27T09:09:14Z</time>
      </trkpt>
      <trkpt lat="43.517556" lon="-5.552684">
        <ele>189.109</ele>
        <time>2022-08-27T09:09:16Z</time>
      </trkpt>
      <trkpt lat="43.517441" lon="-5.552492">
        <ele>188.314</ele>
        <time>2022-08-27T09:09:18Z</time>
      </trkpt>
      <trkpt lat="43.517309" lon="-5.552307">
        <ele>186.844</ele>
        <time>2022-08-27T09:09:20Z</time>
      </trkpt>
      <trkpt lat="43.517236" lon="-5.552224">
        <ele>186.235</ele>
        <time>2022-08-27T09:09:21Z</time>
      </trkpt>
      <trkpt lat="43.517159" lon="-5.552146">
        <ele>185.573</ele>
        <time>2022-08-27T09:09:22Z</time>
      </trkpt>
      <trkpt lat="43.517002" lon="-5.551999">
        <ele>183.733</ele>
        <time>2022-08-27T09:09:24Z</time>
      </trkpt>
      <trkpt lat="43.516919" lon="-5.551932">
        <ele>182.819</ele>
        <time>2022-08-27T09:09:25Z</time>
      </trkpt>
      <trkpt lat="43.516836" lon="-5.551865">
        <ele>181.993</ele>
        <time>2022-08-27T09:09:26Z</time>
      </trkpt>
      <trkpt lat="43.516668" lon="-5.551733">
        <ele>180.150</ele>
        <time>2022-08-27T09:09:28Z</time>
      </trkpt>
      <trkpt lat="43.516585" lon="-5.551681">
        <ele>179.347</ele>
        <time>2022-08-27T09:09:29Z</time>
      </trkpt>
      <trkpt lat="43.516418" lon="-5.551624">
        <ele>177.215</ele>
        <time>2022-08-27T09:09:31Z</time>
      </trkpt>
      <trkpt lat="43.516326" lon="-5.551622">
        <ele>176.765</ele>
        <time>2022-08-27T09:09:32Z</time>
      </trkpt>
      <trkpt lat="43.516241" lon="-5.551652">
        <ele>176.011</ele>
        <time>2022-08-27T09:09:33Z</time>
      </trkpt>
      <trkpt lat="43.516088" lon="-5.551772">
        <ele>175.309</ele>
        <time>2022-08-27T09:09:35Z</time>
      </trkpt>
      <trkpt lat="43.515943" lon="-5.551902">
        <ele>174.892</ele>
        <time>2022-08-27T09:09:37Z</time>
      </trkpt>
      <trkpt lat="43.515788" lon="-5.551962">
        <ele>174.052</ele>
        <time>2022-08-27T09:09:39Z</time>
      </trkpt>
      <trkpt lat="43.515711" lon="-5.551950">
        <ele>173.683</ele>
        <time>2022-08-27T09:09:40Z</time>
      </trkpt>
      <trkpt lat="43.515636" lon="-5.551902">
        <ele>173.211</ele>
        <time>2022-08-27T09:09:41Z</time>
      </trkpt>
      <trkpt lat="43.515526" lon="-5.551725">
        <ele>172.491</ele>
        <time>2022-08-27T09:09:43Z</time>
      </trkpt>
      <trkpt lat="43.515486" lon="-5.551615">
        <ele>172.187</ele>
        <time>2022-08-27T09:09:44Z</time>
      </trkpt>
      <trkpt lat="43.515449" lon="-5.551502">
        <ele>171.611</ele>
        <time>2022-08-27T09:09:45Z</time>
      </trkpt>
      <trkpt lat="43.515416" lon="-5.551390">
        <ele>171.248</ele>
        <time>2022-08-27T09:09:46Z</time>
      </trkpt>
      <trkpt lat="43.515381" lon="-5.551277">
        <ele>170.945</ele>
        <time>2022-08-27T09:09:47Z</time>
      </trkpt>
      <trkpt lat="43.515306" lon="-5.551049">
        <ele>169.892</ele>
        <time>2022-08-27T09:09:49Z</time>
      </trkpt>
      <trkpt lat="43.515268" lon="-5.550932">
        <ele>168.873</ele>
        <time>2022-08-27T09:09:50Z</time>
      </trkpt>
      <trkpt lat="43.515228" lon="-5.550819">
        <ele>168.320</ele>
        <time>2022-08-27T09:09:51Z</time>
      </trkpt>
      <trkpt lat="43.515185" lon="-5.550711">
        <ele>167.909</ele>
        <time>2022-08-27T09:09:52Z</time>
      </trkpt>
      <trkpt lat="43.515093" lon="-5.550511">
        <ele>167.020</ele>
        <time>2022-08-27T09:09:54Z</time>
      </trkpt>
      <trkpt lat="43.514965" lon="-5.550346">
        <ele>166.430</ele>
        <time>2022-08-27T09:09:56Z</time>
      </trkpt>
      <trkpt lat="43.514888" lon="-5.550288">
        <ele>166.111</ele>
        <time>2022-08-27T09:09:57Z</time>
      </trkpt>
      <trkpt lat="43.514705" lon="-5.550248">
        <ele>165.589</ele>
        <time>2022-08-27T09:09:59Z</time>
      </trkpt>
      <trkpt lat="43.514615" lon="-5.550243">
        <ele>164.999</ele>
        <time>2022-08-27T09:10:00Z</time>
      </trkpt>
      <trkpt lat="43.514525" lon="-5.550223">
        <ele>164.365</ele>
        <time>2022-08-27T09:10:01Z</time>
      </trkpt>
      <trkpt lat="43.514368" lon="-5.550133">
        <ele>163.629</ele>
        <time>2022-08-27T09:10:03Z</time>
      </trkpt>
      <trkpt lat="43.514308" lon="-5.550051">
        <ele>162.946</ele>
        <time>2022-08-27T09:10:04Z</time>
      </trkpt>
      <trkpt lat="43.514185" lon="-5.549864">
        <ele>161.093</ele>
        <time>2022-08-27T09:10:06Z</time>
      </trkpt>
      <trkpt lat="43.514112" lon="-5.549789">
        <ele>160.482</ele>
        <time>2022-08-27T09:10:07Z</time>
      </trkpt>
      <trkpt lat="43.514024" lon="-5.549739">
        <ele>160.243</ele>
        <time>2022-08-27T09:10:08Z</time>
      </trkpt>
      <trkpt lat="43.513929" lon="-5.549707">
        <ele>160.217</ele>
        <time>2022-08-27T09:10:09Z</time>
      </trkpt>
      <trkpt lat="43.513731" lon="-5.549672">
        <ele>158.709</ele>
        <time>2022-08-27T09:10:11Z</time>
      </trkpt>
      <trkpt lat="43.513631" lon="-5.549650">
        <ele>158.249</ele>
        <time>2022-08-27T09:10:12Z</time>
      </trkpt>
      <trkpt lat="43.513431" lon="-5.549595">
        <ele>157.739</ele>
        <time>2022-08-27T09:10:14Z</time>
      </trkpt>
      <trkpt lat="43.513329" lon="-5.549570">
        <ele>157.680</ele>
        <time>2022-08-27T09:10:15Z</time>
      </trkpt>
      <trkpt lat="43.513132" lon="-5.549515">
        <ele>157.518</ele>
        <time>2022-08-27T09:10:17Z</time>
      </trkpt>
      <trkpt lat="43.513039" lon="-5.549477">
        <ele>157.598</ele>
        <time>2022-08-27T09:10:18Z</time>
      </trkpt>
      <trkpt lat="43.512872" lon="-5.549375">
        <ele>157.024</ele>
        <time>2022-08-27T09:10:20Z</time>
      </trkpt>
      <trkpt lat="43.512820" lon="-5.549225">
        <ele>155.548</ele>
        <time>2022-08-27T09:10:22Z</time>
      </trkpt>
      <trkpt lat="43.512848" lon="-5.549115">
        <ele>154.635</ele>
        <time>2022-08-27T09:10:23Z</time>
      </trkpt>
      <trkpt lat="43.512906" lon="-5.549018">
        <ele>154.362</ele>
        <time>2022-08-27T09:10:24Z</time>
      </trkpt>
      <trkpt lat="43.513066" lon="-5.548930">
        <ele>153.572</ele>
        <time>2022-08-27T09:10:26Z</time>
      </trkpt>
      <trkpt lat="43.513149" lon="-5.548918">
        <ele>153.313</ele>
        <time>2022-08-27T09:10:27Z</time>
      </trkpt>
      <trkpt lat="43.513324" lon="-5.548903">
        <ele>151.814</ele>
        <time>2022-08-27T09:10:29Z</time>
      </trkpt>
      <trkpt lat="43.513506" lon="-5.548903">
        <ele>151.209</ele>
        <time>2022-08-27T09:10:31Z</time>
      </trkpt>
      <trkpt lat="43.513683" lon="-5.548906">
        <ele>150.568</ele>
        <time>2022-08-27T09:10:33Z</time>
      </trkpt>
      <trkpt lat="43.513865" lon="-5.548914">
        <ele>149.828</ele>
        <time>2022-08-27T09:10:35Z</time>
      </trkpt>
      <trkpt lat="43.514038" lon="-5.548922">
        <ele>149.259</ele>
        <time>2022-08-27T09:10:37Z</time>
      </trkpt>
      <trkpt lat="43.514130" lon="-5.548925">
        <ele>149.057</ele>
        <time>2022-08-27T09:10:38Z</time>
      </trkpt>
      <trkpt lat="43.514223" lon="-5.548928">
        <ele>148.777</ele>
        <time>2022-08-27T09:10:39Z</time>
      </trkpt>
      <trkpt lat="43.514415" lon="-5.548913">
        <ele>148.433</ele>
        <time>2022-08-27T09:10:41Z</time>
      </trkpt>
      <trkpt lat="43.514512" lon="-5.548901">
        <ele>148.457</ele>
        <time>2022-08-27T09:10:42Z</time>
      </trkpt>
      <trkpt lat="43.514685" lon="-5.548918">
        <ele>148.194</ele>
        <time>2022-08-27T09:10:44Z</time>
      </trkpt>
      <trkpt lat="43.514885" lon="-5.548918">
        <ele>147.431</ele>
        <time>2022-08-27T09:10:46Z</time>
      </trkpt>
      <trkpt lat="43.514987" lon="-5.548913">
        <ele>147.434</ele>
        <time>2022-08-27T09:10:47Z</time>
      </trkpt>
      <trkpt lat="43.515189" lon="-5.548903">
        <ele>146.355</ele>
        <time>2022-08-27T09:10:48Z</time>
      </trkpt>
      <trkpt lat="43.515292" lon="-5.548883">
        <ele>145.410</ele>
        <time>2022-08-27T09:10:50Z</time>
      </trkpt>
      <trkpt lat="43.515484" lon="-5.548848">
        <ele>143.809</ele>
        <time>2022-08-27T09:10:52Z</time>
      </trkpt>
      <trkpt lat="43.515569" lon="-5.548806">
        <ele>143.184</ele>
        <time>2022-08-27T09:10:53Z</time>
      </trkpt>
      <trkpt lat="43.515642" lon="-5.548749">
        <ele>141.944</ele>
        <time>2022-08-27T09:10:54Z</time>
      </trkpt>
      <trkpt lat="43.515764" lon="-5.548566">
        <ele>140.785</ele>
        <time>2022-08-27T09:10:56Z</time>
      </trkpt>
      <trkpt lat="43.515812" lon="-5.548458">
        <ele>139.523</ele>
        <time>2022-08-27T09:10:57Z</time>
      </trkpt>
      <trkpt lat="43.515877" lon="-5.548220">
        <ele>136.453</ele>
        <time>2022-08-27T09:10:59Z</time>
      </trkpt>
      <trkpt lat="43.515892" lon="-5.548090">
        <ele>135.149</ele>
        <time>2022-08-27T09:11:00Z</time>
      </trkpt>
      <trkpt lat="43.515894" lon="-5.547960">
        <ele>134.343</ele>
        <time>2022-08-27T09:11:01Z</time>
      </trkpt>
      <trkpt lat="43.515857" lon="-5.547702">
        <ele>133.240</ele>
        <time>2022-08-27T09:11:03Z</time>
      </trkpt>
      <trkpt lat="43.515827" lon="-5.547574">
        <ele>132.537</ele>
        <time>2022-08-27T09:11:04Z</time>
      </trkpt>
      <trkpt lat="43.515765" lon="-5.547317">
        <ele>130.897</ele>
        <time>2022-08-27T09:11:06Z</time>
      </trkpt>
      <trkpt lat="43.515740" lon="-5.547185">
        <ele>130.223</ele>
        <time>2022-08-27T09:11:07Z</time>
      </trkpt>
      <trkpt lat="43.515685" lon="-5.546925">
        <ele>128.725</ele>
        <time>2022-08-27T09:11:09Z</time>
      </trkpt>
      <trkpt lat="43.515663" lon="-5.546788">
        <ele>128.109</ele>
        <time>2022-08-27T09:11:10Z</time>
      </trkpt>
      <trkpt lat="43.515645" lon="-5.546515">
        <ele>126.430</ele>
        <time>2022-08-27T09:11:12Z</time>
      </trkpt>
      <trkpt lat="43.515652" lon="-5.546378">
        <ele>124.990</ele>
        <time>2022-08-27T09:11:13Z</time>
      </trkpt>
      <trkpt lat="43.515685" lon="-5.546101">
        <ele>123.371</ele>
        <time>2022-08-27T09:11:15Z</time>
      </trkpt>
      <trkpt lat="43.515678" lon="-5.545966">
        <ele>122.769</ele>
        <time>2022-08-27T09:11:16Z</time>
      </trkpt>
      <trkpt lat="43.515656" lon="-5.545839">
        <ele>122.349</ele>
        <time>2022-08-27T09:11:17Z</time>
      </trkpt>
      <trkpt lat="43.515601" lon="-5.545616">
        <ele>121.985</ele>
        <time>2022-08-27T09:11:19Z</time>
      </trkpt>
      <trkpt lat="43.515493" lon="-5.545454">
        <ele>122.139</ele>
        <time>2022-08-27T09:11:21Z</time>
      </trkpt>
      <trkpt lat="43.515333" lon="-5.545314">
        <ele>122.186</ele>
        <time>2022-08-27T09:11:23Z</time>
      </trkpt>
      <trkpt lat="43.515155" lon="-5.545222">
        <ele>122.253</ele>
        <time>2022-08-27T09:11:25Z</time>
      </trkpt>
      <trkpt lat="43.514950" lon="-5.545162">
        <ele>122.137</ele>
        <time>2022-08-27T09:11:27Z</time>
      </trkpt>
      <trkpt lat="43.514858" lon="-5.545112">
        <ele>121.749</ele>
        <time>2022-08-27T09:11:28Z</time>
      </trkpt>
      <trkpt lat="43.514686" lon="-5.544960">
        <ele>121.013</ele>
        <time>2022-08-27T09:11:30Z</time>
      </trkpt>
      <trkpt lat="43.514526" lon="-5.544787">
        <ele>120.409</ele>
        <time>2022-08-27T09:11:32Z</time>
      </trkpt>
      <trkpt lat="43.514351" lon="-5.544685">
        <ele>120.164</ele>
        <time>2022-08-27T09:11:34Z</time>
      </trkpt>
      <trkpt lat="43.514166" lon="-5.544707">
        <ele>118.524</ele>
        <time>2022-08-27T09:11:36Z</time>
      </trkpt>
      <trkpt lat="43.514081" lon="-5.544772">
        <ele>117.985</ele>
        <time>2022-08-27T09:11:37Z</time>
      </trkpt>
      <trkpt lat="43.513934" lon="-5.544937">
        <ele>117.213</ele>
        <time>2022-08-27T09:11:39Z</time>
      </trkpt>
      <trkpt lat="43.513861" lon="-5.545022">
        <ele>116.293</ele>
        <time>2022-08-27T09:11:40Z</time>
      </trkpt>
      <trkpt lat="43.513784" lon="-5.545104">
        <ele>115.449</ele>
        <time>2022-08-27T09:11:41Z</time>
      </trkpt>
      <trkpt lat="43.513627" lon="-5.545262">
        <ele>114.613</ele>
        <time>2022-08-27T09:11:43Z</time>
      </trkpt>
      <trkpt lat="43.513552" lon="-5.545344">
        <ele>114.250</ele>
        <time>2022-08-27T09:11:44Z</time>
      </trkpt>
      <trkpt lat="43.513390" lon="-5.545497">
        <ele>112.897</ele>
        <time>2022-08-27T09:11:46Z</time>
      </trkpt>
      <trkpt lat="43.513213" lon="-5.545620">
        <ele>112.046</ele>
        <time>2022-08-27T09:11:48Z</time>
      </trkpt>
      <trkpt lat="43.513118" lon="-5.545670">
        <ele>111.388</ele>
        <time>2022-08-27T09:11:49Z</time>
      </trkpt>
      <trkpt lat="43.512928" lon="-5.545760">
        <ele>109.916</ele>
        <time>2022-08-27T09:11:51Z</time>
      </trkpt>
      <trkpt lat="43.512733" lon="-5.545840">
        <ele>108.309</ele>
        <time>2022-08-27T09:11:53Z</time>
      </trkpt>
      <trkpt lat="43.512633" lon="-5.545867">
        <ele>107.815</ele>
        <time>2022-08-27T09:11:54Z</time>
      </trkpt>
      <trkpt lat="43.512428" lon="-5.545884">
        <ele>106.715</ele>
        <time>2022-08-27T09:11:56Z</time>
      </trkpt>
      <trkpt lat="43.512225" lon="-5.545866">
        <ele>105.326</ele>
        <time>2022-08-27T09:11:58Z</time>
      </trkpt>
      <trkpt lat="43.512025" lon="-5.545811">
        <ele>103.274</ele>
        <time>2022-08-27T09:12:00Z</time>
      </trkpt>
      <trkpt lat="43.511830" lon="-5.545706">
        <ele>101.544</ele>
        <time>2022-08-27T09:12:02Z</time>
      </trkpt>
      <trkpt lat="43.511737" lon="-5.545633">
        <ele>100.970</ele>
        <time>2022-08-27T09:12:03Z</time>
      </trkpt>
      <trkpt lat="43.511645" lon="-5.545555">
        <ele>100.294</ele>
        <time>2022-08-27T09:12:04Z</time>
      </trkpt>
      <trkpt lat="43.511470" lon="-5.545353">
        <ele>98.971</ele>
        <time>2022-08-27T09:12:06Z</time>
      </trkpt>
      <trkpt lat="43.511318" lon="-5.545130">
        <ele>97.748</ele>
        <time>2022-08-27T09:12:08Z</time>
      </trkpt>
      <trkpt lat="43.511243" lon="-5.545010">
        <ele>97.178</ele>
        <time>2022-08-27T09:12:09Z</time>
      </trkpt>
      <trkpt lat="43.511166" lon="-5.544890">
        <ele>96.633</ele>
        <time>2022-08-27T09:12:10Z</time>
      </trkpt>
      <trkpt lat="43.511094" lon="-5.544770">
        <ele>96.126</ele>
        <time>2022-08-27T09:12:11Z</time>
      </trkpt>
      <trkpt lat="43.510942" lon="-5.544518">
        <ele>95.209</ele>
        <time>2022-08-27T09:12:13Z</time>
      </trkpt>
      <trkpt lat="43.510869" lon="-5.544393">
        <ele>94.978</ele>
        <time>2022-08-27T09:12:14Z</time>
      </trkpt>
      <trkpt lat="43.510726" lon="-5.544148">
        <ele>94.278</ele>
        <time>2022-08-27T09:12:16Z</time>
      </trkpt>
      <trkpt lat="43.510583" lon="-5.543913">
        <ele>93.499</ele>
        <time>2022-08-27T09:12:18Z</time>
      </trkpt>
      <trkpt lat="43.510518" lon="-5.543796">
        <ele>92.767</ele>
        <time>2022-08-27T09:12:19Z</time>
      </trkpt>
      <trkpt lat="43.510383" lon="-5.543568">
        <ele>91.667</ele>
        <time>2022-08-27T09:12:21Z</time>
      </trkpt>
      <trkpt lat="43.510320" lon="-5.543456">
        <ele>90.653</ele>
        <time>2022-08-27T09:12:22Z</time>
      </trkpt>
      <trkpt lat="43.510253" lon="-5.543346">
        <ele>89.847</ele>
        <time>2022-08-27T09:12:23Z</time>
      </trkpt>
      <trkpt lat="43.510093" lon="-5.543159">
        <ele>88.364</ele>
        <time>2022-08-27T09:12:25Z</time>
      </trkpt>
      <trkpt lat="43.510008" lon="-5.543084">
        <ele>87.281</ele>
        <time>2022-08-27T09:12:26Z</time>
      </trkpt>
      <trkpt lat="43.509840" lon="-5.542952">
        <ele>85.278</ele>
        <time>2022-08-27T09:12:28Z</time>
      </trkpt>
      <trkpt lat="43.509690" lon="-5.542830">
        <ele>83.333</ele>
        <time>2022-08-27T09:12:30Z</time>
      </trkpt>
      <trkpt lat="43.509632" lon="-5.542750">
        <ele>82.826</ele>
        <time>2022-08-27T09:12:31Z</time>
      </trkpt>
      <trkpt lat="43.509575" lon="-5.542652">
        <ele>81.909</ele>
        <time>2022-08-27T09:12:32Z</time>
      </trkpt>
      <trkpt lat="43.509495" lon="-5.542447">
        <ele>80.728</ele>
        <time>2022-08-27T09:12:34Z</time>
      </trkpt>
      <trkpt lat="43.509460" lon="-5.542222">
        <ele>79.958</ele>
        <time>2022-08-27T09:12:36Z</time>
      </trkpt>
      <trkpt lat="43.509447" lon="-5.542112">
        <ele>79.969</ele>
        <time>2022-08-27T09:12:37Z</time>
      </trkpt>
      <trkpt lat="43.509440" lon="-5.541910">
        <ele>80.187</ele>
        <time>2022-08-27T09:12:39Z</time>
      </trkpt>
      <trkpt lat="43.509437" lon="-5.541820">
        <ele>80.487</ele>
        <time>2022-08-27T09:12:40Z</time>
      </trkpt>
      <trkpt lat="43.509440" lon="-5.541660">
        <ele>80.953</ele>
        <time>2022-08-27T09:12:42Z</time>
      </trkpt>
      <trkpt lat="43.509448" lon="-5.541590">
        <ele>81.077</ele>
        <time>2022-08-27T09:12:43Z</time>
      </trkpt>
      <trkpt lat="43.509466" lon="-5.541472">
        <ele>81.684</ele>
        <time>2022-08-27T09:12:45Z</time>
      </trkpt>
      <trkpt lat="43.509498" lon="-5.541370">
        <ele>82.071</ele>
        <time>2022-08-27T09:12:47Z</time>
      </trkpt>
      <trkpt lat="43.509538" lon="-5.541288">
        <ele>82.665</ele>
        <time>2022-08-27T09:12:49Z</time>
      </trkpt>
      <trkpt lat="43.509590" lon="-5.541221">
        <ele>83.568</ele>
        <time>2022-08-27T09:12:51Z</time>
      </trkpt>
      <trkpt lat="43.509630" lon="-5.541148">
        <ele>84.514</ele>
        <time>2022-08-27T09:12:53Z</time>
      </trkpt>
      <trkpt lat="43.509662" lon="-5.541071">
        <ele>84.909</ele>
        <time>2022-08-27T09:12:55Z</time>
      </trkpt>
      <trkpt lat="43.509705" lon="-5.540986">
        <ele>85.467</ele>
        <time>2022-08-27T09:12:57Z</time>
      </trkpt>
      <trkpt lat="43.509745" lon="-5.540901">
        <ele>86.067</ele>
        <time>2022-08-27T09:12:59Z</time>
      </trkpt>
      <trkpt lat="43.509772" lon="-5.540814">
        <ele>86.888</ele>
        <time>2022-08-27T09:13:01Z</time>
      </trkpt>
      <trkpt lat="43.509814" lon="-5.540712">
        <ele>87.356</ele>
        <time>2022-08-27T09:13:03Z</time>
      </trkpt>
      <trkpt lat="43.509849" lon="-5.540609">
        <ele>88.096</ele>
        <time>2022-08-27T09:13:05Z</time>
      </trkpt>
      <trkpt lat="43.509877" lon="-5.540516">
        <ele>88.092</ele>
        <time>2022-08-27T09:13:07Z</time>
      </trkpt>
      <trkpt lat="43.509900" lon="-5.540419">
        <ele>87.996</ele>
        <time>2022-08-27T09:13:09Z</time>
      </trkpt>
      <trkpt lat="43.509920" lon="-5.540311">
        <ele>86.923</ele>
        <time>2022-08-27T09:13:11Z</time>
      </trkpt>
      <trkpt lat="43.509933" lon="-5.540204">
        <ele>86.450</ele>
        <time>2022-08-27T09:13:13Z</time>
      </trkpt>
      <trkpt lat="43.509935" lon="-5.540099">
        <ele>84.719</ele>
        <time>2022-08-27T09:13:15Z</time>
      </trkpt>
      <trkpt lat="43.509932" lon="-5.540006">
        <ele>83.809</ele>
        <time>2022-08-27T09:13:17Z</time>
      </trkpt>
      <trkpt lat="43.509925" lon="-5.539916">
        <ele>82.419</ele>
        <time>2022-08-27T09:13:19Z</time>
      </trkpt>
      <trkpt lat="43.509915" lon="-5.539829">
        <ele>81.109</ele>
        <time>2022-08-27T09:13:21Z</time>
      </trkpt>
      <trkpt lat="43.509880" lon="-5.539746">
        <ele>80.842</ele>
        <time>2022-08-27T09:13:22Z</time>
      </trkpt>
      <trkpt lat="43.509855" lon="-5.539666">
        <ele>80.862</ele>
        <time>2022-08-27T09:13:25Z</time>
      </trkpt>
      <trkpt lat="43.509840" lon="-5.539593">
        <ele>80.673</ele>
        <time>2022-08-27T09:13:26Z</time>
      </trkpt>
      <trkpt lat="43.509817" lon="-5.539515">
        <ele>80.151</ele>
        <time>2022-08-27T09:13:29Z</time>
      </trkpt>
      <trkpt lat="43.509785" lon="-5.539452">
        <ele>79.821</ele>
        <time>2022-08-27T09:13:31Z</time>
      </trkpt>
      <trkpt lat="43.509760" lon="-5.539379">
        <ele>79.697</ele>
        <time>2022-08-27T09:13:33Z</time>
      </trkpt>
      <trkpt lat="43.509743" lon="-5.539301">
        <ele>79.071</ele>
        <time>2022-08-27T09:13:35Z</time>
      </trkpt>
      <trkpt lat="43.509735" lon="-5.539219">
        <ele>78.668</ele>
        <time>2022-08-27T09:13:37Z</time>
      </trkpt>
      <trkpt lat="43.509728" lon="-5.539134">
        <ele>78.585</ele>
        <time>2022-08-27T09:13:39Z</time>
      </trkpt>
      <trkpt lat="43.509713" lon="-5.539046">
        <ele>78.591</ele>
        <time>2022-08-27T09:13:41Z</time>
      </trkpt>
      <trkpt lat="43.509688" lon="-5.538961">
        <ele>78.981</ele>
        <time>2022-08-27T09:13:43Z</time>
      </trkpt>
      <trkpt lat="43.509666" lon="-5.538874">
        <ele>80.919</ele>
        <time>2022-08-27T09:13:45Z</time>
      </trkpt>
      <trkpt lat="43.509651" lon="-5.538786">
        <ele>83.009</ele>
        <time>2022-08-27T09:13:47Z</time>
      </trkpt>
      <trkpt lat="43.509638" lon="-5.538699">
        <ele>86.360</ele>
        <time>2022-08-27T09:13:49Z</time>
      </trkpt>
      <trkpt lat="43.509623" lon="-5.538607">
        <ele>88.790</ele>
        <time>2022-08-27T09:13:51Z</time>
      </trkpt>
      <trkpt lat="43.509616" lon="-5.538514">
        <ele>89.671</ele>
        <time>2022-08-27T09:13:53Z</time>
      </trkpt>
      <trkpt lat="43.509611" lon="-5.538419">
        <ele>91.119</ele>
        <time>2022-08-27T09:13:55Z</time>
      </trkpt>
      <trkpt lat="43.509596" lon="-5.538327">
        <ele>93.159</ele>
        <time>2022-08-27T09:13:57Z</time>
      </trkpt>
      <trkpt lat="43.509569" lon="-5.538244">
        <ele>95.055</ele>
        <time>2022-08-27T09:13:59Z</time>
      </trkpt>
      <trkpt lat="43.509544" lon="-5.538171">
        <ele>96.679</ele>
        <time>2022-08-27T09:14:01Z</time>
      </trkpt>
      <trkpt lat="43.509521" lon="-5.538096">
        <ele>98.596</ele>
        <time>2022-08-27T09:14:03Z</time>
      </trkpt>
      <trkpt lat="43.509494" lon="-5.538018">
        <ele>99.323</ele>
        <time>2022-08-27T09:14:05Z</time>
      </trkpt>
      <trkpt lat="43.509486" lon="-5.537946">
        <ele>100.727</ele>
        <time>2022-08-27T09:14:07Z</time>
      </trkpt>
      <trkpt lat="43.509469" lon="-5.537881">
        <ele>101.668</ele>
        <time>2022-08-27T09:14:09Z</time>
      </trkpt>
      <trkpt lat="43.509436" lon="-5.537818">
        <ele>102.614</ele>
        <time>2022-08-27T09:14:11Z</time>
      </trkpt>
      <trkpt lat="43.509399" lon="-5.537753">
        <ele>103.909</ele>
        <time>2022-08-27T09:14:13Z</time>
      </trkpt>
      <trkpt lat="43.509361" lon="-5.537688">
        <ele>105.463</ele>
        <time>2022-08-27T09:14:15Z</time>
      </trkpt>
      <trkpt lat="43.509329" lon="-5.537631">
        <ele>106.773</ele>
        <time>2022-08-27T09:14:17Z</time>
      </trkpt>
      <trkpt lat="43.509301" lon="-5.537566">
        <ele>107.734</ele>
        <time>2022-08-27T09:14:19Z</time>
      </trkpt>
      <trkpt lat="43.509276" lon="-5.537499">
        <ele>108.992</ele>
        <time>2022-08-27T09:14:21Z</time>
      </trkpt>
      <trkpt lat="43.509253" lon="-5.537432">
        <ele>110.092</ele>
        <time>2022-08-27T09:14:23Z</time>
      </trkpt>
      <trkpt lat="43.509225" lon="-5.537355">
        <ele>111.268</ele>
        <time>2022-08-27T09:14:25Z</time>
      </trkpt>
      <trkpt lat="43.509197" lon="-5.537282">
        <ele>112.412</ele>
        <time>2022-08-27T09:14:27Z</time>
      </trkpt>
      <trkpt lat="43.509179" lon="-5.537204">
        <ele>113.239</ele>
        <time>2022-08-27T09:14:29Z</time>
      </trkpt>
      <trkpt lat="43.509161" lon="-5.537111">
        <ele>114.296</ele>
        <time>2022-08-27T09:14:31Z</time>
      </trkpt>
      <trkpt lat="43.509154" lon="-5.537011">
        <ele>114.971</ele>
        <time>2022-08-27T09:14:33Z</time>
      </trkpt>
      <trkpt lat="43.509164" lon="-5.536908">
        <ele>114.941</ele>
        <time>2022-08-27T09:14:35Z</time>
      </trkpt>
      <trkpt lat="43.509169" lon="-5.536808">
        <ele>114.915</ele>
        <time>2022-08-27T09:14:37Z</time>
      </trkpt>
      <trkpt lat="43.509176" lon="-5.536711">
        <ele>114.909</ele>
        <time>2022-08-27T09:14:39Z</time>
      </trkpt>
      <trkpt lat="43.509186" lon="-5.536616">
        <ele>115.058</ele>
        <time>2022-08-27T09:14:41Z</time>
      </trkpt>
      <trkpt lat="43.509189" lon="-5.536528">
        <ele>115.178</ele>
        <time>2022-08-27T09:14:43Z</time>
      </trkpt>
      <trkpt lat="43.509189" lon="-5.536443">
        <ele>115.329</ele>
        <time>2022-08-27T09:14:45Z</time>
      </trkpt>
      <trkpt lat="43.509194" lon="-5.536356">
        <ele>115.487</ele>
        <time>2022-08-27T09:14:47Z</time>
      </trkpt>
      <trkpt lat="43.509194" lon="-5.536273">
        <ele>115.797</ele>
        <time>2022-08-27T09:14:49Z</time>
      </trkpt>
      <trkpt lat="43.509197" lon="-5.536181">
        <ele>115.883</ele>
        <time>2022-08-27T09:14:51Z</time>
      </trkpt>
      <trkpt lat="43.509197" lon="-5.536093">
        <ele>116.257</ele>
        <time>2022-08-27T09:14:53Z</time>
      </trkpt>
      <trkpt lat="43.509200" lon="-5.536003">
        <ele>116.854</ele>
        <time>2022-08-27T09:14:55Z</time>
      </trkpt>
      <trkpt lat="43.509200" lon="-5.535913">
        <ele>117.271</ele>
        <time>2022-08-27T09:14:57Z</time>
      </trkpt>
      <trkpt lat="43.509202" lon="-5.535823">
        <ele>117.541</ele>
        <time>2022-08-27T09:14:59Z</time>
      </trkpt>
      <trkpt lat="43.509207" lon="-5.535736">
        <ele>118.181</ele>
        <time>2022-08-27T09:15:01Z</time>
      </trkpt>
      <trkpt lat="43.509210" lon="-5.535653">
        <ele>118.509</ele>
        <time>2022-08-27T09:15:03Z</time>
      </trkpt>
      <trkpt lat="43.509212" lon="-5.535573">
        <ele>118.509</ele>
        <time>2022-08-27T09:15:05Z</time>
      </trkpt>
      <trkpt lat="43.509215" lon="-5.535493">
        <ele>118.765</ele>
        <time>2022-08-27T09:15:07Z</time>
      </trkpt>
      <trkpt lat="43.509218" lon="-5.535410">
        <ele>118.775</ele>
        <time>2022-08-27T09:15:09Z</time>
      </trkpt>
      <trkpt lat="43.509225" lon="-5.535325">
        <ele>119.036</ele>
        <time>2022-08-27T09:15:11Z</time>
      </trkpt>
      <trkpt lat="43.509230" lon="-5.535242">
        <ele>119.534</ele>
        <time>2022-08-27T09:15:13Z</time>
      </trkpt>
      <trkpt lat="43.509230" lon="-5.535162">
        <ele>119.964</ele>
        <time>2022-08-27T09:15:15Z</time>
      </trkpt>
      <trkpt lat="43.509232" lon="-5.535077">
        <ele>120.430</ele>
        <time>2022-08-27T09:15:17Z</time>
      </trkpt>
      <trkpt lat="43.509235" lon="-5.534997">
        <ele>121.094</ele>
        <time>2022-08-27T09:15:19Z</time>
      </trkpt>
      <trkpt lat="43.509243" lon="-5.534920">
        <ele>121.471</ele>
        <time>2022-08-27T09:15:21Z</time>
      </trkpt>
      <trkpt lat="43.509246" lon="-5.534842">
        <ele>121.938</ele>
        <time>2022-08-27T09:15:23Z</time>
      </trkpt>
      <trkpt lat="43.509249" lon="-5.534767">
        <ele>122.799</ele>
        <time>2022-08-27T09:15:25Z</time>
      </trkpt>
      <trkpt lat="43.509256" lon="-5.534690">
        <ele>123.007</ele>
        <time>2022-08-27T09:15:27Z</time>
      </trkpt>
      <trkpt lat="43.509263" lon="-5.534612">
        <ele>123.627</ele>
        <time>2022-08-27T09:15:29Z</time>
      </trkpt>
      <trkpt lat="43.509270" lon="-5.534537">
        <ele>123.809</ele>
        <time>2022-08-27T09:15:31Z</time>
      </trkpt>
      <trkpt lat="43.509288" lon="-5.534462">
        <ele>123.850</ele>
        <time>2022-08-27T09:15:33Z</time>
      </trkpt>
      <trkpt lat="43.509306" lon="-5.534380">
        <ele>123.850</ele>
        <time>2022-08-27T09:15:35Z</time>
      </trkpt>
      <trkpt lat="43.509321" lon="-5.534295">
        <ele>123.231</ele>
        <time>2022-08-27T09:15:37Z</time>
      </trkpt>
      <trkpt lat="43.509334" lon="-5.534212">
        <ele>122.939</ele>
        <time>2022-08-27T09:15:39Z</time>
      </trkpt>
      <trkpt lat="43.509349" lon="-5.534135">
        <ele>122.989</ele>
        <time>2022-08-27T09:15:41Z</time>
      </trkpt>
      <trkpt lat="43.509366" lon="-5.534052">
        <ele>123.115</ele>
        <time>2022-08-27T09:15:43Z</time>
      </trkpt>
      <trkpt lat="43.509383" lon="-5.533969">
        <ele>123.479</ele>
        <time>2022-08-27T09:15:45Z</time>
      </trkpt>
      <trkpt lat="43.509395" lon="-5.533889">
        <ele>123.636</ele>
        <time>2022-08-27T09:15:47Z</time>
      </trkpt>
      <trkpt lat="43.509410" lon="-5.533807">
        <ele>123.853</ele>
        <time>2022-08-27T09:15:49Z</time>
      </trkpt>
      <trkpt lat="43.509425" lon="-5.533724">
        <ele>123.829</ele>
        <time>2022-08-27T09:15:51Z</time>
      </trkpt>
      <trkpt lat="43.509438" lon="-5.533646">
        <ele>124.000</ele>
        <time>2022-08-27T09:15:53Z</time>
      </trkpt>
      <trkpt lat="43.509453" lon="-5.533566">
        <ele>124.020</ele>
        <time>2022-08-27T09:15:55Z</time>
      </trkpt>
      <trkpt lat="43.509475" lon="-5.533488">
        <ele>124.009</ele>
        <time>2022-08-27T09:15:57Z</time>
      </trkpt>
      <trkpt lat="43.509490" lon="-5.533406">
        <ele>123.863</ele>
        <time>2022-08-27T09:15:59Z</time>
      </trkpt>
      <trkpt lat="43.509512" lon="-5.533321">
        <ele>123.413</ele>
        <time>2022-08-27T09:16:01Z</time>
      </trkpt>
      <trkpt lat="43.509532" lon="-5.533246">
        <ele>123.354</ele>
        <time>2022-08-27T09:16:03Z</time>
      </trkpt>
      <trkpt lat="43.509550" lon="-5.533169">
        <ele>123.192</ele>
        <time>2022-08-27T09:16:05Z</time>
      </trkpt>
      <trkpt lat="43.509570" lon="-5.533089">
        <ele>123.012</ele>
        <time>2022-08-27T09:16:07Z</time>
      </trkpt>
      <trkpt lat="43.509592" lon="-5.533011">
        <ele>123.048</ele>
        <time>2022-08-27T09:16:09Z</time>
      </trkpt>
      <trkpt lat="43.509615" lon="-5.532929">
        <ele>123.192</ele>
        <time>2022-08-27T09:16:11Z</time>
      </trkpt>
      <trkpt lat="43.509643" lon="-5.532846">
        <ele>123.529</ele>
        <time>2022-08-27T09:16:13Z</time>
      </trkpt>
      <trkpt lat="43.509670" lon="-5.532764">
        <ele>124.396</ele>
        <time>2022-08-27T09:16:15Z</time>
      </trkpt>
      <trkpt lat="43.509687" lon="-5.532684">
        <ele>125.815</ele>
        <time>2022-08-27T09:16:17Z</time>
      </trkpt>
      <trkpt lat="43.509709" lon="-5.532607">
        <ele>126.565</ele>
        <time>2022-08-27T09:16:19Z</time>
      </trkpt>
      <trkpt lat="43.509736" lon="-5.532529">
        <ele>126.811</ele>
        <time>2022-08-27T09:16:21Z</time>
      </trkpt>
      <trkpt lat="43.509754" lon="-5.532446">
        <ele>126.909</ele>
        <time>2022-08-27T09:16:23Z</time>
      </trkpt>
      <trkpt lat="43.509772" lon="-5.532361">
        <ele>127.182</ele>
        <time>2022-08-27T09:16:25Z</time>
      </trkpt>
      <trkpt lat="43.509795" lon="-5.532279">
        <ele>127.282</ele>
        <time>2022-08-27T09:16:27Z</time>
      </trkpt>
      <trkpt lat="43.509815" lon="-5.532201">
        <ele>127.833</ele>
        <time>2022-08-27T09:16:29Z</time>
      </trkpt>
      <trkpt lat="43.509840" lon="-5.532126">
        <ele>128.431</ele>
        <time>2022-08-27T09:16:31Z</time>
      </trkpt>
      <trkpt lat="43.509872" lon="-5.532051">
        <ele>128.651</ele>
        <time>2022-08-27T09:16:33Z</time>
      </trkpt>
      <trkpt lat="43.509900" lon="-5.531971">
        <ele>129.077</ele>
        <time>2022-08-27T09:16:35Z</time>
      </trkpt>
      <trkpt lat="43.509932" lon="-5.531899">
        <ele>129.421</ele>
        <time>2022-08-27T09:16:37Z</time>
      </trkpt>
      <trkpt lat="43.509970" lon="-5.531837">
        <ele>130.078</ele>
        <time>2022-08-27T09:16:39Z</time>
      </trkpt>
      <trkpt lat="43.510017" lon="-5.531782">
        <ele>130.125</ele>
        <time>2022-08-27T09:16:41Z</time>
      </trkpt>
      <trkpt lat="43.510067" lon="-5.531727">
        <ele>130.127</ele>
        <time>2022-08-27T09:16:43Z</time>
      </trkpt>
      <trkpt lat="43.510115" lon="-5.531679">
        <ele>130.368</ele>
        <time>2022-08-27T09:16:45Z</time>
      </trkpt>
      <trkpt lat="43.510168" lon="-5.531641">
        <ele>130.814</ele>
        <time>2022-08-27T09:16:47Z</time>
      </trkpt>
      <trkpt lat="43.510221" lon="-5.531606">
        <ele>131.509</ele>
        <time>2022-08-27T09:16:49Z</time>
      </trkpt>
      <trkpt lat="43.510278" lon="-5.531586">
        <ele>131.973</ele>
        <time>2022-08-27T09:16:51Z</time>
      </trkpt>
      <trkpt lat="43.510331" lon="-5.531566">
        <ele>132.173</ele>
        <time>2022-08-27T09:16:53Z</time>
      </trkpt>
      <trkpt lat="43.510384" lon="-5.531546">
        <ele>132.194</ele>
        <time>2022-08-27T09:16:55Z</time>
      </trkpt>
      <trkpt lat="43.510439" lon="-5.531531">
        <ele>132.412</ele>
        <time>2022-08-27T09:16:57Z</time>
      </trkpt>
      <trkpt lat="43.510492" lon="-5.531519">
        <ele>132.982</ele>
        <time>2022-08-27T09:16:59Z</time>
      </trkpt>
      <trkpt lat="43.510545" lon="-5.531514">
        <ele>133.588</ele>
        <time>2022-08-27T09:17:01Z</time>
      </trkpt>
      <trkpt lat="43.510592" lon="-5.531507">
        <ele>133.772</ele>
        <time>2022-08-27T09:17:03Z</time>
      </trkpt>
      <trkpt lat="43.510642" lon="-5.531504">
        <ele>134.279</ele>
        <time>2022-08-27T09:17:05Z</time>
      </trkpt>
      <trkpt lat="43.510692" lon="-5.531497">
        <ele>134.366</ele>
        <time>2022-08-27T09:17:07Z</time>
      </trkpt>
      <trkpt lat="43.510744" lon="-5.531485">
        <ele>134.462</ele>
        <time>2022-08-27T09:17:09Z</time>
      </trkpt>
      <trkpt lat="43.510796" lon="-5.531472">
        <ele>134.483</ele>
        <time>2022-08-27T09:17:11Z</time>
      </trkpt>
      <trkpt lat="43.510848" lon="-5.531447">
        <ele>134.411</ele>
        <time>2022-08-27T09:17:13Z</time>
      </trkpt>
      <trkpt lat="43.510900" lon="-5.531414">
        <ele>134.409</ele>
        <time>2022-08-27T09:17:15Z</time>
      </trkpt>
      <trkpt lat="43.510943" lon="-5.531367">
        <ele>134.497</ele>
        <time>2022-08-27T09:17:17Z</time>
      </trkpt>
      <trkpt lat="43.510981" lon="-5.531315">
        <ele>134.517</ele>
        <time>2022-08-27T09:17:19Z</time>
      </trkpt>
      <trkpt lat="43.511013" lon="-5.531255">
        <ele>135.038</ele>
        <time>2022-08-27T09:17:21Z</time>
      </trkpt>
      <trkpt lat="43.511038" lon="-5.531195">
        <ele>135.736</ele>
        <time>2022-08-27T09:17:23Z</time>
      </trkpt>
      <trkpt lat="43.511063" lon="-5.531132">
        <ele>136.016</ele>
        <time>2022-08-27T09:17:25Z</time>
      </trkpt>
      <trkpt lat="43.511080" lon="-5.531069">
        <ele>136.252</ele>
        <time>2022-08-27T09:17:27Z</time>
      </trkpt>
      <trkpt lat="43.511100" lon="-5.531009">
        <ele>136.596</ele>
        <time>2022-08-27T09:17:29Z</time>
      </trkpt>
      <trkpt lat="43.511118" lon="-5.530946">
        <ele>136.663</ele>
        <time>2022-08-27T09:17:31Z</time>
      </trkpt>
      <trkpt lat="43.511140" lon="-5.530883">
        <ele>136.720</ele>
        <time>2022-08-27T09:17:33Z</time>
      </trkpt>
      <trkpt lat="43.511163" lon="-5.530820">
        <ele>136.718</ele>
        <time>2022-08-27T09:17:35Z</time>
      </trkpt>
      <trkpt lat="43.511185" lon="-5.530757">
        <ele>136.998</ele>
        <time>2022-08-27T09:17:37Z</time>
      </trkpt>
      <trkpt lat="43.511207" lon="-5.530692">
        <ele>137.017</ele>
        <time>2022-08-27T09:17:39Z</time>
      </trkpt>
      <trkpt lat="43.511234" lon="-5.530629">
        <ele>137.609</ele>
        <time>2022-08-27T09:17:41Z</time>
      </trkpt>
      <trkpt lat="43.511266" lon="-5.530567">
        <ele>137.772</ele>
        <time>2022-08-27T09:17:43Z</time>
      </trkpt>
      <trkpt lat="43.511301" lon="-5.530507">
        <ele>138.032</ele>
        <time>2022-08-27T09:17:45Z</time>
      </trkpt>
      <trkpt lat="43.511336" lon="-5.530447">
        <ele>138.283</ele>
        <time>2022-08-27T09:17:47Z</time>
      </trkpt>
      <trkpt lat="43.511373" lon="-5.530387">
        <ele>138.861</ele>
        <time>2022-08-27T09:17:49Z</time>
      </trkpt>
      <trkpt lat="43.511413" lon="-5.530332">
        <ele>139.041</ele>
        <time>2022-08-27T09:17:51Z</time>
      </trkpt>
      <trkpt lat="43.511455" lon="-5.530272">
        <ele>139.197</ele>
        <time>2022-08-27T09:17:53Z</time>
      </trkpt>
      <trkpt lat="43.511498" lon="-5.530219">
        <ele>139.291</ele>
        <time>2022-08-27T09:17:55Z</time>
      </trkpt>
      <trkpt lat="43.511541" lon="-5.530166">
        <ele>139.518</ele>
        <time>2022-08-27T09:17:57Z</time>
      </trkpt>
      <trkpt lat="43.511583" lon="-5.530109">
        <ele>140.075</ele>
        <time>2022-08-27T09:17:59Z</time>
      </trkpt>
      <trkpt lat="43.511628" lon="-5.530052">
        <ele>140.544</ele>
        <time>2022-08-27T09:18:01Z</time>
      </trkpt>
      <trkpt lat="43.511673" lon="-5.529999">
        <ele>141.005</ele>
        <time>2022-08-27T09:18:03Z</time>
      </trkpt>
      <trkpt lat="43.511720" lon="-5.529951">
        <ele>141.815</ele>
        <time>2022-08-27T09:18:05Z</time>
      </trkpt>
      <trkpt lat="43.511767" lon="-5.529903">
        <ele>142.609</ele>
        <time>2022-08-27T09:18:07Z</time>
      </trkpt>
      <trkpt lat="43.511809" lon="-5.529856">
        <ele>143.585</ele>
        <time>2022-08-27T09:18:09Z</time>
      </trkpt>
      <trkpt lat="43.511852" lon="-5.529808">
        <ele>143.825</ele>
        <time>2022-08-27T09:18:11Z</time>
      </trkpt>
      <trkpt lat="43.511894" lon="-5.529758">
        <ele>144.186</ele>
        <time>2022-08-27T09:18:13Z</time>
      </trkpt>
      <trkpt lat="43.511937" lon="-5.529710">
        <ele>144.454</ele>
        <time>2022-08-27T09:18:15Z</time>
      </trkpt>
      <trkpt lat="43.511977" lon="-5.529665">
        <ele>144.754</ele>
        <time>2022-08-27T09:18:17Z</time>
      </trkpt>
      <trkpt lat="43.512017" lon="-5.529620">
        <ele>145.110</ele>
        <time>2022-08-27T09:18:19Z</time>
      </trkpt>
      <trkpt lat="43.512057" lon="-5.529572">
        <ele>145.624</ele>
        <time>2022-08-27T09:18:21Z</time>
      </trkpt>
      <trkpt lat="43.512100" lon="-5.529527">
        <ele>146.241</ele>
        <time>2022-08-27T09:18:23Z</time>
      </trkpt>
      <trkpt lat="43.512142" lon="-5.529484">
        <ele>147.188</ele>
        <time>2022-08-27T09:18:25Z</time>
      </trkpt>
      <trkpt lat="43.512184" lon="-5.529439">
        <ele>147.985</ele>
        <time>2022-08-27T09:18:27Z</time>
      </trkpt>
      <trkpt lat="43.512222" lon="-5.529399">
        <ele>148.389</ele>
        <time>2022-08-27T09:18:29Z</time>
      </trkpt>
      <trkpt lat="43.512265" lon="-5.529369">
        <ele>148.717</ele>
        <time>2022-08-27T09:18:31Z</time>
      </trkpt>
      <trkpt lat="43.512308" lon="-5.529341">
        <ele>149.209</ele>
        <time>2022-08-27T09:18:33Z</time>
      </trkpt>
      <trkpt lat="43.512351" lon="-5.529318">
        <ele>149.619</ele>
        <time>2022-08-27T09:18:35Z</time>
      </trkpt>
      <trkpt lat="43.512398" lon="-5.529298">
        <ele>149.929</ele>
        <time>2022-08-27T09:18:37Z</time>
      </trkpt>
      <trkpt lat="43.512445" lon="-5.529280">
        <ele>150.020</ele>
        <time>2022-08-27T09:18:39Z</time>
      </trkpt>
      <trkpt lat="43.512492" lon="-5.529260">
        <ele>150.118</ele>
        <time>2022-08-27T09:18:41Z</time>
      </trkpt>
      <trkpt lat="43.512540" lon="-5.529240">
        <ele>150.298</ele>
        <time>2022-08-27T09:18:43Z</time>
      </trkpt>
      <trkpt lat="43.512590" lon="-5.529208">
        <ele>150.324</ele>
        <time>2022-08-27T09:18:45Z</time>
      </trkpt>
      <trkpt lat="43.512640" lon="-5.529170">
        <ele>150.478</ele>
        <time>2022-08-27T09:18:47Z</time>
      </trkpt>
      <trkpt lat="43.512682" lon="-5.529123">
        <ele>150.925</ele>
        <time>2022-08-27T09:18:49Z</time>
      </trkpt>
      <trkpt lat="43.512710" lon="-5.529068">
        <ele>151.782</ele>
        <time>2022-08-27T09:18:51Z</time>
      </trkpt>
      <trkpt lat="43.512735" lon="-5.529010">
        <ele>152.449</ele>
        <time>2022-08-27T09:18:53Z</time>
      </trkpt>
      <trkpt lat="43.512753" lon="-5.528947">
        <ele>153.402</ele>
        <time>2022-08-27T09:18:55Z</time>
      </trkpt>
      <trkpt lat="43.512761" lon="-5.528877">
        <ele>154.222</ele>
        <time>2022-08-27T09:18:57Z</time>
      </trkpt>
      <trkpt lat="43.512763" lon="-5.528809">
        <ele>154.809</ele>
        <time>2022-08-27T09:18:59Z</time>
      </trkpt>
      <trkpt lat="43.512766" lon="-5.528739">
        <ele>155.575</ele>
        <time>2022-08-27T09:19:01Z</time>
      </trkpt>
      <trkpt lat="43.512773" lon="-5.528664">
        <ele>156.375</ele>
        <time>2022-08-27T09:19:03Z</time>
      </trkpt>
      <trkpt lat="43.512776" lon="-5.528592">
        <ele>156.866</ele>
        <time>2022-08-27T09:19:05Z</time>
      </trkpt>
      <trkpt lat="43.512779" lon="-5.528524">
        <ele>156.894</ele>
        <time>2022-08-27T09:19:07Z</time>
      </trkpt>
      <trkpt lat="43.512786" lon="-5.528459">
        <ele>156.884</ele>
        <time>2022-08-27T09:19:09Z</time>
      </trkpt>
      <trkpt lat="43.512793" lon="-5.528396">
        <ele>156.820</ele>
        <time>2022-08-27T09:19:11Z</time>
      </trkpt>
      <trkpt lat="43.512791" lon="-5.528328">
        <ele>156.654</ele>
        <time>2022-08-27T09:19:13Z</time>
      </trkpt>
      <trkpt lat="43.512793" lon="-5.528263">
        <ele>156.761</ele>
        <time>2022-08-27T09:19:15Z</time>
      </trkpt>
      <trkpt lat="43.512801" lon="-5.528198">
        <ele>156.738</ele>
        <time>2022-08-27T09:19:17Z</time>
      </trkpt>
      <trkpt lat="43.512806" lon="-5.528131">
        <ele>156.832</ele>
        <time>2022-08-27T09:19:19Z</time>
      </trkpt>
      <trkpt lat="43.512808" lon="-5.528066">
        <ele>156.992</ele>
        <time>2022-08-27T09:19:21Z</time>
      </trkpt>
      <trkpt lat="43.512808" lon="-5.527996">
        <ele>157.011</ele>
        <time>2022-08-27T09:19:23Z</time>
      </trkpt>
      <trkpt lat="43.512816" lon="-5.527928">
        <ele>157.309</ele>
        <time>2022-08-27T09:19:25Z</time>
      </trkpt>
      <trkpt lat="43.512829" lon="-5.527860">
        <ele>157.834</ele>
        <time>2022-08-27T09:19:27Z</time>
      </trkpt>
      <trkpt lat="43.512832" lon="-5.527792">
        <ele>158.274</ele>
        <time>2022-08-27T09:19:29Z</time>
      </trkpt>
      <trkpt lat="43.512830" lon="-5.527724">
        <ele>158.365</ele>
        <time>2022-08-27T09:19:31Z</time>
      </trkpt>
      <trkpt lat="43.512828" lon="-5.527656">
        <ele>158.913</ele>
        <time>2022-08-27T09:19:33Z</time>
      </trkpt>
      <trkpt lat="43.512833" lon="-5.527581">
        <ele>159.683</ele>
        <time>2022-08-27T09:19:35Z</time>
      </trkpt>
      <trkpt lat="43.512845" lon="-5.527513">
        <ele>159.929</ele>
        <time>2022-08-27T09:19:37Z</time>
      </trkpt>
      <trkpt lat="43.512853" lon="-5.527446">
        <ele>159.913</ele>
        <time>2022-08-27T09:19:39Z</time>
      </trkpt>
      <trkpt lat="43.512865" lon="-5.527378">
        <ele>159.950</ele>
        <time>2022-08-27T09:19:41Z</time>
      </trkpt>
      <trkpt lat="43.512878" lon="-5.527318">
        <ele>159.567</ele>
        <time>2022-08-27T09:19:43Z</time>
      </trkpt>
      <trkpt lat="43.512893" lon="-5.527256">
        <ele>159.593</ele>
        <time>2022-08-27T09:19:45Z</time>
      </trkpt>
      <trkpt lat="43.512901" lon="-5.527194">
        <ele>159.465</ele>
        <time>2022-08-27T09:19:47Z</time>
      </trkpt>
      <trkpt lat="43.512899" lon="-5.527122">
        <ele>159.321</ele>
        <time>2022-08-27T09:19:49Z</time>
      </trkpt>
      <trkpt lat="43.512911" lon="-5.527052">
        <ele>159.209</ele>
        <time>2022-08-27T09:19:51Z</time>
      </trkpt>
      <trkpt lat="43.512924" lon="-5.526980">
        <ele>159.190</ele>
        <time>2022-08-27T09:19:53Z</time>
      </trkpt>
      <trkpt lat="43.512939" lon="-5.526917">
        <ele>159.110</ele>
        <time>2022-08-27T09:19:55Z</time>
      </trkpt>
      <trkpt lat="43.512954" lon="-5.526852">
        <ele>159.161</ele>
        <time>2022-08-27T09:19:57Z</time>
      </trkpt>
      <trkpt lat="43.512971" lon="-5.526787">
        <ele>159.269</ele>
        <time>2022-08-27T09:19:59Z</time>
      </trkpt>
      <trkpt lat="43.512986" lon="-5.526722">
        <ele>159.239</ele>
        <time>2022-08-27T09:20:01Z</time>
      </trkpt>
      <trkpt lat="43.513004" lon="-5.526660">
        <ele>159.385</ele>
        <time>2022-08-27T09:20:03Z</time>
      </trkpt>
      <trkpt lat="43.513024" lon="-5.526597">
        <ele>159.399</ele>
        <time>2022-08-27T09:20:05Z</time>
      </trkpt>
      <trkpt lat="43.513039" lon="-5.526532">
        <ele>159.316</ele>
        <time>2022-08-27T09:20:07Z</time>
      </trkpt>
      <trkpt lat="43.513057" lon="-5.526472">
        <ele>159.423</ele>
        <time>2022-08-27T09:20:09Z</time>
      </trkpt>
      <trkpt lat="43.513075" lon="-5.526409">
        <ele>159.631</ele>
        <time>2022-08-27T09:20:11Z</time>
      </trkpt>
      <trkpt lat="43.513090" lon="-5.526344">
        <ele>160.661</ele>
        <time>2022-08-27T09:20:13Z</time>
      </trkpt>
      <trkpt lat="43.513103" lon="-5.526277">
        <ele>160.707</ele>
        <time>2022-08-27T09:20:15Z</time>
      </trkpt>
      <trkpt lat="43.513115" lon="-5.526212">
        <ele>160.909</ele>
        <time>2022-08-27T09:20:17Z</time>
      </trkpt>
      <trkpt lat="43.513132" lon="-5.526149">
        <ele>161.294</ele>
        <time>2022-08-27T09:20:19Z</time>
      </trkpt>
      <trkpt lat="43.513145" lon="-5.526089">
        <ele>162.024</ele>
        <time>2022-08-27T09:20:21Z</time>
      </trkpt>
      <trkpt lat="43.513170" lon="-5.526007">
        <ele>162.035</ele>
        <time>2022-08-27T09:20:24Z</time>
      </trkpt>
      <trkpt lat="43.513185" lon="-5.525920">
        <ele>162.183</ele>
        <time>2022-08-27T09:20:27Z</time>
      </trkpt>
      <trkpt lat="43.513193" lon="-5.525855">
        <ele>162.283</ele>
        <time>2022-08-27T09:20:29Z</time>
      </trkpt>
      <trkpt lat="43.513205" lon="-5.525790">
        <ele>162.279</ele>
        <time>2022-08-27T09:20:31Z</time>
      </trkpt>
      <trkpt lat="43.513213" lon="-5.525723">
        <ele>162.373</ele>
        <time>2022-08-27T09:20:33Z</time>
      </trkpt>
      <trkpt lat="43.513228" lon="-5.525660">
        <ele>163.050</ele>
        <time>2022-08-27T09:20:35Z</time>
      </trkpt>
      <trkpt lat="43.513241" lon="-5.525593">
        <ele>163.397</ele>
        <time>2022-08-27T09:20:37Z</time>
      </trkpt>
      <trkpt lat="43.513248" lon="-5.525531">
        <ele>163.938</ele>
        <time>2022-08-27T09:20:39Z</time>
      </trkpt>
      <trkpt lat="43.513258" lon="-5.525469">
        <ele>164.670</ele>
        <time>2022-08-27T09:20:41Z</time>
      </trkpt>
      <trkpt lat="43.513268" lon="-5.525404">
        <ele>165.117</ele>
        <time>2022-08-27T09:20:43Z</time>
      </trkpt>
      <trkpt lat="43.513278" lon="-5.525336">
        <ele>165.909</ele>
        <time>2022-08-27T09:20:45Z</time>
      </trkpt>
      <trkpt lat="43.513290" lon="-5.525274">
        <ele>166.784</ele>
        <time>2022-08-27T09:20:47Z</time>
      </trkpt>
      <trkpt lat="43.513302" lon="-5.525214">
        <ele>167.064</ele>
        <time>2022-08-27T09:20:49Z</time>
      </trkpt>
      <trkpt lat="43.513315" lon="-5.525124">
        <ele>167.885</ele>
        <time>2022-08-27T09:20:52Z</time>
      </trkpt>
      <trkpt lat="43.513327" lon="-5.525036">
        <ele>168.093</ele>
        <time>2022-08-27T09:20:55Z</time>
      </trkpt>
      <trkpt lat="43.513334" lon="-5.524973">
        <ele>168.093</ele>
        <time>2022-08-27T09:20:57Z</time>
      </trkpt>
      <trkpt lat="43.513334" lon="-5.524878">
        <ele>168.059</ele>
        <time>2022-08-27T09:21:00Z</time>
      </trkpt>
      <trkpt lat="43.513334" lon="-5.524811">
        <ele>168.233</ele>
        <time>2022-08-27T09:21:02Z</time>
      </trkpt>
      <trkpt lat="43.513324" lon="-5.524743">
        <ele>168.380</ele>
        <time>2022-08-27T09:21:04Z</time>
      </trkpt>
      <trkpt lat="43.513306" lon="-5.524683">
        <ele>168.347</ele>
        <time>2022-08-27T09:21:06Z</time>
      </trkpt>
      <trkpt lat="43.513279" lon="-5.524630">
        <ele>168.398</ele>
        <time>2022-08-27T09:21:08Z</time>
      </trkpt>
      <trkpt lat="43.513246" lon="-5.524577">
        <ele>168.115</ele>
        <time>2022-08-27T09:21:10Z</time>
      </trkpt>
      <trkpt lat="43.513206" lon="-5.524534">
        <ele>168.026</ele>
        <time>2022-08-27T09:21:12Z</time>
      </trkpt>
      <trkpt lat="43.513164" lon="-5.524496">
        <ele>168.009</ele>
        <time>2022-08-27T09:21:14Z</time>
      </trkpt>
      <trkpt lat="43.513117" lon="-5.524468">
        <ele>168.040</ele>
        <time>2022-08-27T09:21:16Z</time>
      </trkpt>
      <trkpt lat="43.513072" lon="-5.524458">
        <ele>168.560</ele>
        <time>2022-08-27T09:21:18Z</time>
      </trkpt>
      <trkpt lat="43.513024" lon="-5.524448">
        <ele>168.961</ele>
        <time>2022-08-27T09:21:20Z</time>
      </trkpt>
      <trkpt lat="43.512976" lon="-5.524433">
        <ele>168.929</ele>
        <time>2022-08-27T09:21:22Z</time>
      </trkpt>
      <trkpt lat="43.512928" lon="-5.524408">
        <ele>169.059</ele>
        <time>2022-08-27T09:21:24Z</time>
      </trkpt>
      <trkpt lat="43.512890" lon="-5.524370">
        <ele>169.985</ele>
        <time>2022-08-27T09:21:26Z</time>
      </trkpt>
      <trkpt lat="43.512858" lon="-5.524315">
        <ele>170.199</ele>
        <time>2022-08-27T09:21:28Z</time>
      </trkpt>
      <trkpt lat="43.512830" lon="-5.524255">
        <ele>170.446</ele>
        <time>2022-08-27T09:21:30Z</time>
      </trkpt>
      <trkpt lat="43.512810" lon="-5.524190">
        <ele>171.133</ele>
        <time>2022-08-27T09:21:32Z</time>
      </trkpt>
      <trkpt lat="43.512793" lon="-5.524120">
        <ele>171.334</ele>
        <time>2022-08-27T09:21:34Z</time>
      </trkpt>
      <trkpt lat="43.512785" lon="-5.524048">
        <ele>171.355</ele>
        <time>2022-08-27T09:21:36Z</time>
      </trkpt>
      <trkpt lat="43.512780" lon="-5.523973">
        <ele>171.510</ele>
        <time>2022-08-27T09:21:38Z</time>
      </trkpt>
      <trkpt lat="43.512775" lon="-5.523895">
        <ele>171.709</ele>
        <time>2022-08-27T09:21:40Z</time>
      </trkpt>
      <trkpt lat="43.512765" lon="-5.523820">
        <ele>171.894</ele>
        <time>2022-08-27T09:21:42Z</time>
      </trkpt>
      <trkpt lat="43.512753" lon="-5.523745">
        <ele>171.944</ele>
        <time>2022-08-27T09:21:44Z</time>
      </trkpt>
      <trkpt lat="43.512740" lon="-5.523677">
        <ele>172.055</ele>
        <time>2022-08-27T09:21:46Z</time>
      </trkpt>
      <trkpt lat="43.512730" lon="-5.523599">
        <ele>172.393</ele>
        <time>2022-08-27T09:21:48Z</time>
      </trkpt>
      <trkpt lat="43.512718" lon="-5.523524">
        <ele>173.083</ele>
        <time>2022-08-27T09:21:50Z</time>
      </trkpt>
      <trkpt lat="43.512708" lon="-5.523449">
        <ele>173.099</ele>
        <time>2022-08-27T09:21:52Z</time>
      </trkpt>
      <trkpt lat="43.512705" lon="-5.523371">
        <ele>173.253</ele>
        <time>2022-08-27T09:21:54Z</time>
      </trkpt>
      <trkpt lat="43.512697" lon="-5.523291">
        <ele>173.340</ele>
        <time>2022-08-27T09:21:56Z</time>
      </trkpt>
      <trkpt lat="43.512695" lon="-5.523213">
        <ele>173.557</ele>
        <time>2022-08-27T09:21:58Z</time>
      </trkpt>
      <trkpt lat="43.512702" lon="-5.523136">
        <ele>173.858</ele>
        <time>2022-08-27T09:22:00Z</time>
      </trkpt>
      <trkpt lat="43.512707" lon="-5.523059">
        <ele>174.552</ele>
        <time>2022-08-27T09:22:02Z</time>
      </trkpt>
      <trkpt lat="43.512715" lon="-5.522986">
        <ele>174.617</ele>
        <time>2022-08-27T09:22:04Z</time>
      </trkpt>
      <trkpt lat="43.512730" lon="-5.522909">
        <ele>174.709</ele>
        <time>2022-08-27T09:22:06Z</time>
      </trkpt>
      <trkpt lat="43.512745" lon="-5.522837">
        <ele>174.826</ele>
        <time>2022-08-27T09:22:08Z</time>
      </trkpt>
      <trkpt lat="43.512763" lon="-5.522767">
        <ele>174.896</ele>
        <time>2022-08-27T09:22:10Z</time>
      </trkpt>
      <trkpt lat="43.512783" lon="-5.522699">
        <ele>175.017</ele>
        <time>2022-08-27T09:22:12Z</time>
      </trkpt>
      <trkpt lat="43.512803" lon="-5.522631">
        <ele>175.025</ele>
        <time>2022-08-27T09:22:14Z</time>
      </trkpt>
      <trkpt lat="43.512828" lon="-5.522559">
        <ele>175.075</ele>
        <time>2022-08-27T09:22:16Z</time>
      </trkpt>
      <trkpt lat="43.512850" lon="-5.522486">
        <ele>175.061</ele>
        <time>2022-08-27T09:22:18Z</time>
      </trkpt>
      <trkpt lat="43.512872" lon="-5.522413">
        <ele>175.025</ele>
        <time>2022-08-27T09:22:20Z</time>
      </trkpt>
      <trkpt lat="43.512892" lon="-5.522340">
        <ele>175.022</ele>
        <time>2022-08-27T09:22:22Z</time>
      </trkpt>
      <trkpt lat="43.512914" lon="-5.522263">
        <ele>175.159</ele>
        <time>2022-08-27T09:22:24Z</time>
      </trkpt>
      <trkpt lat="43.512936" lon="-5.522191">
        <ele>175.336</ele>
        <time>2022-08-27T09:22:26Z</time>
      </trkpt>
      <trkpt lat="43.512959" lon="-5.522118">
        <ele>175.517</ele>
        <time>2022-08-27T09:22:28Z</time>
      </trkpt>
      <trkpt lat="43.512977" lon="-5.522043">
        <ele>175.718</ele>
        <time>2022-08-27T09:22:30Z</time>
      </trkpt>
      <trkpt lat="43.512999" lon="-5.521971">
        <ele>176.009</ele>
        <time>2022-08-27T09:22:32Z</time>
      </trkpt>
      <trkpt lat="43.513017" lon="-5.521894">
        <ele>176.314</ele>
        <time>2022-08-27T09:22:34Z</time>
      </trkpt>
      <trkpt lat="43.513037" lon="-5.521822">
        <ele>176.844</ele>
        <time>2022-08-27T09:22:36Z</time>
      </trkpt>
      <trkpt lat="43.513057" lon="-5.521755">
        <ele>177.185</ele>
        <time>2022-08-27T09:22:38Z</time>
      </trkpt>
      <trkpt lat="43.513074" lon="-5.521687">
        <ele>177.253</ele>
        <time>2022-08-27T09:22:40Z</time>
      </trkpt>
      <trkpt lat="43.513094" lon="-5.521617">
        <ele>177.363</ele>
        <time>2022-08-27T09:22:42Z</time>
      </trkpt>
      <trkpt lat="43.513117" lon="-5.521552">
        <ele>177.739</ele>
        <time>2022-08-27T09:22:44Z</time>
      </trkpt>
      <trkpt lat="43.513135" lon="-5.521484">
        <ele>178.143</ele>
        <time>2022-08-27T09:22:46Z</time>
      </trkpt>
      <trkpt lat="43.513153" lon="-5.521417">
        <ele>178.460</ele>
        <time>2022-08-27T09:22:48Z</time>
      </trkpt>
      <trkpt lat="43.513173" lon="-5.521352">
        <ele>178.687</ele>
        <time>2022-08-27T09:22:50Z</time>
      </trkpt>
      <trkpt lat="43.513195" lon="-5.521289">
        <ele>178.779</ele>
        <time>2022-08-27T09:22:52Z</time>
      </trkpt>
      <trkpt lat="43.513213" lon="-5.521224">
        <ele>178.805</ele>
        <time>2022-08-27T09:22:54Z</time>
      </trkpt>
      <trkpt lat="43.513231" lon="-5.521159">
        <ele>179.025</ele>
        <time>2022-08-27T09:22:56Z</time>
      </trkpt>
      <trkpt lat="43.513249" lon="-5.521092">
        <ele>179.209</ele>
        <time>2022-08-27T09:22:58Z</time>
      </trkpt>
      <trkpt lat="43.513267" lon="-5.521029">
        <ele>179.638</ele>
        <time>2022-08-27T09:23:00Z</time>
      </trkpt>
      <trkpt lat="43.513287" lon="-5.520964">
        <ele>179.928</ele>
        <time>2022-08-27T09:23:02Z</time>
      </trkpt>
      <trkpt lat="43.513310" lon="-5.520901">
        <ele>180.879</ele>
        <time>2022-08-27T09:23:04Z</time>
      </trkpt>
      <trkpt lat="43.513328" lon="-5.520836">
        <ele>181.467</ele>
        <time>2022-08-27T09:23:06Z</time>
      </trkpt>
      <trkpt lat="43.513348" lon="-5.520764">
        <ele>181.597</ele>
        <time>2022-08-27T09:23:08Z</time>
      </trkpt>
      <trkpt lat="43.513365" lon="-5.520691">
        <ele>181.663</ele>
        <time>2022-08-27T09:23:10Z</time>
      </trkpt>
      <trkpt lat="43.513378" lon="-5.520621">
        <ele>181.697</ele>
        <time>2022-08-27T09:23:12Z</time>
      </trkpt>
      <trkpt lat="43.513391" lon="-5.520546">
        <ele>181.674</ele>
        <time>2022-08-27T09:23:14Z</time>
      </trkpt>
      <trkpt lat="43.513396" lon="-5.520469">
        <ele>181.881</ele>
        <time>2022-08-27T09:23:16Z</time>
      </trkpt>
      <trkpt lat="43.513389" lon="-5.520392">
        <ele>182.075</ele>
        <time>2022-08-27T09:23:18Z</time>
      </trkpt>
      <trkpt lat="43.513377" lon="-5.520317">
        <ele>182.128</ele>
        <time>2022-08-27T09:23:20Z</time>
      </trkpt>
      <trkpt lat="43.513362" lon="-5.520247">
        <ele>182.820</ele>
        <time>2022-08-27T09:23:22Z</time>
      </trkpt>
      <trkpt lat="43.513347" lon="-5.520170">
        <ele>183.609</ele>
        <time>2022-08-27T09:23:24Z</time>
      </trkpt>
      <trkpt lat="43.513332" lon="-5.520090">
        <ele>184.328</ele>
        <time>2022-08-27T09:23:26Z</time>
      </trkpt>
      <trkpt lat="43.513317" lon="-5.520013">
        <ele>185.128</ele>
        <time>2022-08-27T09:23:28Z</time>
      </trkpt>
      <trkpt lat="43.513299" lon="-5.519941">
        <ele>185.759</ele>
        <time>2022-08-27T09:23:30Z</time>
      </trkpt>
      <trkpt lat="43.513286" lon="-5.519859">
        <ele>186.287</ele>
        <time>2022-08-27T09:23:32Z</time>
      </trkpt>
      <trkpt lat="43.513269" lon="-5.519777">
        <ele>186.747</ele>
        <time>2022-08-27T09:23:34Z</time>
      </trkpt>
      <trkpt lat="43.513259" lon="-5.519695">
        <ele>187.273</ele>
        <time>2022-08-27T09:23:36Z</time>
      </trkpt>
      <trkpt lat="43.513252" lon="-5.519607">
        <ele>187.877</ele>
        <time>2022-08-27T09:23:38Z</time>
      </trkpt>
      <trkpt lat="43.513249" lon="-5.519515">
        <ele>187.974</ele>
        <time>2022-08-27T09:23:40Z</time>
      </trkpt>
      <trkpt lat="43.513251" lon="-5.519422">
        <ele>188.071</ele>
        <time>2022-08-27T09:23:42Z</time>
      </trkpt>
      <trkpt lat="43.513261" lon="-5.519330">
        <ele>188.321</ele>
        <time>2022-08-27T09:23:44Z</time>
      </trkpt>
      <trkpt lat="43.513278" lon="-5.519243">
        <ele>188.341</ele>
        <time>2022-08-27T09:23:46Z</time>
      </trkpt>
      <trkpt lat="43.513305" lon="-5.519166">
        <ele>188.305</ele>
        <time>2022-08-27T09:23:48Z</time>
      </trkpt>
      <trkpt lat="43.513337" lon="-5.519093">
        <ele>188.309</ele>
        <time>2022-08-27T09:23:50Z</time>
      </trkpt>
      <trkpt lat="43.513374" lon="-5.519018">
        <ele>188.383</ele>
        <time>2022-08-27T09:23:52Z</time>
      </trkpt>
      <trkpt lat="43.513412" lon="-5.518946">
        <ele>188.253</ele>
        <time>2022-08-27T09:23:54Z</time>
      </trkpt>
      <trkpt lat="43.513445" lon="-5.518876">
        <ele>188.014</ele>
        <time>2022-08-27T09:23:56Z</time>
      </trkpt>
      <trkpt lat="43.513483" lon="-5.518809">
        <ele>187.922</ele>
        <time>2022-08-27T09:23:58Z</time>
      </trkpt>
      <trkpt lat="43.513515" lon="-5.518741">
        <ele>187.832</ele>
        <time>2022-08-27T09:24:00Z</time>
      </trkpt>
      <trkpt lat="43.513540" lon="-5.518666">
        <ele>187.718</ele>
        <time>2022-08-27T09:24:02Z</time>
      </trkpt>
      <trkpt lat="43.513557" lon="-5.518583">
        <ele>187.812</ele>
        <time>2022-08-27T09:24:04Z</time>
      </trkpt>
      <trkpt lat="43.513567" lon="-5.518495">
        <ele>187.819</ele>
        <time>2022-08-27T09:24:06Z</time>
      </trkpt>
      <trkpt lat="43.513564" lon="-5.518407">
        <ele>188.036</ele>
        <time>2022-08-27T09:24:08Z</time>
      </trkpt>
      <trkpt lat="43.513551" lon="-5.518322">
        <ele>188.235</ele>
        <time>2022-08-27T09:24:10Z</time>
      </trkpt>
      <trkpt lat="43.513531" lon="-5.518244">
        <ele>188.986</ele>
        <time>2022-08-27T09:24:12Z</time>
      </trkpt>
      <trkpt lat="43.513508" lon="-5.518169">
        <ele>189.614</ele>
        <time>2022-08-27T09:24:14Z</time>
      </trkpt>
      <trkpt lat="43.513485" lon="-5.518106">
        <ele>190.109</ele>
        <time>2022-08-27T09:24:16Z</time>
      </trkpt>
      <trkpt lat="43.513458" lon="-5.518046">
        <ele>190.574</ele>
        <time>2022-08-27T09:24:18Z</time>
      </trkpt>
      <trkpt lat="43.513425" lon="-5.517986">
        <ele>190.634</ele>
        <time>2022-08-27T09:24:20Z</time>
      </trkpt>
      <trkpt lat="43.513392" lon="-5.517914">
        <ele>190.725</ele>
        <time>2022-08-27T09:24:22Z</time>
      </trkpt>
      <trkpt lat="43.513362" lon="-5.517827">
        <ele>191.253</ele>
        <time>2022-08-27T09:24:24Z</time>
      </trkpt>
      <trkpt lat="43.513347" lon="-5.517742">
        <ele>192.253</ele>
        <time>2022-08-27T09:24:26Z</time>
      </trkpt>
      <trkpt lat="43.513349" lon="-5.517649">
        <ele>192.819</ele>
        <time>2022-08-27T09:24:28Z</time>
      </trkpt>
      <trkpt lat="43.513361" lon="-5.517561">
        <ele>193.053</ele>
        <time>2022-08-27T09:24:30Z</time>
      </trkpt>
      <trkpt lat="43.513379" lon="-5.517479">
        <ele>193.160</ele>
        <time>2022-08-27T09:24:32Z</time>
      </trkpt>
      <trkpt lat="43.513404" lon="-5.517396">
        <ele>193.267</ele>
        <time>2022-08-27T09:24:34Z</time>
      </trkpt>
      <trkpt lat="43.513432" lon="-5.517313">
        <ele>193.236</ele>
        <time>2022-08-27T09:24:36Z</time>
      </trkpt>
      <trkpt lat="43.513459" lon="-5.517233">
        <ele>193.217</ele>
        <time>2022-08-27T09:24:38Z</time>
      </trkpt>
      <trkpt lat="43.513481" lon="-5.517155">
        <ele>193.418</ele>
        <time>2022-08-27T09:24:40Z</time>
      </trkpt>
      <trkpt lat="43.513493" lon="-5.517075">
        <ele>193.709</ele>
        <time>2022-08-27T09:24:42Z</time>
      </trkpt>
      <trkpt lat="43.513491" lon="-5.516995">
        <ele>194.044</ele>
        <time>2022-08-27T09:24:44Z</time>
      </trkpt>
      <trkpt lat="43.513483" lon="-5.516917">
        <ele>194.644</ele>
        <time>2022-08-27T09:24:46Z</time>
      </trkpt>
      <trkpt lat="43.513475" lon="-5.516850">
        <ele>195.095</ele>
        <time>2022-08-27T09:24:48Z</time>
      </trkpt>
      <trkpt lat="43.513453" lon="-5.516780">
        <ele>195.753</ele>
        <time>2022-08-27T09:24:50Z</time>
      </trkpt>
      <trkpt lat="43.513426" lon="-5.516695">
        <ele>196.423</ele>
        <time>2022-08-27T09:24:52Z</time>
      </trkpt>
      <trkpt lat="43.513404" lon="-5.516620">
        <ele>196.919</ele>
        <time>2022-08-27T09:24:54Z</time>
      </trkpt>
      <trkpt lat="43.513381" lon="-5.516552">
        <ele>197.883</ele>
        <time>2022-08-27T09:24:56Z</time>
      </trkpt>
      <trkpt lat="43.513366" lon="-5.516484">
        <ele>198.190</ele>
        <time>2022-08-27T09:24:58Z</time>
      </trkpt>
      <trkpt lat="43.513354" lon="-5.516414">
        <ele>198.677</ele>
        <time>2022-08-27T09:25:00Z</time>
      </trkpt>
      <trkpt lat="43.513347" lon="-5.516341">
        <ele>198.647</ele>
        <time>2022-08-27T09:25:02Z</time>
      </trkpt>
      <trkpt lat="43.513344" lon="-5.516271">
        <ele>198.529</ele>
        <time>2022-08-27T09:25:04Z</time>
      </trkpt>
      <trkpt lat="43.513341" lon="-5.516204">
        <ele>198.521</ele>
        <time>2022-08-27T09:25:06Z</time>
      </trkpt>
      <trkpt lat="43.513344" lon="-5.516127">
        <ele>198.509</ele>
        <time>2022-08-27T09:25:08Z</time>
      </trkpt>
      <trkpt lat="43.513349" lon="-5.516052">
        <ele>198.555</ele>
        <time>2022-08-27T09:25:10Z</time>
      </trkpt>
      <trkpt lat="43.513356" lon="-5.515972">
        <ele>198.775</ele>
        <time>2022-08-27T09:25:12Z</time>
      </trkpt>
      <trkpt lat="43.513359" lon="-5.515890">
        <ele>198.816</ele>
        <time>2022-08-27T09:25:14Z</time>
      </trkpt>
      <trkpt lat="43.513362" lon="-5.515808">
        <ele>199.054</ele>
        <time>2022-08-27T09:25:16Z</time>
      </trkpt>
      <trkpt lat="43.513364" lon="-5.515726">
        <ele>199.264</ele>
        <time>2022-08-27T09:25:18Z</time>
      </trkpt>
      <trkpt lat="43.513367" lon="-5.515648">
        <ele>199.590</ele>
        <time>2022-08-27T09:25:20Z</time>
      </trkpt>
      <trkpt lat="43.513365" lon="-5.515570">
        <ele>199.694</ele>
        <time>2022-08-27T09:25:22Z</time>
      </trkpt>
      <trkpt lat="43.513348" lon="-5.515497">
        <ele>199.771</ele>
        <time>2022-08-27T09:25:24Z</time>
      </trkpt>
      <trkpt lat="43.513323" lon="-5.515425">
        <ele>199.938</ele>
        <time>2022-08-27T09:25:26Z</time>
      </trkpt>
      <trkpt lat="43.513303" lon="-5.515355">
        <ele>199.961</ele>
        <time>2022-08-27T09:25:28Z</time>
      </trkpt>
      <trkpt lat="43.513288" lon="-5.515283">
        <ele>200.121</ele>
        <time>2022-08-27T09:25:30Z</time>
      </trkpt>
      <trkpt lat="43.513265" lon="-5.515210">
        <ele>200.513</ele>
        <time>2022-08-27T09:25:32Z</time>
      </trkpt>
      <trkpt lat="43.513237" lon="-5.515137">
        <ele>200.609</ele>
        <time>2022-08-27T09:25:34Z</time>
      </trkpt>
      <trkpt lat="43.513219" lon="-5.515060">
        <ele>200.637</ele>
        <time>2022-08-27T09:25:36Z</time>
      </trkpt>
      <trkpt lat="43.513199" lon="-5.514980">
        <ele>201.267</ele>
        <time>2022-08-27T09:25:38Z</time>
      </trkpt>
      <trkpt lat="43.513189" lon="-5.514897">
        <ele>201.858</ele>
        <time>2022-08-27T09:25:40Z</time>
      </trkpt>
      <trkpt lat="43.513186" lon="-5.514819">
        <ele>202.166</ele>
        <time>2022-08-27T09:25:42Z</time>
      </trkpt>
      <trkpt lat="43.513191" lon="-5.514737">
        <ele>202.036</ele>
        <time>2022-08-27T09:25:44Z</time>
      </trkpt>
      <trkpt lat="43.513196" lon="-5.514659">
        <ele>202.052</ele>
        <time>2022-08-27T09:25:46Z</time>
      </trkpt>
      <trkpt lat="43.513204" lon="-5.514579">
        <ele>201.776</ele>
        <time>2022-08-27T09:25:48Z</time>
      </trkpt>
      <trkpt lat="43.513212" lon="-5.514494">
        <ele>201.283</ele>
        <time>2022-08-27T09:25:50Z</time>
      </trkpt>
      <trkpt lat="43.513219" lon="-5.514407">
        <ele>201.180</ele>
        <time>2022-08-27T09:25:52Z</time>
      </trkpt>
      <trkpt lat="43.513226" lon="-5.514324">
        <ele>201.069</ele>
        <time>2022-08-27T09:25:54Z</time>
      </trkpt>
      <trkpt lat="43.513233" lon="-5.514239">
        <ele>200.904</ele>
        <time>2022-08-27T09:25:56Z</time>
      </trkpt>
      <trkpt lat="43.513241" lon="-5.514159">
        <ele>200.924</ele>
        <time>2022-08-27T09:25:58Z</time>
      </trkpt>
      <trkpt lat="43.513248" lon="-5.514079">
        <ele>200.609</ele>
        <time>2022-08-27T09:26:00Z</time>
      </trkpt>
      <trkpt lat="43.513256" lon="-5.513997">
        <ele>200.577</ele>
        <time>2022-08-27T09:26:02Z</time>
      </trkpt>
      <trkpt lat="43.513268" lon="-5.513915">
        <ele>200.667</ele>
        <time>2022-08-27T09:26:04Z</time>
      </trkpt>
      <trkpt lat="43.513291" lon="-5.513837">
        <ele>200.758</ele>
        <time>2022-08-27T09:26:06Z</time>
      </trkpt>
      <trkpt lat="43.513309" lon="-5.513759">
        <ele>201.496</ele>
        <time>2022-08-27T09:26:08Z</time>
      </trkpt>
      <trkpt lat="43.513326" lon="-5.513674">
        <ele>202.566</ele>
        <time>2022-08-27T09:26:10Z</time>
      </trkpt>
      <trkpt lat="43.513343" lon="-5.513589">
        <ele>202.992</ele>
        <time>2022-08-27T09:26:12Z</time>
      </trkpt>
      <trkpt lat="43.513361" lon="-5.513504">
        <ele>202.946</ele>
        <time>2022-08-27T09:26:14Z</time>
      </trkpt>
      <trkpt lat="43.513378" lon="-5.513421">
        <ele>203.453</ele>
        <time>2022-08-27T09:26:16Z</time>
      </trkpt>
      <trkpt lat="43.513391" lon="-5.513338">
        <ele>203.630</ele>
        <time>2022-08-27T09:26:18Z</time>
      </trkpt>
      <trkpt lat="43.513403" lon="-5.513253">
        <ele>203.949</ele>
        <time>2022-08-27T09:26:20Z</time>
      </trkpt>
      <trkpt lat="43.513416" lon="-5.513170">
        <ele>204.202</ele>
        <time>2022-08-27T09:26:22Z</time>
      </trkpt>
      <trkpt lat="43.513428" lon="-5.513088">
        <ele>205.222</ele>
        <time>2022-08-27T09:26:24Z</time>
      </trkpt>
      <trkpt lat="43.513440" lon="-5.513011">
        <ele>205.909</ele>
        <time>2022-08-27T09:26:26Z</time>
      </trkpt>
      <trkpt lat="43.513455" lon="-5.512931">
        <ele>206.665</ele>
        <time>2022-08-27T09:26:28Z</time>
      </trkpt>
      <trkpt lat="43.513472" lon="-5.512851">
        <ele>207.215</ele>
        <time>2022-08-27T09:26:30Z</time>
      </trkpt>
      <trkpt lat="43.513487" lon="-5.512776">
        <ele>207.496</ele>
        <time>2022-08-27T09:26:32Z</time>
      </trkpt>
      <trkpt lat="43.513500" lon="-5.512703">
        <ele>207.894</ele>
        <time>2022-08-27T09:26:34Z</time>
      </trkpt>
      <trkpt lat="43.513515" lon="-5.512633">
        <ele>207.914</ele>
        <time>2022-08-27T09:26:36Z</time>
      </trkpt>
      <trkpt lat="43.513523" lon="-5.512558">
        <ele>208.040</ele>
        <time>2022-08-27T09:26:38Z</time>
      </trkpt>
      <trkpt lat="43.513533" lon="-5.512480">
        <ele>208.284</ele>
        <time>2022-08-27T09:26:40Z</time>
      </trkpt>
      <trkpt lat="43.513543" lon="-5.512403">
        <ele>208.461</ele>
        <time>2022-08-27T09:26:42Z</time>
      </trkpt>
      <trkpt lat="43.513553" lon="-5.512328">
        <ele>208.678</ele>
        <time>2022-08-27T09:26:44Z</time>
      </trkpt>
      <trkpt lat="43.513560" lon="-5.512251">
        <ele>209.026</ele>
        <time>2022-08-27T09:26:46Z</time>
      </trkpt>
      <trkpt lat="43.513570" lon="-5.512174">
        <ele>209.547</ele>
        <time>2022-08-27T09:26:48Z</time>
      </trkpt>
      <trkpt lat="43.513578" lon="-5.512096">
        <ele>210.211</ele>
        <time>2022-08-27T09:26:50Z</time>
      </trkpt>
      <trkpt lat="43.513586" lon="-5.512016">
        <ele>210.809</ele>
        <time>2022-08-27T09:26:52Z</time>
      </trkpt>
      <trkpt lat="43.513596" lon="-5.511938">
        <ele>211.653</ele>
        <time>2022-08-27T09:26:54Z</time>
      </trkpt>
      <trkpt lat="43.513606" lon="-5.511861">
        <ele>212.283</ele>
        <time>2022-08-27T09:26:56Z</time>
      </trkpt>
      <trkpt lat="43.513616" lon="-5.511788">
        <ele>213.194</ele>
        <time>2022-08-27T09:26:58Z</time>
      </trkpt>
      <trkpt lat="43.513626" lon="-5.511713">
        <ele>213.612</ele>
        <time>2022-08-27T09:27:00Z</time>
      </trkpt>
      <trkpt lat="43.513639" lon="-5.511638">
        <ele>213.962</ele>
        <time>2022-08-27T09:27:02Z</time>
      </trkpt>
      <trkpt lat="43.513649" lon="-5.511563">
        <ele>214.068</ele>
        <time>2022-08-27T09:27:04Z</time>
      </trkpt>
      <trkpt lat="43.513656" lon="-5.511485">
        <ele>214.092</ele>
        <time>2022-08-27T09:27:06Z</time>
      </trkpt>
      <trkpt lat="43.513663" lon="-5.511402">
        <ele>214.139</ele>
        <time>2022-08-27T09:27:08Z</time>
      </trkpt>
      <trkpt lat="43.513671" lon="-5.511320">
        <ele>214.296</ele>
        <time>2022-08-27T09:27:10Z</time>
      </trkpt>
      <trkpt lat="43.513679" lon="-5.511240">
        <ele>214.426</ele>
        <time>2022-08-27T09:27:12Z</time>
      </trkpt>
      <trkpt lat="43.513687" lon="-5.511168">
        <ele>214.447</ele>
        <time>2022-08-27T09:27:14Z</time>
      </trkpt>
      <trkpt lat="43.513694" lon="-5.511096">
        <ele>214.511</ele>
        <time>2022-08-27T09:27:16Z</time>
      </trkpt>
      <trkpt lat="43.513697" lon="-5.511023">
        <ele>214.509</ele>
        <time>2022-08-27T09:27:18Z</time>
      </trkpt>
      <trkpt lat="43.513705" lon="-5.510948">
        <ele>214.513</ele>
        <time>2022-08-27T09:27:20Z</time>
      </trkpt>
      <trkpt lat="43.513708" lon="-5.510878">
        <ele>214.543</ele>
        <time>2022-08-27T09:27:22Z</time>
      </trkpt>
      <trkpt lat="43.513713" lon="-5.510810">
        <ele>214.644</ele>
        <time>2022-08-27T09:27:24Z</time>
      </trkpt>
      <trkpt lat="43.513723" lon="-5.510740">
        <ele>214.792</ele>
        <time>2022-08-27T09:27:26Z</time>
      </trkpt>
      <trkpt lat="43.513726" lon="-5.510668">
        <ele>214.712</ele>
        <time>2022-08-27T09:27:28Z</time>
      </trkpt>
      <trkpt lat="43.513728" lon="-5.510595">
        <ele>214.728</ele>
        <time>2022-08-27T09:27:30Z</time>
      </trkpt>
      <trkpt lat="43.513726" lon="-5.510520">
        <ele>214.772</ele>
        <time>2022-08-27T09:27:32Z</time>
      </trkpt>
      <trkpt lat="43.513733" lon="-5.510442">
        <ele>214.789</ele>
        <time>2022-08-27T09:27:34Z</time>
      </trkpt>
      <trkpt lat="43.513743" lon="-5.510364">
        <ele>214.576</ele>
        <time>2022-08-27T09:27:36Z</time>
      </trkpt>
      <trkpt lat="43.513755" lon="-5.510291">
        <ele>214.442</ele>
        <time>2022-08-27T09:27:38Z</time>
      </trkpt>
      <trkpt lat="43.513763" lon="-5.510216">
        <ele>214.322</ele>
        <time>2022-08-27T09:27:40Z</time>
      </trkpt>
      <trkpt lat="43.513770" lon="-5.510141">
        <ele>213.914</ele>
        <time>2022-08-27T09:27:42Z</time>
      </trkpt>
      <trkpt lat="43.513787" lon="-5.510063">
        <ele>213.809</ele>
        <time>2022-08-27T09:27:44Z</time>
      </trkpt>
      <trkpt lat="43.513792" lon="-5.509983">
        <ele>213.845</ele>
        <time>2022-08-27T09:27:46Z</time>
      </trkpt>
      <trkpt lat="43.513792" lon="-5.509901">
        <ele>213.965</ele>
        <time>2022-08-27T09:27:48Z</time>
      </trkpt>
      <trkpt lat="43.513790" lon="-5.509819">
        <ele>214.266</ele>
        <time>2022-08-27T09:27:50Z</time>
      </trkpt>
      <trkpt lat="43.513790" lon="-5.509739">
        <ele>214.484</ele>
        <time>2022-08-27T09:27:52Z</time>
      </trkpt>
      <trkpt lat="43.513793" lon="-5.509656">
        <ele>214.824</ele>
        <time>2022-08-27T09:27:54Z</time>
      </trkpt>
      <trkpt lat="43.513798" lon="-5.509569">
        <ele>215.290</ele>
        <time>2022-08-27T09:27:56Z</time>
      </trkpt>
      <trkpt lat="43.513793" lon="-5.509484">
        <ele>215.784</ele>
        <time>2022-08-27T09:27:58Z</time>
      </trkpt>
      <trkpt lat="43.513795" lon="-5.509401">
        <ele>216.331</ele>
        <time>2022-08-27T09:28:00Z</time>
      </trkpt>
      <trkpt lat="43.513802" lon="-5.509316">
        <ele>216.528</ele>
        <time>2022-08-27T09:28:02Z</time>
      </trkpt>
      <trkpt lat="43.513792" lon="-5.509241">
        <ele>217.144</ele>
        <time>2022-08-27T09:28:04Z</time>
      </trkpt>
      <trkpt lat="43.513785" lon="-5.509179">
        <ele>217.605</ele>
        <time>2022-08-27T09:28:06Z</time>
      </trkpt>
      <trkpt lat="43.513793" lon="-5.509112">
        <ele>217.815</ele>
        <time>2022-08-27T09:28:09Z</time>
      </trkpt>
      <trkpt lat="43.513811" lon="-5.509042">
        <ele>217.809</ele>
        <time>2022-08-27T09:28:12Z</time>
      </trkpt>
      <trkpt lat="43.513809" lon="-5.508967">
        <ele>217.825</ele>
        <time>2022-08-27T09:28:15Z</time>
      </trkpt>
      <trkpt lat="43.513816" lon="-5.508900">
        <ele>217.835</ele>
        <time>2022-08-27T09:28:17Z</time>
      </trkpt>
      <trkpt lat="43.513839" lon="-5.508812">
        <ele>218.086</ele>
        <time>2022-08-27T09:28:20Z</time>
      </trkpt>
      <trkpt lat="43.513861" lon="-5.508752">
        <ele>218.194</ele>
        <time>2022-08-27T09:28:22Z</time>
      </trkpt>
      <trkpt lat="43.513861" lon="-5.508662">
        <ele>219.694</ele>
        <time>2022-08-27T09:28:25Z</time>
      </trkpt>
      <trkpt lat="43.513866" lon="-5.508597">
        <ele>221.360</ele>
        <time>2022-08-27T09:28:27Z</time>
      </trkpt>
      <trkpt lat="43.513869" lon="-5.508532">
        <ele>221.584</ele>
        <time>2022-08-27T09:28:29Z</time>
      </trkpt>
      <trkpt lat="43.513867" lon="-5.508447">
        <ele>221.561</ele>
        <time>2022-08-27T09:28:32Z</time>
      </trkpt>
      <trkpt lat="43.513872" lon="-5.508374">
        <ele>221.228</ele>
        <time>2022-08-27T09:28:35Z</time>
      </trkpt>
      <trkpt lat="43.513874" lon="-5.508294">
        <ele>220.462</ele>
        <time>2022-08-27T09:28:38Z</time>
      </trkpt>
      <trkpt lat="43.513869" lon="-5.508201">
        <ele>219.983</ele>
        <time>2022-08-27T09:28:41Z</time>
      </trkpt>
      <trkpt lat="43.513869" lon="-5.508134">
        <ele>219.711</ele>
        <time>2022-08-27T09:28:43Z</time>
      </trkpt>
      <trkpt lat="43.513876" lon="-5.508066">
        <ele>219.609</ele>
        <time>2022-08-27T09:28:45Z</time>
      </trkpt>
      <trkpt lat="43.513883" lon="-5.508003">
        <ele>219.447</ele>
        <time>2022-08-27T09:28:47Z</time>
      </trkpt>
      <trkpt lat="43.513893" lon="-5.507938">
        <ele>219.427</ele>
        <time>2022-08-27T09:28:49Z</time>
      </trkpt>
      <trkpt lat="43.513903" lon="-5.507870">
        <ele>219.218</ele>
        <time>2022-08-27T09:28:51Z</time>
      </trkpt>
      <trkpt lat="43.513911" lon="-5.507798">
        <ele>218.616</ele>
        <time>2022-08-27T09:28:53Z</time>
      </trkpt>
      <trkpt lat="43.513914" lon="-5.507725">
        <ele>218.566</ele>
        <time>2022-08-27T09:28:55Z</time>
      </trkpt>
      <trkpt lat="43.513914" lon="-5.507650">
        <ele>218.452</ele>
        <time>2022-08-27T09:28:57Z</time>
      </trkpt>
      <trkpt lat="43.513917" lon="-5.507583">
        <ele>218.426</ele>
        <time>2022-08-27T09:28:59Z</time>
      </trkpt>
      <trkpt lat="43.513932" lon="-5.507520">
        <ele>218.413</ele>
        <time>2022-08-27T09:29:01Z</time>
      </trkpt>
      <trkpt lat="43.513935" lon="-5.507432">
        <ele>218.440</ele>
        <time>2022-08-27T09:29:04Z</time>
      </trkpt>
      <trkpt lat="43.513917" lon="-5.507365">
        <ele>221.571</ele>
        <time>2022-08-27T09:29:32Z</time>
      </trkpt>
      <trkpt lat="43.513924" lon="-5.507268">
        <ele>221.541</ele>
        <time>2022-08-27T09:29:35Z</time>
      </trkpt>
      <trkpt lat="43.513921" lon="-5.507188">
        <ele>221.515</ele>
        <time>2022-08-27T09:29:37Z</time>
      </trkpt>
      <trkpt lat="43.513923" lon="-5.507106">
        <ele>221.509</ele>
        <time>2022-08-27T09:29:39Z</time>
      </trkpt>
      <trkpt lat="43.513915" lon="-5.507021">
        <ele>221.578</ele>
        <time>2022-08-27T09:29:41Z</time>
      </trkpt>
      <trkpt lat="43.513895" lon="-5.506926">
        <ele>220.168</ele>
        <time>2022-08-27T09:29:43Z</time>
      </trkpt>
      <trkpt lat="43.513868" lon="-5.506819">
        <ele>220.169</ele>
        <time>2022-08-27T09:29:45Z</time>
      </trkpt>
      <trkpt lat="43.513853" lon="-5.506757">
        <ele>220.167</ele>
        <time>2022-08-27T09:29:46Z</time>
      </trkpt>
      <trkpt lat="43.513836" lon="-5.506694">
        <ele>220.117</ele>
        <time>2022-08-27T09:29:47Z</time>
      </trkpt>
      <trkpt lat="43.513818" lon="-5.506624">
        <ele>220.093</ele>
        <time>2022-08-27T09:29:48Z</time>
      </trkpt>
      <trkpt lat="43.513780" lon="-5.506469">
        <ele>219.487</ele>
        <time>2022-08-27T09:29:50Z</time>
      </trkpt>
      <trkpt lat="43.513740" lon="-5.506307">
        <ele>218.594</ele>
        <time>2022-08-27T09:29:52Z</time>
      </trkpt>
      <trkpt lat="43.513718" lon="-5.506222">
        <ele>218.031</ele>
        <time>2022-08-27T09:29:53Z</time>
      </trkpt>
      <trkpt lat="43.513695" lon="-5.506135">
        <ele>217.344</ele>
        <time>2022-08-27T09:29:54Z</time>
      </trkpt>
      <trkpt lat="43.513648" lon="-5.505948">
        <ele>215.805</ele>
        <time>2022-08-27T09:29:56Z</time>
      </trkpt>
      <trkpt lat="43.513625" lon="-5.505848">
        <ele>214.815</ele>
        <time>2022-08-27T09:29:57Z</time>
      </trkpt>
      <trkpt lat="43.513580" lon="-5.505650">
        <ele>213.809</ele>
        <time>2022-08-27T09:29:59Z</time>
      </trkpt>
      <trkpt lat="43.513558" lon="-5.505547">
        <ele>213.665</ele>
        <time>2022-08-27T09:30:00Z</time>
      </trkpt>
      <trkpt lat="43.513506" lon="-5.505327">
        <ele>212.835</ele>
        <time>2022-08-27T09:30:02Z</time>
      </trkpt>
      <trkpt lat="43.513453" lon="-5.505095">
        <ele>211.816</ele>
        <time>2022-08-27T09:30:04Z</time>
      </trkpt>
      <trkpt lat="43.513401" lon="-5.504852">
        <ele>210.294</ele>
        <time>2022-08-27T09:30:06Z</time>
      </trkpt>
      <trkpt lat="43.513379" lon="-5.504727">
        <ele>209.064</ele>
        <time>2022-08-27T09:30:07Z</time>
      </trkpt>
      <trkpt lat="43.513327" lon="-5.504469">
        <ele>207.870</ele>
        <time>2022-08-27T09:30:09Z</time>
      </trkpt>
      <trkpt lat="43.513302" lon="-5.504337">
        <ele>207.294</ele>
        <time>2022-08-27T09:30:10Z</time>
      </trkpt>
      <trkpt lat="43.513277" lon="-5.504204">
        <ele>206.621</ele>
        <time>2022-08-27T09:30:11Z</time>
      </trkpt>
      <trkpt lat="43.513227" lon="-5.503931">
        <ele>205.358</ele>
        <time>2022-08-27T09:30:13Z</time>
      </trkpt>
      <trkpt lat="43.513175" lon="-5.503658">
        <ele>203.924</ele>
        <time>2022-08-27T09:30:15Z</time>
      </trkpt>
      <trkpt lat="43.513147" lon="-5.503520">
        <ele>203.204</ele>
        <time>2022-08-27T09:30:16Z</time>
      </trkpt>
      <trkpt lat="43.513090" lon="-5.503242">
        <ele>201.314</ele>
        <time>2022-08-27T09:30:18Z</time>
      </trkpt>
      <trkpt lat="43.513037" lon="-5.502959">
        <ele>199.309</ele>
        <time>2022-08-27T09:30:20Z</time>
      </trkpt>
      <trkpt lat="43.512979" lon="-5.502671">
        <ele>197.283</ele>
        <time>2022-08-27T09:30:22Z</time>
      </trkpt>
      <trkpt lat="43.512947" lon="-5.502524">
        <ele>196.393</ele>
        <time>2022-08-27T09:30:23Z</time>
      </trkpt>
      <trkpt lat="43.512884" lon="-5.502242">
        <ele>193.624</ele>
        <time>2022-08-27T09:30:25Z</time>
      </trkpt>
      <trkpt lat="43.512857" lon="-5.502094">
        <ele>191.422</ele>
        <time>2022-08-27T09:30:26Z</time>
      </trkpt>
      <trkpt lat="43.512820" lon="-5.501794">
        <ele>189.562</ele>
        <time>2022-08-27T09:30:28Z</time>
      </trkpt>
      <trkpt lat="43.512815" lon="-5.501642">
        <ele>188.368</ele>
        <time>2022-08-27T09:30:29Z</time>
      </trkpt>
      <trkpt lat="43.512823" lon="-5.501334">
        <ele>186.762</ele>
        <time>2022-08-27T09:30:31Z</time>
      </trkpt>
      <trkpt lat="43.512851" lon="-5.501019">
        <ele>185.239</ele>
        <time>2022-08-27T09:30:33Z</time>
      </trkpt>
      <trkpt lat="43.512884" lon="-5.500714">
        <ele>184.666</ele>
        <time>2022-08-27T09:30:35Z</time>
      </trkpt>
      <trkpt lat="43.512922" lon="-5.500421">
        <ele>184.371</ele>
        <time>2022-08-27T09:30:37Z</time>
      </trkpt>
      <trkpt lat="43.512954" lon="-5.500148">
        <ele>184.241</ele>
        <time>2022-08-27T09:30:39Z</time>
      </trkpt>
      <trkpt lat="43.512964" lon="-5.500018">
        <ele>184.715</ele>
        <time>2022-08-27T09:30:40Z</time>
      </trkpt>
      <trkpt lat="43.512971" lon="-5.499893">
        <ele>185.109</ele>
        <time>2022-08-27T09:30:41Z</time>
      </trkpt>
      <trkpt lat="43.512979" lon="-5.499773">
        <ele>185.378</ele>
        <time>2022-08-27T09:30:42Z</time>
      </trkpt>
      <trkpt lat="43.512994" lon="-5.499545">
        <ele>185.748</ele>
        <time>2022-08-27T09:30:44Z</time>
      </trkpt>
      <trkpt lat="43.513004" lon="-5.499330">
        <ele>186.049</ele>
        <time>2022-08-27T09:30:46Z</time>
      </trkpt>
      <trkpt lat="43.513004" lon="-5.499230">
        <ele>186.317</ele>
        <time>2022-08-27T09:30:47Z</time>
      </trkpt>
      <trkpt lat="43.512997" lon="-5.499035">
        <ele>187.257</ele>
        <time>2022-08-27T09:30:49Z</time>
      </trkpt>
      <trkpt lat="43.512992" lon="-5.498850">
        <ele>189.073</ele>
        <time>2022-08-27T09:30:51Z</time>
      </trkpt>
      <trkpt lat="43.512989" lon="-5.498765">
        <ele>190.397</ele>
        <time>2022-08-27T09:30:52Z</time>
      </trkpt>
      <trkpt lat="43.512982" lon="-5.498687">
        <ele>190.874</ele>
        <time>2022-08-27T09:30:53Z</time>
      </trkpt>
      <trkpt lat="43.512965" lon="-5.498539">
        <ele>191.841</ele>
        <time>2022-08-27T09:30:55Z</time>
      </trkpt>
      <trkpt lat="43.512958" lon="-5.498462">
        <ele>192.089</ele>
        <time>2022-08-27T09:30:56Z</time>
      </trkpt>
      <trkpt lat="43.512946" lon="-5.498317">
        <ele>192.706</ele>
        <time>2022-08-27T09:30:58Z</time>
      </trkpt>
      <trkpt lat="43.512944" lon="-5.498245">
        <ele>193.026</ele>
        <time>2022-08-27T09:30:59Z</time>
      </trkpt>
      <trkpt lat="43.512941" lon="-5.498175">
        <ele>193.309</ele>
        <time>2022-08-27T09:31:00Z</time>
      </trkpt>
      <trkpt lat="43.512939" lon="-5.498035">
        <ele>193.949</ele>
        <time>2022-08-27T09:31:02Z</time>
      </trkpt>
      <trkpt lat="43.512937" lon="-5.497970">
        <ele>194.189</ele>
        <time>2022-08-27T09:31:03Z</time>
      </trkpt>
      <trkpt lat="43.512935" lon="-5.497907">
        <ele>194.220</ele>
        <time>2022-08-27T09:31:04Z</time>
      </trkpt>
      <trkpt lat="43.512938" lon="-5.497779">
        <ele>194.478</ele>
        <time>2022-08-27T09:31:06Z</time>
      </trkpt>
      <trkpt lat="43.512948" lon="-5.497657">
        <ele>194.868</ele>
        <time>2022-08-27T09:31:08Z</time>
      </trkpt>
      <trkpt lat="43.512963" lon="-5.497537">
        <ele>195.094</ele>
        <time>2022-08-27T09:31:10Z</time>
      </trkpt>
      <trkpt lat="43.512983" lon="-5.497414">
        <ele>194.928</ele>
        <time>2022-08-27T09:31:12Z</time>
      </trkpt>
      <trkpt lat="43.513010" lon="-5.497299">
        <ele>194.875</ele>
        <time>2022-08-27T09:31:14Z</time>
      </trkpt>
      <trkpt lat="43.513042" lon="-5.497186">
        <ele>194.722</ele>
        <time>2022-08-27T09:31:16Z</time>
      </trkpt>
      <trkpt lat="43.513082" lon="-5.497076">
        <ele>194.792</ele>
        <time>2022-08-27T09:31:18Z</time>
      </trkpt>
      <trkpt lat="43.513124" lon="-5.496968">
        <ele>194.773</ele>
        <time>2022-08-27T09:31:20Z</time>
      </trkpt>
      <trkpt lat="43.513169" lon="-5.496866">
        <ele>195.020</ele>
        <time>2022-08-27T09:31:22Z</time>
      </trkpt>
      <trkpt lat="43.513219" lon="-5.496769">
        <ele>195.509</ele>
        <time>2022-08-27T09:31:24Z</time>
      </trkpt>
      <trkpt lat="43.513266" lon="-5.496671">
        <ele>196.230</ele>
        <time>2022-08-27T09:31:26Z</time>
      </trkpt>
      <trkpt lat="43.513316" lon="-5.496576">
        <ele>196.410</ele>
        <time>2022-08-27T09:31:28Z</time>
      </trkpt>
      <trkpt lat="43.513346" lon="-5.496529">
        <ele>196.791</ele>
        <time>2022-08-27T09:31:29Z</time>
      </trkpt>
      <trkpt lat="43.513406" lon="-5.496437">
        <ele>197.489</ele>
        <time>2022-08-27T09:31:31Z</time>
      </trkpt>
      <trkpt lat="43.513454" lon="-5.496340">
        <ele>197.929</ele>
        <time>2022-08-27T09:31:33Z</time>
      </trkpt>
      <trkpt lat="43.513506" lon="-5.496247">
        <ele>198.235</ele>
        <time>2022-08-27T09:31:35Z</time>
      </trkpt>
      <trkpt lat="43.513563" lon="-5.496162">
        <ele>198.329</ele>
        <time>2022-08-27T09:31:37Z</time>
      </trkpt>
      <trkpt lat="43.513616" lon="-5.496077">
        <ele>198.426</ele>
        <time>2022-08-27T09:31:39Z</time>
      </trkpt>
      <trkpt lat="43.513661" lon="-5.495990">
        <ele>198.883</ele>
        <time>2022-08-27T09:31:41Z</time>
      </trkpt>
      <trkpt lat="43.513708" lon="-5.495913">
        <ele>199.131</ele>
        <time>2022-08-27T09:31:43Z</time>
      </trkpt>
      <trkpt lat="43.513758" lon="-5.495838">
        <ele>199.161</ele>
        <time>2022-08-27T09:31:45Z</time>
      </trkpt>
      <trkpt lat="43.513803" lon="-5.495768">
        <ele>199.207</ele>
        <time>2022-08-27T09:31:47Z</time>
      </trkpt>
      <trkpt lat="43.513843" lon="-5.495703">
        <ele>199.409</ele>
        <time>2022-08-27T09:31:49Z</time>
      </trkpt>
      <trkpt lat="43.513883" lon="-5.495646">
        <ele>199.574</ele>
        <time>2022-08-27T09:31:51Z</time>
      </trkpt>
      <trkpt lat="43.513915" lon="-5.495579">
        <ele>199.724</ele>
        <time>2022-08-27T09:31:53Z</time>
      </trkpt>
      <trkpt lat="43.513957" lon="-5.495521">
        <ele>200.025</ele>
        <time>2022-08-27T09:31:55Z</time>
      </trkpt>
      <trkpt lat="43.514000" lon="-5.495459">
        <ele>200.333</ele>
        <time>2022-08-27T09:31:57Z</time>
      </trkpt>
      <trkpt lat="43.514042" lon="-5.495401">
        <ele>200.943</ele>
        <time>2022-08-27T09:31:59Z</time>
      </trkpt>
      <trkpt lat="43.514085" lon="-5.495341">
        <ele>201.539</ele>
        <time>2022-08-27T09:32:01Z</time>
      </trkpt>
      <trkpt lat="43.514130" lon="-5.495284">
        <ele>202.153</ele>
        <time>2022-08-27T09:32:03Z</time>
      </trkpt>
      <trkpt lat="43.514180" lon="-5.495231">
        <ele>202.840</ele>
        <time>2022-08-27T09:32:05Z</time>
      </trkpt>
      <trkpt lat="43.514232" lon="-5.495181">
        <ele>203.187</ele>
        <time>2022-08-27T09:32:07Z</time>
      </trkpt>
      <trkpt lat="43.514284" lon="-5.495136">
        <ele>203.426</ele>
        <time>2022-08-27T09:32:09Z</time>
      </trkpt>
      <trkpt lat="43.514337" lon="-5.495091">
        <ele>203.747</ele>
        <time>2022-08-27T09:32:11Z</time>
      </trkpt>
      <trkpt lat="43.514392" lon="-5.495059">
        <ele>203.711</ele>
        <time>2022-08-27T09:32:13Z</time>
      </trkpt>
      <trkpt lat="43.514442" lon="-5.495024">
        <ele>204.309</ele>
        <time>2022-08-27T09:32:15Z</time>
      </trkpt>
      <trkpt lat="43.514489" lon="-5.495001">
        <ele>204.593</ele>
        <time>2022-08-27T09:32:17Z</time>
      </trkpt>
      <trkpt lat="43.514534" lon="-5.494978">
        <ele>205.113</ele>
        <time>2022-08-27T09:32:19Z</time>
      </trkpt>
      <trkpt lat="43.514599" lon="-5.494955">
        <ele>205.894</ele>
        <time>2022-08-27T09:32:22Z</time>
      </trkpt>
      <trkpt lat="43.514641" lon="-5.494927">
        <ele>205.942</ele>
        <time>2022-08-27T09:32:24Z</time>
      </trkpt>
      <trkpt lat="43.514684" lon="-5.494905">
        <ele>206.192</ele>
        <time>2022-08-27T09:32:26Z</time>
      </trkpt>
      <trkpt lat="43.514732" lon="-5.494890">
        <ele>206.288</ele>
        <time>2022-08-27T09:32:28Z</time>
      </trkpt>
      <trkpt lat="43.514777" lon="-5.494872">
        <ele>206.212</ele>
        <time>2022-08-27T09:32:30Z</time>
      </trkpt>
      <trkpt lat="43.514840" lon="-5.494840">
        <ele>206.529</ele>
        <time>2022-08-27T09:32:33Z</time>
      </trkpt>
      <trkpt lat="43.514888" lon="-5.494820">
        <ele>206.736</ele>
        <time>2022-08-27T09:32:35Z</time>
      </trkpt>
      <trkpt lat="43.514935" lon="-5.494800">
        <ele>206.949</ele>
        <time>2022-08-27T09:32:37Z</time>
      </trkpt>
      <trkpt lat="43.514985" lon="-5.494775">
        <ele>207.202</ele>
        <time>2022-08-27T09:32:39Z</time>
      </trkpt>
      <trkpt lat="43.515035" lon="-5.494750">
        <ele>207.522</ele>
        <time>2022-08-27T09:32:41Z</time>
      </trkpt>
      <trkpt lat="43.515082" lon="-5.494727">
        <ele>207.909</ele>
        <time>2022-08-27T09:32:43Z</time>
      </trkpt>
      <trkpt lat="43.515132" lon="-5.494705">
        <ele>208.035</ele>
        <time>2022-08-27T09:32:45Z</time>
      </trkpt>
      <trkpt lat="43.515177" lon="-5.494677">
        <ele>208.555</ele>
        <time>2022-08-27T09:32:47Z</time>
      </trkpt>
      <trkpt lat="43.515219" lon="-5.494645">
        <ele>208.756</ele>
        <time>2022-08-27T09:32:49Z</time>
      </trkpt>
      <trkpt lat="43.515266" lon="-5.494610">
        <ele>209.024</ele>
        <time>2022-08-27T09:32:51Z</time>
      </trkpt>
      <trkpt lat="43.515311" lon="-5.494575">
        <ele>209.764</ele>
        <time>2022-08-27T09:32:53Z</time>
      </trkpt>
      <trkpt lat="43.515356" lon="-5.494537">
        <ele>210.490</ele>
        <time>2022-08-27T09:32:55Z</time>
      </trkpt>
      <trkpt lat="43.515399" lon="-5.494502">
        <ele>211.134</ele>
        <time>2022-08-27T09:32:57Z</time>
      </trkpt>
      <trkpt lat="43.515437" lon="-5.494460">
        <ele>211.831</ele>
        <time>2022-08-27T09:32:59Z</time>
      </trkpt>
      <trkpt lat="43.515477" lon="-5.494415">
        <ele>212.368</ele>
        <time>2022-08-27T09:33:01Z</time>
      </trkpt>
      <trkpt lat="43.515514" lon="-5.494367">
        <ele>212.678</ele>
        <time>2022-08-27T09:33:03Z</time>
      </trkpt>
      <trkpt lat="43.515551" lon="-5.494310">
        <ele>212.833</ele>
        <time>2022-08-27T09:33:05Z</time>
      </trkpt>
      <trkpt lat="43.515586" lon="-5.494247">
        <ele>212.926</ele>
        <time>2022-08-27T09:33:07Z</time>
      </trkpt>
      <trkpt lat="43.515619" lon="-5.494187">
        <ele>213.009</ele>
        <time>2022-08-27T09:33:09Z</time>
      </trkpt>
      <trkpt lat="43.515652" lon="-5.494122">
        <ele>213.138</ele>
        <time>2022-08-27T09:33:11Z</time>
      </trkpt>
      <trkpt lat="43.515682" lon="-5.494057">
        <ele>213.298</ele>
        <time>2022-08-27T09:33:13Z</time>
      </trkpt>
      <trkpt lat="43.515710" lon="-5.493989">
        <ele>213.499</ele>
        <time>2022-08-27T09:33:15Z</time>
      </trkpt>
      <trkpt lat="43.515732" lon="-5.493921">
        <ele>213.757</ele>
        <time>2022-08-27T09:33:17Z</time>
      </trkpt>
      <trkpt lat="43.515757" lon="-5.493853">
        <ele>214.247</ele>
        <time>2022-08-27T09:33:19Z</time>
      </trkpt>
      <trkpt lat="43.515780" lon="-5.493783">
        <ele>214.543</ele>
        <time>2022-08-27T09:33:21Z</time>
      </trkpt>
      <trkpt lat="43.515797" lon="-5.493706">
        <ele>214.577</ele>
        <time>2022-08-27T09:33:23Z</time>
      </trkpt>
      <trkpt lat="43.515814" lon="-5.493629">
        <ele>214.714</ele>
        <time>2022-08-27T09:33:25Z</time>
      </trkpt>
      <trkpt lat="43.515831" lon="-5.493551">
        <ele>214.851</ele>
        <time>2022-08-27T09:33:27Z</time>
      </trkpt>
      <trkpt lat="43.515844" lon="-5.493471">
        <ele>214.868</ele>
        <time>2022-08-27T09:33:29Z</time>
      </trkpt>
      <trkpt lat="43.515857" lon="-5.493391">
        <ele>214.842</ele>
        <time>2022-08-27T09:33:31Z</time>
      </trkpt>
      <trkpt lat="43.515872" lon="-5.493311">
        <ele>214.826</ele>
        <time>2022-08-27T09:33:33Z</time>
      </trkpt>
      <trkpt lat="43.515885" lon="-5.493229">
        <ele>214.909</ele>
        <time>2022-08-27T09:33:35Z</time>
      </trkpt>
      <trkpt lat="43.515898" lon="-5.493149">
        <ele>215.057</ele>
        <time>2022-08-27T09:33:37Z</time>
      </trkpt>
      <trkpt lat="43.515916" lon="-5.493071">
        <ele>215.697</ele>
        <time>2022-08-27T09:33:39Z</time>
      </trkpt>
      <trkpt lat="43.515929" lon="-5.492989">
        <ele>215.728</ele>
        <time>2022-08-27T09:33:41Z</time>
      </trkpt>
      <trkpt lat="43.515944" lon="-5.492907">
        <ele>216.426</ele>
        <time>2022-08-27T09:33:43Z</time>
      </trkpt>
      <trkpt lat="43.515959" lon="-5.492820">
        <ele>216.796</ele>
        <time>2022-08-27T09:33:45Z</time>
      </trkpt>
      <trkpt lat="43.515972" lon="-5.492735">
        <ele>217.262</ele>
        <time>2022-08-27T09:33:47Z</time>
      </trkpt>
      <trkpt lat="43.515987" lon="-5.492648">
        <ele>217.656</ele>
        <time>2022-08-27T09:33:49Z</time>
      </trkpt>
      <trkpt lat="43.516000" lon="-5.492560">
        <ele>217.813</ele>
        <time>2022-08-27T09:33:51Z</time>
      </trkpt>
      <trkpt lat="43.516017" lon="-5.492475">
        <ele>217.920</ele>
        <time>2022-08-27T09:33:53Z</time>
      </trkpt>
      <trkpt lat="43.516032" lon="-5.492392">
        <ele>218.163</ele>
        <time>2022-08-27T09:33:55Z</time>
      </trkpt>
      <trkpt lat="43.516049" lon="-5.492305">
        <ele>218.144</ele>
        <time>2022-08-27T09:33:57Z</time>
      </trkpt>
      <trkpt lat="43.516066" lon="-5.492217">
        <ele>218.318</ele>
        <time>2022-08-27T09:33:59Z</time>
      </trkpt>
      <trkpt lat="43.516079" lon="-5.492125">
        <ele>218.309</ele>
        <time>2022-08-27T09:34:01Z</time>
      </trkpt>
      <trkpt lat="43.516096" lon="-5.492037">
        <ele>218.597</ele>
        <time>2022-08-27T09:34:03Z</time>
      </trkpt>
      <trkpt lat="43.516113" lon="-5.491947">
        <ele>218.557</ele>
        <time>2022-08-27T09:34:05Z</time>
      </trkpt>
      <trkpt lat="43.516133" lon="-5.491859">
        <ele>219.038</ele>
        <time>2022-08-27T09:34:07Z</time>
      </trkpt>
      <trkpt lat="43.516145" lon="-5.491769">
        <ele>219.286</ele>
        <time>2022-08-27T09:34:09Z</time>
      </trkpt>
      <trkpt lat="43.516160" lon="-5.491682">
        <ele>219.956</ele>
        <time>2022-08-27T09:34:11Z</time>
      </trkpt>
      <trkpt lat="43.516180" lon="-5.491597">
        <ele>219.982</ele>
        <time>2022-08-27T09:34:13Z</time>
      </trkpt>
      <trkpt lat="43.516197" lon="-5.491514">
        <ele>220.046</ele>
        <time>2022-08-27T09:34:15Z</time>
      </trkpt>
      <trkpt lat="43.516214" lon="-5.491429">
        <ele>220.083</ele>
        <time>2022-08-27T09:34:17Z</time>
      </trkpt>
      <trkpt lat="43.516227" lon="-5.491342">
        <ele>220.140</ele>
        <time>2022-08-27T09:34:19Z</time>
      </trkpt>
      <trkpt lat="43.516237" lon="-5.491254">
        <ele>220.079</ele>
        <time>2022-08-27T09:34:21Z</time>
      </trkpt>
      <trkpt lat="43.516245" lon="-5.491167">
        <ele>220.005</ele>
        <time>2022-08-27T09:34:23Z</time>
      </trkpt>
      <trkpt lat="43.516257" lon="-5.491082">
        <ele>219.725</ele>
        <time>2022-08-27T09:34:25Z</time>
      </trkpt>
      <trkpt lat="43.516264" lon="-5.490995">
        <ele>219.709</ele>
        <time>2022-08-27T09:34:27Z</time>
      </trkpt>
      <trkpt lat="43.516271" lon="-5.490905">
        <ele>220.198</ele>
        <time>2022-08-27T09:34:29Z</time>
      </trkpt>
      <trkpt lat="43.516276" lon="-5.490815">
        <ele>220.688</ele>
        <time>2022-08-27T09:34:31Z</time>
      </trkpt>
      <trkpt lat="43.516276" lon="-5.490728">
        <ele>221.459</ele>
        <time>2022-08-27T09:34:33Z</time>
      </trkpt>
      <trkpt lat="43.516279" lon="-5.490635">
        <ele>221.687</ele>
        <time>2022-08-27T09:34:35Z</time>
      </trkpt>
      <trkpt lat="43.516277" lon="-5.490540">
        <ele>221.757</ele>
        <time>2022-08-27T09:34:37Z</time>
      </trkpt>
      <trkpt lat="43.516279" lon="-5.490440">
        <ele>221.833</ele>
        <time>2022-08-27T09:34:39Z</time>
      </trkpt>
      <trkpt lat="43.516289" lon="-5.490345">
        <ele>222.177</ele>
        <time>2022-08-27T09:34:41Z</time>
      </trkpt>
      <trkpt lat="43.516286" lon="-5.490255">
        <ele>222.494</ele>
        <time>2022-08-27T09:34:43Z</time>
      </trkpt>
      <trkpt lat="43.516279" lon="-5.490165">
        <ele>222.441</ele>
        <time>2022-08-27T09:34:45Z</time>
      </trkpt>
      <trkpt lat="43.516274" lon="-5.490073">
        <ele>222.442</ele>
        <time>2022-08-27T09:34:47Z</time>
      </trkpt>
      <trkpt lat="43.516276" lon="-5.489978">
        <ele>222.422</ele>
        <time>2022-08-27T09:34:49Z</time>
      </trkpt>
      <trkpt lat="43.516278" lon="-5.489878">
        <ele>222.514</ele>
        <time>2022-08-27T09:34:51Z</time>
      </trkpt>
      <trkpt lat="43.516280" lon="-5.489778">
        <ele>222.509</ele>
        <time>2022-08-27T09:34:53Z</time>
      </trkpt>
      <trkpt lat="43.516278" lon="-5.489678">
        <ele>222.595</ele>
        <time>2022-08-27T09:34:55Z</time>
      </trkpt>
      <trkpt lat="43.516281" lon="-5.489576">
        <ele>222.495</ele>
        <time>2022-08-27T09:34:57Z</time>
      </trkpt>
      <trkpt lat="43.516281" lon="-5.489471">
        <ele>222.236</ele>
        <time>2022-08-27T09:34:59Z</time>
      </trkpt>
      <trkpt lat="43.516281" lon="-5.489366">
        <ele>222.054</ele>
        <time>2022-08-27T09:35:01Z</time>
      </trkpt>
      <trkpt lat="43.516279" lon="-5.489259">
        <ele>222.084</ele>
        <time>2022-08-27T09:35:03Z</time>
      </trkpt>
      <trkpt lat="43.516286" lon="-5.489152">
        <ele>222.090</ele>
        <time>2022-08-27T09:35:05Z</time>
      </trkpt>
      <trkpt lat="43.516286" lon="-5.489044">
        <ele>222.254</ele>
        <time>2022-08-27T09:35:07Z</time>
      </trkpt>
      <trkpt lat="43.516279" lon="-5.488937">
        <ele>222.341</ele>
        <time>2022-08-27T09:35:09Z</time>
      </trkpt>
      <trkpt lat="43.516274" lon="-5.488829">
        <ele>222.738</ele>
        <time>2022-08-27T09:35:11Z</time>
      </trkpt>
      <trkpt lat="43.516269" lon="-5.488721">
        <ele>222.912</ele>
        <time>2022-08-27T09:35:13Z</time>
      </trkpt>
      <trkpt lat="43.516262" lon="-5.488611">
        <ele>222.932</ele>
        <time>2022-08-27T09:35:15Z</time>
      </trkpt>
      <trkpt lat="43.516260" lon="-5.488498">
        <ele>222.905</ele>
        <time>2022-08-27T09:35:17Z</time>
      </trkpt>
      <trkpt lat="43.516257" lon="-5.488386">
        <ele>222.709</ele>
        <time>2022-08-27T09:35:19Z</time>
      </trkpt>
      <trkpt lat="43.516254" lon="-5.488278">
        <ele>222.522</ele>
        <time>2022-08-27T09:35:21Z</time>
      </trkpt>
      <trkpt lat="43.516254" lon="-5.488170">
        <ele>222.072</ele>
        <time>2022-08-27T09:35:23Z</time>
      </trkpt>
      <trkpt lat="43.516251" lon="-5.488058">
        <ele>221.543</ele>
        <time>2022-08-27T09:35:25Z</time>
      </trkpt>
      <trkpt lat="43.516246" lon="-5.487951">
        <ele>221.021</ele>
        <time>2022-08-27T09:35:27Z</time>
      </trkpt>
      <trkpt lat="43.516251" lon="-5.487849">
        <ele>220.851</ele>
        <time>2022-08-27T09:35:29Z</time>
      </trkpt>
      <trkpt lat="43.516246" lon="-5.487756">
        <ele>220.927</ele>
        <time>2022-08-27T09:35:31Z</time>
      </trkpt>
      <trkpt lat="43.516233" lon="-5.487658">
        <ele>221.051</ele>
        <time>2022-08-27T09:35:33Z</time>
      </trkpt>
      <trkpt lat="43.516226" lon="-5.487558">
        <ele>220.918</ele>
        <time>2022-08-27T09:35:35Z</time>
      </trkpt>
      <trkpt lat="43.516218" lon="-5.487458">
        <ele>221.025</ele>
        <time>2022-08-27T09:35:37Z</time>
      </trkpt>
      <trkpt lat="43.516213" lon="-5.487356">
        <ele>221.013</ele>
        <time>2022-08-27T09:35:39Z</time>
      </trkpt>
      <trkpt lat="43.516211" lon="-5.487254">
        <ele>221.143</ele>
        <time>2022-08-27T09:35:41Z</time>
      </trkpt>
      <trkpt lat="43.516199" lon="-5.487149">
        <ele>221.707</ele>
        <time>2022-08-27T09:35:43Z</time>
      </trkpt>
      <trkpt lat="43.516187" lon="-5.487036">
        <ele>222.009</ele>
        <time>2022-08-27T09:35:45Z</time>
      </trkpt>
      <trkpt lat="43.516175" lon="-5.486919">
        <ele>222.092</ele>
        <time>2022-08-27T09:35:47Z</time>
      </trkpt>
      <trkpt lat="43.516160" lon="-5.486791">
        <ele>221.782</ele>
        <time>2022-08-27T09:35:49Z</time>
      </trkpt>
      <trkpt lat="43.516153" lon="-5.486726">
        <ele>221.743</ele>
        <time>2022-08-27T09:35:50Z</time>
      </trkpt>
      <trkpt lat="43.516141" lon="-5.486586">
        <ele>221.181</ele>
        <time>2022-08-27T09:35:52Z</time>
      </trkpt>
      <trkpt lat="43.516134" lon="-5.486513">
        <ele>220.971</ele>
        <time>2022-08-27T09:35:53Z</time>
      </trkpt>
      <trkpt lat="43.516119" lon="-5.486365">
        <ele>219.847</ele>
        <time>2022-08-27T09:35:55Z</time>
      </trkpt>
      <trkpt lat="43.516106" lon="-5.486207">
        <ele>218.691</ele>
        <time>2022-08-27T09:35:57Z</time>
      </trkpt>
      <trkpt lat="43.516093" lon="-5.486042">
        <ele>217.958</ele>
        <time>2022-08-27T09:35:59Z</time>
      </trkpt>
      <trkpt lat="43.516085" lon="-5.485959">
        <ele>217.415</ele>
        <time>2022-08-27T09:36:00Z</time>
      </trkpt>
      <trkpt lat="43.516075" lon="-5.485874">
        <ele>217.119</ele>
        <time>2022-08-27T09:36:01Z</time>
      </trkpt>
      <trkpt lat="43.516067" lon="-5.485791">
        <ele>216.709</ele>
        <time>2022-08-27T09:36:02Z</time>
      </trkpt>
      <trkpt lat="43.516049" lon="-5.485624">
        <ele>216.219</ele>
        <time>2022-08-27T09:36:04Z</time>
      </trkpt>
      <trkpt lat="43.516041" lon="-5.485542">
        <ele>216.109</ele>
        <time>2022-08-27T09:36:05Z</time>
      </trkpt>
      <trkpt lat="43.516026" lon="-5.485382">
        <ele>216.042</ele>
        <time>2022-08-27T09:36:07Z</time>
      </trkpt>
      <trkpt lat="43.516018" lon="-5.485300">
        <ele>216.052</ele>
        <time>2022-08-27T09:36:08Z</time>
      </trkpt>
      <trkpt lat="43.516008" lon="-5.485143">
        <ele>215.743</ele>
        <time>2022-08-27T09:36:10Z</time>
      </trkpt>
      <trkpt lat="43.515998" lon="-5.484993">
        <ele>215.421</ele>
        <time>2022-08-27T09:36:12Z</time>
      </trkpt>
      <trkpt lat="43.515988" lon="-5.484845">
        <ele>215.571</ele>
        <time>2022-08-27T09:36:14Z</time>
      </trkpt>
      <trkpt lat="43.515983" lon="-5.484777">
        <ele>215.567</ele>
        <time>2022-08-27T09:36:15Z</time>
      </trkpt>
      <trkpt lat="43.515973" lon="-5.484639">
        <ele>215.761</ele>
        <time>2022-08-27T09:36:17Z</time>
      </trkpt>
      <trkpt lat="43.515970" lon="-5.484571">
        <ele>215.988</ele>
        <time>2022-08-27T09:36:18Z</time>
      </trkpt>
      <trkpt lat="43.515960" lon="-5.484438">
        <ele>216.085</ele>
        <time>2022-08-27T09:36:20Z</time>
      </trkpt>
      <trkpt lat="43.515955" lon="-5.484373">
        <ele>216.264</ele>
        <time>2022-08-27T09:36:21Z</time>
      </trkpt>
      <trkpt lat="43.515943" lon="-5.484243">
        <ele>216.506</ele>
        <time>2022-08-27T09:36:23Z</time>
      </trkpt>
      <trkpt lat="43.515938" lon="-5.484116">
        <ele>216.516</ele>
        <time>2022-08-27T09:36:25Z</time>
      </trkpt>
      <trkpt lat="43.515940" lon="-5.483991">
        <ele>216.409</ele>
        <time>2022-08-27T09:36:27Z</time>
      </trkpt>
      <trkpt lat="43.515942" lon="-5.483869">
        <ele>216.437</ele>
        <time>2022-08-27T09:36:29Z</time>
      </trkpt>
      <trkpt lat="43.515937" lon="-5.483807">
        <ele>216.497</ele>
        <time>2022-08-27T09:36:30Z</time>
      </trkpt>
      <trkpt lat="43.515937" lon="-5.483744">
        <ele>216.378</ele>
        <time>2022-08-27T09:36:31Z</time>
      </trkpt>
      <trkpt lat="43.515934" lon="-5.483624">
        <ele>216.336</ele>
        <time>2022-08-27T09:36:33Z</time>
      </trkpt>
      <trkpt lat="43.515932" lon="-5.483504">
        <ele>215.966</ele>
        <time>2022-08-27T09:36:35Z</time>
      </trkpt>
      <trkpt lat="43.515937" lon="-5.483384">
        <ele>215.912</ele>
        <time>2022-08-27T09:36:37Z</time>
      </trkpt>
      <trkpt lat="43.515937" lon="-5.483267">
        <ele>215.876</ele>
        <time>2022-08-27T09:36:39Z</time>
      </trkpt>
      <trkpt lat="43.515942" lon="-5.483155">
        <ele>215.963</ele>
        <time>2022-08-27T09:36:41Z</time>
      </trkpt>
      <trkpt lat="43.515944" lon="-5.483043">
        <ele>216.070</ele>
        <time>2022-08-27T09:36:43Z</time>
      </trkpt>
      <trkpt lat="43.515937" lon="-5.482928">
        <ele>216.625</ele>
        <time>2022-08-27T09:36:45Z</time>
      </trkpt>
      <trkpt lat="43.515932" lon="-5.482813">
        <ele>217.126</ele>
        <time>2022-08-27T09:36:47Z</time>
      </trkpt>
      <trkpt lat="43.515929" lon="-5.482695">
        <ele>217.408</ele>
        <time>2022-08-27T09:36:49Z</time>
      </trkpt>
      <trkpt lat="43.515931" lon="-5.482582">
        <ele>217.809</ele>
        <time>2022-08-27T09:36:51Z</time>
      </trkpt>
      <trkpt lat="43.515929" lon="-5.482465">
        <ele>218.313</ele>
        <time>2022-08-27T09:36:53Z</time>
      </trkpt>
      <trkpt lat="43.515932" lon="-5.482353">
        <ele>218.333</ele>
        <time>2022-08-27T09:36:55Z</time>
      </trkpt>
      <trkpt lat="43.515935" lon="-5.482243">
        <ele>218.534</ele>
        <time>2022-08-27T09:36:57Z</time>
      </trkpt>
      <trkpt lat="43.515933" lon="-5.482133">
        <ele>218.622</ele>
        <time>2022-08-27T09:36:59Z</time>
      </trkpt>
      <trkpt lat="43.515933" lon="-5.482025">
        <ele>218.622</ele>
        <time>2022-08-27T09:37:01Z</time>
      </trkpt>
      <trkpt lat="43.515935" lon="-5.481923">
        <ele>218.348</ele>
        <time>2022-08-27T09:37:03Z</time>
      </trkpt>
      <trkpt lat="43.515933" lon="-5.481815">
        <ele>217.942</ele>
        <time>2022-08-27T09:37:05Z</time>
      </trkpt>
      <trkpt lat="43.515935" lon="-5.481707">
        <ele>217.699</ele>
        <time>2022-08-27T09:37:07Z</time>
      </trkpt>
      <trkpt lat="43.515935" lon="-5.481600">
        <ele>217.676</ele>
        <time>2022-08-27T09:37:09Z</time>
      </trkpt>
      <trkpt lat="43.515935" lon="-5.481493">
        <ele>217.562</ele>
        <time>2022-08-27T09:37:11Z</time>
      </trkpt>
      <trkpt lat="43.515935" lon="-5.481391">
        <ele>217.583</ele>
        <time>2022-08-27T09:37:13Z</time>
      </trkpt>
      <trkpt lat="43.515942" lon="-5.481293">
        <ele>217.611</ele>
        <time>2022-08-27T09:37:15Z</time>
      </trkpt>
      <trkpt lat="43.515950" lon="-5.481195">
        <ele>218.109</ele>
        <time>2022-08-27T09:37:17Z</time>
      </trkpt>
      <trkpt lat="43.515955" lon="-5.481097">
        <ele>218.517</ele>
        <time>2022-08-27T09:37:19Z</time>
      </trkpt>
      <trkpt lat="43.515957" lon="-5.480999">
        <ele>219.297</ele>
        <time>2022-08-27T09:37:21Z</time>
      </trkpt>
      <trkpt lat="43.515960" lon="-5.480901">
        <ele>219.798</ele>
        <time>2022-08-27T09:37:23Z</time>
      </trkpt>
      <trkpt lat="43.515962" lon="-5.480799">
        <ele>220.096</ele>
        <time>2022-08-27T09:37:25Z</time>
      </trkpt>
      <trkpt lat="43.515967" lon="-5.480696">
        <ele>220.296</ele>
        <time>2022-08-27T09:37:27Z</time>
      </trkpt>
      <trkpt lat="43.515972" lon="-5.480586">
        <ele>220.372</ele>
        <time>2022-08-27T09:37:29Z</time>
      </trkpt>
      <trkpt lat="43.515980" lon="-5.480471">
        <ele>220.366</ele>
        <time>2022-08-27T09:37:31Z</time>
      </trkpt>
      <trkpt lat="43.515988" lon="-5.480348">
        <ele>219.943</ele>
        <time>2022-08-27T09:37:33Z</time>
      </trkpt>
      <trkpt lat="43.515991" lon="-5.480280">
        <ele>219.760</ele>
        <time>2022-08-27T09:37:34Z</time>
      </trkpt>
      <trkpt lat="43.515999" lon="-5.480135">
        <ele>219.485</ele>
        <time>2022-08-27T09:37:36Z</time>
      </trkpt>
      <trkpt lat="43.516014" lon="-5.479975">
        <ele>219.089</ele>
        <time>2022-08-27T09:37:38Z</time>
      </trkpt>
      <trkpt lat="43.516021" lon="-5.479890">
        <ele>218.717</ele>
        <time>2022-08-27T09:37:39Z</time>
      </trkpt>
      <trkpt lat="43.516034" lon="-5.479713">
        <ele>218.009</ele>
        <time>2022-08-27T09:37:41Z</time>
      </trkpt>
      <trkpt lat="43.516046" lon="-5.479516">
        <ele>216.649</ele>
        <time>2022-08-27T09:37:43Z</time>
      </trkpt>
      <trkpt lat="43.516056" lon="-5.479303">
        <ele>214.669</ele>
        <time>2022-08-27T09:37:45Z</time>
      </trkpt>
      <trkpt lat="43.516063" lon="-5.479190">
        <ele>214.060</ele>
        <time>2022-08-27T09:37:46Z</time>
      </trkpt>
      <trkpt lat="43.516073" lon="-5.479073">
        <ele>213.358</ele>
        <time>2022-08-27T09:37:47Z</time>
      </trkpt>
      <trkpt lat="43.516081" lon="-5.478951">
        <ele>212.628</ele>
        <time>2022-08-27T09:37:48Z</time>
      </trkpt>
      <trkpt lat="43.516088" lon="-5.478824">
        <ele>211.984</ele>
        <time>2022-08-27T09:37:49Z</time>
      </trkpt>
      <trkpt lat="43.516101" lon="-5.478559">
        <ele>209.988</ele>
        <time>2022-08-27T09:37:51Z</time>
      </trkpt>
      <trkpt lat="43.516118" lon="-5.478287">
        <ele>208.465</ele>
        <time>2022-08-27T09:37:53Z</time>
      </trkpt>
      <trkpt lat="43.516138" lon="-5.478012">
        <ele>206.992</ele>
        <time>2022-08-27T09:37:55Z</time>
      </trkpt>
      <trkpt lat="43.516148" lon="-5.477875">
        <ele>206.424</ele>
        <time>2022-08-27T09:37:56Z</time>
      </trkpt>
      <trkpt lat="43.516155" lon="-5.477742">
        <ele>206.104</ele>
        <time>2022-08-27T09:37:57Z</time>
      </trkpt>
      <trkpt lat="43.516168" lon="-5.477482">
        <ele>205.914</ele>
        <time>2022-08-27T09:37:59Z</time>
      </trkpt>
      <trkpt lat="43.516186" lon="-5.477237">
        <ele>206.109</ele>
        <time>2022-08-27T09:38:01Z</time>
      </trkpt>
      <trkpt lat="43.516194" lon="-5.477119">
        <ele>206.223</ele>
        <time>2022-08-27T09:38:02Z</time>
      </trkpt>
      <trkpt lat="43.516209" lon="-5.476902">
        <ele>206.843</ele>
        <time>2022-08-27T09:38:04Z</time>
      </trkpt>
      <trkpt lat="43.516217" lon="-5.476802">
        <ele>207.274</ele>
        <time>2022-08-27T09:38:05Z</time>
      </trkpt>
      <trkpt lat="43.516229" lon="-5.476617">
        <ele>208.312</ele>
        <time>2022-08-27T09:38:07Z</time>
      </trkpt>
      <trkpt lat="43.516236" lon="-5.476537">
        <ele>209.022</ele>
        <time>2022-08-27T09:38:08Z</time>
      </trkpt>
      <trkpt lat="43.516251" lon="-5.476395">
        <ele>209.798</ele>
        <time>2022-08-27T09:38:10Z</time>
      </trkpt>
      <trkpt lat="43.516254" lon="-5.476330">
        <ele>209.772</ele>
        <time>2022-08-27T09:38:11Z</time>
      </trkpt>
      <trkpt lat="43.516259" lon="-5.476268">
        <ele>209.869</ele>
        <time>2022-08-27T09:38:12Z</time>
      </trkpt>
      <trkpt lat="43.516266" lon="-5.476156">
        <ele>210.256</ele>
        <time>2022-08-27T09:38:14Z</time>
      </trkpt>
      <trkpt lat="43.516269" lon="-5.476056">
        <ele>210.897</ele>
        <time>2022-08-27T09:38:16Z</time>
      </trkpt>
      <trkpt lat="43.516279" lon="-5.475961">
        <ele>211.023</ele>
        <time>2022-08-27T09:38:18Z</time>
      </trkpt>
      <trkpt lat="43.516286" lon="-5.475853">
        <ele>211.425</ele>
        <time>2022-08-27T09:38:20Z</time>
      </trkpt>
      <trkpt lat="43.516296" lon="-5.475743">
        <ele>211.809</ele>
        <time>2022-08-27T09:38:22Z</time>
      </trkpt>
      <trkpt lat="43.516303" lon="-5.475646">
        <ele>211.940</ele>
        <time>2022-08-27T09:38:24Z</time>
      </trkpt>
      <trkpt lat="43.516306" lon="-5.475559">
        <ele>212.460</ele>
        <time>2022-08-27T09:38:26Z</time>
      </trkpt>
      <trkpt lat="43.516304" lon="-5.475476">
        <ele>212.681</ele>
        <time>2022-08-27T09:38:28Z</time>
      </trkpt>
      <trkpt lat="43.516307" lon="-5.475394">
        <ele>212.649</ele>
        <time>2022-08-27T09:38:30Z</time>
      </trkpt>
      <trkpt lat="43.516319" lon="-5.475314">
        <ele>212.789</ele>
        <time>2022-08-27T09:38:32Z</time>
      </trkpt>
      <trkpt lat="43.516332" lon="-5.475232">
        <ele>213.135</ele>
        <time>2022-08-27T09:38:34Z</time>
      </trkpt>
      <trkpt lat="43.516340" lon="-5.475145">
        <ele>214.079</ele>
        <time>2022-08-27T09:38:36Z</time>
      </trkpt>
      <trkpt lat="43.516343" lon="-5.475063">
        <ele>214.876</ele>
        <time>2022-08-27T09:38:38Z</time>
      </trkpt>
      <trkpt lat="43.516345" lon="-5.474986">
        <ele>215.643</ele>
        <time>2022-08-27T09:38:40Z</time>
      </trkpt>
      <trkpt lat="43.516348" lon="-5.474903">
        <ele>216.537</ele>
        <time>2022-08-27T09:38:42Z</time>
      </trkpt>
      <trkpt lat="43.516355" lon="-5.474816">
        <ele>216.549</ele>
        <time>2022-08-27T09:38:44Z</time>
      </trkpt>
      <trkpt lat="43.516363" lon="-5.474726">
        <ele>216.513</ele>
        <time>2022-08-27T09:38:46Z</time>
      </trkpt>
      <trkpt lat="43.516368" lon="-5.474646">
        <ele>216.509</ele>
        <time>2022-08-27T09:38:48Z</time>
      </trkpt>
      <trkpt lat="43.516368" lon="-5.474573">
        <ele>216.484</ele>
        <time>2022-08-27T09:38:50Z</time>
      </trkpt>
      <trkpt lat="43.516375" lon="-5.474496">
        <ele>216.314</ele>
        <time>2022-08-27T09:38:52Z</time>
      </trkpt>
      <trkpt lat="43.516382" lon="-5.474418">
        <ele>216.325</ele>
        <time>2022-08-27T09:38:54Z</time>
      </trkpt>
      <trkpt lat="43.516389" lon="-5.474340">
        <ele>216.433</ele>
        <time>2022-08-27T09:38:56Z</time>
      </trkpt>
      <trkpt lat="43.516394" lon="-5.474262">
        <ele>216.553</ele>
        <time>2022-08-27T09:38:58Z</time>
      </trkpt>
      <trkpt lat="43.516402" lon="-5.474177">
        <ele>216.889</ele>
        <time>2022-08-27T09:39:00Z</time>
      </trkpt>
      <trkpt lat="43.516410" lon="-5.474092">
        <ele>217.283</ele>
        <time>2022-08-27T09:39:02Z</time>
      </trkpt>
      <trkpt lat="43.516415" lon="-5.474007">
        <ele>217.680</ele>
        <time>2022-08-27T09:39:04Z</time>
      </trkpt>
      <trkpt lat="43.516420" lon="-5.473922">
        <ele>218.797</ele>
        <time>2022-08-27T09:39:06Z</time>
      </trkpt>
      <trkpt lat="43.516425" lon="-5.473834">
        <ele>219.483</ele>
        <time>2022-08-27T09:39:08Z</time>
      </trkpt>
      <trkpt lat="43.516428" lon="-5.473747">
        <ele>219.825</ele>
        <time>2022-08-27T09:39:10Z</time>
      </trkpt>
      <trkpt lat="43.516433" lon="-5.473660">
        <ele>220.417</ele>
        <time>2022-08-27T09:39:12Z</time>
      </trkpt>
      <trkpt lat="43.516441" lon="-5.473575">
        <ele>220.909</ele>
        <time>2022-08-27T09:39:14Z</time>
      </trkpt>
      <trkpt lat="43.516449" lon="-5.473497">
        <ele>221.789</ele>
        <time>2022-08-27T09:39:16Z</time>
      </trkpt>
      <trkpt lat="43.516456" lon="-5.473420">
        <ele>222.329</ele>
        <time>2022-08-27T09:39:18Z</time>
      </trkpt>
      <trkpt lat="43.516464" lon="-5.473340">
        <ele>222.750</ele>
        <time>2022-08-27T09:39:20Z</time>
      </trkpt>
      <trkpt lat="43.516464" lon="-5.473255">
        <ele>223.288</ele>
        <time>2022-08-27T09:39:22Z</time>
      </trkpt>
      <trkpt lat="43.516466" lon="-5.473168">
        <ele>223.668</ele>
        <time>2022-08-27T09:39:24Z</time>
      </trkpt>
      <trkpt lat="43.516471" lon="-5.473085">
        <ele>224.054</ele>
        <time>2022-08-27T09:39:26Z</time>
      </trkpt>
      <trkpt lat="43.516476" lon="-5.473003">
        <ele>224.278</ele>
        <time>2022-08-27T09:39:28Z</time>
      </trkpt>
      <trkpt lat="43.516481" lon="-5.472925">
        <ele>224.245</ele>
        <time>2022-08-27T09:39:30Z</time>
      </trkpt>
      <trkpt lat="43.516486" lon="-5.472842">
        <ele>224.452</ele>
        <time>2022-08-27T09:39:32Z</time>
      </trkpt>
      <trkpt lat="43.516491" lon="-5.472757">
        <ele>224.655</ele>
        <time>2022-08-27T09:39:34Z</time>
      </trkpt>
      <trkpt lat="43.516496" lon="-5.472672">
        <ele>225.207</ele>
        <time>2022-08-27T09:39:36Z</time>
      </trkpt>
      <trkpt lat="43.516504" lon="-5.472590">
        <ele>225.617</ele>
        <time>2022-08-27T09:39:38Z</time>
      </trkpt>
      <trkpt lat="43.516509" lon="-5.472513">
        <ele>225.809</ele>
        <time>2022-08-27T09:39:40Z</time>
      </trkpt>
      <trkpt lat="43.516517" lon="-5.472436">
        <ele>225.996</ele>
        <time>2022-08-27T09:39:42Z</time>
      </trkpt>
      <trkpt lat="43.516519" lon="-5.472358">
        <ele>226.236</ele>
        <time>2022-08-27T09:39:44Z</time>
      </trkpt>
      <trkpt lat="43.516522" lon="-5.472281">
        <ele>226.317</ele>
        <time>2022-08-27T09:39:46Z</time>
      </trkpt>
      <trkpt lat="43.516525" lon="-5.472201">
        <ele>226.425</ele>
        <time>2022-08-27T09:39:48Z</time>
      </trkpt>
      <trkpt lat="43.516530" lon="-5.472121">
        <ele>226.755</ele>
        <time>2022-08-27T09:39:50Z</time>
      </trkpt>
      <trkpt lat="43.516535" lon="-5.472039">
        <ele>227.011</ele>
        <time>2022-08-27T09:39:52Z</time>
      </trkpt>
      <trkpt lat="43.516537" lon="-5.471956">
        <ele>227.415</ele>
        <time>2022-08-27T09:39:54Z</time>
      </trkpt>
      <trkpt lat="43.516535" lon="-5.471869">
        <ele>227.952</ele>
        <time>2022-08-27T09:39:56Z</time>
      </trkpt>
      <trkpt lat="43.516528" lon="-5.471779">
        <ele>228.419</ele>
        <time>2022-08-27T09:39:58Z</time>
      </trkpt>
      <trkpt lat="43.516523" lon="-5.471686">
        <ele>229.014</ele>
        <time>2022-08-27T09:40:00Z</time>
      </trkpt>
      <trkpt lat="43.516513" lon="-5.471591">
        <ele>229.654</ele>
        <time>2022-08-27T09:40:02Z</time>
      </trkpt>
      <trkpt lat="43.516500" lon="-5.471499">
        <ele>229.909</ele>
        <time>2022-08-27T09:40:04Z</time>
      </trkpt>
      <trkpt lat="43.516483" lon="-5.471402">
        <ele>230.209</ele>
        <time>2022-08-27T09:40:06Z</time>
      </trkpt>
      <trkpt lat="43.516461" lon="-5.471302">
        <ele>230.622</ele>
        <time>2022-08-27T09:40:08Z</time>
      </trkpt>
      <trkpt lat="43.516438" lon="-5.471205">
        <ele>230.762</ele>
        <time>2022-08-27T09:40:10Z</time>
      </trkpt>
      <trkpt lat="43.516408" lon="-5.471103">
        <ele>230.753</ele>
        <time>2022-08-27T09:40:12Z</time>
      </trkpt>
      <trkpt lat="43.516370" lon="-5.471003">
        <ele>230.531</ele>
        <time>2022-08-27T09:40:14Z</time>
      </trkpt>
      <trkpt lat="43.516332" lon="-5.470906">
        <ele>230.431</ele>
        <time>2022-08-27T09:40:16Z</time>
      </trkpt>
      <trkpt lat="43.516284" lon="-5.470801">
        <ele>230.327</ele>
        <time>2022-08-27T09:40:18Z</time>
      </trkpt>
      <trkpt lat="43.516236" lon="-5.470684">
        <ele>230.261</ele>
        <time>2022-08-27T09:40:20Z</time>
      </trkpt>
      <trkpt lat="43.516209" lon="-5.470622">
        <ele>229.988</ele>
        <time>2022-08-27T09:40:21Z</time>
      </trkpt>
      <trkpt lat="43.516151" lon="-5.470499">
        <ele>228.335</ele>
        <time>2022-08-27T09:40:23Z</time>
      </trkpt>
      <trkpt lat="43.516123" lon="-5.470436">
        <ele>227.869</ele>
        <time>2022-08-27T09:40:24Z</time>
      </trkpt>
      <trkpt lat="43.516060" lon="-5.470304">
        <ele>227.204</ele>
        <time>2022-08-27T09:40:26Z</time>
      </trkpt>
      <trkpt lat="43.516030" lon="-5.470237">
        <ele>227.024</ele>
        <time>2022-08-27T09:40:27Z</time>
      </trkpt>
      <trkpt lat="43.515998" lon="-5.470167">
        <ele>226.609</ele>
        <time>2022-08-27T09:40:28Z</time>
      </trkpt>
      <trkpt lat="43.515938" lon="-5.470025">
        <ele>225.937</ele>
        <time>2022-08-27T09:40:30Z</time>
      </trkpt>
      <trkpt lat="43.515888" lon="-5.469873">
        <ele>225.497</ele>
        <time>2022-08-27T09:40:32Z</time>
      </trkpt>
      <trkpt lat="43.515865" lon="-5.469791">
        <ele>225.238</ele>
        <time>2022-08-27T09:40:33Z</time>
      </trkpt>
      <trkpt lat="43.515828" lon="-5.469616">
        <ele>224.886</ele>
        <time>2022-08-27T09:40:35Z</time>
      </trkpt>
      <trkpt lat="43.515805" lon="-5.469428">
        <ele>224.336</ele>
        <time>2022-08-27T09:40:37Z</time>
      </trkpt>
      <trkpt lat="43.515800" lon="-5.469333">
        <ele>223.982</ele>
        <time>2022-08-27T09:40:38Z</time>
      </trkpt>
      <trkpt lat="43.515802" lon="-5.469143">
        <ele>223.616</ele>
        <time>2022-08-27T09:40:40Z</time>
      </trkpt>
      <trkpt lat="43.515815" lon="-5.468963">
        <ele>223.123</ele>
        <time>2022-08-27T09:40:42Z</time>
      </trkpt>
      <trkpt lat="43.515845" lon="-5.468785">
        <ele>222.560</ele>
        <time>2022-08-27T09:40:44Z</time>
      </trkpt>
      <trkpt lat="43.515885" lon="-5.468610">
        <ele>222.028</ele>
        <time>2022-08-27T09:40:46Z</time>
      </trkpt>
      <trkpt lat="43.515932" lon="-5.468440">
        <ele>221.789</ele>
        <time>2022-08-27T09:40:48Z</time>
      </trkpt>
      <trkpt lat="43.515974" lon="-5.468273">
        <ele>221.317</ele>
        <time>2022-08-27T09:40:50Z</time>
      </trkpt>
      <trkpt lat="43.515999" lon="-5.468193">
        <ele>221.109</ele>
        <time>2022-08-27T09:40:51Z</time>
      </trkpt>
      <trkpt lat="43.516049" lon="-5.468038">
        <ele>220.843</ele>
        <time>2022-08-27T09:40:53Z</time>
      </trkpt>
      <trkpt lat="43.516092" lon="-5.467896">
        <ele>220.673</ele>
        <time>2022-08-27T09:40:55Z</time>
      </trkpt>
      <trkpt lat="43.516115" lon="-5.467828">
        <ele>220.664</ele>
        <time>2022-08-27T09:40:56Z</time>
      </trkpt>
      <trkpt lat="43.516157" lon="-5.467696">
        <ele>220.672</ele>
        <time>2022-08-27T09:40:58Z</time>
      </trkpt>
      <trkpt lat="43.516174" lon="-5.467631">
        <ele>220.892</ele>
        <time>2022-08-27T09:40:59Z</time>
      </trkpt>
      <trkpt lat="43.516192" lon="-5.467568">
        <ele>220.958</ele>
        <time>2022-08-27T09:41:00Z</time>
      </trkpt>
      <trkpt lat="43.516209" lon="-5.467506">
        <ele>221.172</ele>
        <time>2022-08-27T09:41:01Z</time>
      </trkpt>
      <trkpt lat="43.516226" lon="-5.467446">
        <ele>221.479</ele>
        <time>2022-08-27T09:41:02Z</time>
      </trkpt>
      <trkpt lat="43.516261" lon="-5.467331">
        <ele>222.046</ele>
        <time>2022-08-27T09:41:04Z</time>
      </trkpt>
      <trkpt lat="43.516274" lon="-5.467271">
        <ele>222.212</ele>
        <time>2022-08-27T09:41:05Z</time>
      </trkpt>
      <trkpt lat="43.516299" lon="-5.467156">
        <ele>222.232</ele>
        <time>2022-08-27T09:41:07Z</time>
      </trkpt>
      <trkpt lat="43.516326" lon="-5.467041">
        <ele>222.205</ele>
        <time>2022-08-27T09:41:09Z</time>
      </trkpt>
      <trkpt lat="43.516351" lon="-5.466928">
        <ele>222.009</ele>
        <time>2022-08-27T09:41:11Z</time>
      </trkpt>
      <trkpt lat="43.516376" lon="-5.466816">
        <ele>222.062</ele>
        <time>2022-08-27T09:41:13Z</time>
      </trkpt>
      <trkpt lat="43.516401" lon="-5.466703">
        <ele>222.022</ele>
        <time>2022-08-27T09:41:15Z</time>
      </trkpt>
      <trkpt lat="43.516426" lon="-5.466586">
        <ele>222.143</ele>
        <time>2022-08-27T09:41:17Z</time>
      </trkpt>
      <trkpt lat="43.516453" lon="-5.466469">
        <ele>222.711</ele>
        <time>2022-08-27T09:41:19Z</time>
      </trkpt>
      <trkpt lat="43.516480" lon="-5.466351">
        <ele>222.991</ele>
        <time>2022-08-27T09:41:21Z</time>
      </trkpt>
      <trkpt lat="43.516500" lon="-5.466228">
        <ele>222.987</ele>
        <time>2022-08-27T09:41:23Z</time>
      </trkpt>
      <trkpt lat="43.516535" lon="-5.466118">
        <ele>222.851</ele>
        <time>2022-08-27T09:41:25Z</time>
      </trkpt>
      <trkpt lat="43.516558" lon="-5.466008">
        <ele>222.768</ele>
        <time>2022-08-27T09:41:27Z</time>
      </trkpt>
      <trkpt lat="43.516570" lon="-5.465898">
        <ele>222.665</ele>
        <time>2022-08-27T09:41:29Z</time>
      </trkpt>
      <trkpt lat="43.516590" lon="-5.465790">
        <ele>222.467</ele>
        <time>2022-08-27T09:41:31Z</time>
      </trkpt>
      <trkpt lat="43.516608" lon="-5.465685">
        <ele>221.781</ele>
        <time>2022-08-27T09:41:33Z</time>
      </trkpt>
      <trkpt lat="43.516635" lon="-5.465578">
        <ele>221.719</ele>
        <time>2022-08-27T09:41:35Z</time>
      </trkpt>
      <trkpt lat="43.516662" lon="-5.465466">
        <ele>221.709</ele>
        <time>2022-08-27T09:41:37Z</time>
      </trkpt>
      <trkpt lat="43.516685" lon="-5.465348">
        <ele>222.057</ele>
        <time>2022-08-27T09:41:39Z</time>
      </trkpt>
      <trkpt lat="43.516710" lon="-5.465235">
        <ele>222.817</ele>
        <time>2022-08-27T09:41:41Z</time>
      </trkpt>
      <trkpt lat="43.516730" lon="-5.465117">
        <ele>223.178</ele>
        <time>2022-08-27T09:41:43Z</time>
      </trkpt>
      <trkpt lat="43.516753" lon="-5.465005">
        <ele>223.246</ele>
        <time>2022-08-27T09:41:45Z</time>
      </trkpt>
      <trkpt lat="43.516780" lon="-5.464898">
        <ele>223.216</ele>
        <time>2022-08-27T09:41:47Z</time>
      </trkpt>
      <trkpt lat="43.516807" lon="-5.464796">
        <ele>222.912</ele>
        <time>2022-08-27T09:41:49Z</time>
      </trkpt>
      <trkpt lat="43.516835" lon="-5.464694">
        <ele>222.576</ele>
        <time>2022-08-27T09:41:50Z</time>
      </trkpt>
      <trkpt lat="43.516867" lon="-5.464589">
        <ele>222.173</ele>
        <time>2022-08-27T09:41:53Z</time>
      </trkpt>
      <trkpt lat="43.516907" lon="-5.464484">
        <ele>221.830</ele>
        <time>2022-08-27T09:41:55Z</time>
      </trkpt>
      <trkpt lat="43.516949" lon="-5.464382">
        <ele>221.363</ele>
        <time>2022-08-27T09:41:57Z</time>
      </trkpt>
      <trkpt lat="43.516982" lon="-5.464274">
        <ele>221.244</ele>
        <time>2022-08-27T09:41:59Z</time>
      </trkpt>
      <trkpt lat="43.517020" lon="-5.464164">
        <ele>220.718</ele>
        <time>2022-08-27T09:42:01Z</time>
      </trkpt>
      <trkpt lat="43.517063" lon="-5.464054">
        <ele>220.009</ele>
        <time>2022-08-27T09:42:03Z</time>
      </trkpt>
      <trkpt lat="43.517086" lon="-5.463996">
        <ele>219.677</ele>
        <time>2022-08-27T09:42:04Z</time>
      </trkpt>
      <trkpt lat="43.517113" lon="-5.463936">
        <ele>219.487</ele>
        <time>2022-08-27T09:42:05Z</time>
      </trkpt>
      <trkpt lat="43.517166" lon="-5.463813">
        <ele>219.078</ele>
        <time>2022-08-27T09:42:07Z</time>
      </trkpt>
      <trkpt lat="43.517191" lon="-5.463751">
        <ele>218.766</ele>
        <time>2022-08-27T09:42:08Z</time>
      </trkpt>
      <trkpt lat="43.517216" lon="-5.463688">
        <ele>218.416</ele>
        <time>2022-08-27T09:42:09Z</time>
      </trkpt>
      <trkpt lat="43.517264" lon="-5.463560">
        <ele>218.042</ele>
        <time>2022-08-27T09:42:11Z</time>
      </trkpt>
      <trkpt lat="43.517292" lon="-5.463498">
        <ele>217.936</ele>
        <time>2022-08-27T09:42:12Z</time>
      </trkpt>
      <trkpt lat="43.517320" lon="-5.463435">
        <ele>217.853</ele>
        <time>2022-08-27T09:42:13Z</time>
      </trkpt>
      <trkpt lat="43.517377" lon="-5.463310">
        <ele>217.550</ele>
        <time>2022-08-27T09:42:15Z</time>
      </trkpt>
      <trkpt lat="43.517435" lon="-5.463180">
        <ele>217.555</ele>
        <time>2022-08-27T09:42:17Z</time>
      </trkpt>
      <trkpt lat="43.517462" lon="-5.463113">
        <ele>217.407</ele>
        <time>2022-08-27T09:42:18Z</time>
      </trkpt>
      <trkpt lat="43.517490" lon="-5.463046">
        <ele>217.417</ele>
        <time>2022-08-27T09:42:19Z</time>
      </trkpt>
      <trkpt lat="43.517543" lon="-5.462909">
        <ele>217.409</ele>
        <time>2022-08-27T09:42:21Z</time>
      </trkpt>
      <trkpt lat="43.517571" lon="-5.462842">
        <ele>217.416</ele>
        <time>2022-08-27T09:42:22Z</time>
      </trkpt>
      <trkpt lat="43.517599" lon="-5.462775">
        <ele>217.426</ele>
        <time>2022-08-27T09:42:23Z</time>
      </trkpt>
      <trkpt lat="43.517659" lon="-5.462642">
        <ele>217.427</ele>
        <time>2022-08-27T09:42:25Z</time>
      </trkpt>
      <trkpt lat="43.517691" lon="-5.462577">
        <ele>217.345</ele>
        <time>2022-08-27T09:42:26Z</time>
      </trkpt>
      <trkpt lat="43.517754" lon="-5.462450">
        <ele>217.395</ele>
        <time>2022-08-27T09:42:28Z</time>
      </trkpt>
      <trkpt lat="43.517821" lon="-5.462325">
        <ele>217.131</ele>
        <time>2022-08-27T09:42:30Z</time>
      </trkpt>
      <trkpt lat="43.517854" lon="-5.462262">
        <ele>217.175</ele>
        <time>2022-08-27T09:42:31Z</time>
      </trkpt>
      <trkpt lat="43.517892" lon="-5.462202">
        <ele>217.262</ele>
        <time>2022-08-27T09:42:32Z</time>
      </trkpt>
      <trkpt lat="43.517972" lon="-5.462079">
        <ele>217.379</ele>
        <time>2022-08-27T09:42:34Z</time>
      </trkpt>
      <trkpt lat="43.518054" lon="-5.461956">
        <ele>217.362</ele>
        <time>2022-08-27T09:42:36Z</time>
      </trkpt>
      <trkpt lat="43.518094" lon="-5.461891">
        <ele>217.183</ele>
        <time>2022-08-27T09:42:37Z</time>
      </trkpt>
      <trkpt lat="43.518136" lon="-5.461828">
        <ele>216.911</ele>
        <time>2022-08-27T09:42:38Z</time>
      </trkpt>
      <trkpt lat="43.518218" lon="-5.461705">
        <ele>216.309</ele>
        <time>2022-08-27T09:42:40Z</time>
      </trkpt>
      <trkpt lat="43.518256" lon="-5.461643">
        <ele>216.087</ele>
        <time>2022-08-27T09:42:41Z</time>
      </trkpt>
      <trkpt lat="43.518294" lon="-5.461581">
        <ele>215.897</ele>
        <time>2022-08-27T09:42:42Z</time>
      </trkpt>
      <trkpt lat="43.518331" lon="-5.461519">
        <ele>215.428</ele>
        <time>2022-08-27T09:42:43Z</time>
      </trkpt>
      <trkpt lat="43.518398" lon="-5.461394">
        <ele>215.026</ele>
        <time>2022-08-27T09:42:45Z</time>
      </trkpt>
      <trkpt lat="43.518430" lon="-5.461331">
        <ele>214.746</ele>
        <time>2022-08-27T09:42:46Z</time>
      </trkpt>
      <trkpt lat="43.518488" lon="-5.461206">
        <ele>214.022</ele>
        <time>2022-08-27T09:42:48Z</time>
      </trkpt>
      <trkpt lat="43.518516" lon="-5.461146">
        <ele>213.716</ele>
        <time>2022-08-27T09:42:49Z</time>
      </trkpt>
      <trkpt lat="43.518569" lon="-5.461023">
        <ele>213.783</ele>
        <time>2022-08-27T09:42:51Z</time>
      </trkpt>
      <trkpt lat="43.518592" lon="-5.460960">
        <ele>213.780</ele>
        <time>2022-08-27T09:42:52Z</time>
      </trkpt>
      <trkpt lat="43.518615" lon="-5.460900">
        <ele>213.729</ele>
        <time>2022-08-27T09:42:53Z</time>
      </trkpt>
      <trkpt lat="43.518638" lon="-5.460838">
        <ele>213.700</ele>
        <time>2022-08-27T09:42:54Z</time>
      </trkpt>
      <trkpt lat="43.518685" lon="-5.460708">
        <ele>213.720</ele>
        <time>2022-08-27T09:42:56Z</time>
      </trkpt>
      <trkpt lat="43.518732" lon="-5.460576">
        <ele>213.509</ele>
        <time>2022-08-27T09:42:58Z</time>
      </trkpt>
      <trkpt lat="43.518755" lon="-5.460509">
        <ele>213.393</ele>
        <time>2022-08-27T09:42:59Z</time>
      </trkpt>
      <trkpt lat="43.518803" lon="-5.460376">
        <ele>213.013</ele>
        <time>2022-08-27T09:43:01Z</time>
      </trkpt>
      <trkpt lat="43.518830" lon="-5.460306">
        <ele>212.824</ele>
        <time>2022-08-27T09:43:02Z</time>
      </trkpt>
      <trkpt lat="43.518883" lon="-5.460166">
        <ele>212.262</ele>
        <time>2022-08-27T09:43:04Z</time>
      </trkpt>
      <trkpt lat="43.518936" lon="-5.460023">
        <ele>211.692</ele>
        <time>2022-08-27T09:43:06Z</time>
      </trkpt>
      <trkpt lat="43.518961" lon="-5.459948">
        <ele>211.368</ele>
        <time>2022-08-27T09:43:07Z</time>
      </trkpt>
      <trkpt lat="43.518988" lon="-5.459875">
        <ele>211.072</ele>
        <time>2022-08-27T09:43:08Z</time>
      </trkpt>
      <trkpt lat="43.519041" lon="-5.459725">
        <ele>210.569</ele>
        <time>2022-08-27T09:43:10Z</time>
      </trkpt>
      <trkpt lat="43.519069" lon="-5.459647">
        <ele>210.156</ele>
        <time>2022-08-27T09:43:11Z</time>
      </trkpt>
      <trkpt lat="43.519122" lon="-5.459485">
        <ele>209.553</ele>
        <time>2022-08-27T09:43:13Z</time>
      </trkpt>
      <trkpt lat="43.519175" lon="-5.459315">
        <ele>208.804</ele>
        <time>2022-08-27T09:43:15Z</time>
      </trkpt>
      <trkpt lat="43.519205" lon="-5.459225">
        <ele>208.714</ele>
        <time>2022-08-27T09:43:16Z</time>
      </trkpt>
      <trkpt lat="43.519235" lon="-5.459137">
        <ele>208.109</ele>
        <time>2022-08-27T09:43:17Z</time>
      </trkpt>
      <trkpt lat="43.519292" lon="-5.458954">
        <ele>207.246</ele>
        <time>2022-08-27T09:43:19Z</time>
      </trkpt>
      <trkpt lat="43.519315" lon="-5.458854">
        <ele>206.876</ele>
        <time>2022-08-27T09:43:20Z</time>
      </trkpt>
      <trkpt lat="43.519343" lon="-5.458642">
        <ele>205.827</ele>
        <time>2022-08-27T09:43:22Z</time>
      </trkpt>
      <trkpt lat="43.519353" lon="-5.458424">
        <ele>205.025</ele>
        <time>2022-08-27T09:43:24Z</time>
      </trkpt>
      <trkpt lat="43.519338" lon="-5.458204">
        <ele>204.475</ele>
        <time>2022-08-27T09:43:26Z</time>
      </trkpt>
      <trkpt lat="43.519311" lon="-5.457982">
        <ele>203.491</ele>
        <time>2022-08-27T09:43:28Z</time>
      </trkpt>
      <trkpt lat="43.519288" lon="-5.457870">
        <ele>203.115</ele>
        <time>2022-08-27T09:43:29Z</time>
      </trkpt>
      <trkpt lat="43.519263" lon="-5.457757">
        <ele>202.962</ele>
        <time>2022-08-27T09:43:30Z</time>
      </trkpt>
      <trkpt lat="43.519208" lon="-5.457532">
        <ele>202.419</ele>
        <time>2022-08-27T09:43:32Z</time>
      </trkpt>
      <trkpt lat="43.519180" lon="-5.457417">
        <ele>202.284</ele>
        <time>2022-08-27T09:43:33Z</time>
      </trkpt>
      <trkpt lat="43.519125" lon="-5.457189">
        <ele>201.207</ele>
        <time>2022-08-27T09:43:35Z</time>
      </trkpt>
      <trkpt lat="43.519070" lon="-5.456956">
        <ele>200.117</ele>
        <time>2022-08-27T09:43:37Z</time>
      </trkpt>
      <trkpt lat="43.519047" lon="-5.456838">
        <ele>199.509</ele>
        <time>2022-08-27T09:43:38Z</time>
      </trkpt>
      <trkpt lat="43.519009" lon="-5.456601">
        <ele>198.469</ele>
        <time>2022-08-27T09:43:40Z</time>
      </trkpt>
      <trkpt lat="43.518994" lon="-5.456483">
        <ele>198.049</ele>
        <time>2022-08-27T09:43:41Z</time>
      </trkpt>
      <trkpt lat="43.518972" lon="-5.456243">
        <ele>197.020</ele>
        <time>2022-08-27T09:43:43Z</time>
      </trkpt>
      <trkpt lat="43.518960" lon="-5.456001">
        <ele>196.068</ele>
        <time>2022-08-27T09:43:45Z</time>
      </trkpt>
      <trkpt lat="43.518945" lon="-5.455761">
        <ele>194.838</ele>
        <time>2022-08-27T09:43:47Z</time>
      </trkpt>
      <trkpt lat="43.518937" lon="-5.455639">
        <ele>194.574</ele>
        <time>2022-08-27T09:43:48Z</time>
      </trkpt>
      <trkpt lat="43.518924" lon="-5.455399">
        <ele>193.998</ele>
        <time>2022-08-27T09:43:50Z</time>
      </trkpt>
      <trkpt lat="43.518921" lon="-5.455277">
        <ele>193.775</ele>
        <time>2022-08-27T09:43:51Z</time>
      </trkpt>
      <trkpt lat="43.518921" lon="-5.455044">
        <ele>193.152</ele>
        <time>2022-08-27T09:43:53Z</time>
      </trkpt>
      <trkpt lat="43.518928" lon="-5.454931">
        <ele>193.042</ele>
        <time>2022-08-27T09:43:54Z</time>
      </trkpt>
      <trkpt lat="43.518951" lon="-5.454711">
        <ele>192.822</ele>
        <time>2022-08-27T09:43:56Z</time>
      </trkpt>
      <trkpt lat="43.518994" lon="-5.454504">
        <ele>192.214</ele>
        <time>2022-08-27T09:43:58Z</time>
      </trkpt>
      <trkpt lat="43.519019" lon="-5.454406">
        <ele>192.009</ele>
        <time>2022-08-27T09:43:59Z</time>
      </trkpt>
      <trkpt lat="43.519077" lon="-5.454219">
        <ele>192.265</ele>
        <time>2022-08-27T09:44:01Z</time>
      </trkpt>
      <trkpt lat="43.519139" lon="-5.454042">
        <ele>193.265</ele>
        <time>2022-08-27T09:44:03Z</time>
      </trkpt>
      <trkpt lat="43.519167" lon="-5.453960">
        <ele>193.936</ele>
        <time>2022-08-27T09:44:04Z</time>
      </trkpt>
      <trkpt lat="43.519225" lon="-5.453798">
        <ele>195.164</ele>
        <time>2022-08-27T09:44:06Z</time>
      </trkpt>
      <trkpt lat="43.519257" lon="-5.453726">
        <ele>195.664</ele>
        <time>2022-08-27T09:44:07Z</time>
      </trkpt>
      <trkpt lat="43.519307" lon="-5.453586">
        <ele>195.780</ele>
        <time>2022-08-27T09:44:09Z</time>
      </trkpt>
      <trkpt lat="43.519350" lon="-5.453449">
        <ele>195.544</ele>
        <time>2022-08-27T09:44:11Z</time>
      </trkpt>
      <trkpt lat="43.519372" lon="-5.453391">
        <ele>195.591</ele>
        <time>2022-08-27T09:44:12Z</time>
      </trkpt>
      <trkpt lat="43.519415" lon="-5.453276">
        <ele>195.218</ele>
        <time>2022-08-27T09:44:14Z</time>
      </trkpt>
      <trkpt lat="43.519450" lon="-5.453166">
        <ele>195.043</ele>
        <time>2022-08-27T09:44:16Z</time>
      </trkpt>
      <trkpt lat="43.519482" lon="-5.453061">
        <ele>195.064</ele>
        <time>2022-08-27T09:44:18Z</time>
      </trkpt>
      <trkpt lat="43.519505" lon="-5.452968">
        <ele>195.010</ele>
        <time>2022-08-27T09:44:20Z</time>
      </trkpt>
      <trkpt lat="43.519522" lon="-5.452875">
        <ele>195.009</ele>
        <time>2022-08-27T09:44:22Z</time>
      </trkpt>
      <trkpt lat="43.519530" lon="-5.452792">
        <ele>195.245</ele>
        <time>2022-08-27T09:44:24Z</time>
      </trkpt>
      <trkpt lat="43.519537" lon="-5.452714">
        <ele>195.485</ele>
        <time>2022-08-27T09:44:26Z</time>
      </trkpt>
      <trkpt lat="43.519542" lon="-5.452616">
        <ele>195.416</ele>
        <time>2022-08-27T09:44:28Z</time>
      </trkpt>
      <trkpt lat="43.519544" lon="-5.452508">
        <ele>196.174</ele>
        <time>2022-08-27T09:44:30Z</time>
      </trkpt>
      <trkpt lat="43.519549" lon="-5.452411">
        <ele>196.744</ele>
        <time>2022-08-27T09:44:32Z</time>
      </trkpt>
      <trkpt lat="43.519552" lon="-5.452328">
        <ele>196.920</ele>
        <time>2022-08-27T09:44:34Z</time>
      </trkpt>
      <trkpt lat="43.519550" lon="-5.452253">
        <ele>197.254</ele>
        <time>2022-08-27T09:44:36Z</time>
      </trkpt>
      <trkpt lat="43.519548" lon="-5.452175">
        <ele>197.681</ele>
        <time>2022-08-27T09:44:38Z</time>
      </trkpt>
      <trkpt lat="43.519550" lon="-5.452095">
        <ele>198.028</ele>
        <time>2022-08-27T09:44:40Z</time>
      </trkpt>
      <trkpt lat="43.519550" lon="-5.452017">
        <ele>198.217</ele>
        <time>2022-08-27T09:44:42Z</time>
      </trkpt>
      <trkpt lat="43.519553" lon="-5.451945">
        <ele>198.787</ele>
        <time>2022-08-27T09:44:44Z</time>
      </trkpt>
      <trkpt lat="43.519556" lon="-5.451870">
        <ele>199.115</ele>
        <time>2022-08-27T09:44:46Z</time>
      </trkpt>
      <trkpt lat="43.519558" lon="-5.451792">
        <ele>199.209</ele>
        <time>2022-08-27T09:44:48Z</time>
      </trkpt>
      <trkpt lat="43.519558" lon="-5.451714">
        <ele>199.332</ele>
        <time>2022-08-27T09:44:50Z</time>
      </trkpt>
      <trkpt lat="43.519561" lon="-5.451636">
        <ele>199.632</ele>
        <time>2022-08-27T09:44:52Z</time>
      </trkpt>
      <trkpt lat="43.519566" lon="-5.451558">
        <ele>199.953</ele>
        <time>2022-08-27T09:44:54Z</time>
      </trkpt>
      <trkpt lat="43.519574" lon="-5.451473">
        <ele>200.291</ele>
        <time>2022-08-27T09:44:56Z</time>
      </trkpt>
      <trkpt lat="43.519579" lon="-5.451393">
        <ele>200.651</ele>
        <time>2022-08-27T09:44:58Z</time>
      </trkpt>
      <trkpt lat="43.519587" lon="-5.451311">
        <ele>200.647</ele>
        <time>2022-08-27T09:45:00Z</time>
      </trkpt>
      <trkpt lat="43.519602" lon="-5.451231">
        <ele>200.731</ele>
        <time>2022-08-27T09:45:02Z</time>
      </trkpt>
      <trkpt lat="43.519620" lon="-5.451153">
        <ele>200.848</ele>
        <time>2022-08-27T09:45:04Z</time>
      </trkpt>
      <trkpt lat="43.519638" lon="-5.451078">
        <ele>200.865</ele>
        <time>2022-08-27T09:45:06Z</time>
      </trkpt>
      <trkpt lat="43.519658" lon="-5.450998">
        <ele>200.948</ele>
        <time>2022-08-27T09:45:08Z</time>
      </trkpt>
      <trkpt lat="43.519675" lon="-5.450915">
        <ele>201.061</ele>
        <time>2022-08-27T09:45:10Z</time>
      </trkpt>
      <trkpt lat="43.519692" lon="-5.450835">
        <ele>201.017</ele>
        <time>2022-08-27T09:45:12Z</time>
      </trkpt>
      <trkpt lat="43.519710" lon="-5.450755">
        <ele>201.209</ele>
        <time>2022-08-27T09:45:14Z</time>
      </trkpt>
      <trkpt lat="43.519725" lon="-5.450672">
        <ele>201.365</ele>
        <time>2022-08-27T09:45:16Z</time>
      </trkpt>
      <trkpt lat="43.519742" lon="-5.450589">
        <ele>201.335</ele>
        <time>2022-08-27T09:45:18Z</time>
      </trkpt>
      <trkpt lat="43.519757" lon="-5.450502">
        <ele>201.476</ele>
        <time>2022-08-27T09:45:20Z</time>
      </trkpt>
      <trkpt lat="43.519775" lon="-5.450410">
        <ele>201.494</ele>
        <time>2022-08-27T09:45:22Z</time>
      </trkpt>
      <trkpt lat="43.519797" lon="-5.450322">
        <ele>201.434</ele>
        <time>2022-08-27T09:45:24Z</time>
      </trkpt>
      <trkpt lat="43.519815" lon="-5.450240">
        <ele>201.630</ele>
        <time>2022-08-27T09:45:26Z</time>
      </trkpt>
      <trkpt lat="43.519830" lon="-5.450157">
        <ele>202.344</ele>
        <time>2022-08-27T09:45:28Z</time>
      </trkpt>
      <trkpt lat="43.519850" lon="-5.450072">
        <ele>202.911</ele>
        <time>2022-08-27T09:45:30Z</time>
      </trkpt>
      <trkpt lat="43.519870" lon="-5.449982">
        <ele>203.348</ele>
        <time>2022-08-27T09:45:32Z</time>
      </trkpt>
      <trkpt lat="43.519890" lon="-5.449890">
        <ele>203.351</ele>
        <time>2022-08-27T09:45:34Z</time>
      </trkpt>
      <trkpt lat="43.519912" lon="-5.449803">
        <ele>203.301</ele>
        <time>2022-08-27T09:45:36Z</time>
      </trkpt>
      <trkpt lat="43.519935" lon="-5.449710">
        <ele>203.111</ele>
        <time>2022-08-27T09:45:38Z</time>
      </trkpt>
      <trkpt lat="43.519960" lon="-5.449612">
        <ele>203.009</ele>
        <time>2022-08-27T09:45:40Z</time>
      </trkpt>
      <trkpt lat="43.519982" lon="-5.449514">
        <ele>202.896</ele>
        <time>2022-08-27T09:45:42Z</time>
      </trkpt>
      <trkpt lat="43.520005" lon="-5.449416">
        <ele>202.896</ele>
        <time>2022-08-27T09:45:44Z</time>
      </trkpt>
      <trkpt lat="43.520025" lon="-5.449318">
        <ele>202.887</ele>
        <time>2022-08-27T09:45:46Z</time>
      </trkpt>
      <trkpt lat="43.520045" lon="-5.449216">
        <ele>202.765</ele>
        <time>2022-08-27T09:45:48Z</time>
      </trkpt>
      <trkpt lat="43.520068" lon="-5.449113">
        <ele>202.735</ele>
        <time>2022-08-27T09:45:50Z</time>
      </trkpt>
      <trkpt lat="43.520091" lon="-5.449013">
        <ele>202.681</ele>
        <time>2022-08-27T09:45:52Z</time>
      </trkpt>
      <trkpt lat="43.520109" lon="-5.448913">
        <ele>202.535</ele>
        <time>2022-08-27T09:45:54Z</time>
      </trkpt>
      <trkpt lat="43.520132" lon="-5.448811">
        <ele>202.512</ele>
        <time>2022-08-27T09:45:56Z</time>
      </trkpt>
      <trkpt lat="43.520154" lon="-5.448706">
        <ele>202.519</ele>
        <time>2022-08-27T09:45:58Z</time>
      </trkpt>
      <trkpt lat="43.520179" lon="-5.448601">
        <ele>203.137</ele>
        <time>2022-08-27T09:46:00Z</time>
      </trkpt>
      <trkpt lat="43.520204" lon="-5.448496">
        <ele>203.349</ele>
        <time>2022-08-27T09:46:02Z</time>
      </trkpt>
      <trkpt lat="43.520232" lon="-5.448388">
        <ele>203.313</ele>
        <time>2022-08-27T09:46:04Z</time>
      </trkpt>
      <trkpt lat="43.520264" lon="-5.448281">
        <ele>203.109</ele>
        <time>2022-08-27T09:46:06Z</time>
      </trkpt>
      <trkpt lat="43.520296" lon="-5.448173">
        <ele>202.924</ele>
        <time>2022-08-27T09:46:08Z</time>
      </trkpt>
      <trkpt lat="43.520326" lon="-5.448063">
        <ele>202.834</ele>
        <time>2022-08-27T09:46:10Z</time>
      </trkpt>
      <trkpt lat="43.520359" lon="-5.447953">
        <ele>202.875</ele>
        <time>2022-08-27T09:46:12Z</time>
      </trkpt>
      <trkpt lat="43.520377" lon="-5.447896">
        <ele>202.733</ele>
        <time>2022-08-27T09:46:13Z</time>
      </trkpt>
      <trkpt lat="43.520407" lon="-5.447789">
        <ele>202.693</ele>
        <time>2022-08-27T09:46:15Z</time>
      </trkpt>
      <trkpt lat="43.520435" lon="-5.447677">
        <ele>202.299</ele>
        <time>2022-08-27T09:46:17Z</time>
      </trkpt>
      <trkpt lat="43.520470" lon="-5.447564">
        <ele>202.153</ele>
        <time>2022-08-27T09:46:19Z</time>
      </trkpt>
      <trkpt lat="43.520505" lon="-5.447451">
        <ele>202.040</ele>
        <time>2022-08-27T09:46:21Z</time>
      </trkpt>
      <trkpt lat="43.520542" lon="-5.447338">
        <ele>202.027</ele>
        <time>2022-08-27T09:46:23Z</time>
      </trkpt>
      <trkpt lat="43.520562" lon="-5.447280">
        <ele>202.081</ele>
        <time>2022-08-27T09:46:24Z</time>
      </trkpt>
      <trkpt lat="43.520595" lon="-5.447165">
        <ele>202.161</ele>
        <time>2022-08-27T09:46:26Z</time>
      </trkpt>
      <trkpt lat="43.520635" lon="-5.447053">
        <ele>202.317</ele>
        <time>2022-08-27T09:46:28Z</time>
      </trkpt>
      <trkpt lat="43.520655" lon="-5.446996">
        <ele>202.409</ele>
        <time>2022-08-27T09:46:29Z</time>
      </trkpt>
      <trkpt lat="43.520695" lon="-5.446883">
        <ele>202.439</ele>
        <time>2022-08-27T09:46:31Z</time>
      </trkpt>
      <trkpt lat="43.520733" lon="-5.446773">
        <ele>202.589</ele>
        <time>2022-08-27T09:46:33Z</time>
      </trkpt>
      <trkpt lat="43.520766" lon="-5.446665">
        <ele>202.670</ele>
        <time>2022-08-27T09:46:35Z</time>
      </trkpt>
      <trkpt lat="43.520801" lon="-5.446557">
        <ele>202.628</ele>
        <time>2022-08-27T09:46:37Z</time>
      </trkpt>
      <trkpt lat="43.520836" lon="-5.446449">
        <ele>202.648</ele>
        <time>2022-08-27T09:46:39Z</time>
      </trkpt>
      <trkpt lat="43.520869" lon="-5.446337">
        <ele>202.844</ele>
        <time>2022-08-27T09:46:41Z</time>
      </trkpt>
      <trkpt lat="43.520902" lon="-5.446232">
        <ele>203.298</ele>
        <time>2022-08-27T09:46:43Z</time>
      </trkpt>
      <trkpt lat="43.520935" lon="-5.446125">
        <ele>203.345</ele>
        <time>2022-08-27T09:46:45Z</time>
      </trkpt>
      <trkpt lat="43.520968" lon="-5.446027">
        <ele>203.472</ele>
        <time>2022-08-27T09:46:47Z</time>
      </trkpt>
      <trkpt lat="43.521005" lon="-5.445935">
        <ele>203.572</ele>
        <time>2022-08-27T09:46:49Z</time>
      </trkpt>
      <trkpt lat="43.521033" lon="-5.445837">
        <ele>203.913</ele>
        <time>2022-08-27T09:46:51Z</time>
      </trkpt>
      <trkpt lat="43.521056" lon="-5.445740">
        <ele>203.914</ele>
        <time>2022-08-27T09:46:53Z</time>
      </trkpt>
      <trkpt lat="43.521079" lon="-5.445648">
        <ele>204.309</ele>
        <time>2022-08-27T09:46:55Z</time>
      </trkpt>
      <trkpt lat="43.521096" lon="-5.445555">
        <ele>204.698</ele>
        <time>2022-08-27T09:46:57Z</time>
      </trkpt>
      <trkpt lat="43.521113" lon="-5.445465">
        <ele>204.728</ele>
        <time>2022-08-27T09:46:59Z</time>
      </trkpt>
      <trkpt lat="43.521128" lon="-5.445378">
        <ele>204.919</ele>
        <time>2022-08-27T09:47:01Z</time>
      </trkpt>
      <trkpt lat="43.521135" lon="-5.445291">
        <ele>205.127</ele>
        <time>2022-08-27T09:47:03Z</time>
      </trkpt>
      <trkpt lat="43.521135" lon="-5.445203">
        <ele>205.477</ele>
        <time>2022-08-27T09:47:05Z</time>
      </trkpt>
      <trkpt lat="43.521133" lon="-5.445115">
        <ele>205.913</ele>
        <time>2022-08-27T09:47:07Z</time>
      </trkpt>
      <trkpt lat="43.521130" lon="-5.445033">
        <ele>206.357</ele>
        <time>2022-08-27T09:47:09Z</time>
      </trkpt>
      <trkpt lat="43.521125" lon="-5.444956">
        <ele>206.714</ele>
        <time>2022-08-27T09:47:11Z</time>
      </trkpt>
      <trkpt lat="43.521112" lon="-5.444881">
        <ele>207.191</ele>
        <time>2022-08-27T09:47:13Z</time>
      </trkpt>
      <trkpt lat="43.521099" lon="-5.444808">
        <ele>207.679</ele>
        <time>2022-08-27T09:47:15Z</time>
      </trkpt>
      <trkpt lat="43.521086" lon="-5.444735">
        <ele>208.205</ele>
        <time>2022-08-27T09:47:17Z</time>
      </trkpt>
      <trkpt lat="43.521069" lon="-5.444660">
        <ele>208.525</ele>
        <time>2022-08-27T09:47:19Z</time>
      </trkpt>
      <trkpt lat="43.521056" lon="-5.444585">
        <ele>208.609</ele>
        <time>2022-08-27T09:47:21Z</time>
      </trkpt>
      <trkpt lat="43.521038" lon="-5.444513">
        <ele>208.948</ele>
        <time>2022-08-27T09:47:23Z</time>
      </trkpt>
      <trkpt lat="43.521021" lon="-5.444440">
        <ele>209.338</ele>
        <time>2022-08-27T09:47:25Z</time>
      </trkpt>
      <trkpt lat="43.521004" lon="-5.444367">
        <ele>210.289</ele>
        <time>2022-08-27T09:47:27Z</time>
      </trkpt>
      <trkpt lat="43.520982" lon="-5.444292">
        <ele>210.567</ele>
        <time>2022-08-27T09:47:29Z</time>
      </trkpt>
      <trkpt lat="43.520964" lon="-5.444217">
        <ele>210.877</ele>
        <time>2022-08-27T09:47:31Z</time>
      </trkpt>
      <trkpt lat="43.520946" lon="-5.444145">
        <ele>211.093</ele>
        <time>2022-08-27T09:47:33Z</time>
      </trkpt>
      <trkpt lat="43.520926" lon="-5.444073">
        <ele>211.287</ele>
        <time>2022-08-27T09:47:35Z</time>
      </trkpt>
      <trkpt lat="43.520906" lon="-5.444006">
        <ele>211.254</ele>
        <time>2022-08-27T09:47:37Z</time>
      </trkpt>
      <trkpt lat="43.520888" lon="-5.443936">
        <ele>211.281</ele>
        <time>2022-08-27T09:47:39Z</time>
      </trkpt>
      <trkpt lat="43.520870" lon="-5.443861">
        <ele>211.227</ele>
        <time>2022-08-27T09:47:41Z</time>
      </trkpt>
      <trkpt lat="43.520848" lon="-5.443791">
        <ele>211.368</ele>
        <time>2022-08-27T09:47:43Z</time>
      </trkpt>
      <trkpt lat="43.520828" lon="-5.443721">
        <ele>211.514</ele>
        <time>2022-08-27T09:47:45Z</time>
      </trkpt>
      <trkpt lat="43.520810" lon="-5.443644">
        <ele>212.009</ele>
        <time>2022-08-27T09:47:47Z</time>
      </trkpt>
      <trkpt lat="43.520793" lon="-5.443566">
        <ele>212.623</ele>
        <time>2022-08-27T09:47:49Z</time>
      </trkpt>
      <trkpt lat="43.520776" lon="-5.443486">
        <ele>213.383</ele>
        <time>2022-08-27T09:47:51Z</time>
      </trkpt>
      <trkpt lat="43.520758" lon="-5.443406">
        <ele>214.164</ele>
        <time>2022-08-27T09:47:53Z</time>
      </trkpt>
      <trkpt lat="43.520743" lon="-5.443326">
        <ele>214.662</ele>
        <time>2022-08-27T09:47:55Z</time>
      </trkpt>
      <trkpt lat="43.520728" lon="-5.443251">
        <ele>214.972</ele>
        <time>2022-08-27T09:47:57Z</time>
      </trkpt>
      <trkpt lat="43.520715" lon="-5.443171">
        <ele>215.178</ele>
        <time>2022-08-27T09:47:59Z</time>
      </trkpt>
      <trkpt lat="43.520698" lon="-5.443088">
        <ele>215.162</ele>
        <time>2022-08-27T09:48:01Z</time>
      </trkpt>
      <trkpt lat="43.520690" lon="-5.443006">
        <ele>215.259</ele>
        <time>2022-08-27T09:48:03Z</time>
      </trkpt>
      <trkpt lat="43.520677" lon="-5.442928">
        <ele>215.596</ele>
        <time>2022-08-27T09:48:05Z</time>
      </trkpt>
      <trkpt lat="43.520667" lon="-5.442850">
        <ele>215.865</ele>
        <time>2022-08-27T09:48:07Z</time>
      </trkpt>
      <trkpt lat="43.520655" lon="-5.442768">
        <ele>216.168</ele>
        <time>2022-08-27T09:48:09Z</time>
      </trkpt>
      <trkpt lat="43.520647" lon="-5.442685">
        <ele>216.114</ele>
        <time>2022-08-27T09:48:11Z</time>
      </trkpt>
      <trkpt lat="43.520634" lon="-5.442600">
        <ele>216.209</ele>
        <time>2022-08-27T09:48:13Z</time>
      </trkpt>
      <trkpt lat="43.520621" lon="-5.442513">
        <ele>216.347</ele>
        <time>2022-08-27T09:48:15Z</time>
      </trkpt>
      <trkpt lat="43.520611" lon="-5.442428">
        <ele>216.437</ele>
        <time>2022-08-27T09:48:17Z</time>
      </trkpt>
      <trkpt lat="43.520598" lon="-5.442340">
        <ele>216.718</ele>
        <time>2022-08-27T09:48:19Z</time>
      </trkpt>
      <trkpt lat="43.520590" lon="-5.442252">
        <ele>216.856</ele>
        <time>2022-08-27T09:48:21Z</time>
      </trkpt>
      <trkpt lat="43.520578" lon="-5.442162">
        <ele>216.926</ele>
        <time>2022-08-27T09:48:23Z</time>
      </trkpt>
      <trkpt lat="43.520570" lon="-5.442070">
        <ele>216.962</ele>
        <time>2022-08-27T09:48:25Z</time>
      </trkpt>
      <trkpt lat="43.520568" lon="-5.441978">
        <ele>216.876</ele>
        <time>2022-08-27T09:48:27Z</time>
      </trkpt>
      <trkpt lat="43.520563" lon="-5.441886">
        <ele>216.753</ele>
        <time>2022-08-27T09:48:29Z</time>
      </trkpt>
      <trkpt lat="43.520548" lon="-5.441796">
        <ele>216.220</ele>
        <time>2022-08-27T09:48:31Z</time>
      </trkpt>
      <trkpt lat="43.520535" lon="-5.441708">
        <ele>216.086</ele>
        <time>2022-08-27T09:48:33Z</time>
      </trkpt>
      <trkpt lat="43.520523" lon="-5.441626">
        <ele>216.060</ele>
        <time>2022-08-27T09:48:35Z</time>
      </trkpt>
      <trkpt lat="43.520511" lon="-5.441539">
        <ele>216.026</ele>
        <time>2022-08-27T09:48:37Z</time>
      </trkpt>
      <trkpt lat="43.520501" lon="-5.441457">
        <ele>216.109</ele>
        <time>2022-08-27T09:48:39Z</time>
      </trkpt>
      <trkpt lat="43.520491" lon="-5.441372">
        <ele>216.539</ele>
        <time>2022-08-27T09:48:41Z</time>
      </trkpt>
      <trkpt lat="43.520478" lon="-5.441284">
        <ele>217.299</ele>
        <time>2022-08-27T09:48:43Z</time>
      </trkpt>
      <trkpt lat="43.520468" lon="-5.441194">
        <ele>217.290</ele>
        <time>2022-08-27T09:48:45Z</time>
      </trkpt>
      <trkpt lat="43.520461" lon="-5.441106">
        <ele>217.238</ele>
        <time>2022-08-27T09:48:47Z</time>
      </trkpt>
      <trkpt lat="43.520453" lon="-5.441021">
        <ele>217.268</ele>
        <time>2022-08-27T09:48:49Z</time>
      </trkpt>
      <trkpt lat="43.520448" lon="-5.440933">
        <ele>217.174</ele>
        <time>2022-08-27T09:48:51Z</time>
      </trkpt>
      <trkpt lat="43.520441" lon="-5.440845">
        <ele>216.678</ele>
        <time>2022-08-27T09:48:53Z</time>
      </trkpt>
      <trkpt lat="43.520439" lon="-5.440760">
        <ele>216.585</ele>
        <time>2022-08-27T09:48:55Z</time>
      </trkpt>
      <trkpt lat="43.520424" lon="-5.440677">
        <ele>216.582</ele>
        <time>2022-08-27T09:48:57Z</time>
      </trkpt>
      <trkpt lat="43.520414" lon="-5.440587">
        <ele>216.648</ele>
        <time>2022-08-27T09:48:59Z</time>
      </trkpt>
      <trkpt lat="43.520401" lon="-5.440500">
        <ele>216.661</ele>
        <time>2022-08-27T09:49:01Z</time>
      </trkpt>
      <trkpt lat="43.520393" lon="-5.440412">
        <ele>216.717</ele>
        <time>2022-08-27T09:49:03Z</time>
      </trkpt>
      <trkpt lat="43.520393" lon="-5.440322">
        <ele>217.509</ele>
        <time>2022-08-27T09:49:05Z</time>
      </trkpt>
      <trkpt lat="43.520385" lon="-5.440242">
        <ele>217.845</ele>
        <time>2022-08-27T09:49:07Z</time>
      </trkpt>
      <trkpt lat="43.520372" lon="-5.440170">
        <ele>217.945</ele>
        <time>2022-08-27T09:49:09Z</time>
      </trkpt>
      <trkpt lat="43.520364" lon="-5.440102">
        <ele>217.896</ele>
        <time>2022-08-27T09:49:11Z</time>
      </trkpt>
      <trkpt lat="43.520356" lon="-5.440034">
        <ele>217.984</ele>
        <time>2022-08-27T09:49:13Z</time>
      </trkpt>
      <trkpt lat="43.520346" lon="-5.439959">
        <ele>218.064</ele>
        <time>2022-08-27T09:49:15Z</time>
      </trkpt>
      <trkpt lat="43.520336" lon="-5.439881">
        <ele>218.180</ele>
        <time>2022-08-27T09:49:17Z</time>
      </trkpt>
      <trkpt lat="43.520329" lon="-5.439806">
        <ele>218.174</ele>
        <time>2022-08-27T09:49:19Z</time>
      </trkpt>
      <trkpt lat="43.520321" lon="-5.439741">
        <ele>218.311</ele>
        <time>2022-08-27T09:49:21Z</time>
      </trkpt>
      <trkpt lat="43.520309" lon="-5.439654">
        <ele>218.558</ele>
        <time>2022-08-27T09:49:24Z</time>
      </trkpt>
      <trkpt lat="43.520292" lon="-5.439572">
        <ele>219.321</ele>
        <time>2022-08-27T09:49:27Z</time>
      </trkpt>
      <trkpt lat="43.520270" lon="-5.439485">
        <ele>220.841</ele>
        <time>2022-08-27T09:49:30Z</time>
      </trkpt>
      <trkpt lat="43.520242" lon="-5.439405">
        <ele>221.405</ele>
        <time>2022-08-27T09:49:33Z</time>
      </trkpt>
      <trkpt lat="43.520214" lon="-5.439325">
        <ele>221.409</ele>
        <time>2022-08-27T09:49:36Z</time>
      </trkpt>
      <trkpt lat="43.520184" lon="-5.439278">
        <ele>221.453</ele>
        <time>2022-08-27T09:49:38Z</time>
      </trkpt>
      <trkpt lat="43.520149" lon="-5.439223">
        <ele>221.233</ele>
        <time>2022-08-27T09:49:40Z</time>
      </trkpt>
      <trkpt lat="43.520116" lon="-5.439175">
        <ele>221.054</ele>
        <time>2022-08-27T09:49:42Z</time>
      </trkpt>
      <trkpt lat="43.520074" lon="-5.439123">
        <ele>220.832</ele>
        <time>2022-08-27T09:49:44Z</time>
      </trkpt>
      <trkpt lat="43.520032" lon="-5.439080">
        <ele>220.882</ele>
        <time>2022-08-27T09:49:46Z</time>
      </trkpt>
      <trkpt lat="43.519987" lon="-5.439045">
        <ele>220.628</ele>
        <time>2022-08-27T09:49:48Z</time>
      </trkpt>
      <trkpt lat="43.519942" lon="-5.439010">
        <ele>220.582</ele>
        <time>2022-08-27T09:49:50Z</time>
      </trkpt>
      <trkpt lat="43.519890" lon="-5.438985">
        <ele>220.469</ele>
        <time>2022-08-27T09:49:52Z</time>
      </trkpt>
      <trkpt lat="43.519837" lon="-5.438958">
        <ele>220.396</ele>
        <time>2022-08-27T09:49:54Z</time>
      </trkpt>
      <trkpt lat="43.519782" lon="-5.438935">
        <ele>220.314</ele>
        <time>2022-08-27T09:49:56Z</time>
      </trkpt>
      <trkpt lat="43.519724" lon="-5.438912">
        <ele>220.454</ele>
        <time>2022-08-27T09:49:58Z</time>
      </trkpt>
      <trkpt lat="43.519664" lon="-5.438890">
        <ele>220.609</ele>
        <time>2022-08-27T09:50:00Z</time>
      </trkpt>
      <trkpt lat="43.519609" lon="-5.438867">
        <ele>221.009</ele>
        <time>2022-08-27T09:50:02Z</time>
      </trkpt>
      <trkpt lat="43.519561" lon="-5.438844">
        <ele>221.762</ele>
        <time>2022-08-27T09:50:04Z</time>
      </trkpt>
      <trkpt lat="43.519509" lon="-5.438797">
        <ele>222.992</ele>
        <time>2022-08-27T09:50:07Z</time>
      </trkpt>
      <trkpt lat="43.519454" lon="-5.438785">
        <ele>223.343</ele>
        <time>2022-08-27T09:50:10Z</time>
      </trkpt>
      <trkpt lat="43.519391" lon="-5.438780">
        <ele>223.371</ele>
        <time>2022-08-27T09:50:13Z</time>
      </trkpt>
      <trkpt lat="43.519341" lon="-5.438772">
        <ele>223.361</ele>
        <time>2022-08-27T09:50:15Z</time>
      </trkpt>
      <trkpt lat="43.519281" lon="-5.438750">
        <ele>223.317</ele>
        <time>2022-08-27T09:50:17Z</time>
      </trkpt>
      <trkpt lat="43.519209" lon="-5.438725">
        <ele>222.781</ele>
        <time>2022-08-27T09:50:19Z</time>
      </trkpt>
      <trkpt lat="43.519134" lon="-5.438700">
        <ele>221.978</ele>
        <time>2022-08-27T09:50:21Z</time>
      </trkpt>
      <trkpt lat="43.519052" lon="-5.438668">
        <ele>221.725</ele>
        <time>2022-08-27T09:50:23Z</time>
      </trkpt>
      <trkpt lat="43.518965" lon="-5.438635">
        <ele>221.312</ele>
        <time>2022-08-27T09:50:25Z</time>
      </trkpt>
      <trkpt lat="43.518872" lon="-5.438602">
        <ele>220.732</ele>
        <time>2022-08-27T09:50:27Z</time>
      </trkpt>
      <trkpt lat="43.518825" lon="-5.438587">
        <ele>220.305</ele>
        <time>2022-08-27T09:50:28Z</time>
      </trkpt>
      <trkpt lat="43.518780" lon="-5.438574">
        <ele>220.209</ele>
        <time>2022-08-27T09:50:29Z</time>
      </trkpt>
      <trkpt lat="43.518692" lon="-5.438544">
        <ele>220.042</ele>
        <time>2022-08-27T09:50:31Z</time>
      </trkpt>
      <trkpt lat="43.518644" lon="-5.438526">
        <ele>220.072</ele>
        <time>2022-08-27T09:50:32Z</time>
      </trkpt>
      <trkpt lat="43.518596" lon="-5.438513">
        <ele>219.733</ele>
        <time>2022-08-27T09:50:33Z</time>
      </trkpt>
      <trkpt lat="43.518503" lon="-5.438481">
        <ele>219.441</ele>
        <time>2022-08-27T09:50:35Z</time>
      </trkpt>
      <trkpt lat="43.518411" lon="-5.438441">
        <ele>219.391</ele>
        <time>2022-08-27T09:50:37Z</time>
      </trkpt>
      <trkpt lat="43.518368" lon="-5.438413">
        <ele>219.187</ele>
        <time>2022-08-27T09:50:38Z</time>
      </trkpt>
      <trkpt lat="43.518288" lon="-5.438341">
        <ele>219.011</ele>
        <time>2022-08-27T09:50:40Z</time>
      </trkpt>
      <trkpt lat="43.518208" lon="-5.438251">
        <ele>219.158</ele>
        <time>2022-08-27T09:50:42Z</time>
      </trkpt>
      <trkpt lat="43.518170" lon="-5.438199">
        <ele>219.315</ele>
        <time>2022-08-27T09:50:43Z</time>
      </trkpt>
      <trkpt lat="43.518137" lon="-5.438146">
        <ele>219.554</ele>
        <time>2022-08-27T09:50:44Z</time>
      </trkpt>
      <trkpt lat="43.518077" lon="-5.438028">
        <ele>219.656</ele>
        <time>2022-08-27T09:50:46Z</time>
      </trkpt>
      <trkpt lat="43.518032" lon="-5.437891">
        <ele>219.511</ele>
        <time>2022-08-27T09:50:48Z</time>
      </trkpt>
      <trkpt lat="43.518010" lon="-5.437819">
        <ele>219.309</ele>
        <time>2022-08-27T09:50:49Z</time>
      </trkpt>
      <trkpt lat="43.517995" lon="-5.437747">
        <ele>219.256</ele>
        <time>2022-08-27T09:50:50Z</time>
      </trkpt>
      <trkpt lat="43.517980" lon="-5.437597">
        <ele>218.416</ele>
        <time>2022-08-27T09:50:52Z</time>
      </trkpt>
      <trkpt lat="43.517983" lon="-5.437440">
        <ele>218.497</ele>
        <time>2022-08-27T09:50:54Z</time>
      </trkpt>
      <trkpt lat="43.517988" lon="-5.437360">
        <ele>218.465</ele>
        <time>2022-08-27T09:50:55Z</time>
      </trkpt>
      <trkpt lat="43.517993" lon="-5.437200">
        <ele>218.315</ele>
        <time>2022-08-27T09:50:57Z</time>
      </trkpt>
      <trkpt lat="43.517996" lon="-5.437118">
        <ele>218.291</ele>
        <time>2022-08-27T09:50:58Z</time>
      </trkpt>
      <trkpt lat="43.518004" lon="-5.436955">
        <ele>217.935</ele>
        <time>2022-08-27T09:51:00Z</time>
      </trkpt>
      <trkpt lat="43.518009" lon="-5.436877">
        <ele>217.942</ele>
        <time>2022-08-27T09:51:01Z</time>
      </trkpt>
      <trkpt lat="43.518021" lon="-5.436722">
        <ele>217.699</ele>
        <time>2022-08-27T09:51:03Z</time>
      </trkpt>
      <trkpt lat="43.518028" lon="-5.436645">
        <ele>217.669</ele>
        <time>2022-08-27T09:51:04Z</time>
      </trkpt>
      <trkpt lat="43.518048" lon="-5.436495">
        <ele>217.304</ele>
        <time>2022-08-27T09:51:06Z</time>
      </trkpt>
      <trkpt lat="43.518068" lon="-5.436340">
        <ele>217.324</ele>
        <time>2022-08-27T09:51:08Z</time>
      </trkpt>
      <trkpt lat="43.518085" lon="-5.436188">
        <ele>217.309</ele>
        <time>2022-08-27T09:51:10Z</time>
      </trkpt>
      <trkpt lat="43.518095" lon="-5.436111">
        <ele>217.347</ele>
        <time>2022-08-27T09:51:11Z</time>
      </trkpt>
      <trkpt lat="43.518113" lon="-5.435963">
        <ele>217.437</ele>
        <time>2022-08-27T09:51:13Z</time>
      </trkpt>
      <trkpt lat="43.518123" lon="-5.435813">
        <ele>217.658</ele>
        <time>2022-08-27T09:51:15Z</time>
      </trkpt>
      <trkpt lat="43.518123" lon="-5.435741">
        <ele>217.636</ele>
        <time>2022-08-27T09:51:16Z</time>
      </trkpt>
      <trkpt lat="43.518120" lon="-5.435596">
        <ele>217.586</ele>
        <time>2022-08-27T09:51:18Z</time>
      </trkpt>
      <trkpt lat="43.518115" lon="-5.435524">
        <ele>217.332</ele>
        <time>2022-08-27T09:51:19Z</time>
      </trkpt>
      <trkpt lat="43.518107" lon="-5.435454">
        <ele>217.256</ele>
        <time>2022-08-27T09:51:20Z</time>
      </trkpt>
      <trkpt lat="43.518092" lon="-5.435384">
        <ele>217.263</ele>
        <time>2022-08-27T09:51:21Z</time>
      </trkpt>
      <trkpt lat="43.518052" lon="-5.435254">
        <ele>217.140</ele>
        <time>2022-08-27T09:51:23Z</time>
      </trkpt>
      <trkpt lat="43.518024" lon="-5.435194">
        <ele>217.059</ele>
        <time>2022-08-27T09:51:24Z</time>
      </trkpt>
      <trkpt lat="43.517997" lon="-5.435137">
        <ele>217.003</ele>
        <time>2022-08-27T09:51:25Z</time>
      </trkpt>
      <trkpt lat="43.517944" lon="-5.435022">
        <ele>217.023</ele>
        <time>2022-08-27T09:51:27Z</time>
      </trkpt>
      <trkpt lat="43.517887" lon="-5.434910">
        <ele>216.809</ele>
        <time>2022-08-27T09:51:29Z</time>
      </trkpt>
      <trkpt lat="43.517832" lon="-5.434803">
        <ele>216.576</ele>
        <time>2022-08-27T09:51:31Z</time>
      </trkpt>
      <trkpt lat="43.517802" lon="-5.434750">
        <ele>216.346</ele>
        <time>2022-08-27T09:51:32Z</time>
      </trkpt>
      <trkpt lat="43.517774" lon="-5.434692">
        <ele>216.397</ele>
        <time>2022-08-27T09:51:33Z</time>
      </trkpt>
      <trkpt lat="43.517716" lon="-5.434579">
        <ele>216.375</ele>
        <time>2022-08-27T09:51:35Z</time>
      </trkpt>
      <trkpt lat="43.517659" lon="-5.434466">
        <ele>216.835</ele>
        <time>2022-08-27T09:51:37Z</time>
      </trkpt>
      <trkpt lat="43.517629" lon="-5.434408">
        <ele>216.841</ele>
        <time>2022-08-27T09:51:38Z</time>
      </trkpt>
      <trkpt lat="43.517602" lon="-5.434348">
        <ele>216.825</ele>
        <time>2022-08-27T09:51:39Z</time>
      </trkpt>
      <trkpt lat="43.517575" lon="-5.434286">
        <ele>216.732</ele>
        <time>2022-08-27T09:51:40Z</time>
      </trkpt>
      <trkpt lat="43.517528" lon="-5.434158">
        <ele>216.479</ele>
        <time>2022-08-27T09:51:42Z</time>
      </trkpt>
      <trkpt lat="43.517483" lon="-5.434028">
        <ele>216.159</ele>
        <time>2022-08-27T09:51:44Z</time>
      </trkpt>
      <trkpt lat="43.517461" lon="-5.433958">
        <ele>216.003</ele>
        <time>2022-08-27T09:51:45Z</time>
      </trkpt>
      <trkpt lat="43.517438" lon="-5.433885">
        <ele>215.823</ele>
        <time>2022-08-27T09:51:46Z</time>
      </trkpt>
      <trkpt lat="43.517396" lon="-5.433727">
        <ele>215.309</ele>
        <time>2022-08-27T09:51:48Z</time>
      </trkpt>
      <trkpt lat="43.517358" lon="-5.433549">
        <ele>215.136</ele>
        <time>2022-08-27T09:51:50Z</time>
      </trkpt>
      <trkpt lat="43.517336" lon="-5.433452">
        <ele>214.726</ele>
        <time>2022-08-27T09:51:51Z</time>
      </trkpt>
      <trkpt lat="43.517314" lon="-5.433357">
        <ele>214.317</ele>
        <time>2022-08-27T09:51:52Z</time>
      </trkpt>
      <trkpt lat="43.517264" lon="-5.433152">
        <ele>213.825</ele>
        <time>2022-08-27T09:51:54Z</time>
      </trkpt>
      <trkpt lat="43.517237" lon="-5.433042">
        <ele>213.665</ele>
        <time>2022-08-27T09:51:55Z</time>
      </trkpt>
      <trkpt lat="43.517209" lon="-5.432930">
        <ele>213.491</ele>
        <time>2022-08-27T09:51:56Z</time>
      </trkpt>
      <trkpt lat="43.517154" lon="-5.432700">
        <ele>212.795</ele>
        <time>2022-08-27T09:51:58Z</time>
      </trkpt>
      <trkpt lat="43.517092" lon="-5.432468">
        <ele>211.282</ele>
        <time>2022-08-27T09:52:00Z</time>
      </trkpt>
      <trkpt lat="43.517060" lon="-5.432353">
        <ele>210.559</ele>
        <time>2022-08-27T09:52:01Z</time>
      </trkpt>
      <trkpt lat="43.517003" lon="-5.432123">
        <ele>209.291</ele>
        <time>2022-08-27T09:52:03Z</time>
      </trkpt>
      <trkpt lat="43.516938" lon="-5.431900">
        <ele>207.781</ele>
        <time>2022-08-27T09:52:05Z</time>
      </trkpt>
      <trkpt lat="43.516878" lon="-5.431672">
        <ele>206.319</ele>
        <time>2022-08-27T09:52:07Z</time>
      </trkpt>
      <trkpt lat="43.516818" lon="-5.431444">
        <ele>205.309</ele>
        <time>2022-08-27T09:52:09Z</time>
      </trkpt>
      <trkpt lat="43.516763" lon="-5.431214">
        <ele>204.780</ele>
        <time>2022-08-27T09:52:11Z</time>
      </trkpt>
      <trkpt lat="43.516710" lon="-5.430979">
        <ele>204.260</ele>
        <time>2022-08-27T09:52:13Z</time>
      </trkpt>
      <trkpt lat="43.516687" lon="-5.430864">
        <ele>204.011</ele>
        <time>2022-08-27T09:52:14Z</time>
      </trkpt>
      <trkpt lat="43.516665" lon="-5.430747">
        <ele>203.789</ele>
        <time>2022-08-27T09:52:15Z</time>
      </trkpt>
      <trkpt lat="43.516640" lon="-5.430507">
        <ele>203.179</ele>
        <time>2022-08-27T09:52:17Z</time>
      </trkpt>
      <trkpt lat="43.516635" lon="-5.430384">
        <ele>202.855</ele>
        <time>2022-08-27T09:52:18Z</time>
      </trkpt>
      <trkpt lat="43.516630" lon="-5.430257">
        <ele>202.219</ele>
        <time>2022-08-27T09:52:19Z</time>
      </trkpt>
      <trkpt lat="43.516625" lon="-5.429994">
        <ele>200.526</ele>
        <time>2022-08-27T09:52:21Z</time>
      </trkpt>
      <trkpt lat="43.516620" lon="-5.429717">
        <ele>198.913</ele>
        <time>2022-08-27T09:52:23Z</time>
      </trkpt>
      <trkpt lat="43.516615" lon="-5.429575">
        <ele>198.162</ele>
        <time>2022-08-27T09:52:24Z</time>
      </trkpt>
      <trkpt lat="43.516617" lon="-5.429277">
        <ele>196.183</ele>
        <time>2022-08-27T09:52:26Z</time>
      </trkpt>
      <trkpt lat="43.516647" lon="-5.428979">
        <ele>194.511</ele>
        <time>2022-08-27T09:52:28Z</time>
      </trkpt>
      <trkpt lat="43.516679" lon="-5.428834">
        <ele>193.409</ele>
        <time>2022-08-27T09:52:29Z</time>
      </trkpt>
      <trkpt lat="43.516776" lon="-5.428572">
        <ele>192.017</ele>
        <time>2022-08-27T09:52:31Z</time>
      </trkpt>
      <trkpt lat="43.516891" lon="-5.428322">
        <ele>190.957</ele>
        <time>2022-08-27T09:52:33Z</time>
      </trkpt>
      <trkpt lat="43.516989" lon="-5.428067">
        <ele>189.568</ele>
        <time>2022-08-27T09:52:35Z</time>
      </trkpt>
      <trkpt lat="43.517041" lon="-5.427789">
        <ele>188.516</ele>
        <time>2022-08-27T09:52:37Z</time>
      </trkpt>
      <trkpt lat="43.517044" lon="-5.427644">
        <ele>188.186</ele>
        <time>2022-08-27T09:52:38Z</time>
      </trkpt>
      <trkpt lat="43.517011" lon="-5.427349">
        <ele>187.592</ele>
        <time>2022-08-27T09:52:40Z</time>
      </trkpt>
      <trkpt lat="43.516909" lon="-5.427086">
        <ele>186.396</ele>
        <time>2022-08-27T09:52:42Z</time>
      </trkpt>
      <trkpt lat="43.516756" lon="-5.426859">
        <ele>184.383</ele>
        <time>2022-08-27T09:52:44Z</time>
      </trkpt>
      <trkpt lat="43.516566" lon="-5.426704">
        <ele>181.820</ele>
        <time>2022-08-27T09:52:46Z</time>
      </trkpt>
      <trkpt lat="43.516343" lon="-5.426642">
        <ele>179.175</ele>
        <time>2022-08-27T09:52:48Z</time>
      </trkpt>
      <trkpt lat="43.516101" lon="-5.426630">
        <ele>175.628</ele>
        <time>2022-08-27T09:52:50Z</time>
      </trkpt>
      <trkpt lat="43.515988" lon="-5.426620">
        <ele>174.020</ele>
        <time>2022-08-27T09:52:51Z</time>
      </trkpt>
      <trkpt lat="43.515881" lon="-5.426615">
        <ele>172.609</ele>
        <time>2022-08-27T09:52:52Z</time>
      </trkpt>
      <trkpt lat="43.515679" lon="-5.426625">
        <ele>169.188</ele>
        <time>2022-08-27T09:52:54Z</time>
      </trkpt>
      <trkpt lat="43.515574" lon="-5.426660">
        <ele>167.618</ele>
        <time>2022-08-27T09:52:55Z</time>
      </trkpt>
      <trkpt lat="43.515371" lon="-5.426802">
        <ele>164.429</ele>
        <time>2022-08-27T09:52:57Z</time>
      </trkpt>
      <trkpt lat="43.515276" lon="-5.426890">
        <ele>162.777</ele>
        <time>2022-08-27T09:52:58Z</time>
      </trkpt>
      <trkpt lat="43.515083" lon="-5.427078">
        <ele>159.187</ele>
        <time>2022-08-27T09:53:00Z</time>
      </trkpt>
      <trkpt lat="43.514885" lon="-5.427261">
        <ele>156.673</ele>
        <time>2022-08-27T09:53:02Z</time>
      </trkpt>
      <trkpt lat="43.514700" lon="-5.427443">
        <ele>154.027</ele>
        <time>2022-08-27T09:53:04Z</time>
      </trkpt>
      <trkpt lat="43.514602" lon="-5.427510">
        <ele>152.994</ele>
        <time>2022-08-27T09:53:05Z</time>
      </trkpt>
      <trkpt lat="43.514504" lon="-5.427563">
        <ele>152.391</ele>
        <time>2022-08-27T09:53:06Z</time>
      </trkpt>
      <trkpt lat="43.514404" lon="-5.427601">
        <ele>151.945</ele>
        <time>2022-08-27T09:53:07Z</time>
      </trkpt>
      <trkpt lat="43.514301" lon="-5.427613">
        <ele>151.447</ele>
        <time>2022-08-27T09:53:08Z</time>
      </trkpt>
      <trkpt lat="43.514196" lon="-5.427611">
        <ele>151.411</ele>
        <time>2022-08-27T09:53:09Z</time>
      </trkpt>
      <trkpt lat="43.513993" lon="-5.427546">
        <ele>150.609</ele>
        <time>2022-08-27T09:53:11Z</time>
      </trkpt>
      <trkpt lat="43.513890" lon="-5.427499">
        <ele>150.155</ele>
        <time>2022-08-27T09:53:12Z</time>
      </trkpt>
      <trkpt lat="43.513682" lon="-5.427401">
        <ele>148.845</ele>
        <time>2022-08-27T09:53:14Z</time>
      </trkpt>
      <trkpt lat="43.513575" lon="-5.427348">
        <ele>148.166</ele>
        <time>2022-08-27T09:53:15Z</time>
      </trkpt>
      <trkpt lat="43.513358" lon="-5.427233">
        <ele>146.634</ele>
        <time>2022-08-27T09:53:17Z</time>
      </trkpt>
      <trkpt lat="43.513135" lon="-5.427118">
        <ele>144.974</ele>
        <time>2022-08-27T09:53:19Z</time>
      </trkpt>
      <trkpt lat="43.513028" lon="-5.427061">
        <ele>144.730</ele>
        <time>2022-08-27T09:53:20Z</time>
      </trkpt>
      <trkpt lat="43.512923" lon="-5.427013">
        <ele>143.954</ele>
        <time>2022-08-27T09:53:21Z</time>
      </trkpt>
      <trkpt lat="43.512718" lon="-5.426911">
        <ele>142.331</ele>
        <time>2022-08-27T09:53:23Z</time>
      </trkpt>
      <trkpt lat="43.512520" lon="-5.426811">
        <ele>141.088</ele>
        <time>2022-08-27T09:53:25Z</time>
      </trkpt>
      <trkpt lat="43.512420" lon="-5.426763">
        <ele>140.158</ele>
        <time>2022-08-27T09:53:26Z</time>
      </trkpt>
      <trkpt lat="43.512212" lon="-5.426695">
        <ele>137.852</ele>
        <time>2022-08-27T09:53:28Z</time>
      </trkpt>
      <trkpt lat="43.512004" lon="-5.426695">
        <ele>136.417</ele>
        <time>2022-08-27T09:53:30Z</time>
      </trkpt>
      <trkpt lat="43.511902" lon="-5.426725">
        <ele>135.809</ele>
        <time>2022-08-27T09:53:31Z</time>
      </trkpt>
      <trkpt lat="43.511707" lon="-5.426830">
        <ele>135.146</ele>
        <time>2022-08-27T09:53:33Z</time>
      </trkpt>
      <trkpt lat="43.511614" lon="-5.426892">
        <ele>134.836</ele>
        <time>2022-08-27T09:53:34Z</time>
      </trkpt>
      <trkpt lat="43.511432" lon="-5.427020">
        <ele>134.257</ele>
        <time>2022-08-27T09:53:36Z</time>
      </trkpt>
      <trkpt lat="43.511339" lon="-5.427077">
        <ele>133.495</ele>
        <time>2022-08-27T09:53:37Z</time>
      </trkpt>
      <trkpt lat="43.511159" lon="-5.427172">
        <ele>132.745</ele>
        <time>2022-08-27T09:53:39Z</time>
      </trkpt>
      <trkpt lat="43.510976" lon="-5.427217">
        <ele>132.421</ele>
        <time>2022-08-27T09:53:41Z</time>
      </trkpt>
      <trkpt lat="43.510883" lon="-5.427222">
        <ele>132.475</ele>
        <time>2022-08-27T09:53:42Z</time>
      </trkpt>
      <trkpt lat="43.510708" lon="-5.427184">
        <ele>132.042</ele>
        <time>2022-08-27T09:53:44Z</time>
      </trkpt>
      <trkpt lat="43.510545" lon="-5.427096">
        <ele>131.359</ele>
        <time>2022-08-27T09:53:46Z</time>
      </trkpt>
      <trkpt lat="43.510378" lon="-5.426979">
        <ele>131.417</ele>
        <time>2022-08-27T09:53:48Z</time>
      </trkpt>
      <trkpt lat="43.510296" lon="-5.426926">
        <ele>131.487</ele>
        <time>2022-08-27T09:53:49Z</time>
      </trkpt>
      <trkpt lat="43.510214" lon="-5.426869">
        <ele>131.215</ele>
        <time>2022-08-27T09:53:50Z</time>
      </trkpt>
      <trkpt lat="43.510062" lon="-5.426747">
        <ele>130.609</ele>
        <time>2022-08-27T09:53:52Z</time>
      </trkpt>
      <trkpt lat="43.509982" lon="-5.426694">
        <ele>130.212</ele>
        <time>2022-08-27T09:53:53Z</time>
      </trkpt>
      <trkpt lat="43.509897" lon="-5.426656">
        <ele>129.782</ele>
        <time>2022-08-27T09:53:54Z</time>
      </trkpt>
      <trkpt lat="43.509714" lon="-5.426629">
        <ele>127.953</ele>
        <time>2022-08-27T09:53:56Z</time>
      </trkpt>
      <trkpt lat="43.509526" lon="-5.426659">
        <ele>125.881</ele>
        <time>2022-08-27T09:53:58Z</time>
      </trkpt>
      <trkpt lat="43.509429" lon="-5.426679">
        <ele>124.991</ele>
        <time>2022-08-27T09:53:59Z</time>
      </trkpt>
      <trkpt lat="43.509231" lon="-5.426694">
        <ele>124.057</ele>
        <time>2022-08-27T09:54:01Z</time>
      </trkpt>
      <trkpt lat="43.509133" lon="-5.426689">
        <ele>123.981</ele>
        <time>2022-08-27T09:54:02Z</time>
      </trkpt>
      <trkpt lat="43.508935" lon="-5.426657">
        <ele>122.978</ele>
        <time>2022-08-27T09:54:04Z</time>
      </trkpt>
      <trkpt lat="43.508840" lon="-5.426635">
        <ele>121.915</ele>
        <time>2022-08-27T09:54:05Z</time>
      </trkpt>
      <trkpt lat="43.508657" lon="-5.426602">
        <ele>120.112</ele>
        <time>2022-08-27T09:54:07Z</time>
      </trkpt>
      <trkpt lat="43.508565" lon="-5.426614">
        <ele>119.032</ele>
        <time>2022-08-27T09:54:08Z</time>
      </trkpt>
      <trkpt lat="43.508375" lon="-5.426681">
        <ele>116.705</ele>
        <time>2022-08-27T09:54:10Z</time>
      </trkpt>
      <trkpt lat="43.508278" lon="-5.426718">
        <ele>115.909</ele>
        <time>2022-08-27T09:54:11Z</time>
      </trkpt>
      <trkpt lat="43.508183" lon="-5.426755">
        <ele>114.532</ele>
        <time>2022-08-27T09:54:12Z</time>
      </trkpt>
      <trkpt lat="43.508091" lon="-5.426792">
        <ele>113.362</ele>
        <time>2022-08-27T09:54:13Z</time>
      </trkpt>
      <trkpt lat="43.507918" lon="-5.426895">
        <ele>111.323</ele>
        <time>2022-08-27T09:54:15Z</time>
      </trkpt>
      <trkpt lat="43.507836" lon="-5.426967">
        <ele>110.261</ele>
        <time>2022-08-27T09:54:16Z</time>
      </trkpt>
      <trkpt lat="43.507754" lon="-5.427042">
        <ele>108.831</ele>
        <time>2022-08-27T09:54:17Z</time>
      </trkpt>
      <trkpt lat="43.507581" lon="-5.427162">
        <ele>107.467</ele>
        <time>2022-08-27T09:54:19Z</time>
      </trkpt>
      <trkpt lat="43.507399" lon="-5.427242">
        <ele>106.641</ele>
        <time>2022-08-27T09:54:21Z</time>
      </trkpt>
      <trkpt lat="43.507302" lon="-5.427267">
        <ele>105.598</ele>
        <time>2022-08-27T09:54:22Z</time>
      </trkpt>
      <trkpt lat="43.507097" lon="-5.427294">
        <ele>103.425</ele>
        <time>2022-08-27T09:54:24Z</time>
      </trkpt>
      <trkpt lat="43.506994" lon="-5.427299">
        <ele>102.656</ele>
        <time>2022-08-27T09:54:25Z</time>
      </trkpt>
      <trkpt lat="43.506794" lon="-5.427307">
        <ele>101.459</ele>
        <time>2022-08-27T09:54:27Z</time>
      </trkpt>
      <trkpt lat="43.506697" lon="-5.427305">
        <ele>100.514</ele>
        <time>2022-08-27T09:54:28Z</time>
      </trkpt>
      <trkpt lat="43.506509" lon="-5.427293">
        <ele>99.509</ele>
        <time>2022-08-27T09:54:30Z</time>
      </trkpt>
      <trkpt lat="43.506334" lon="-5.427248">
        <ele>98.926</ele>
        <time>2022-08-27T09:54:32Z</time>
      </trkpt>
      <trkpt lat="43.506171" lon="-5.427133">
        <ele>98.686</ele>
        <time>2022-08-27T09:54:34Z</time>
      </trkpt>
      <trkpt lat="43.506093" lon="-5.427055">
        <ele>98.487</ele>
        <time>2022-08-27T09:54:35Z</time>
      </trkpt>
      <trkpt lat="43.505936" lon="-5.426912">
        <ele>97.315</ele>
        <time>2022-08-27T09:54:37Z</time>
      </trkpt>
      <trkpt lat="43.505854" lon="-5.426855">
        <ele>96.865</ele>
        <time>2022-08-27T09:54:38Z</time>
      </trkpt>
      <trkpt lat="43.505681" lon="-5.426793">
        <ele>95.861</ele>
        <time>2022-08-27T09:54:40Z</time>
      </trkpt>
      <trkpt lat="43.505496" lon="-5.426808">
        <ele>94.485</ele>
        <time>2022-08-27T09:54:42Z</time>
      </trkpt>
      <trkpt lat="43.505306" lon="-5.426875">
        <ele>93.232</ele>
        <time>2022-08-27T09:54:44Z</time>
      </trkpt>
      <trkpt lat="43.505218" lon="-5.426913">
        <ele>92.629</ele>
        <time>2022-08-27T09:54:45Z</time>
      </trkpt>
      <trkpt lat="43.505051" lon="-5.427021">
        <ele>90.448</ele>
        <time>2022-08-27T09:54:47Z</time>
      </trkpt>
      <trkpt lat="43.504969" lon="-5.427089">
        <ele>88.861</ele>
        <time>2022-08-27T09:54:48Z</time>
      </trkpt>
      <trkpt lat="43.504802" lon="-5.427249">
        <ele>86.417</ele>
        <time>2022-08-27T09:54:50Z</time>
      </trkpt>
      <trkpt lat="43.504632" lon="-5.427432">
        <ele>83.909</ele>
        <time>2022-08-27T09:54:52Z</time>
      </trkpt>
      <trkpt lat="43.504545" lon="-5.427524">
        <ele>82.875</ele>
        <time>2022-08-27T09:54:53Z</time>
      </trkpt>
      <trkpt lat="43.504377" lon="-5.427706">
        <ele>80.765</ele>
        <time>2022-08-27T09:54:55Z</time>
      </trkpt>
      <trkpt lat="43.504214" lon="-5.427878">
        <ele>78.616</ele>
        <time>2022-08-27T09:54:57Z</time>
      </trkpt>
      <trkpt lat="43.504054" lon="-5.428016">
        <ele>76.184</ele>
        <time>2022-08-27T09:54:58Z</time>
      </trkpt>
      <trkpt lat="43.503967" lon="-5.428064">
        <ele>74.834</ele>
        <time>2022-08-27T09:55:00Z</time>
      </trkpt>
      <trkpt lat="43.503879" lon="-5.428096">
        <ele>73.870</ele>
        <time>2022-08-27T09:55:01Z</time>
      </trkpt>
      <trkpt lat="43.503686" lon="-5.428116">
        <ele>71.564</ele>
        <time>2022-08-27T09:55:03Z</time>
      </trkpt>
      <trkpt lat="43.503484" lon="-5.428088">
        <ele>70.221</ele>
        <time>2022-08-27T09:55:05Z</time>
      </trkpt>
      <trkpt lat="43.503384" lon="-5.428068">
        <ele>69.778</ele>
        <time>2022-08-27T09:55:06Z</time>
      </trkpt>
      <trkpt lat="43.503289" lon="-5.428048">
        <ele>69.427</ele>
        <time>2022-08-27T09:55:07Z</time>
      </trkpt>
      <trkpt lat="43.503199" lon="-5.428035">
        <ele>68.868</ele>
        <time>2022-08-27T09:55:08Z</time>
      </trkpt>
      <trkpt lat="43.503014" lon="-5.428070">
        <ele>67.214</ele>
        <time>2022-08-27T09:55:10Z</time>
      </trkpt>
      <trkpt lat="43.502836" lon="-5.428155">
        <ele>65.909</ele>
        <time>2022-08-27T09:55:12Z</time>
      </trkpt>
      <trkpt lat="43.502744" lon="-5.428187">
        <ele>65.423</ele>
        <time>2022-08-27T09:55:13Z</time>
      </trkpt>
      <trkpt lat="43.502649" lon="-5.428205">
        <ele>64.913</ele>
        <time>2022-08-27T09:55:14Z</time>
      </trkpt>
      <trkpt lat="43.502456" lon="-5.428183">
        <ele>64.394</ele>
        <time>2022-08-27T09:55:16Z</time>
      </trkpt>
      <trkpt lat="43.502276" lon="-5.428090">
        <ele>63.172</ele>
        <time>2022-08-27T09:55:18Z</time>
      </trkpt>
      <trkpt lat="43.502116" lon="-5.427935">
        <ele>61.882</ele>
        <time>2022-08-27T09:55:20Z</time>
      </trkpt>
      <trkpt lat="43.501979" lon="-5.427727">
        <ele>60.328</ele>
        <time>2022-08-27T09:55:22Z</time>
      </trkpt>
      <trkpt lat="43.501856" lon="-5.427504">
        <ele>58.972</ele>
        <time>2022-08-27T09:55:24Z</time>
      </trkpt>
      <trkpt lat="43.501721" lon="-5.427316">
        <ele>57.699</ele>
        <time>2022-08-27T09:55:26Z</time>
      </trkpt>
      <trkpt lat="43.501641" lon="-5.427241">
        <ele>57.076</ele>
        <time>2022-08-27T09:55:27Z</time>
      </trkpt>
      <trkpt lat="43.501463" lon="-5.427153">
        <ele>55.284</ele>
        <time>2022-08-27T09:55:29Z</time>
      </trkpt>
      <trkpt lat="43.501368" lon="-5.427131">
        <ele>54.507</ele>
        <time>2022-08-27T09:55:30Z</time>
      </trkpt>
      <trkpt lat="43.501166" lon="-5.427079">
        <ele>52.817</ele>
        <time>2022-08-27T09:55:32Z</time>
      </trkpt>
      <trkpt lat="43.501063" lon="-5.427034">
        <ele>52.009</ele>
        <time>2022-08-27T09:55:33Z</time>
      </trkpt>
      <trkpt lat="43.500858" lon="-5.426906">
        <ele>51.159</ele>
        <time>2022-08-27T09:55:35Z</time>
      </trkpt>
      <trkpt lat="43.500751" lon="-5.426844">
        <ele>50.469</ele>
        <time>2022-08-27T09:55:36Z</time>
      </trkpt>
      <trkpt lat="43.500648" lon="-5.426789">
        <ele>49.890</ele>
        <time>2022-08-27T09:55:37Z</time>
      </trkpt>
      <trkpt lat="43.500541" lon="-5.426747">
        <ele>48.948</ele>
        <time>2022-08-27T09:55:38Z</time>
      </trkpt>
      <trkpt lat="43.500434" lon="-5.426715">
        <ele>48.468</ele>
        <time>2022-08-27T09:55:39Z</time>
      </trkpt>
      <trkpt lat="43.500331" lon="-5.426688">
        <ele>48.254</ele>
        <time>2022-08-27T09:55:40Z</time>
      </trkpt>
      <trkpt lat="43.500133" lon="-5.426661">
        <ele>48.368</ele>
        <time>2022-08-27T09:55:42Z</time>
      </trkpt>
      <trkpt lat="43.500036" lon="-5.426661">
        <ele>48.425</ele>
        <time>2022-08-27T09:55:43Z</time>
      </trkpt>
      <trkpt lat="43.499854" lon="-5.426664">
        <ele>48.542</ele>
        <time>2022-08-27T09:55:45Z</time>
      </trkpt>
      <trkpt lat="43.499682" lon="-5.426662">
        <ele>48.517</ele>
        <time>2022-08-27T09:55:47Z</time>
      </trkpt>
      <trkpt lat="43.499600" lon="-5.426667">
        <ele>48.487</ele>
        <time>2022-08-27T09:55:48Z</time>
      </trkpt>
      <trkpt lat="43.499520" lon="-5.426672">
        <ele>48.415</ele>
        <time>2022-08-27T09:55:49Z</time>
      </trkpt>
      <trkpt lat="43.499440" lon="-5.426674">
        <ele>48.209</ele>
        <time>2022-08-27T09:55:50Z</time>
      </trkpt>
      <trkpt lat="43.499360" lon="-5.426677">
        <ele>48.172</ele>
        <time>2022-08-27T09:55:51Z</time>
      </trkpt>
      <trkpt lat="43.499283" lon="-5.426677">
        <ele>48.032</ele>
        <time>2022-08-27T09:55:52Z</time>
      </trkpt>
      <trkpt lat="43.499205" lon="-5.426679">
        <ele>47.933</ele>
        <time>2022-08-27T09:55:53Z</time>
      </trkpt>
      <trkpt lat="43.499057" lon="-5.426681">
        <ele>47.421</ele>
        <time>2022-08-27T09:55:55Z</time>
      </trkpt>
      <trkpt lat="43.498982" lon="-5.426681">
        <ele>47.011</ele>
        <time>2022-08-27T09:55:56Z</time>
      </trkpt>
      <trkpt lat="43.498837" lon="-5.426683">
        <ele>46.977</ele>
        <time>2022-08-27T09:55:58Z</time>
      </trkpt>
      <trkpt lat="43.498692" lon="-5.426688">
        <ele>46.881</ele>
        <time>2022-08-27T09:56:00Z</time>
      </trkpt>
      <trkpt lat="43.498622" lon="-5.426691">
        <ele>46.718</ele>
        <time>2022-08-27T09:56:01Z</time>
      </trkpt>
      <trkpt lat="43.498484" lon="-5.426704">
        <ele>46.575</ele>
        <time>2022-08-27T09:56:03Z</time>
      </trkpt>
      <trkpt lat="43.498344" lon="-5.426727">
        <ele>46.463</ele>
        <time>2022-08-27T09:56:05Z</time>
      </trkpt>
      <trkpt lat="43.498274" lon="-5.426735">
        <ele>46.444</ele>
        <time>2022-08-27T09:56:06Z</time>
      </trkpt>
      <trkpt lat="43.498206" lon="-5.426747">
        <ele>46.518</ele>
        <time>2022-08-27T09:56:07Z</time>
      </trkpt>
      <trkpt lat="43.498139" lon="-5.426762">
        <ele>46.609</ele>
        <time>2022-08-27T09:56:08Z</time>
      </trkpt>
      <trkpt lat="43.498006" lon="-5.426797">
        <ele>46.987</ele>
        <time>2022-08-27T09:56:10Z</time>
      </trkpt>
      <trkpt lat="43.497873" lon="-5.426835">
        <ele>47.137</ele>
        <time>2022-08-27T09:56:12Z</time>
      </trkpt>
      <trkpt lat="43.497806" lon="-5.426852">
        <ele>47.248</ele>
        <time>2022-08-27T09:56:13Z</time>
      </trkpt>
      <trkpt lat="43.497674" lon="-5.426889">
        <ele>47.276</ele>
        <time>2022-08-27T09:56:15Z</time>
      </trkpt>
      <trkpt lat="43.497611" lon="-5.426909">
        <ele>47.256</ele>
        <time>2022-08-27T09:56:16Z</time>
      </trkpt>
      <trkpt lat="43.497486" lon="-5.426959">
        <ele>46.982</ele>
        <time>2022-08-27T09:56:18Z</time>
      </trkpt>
      <trkpt lat="43.497424" lon="-5.426994">
        <ele>46.986</ele>
        <time>2022-08-27T09:56:19Z</time>
      </trkpt>
      <trkpt lat="43.497306" lon="-5.427067">
        <ele>47.013</ele>
        <time>2022-08-27T09:56:21Z</time>
      </trkpt>
      <trkpt lat="43.497251" lon="-5.427112">
        <ele>47.280</ele>
        <time>2022-08-27T09:56:22Z</time>
      </trkpt>
      <trkpt lat="43.497196" lon="-5.427159">
        <ele>47.345</ele>
        <time>2022-08-27T09:56:23Z</time>
      </trkpt>
      <trkpt lat="43.497141" lon="-5.427204">
        <ele>47.347</ele>
        <time>2022-08-27T09:56:24Z</time>
      </trkpt>
      <trkpt lat="43.497029" lon="-5.427296">
        <ele>47.311</ele>
        <time>2022-08-27T09:56:26Z</time>
      </trkpt>
      <trkpt lat="43.496919" lon="-5.427393">
        <ele>47.109</ele>
        <time>2022-08-27T09:56:28Z</time>
      </trkpt>
      <trkpt lat="43.496866" lon="-5.427441">
        <ele>46.975</ele>
        <time>2022-08-27T09:56:29Z</time>
      </trkpt>
      <trkpt lat="43.496754" lon="-5.427539">
        <ele>46.785</ele>
        <time>2022-08-27T09:56:31Z</time>
      </trkpt>
      <trkpt lat="43.496699" lon="-5.427587">
        <ele>46.276</ele>
        <time>2022-08-27T09:56:32Z</time>
      </trkpt>
      <trkpt lat="43.496584" lon="-5.427682">
        <ele>46.014</ele>
        <time>2022-08-27T09:56:34Z</time>
      </trkpt>
      <trkpt lat="43.496526" lon="-5.427734">
        <ele>46.074</ele>
        <time>2022-08-27T09:56:35Z</time>
      </trkpt>
      <trkpt lat="43.496469" lon="-5.427786">
        <ele>45.910</ele>
        <time>2022-08-27T09:56:36Z</time>
      </trkpt>
      <trkpt lat="43.496357" lon="-5.427893">
        <ele>45.564</ele>
        <time>2022-08-27T09:56:38Z</time>
      </trkpt>
      <trkpt lat="43.496242" lon="-5.427995">
        <ele>45.191</ele>
        <time>2022-08-27T09:56:40Z</time>
      </trkpt>
      <trkpt lat="43.496187" lon="-5.428045">
        <ele>45.178</ele>
        <time>2022-08-27T09:56:41Z</time>
      </trkpt>
      <trkpt lat="43.496075" lon="-5.428138">
        <ele>45.117</ele>
        <time>2022-08-27T09:56:43Z</time>
      </trkpt>
      <trkpt lat="43.496018" lon="-5.428186">
        <ele>45.287</ele>
        <time>2022-08-27T09:56:44Z</time>
      </trkpt>
      <trkpt lat="43.495906" lon="-5.428281">
        <ele>45.715</ele>
        <time>2022-08-27T09:56:46Z</time>
      </trkpt>
      <trkpt lat="43.495849" lon="-5.428331">
        <ele>45.909</ele>
        <time>2022-08-27T09:56:47Z</time>
      </trkpt>
      <trkpt lat="43.495794" lon="-5.428381">
        <ele>45.952</ele>
        <time>2022-08-27T09:56:48Z</time>
      </trkpt>
      <trkpt lat="43.495741" lon="-5.428429">
        <ele>45.942</ele>
        <time>2022-08-27T09:56:49Z</time>
      </trkpt>
      <trkpt lat="43.495631" lon="-5.428522">
        <ele>45.643</ele>
        <time>2022-08-27T09:56:51Z</time>
      </trkpt>
      <trkpt lat="43.495574" lon="-5.428565">
        <ele>45.411</ele>
        <time>2022-08-27T09:56:52Z</time>
      </trkpt>
      <trkpt lat="43.495459" lon="-5.428660">
        <ele>45.471</ele>
        <time>2022-08-27T09:56:54Z</time>
      </trkpt>
      <trkpt lat="43.495347" lon="-5.428757">
        <ele>45.457</ele>
        <time>2022-08-27T09:56:56Z</time>
      </trkpt>
      <trkpt lat="43.495289" lon="-5.428802">
        <ele>45.491</ele>
        <time>2022-08-27T09:56:57Z</time>
      </trkpt>
      <trkpt lat="43.495179" lon="-5.428907">
        <ele>45.588</ele>
        <time>2022-08-27T09:56:59Z</time>
      </trkpt>
      <trkpt lat="43.495124" lon="-5.428957">
        <ele>45.585</ele>
        <time>2022-08-27T09:57:00Z</time>
      </trkpt>
      <trkpt lat="43.495066" lon="-5.429007">
        <ele>45.559</ele>
        <time>2022-08-27T09:57:01Z</time>
      </trkpt>
      <trkpt lat="43.495011" lon="-5.429055">
        <ele>45.603</ele>
        <time>2022-08-27T09:57:02Z</time>
      </trkpt>
      <trkpt lat="43.494899" lon="-5.429152">
        <ele>45.723</ele>
        <time>2022-08-27T09:57:04Z</time>
      </trkpt>
      <trkpt lat="43.494846" lon="-5.429204">
        <ele>45.809</ele>
        <time>2022-08-27T09:57:05Z</time>
      </trkpt>
      <trkpt lat="43.494794" lon="-5.429259">
        <ele>45.886</ele>
        <time>2022-08-27T09:57:06Z</time>
      </trkpt>
      <trkpt lat="43.494742" lon="-5.429316">
        <ele>45.876</ele>
        <time>2022-08-27T09:57:07Z</time>
      </trkpt>
      <trkpt lat="43.494642" lon="-5.429444">
        <ele>45.827</ele>
        <time>2022-08-27T09:57:09Z</time>
      </trkpt>
      <trkpt lat="43.494595" lon="-5.429512">
        <ele>45.795</ele>
        <time>2022-08-27T09:57:10Z</time>
      </trkpt>
      <trkpt lat="43.494517" lon="-5.429655">
        <ele>45.735</ele>
        <time>2022-08-27T09:57:12Z</time>
      </trkpt>
      <trkpt lat="43.494482" lon="-5.429730">
        <ele>45.721</ele>
        <time>2022-08-27T09:57:13Z</time>
      </trkpt>
      <trkpt lat="43.494414" lon="-5.429887">
        <ele>45.735</ele>
        <time>2022-08-27T09:57:15Z</time>
      </trkpt>
      <trkpt lat="43.494354" lon="-5.430040">
        <ele>45.442</ele>
        <time>2022-08-27T09:57:17Z</time>
      </trkpt>
      <trkpt lat="43.494319" lon="-5.430115">
        <ele>45.279</ele>
        <time>2022-08-27T09:57:18Z</time>
      </trkpt>
      <trkpt lat="43.494251" lon="-5.430263">
        <ele>44.968</ele>
        <time>2022-08-27T09:57:20Z</time>
      </trkpt>
      <trkpt lat="43.494184" lon="-5.430411">
        <ele>44.942</ele>
        <time>2022-08-27T09:57:22Z</time>
      </trkpt>
      <trkpt lat="43.494117" lon="-5.430558">
        <ele>44.926</ele>
        <time>2022-08-27T09:57:24Z</time>
      </trkpt>
      <trkpt lat="43.494085" lon="-5.430633">
        <ele>44.909</ele>
        <time>2022-08-27T09:57:25Z</time>
      </trkpt>
      <trkpt lat="43.494022" lon="-5.430780">
        <ele>45.087</ele>
        <time>2022-08-27T09:57:27Z</time>
      </trkpt>
      <trkpt lat="43.493960" lon="-5.430925">
        <ele>45.377</ele>
        <time>2022-08-27T09:57:29Z</time>
      </trkpt>
      <trkpt lat="43.493897" lon="-5.431068">
        <ele>45.788</ele>
        <time>2022-08-27T09:57:31Z</time>
      </trkpt>
      <trkpt lat="43.493864" lon="-5.431141">
        <ele>45.896</ele>
        <time>2022-08-27T09:57:32Z</time>
      </trkpt>
      <trkpt lat="43.493831" lon="-5.431213">
        <ele>45.866</ele>
        <time>2022-08-27T09:57:33Z</time>
      </trkpt>
      <trkpt lat="43.493769" lon="-5.431360">
        <ele>45.852</ele>
        <time>2022-08-27T09:57:35Z</time>
      </trkpt>
      <trkpt lat="43.493739" lon="-5.431432">
        <ele>46.046</ele>
        <time>2022-08-27T09:57:36Z</time>
      </trkpt>
      <trkpt lat="43.493709" lon="-5.431505">
        <ele>46.023</ele>
        <time>2022-08-27T09:57:37Z</time>
      </trkpt>
      <trkpt lat="43.493644" lon="-5.431653">
        <ele>46.180</ele>
        <time>2022-08-27T09:57:39Z</time>
      </trkpt>
      <trkpt lat="43.493582" lon="-5.431801">
        <ele>46.138</ele>
        <time>2022-08-27T09:57:41Z</time>
      </trkpt>
      <trkpt lat="43.493550" lon="-5.431874">
        <ele>46.270</ele>
        <time>2022-08-27T09:57:42Z</time>
      </trkpt>
      <trkpt lat="43.493485" lon="-5.432021">
        <ele>46.217</ele>
        <time>2022-08-27T09:57:44Z</time>
      </trkpt>
      <trkpt lat="43.493455" lon="-5.432094">
        <ele>46.209</ele>
        <time>2022-08-27T09:57:45Z</time>
      </trkpt>
      <trkpt lat="43.493427" lon="-5.432167">
        <ele>46.244</ele>
        <time>2022-08-27T09:57:46Z</time>
      </trkpt>
      <trkpt lat="43.493370" lon="-5.432312">
        <ele>46.264</ele>
        <time>2022-08-27T09:57:48Z</time>
      </trkpt>
      <trkpt lat="43.493315" lon="-5.432459">
        <ele>46.165</ele>
        <time>2022-08-27T09:57:50Z</time>
      </trkpt>
      <trkpt lat="43.493262" lon="-5.432607">
        <ele>46.163</ele>
        <time>2022-08-27T09:57:52Z</time>
      </trkpt>
      <trkpt lat="43.493207" lon="-5.432755">
        <ele>46.363</ele>
        <time>2022-08-27T09:57:54Z</time>
      </trkpt>
      <trkpt lat="43.493179" lon="-5.432830">
        <ele>46.479</ele>
        <time>2022-08-27T09:57:55Z</time>
      </trkpt>
      <trkpt lat="43.493121" lon="-5.432977">
        <ele>46.523</ele>
        <time>2022-08-27T09:57:57Z</time>
      </trkpt>
      <trkpt lat="43.493066" lon="-5.433122">
        <ele>46.580</ele>
        <time>2022-08-27T09:57:59Z</time>
      </trkpt>
      <trkpt lat="43.493041" lon="-5.433194">
        <ele>46.767</ele>
        <time>2022-08-27T09:58:00Z</time>
      </trkpt>
      <trkpt lat="43.492998" lon="-5.433339">
        <ele>46.736</ele>
        <time>2022-08-27T09:58:02Z</time>
      </trkpt>
      <trkpt lat="43.492970" lon="-5.433406">
        <ele>46.817</ele>
        <time>2022-08-27T09:58:03Z</time>
      </trkpt>
      <trkpt lat="43.492912" lon="-5.433539">
        <ele>46.718</ele>
        <time>2022-08-27T09:58:05Z</time>
      </trkpt>
      <trkpt lat="43.492882" lon="-5.433606">
        <ele>46.709</ele>
        <time>2022-08-27T09:58:06Z</time>
      </trkpt>
      <trkpt lat="43.492849" lon="-5.433673">
        <ele>46.864</ele>
        <time>2022-08-27T09:58:07Z</time>
      </trkpt>
      <trkpt lat="43.492816" lon="-5.433738">
        <ele>46.844</ele>
        <time>2022-08-27T09:58:08Z</time>
      </trkpt>
      <trkpt lat="43.492746" lon="-5.433866">
        <ele>46.935</ele>
        <time>2022-08-27T09:58:10Z</time>
      </trkpt>
      <trkpt lat="43.492673" lon="-5.433981">
        <ele>46.913</ele>
        <time>2022-08-27T09:58:12Z</time>
      </trkpt>
      <trkpt lat="43.492600" lon="-5.434091">
        <ele>46.693</ele>
        <time>2022-08-27T09:58:14Z</time>
      </trkpt>
      <trkpt lat="43.492560" lon="-5.434148">
        <ele>46.469</ele>
        <time>2022-08-27T09:58:15Z</time>
      </trkpt>
      <trkpt lat="43.492477" lon="-5.434250">
        <ele>46.393</ele>
        <time>2022-08-27T09:58:17Z</time>
      </trkpt>
      <trkpt lat="43.492387" lon="-5.434353">
        <ele>46.090</ele>
        <time>2022-08-27T09:58:19Z</time>
      </trkpt>
      <trkpt lat="43.492340" lon="-5.434403">
        <ele>46.097</ele>
        <time>2022-08-27T09:58:20Z</time>
      </trkpt>
      <trkpt lat="43.492292" lon="-5.434445">
        <ele>45.863</ele>
        <time>2022-08-27T09:58:21Z</time>
      </trkpt>
      <trkpt lat="43.492244" lon="-5.434483">
        <ele>45.644</ele>
        <time>2022-08-27T09:58:22Z</time>
      </trkpt>
      <trkpt lat="43.492191" lon="-5.434525">
        <ele>45.318</ele>
        <time>2022-08-27T09:58:23Z</time>
      </trkpt>
      <trkpt lat="43.492081" lon="-5.434582">
        <ele>45.109</ele>
        <time>2022-08-27T09:58:25Z</time>
      </trkpt>
      <trkpt lat="43.492026" lon="-5.434612">
        <ele>45.147</ele>
        <time>2022-08-27T09:58:26Z</time>
      </trkpt>
      <trkpt lat="43.491916" lon="-5.434675">
        <ele>45.297</ele>
        <time>2022-08-27T09:58:28Z</time>
      </trkpt>
      <trkpt lat="43.491809" lon="-5.434748">
        <ele>45.758</ele>
        <time>2022-08-27T09:58:30Z</time>
      </trkpt>
      <trkpt lat="43.491709" lon="-5.434830">
        <ele>46.736</ele>
        <time>2022-08-27T09:58:32Z</time>
      </trkpt>
      <trkpt lat="43.491611" lon="-5.434925">
        <ele>47.346</ele>
        <time>2022-08-27T09:58:34Z</time>
      </trkpt>
      <trkpt lat="43.491519" lon="-5.435025">
        <ele>47.472</ele>
        <time>2022-08-27T09:58:36Z</time>
      </trkpt>
      <trkpt lat="43.491471" lon="-5.435077">
        <ele>47.636</ele>
        <time>2022-08-27T09:58:37Z</time>
      </trkpt>
      <trkpt lat="43.491388" lon="-5.435189">
        <ele>47.713</ele>
        <time>2022-08-27T09:58:39Z</time>
      </trkpt>
      <trkpt lat="43.491310" lon="-5.435307">
        <ele>47.850</ele>
        <time>2022-08-27T09:58:41Z</time>
      </trkpt>
      <trkpt lat="43.491275" lon="-5.435367">
        <ele>47.969</ele>
        <time>2022-08-27T09:58:42Z</time>
      </trkpt>
      <trkpt lat="43.491202" lon="-5.435492">
        <ele>48.004</ele>
        <time>2022-08-27T09:58:44Z</time>
      </trkpt>
      <trkpt lat="43.491127" lon="-5.435620">
        <ele>48.224</ele>
        <time>2022-08-27T09:58:46Z</time>
      </trkpt>
      <trkpt lat="43.491054" lon="-5.435743">
        <ele>48.409</ele>
        <time>2022-08-27T09:58:48Z</time>
      </trkpt>
      <trkpt lat="43.491014" lon="-5.435805">
        <ele>48.437</ele>
        <time>2022-08-27T09:58:49Z</time>
      </trkpt>
      <trkpt lat="43.490971" lon="-5.435865">
        <ele>48.417</ele>
        <time>2022-08-27T09:58:50Z</time>
      </trkpt>
      <trkpt lat="43.490884" lon="-5.435985">
        <ele>48.218</ele>
        <time>2022-08-27T09:58:52Z</time>
      </trkpt>
      <trkpt lat="43.490842" lon="-5.436042">
        <ele>48.256</ele>
        <time>2022-08-27T09:58:53Z</time>
      </trkpt>
      <trkpt lat="43.490755" lon="-5.436137">
        <ele>48.416</ele>
        <time>2022-08-27T09:58:55Z</time>
      </trkpt>
      <trkpt lat="43.490707" lon="-5.436179">
        <ele>48.442</ele>
        <time>2022-08-27T09:58:56Z</time>
      </trkpt>
      <trkpt lat="43.490605" lon="-5.436256">
        <ele>48.566</ele>
        <time>2022-08-27T09:58:58Z</time>
      </trkpt>
      <trkpt lat="43.490502" lon="-5.436326">
        <ele>48.623</ele>
        <time>2022-08-27T09:59:00Z</time>
      </trkpt>
      <trkpt lat="43.490449" lon="-5.436361">
        <ele>48.660</ele>
        <time>2022-08-27T09:59:01Z</time>
      </trkpt>
      <trkpt lat="43.490397" lon="-5.436396">
        <ele>48.526</ele>
        <time>2022-08-27T09:59:02Z</time>
      </trkpt>
      <trkpt lat="43.490344" lon="-5.436433">
        <ele>48.547</ele>
        <time>2022-08-27T09:59:03Z</time>
      </trkpt>
      <trkpt lat="43.490237" lon="-5.436503">
        <ele>48.211</ele>
        <time>2022-08-27T09:59:05Z</time>
      </trkpt>
      <trkpt lat="43.490127" lon="-5.436576">
        <ele>48.109</ele>
        <time>2022-08-27T09:59:07Z</time>
      </trkpt>
      <trkpt lat="43.490017" lon="-5.436646">
        <ele>48.123</ele>
        <time>2022-08-27T09:59:09Z</time>
      </trkpt>
      <trkpt lat="43.489964" lon="-5.436686">
        <ele>48.123</ele>
        <time>2022-08-27T09:59:10Z</time>
      </trkpt>
      <trkpt lat="43.489912" lon="-5.436731">
        <ele>48.014</ele>
        <time>2022-08-27T09:59:11Z</time>
      </trkpt>
      <trkpt lat="43.489859" lon="-5.436776">
        <ele>48.042</ele>
        <time>2022-08-27T09:59:12Z</time>
      </trkpt>
      <trkpt lat="43.489762" lon="-5.436888">
        <ele>47.872</ele>
        <time>2022-08-27T09:59:14Z</time>
      </trkpt>
      <trkpt lat="43.489719" lon="-5.436953">
        <ele>47.858</ele>
        <time>2022-08-27T09:59:15Z</time>
      </trkpt>
      <trkpt lat="43.489637" lon="-5.437086">
        <ele>47.872</ele>
        <time>2022-08-27T09:59:17Z</time>
      </trkpt>
      <trkpt lat="43.489565" lon="-5.437226">
        <ele>48.289</ele>
        <time>2022-08-27T09:59:19Z</time>
      </trkpt>
      <trkpt lat="43.489530" lon="-5.437299">
        <ele>48.246</ele>
        <time>2022-08-27T09:59:20Z</time>
      </trkpt>
      <trkpt lat="43.489497" lon="-5.437369">
        <ele>48.571</ele>
        <time>2022-08-27T09:59:21Z</time>
      </trkpt>
      <trkpt lat="43.489465" lon="-5.437439">
        <ele>48.641</ele>
        <time>2022-08-27T09:59:22Z</time>
      </trkpt>
      <trkpt lat="43.489433" lon="-5.437509">
        <ele>48.615</ele>
        <time>2022-08-27T09:59:23Z</time>
      </trkpt>
      <trkpt lat="43.489371" lon="-5.437646">
        <ele>48.709</ele>
        <time>2022-08-27T09:59:25Z</time>
      </trkpt>
      <trkpt lat="43.489309" lon="-5.437784">
        <ele>49.198</ele>
        <time>2022-08-27T09:59:27Z</time>
      </trkpt>
      <trkpt lat="43.489244" lon="-5.437927">
        <ele>49.188</ele>
        <time>2022-08-27T09:59:29Z</time>
      </trkpt>
      <trkpt lat="43.489216" lon="-5.438004">
        <ele>49.099</ele>
        <time>2022-08-27T09:59:30Z</time>
      </trkpt>
      <trkpt lat="43.489189" lon="-5.438081">
        <ele>49.097</ele>
        <time>2022-08-27T09:59:31Z</time>
      </trkpt>
      <trkpt lat="43.489144" lon="-5.438244">
        <ele>49.167</ele>
        <time>2022-08-27T09:59:33Z</time>
      </trkpt>
      <trkpt lat="43.489127" lon="-5.438327">
        <ele>49.113</ele>
        <time>2022-08-27T09:59:34Z</time>
      </trkpt>
      <trkpt lat="43.489112" lon="-5.438410">
        <ele>49.117</ele>
        <time>2022-08-27T09:59:35Z</time>
      </trkpt>
      <trkpt lat="43.489089" lon="-5.438580">
        <ele>49.064</ele>
        <time>2022-08-27T09:59:37Z</time>
      </trkpt>
      <trkpt lat="43.489079" lon="-5.438667">
        <ele>48.911</ele>
        <time>2022-08-27T09:59:38Z</time>
      </trkpt>
      <trkpt lat="43.489069" lon="-5.438750">
        <ele>48.817</ele>
        <time>2022-08-27T09:59:39Z</time>
      </trkpt>
      <trkpt lat="43.489044" lon="-5.438912">
        <ele>48.787</ele>
        <time>2022-08-27T09:59:41Z</time>
      </trkpt>
      <trkpt lat="43.489021" lon="-5.439075">
        <ele>48.615</ele>
        <time>2022-08-27T09:59:43Z</time>
      </trkpt>
      <trkpt lat="43.488998" lon="-5.439242">
        <ele>48.009</ele>
        <time>2022-08-27T09:59:45Z</time>
      </trkpt>
      <trkpt lat="43.488991" lon="-5.439322">
        <ele>47.912</ele>
        <time>2022-08-27T09:59:46Z</time>
      </trkpt>
      <trkpt lat="43.488979" lon="-5.439400">
        <ele>47.942</ele>
        <time>2022-08-27T09:59:47Z</time>
      </trkpt>
      <trkpt lat="43.488971" lon="-5.439477">
        <ele>47.823</ele>
        <time>2022-08-27T09:59:48Z</time>
      </trkpt>
      <trkpt lat="43.488959" lon="-5.439552">
        <ele>47.371</ele>
        <time>2022-08-27T09:59:49Z</time>
      </trkpt>
      <trkpt lat="43.488937" lon="-5.439704">
        <ele>47.241</ele>
        <time>2022-08-27T09:59:51Z</time>
      </trkpt>
      <trkpt lat="43.488917" lon="-5.439861">
        <ele>47.297</ele>
        <time>2022-08-27T09:59:53Z</time>
      </trkpt>
      <trkpt lat="43.488907" lon="-5.439938">
        <ele>47.161</ele>
        <time>2022-08-27T09:59:54Z</time>
      </trkpt>
      <trkpt lat="43.488892" lon="-5.440095">
        <ele>46.888</ele>
        <time>2022-08-27T09:59:56Z</time>
      </trkpt>
      <trkpt lat="43.488880" lon="-5.440172">
        <ele>46.825</ele>
        <time>2022-08-27T09:59:57Z</time>
      </trkpt>
      <trkpt lat="43.488868" lon="-5.440250">
        <ele>46.817</ele>
        <time>2022-08-27T09:59:58Z</time>
      </trkpt>
      <trkpt lat="43.488846" lon="-5.440412">
        <ele>47.287</ele>
        <time>2022-08-27T10:00:00Z</time>
      </trkpt>
      <trkpt lat="43.488836" lon="-5.440490">
        <ele>47.415</ele>
        <time>2022-08-27T10:00:01Z</time>
      </trkpt>
      <trkpt lat="43.488824" lon="-5.440563">
        <ele>47.409</ele>
        <time>2022-08-27T10:00:02Z</time>
      </trkpt>
      <trkpt lat="43.488816" lon="-5.440631">
        <ele>47.582</ele>
        <time>2022-08-27T10:00:03Z</time>
      </trkpt>
      <trkpt lat="43.488808" lon="-5.440698">
        <ele>47.542</ele>
        <time>2022-08-27T10:00:04Z</time>
      </trkpt>
      <trkpt lat="43.488788" lon="-5.440820">
        <ele>47.613</ele>
        <time>2022-08-27T10:00:06Z</time>
      </trkpt>
      <trkpt lat="43.488753" lon="-5.440923">
        <ele>47.631</ele>
        <time>2022-08-27T10:00:08Z</time>
      </trkpt>
      <trkpt lat="43.488721" lon="-5.441028">
        <ele>47.681</ele>
        <time>2022-08-27T10:00:10Z</time>
      </trkpt>
      <trkpt lat="43.488678" lon="-5.441133">
        <ele>47.847</ele>
        <time>2022-08-27T10:00:12Z</time>
      </trkpt>
      <trkpt lat="43.488625" lon="-5.441243">
        <ele>48.171</ele>
        <time>2022-08-27T10:00:14Z</time>
      </trkpt>
      <trkpt lat="43.488568" lon="-5.441351">
        <ele>48.658</ele>
        <time>2022-08-27T10:00:16Z</time>
      </trkpt>
      <trkpt lat="43.488495" lon="-5.441449">
        <ele>48.645</ele>
        <time>2022-08-27T10:00:18Z</time>
      </trkpt>
      <trkpt lat="43.488455" lon="-5.441496">
        <ele>48.571</ele>
        <time>2022-08-27T10:00:19Z</time>
      </trkpt>
      <trkpt lat="43.488365" lon="-5.441581">
        <ele>48.441</ele>
        <time>2022-08-27T10:00:21Z</time>
      </trkpt>
      <trkpt lat="43.488315" lon="-5.441619">
        <ele>48.415</ele>
        <time>2022-08-27T10:00:22Z</time>
      </trkpt>
      <trkpt lat="43.488265" lon="-5.441657">
        <ele>48.509</ele>
        <time>2022-08-27T10:00:23Z</time>
      </trkpt>
      <trkpt lat="43.488213" lon="-5.441692">
        <ele>48.728</ele>
        <time>2022-08-27T10:00:24Z</time>
      </trkpt>
      <trkpt lat="43.488163" lon="-5.441732">
        <ele>49.058</ele>
        <time>2022-08-27T10:00:25Z</time>
      </trkpt>
      <trkpt lat="43.488115" lon="-5.441772">
        <ele>49.469</ele>
        <time>2022-08-27T10:00:26Z</time>
      </trkpt>
      <trkpt lat="43.488065" lon="-5.441810">
        <ele>49.557</ele>
        <time>2022-08-27T10:00:27Z</time>
      </trkpt>
      <trkpt lat="43.487965" lon="-5.441885">
        <ele>49.547</ele>
        <time>2022-08-27T10:00:29Z</time>
      </trkpt>
      <trkpt lat="43.487860" lon="-5.441962">
        <ele>49.753</ele>
        <time>2022-08-27T10:00:31Z</time>
      </trkpt>
      <trkpt lat="43.487807" lon="-5.442002">
        <ele>49.777</ele>
        <time>2022-08-27T10:00:32Z</time>
      </trkpt>
      <trkpt lat="43.487705" lon="-5.442082">
        <ele>49.754</ele>
        <time>2022-08-27T10:00:34Z</time>
      </trkpt>
      <trkpt lat="43.487657" lon="-5.442119">
        <ele>49.181</ele>
        <time>2022-08-27T10:00:35Z</time>
      </trkpt>
      <trkpt lat="43.487564" lon="-5.442196">
        <ele>48.776</ele>
        <time>2022-08-27T10:00:37Z</time>
      </trkpt>
      <trkpt lat="43.487521" lon="-5.442231">
        <ele>48.390</ele>
        <time>2022-08-27T10:00:38Z</time>
      </trkpt>
      <trkpt lat="43.487441" lon="-5.442286">
        <ele>48.419</ele>
        <time>2022-08-27T10:00:40Z</time>
      </trkpt>
      <trkpt lat="43.487399" lon="-5.442313">
        <ele>48.409</ele>
        <time>2022-08-27T10:00:41Z</time>
      </trkpt>
      <trkpt lat="43.487306" lon="-5.442336">
        <ele>48.858</ele>
        <time>2022-08-27T10:00:43Z</time>
      </trkpt>
      <trkpt lat="43.487201" lon="-5.442326">
        <ele>49.138</ele>
        <time>2022-08-27T10:00:45Z</time>
      </trkpt>
      <trkpt lat="43.487148" lon="-5.442316">
        <ele>49.159</ele>
        <time>2022-08-27T10:00:46Z</time>
      </trkpt>
      <trkpt lat="43.487038" lon="-5.442306">
        <ele>49.327</ele>
        <time>2022-08-27T10:00:48Z</time>
      </trkpt>
      <trkpt lat="43.486920" lon="-5.442304">
        <ele>49.447</ele>
        <time>2022-08-27T10:00:50Z</time>
      </trkpt>
      <trkpt lat="43.486800" lon="-5.442302">
        <ele>49.733</ele>
        <time>2022-08-27T10:00:52Z</time>
      </trkpt>
      <trkpt lat="43.486743" lon="-5.442300">
        <ele>50.317</ele>
        <time>2022-08-27T10:00:53Z</time>
      </trkpt>
      <trkpt lat="43.486626" lon="-5.442297">
        <ele>50.664</ele>
        <time>2022-08-27T10:00:55Z</time>
      </trkpt>
      <trkpt lat="43.486511" lon="-5.442295">
        <ele>50.681</ele>
        <time>2022-08-27T10:00:57Z</time>
      </trkpt>
      <trkpt lat="43.486453" lon="-5.442297">
        <ele>50.475</ele>
        <time>2022-08-27T10:00:58Z</time>
      </trkpt>
      <trkpt lat="43.486336" lon="-5.442297">
        <ele>50.328</ele>
        <time>2022-08-27T10:01:00Z</time>
      </trkpt>
      <trkpt lat="43.486276" lon="-5.442299">
        <ele>50.320</ele>
        <time>2022-08-27T10:01:01Z</time>
      </trkpt>
      <trkpt lat="43.486216" lon="-5.442301">
        <ele>50.509</ele>
        <time>2022-08-27T10:01:02Z</time>
      </trkpt>
      <trkpt lat="43.486099" lon="-5.442296">
        <ele>50.678</ele>
        <time>2022-08-27T10:01:04Z</time>
      </trkpt>
      <trkpt lat="43.486039" lon="-5.442289">
        <ele>50.838</ele>
        <time>2022-08-27T10:01:05Z</time>
      </trkpt>
      <trkpt lat="43.485979" lon="-5.442281">
        <ele>51.079</ele>
        <time>2022-08-27T10:01:06Z</time>
      </trkpt>
      <trkpt lat="43.485917" lon="-5.442261">
        <ele>51.327</ele>
        <time>2022-08-27T10:01:07Z</time>
      </trkpt>
      <trkpt lat="43.485797" lon="-5.442219">
        <ele>51.867</ele>
        <time>2022-08-27T10:01:09Z</time>
      </trkpt>
      <trkpt lat="43.485675" lon="-5.442169">
        <ele>52.093</ele>
        <time>2022-08-27T10:01:11Z</time>
      </trkpt>
      <trkpt lat="43.485615" lon="-5.442142">
        <ele>52.247</ele>
        <time>2022-08-27T10:01:12Z</time>
      </trkpt>
      <trkpt lat="43.485558" lon="-5.442119">
        <ele>52.244</ele>
        <time>2022-08-27T10:01:13Z</time>
      </trkpt>
      <trkpt lat="43.485445" lon="-5.442072">
        <ele>52.281</ele>
        <time>2022-08-27T10:01:15Z</time>
      </trkpt>
      <trkpt lat="43.485390" lon="-5.442050">
        <ele>52.432</ele>
        <time>2022-08-27T10:01:16Z</time>
      </trkpt>
      <trkpt lat="43.485277" lon="-5.442002">
        <ele>52.792</ele>
        <time>2022-08-27T10:01:18Z</time>
      </trkpt>
      <trkpt lat="43.485164" lon="-5.441955">
        <ele>52.511</ele>
        <time>2022-08-27T10:01:20Z</time>
      </trkpt>
      <trkpt lat="43.485107" lon="-5.441925">
        <ele>52.409</ele>
        <time>2022-08-27T10:01:21Z</time>
      </trkpt>
      <trkpt lat="43.484994" lon="-5.441868">
        <ele>52.224</ele>
        <time>2022-08-27T10:01:23Z</time>
      </trkpt>
      <trkpt lat="43.484884" lon="-5.441815">
        <ele>52.164</ele>
        <time>2022-08-27T10:01:25Z</time>
      </trkpt>
      <trkpt lat="43.484776" lon="-5.441762">
        <ele>51.785</ele>
        <time>2022-08-27T10:01:27Z</time>
      </trkpt>
      <trkpt lat="43.484723" lon="-5.441735">
        <ele>51.783</ele>
        <time>2022-08-27T10:01:28Z</time>
      </trkpt>
      <trkpt lat="43.484621" lon="-5.441680">
        <ele>51.793</ele>
        <time>2022-08-27T10:01:30Z</time>
      </trkpt>
      <trkpt lat="43.484519" lon="-5.441640">
        <ele>51.719</ele>
        <time>2022-08-27T10:01:32Z</time>
      </trkpt>
      <trkpt lat="43.484471" lon="-5.441622">
        <ele>51.763</ele>
        <time>2022-08-27T10:01:33Z</time>
      </trkpt>
      <trkpt lat="43.484419" lon="-5.441600">
        <ele>51.590</ele>
        <time>2022-08-27T10:01:34Z</time>
      </trkpt>
      <trkpt lat="43.484324" lon="-5.441557">
        <ele>51.027</ele>
        <time>2022-08-27T10:01:36Z</time>
      </trkpt>
      <trkpt lat="43.484232" lon="-5.441522">
        <ele>50.849</ele>
        <time>2022-08-27T10:01:38Z</time>
      </trkpt>
      <trkpt lat="43.484144" lon="-5.441474">
        <ele>50.402</ele>
        <time>2022-08-27T10:01:40Z</time>
      </trkpt>
      <trkpt lat="43.484064" lon="-5.441416">
        <ele>49.822</ele>
        <time>2022-08-27T10:01:42Z</time>
      </trkpt>
      <trkpt lat="43.483979" lon="-5.441354">
        <ele>48.909</ele>
        <time>2022-08-27T10:01:44Z</time>
      </trkpt>
      <trkpt lat="43.483889" lon="-5.441284">
        <ele>48.035</ele>
        <time>2022-08-27T10:01:46Z</time>
      </trkpt>
      <trkpt lat="43.483802" lon="-5.441216">
        <ele>47.925</ele>
        <time>2022-08-27T10:01:48Z</time>
      </trkpt>
      <trkpt lat="43.483759" lon="-5.441179">
        <ele>47.976</ele>
        <time>2022-08-27T10:01:49Z</time>
      </trkpt>
      <trkpt lat="43.483677" lon="-5.441112">
        <ele>47.974</ele>
        <time>2022-08-27T10:01:51Z</time>
      </trkpt>
      <trkpt lat="43.483597" lon="-5.441035">
        <ele>47.974</ele>
        <time>2022-08-27T10:01:53Z</time>
      </trkpt>
      <trkpt lat="43.483519" lon="-5.440957">
        <ele>47.980</ele>
        <time>2022-08-27T10:01:55Z</time>
      </trkpt>
      <trkpt lat="43.483442" lon="-5.440880">
        <ele>48.194</ele>
        <time>2022-08-27T10:01:57Z</time>
      </trkpt>
      <trkpt lat="43.483382" lon="-5.440797">
        <ele>49.141</ele>
        <time>2022-08-27T10:01:59Z</time>
      </trkpt>
      <trkpt lat="43.483330" lon="-5.440714">
        <ele>49.048</ele>
        <time>2022-08-27T10:02:01Z</time>
      </trkpt>
      <trkpt lat="43.483290" lon="-5.440609">
        <ele>49.276</ele>
        <time>2022-08-27T10:02:03Z</time>
      </trkpt>
      <trkpt lat="43.483247" lon="-5.440517">
        <ele>49.290</ele>
        <time>2022-08-27T10:02:05Z</time>
      </trkpt>
      <trkpt lat="43.483205" lon="-5.440427">
        <ele>49.219</ele>
        <time>2022-08-27T10:02:07Z</time>
      </trkpt>
      <trkpt lat="43.483172" lon="-5.440337">
        <ele>48.809</ele>
        <time>2022-08-27T10:02:09Z</time>
      </trkpt>
      <trkpt lat="43.483142" lon="-5.440260">
        <ele>48.538</ele>
        <time>2022-08-27T10:02:11Z</time>
      </trkpt>
      <trkpt lat="43.483122" lon="-5.440195">
        <ele>48.178</ele>
        <time>2022-08-27T10:02:13Z</time>
      </trkpt>
      <trkpt lat="43.483100" lon="-5.440132">
        <ele>47.979</ele>
        <time>2022-08-27T10:02:15Z</time>
      </trkpt>
      <trkpt lat="43.483078" lon="-5.440035">
        <ele>47.997</ele>
        <time>2022-08-27T10:02:24Z</time>
      </trkpt>
      <trkpt lat="43.483050" lon="-5.439948">
        <ele>47.877</ele>
        <time>2022-08-27T10:02:27Z</time>
      </trkpt>
      <trkpt lat="43.483023" lon="-5.439885">
        <ele>47.863</ele>
        <time>2022-08-27T10:02:29Z</time>
      </trkpt>
      <trkpt lat="43.482985" lon="-5.439842">
        <ele>47.897</ele>
        <time>2022-08-27T10:02:31Z</time>
      </trkpt>
      <trkpt lat="43.482928" lon="-5.439815">
        <ele>47.864</ele>
        <time>2022-08-27T10:02:33Z</time>
      </trkpt>
      <trkpt lat="43.482866" lon="-5.439773">
        <ele>47.431</ele>
        <time>2022-08-27T10:02:35Z</time>
      </trkpt>
      <trkpt lat="43.482818" lon="-5.439708">
        <ele>46.481</ele>
        <time>2022-08-27T10:02:37Z</time>
      </trkpt>
      <trkpt lat="43.482796" lon="-5.439628">
        <ele>46.261</ele>
        <time>2022-08-27T10:02:39Z</time>
      </trkpt>
      <trkpt lat="43.482794" lon="-5.439543">
        <ele>46.217</ele>
        <time>2022-08-27T10:02:41Z</time>
      </trkpt>
      <trkpt lat="43.482827" lon="-5.439456">
        <ele>46.309</ele>
        <time>2022-08-27T10:02:43Z</time>
      </trkpt>
      <trkpt lat="43.482874" lon="-5.439384">
        <ele>46.489</ele>
        <time>2022-08-27T10:02:45Z</time>
      </trkpt>
      <trkpt lat="43.482946" lon="-5.439349">
        <ele>46.979</ele>
        <time>2022-08-27T10:02:47Z</time>
      </trkpt>
      <trkpt lat="43.483019" lon="-5.439344">
        <ele>47.260</ele>
        <time>2022-08-27T10:02:49Z</time>
      </trkpt>
      <trkpt lat="43.483086" lon="-5.439361">
        <ele>47.688</ele>
        <time>2022-08-27T10:02:51Z</time>
      </trkpt>
      <trkpt lat="43.483151" lon="-5.439346">
        <ele>47.718</ele>
        <time>2022-08-27T10:02:53Z</time>
      </trkpt>
      <trkpt lat="43.483204" lon="-5.439284">
        <ele>47.784</ele>
        <time>2022-08-27T10:02:55Z</time>
      </trkpt>
      <trkpt lat="43.483267" lon="-5.439219">
        <ele>47.618</ele>
        <time>2022-08-27T10:02:57Z</time>
      </trkpt>
      <trkpt lat="43.483339" lon="-5.439162">
        <ele>47.625</ele>
        <time>2022-08-27T10:02:59Z</time>
      </trkpt>
      <trkpt lat="43.483407" lon="-5.439102">
        <ele>47.542</ele>
        <time>2022-08-27T10:03:01Z</time>
      </trkpt>
      <trkpt lat="43.483472" lon="-5.439039">
        <ele>47.537</ele>
        <time>2022-08-27T10:03:03Z</time>
      </trkpt>
      <trkpt lat="43.483534" lon="-5.438977">
        <ele>47.749</ele>
        <time>2022-08-27T10:03:05Z</time>
      </trkpt>
      <trkpt lat="43.483594" lon="-5.438909">
        <ele>48.113</ele>
        <time>2022-08-27T10:03:07Z</time>
      </trkpt>
      <trkpt lat="43.483651" lon="-5.438844">
        <ele>48.009</ele>
        <time>2022-08-27T10:03:09Z</time>
      </trkpt>
      <trkpt lat="43.483709" lon="-5.438786">
        <ele>48.124</ele>
        <time>2022-08-27T10:03:11Z</time>
      </trkpt>
      <trkpt lat="43.483767" lon="-5.438716">
        <ele>48.114</ele>
        <time>2022-08-27T10:03:13Z</time>
      </trkpt>
      <trkpt lat="43.483839" lon="-5.438649">
        <ele>48.125</ele>
        <time>2022-08-27T10:03:15Z</time>
      </trkpt>
      <trkpt lat="43.483911" lon="-5.438581">
        <ele>48.453</ele>
        <time>2022-08-27T10:03:17Z</time>
      </trkpt>
      <trkpt lat="43.483983" lon="-5.438516">
        <ele>48.713</ele>
        <time>2022-08-27T10:03:19Z</time>
      </trkpt>
      <trkpt lat="43.484043" lon="-5.438439">
        <ele>48.729</ele>
        <time>2022-08-27T10:03:21Z</time>
      </trkpt>
      <trkpt lat="43.484080" lon="-5.438401">
        <ele>48.713</ele>
        <time>2022-08-27T10:03:22Z</time>
      </trkpt>
      <trkpt lat="43.484163" lon="-5.438328">
        <ele>47.990</ele>
        <time>2022-08-27T10:03:24Z</time>
      </trkpt>
      <trkpt lat="43.484240" lon="-5.438253">
        <ele>47.827</ele>
        <time>2022-08-27T10:03:26Z</time>
      </trkpt>
      <trkpt lat="43.484312" lon="-5.438178">
        <ele>47.894</ele>
        <time>2022-08-27T10:03:28Z</time>
      </trkpt>
      <trkpt lat="43.484397" lon="-5.438108">
        <ele>47.657</ele>
        <time>2022-08-27T10:03:30Z</time>
      </trkpt>
      <trkpt lat="43.484485" lon="-5.438038">
        <ele>47.622</ele>
        <time>2022-08-27T10:03:32Z</time>
      </trkpt>
      <trkpt lat="43.484562" lon="-5.437958">
        <ele>48.209</ele>
        <time>2022-08-27T10:03:34Z</time>
      </trkpt>
      <trkpt lat="43.484587" lon="-5.437875">
        <ele>48.250</ele>
        <time>2022-08-27T10:03:36Z</time>
      </trkpt>
      <trkpt lat="43.484659" lon="-5.437797">
        <ele>45.510</ele>
        <time>2022-08-27T10:03:38Z</time>
      </trkpt>
      <trkpt lat="43.484736" lon="-5.437714">
        <ele>44.671</ele>
        <time>2022-08-27T10:03:40Z</time>
      </trkpt>
      <trkpt lat="43.484771" lon="-5.437667">
        <ele>44.589</ele>
        <time>2022-08-27T10:03:41Z</time>
      </trkpt>
      <trkpt lat="43.484808" lon="-5.437619">
        <ele>44.589</ele>
        <time>2022-08-27T10:03:42Z</time>
      </trkpt>
      <trkpt lat="43.484885" lon="-5.437526">
        <ele>44.635</ele>
        <time>2022-08-27T10:03:44Z</time>
      </trkpt>
      <trkpt lat="43.484967" lon="-5.437434">
        <ele>44.789</ele>
        <time>2022-08-27T10:03:46Z</time>
      </trkpt>
      <trkpt lat="43.485040" lon="-5.437341">
        <ele>44.986</ele>
        <time>2022-08-27T10:03:48Z</time>
      </trkpt>
      <trkpt lat="43.485072" lon="-5.437289">
        <ele>45.223</ele>
        <time>2022-08-27T10:03:49Z</time>
      </trkpt>
      <trkpt lat="43.485105" lon="-5.437234">
        <ele>45.634</ele>
        <time>2022-08-27T10:03:50Z</time>
      </trkpt>
      <trkpt lat="43.485168" lon="-5.437127">
        <ele>46.255</ele>
        <time>2022-08-27T10:03:52Z</time>
      </trkpt>
      <trkpt lat="43.485201" lon="-5.437075">
        <ele>46.310</ele>
        <time>2022-08-27T10:03:53Z</time>
      </trkpt>
      <trkpt lat="43.485234" lon="-5.437023">
        <ele>46.309</ele>
        <time>2022-08-27T10:03:54Z</time>
      </trkpt>
      <trkpt lat="43.485299" lon="-5.436915">
        <ele>46.424</ele>
        <time>2022-08-27T10:03:56Z</time>
      </trkpt>
      <trkpt lat="43.485351" lon="-5.436803">
        <ele>46.644</ele>
        <time>2022-08-27T10:03:58Z</time>
      </trkpt>
      <trkpt lat="43.485389" lon="-5.436680">
        <ele>46.745</ele>
        <time>2022-08-27T10:04:00Z</time>
      </trkpt>
      <trkpt lat="43.485421" lon="-5.436545">
        <ele>47.083</ele>
        <time>2022-08-27T10:04:02Z</time>
      </trkpt>
      <trkpt lat="43.485439" lon="-5.436412">
        <ele>47.623</ele>
        <time>2022-08-27T10:04:04Z</time>
      </trkpt>
      <trkpt lat="43.485474" lon="-5.436290">
        <ele>47.869</ele>
        <time>2022-08-27T10:04:06Z</time>
      </trkpt>
      <trkpt lat="43.485507" lon="-5.436243">
        <ele>47.893</ele>
        <time>2022-08-27T10:04:07Z</time>
      </trkpt>
      <trkpt lat="43.485547" lon="-5.436211">
        <ele>47.710</ele>
        <time>2022-08-27T10:04:08Z</time>
      </trkpt>
      <trkpt lat="43.485630" lon="-5.436156">
        <ele>47.197</ele>
        <time>2022-08-27T10:04:10Z</time>
      </trkpt>
      <trkpt lat="43.485687" lon="-5.436059">
        <ele>47.178</ele>
        <time>2022-08-27T10:04:12Z</time>
      </trkpt>
      <trkpt lat="43.485700" lon="-5.435999">
        <ele>47.033</ele>
        <time>2022-08-27T10:04:13Z</time>
      </trkpt>
      <trkpt lat="43.485712" lon="-5.435937">
        <ele>47.126</ele>
        <time>2022-08-27T10:04:14Z</time>
      </trkpt>
      <trkpt lat="43.485737" lon="-5.435819">
        <ele>47.409</ele>
        <time>2022-08-27T10:04:16Z</time>
      </trkpt>
      <trkpt lat="43.485769" lon="-5.435712">
        <ele>47.828</ele>
        <time>2022-08-27T10:04:18Z</time>
      </trkpt>
      <trkpt lat="43.485797" lon="-5.435610">
        <ele>47.828</ele>
        <time>2022-08-27T10:04:20Z</time>
      </trkpt>
      <trkpt lat="43.485819" lon="-5.435510">
        <ele>47.899</ele>
        <time>2022-08-27T10:04:22Z</time>
      </trkpt>
      <trkpt lat="43.485844" lon="-5.435405">
        <ele>47.137</ele>
        <time>2022-08-27T10:04:24Z</time>
      </trkpt>
      <trkpt lat="43.485854" lon="-5.435297">
        <ele>46.867</ele>
        <time>2022-08-27T10:04:26Z</time>
      </trkpt>
      <trkpt lat="43.485869" lon="-5.435185">
        <ele>46.673</ele>
        <time>2022-08-27T10:04:28Z</time>
      </trkpt>
      <trkpt lat="43.485884" lon="-5.435068">
        <ele>46.497</ele>
        <time>2022-08-27T10:04:30Z</time>
      </trkpt>
      <trkpt lat="43.485902" lon="-5.434948">
        <ele>46.394</ele>
        <time>2022-08-27T10:04:32Z</time>
      </trkpt>
      <trkpt lat="43.485919" lon="-5.434825">
        <ele>46.361</ele>
        <time>2022-08-27T10:04:34Z</time>
      </trkpt>
      <trkpt lat="43.485927" lon="-5.434705">
        <ele>46.552</ele>
        <time>2022-08-27T10:04:36Z</time>
      </trkpt>
      <trkpt lat="43.485930" lon="-5.434587">
        <ele>46.553</ele>
        <time>2022-08-27T10:04:38Z</time>
      </trkpt>
      <trkpt lat="43.485935" lon="-5.434470">
        <ele>46.508</ele>
        <time>2022-08-27T10:04:40Z</time>
      </trkpt>
      <trkpt lat="43.485932" lon="-5.434348">
        <ele>46.409</ele>
        <time>2022-08-27T10:04:42Z</time>
      </trkpt>
      <trkpt lat="43.485930" lon="-5.434225">
        <ele>46.476</ele>
        <time>2022-08-27T10:04:44Z</time>
      </trkpt>
      <trkpt lat="43.485925" lon="-5.434097">
        <ele>45.966</ele>
        <time>2022-08-27T10:04:46Z</time>
      </trkpt>
      <trkpt lat="43.485920" lon="-5.434035">
        <ele>45.447</ele>
        <time>2022-08-27T10:04:47Z</time>
      </trkpt>
      <trkpt lat="43.485912" lon="-5.433905">
        <ele>45.035</ele>
        <time>2022-08-27T10:04:49Z</time>
      </trkpt>
      <trkpt lat="43.485910" lon="-5.433763">
        <ele>44.485</ele>
        <time>2022-08-27T10:04:51Z</time>
      </trkpt>
      <trkpt lat="43.485897" lon="-5.433626">
        <ele>44.431</ele>
        <time>2022-08-27T10:04:53Z</time>
      </trkpt>
      <trkpt lat="43.485890" lon="-5.433559">
        <ele>44.345</ele>
        <time>2022-08-27T10:04:54Z</time>
      </trkpt>
      <trkpt lat="43.485872" lon="-5.433422">
        <ele>44.172</ele>
        <time>2022-08-27T10:04:56Z</time>
      </trkpt>
      <trkpt lat="43.485852" lon="-5.433280">
        <ele>44.089</ele>
        <time>2022-08-27T10:04:58Z</time>
      </trkpt>
      <trkpt lat="43.485834" lon="-5.433142">
        <ele>44.012</ele>
        <time>2022-08-27T10:05:00Z</time>
      </trkpt>
      <trkpt lat="43.485806" lon="-5.433010">
        <ele>44.532</ele>
        <time>2022-08-27T10:05:02Z</time>
      </trkpt>
      <trkpt lat="43.485786" lon="-5.432878">
        <ele>44.905</ele>
        <time>2022-08-27T10:05:04Z</time>
      </trkpt>
      <trkpt lat="43.485758" lon="-5.432751">
        <ele>46.109</ele>
        <time>2022-08-27T10:05:06Z</time>
      </trkpt>
      <trkpt lat="43.485721" lon="-5.432621">
        <ele>47.052</ele>
        <time>2022-08-27T10:05:08Z</time>
      </trkpt>
      <trkpt lat="43.485704" lon="-5.432558">
        <ele>47.462</ele>
        <time>2022-08-27T10:05:09Z</time>
      </trkpt>
      <trkpt lat="43.485684" lon="-5.432495">
        <ele>47.623</ele>
        <time>2022-08-27T10:05:10Z</time>
      </trkpt>
      <trkpt lat="43.485646" lon="-5.432368">
        <ele>47.941</ele>
        <time>2022-08-27T10:05:12Z</time>
      </trkpt>
      <trkpt lat="43.485626" lon="-5.432306">
        <ele>47.981</ele>
        <time>2022-08-27T10:05:13Z</time>
      </trkpt>
      <trkpt lat="43.485588" lon="-5.432186">
        <ele>48.017</ele>
        <time>2022-08-27T10:05:15Z</time>
      </trkpt>
      <trkpt lat="43.485555" lon="-5.432076">
        <ele>48.261</ele>
        <time>2022-08-27T10:05:17Z</time>
      </trkpt>
      <trkpt lat="43.485513" lon="-5.432008">
        <ele>48.928</ele>
        <time>2022-08-27T10:05:19Z</time>
      </trkpt>
      <trkpt lat="43.485448" lon="-5.431931">
        <ele>49.425</ele>
        <time>2022-08-27T10:05:21Z</time>
      </trkpt>
      <trkpt lat="43.485355" lon="-5.431826">
        <ele>49.947</ele>
        <time>2022-08-27T10:05:22Z</time>
      </trkpt>
      <trkpt lat="43.485338" lon="-5.431751">
        <ele>64.929</ele>
        <time>2022-08-27T10:05:24Z</time>
      </trkpt>
      <trkpt lat="43.485283" lon="-5.431693">
        <ele>79.321</ele>
        <time>2022-08-27T10:05:26Z</time>
      </trkpt>
      <trkpt lat="43.485250" lon="-5.431618">
        <ele>78.509</ele>
        <time>2022-08-27T10:05:28Z</time>
      </trkpt>
      <trkpt lat="43.485220" lon="-5.431516">
        <ele>77.085</ele>
        <time>2022-08-27T10:05:29Z</time>
      </trkpt>
      <trkpt lat="43.485198" lon="-5.431428">
        <ele>67.735</ele>
        <time>2022-08-27T10:05:31Z</time>
      </trkpt>
      <trkpt lat="43.485161" lon="-5.431358">
        <ele>62.866</ele>
        <time>2022-08-27T10:05:34Z</time>
      </trkpt>
      <trkpt lat="43.485116" lon="-5.431288">
        <ele>59.884</ele>
        <time>2022-08-27T10:05:36Z</time>
      </trkpt>
      <trkpt lat="43.485071" lon="-5.431220">
        <ele>57.644</ele>
        <time>2022-08-27T10:05:38Z</time>
      </trkpt>
      <trkpt lat="43.485038" lon="-5.431158">
        <ele>55.780</ele>
        <time>2022-08-27T10:05:40Z</time>
      </trkpt>
      <trkpt lat="43.485008" lon="-5.431101">
        <ele>54.984</ele>
        <time>2022-08-27T10:05:42Z</time>
      </trkpt>
      <trkpt lat="43.484973" lon="-5.431049">
        <ele>54.711</ele>
        <time>2022-08-27T10:05:44Z</time>
      </trkpt>
      <trkpt lat="43.484936" lon="-5.431002">
        <ele>54.678</ele>
        <time>2022-08-27T10:05:46Z</time>
      </trkpt>
      <trkpt lat="43.484911" lon="-5.430939">
        <ele>54.685</ele>
        <time>2022-08-27T10:05:48Z</time>
      </trkpt>
      <trkpt lat="43.484869" lon="-5.430881">
        <ele>54.689</ele>
        <time>2022-08-27T10:05:50Z</time>
      </trkpt>
      <trkpt lat="43.484817" lon="-5.430821">
        <ele>54.417</ele>
        <time>2022-08-27T10:05:52Z</time>
      </trkpt>
      <trkpt lat="43.484775" lon="-5.430748">
        <ele>54.309</ele>
        <time>2022-08-27T10:05:54Z</time>
      </trkpt>
      <trkpt lat="43.484737" lon="-5.430665">
        <ele>54.369</ele>
        <time>2022-08-27T10:05:56Z</time>
      </trkpt>
      <trkpt lat="43.484704" lon="-5.430590">
        <ele>54.849</ele>
        <time>2022-08-27T10:05:58Z</time>
      </trkpt>
      <trkpt lat="43.484662" lon="-5.430513">
        <ele>55.480</ele>
        <time>2022-08-27T10:06:00Z</time>
      </trkpt>
      <trkpt lat="43.484630" lon="-5.430451">
        <ele>55.588</ele>
        <time>2022-08-27T10:06:02Z</time>
      </trkpt>
      <trkpt lat="43.484593" lon="-5.430379">
        <ele>55.968</ele>
        <time>2022-08-27T10:06:04Z</time>
      </trkpt>
      <trkpt lat="43.484556" lon="-5.430307">
        <ele>56.034</ele>
        <time>2022-08-27T10:06:06Z</time>
      </trkpt>
      <trkpt lat="43.484511" lon="-5.430247">
        <ele>56.098</ele>
        <time>2022-08-27T10:06:08Z</time>
      </trkpt>
      <trkpt lat="43.484478" lon="-5.430189">
        <ele>55.995</ele>
        <time>2022-08-27T10:06:10Z</time>
      </trkpt>
      <trkpt lat="43.484461" lon="-5.430126">
        <ele>55.982</ele>
        <time>2022-08-27T10:06:12Z</time>
      </trkpt>
      <trkpt lat="43.484473" lon="-5.430058">
        <ele>55.982</ele>
        <time>2022-08-27T10:06:13Z</time>
      </trkpt>
      <trkpt lat="43.484520" lon="-5.430006">
        <ele>55.943</ele>
        <time>2022-08-27T10:06:16Z</time>
      </trkpt>
      <trkpt lat="43.484572" lon="-5.429956">
        <ele>55.917</ele>
        <time>2022-08-27T10:06:18Z</time>
      </trkpt>
      <trkpt lat="43.484625" lon="-5.429899">
        <ele>56.009</ele>
        <time>2022-08-27T10:06:20Z</time>
      </trkpt>
      <trkpt lat="43.484682" lon="-5.429841">
        <ele>56.169</ele>
        <time>2022-08-27T10:06:22Z</time>
      </trkpt>
      <trkpt lat="43.484737" lon="-5.429783">
        <ele>56.159</ele>
        <time>2022-08-27T10:06:24Z</time>
      </trkpt>
      <trkpt lat="43.484795" lon="-5.429725">
        <ele>56.120</ele>
        <time>2022-08-27T10:06:26Z</time>
      </trkpt>
      <trkpt lat="43.484857" lon="-5.429663">
        <ele>55.738</ele>
        <time>2022-08-27T10:06:28Z</time>
      </trkpt>
      <trkpt lat="43.484914" lon="-5.429600">
        <ele>55.638</ele>
        <time>2022-08-27T10:06:30Z</time>
      </trkpt>
      <trkpt lat="43.484976" lon="-5.429530">
        <ele>55.624</ele>
        <time>2022-08-27T10:06:32Z</time>
      </trkpt>
      <trkpt lat="43.485043" lon="-5.429460">
        <ele>55.738</ele>
        <time>2022-08-27T10:06:34Z</time>
      </trkpt>
      <trkpt lat="43.485106" lon="-5.429387">
        <ele>55.785</ele>
        <time>2022-08-27T10:06:36Z</time>
      </trkpt>
      <trkpt lat="43.485171" lon="-5.429312">
        <ele>55.792</ele>
        <time>2022-08-27T10:06:38Z</time>
      </trkpt>
      <trkpt lat="43.485234" lon="-5.429239">
        <ele>55.622</ele>
        <time>2022-08-27T10:06:40Z</time>
      </trkpt>
      <trkpt lat="43.485297" lon="-5.429166">
        <ele>55.562</ele>
        <time>2022-08-27T10:06:42Z</time>
      </trkpt>
      <trkpt lat="43.485357" lon="-5.429093">
        <ele>55.108</ele>
        <time>2022-08-27T10:06:44Z</time>
      </trkpt>
      <trkpt lat="43.485422" lon="-5.429021">
        <ele>54.809</ele>
        <time>2022-08-27T10:06:46Z</time>
      </trkpt>
      <trkpt lat="43.485489" lon="-5.428948">
        <ele>54.643</ele>
        <time>2022-08-27T10:06:48Z</time>
      </trkpt>
      <trkpt lat="43.485546" lon="-5.428868">
        <ele>54.593</ele>
        <time>2022-08-27T10:06:50Z</time>
      </trkpt>
      <trkpt lat="43.485604" lon="-5.428796">
        <ele>54.464</ele>
        <time>2022-08-27T10:06:52Z</time>
      </trkpt>
      <trkpt lat="43.485662" lon="-5.428719">
        <ele>54.482</ele>
        <time>2022-08-27T10:06:54Z</time>
      </trkpt>
      <trkpt lat="43.485719" lon="-5.428649">
        <ele>54.962</ele>
        <time>2022-08-27T10:06:56Z</time>
      </trkpt>
      <trkpt lat="43.485764" lon="-5.428587">
        <ele>56.718</ele>
        <time>2022-08-27T10:06:58Z</time>
      </trkpt>
      <trkpt lat="43.485737" lon="-5.428534">
        <ele>56.952</ele>
        <time>2022-08-27T10:11:54Z</time>
      </trkpt>
      <trkpt lat="43.485629" lon="-5.428661">
        <ele>56.999</ele>
        <time>2022-08-27T10:12:16Z</time>
      </trkpt>
      <trkpt lat="43.485762" lon="-5.428483">
        <ele>94.676</ele>
        <time>2022-08-27T10:13:41Z</time>
      </trkpt>
      <trkpt lat="43.485807" lon="-5.428468">
        <ele>88.058</ele>
        <time>2022-08-27T10:13:52Z</time>
      </trkpt>
      <trkpt lat="43.485872" lon="-5.428410">
        <ele>88.052</ele>
        <time>2022-08-27T10:13:56Z</time>
      </trkpt>
      <trkpt lat="43.485925" lon="-5.428367">
        <ele>84.917</ele>
        <time>2022-08-27T10:13:59Z</time>
      </trkpt>
      <trkpt lat="43.485977" lon="-5.428315">
        <ele>73.609</ele>
        <time>2022-08-27T10:14:01Z</time>
      </trkpt>
      <trkpt lat="43.486029" lon="-5.428257">
        <ele>68.176</ele>
        <time>2022-08-27T10:14:03Z</time>
      </trkpt>
      <trkpt lat="43.486081" lon="-5.428197">
        <ele>66.536</ele>
        <time>2022-08-27T10:14:06Z</time>
      </trkpt>
      <trkpt lat="43.486133" lon="-5.428140">
        <ele>65.827</ele>
        <time>2022-08-27T10:14:08Z</time>
      </trkpt>
      <trkpt lat="43.486185" lon="-5.428077">
        <ele>65.395</ele>
        <time>2022-08-27T10:14:10Z</time>
      </trkpt>
      <trkpt lat="43.486242" lon="-5.428017">
        <ele>64.965</ele>
        <time>2022-08-27T10:14:12Z</time>
      </trkpt>
      <trkpt lat="43.486295" lon="-5.427967">
        <ele>64.741</ele>
        <time>2022-08-27T10:14:14Z</time>
      </trkpt>
      <trkpt lat="43.486352" lon="-5.427905">
        <ele>64.525</ele>
        <time>2022-08-27T10:14:16Z</time>
      </trkpt>
      <trkpt lat="43.486410" lon="-5.427847">
        <ele>63.642</ele>
        <time>2022-08-27T10:14:18Z</time>
      </trkpt>
      <trkpt lat="43.486458" lon="-5.427802">
        <ele>63.269</ele>
        <time>2022-08-27T10:14:19Z</time>
      </trkpt>
      <trkpt lat="43.486518" lon="-5.427745">
        <ele>62.623</ele>
        <time>2022-08-27T10:14:21Z</time>
      </trkpt>
      <trkpt lat="43.486575" lon="-5.427683">
        <ele>61.183</ele>
        <time>2022-08-27T10:14:23Z</time>
      </trkpt>
      <trkpt lat="43.486627" lon="-5.427615">
        <ele>61.111</ele>
        <time>2022-08-27T10:14:25Z</time>
      </trkpt>
      <trkpt lat="43.486684" lon="-5.427543">
        <ele>60.609</ele>
        <time>2022-08-27T10:14:27Z</time>
      </trkpt>
      <trkpt lat="43.486759" lon="-5.427465">
        <ele>59.643</ele>
        <time>2022-08-27T10:14:29Z</time>
      </trkpt>
      <trkpt lat="43.486821" lon="-5.427400">
        <ele>59.183</ele>
        <time>2022-08-27T10:14:31Z</time>
      </trkpt>
      <trkpt lat="43.486883" lon="-5.427335">
        <ele>58.374</ele>
        <time>2022-08-27T10:14:33Z</time>
      </trkpt>
      <trkpt lat="43.486935" lon="-5.427277">
        <ele>58.262</ele>
        <time>2022-08-27T10:14:35Z</time>
      </trkpt>
      <trkpt lat="43.486987" lon="-5.427217">
        <ele>57.872</ele>
        <time>2022-08-27T10:14:37Z</time>
      </trkpt>
      <trkpt lat="43.487047" lon="-5.427150">
        <ele>57.548</ele>
        <time>2022-08-27T10:14:39Z</time>
      </trkpt>
      <trkpt lat="43.487109" lon="-5.427080">
        <ele>57.582</ele>
        <time>2022-08-27T10:14:41Z</time>
      </trkpt>
      <trkpt lat="43.487167" lon="-5.427013">
        <ele>57.599</ele>
        <time>2022-08-27T10:14:43Z</time>
      </trkpt>
      <trkpt lat="43.487225" lon="-5.426945">
        <ele>57.586</ele>
        <time>2022-08-27T10:14:45Z</time>
      </trkpt>
      <trkpt lat="43.487283" lon="-5.426887">
        <ele>57.448</ele>
        <time>2022-08-27T10:14:47Z</time>
      </trkpt>
      <trkpt lat="43.487341" lon="-5.426820">
        <ele>57.061</ele>
        <time>2022-08-27T10:14:49Z</time>
      </trkpt>
      <trkpt lat="43.487404" lon="-5.426745">
        <ele>56.717</ele>
        <time>2022-08-27T10:14:50Z</time>
      </trkpt>
      <trkpt lat="43.487474" lon="-5.426672">
        <ele>56.609</ele>
        <time>2022-08-27T10:14:53Z</time>
      </trkpt>
      <trkpt lat="43.487542" lon="-5.426599">
        <ele>56.645</ele>
        <time>2022-08-27T10:14:55Z</time>
      </trkpt>
      <trkpt lat="43.487614" lon="-5.426529">
        <ele>56.395</ele>
        <time>2022-08-27T10:14:57Z</time>
      </trkpt>
      <trkpt lat="43.487686" lon="-5.426456">
        <ele>54.976</ele>
        <time>2022-08-27T10:14:59Z</time>
      </trkpt>
      <trkpt lat="43.487723" lon="-5.426416">
        <ele>54.664</ele>
        <time>2022-08-27T10:15:00Z</time>
      </trkpt>
      <trkpt lat="43.487796" lon="-5.426339">
        <ele>53.214</ele>
        <time>2022-08-27T10:15:02Z</time>
      </trkpt>
      <trkpt lat="43.487833" lon="-5.426301">
        <ele>52.510</ele>
        <time>2022-08-27T10:15:03Z</time>
      </trkpt>
      <trkpt lat="43.487908" lon="-5.426216">
        <ele>51.384</ele>
        <time>2022-08-27T10:15:05Z</time>
      </trkpt>
      <trkpt lat="43.487985" lon="-5.426139">
        <ele>50.781</ele>
        <time>2022-08-27T10:15:07Z</time>
      </trkpt>
      <trkpt lat="43.488023" lon="-5.426097">
        <ele>50.328</ele>
        <time>2022-08-27T10:15:08Z</time>
      </trkpt>
      <trkpt lat="43.488063" lon="-5.426055">
        <ele>49.922</ele>
        <time>2022-08-27T10:15:09Z</time>
      </trkpt>
      <trkpt lat="43.488106" lon="-5.426015">
        <ele>49.762</ele>
        <time>2022-08-27T10:15:10Z</time>
      </trkpt>
      <trkpt lat="43.488191" lon="-5.425935">
        <ele>49.308</ele>
        <time>2022-08-27T10:15:12Z</time>
      </trkpt>
      <trkpt lat="43.488233" lon="-5.425893">
        <ele>49.109</ele>
        <time>2022-08-27T10:15:13Z</time>
      </trkpt>
      <trkpt lat="43.488320" lon="-5.425811">
        <ele>48.723</ele>
        <time>2022-08-27T10:15:15Z</time>
      </trkpt>
      <trkpt lat="43.488363" lon="-5.425771">
        <ele>48.363</ele>
        <time>2022-08-27T10:15:16Z</time>
      </trkpt>
      <trkpt lat="43.488445" lon="-5.425696">
        <ele>47.824</ele>
        <time>2022-08-27T10:15:18Z</time>
      </trkpt>
      <trkpt lat="43.488533" lon="-5.425614">
        <ele>47.732</ele>
        <time>2022-08-27T10:15:20Z</time>
      </trkpt>
      <trkpt lat="43.488621" lon="-5.425511">
        <ele>47.722</ele>
        <time>2022-08-27T10:15:22Z</time>
      </trkpt>
      <trkpt lat="43.488713" lon="-5.425418">
        <ele>47.658</ele>
        <time>2022-08-27T10:15:24Z</time>
      </trkpt>
      <trkpt lat="43.488751" lon="-5.425366">
        <ele>47.692</ele>
        <time>2022-08-27T10:15:25Z</time>
      </trkpt>
      <trkpt lat="43.488788" lon="-5.425311">
        <ele>47.639</ele>
        <time>2022-08-27T10:15:26Z</time>
      </trkpt>
      <trkpt lat="43.488873" lon="-5.425188">
        <ele>47.616</ele>
        <time>2022-08-27T10:15:28Z</time>
      </trkpt>
      <trkpt lat="43.488958" lon="-5.425081">
        <ele>47.473</ele>
        <time>2022-08-27T10:15:30Z</time>
      </trkpt>
      <trkpt lat="43.489050" lon="-5.425003">
        <ele>47.585</ele>
        <time>2022-08-27T10:15:32Z</time>
      </trkpt>
      <trkpt lat="43.489112" lon="-5.424976">
        <ele>47.513</ele>
        <time>2022-08-27T10:15:33Z</time>
      </trkpt>
      <trkpt lat="43.489174" lon="-5.424953">
        <ele>47.609</ele>
        <time>2022-08-27T10:15:34Z</time>
      </trkpt>
      <trkpt lat="43.489232" lon="-5.424940">
        <ele>47.658</ele>
        <time>2022-08-27T10:15:35Z</time>
      </trkpt>
      <trkpt lat="43.489295" lon="-5.424928">
        <ele>47.648</ele>
        <time>2022-08-27T10:15:36Z</time>
      </trkpt>
      <trkpt lat="43.489422" lon="-5.424906">
        <ele>47.759</ele>
        <time>2022-08-27T10:15:38Z</time>
      </trkpt>
      <trkpt lat="43.489484" lon="-5.424896">
        <ele>48.267</ele>
        <time>2022-08-27T10:15:39Z</time>
      </trkpt>
      <trkpt lat="43.489546" lon="-5.424886">
        <ele>48.527</ele>
        <time>2022-08-27T10:15:40Z</time>
      </trkpt>
      <trkpt lat="43.489668" lon="-5.424858">
        <ele>48.743</ele>
        <time>2022-08-27T10:15:42Z</time>
      </trkpt>
      <trkpt lat="43.489788" lon="-5.424821">
        <ele>48.577</ele>
        <time>2022-08-27T10:15:44Z</time>
      </trkpt>
      <trkpt lat="43.489850" lon="-5.424801">
        <ele>48.094</ele>
        <time>2022-08-27T10:15:45Z</time>
      </trkpt>
      <trkpt lat="43.489973" lon="-5.424756">
        <ele>47.251</ele>
        <time>2022-08-27T10:15:47Z</time>
      </trkpt>
      <trkpt lat="43.490040" lon="-5.424734">
        <ele>46.632</ele>
        <time>2022-08-27T10:15:48Z</time>
      </trkpt>
      <trkpt lat="43.490173" lon="-5.424686">
        <ele>46.492</ele>
        <time>2022-08-27T10:15:50Z</time>
      </trkpt>
      <trkpt lat="43.490240" lon="-5.424663">
        <ele>46.311</ele>
        <time>2022-08-27T10:15:51Z</time>
      </trkpt>
      <trkpt lat="43.490307" lon="-5.424638">
        <ele>46.009</ele>
        <time>2022-08-27T10:15:52Z</time>
      </trkpt>
      <trkpt lat="43.490372" lon="-5.424616">
        <ele>45.714</ele>
        <time>2022-08-27T10:15:53Z</time>
      </trkpt>
      <trkpt lat="43.490509" lon="-5.424569">
        <ele>45.034</ele>
        <time>2022-08-27T10:15:55Z</time>
      </trkpt>
      <trkpt lat="43.490579" lon="-5.424546">
        <ele>44.875</ele>
        <time>2022-08-27T10:15:56Z</time>
      </trkpt>
      <trkpt lat="43.490726" lon="-5.424496">
        <ele>43.933</ele>
        <time>2022-08-27T10:15:58Z</time>
      </trkpt>
      <trkpt lat="43.490866" lon="-5.424446">
        <ele>43.373</ele>
        <time>2022-08-27T10:16:00Z</time>
      </trkpt>
      <trkpt lat="43.490938" lon="-5.424423">
        <ele>42.759</ele>
        <time>2022-08-27T10:16:01Z</time>
      </trkpt>
      <trkpt lat="43.491011" lon="-5.424396">
        <ele>42.253</ele>
        <time>2022-08-27T10:16:02Z</time>
      </trkpt>
      <trkpt lat="43.491084" lon="-5.424368">
        <ele>41.850</ele>
        <time>2022-08-27T10:16:03Z</time>
      </trkpt>
      <trkpt lat="43.491232" lon="-5.424316">
        <ele>40.977</ele>
        <time>2022-08-27T10:16:05Z</time>
      </trkpt>
      <trkpt lat="43.491305" lon="-5.424289">
        <ele>40.556</ele>
        <time>2022-08-27T10:16:06Z</time>
      </trkpt>
      <trkpt lat="43.491380" lon="-5.424261">
        <ele>40.159</ele>
        <time>2022-08-27T10:16:07Z</time>
      </trkpt>
      <trkpt lat="43.491523" lon="-5.424208">
        <ele>39.814</ele>
        <time>2022-08-27T10:16:09Z</time>
      </trkpt>
      <trkpt lat="43.491595" lon="-5.424180">
        <ele>39.309</ele>
        <time>2022-08-27T10:16:10Z</time>
      </trkpt>
      <trkpt lat="43.491737" lon="-5.424123">
        <ele>38.646</ele>
        <time>2022-08-27T10:16:12Z</time>
      </trkpt>
      <trkpt lat="43.491877" lon="-5.424080">
        <ele>38.366</ele>
        <time>2022-08-27T10:16:14Z</time>
      </trkpt>
      <trkpt lat="43.491947" lon="-5.424057">
        <ele>38.277</ele>
        <time>2022-08-27T10:16:15Z</time>
      </trkpt>
      <trkpt lat="43.492075" lon="-5.424010">
        <ele>38.095</ele>
        <time>2022-08-27T10:16:17Z</time>
      </trkpt>
      <trkpt lat="43.492142" lon="-5.423987">
        <ele>37.715</ele>
        <time>2022-08-27T10:16:18Z</time>
      </trkpt>
      <trkpt lat="43.492267" lon="-5.423945">
        <ele>37.341</ele>
        <time>2022-08-27T10:16:20Z</time>
      </trkpt>
      <trkpt lat="43.492395" lon="-5.423898">
        <ele>37.335</ele>
        <time>2022-08-27T10:16:22Z</time>
      </trkpt>
      <trkpt lat="43.492522" lon="-5.423855">
        <ele>37.322</ele>
        <time>2022-08-27T10:16:24Z</time>
      </trkpt>
      <trkpt lat="43.492585" lon="-5.423830">
        <ele>37.099</ele>
        <time>2022-08-27T10:16:25Z</time>
      </trkpt>
      <trkpt lat="43.492710" lon="-5.423788">
        <ele>37.065</ele>
        <time>2022-08-27T10:16:27Z</time>
      </trkpt>
      <trkpt lat="43.492770" lon="-5.423770">
        <ele>36.968</ele>
        <time>2022-08-27T10:16:28Z</time>
      </trkpt>
      <trkpt lat="43.492887" lon="-5.423733">
        <ele>37.014</ele>
        <time>2022-08-27T10:16:30Z</time>
      </trkpt>
      <trkpt lat="43.492940" lon="-5.423715">
        <ele>37.009</ele>
        <time>2022-08-27T10:16:31Z</time>
      </trkpt>
      <trkpt lat="43.493048" lon="-5.423680">
        <ele>37.387</ele>
        <time>2022-08-27T10:16:33Z</time>
      </trkpt>
      <trkpt lat="43.493153" lon="-5.423645">
        <ele>37.387</ele>
        <time>2022-08-27T10:16:35Z</time>
      </trkpt>
      <trkpt lat="43.493205" lon="-5.423627">
        <ele>37.288</ele>
        <time>2022-08-27T10:16:36Z</time>
      </trkpt>
      <trkpt lat="43.493310" lon="-5.423592">
        <ele>36.626</ele>
        <time>2022-08-27T10:16:38Z</time>
      </trkpt>
      <trkpt lat="43.493418" lon="-5.423552">
        <ele>36.446</ele>
        <time>2022-08-27T10:16:40Z</time>
      </trkpt>
      <trkpt lat="43.493471" lon="-5.423532">
        <ele>36.362</ele>
        <time>2022-08-27T10:16:41Z</time>
      </trkpt>
      <trkpt lat="43.493573" lon="-5.423497">
        <ele>36.426</ele>
        <time>2022-08-27T10:16:43Z</time>
      </trkpt>
      <trkpt lat="43.493673" lon="-5.423462">
        <ele>36.463</ele>
        <time>2022-08-27T10:16:45Z</time>
      </trkpt>
      <trkpt lat="43.493725" lon="-5.423442">
        <ele>36.430</ele>
        <time>2022-08-27T10:16:46Z</time>
      </trkpt>
      <trkpt lat="43.493827" lon="-5.423402">
        <ele>36.525</ele>
        <time>2022-08-27T10:16:48Z</time>
      </trkpt>
      <trkpt lat="43.493930" lon="-5.423359">
        <ele>36.726</ele>
        <time>2022-08-27T10:16:50Z</time>
      </trkpt>
      <trkpt lat="43.493980" lon="-5.423341">
        <ele>36.808</ele>
        <time>2022-08-27T10:16:51Z</time>
      </trkpt>
      <trkpt lat="43.494077" lon="-5.423304">
        <ele>37.209</ele>
        <time>2022-08-27T10:16:53Z</time>
      </trkpt>
      <trkpt lat="43.494127" lon="-5.423284">
        <ele>37.433</ele>
        <time>2022-08-27T10:16:54Z</time>
      </trkpt>
      <trkpt lat="43.494177" lon="-5.423264">
        <ele>37.553</ele>
        <time>2022-08-27T10:16:55Z</time>
      </trkpt>
      <trkpt lat="43.494275" lon="-5.423222">
        <ele>37.584</ele>
        <time>2022-08-27T10:16:57Z</time>
      </trkpt>
      <trkpt lat="43.494323" lon="-5.423204">
        <ele>37.662</ele>
        <time>2022-08-27T10:16:58Z</time>
      </trkpt>
      <trkpt lat="43.494371" lon="-5.423187">
        <ele>37.832</ele>
        <time>2022-08-27T10:16:59Z</time>
      </trkpt>
      <trkpt lat="43.494419" lon="-5.423169">
        <ele>37.998</ele>
        <time>2022-08-27T10:17:00Z</time>
      </trkpt>
      <trkpt lat="43.494467" lon="-5.423152">
        <ele>38.092</ele>
        <time>2022-08-27T10:17:01Z</time>
      </trkpt>
      <trkpt lat="43.494567" lon="-5.423117">
        <ele>38.229</ele>
        <time>2022-08-27T10:17:03Z</time>
      </trkpt>
      <trkpt lat="43.494659" lon="-5.423082">
        <ele>38.646</ele>
        <time>2022-08-27T10:17:05Z</time>
      </trkpt>
      <trkpt lat="43.494704" lon="-5.423065">
        <ele>38.854</ele>
        <time>2022-08-27T10:17:06Z</time>
      </trkpt>
      <trkpt lat="43.494749" lon="-5.423048">
        <ele>38.956</ele>
        <time>2022-08-27T10:17:07Z</time>
      </trkpt>
      <trkpt lat="43.494841" lon="-5.423015">
        <ele>39.411</ele>
        <time>2022-08-27T10:17:09Z</time>
      </trkpt>
      <trkpt lat="43.494938" lon="-5.422980">
        <ele>39.709</ele>
        <time>2022-08-27T10:17:11Z</time>
      </trkpt>
      <trkpt lat="43.494988" lon="-5.422965">
        <ele>39.826</ele>
        <time>2022-08-27T10:17:12Z</time>
      </trkpt>
      <trkpt lat="43.495088" lon="-5.422932">
        <ele>40.186</ele>
        <time>2022-08-27T10:17:14Z</time>
      </trkpt>
      <trkpt lat="43.495136" lon="-5.422915">
        <ele>40.137</ele>
        <time>2022-08-27T10:17:15Z</time>
      </trkpt>
      <trkpt lat="43.495229" lon="-5.422882">
        <ele>40.175</ele>
        <time>2022-08-27T10:17:17Z</time>
      </trkpt>
      <trkpt lat="43.495281" lon="-5.422864">
        <ele>40.075</ele>
        <time>2022-08-27T10:17:18Z</time>
      </trkpt>
      <trkpt lat="43.495331" lon="-5.422846">
        <ele>39.911</ele>
        <time>2022-08-27T10:17:19Z</time>
      </trkpt>
      <trkpt lat="43.495379" lon="-5.422831">
        <ele>39.765</ele>
        <time>2022-08-27T10:17:20Z</time>
      </trkpt>
      <trkpt lat="43.495479" lon="-5.422803">
        <ele>38.982</ele>
        <time>2022-08-27T10:17:22Z</time>
      </trkpt>
      <trkpt lat="43.495582" lon="-5.422766">
        <ele>38.899</ele>
        <time>2022-08-27T10:17:24Z</time>
      </trkpt>
      <trkpt lat="43.495629" lon="-5.422748">
        <ele>38.766</ele>
        <time>2022-08-27T10:17:25Z</time>
      </trkpt>
      <trkpt lat="43.495677" lon="-5.422731">
        <ele>38.629</ele>
        <time>2022-08-27T10:17:26Z</time>
      </trkpt>
      <trkpt lat="43.495775" lon="-5.422696">
        <ele>38.021</ele>
        <time>2022-08-27T10:17:28Z</time>
      </trkpt>
      <trkpt lat="43.495825" lon="-5.422681">
        <ele>38.009</ele>
        <time>2022-08-27T10:17:29Z</time>
      </trkpt>
      <trkpt lat="43.495925" lon="-5.422644">
        <ele>38.027</ele>
        <time>2022-08-27T10:17:31Z</time>
      </trkpt>
      <trkpt lat="43.496018" lon="-5.422607">
        <ele>38.367</ele>
        <time>2022-08-27T10:17:33Z</time>
      </trkpt>
      <trkpt lat="43.496066" lon="-5.422589">
        <ele>38.618</ele>
        <time>2022-08-27T10:17:34Z</time>
      </trkpt>
      <trkpt lat="43.496164" lon="-5.422554">
        <ele>39.286</ele>
        <time>2022-08-27T10:17:36Z</time>
      </trkpt>
      <trkpt lat="43.496214" lon="-5.422534">
        <ele>39.456</ele>
        <time>2022-08-27T10:17:37Z</time>
      </trkpt>
      <trkpt lat="43.496311" lon="-5.422494">
        <ele>39.922</ele>
        <time>2022-08-27T10:17:39Z</time>
      </trkpt>
      <trkpt lat="43.496403" lon="-5.422456">
        <ele>40.816</ele>
        <time>2022-08-27T10:17:41Z</time>
      </trkpt>
      <trkpt lat="43.496493" lon="-5.422418">
        <ele>41.493</ele>
        <time>2022-08-27T10:17:43Z</time>
      </trkpt>
      <trkpt lat="43.496538" lon="-5.422400">
        <ele>41.620</ele>
        <time>2022-08-27T10:17:44Z</time>
      </trkpt>
      <trkpt lat="43.496581" lon="-5.422383">
        <ele>41.954</ele>
        <time>2022-08-27T10:17:45Z</time>
      </trkpt>
      <trkpt lat="43.496671" lon="-5.422348">
        <ele>42.456</ele>
        <time>2022-08-27T10:17:47Z</time>
      </trkpt>
      <trkpt lat="43.496713" lon="-5.422323">
        <ele>42.711</ele>
        <time>2022-08-27T10:17:48Z</time>
      </trkpt>
      <trkpt lat="43.496793" lon="-5.422275">
        <ele>43.209</ele>
        <time>2022-08-27T10:17:50Z</time>
      </trkpt>
      <trkpt lat="43.496873" lon="-5.422222">
        <ele>44.036</ele>
        <time>2022-08-27T10:17:52Z</time>
      </trkpt>
      <trkpt lat="43.496953" lon="-5.422174">
        <ele>44.276</ele>
        <time>2022-08-27T10:17:54Z</time>
      </trkpt>
      <trkpt lat="43.497031" lon="-5.422112">
        <ele>44.937</ele>
        <time>2022-08-27T10:17:56Z</time>
      </trkpt>
      <trkpt lat="43.497103" lon="-5.422047">
        <ele>44.925</ele>
        <time>2022-08-27T10:17:58Z</time>
      </trkpt>
      <trkpt lat="43.497178" lon="-5.421985">
        <ele>44.835</ele>
        <time>2022-08-27T10:18:00Z</time>
      </trkpt>
      <trkpt lat="43.497251" lon="-5.421905">
        <ele>44.431</ele>
        <time>2022-08-27T10:18:02Z</time>
      </trkpt>
      <trkpt lat="43.497331" lon="-5.421818">
        <ele>43.815</ele>
        <time>2022-08-27T10:18:04Z</time>
      </trkpt>
      <trkpt lat="43.497371" lon="-5.421776">
        <ele>43.382</ele>
        <time>2022-08-27T10:18:05Z</time>
      </trkpt>
      <trkpt lat="43.497456" lon="-5.421701">
        <ele>43.069</ele>
        <time>2022-08-27T10:18:07Z</time>
      </trkpt>
      <trkpt lat="43.497549" lon="-5.421633">
        <ele>42.918</ele>
        <time>2022-08-27T10:18:09Z</time>
      </trkpt>
      <trkpt lat="43.497642" lon="-5.421553">
        <ele>43.298</ele>
        <time>2022-08-27T10:18:11Z</time>
      </trkpt>
      <trkpt lat="43.497725" lon="-5.421465">
        <ele>44.017</ele>
        <time>2022-08-27T10:18:13Z</time>
      </trkpt>
      <trkpt lat="43.497795" lon="-5.421368">
        <ele>44.309</ele>
        <time>2022-08-27T10:18:15Z</time>
      </trkpt>
      <trkpt lat="43.497833" lon="-5.421318">
        <ele>44.442</ele>
        <time>2022-08-27T10:18:16Z</time>
      </trkpt>
      <trkpt lat="43.497908" lon="-5.421218">
        <ele>44.582</ele>
        <time>2022-08-27T10:18:18Z</time>
      </trkpt>
      <trkpt lat="43.497938" lon="-5.421166">
        <ele>44.753</ele>
        <time>2022-08-27T10:18:19Z</time>
      </trkpt>
      <trkpt lat="43.498005" lon="-5.421059">
        <ele>45.281</ele>
        <time>2022-08-27T10:18:21Z</time>
      </trkpt>
      <trkpt lat="43.498035" lon="-5.421004">
        <ele>45.541</ele>
        <time>2022-08-27T10:18:22Z</time>
      </trkpt>
      <trkpt lat="43.498067" lon="-5.420947">
        <ele>45.917</ele>
        <time>2022-08-27T10:18:23Z</time>
      </trkpt>
      <trkpt lat="43.498135" lon="-5.420839">
        <ele>46.591</ele>
        <time>2022-08-27T10:18:25Z</time>
      </trkpt>
      <trkpt lat="43.498157" lon="-5.420781">
        <ele>46.718</ele>
        <time>2022-08-27T10:18:26Z</time>
      </trkpt>
      <trkpt lat="43.498217" lon="-5.420673">
        <ele>47.255</ele>
        <time>2022-08-27T10:18:28Z</time>
      </trkpt>
      <trkpt lat="43.498237" lon="-5.420615">
        <ele>47.524</ele>
        <time>2022-08-27T10:18:29Z</time>
      </trkpt>
      <trkpt lat="43.498254" lon="-5.420557">
        <ele>47.904</ele>
        <time>2022-08-27T10:18:30Z</time>
      </trkpt>
      <trkpt lat="43.498292" lon="-5.420447">
        <ele>48.214</ele>
        <time>2022-08-27T10:18:32Z</time>
      </trkpt>
      <trkpt lat="43.498325" lon="-5.420340">
        <ele>48.209</ele>
        <time>2022-08-27T10:18:34Z</time>
      </trkpt>
      <trkpt lat="43.498355" lon="-5.420228">
        <ele>48.123</ele>
        <time>2022-08-27T10:18:36Z</time>
      </trkpt>
      <trkpt lat="43.498378" lon="-5.420111">
        <ele>48.153</ele>
        <time>2022-08-27T10:18:38Z</time>
      </trkpt>
      <trkpt lat="43.498388" lon="-5.419994">
        <ele>48.584</ele>
        <time>2022-08-27T10:18:40Z</time>
      </trkpt>
      <trkpt lat="43.498381" lon="-5.419882">
        <ele>48.932</ele>
        <time>2022-08-27T10:18:42Z</time>
      </trkpt>
      <trkpt lat="43.498346" lon="-5.419774">
        <ele>49.132</ele>
        <time>2022-08-27T10:18:44Z</time>
      </trkpt>
      <trkpt lat="43.498326" lon="-5.419659">
        <ele>49.268</ele>
        <time>2022-08-27T10:18:46Z</time>
      </trkpt>
      <trkpt lat="43.498353" lon="-5.419556">
        <ele>49.482</ele>
        <time>2022-08-27T10:18:48Z</time>
      </trkpt>
      <trkpt lat="43.498415" lon="-5.419478">
        <ele>49.669</ele>
        <time>2022-08-27T10:18:50Z</time>
      </trkpt>
      <trkpt lat="43.498483" lon="-5.419450">
        <ele>50.026</ele>
        <time>2022-08-27T10:18:52Z</time>
      </trkpt>
      <trkpt lat="43.498561" lon="-5.419472">
        <ele>50.835</ele>
        <time>2022-08-27T10:18:54Z</time>
      </trkpt>
      <trkpt lat="43.498638" lon="-5.419500">
        <ele>51.186</ele>
        <time>2022-08-27T10:18:56Z</time>
      </trkpt>
      <trkpt lat="43.498720" lon="-5.419512">
        <ele>51.114</ele>
        <time>2022-08-27T10:18:58Z</time>
      </trkpt>
      <trkpt lat="43.498823" lon="-5.419460">
        <ele>50.709</ele>
        <time>2022-08-27T10:19:00Z</time>
      </trkpt>
      <trkpt lat="43.498878" lon="-5.419425">
        <ele>50.344</ele>
        <time>2022-08-27T10:19:01Z</time>
      </trkpt>
      <trkpt lat="43.498985" lon="-5.419347">
        <ele>49.214</ele>
        <time>2022-08-27T10:19:03Z</time>
      </trkpt>
      <trkpt lat="43.499032" lon="-5.419299">
        <ele>49.085</ele>
        <time>2022-08-27T10:19:04Z</time>
      </trkpt>
      <trkpt lat="43.499124" lon="-5.419202">
        <ele>48.623</ele>
        <time>2022-08-27T10:19:06Z</time>
      </trkpt>
      <trkpt lat="43.499169" lon="-5.419150">
        <ele>48.453</ele>
        <time>2022-08-27T10:19:07Z</time>
      </trkpt>
      <trkpt lat="43.499261" lon="-5.419043">
        <ele>47.919</ele>
        <time>2022-08-27T10:19:09Z</time>
      </trkpt>
      <trkpt lat="43.499348" lon="-5.418935">
        <ele>47.383</ele>
        <time>2022-08-27T10:19:11Z</time>
      </trkpt>
      <trkpt lat="43.499388" lon="-5.418880">
        <ele>47.030</ele>
        <time>2022-08-27T10:19:12Z</time>
      </trkpt>
      <trkpt lat="43.499470" lon="-5.418773">
        <ele>46.487</ele>
        <time>2022-08-27T10:19:14Z</time>
      </trkpt>
      <trkpt lat="43.499548" lon="-5.418671">
        <ele>45.814</ele>
        <time>2022-08-27T10:19:16Z</time>
      </trkpt>
      <trkpt lat="43.499590" lon="-5.418619">
        <ele>45.554</ele>
        <time>2022-08-27T10:19:17Z</time>
      </trkpt>
      <trkpt lat="43.499672" lon="-5.418517">
        <ele>44.809</ele>
        <time>2022-08-27T10:19:19Z</time>
      </trkpt>
      <trkpt lat="43.499714" lon="-5.418465">
        <ele>44.709</ele>
        <time>2022-08-27T10:19:20Z</time>
      </trkpt>
      <trkpt lat="43.499797" lon="-5.418363">
        <ele>44.792</ele>
        <time>2022-08-27T10:19:22Z</time>
      </trkpt>
      <trkpt lat="43.499877" lon="-5.418260">
        <ele>44.792</ele>
        <time>2022-08-27T10:19:24Z</time>
      </trkpt>
      <trkpt lat="43.499917" lon="-5.418208">
        <ele>44.783</ele>
        <time>2022-08-27T10:19:25Z</time>
      </trkpt>
      <trkpt lat="43.500004" lon="-5.418101">
        <ele>44.711</ele>
        <time>2022-08-27T10:19:27Z</time>
      </trkpt>
      <trkpt lat="43.500049" lon="-5.418046">
        <ele>44.661</ele>
        <time>2022-08-27T10:19:28Z</time>
      </trkpt>
      <trkpt lat="43.500096" lon="-5.417993">
        <ele>44.437</ele>
        <time>2022-08-27T10:19:29Z</time>
      </trkpt>
      <trkpt lat="43.500139" lon="-5.417938">
        <ele>44.281</ele>
        <time>2022-08-27T10:19:30Z</time>
      </trkpt>
      <trkpt lat="43.500227" lon="-5.417836">
        <ele>43.718</ele>
        <time>2022-08-27T10:19:32Z</time>
      </trkpt>
      <trkpt lat="43.500269" lon="-5.417786">
        <ele>43.735</ele>
        <time>2022-08-27T10:19:33Z</time>
      </trkpt>
      <trkpt lat="43.500346" lon="-5.417688">
        <ele>43.712</ele>
        <time>2022-08-27T10:19:35Z</time>
      </trkpt>
      <trkpt lat="43.500386" lon="-5.417638">
        <ele>43.732</ele>
        <time>2022-08-27T10:19:36Z</time>
      </trkpt>
      <trkpt lat="43.500426" lon="-5.417588">
        <ele>43.705</ele>
        <time>2022-08-27T10:19:37Z</time>
      </trkpt>
      <trkpt lat="43.500464" lon="-5.417538">
        <ele>43.709</ele>
        <time>2022-08-27T10:19:38Z</time>
      </trkpt>
      <trkpt lat="43.500539" lon="-5.417443">
        <ele>43.732</ele>
        <time>2022-08-27T10:19:40Z</time>
      </trkpt>
      <trkpt lat="43.500574" lon="-5.417395">
        <ele>43.782</ele>
        <time>2022-08-27T10:19:41Z</time>
      </trkpt>
      <trkpt lat="43.500611" lon="-5.417347">
        <ele>43.753</ele>
        <time>2022-08-27T10:19:42Z</time>
      </trkpt>
      <trkpt lat="43.500676" lon="-5.417247">
        <ele>44.171</ele>
        <time>2022-08-27T10:19:44Z</time>
      </trkpt>
      <trkpt lat="43.500711" lon="-5.417194">
        <ele>44.411</ele>
        <time>2022-08-27T10:19:45Z</time>
      </trkpt>
      <trkpt lat="43.500776" lon="-5.417091">
        <ele>44.967</ele>
        <time>2022-08-27T10:19:47Z</time>
      </trkpt>
      <trkpt lat="43.500806" lon="-5.417034">
        <ele>45.291</ele>
        <time>2022-08-27T10:19:48Z</time>
      </trkpt>
      <trkpt lat="43.500863" lon="-5.416924">
        <ele>45.638</ele>
        <time>2022-08-27T10:19:50Z</time>
      </trkpt>
      <trkpt lat="43.500891" lon="-5.416869">
        <ele>45.835</ele>
        <time>2022-08-27T10:19:51Z</time>
      </trkpt>
      <trkpt lat="43.500948" lon="-5.416769">
        <ele>46.368</ele>
        <time>2022-08-27T10:19:53Z</time>
      </trkpt>
      <trkpt lat="43.501005" lon="-5.416667">
        <ele>46.542</ele>
        <time>2022-08-27T10:19:55Z</time>
      </trkpt>
      <trkpt lat="43.501063" lon="-5.416565">
        <ele>46.826</ele>
        <time>2022-08-27T10:19:57Z</time>
      </trkpt>
      <trkpt lat="43.501118" lon="-5.416460">
        <ele>47.309</ele>
        <time>2022-08-27T10:19:59Z</time>
      </trkpt>
      <trkpt lat="43.501146" lon="-5.416408">
        <ele>47.427</ele>
        <time>2022-08-27T10:20:00Z</time>
      </trkpt>
      <trkpt lat="43.501206" lon="-5.416296">
        <ele>47.837</ele>
        <time>2022-08-27T10:20:02Z</time>
      </trkpt>
      <trkpt lat="43.501268" lon="-5.416181">
        <ele>48.148</ele>
        <time>2022-08-27T10:20:04Z</time>
      </trkpt>
      <trkpt lat="43.501331" lon="-5.416063">
        <ele>48.456</ele>
        <time>2022-08-27T10:20:06Z</time>
      </trkpt>
      <trkpt lat="43.501399" lon="-5.415948">
        <ele>48.666</ele>
        <time>2022-08-27T10:20:08Z</time>
      </trkpt>
      <trkpt lat="43.501431" lon="-5.415893">
        <ele>48.752</ele>
        <time>2022-08-27T10:20:09Z</time>
      </trkpt>
      <trkpt lat="43.501493" lon="-5.415790">
        <ele>48.896</ele>
        <time>2022-08-27T10:20:11Z</time>
      </trkpt>
      <trkpt lat="43.501523" lon="-5.415740">
        <ele>48.983</ele>
        <time>2022-08-27T10:20:12Z</time>
      </trkpt>
      <trkpt lat="43.501581" lon="-5.415645">
        <ele>49.110</ele>
        <time>2022-08-27T10:20:14Z</time>
      </trkpt>
      <trkpt lat="43.501636" lon="-5.415548">
        <ele>49.445</ele>
        <time>2022-08-27T10:20:16Z</time>
      </trkpt>
      <trkpt lat="43.501694" lon="-5.415465">
        <ele>49.447</ele>
        <time>2022-08-27T10:20:18Z</time>
      </trkpt>
      <trkpt lat="43.501752" lon="-5.415373">
        <ele>49.411</ele>
        <time>2022-08-27T10:20:20Z</time>
      </trkpt>
      <trkpt lat="43.501817" lon="-5.415280">
        <ele>49.109</ele>
        <time>2022-08-27T10:20:22Z</time>
      </trkpt>
      <trkpt lat="43.501850" lon="-5.415235">
        <ele>49.085</ele>
        <time>2022-08-27T10:20:23Z</time>
      </trkpt>
      <trkpt lat="43.501885" lon="-5.415190">
        <ele>48.925</ele>
        <time>2022-08-27T10:20:24Z</time>
      </trkpt>
      <trkpt lat="43.501950" lon="-5.415107">
        <ele>48.596</ele>
        <time>2022-08-27T10:20:26Z</time>
      </trkpt>
      <trkpt lat="43.502012" lon="-5.415012">
        <ele>47.724</ele>
        <time>2022-08-27T10:20:28Z</time>
      </trkpt>
      <trkpt lat="43.502072" lon="-5.414914">
        <ele>47.684</ele>
        <time>2022-08-27T10:20:30Z</time>
      </trkpt>
      <trkpt lat="43.502102" lon="-5.414864">
        <ele>47.660</ele>
        <time>2022-08-27T10:20:31Z</time>
      </trkpt>
      <trkpt lat="43.502162" lon="-5.414767">
        <ele>47.644</ele>
        <time>2022-08-27T10:20:33Z</time>
      </trkpt>
      <trkpt lat="43.502192" lon="-5.414719">
        <ele>47.751</ele>
        <time>2022-08-27T10:20:34Z</time>
      </trkpt>
      <trkpt lat="43.502252" lon="-5.414626">
        <ele>48.138</ele>
        <time>2022-08-27T10:20:36Z</time>
      </trkpt>
      <trkpt lat="43.502310" lon="-5.414536">
        <ele>48.445</ele>
        <time>2022-08-27T10:20:38Z</time>
      </trkpt>
      <trkpt lat="43.502367" lon="-5.414444">
        <ele>48.547</ele>
        <time>2022-08-27T10:20:40Z</time>
      </trkpt>
      <trkpt lat="43.502415" lon="-5.414354">
        <ele>48.811</ele>
        <time>2022-08-27T10:20:42Z</time>
      </trkpt>
      <trkpt lat="43.502478" lon="-5.414271">
        <ele>49.709</ele>
        <time>2022-08-27T10:20:44Z</time>
      </trkpt>
      <trkpt lat="43.502543" lon="-5.414188">
        <ele>50.615</ele>
        <time>2022-08-27T10:20:46Z</time>
      </trkpt>
      <trkpt lat="43.502595" lon="-5.414096">
        <ele>51.255</ele>
        <time>2022-08-27T10:20:48Z</time>
      </trkpt>
      <trkpt lat="43.502650" lon="-5.414004">
        <ele>51.526</ele>
        <time>2022-08-27T10:20:50Z</time>
      </trkpt>
      <trkpt lat="43.502683" lon="-5.413959">
        <ele>51.724</ele>
        <time>2022-08-27T10:20:51Z</time>
      </trkpt>
      <trkpt lat="43.502741" lon="-5.413866">
        <ele>51.984</ele>
        <time>2022-08-27T10:20:53Z</time>
      </trkpt>
      <trkpt lat="43.502771" lon="-5.413819">
        <ele>52.660</ele>
        <time>2022-08-27T10:20:54Z</time>
      </trkpt>
      <trkpt lat="43.502831" lon="-5.413731">
        <ele>52.954</ele>
        <time>2022-08-27T10:20:56Z</time>
      </trkpt>
      <trkpt lat="43.502899" lon="-5.413644">
        <ele>53.211</ele>
        <time>2022-08-27T10:20:58Z</time>
      </trkpt>
      <trkpt lat="43.502932" lon="-5.413599">
        <ele>53.798</ele>
        <time>2022-08-27T10:20:59Z</time>
      </trkpt>
      <trkpt lat="43.503000" lon="-5.413511">
        <ele>54.156</ele>
        <time>2022-08-27T10:21:01Z</time>
      </trkpt>
      <trkpt lat="43.503033" lon="-5.413466">
        <ele>54.259</ele>
        <time>2022-08-27T10:21:02Z</time>
      </trkpt>
      <trkpt lat="43.503100" lon="-5.413374">
        <ele>54.314</ele>
        <time>2022-08-27T10:21:04Z</time>
      </trkpt>
      <trkpt lat="43.503157" lon="-5.413279">
        <ele>54.609</ele>
        <time>2022-08-27T10:21:06Z</time>
      </trkpt>
      <trkpt lat="43.503212" lon="-5.413184">
        <ele>54.646</ele>
        <time>2022-08-27T10:21:08Z</time>
      </trkpt>
      <trkpt lat="43.503269" lon="-5.413094">
        <ele>54.416</ele>
        <time>2022-08-27T10:21:10Z</time>
      </trkpt>
      <trkpt lat="43.503322" lon="-5.413004">
        <ele>54.257</ele>
        <time>2022-08-27T10:21:12Z</time>
      </trkpt>
      <trkpt lat="43.503374" lon="-5.412906">
        <ele>53.825</ele>
        <time>2022-08-27T10:21:14Z</time>
      </trkpt>
      <trkpt lat="43.503429" lon="-5.412808">
        <ele>53.845</ele>
        <time>2022-08-27T10:21:16Z</time>
      </trkpt>
      <trkpt lat="43.503484" lon="-5.412703">
        <ele>53.861</ele>
        <time>2022-08-27T10:21:18Z</time>
      </trkpt>
      <trkpt lat="43.503529" lon="-5.412596">
        <ele>54.035</ele>
        <time>2022-08-27T10:21:20Z</time>
      </trkpt>
      <trkpt lat="43.503569" lon="-5.412493">
        <ele>54.362</ele>
        <time>2022-08-27T10:21:22Z</time>
      </trkpt>
      <trkpt lat="43.503607" lon="-5.412395">
        <ele>54.499</ele>
        <time>2022-08-27T10:21:24Z</time>
      </trkpt>
      <trkpt lat="43.503647" lon="-5.412292">
        <ele>54.837</ele>
        <time>2022-08-27T10:21:26Z</time>
      </trkpt>
      <trkpt lat="43.503685" lon="-5.412194">
        <ele>55.049</ele>
        <time>2022-08-27T10:21:27Z</time>
      </trkpt>
      <trkpt lat="43.503723" lon="-5.412094">
        <ele>55.413</ele>
        <time>2022-08-27T10:21:30Z</time>
      </trkpt>
      <trkpt lat="43.503761" lon="-5.411991">
        <ele>55.909</ele>
        <time>2022-08-27T10:21:32Z</time>
      </trkpt>
      <trkpt lat="43.503786" lon="-5.411939">
        <ele>56.264</ele>
        <time>2022-08-27T10:21:33Z</time>
      </trkpt>
      <trkpt lat="43.503828" lon="-5.411839">
        <ele>56.864</ele>
        <time>2022-08-27T10:21:35Z</time>
      </trkpt>
      <trkpt lat="43.503868" lon="-5.411744">
        <ele>57.625</ele>
        <time>2022-08-27T10:21:37Z</time>
      </trkpt>
      <trkpt lat="43.503900" lon="-5.411637">
        <ele>57.973</ele>
        <time>2022-08-27T10:21:39Z</time>
      </trkpt>
      <trkpt lat="43.503922" lon="-5.411582">
        <ele>58.263</ele>
        <time>2022-08-27T10:21:40Z</time>
      </trkpt>
      <trkpt lat="43.503954" lon="-5.411477">
        <ele>58.879</ele>
        <time>2022-08-27T10:21:42Z</time>
      </trkpt>
      <trkpt lat="43.503996" lon="-5.411369">
        <ele>58.933</ele>
        <time>2022-08-27T10:21:44Z</time>
      </trkpt>
      <trkpt lat="43.504039" lon="-5.411264">
        <ele>59.050</ele>
        <time>2022-08-27T10:21:46Z</time>
      </trkpt>
      <trkpt lat="43.504076" lon="-5.411157">
        <ele>59.337</ele>
        <time>2022-08-27T10:21:48Z</time>
      </trkpt>
      <trkpt lat="43.504114" lon="-5.411050">
        <ele>59.696</ele>
        <time>2022-08-27T10:21:50Z</time>
      </trkpt>
      <trkpt lat="43.504134" lon="-5.410993">
        <ele>59.631</ele>
        <time>2022-08-27T10:21:51Z</time>
      </trkpt>
      <trkpt lat="43.504157" lon="-5.410935">
        <ele>59.624</ele>
        <time>2022-08-27T10:21:52Z</time>
      </trkpt>
      <trkpt lat="43.504190" lon="-5.410823">
        <ele>59.509</ele>
        <time>2022-08-27T10:21:54Z</time>
      </trkpt>
      <trkpt lat="43.504225" lon="-5.410710">
        <ele>59.190</ele>
        <time>2022-08-27T10:21:56Z</time>
      </trkpt>
      <trkpt lat="43.504258" lon="-5.410598">
        <ele>59.140</ele>
        <time>2022-08-27T10:21:58Z</time>
      </trkpt>
      <trkpt lat="43.504290" lon="-5.410485">
        <ele>59.261</ele>
        <time>2022-08-27T10:22:00Z</time>
      </trkpt>
      <trkpt lat="43.504320" lon="-5.410368">
        <ele>59.299</ele>
        <time>2022-08-27T10:22:02Z</time>
      </trkpt>
      <trkpt lat="43.504345" lon="-5.410255">
        <ele>59.359</ele>
        <time>2022-08-27T10:22:04Z</time>
      </trkpt>
      <trkpt lat="43.504368" lon="-5.410147">
        <ele>59.425</ele>
        <time>2022-08-27T10:22:06Z</time>
      </trkpt>
      <trkpt lat="43.504390" lon="-5.410044">
        <ele>59.989</ele>
        <time>2022-08-27T10:22:08Z</time>
      </trkpt>
      <trkpt lat="43.504408" lon="-5.409934">
        <ele>60.526</ele>
        <time>2022-08-27T10:22:10Z</time>
      </trkpt>
      <trkpt lat="43.504423" lon="-5.409826">
        <ele>61.053</ele>
        <time>2022-08-27T10:22:12Z</time>
      </trkpt>
      <trkpt lat="43.504445" lon="-5.409726">
        <ele>61.139</ele>
        <time>2022-08-27T10:22:14Z</time>
      </trkpt>
      <trkpt lat="43.504460" lon="-5.409619">
        <ele>61.501</ele>
        <time>2022-08-27T10:22:16Z</time>
      </trkpt>
      <trkpt lat="43.504472" lon="-5.409507">
        <ele>61.521</ele>
        <time>2022-08-27T10:22:18Z</time>
      </trkpt>
      <trkpt lat="43.504482" lon="-5.409395">
        <ele>61.409</ele>
        <time>2022-08-27T10:22:20Z</time>
      </trkpt>
      <trkpt lat="43.504490" lon="-5.409290">
        <ele>61.434</ele>
        <time>2022-08-27T10:22:22Z</time>
      </trkpt>
      <trkpt lat="43.504490" lon="-5.409185">
        <ele>61.434</ele>
        <time>2022-08-27T10:22:24Z</time>
      </trkpt>
      <trkpt lat="43.504497" lon="-5.409087">
        <ele>61.485</ele>
        <time>2022-08-27T10:22:26Z</time>
      </trkpt>
      <trkpt lat="43.504505" lon="-5.408974">
        <ele>61.683</ele>
        <time>2022-08-27T10:22:28Z</time>
      </trkpt>
      <trkpt lat="43.504515" lon="-5.408866">
        <ele>61.733</ele>
        <time>2022-08-27T10:22:30Z</time>
      </trkpt>
      <trkpt lat="43.504527" lon="-5.408763">
        <ele>61.919</ele>
        <time>2022-08-27T10:22:32Z</time>
      </trkpt>
      <trkpt lat="43.504539" lon="-5.408658">
        <ele>62.253</ele>
        <time>2022-08-27T10:22:34Z</time>
      </trkpt>
      <trkpt lat="43.504549" lon="-5.408555">
        <ele>62.210</ele>
        <time>2022-08-27T10:22:36Z</time>
      </trkpt>
      <trkpt lat="43.504562" lon="-5.408443">
        <ele>62.387</ele>
        <time>2022-08-27T10:22:38Z</time>
      </trkpt>
      <trkpt lat="43.504577" lon="-5.408321">
        <ele>62.312</ele>
        <time>2022-08-27T10:22:40Z</time>
      </trkpt>
      <trkpt lat="43.504590" lon="-5.408196">
        <ele>62.232</ele>
        <time>2022-08-27T10:22:42Z</time>
      </trkpt>
      <trkpt lat="43.504605" lon="-5.408074">
        <ele>61.605</ele>
        <time>2022-08-27T10:22:44Z</time>
      </trkpt>
      <trkpt lat="43.504617" lon="-5.408009">
        <ele>61.509</ele>
        <time>2022-08-27T10:22:45Z</time>
      </trkpt>
      <trkpt lat="43.504625" lon="-5.407947">
        <ele>61.432</ele>
        <time>2022-08-27T10:22:46Z</time>
      </trkpt>
      <trkpt lat="43.504642" lon="-5.407819">
        <ele>61.322</ele>
        <time>2022-08-27T10:22:48Z</time>
      </trkpt>
      <trkpt lat="43.504662" lon="-5.407681">
        <ele>60.613</ele>
        <time>2022-08-27T10:22:50Z</time>
      </trkpt>
      <trkpt lat="43.504682" lon="-5.407536">
        <ele>59.681</ele>
        <time>2022-08-27T10:22:52Z</time>
      </trkpt>
      <trkpt lat="43.504694" lon="-5.407456">
        <ele>59.161</ele>
        <time>2022-08-27T10:22:53Z</time>
      </trkpt>
      <trkpt lat="43.504721" lon="-5.407288">
        <ele>57.667</ele>
        <time>2022-08-27T10:22:55Z</time>
      </trkpt>
      <trkpt lat="43.504749" lon="-5.407111">
        <ele>56.131</ele>
        <time>2022-08-27T10:22:57Z</time>
      </trkpt>
      <trkpt lat="43.504762" lon="-5.407016">
        <ele>55.478</ele>
        <time>2022-08-27T10:22:58Z</time>
      </trkpt>
      <trkpt lat="43.504787" lon="-5.406821">
        <ele>53.285</ele>
        <time>2022-08-27T10:23:00Z</time>
      </trkpt>
      <trkpt lat="43.504802" lon="-5.406719">
        <ele>52.542</ele>
        <time>2022-08-27T10:23:01Z</time>
      </trkpt>
      <trkpt lat="43.504814" lon="-5.406616">
        <ele>51.922</ele>
        <time>2022-08-27T10:23:02Z</time>
      </trkpt>
      <trkpt lat="43.504841" lon="-5.406401">
        <ele>50.714</ele>
        <time>2022-08-27T10:23:04Z</time>
      </trkpt>
      <trkpt lat="43.504854" lon="-5.406293">
        <ele>50.009</ele>
        <time>2022-08-27T10:23:05Z</time>
      </trkpt>
      <trkpt lat="43.504887" lon="-5.406066">
        <ele>49.085</ele>
        <time>2022-08-27T10:23:07Z</time>
      </trkpt>
      <trkpt lat="43.504920" lon="-5.405831">
        <ele>48.125</ele>
        <time>2022-08-27T10:23:09Z</time>
      </trkpt>
      <trkpt lat="43.504935" lon="-5.405711">
        <ele>47.586</ele>
        <time>2022-08-27T10:23:10Z</time>
      </trkpt>
      <trkpt lat="43.504972" lon="-5.405459">
        <ele>46.594</ele>
        <time>2022-08-27T10:23:12Z</time>
      </trkpt>
      <trkpt lat="43.504985" lon="-5.405332">
        <ele>45.914</ele>
        <time>2022-08-27T10:23:13Z</time>
      </trkpt>
      <trkpt lat="43.505018" lon="-5.405079">
        <ele>44.850</ele>
        <time>2022-08-27T10:23:15Z</time>
      </trkpt>
      <trkpt lat="43.505046" lon="-5.404837">
        <ele>44.794</ele>
        <time>2022-08-27T10:23:17Z</time>
      </trkpt>
      <trkpt lat="43.505059" lon="-5.404720">
        <ele>44.791</ele>
        <time>2022-08-27T10:23:18Z</time>
      </trkpt>
      <trkpt lat="43.505084" lon="-5.404497">
        <ele>44.638</ele>
        <time>2022-08-27T10:23:20Z</time>
      </trkpt>
      <trkpt lat="43.505112" lon="-5.404284">
        <ele>44.493</ele>
        <time>2022-08-27T10:23:22Z</time>
      </trkpt>
      <trkpt lat="43.505139" lon="-5.404079">
        <ele>44.365</ele>
        <time>2022-08-27T10:23:24Z</time>
      </trkpt>
      <trkpt lat="43.505161" lon="-5.403889">
        <ele>45.021</ele>
        <time>2022-08-27T10:23:26Z</time>
      </trkpt>
      <trkpt lat="43.505174" lon="-5.403797">
        <ele>45.309</ele>
        <time>2022-08-27T10:23:27Z</time>
      </trkpt>
      <trkpt lat="43.505187" lon="-5.403627">
        <ele>46.380</ele>
        <time>2022-08-27T10:23:29Z</time>
      </trkpt>
      <trkpt lat="43.505199" lon="-5.403474">
        <ele>46.750</ele>
        <time>2022-08-27T10:23:31Z</time>
      </trkpt>
      <trkpt lat="43.505212" lon="-5.403329">
        <ele>47.091</ele>
        <time>2022-08-27T10:23:33Z</time>
      </trkpt>
      <trkpt lat="43.505224" lon="-5.403189">
        <ele>48.199</ele>
        <time>2022-08-27T10:23:35Z</time>
      </trkpt>
      <trkpt lat="43.505234" lon="-5.403121">
        <ele>48.659</ele>
        <time>2022-08-27T10:23:36Z</time>
      </trkpt>
      <trkpt lat="43.505246" lon="-5.403056">
        <ele>49.565</ele>
        <time>2022-08-27T10:23:37Z</time>
      </trkpt>
      <trkpt lat="43.505256" lon="-5.402991">
        <ele>50.379</ele>
        <time>2022-08-27T10:23:38Z</time>
      </trkpt>
      <trkpt lat="43.505276" lon="-5.402859">
        <ele>52.036</ele>
        <time>2022-08-27T10:23:40Z</time>
      </trkpt>
      <trkpt lat="43.505288" lon="-5.402796">
        <ele>53.093</ele>
        <time>2022-08-27T10:23:41Z</time>
      </trkpt>
      <trkpt lat="43.505303" lon="-5.402734">
        <ele>53.913</ele>
        <time>2022-08-27T10:23:42Z</time>
      </trkpt>
      <trkpt lat="43.505323" lon="-5.402617">
        <ele>55.243</ele>
        <time>2022-08-27T10:23:44Z</time>
      </trkpt>
      <trkpt lat="43.505341" lon="-5.402495">
        <ele>55.807</ele>
        <time>2022-08-27T10:23:46Z</time>
      </trkpt>
      <trkpt lat="43.505358" lon="-5.402378">
        <ele>55.709</ele>
        <time>2022-08-27T10:23:48Z</time>
      </trkpt>
      <trkpt lat="43.505376" lon="-5.402256">
        <ele>55.572</ele>
        <time>2022-08-27T10:23:50Z</time>
      </trkpt>
      <trkpt lat="43.505379" lon="-5.402143">
        <ele>55.362</ele>
        <time>2022-08-27T10:23:52Z</time>
      </trkpt>
      <trkpt lat="43.505386" lon="-5.402036">
        <ele>55.313</ele>
        <time>2022-08-27T10:23:54Z</time>
      </trkpt>
      <trkpt lat="43.505398" lon="-5.401928">
        <ele>55.331</ele>
        <time>2022-08-27T10:23:56Z</time>
      </trkpt>
      <trkpt lat="43.505410" lon="-5.401810">
        <ele>55.021</ele>
        <time>2022-08-27T10:23:58Z</time>
      </trkpt>
      <trkpt lat="43.505423" lon="-5.401687">
        <ele>55.087</ele>
        <time>2022-08-27T10:24:00Z</time>
      </trkpt>
      <trkpt lat="43.505438" lon="-5.401564">
        <ele>55.251</ele>
        <time>2022-08-27T10:24:02Z</time>
      </trkpt>
      <trkpt lat="43.505443" lon="-5.401502">
        <ele>55.368</ele>
        <time>2022-08-27T10:24:03Z</time>
      </trkpt>
      <trkpt lat="43.505455" lon="-5.401380">
        <ele>55.555</ele>
        <time>2022-08-27T10:24:05Z</time>
      </trkpt>
      <trkpt lat="43.505463" lon="-5.401318">
        <ele>55.568</ele>
        <time>2022-08-27T10:24:06Z</time>
      </trkpt>
      <trkpt lat="43.505478" lon="-5.401193">
        <ele>55.542</ele>
        <time>2022-08-27T10:24:08Z</time>
      </trkpt>
      <trkpt lat="43.505488" lon="-5.401070">
        <ele>55.526</ele>
        <time>2022-08-27T10:24:10Z</time>
      </trkpt>
      <trkpt lat="43.505501" lon="-5.400945">
        <ele>55.609</ele>
        <time>2022-08-27T10:24:12Z</time>
      </trkpt>
      <trkpt lat="43.505519" lon="-5.400823">
        <ele>55.977</ele>
        <time>2022-08-27T10:24:14Z</time>
      </trkpt>
      <trkpt lat="43.505526" lon="-5.400761">
        <ele>55.917</ele>
        <time>2022-08-27T10:24:15Z</time>
      </trkpt>
      <trkpt lat="43.505538" lon="-5.400701">
        <ele>55.958</ele>
        <time>2022-08-27T10:24:16Z</time>
      </trkpt>
      <trkpt lat="43.505550" lon="-5.400581">
        <ele>55.746</ele>
        <time>2022-08-27T10:24:18Z</time>
      </trkpt>
      <trkpt lat="43.505562" lon="-5.400459">
        <ele>55.426</ele>
        <time>2022-08-27T10:24:20Z</time>
      </trkpt>
      <trkpt lat="43.505569" lon="-5.400397">
        <ele>55.152</ele>
        <time>2022-08-27T10:24:21Z</time>
      </trkpt>
      <trkpt lat="43.505574" lon="-5.400335">
        <ele>54.916</ele>
        <time>2022-08-27T10:24:22Z</time>
      </trkpt>
      <trkpt lat="43.505582" lon="-5.400270">
        <ele>54.983</ele>
        <time>2022-08-27T10:24:23Z</time>
      </trkpt>
      <trkpt lat="43.505595" lon="-5.400147">
        <ele>55.050</ele>
        <time>2022-08-27T10:24:25Z</time>
      </trkpt>
      <trkpt lat="43.505610" lon="-5.400030">
        <ele>55.686</ele>
        <time>2022-08-27T10:24:27Z</time>
      </trkpt>
      <trkpt lat="43.505637" lon="-5.399923">
        <ele>55.760</ele>
        <time>2022-08-27T10:24:29Z</time>
      </trkpt>
      <trkpt lat="43.505634" lon="-5.399855">
        <ele>56.126</ele>
        <time>2022-08-27T10:24:30Z</time>
      </trkpt>
      <trkpt lat="43.505574" lon="-5.399733">
        <ele>56.509</ele>
        <time>2022-08-27T10:24:32Z</time>
      </trkpt>
      <trkpt lat="43.505579" lon="-5.399650">
        <ele>56.989</ele>
        <time>2022-08-27T10:24:33Z</time>
      </trkpt>
      <trkpt lat="43.505652" lon="-5.399573">
        <ele>57.069</ele>
        <time>2022-08-27T10:24:36Z</time>
      </trkpt>
      <trkpt lat="43.505672" lon="-5.399466">
        <ele>57.040</ele>
        <time>2022-08-27T10:24:38Z</time>
      </trkpt>
      <trkpt lat="43.505685" lon="-5.399364">
        <ele>57.688</ele>
        <time>2022-08-27T10:24:40Z</time>
      </trkpt>
      <trkpt lat="43.505702" lon="-5.399249">
        <ele>57.868</ele>
        <time>2022-08-27T10:24:41Z</time>
      </trkpt>
      <trkpt lat="43.505720" lon="-5.399189">
        <ele>58.044</ele>
        <time>2022-08-27T10:24:43Z</time>
      </trkpt>
      <trkpt lat="43.505737" lon="-5.399094">
        <ele>59.088</ele>
        <time>2022-08-27T10:24:45Z</time>
      </trkpt>
      <trkpt lat="43.505749" lon="-5.398979">
        <ele>59.625</ele>
        <time>2022-08-27T10:24:47Z</time>
      </trkpt>
      <trkpt lat="43.505766" lon="-5.398861">
        <ele>59.792</ele>
        <time>2022-08-27T10:24:49Z</time>
      </trkpt>
      <trkpt lat="43.505783" lon="-5.398741">
        <ele>59.975</ele>
        <time>2022-08-27T10:24:51Z</time>
      </trkpt>
      <trkpt lat="43.505800" lon="-5.398626">
        <ele>60.028</ele>
        <time>2022-08-27T10:24:53Z</time>
      </trkpt>
      <trkpt lat="43.505813" lon="-5.398518">
        <ele>60.420</ele>
        <time>2022-08-27T10:24:55Z</time>
      </trkpt>
      <trkpt lat="43.505820" lon="-5.398416">
        <ele>60.609</ele>
        <time>2022-08-27T10:24:57Z</time>
      </trkpt>
      <trkpt lat="43.505832" lon="-5.398314">
        <ele>61.018</ele>
        <time>2022-08-27T10:24:59Z</time>
      </trkpt>
      <trkpt lat="43.505845" lon="-5.398214">
        <ele>61.318</ele>
        <time>2022-08-27T10:25:01Z</time>
      </trkpt>
      <trkpt lat="43.505858" lon="-5.398114">
        <ele>61.559</ele>
        <time>2022-08-27T10:25:03Z</time>
      </trkpt>
      <trkpt lat="43.505868" lon="-5.398012">
        <ele>61.527</ele>
        <time>2022-08-27T10:25:05Z</time>
      </trkpt>
      <trkpt lat="43.505873" lon="-5.397912">
        <ele>61.837</ele>
        <time>2022-08-27T10:25:07Z</time>
      </trkpt>
      <trkpt lat="43.505875" lon="-5.397817">
        <ele>62.453</ele>
        <time>2022-08-27T10:25:09Z</time>
      </trkpt>
      <trkpt lat="43.505878" lon="-5.397722">
        <ele>63.287</ele>
        <time>2022-08-27T10:25:11Z</time>
      </trkpt>
      <trkpt lat="43.505880" lon="-5.397625">
        <ele>63.654</ele>
        <time>2022-08-27T10:25:13Z</time>
      </trkpt>
      <trkpt lat="43.505870" lon="-5.397528">
        <ele>63.681</ele>
        <time>2022-08-27T10:25:14Z</time>
      </trkpt>
      <trkpt lat="43.505857" lon="-5.397416">
        <ele>63.774</ele>
        <time>2022-08-27T10:25:17Z</time>
      </trkpt>
      <trkpt lat="43.505857" lon="-5.397294">
        <ele>63.756</ele>
        <time>2022-08-27T10:25:19Z</time>
      </trkpt>
      <trkpt lat="43.505862" lon="-5.397226">
        <ele>63.721</ele>
        <time>2022-08-27T10:25:20Z</time>
      </trkpt>
      <trkpt lat="43.505859" lon="-5.397106">
        <ele>63.709</ele>
        <time>2022-08-27T10:25:22Z</time>
      </trkpt>
      <trkpt lat="43.505847" lon="-5.397046">
        <ele>63.158</ele>
        <time>2022-08-27T10:25:23Z</time>
      </trkpt>
      <trkpt lat="43.505824" lon="-5.396924">
        <ele>62.598</ele>
        <time>2022-08-27T10:25:25Z</time>
      </trkpt>
      <trkpt lat="43.505811" lon="-5.396861">
        <ele>62.459</ele>
        <time>2022-08-27T10:25:26Z</time>
      </trkpt>
      <trkpt lat="43.505799" lon="-5.396791">
        <ele>62.477</ele>
        <time>2022-08-27T10:25:27Z</time>
      </trkpt>
      <trkpt lat="43.505786" lon="-5.396641">
        <ele>61.887</ele>
        <time>2022-08-27T10:25:29Z</time>
      </trkpt>
      <trkpt lat="43.505764" lon="-5.396486">
        <ele>61.173</ele>
        <time>2022-08-27T10:25:31Z</time>
      </trkpt>
      <trkpt lat="43.505752" lon="-5.396408">
        <ele>61.087</ele>
        <time>2022-08-27T10:25:32Z</time>
      </trkpt>
      <trkpt lat="43.505732" lon="-5.396246">
        <ele>60.534</ele>
        <time>2022-08-27T10:25:34Z</time>
      </trkpt>
      <trkpt lat="43.505725" lon="-5.396166">
        <ele>60.221</ele>
        <time>2022-08-27T10:25:35Z</time>
      </trkpt>
      <trkpt lat="43.505720" lon="-5.396086">
        <ele>59.799</ele>
        <time>2022-08-27T10:25:36Z</time>
      </trkpt>
      <trkpt lat="43.505717" lon="-5.395919">
        <ele>59.007</ele>
        <time>2022-08-27T10:25:38Z</time>
      </trkpt>
      <trkpt lat="43.505717" lon="-5.395832">
        <ele>58.727</ele>
        <time>2022-08-27T10:25:39Z</time>
      </trkpt>
      <trkpt lat="43.505725" lon="-5.395655">
        <ele>58.009</ele>
        <time>2022-08-27T10:25:41Z</time>
      </trkpt>
      <trkpt lat="43.505728" lon="-5.395565">
        <ele>57.550</ele>
        <time>2022-08-27T10:25:42Z</time>
      </trkpt>
      <trkpt lat="43.505733" lon="-5.395475">
        <ele>57.130</ele>
        <time>2022-08-27T10:25:43Z</time>
      </trkpt>
      <trkpt lat="43.505740" lon="-5.395387">
        <ele>56.621</ele>
        <time>2022-08-27T10:25:44Z</time>
      </trkpt>
      <trkpt lat="43.505753" lon="-5.395209">
        <ele>55.259</ele>
        <time>2022-08-27T10:25:46Z</time>
      </trkpt>
      <trkpt lat="43.505758" lon="-5.395119">
        <ele>54.799</ele>
        <time>2022-08-27T10:25:47Z</time>
      </trkpt>
      <trkpt lat="43.505770" lon="-5.394937">
        <ele>53.945</ele>
        <time>2022-08-27T10:25:49Z</time>
      </trkpt>
      <trkpt lat="43.505778" lon="-5.394844">
        <ele>53.469</ele>
        <time>2022-08-27T10:25:50Z</time>
      </trkpt>
      <trkpt lat="43.505783" lon="-5.394749">
        <ele>53.166</ele>
        <time>2022-08-27T10:25:51Z</time>
      </trkpt>
      <trkpt lat="43.505791" lon="-5.394654">
        <ele>52.643</ele>
        <time>2022-08-27T10:25:52Z</time>
      </trkpt>
      <trkpt lat="43.505811" lon="-5.394459">
        <ele>51.744</ele>
        <time>2022-08-27T10:25:54Z</time>
      </trkpt>
      <trkpt lat="43.505821" lon="-5.394361">
        <ele>51.405</ele>
        <time>2022-08-27T10:25:55Z</time>
      </trkpt>
      <trkpt lat="43.505843" lon="-5.394166">
        <ele>50.815</ele>
        <time>2022-08-27T10:25:57Z</time>
      </trkpt>
      <trkpt lat="43.505880" lon="-5.393978">
        <ele>50.109</ele>
        <time>2022-08-27T10:25:59Z</time>
      </trkpt>
      <trkpt lat="43.505905" lon="-5.393886">
        <ele>49.745</ele>
        <time>2022-08-27T10:26:00Z</time>
      </trkpt>
      <trkpt lat="43.505968" lon="-5.393711">
        <ele>49.575</ele>
        <time>2022-08-27T10:26:02Z</time>
      </trkpt>
      <trkpt lat="43.506058" lon="-5.393551">
        <ele>49.536</ele>
        <time>2022-08-27T10:26:04Z</time>
      </trkpt>
      <trkpt lat="43.506171" lon="-5.393406">
        <ele>49.384</ele>
        <time>2022-08-27T10:26:06Z</time>
      </trkpt>
      <trkpt lat="43.506233" lon="-5.393336">
        <ele>48.934</ele>
        <time>2022-08-27T10:26:07Z</time>
      </trkpt>
      <trkpt lat="43.506356" lon="-5.393194">
        <ele>48.090</ele>
        <time>2022-08-27T10:26:09Z</time>
      </trkpt>
      <trkpt lat="43.506484" lon="-5.393054">
        <ele>47.134</ele>
        <time>2022-08-27T10:26:11Z</time>
      </trkpt>
      <trkpt lat="43.506547" lon="-5.392984">
        <ele>46.571</ele>
        <time>2022-08-27T10:26:12Z</time>
      </trkpt>
      <trkpt lat="43.506669" lon="-5.392842">
        <ele>46.078</ele>
        <time>2022-08-27T10:26:14Z</time>
      </trkpt>
      <trkpt lat="43.506727" lon="-5.392769">
        <ele>45.876</ele>
        <time>2022-08-27T10:26:15Z</time>
      </trkpt>
      <trkpt lat="43.506827" lon="-5.392607">
        <ele>45.490</ele>
        <time>2022-08-27T10:26:17Z</time>
      </trkpt>
      <trkpt lat="43.506869" lon="-5.392524">
        <ele>45.319</ele>
        <time>2022-08-27T10:26:18Z</time>
      </trkpt>
      <trkpt lat="43.506939" lon="-5.392349">
        <ele>45.109</ele>
        <time>2022-08-27T10:26:20Z</time>
      </trkpt>
      <trkpt lat="43.506967" lon="-5.392261">
        <ele>44.798</ele>
        <time>2022-08-27T10:26:21Z</time>
      </trkpt>
      <trkpt lat="43.507024" lon="-5.392083">
        <ele>44.348</ele>
        <time>2022-08-27T10:26:23Z</time>
      </trkpt>
      <trkpt lat="43.507071" lon="-5.391915">
        <ele>44.149</ele>
        <time>2022-08-27T10:26:25Z</time>
      </trkpt>
      <trkpt lat="43.507091" lon="-5.391828">
        <ele>44.177</ele>
        <time>2022-08-27T10:26:26Z</time>
      </trkpt>
      <trkpt lat="43.507114" lon="-5.391746">
        <ele>44.327</ele>
        <time>2022-08-27T10:26:27Z</time>
      </trkpt>
      <trkpt lat="43.507159" lon="-5.391573">
        <ele>44.563</ele>
        <time>2022-08-27T10:26:29Z</time>
      </trkpt>
      <trkpt lat="43.507182" lon="-5.391493">
        <ele>44.737</ele>
        <time>2022-08-27T10:26:30Z</time>
      </trkpt>
      <trkpt lat="43.507207" lon="-5.391411">
        <ele>44.724</ele>
        <time>2022-08-27T10:26:31Z</time>
      </trkpt>
      <trkpt lat="43.507230" lon="-5.391329">
        <ele>44.791</ele>
        <time>2022-08-27T10:26:32Z</time>
      </trkpt>
      <trkpt lat="43.507250" lon="-5.391246">
        <ele>44.457</ele>
        <time>2022-08-27T10:26:33Z</time>
      </trkpt>
      <trkpt lat="43.507268" lon="-5.391159">
        <ele>44.200</ele>
        <time>2022-08-27T10:26:34Z</time>
      </trkpt>
      <trkpt lat="43.507316" lon="-5.390991">
        <ele>44.220</ele>
        <time>2022-08-27T10:26:36Z</time>
      </trkpt>
      <trkpt lat="43.507356" lon="-5.390826">
        <ele>44.609</ele>
        <time>2022-08-27T10:26:38Z</time>
      </trkpt>
      <trkpt lat="43.507403" lon="-5.390669">
        <ele>44.966</ele>
        <time>2022-08-27T10:26:40Z</time>
      </trkpt>
      <trkpt lat="43.507443" lon="-5.390507">
        <ele>44.616</ele>
        <time>2022-08-27T10:26:42Z</time>
      </trkpt>
      <trkpt lat="43.507463" lon="-5.390429">
        <ele>44.637</ele>
        <time>2022-08-27T10:26:43Z</time>
      </trkpt>
      <trkpt lat="43.507498" lon="-5.390279">
        <ele>45.155</ele>
        <time>2022-08-27T10:26:45Z</time>
      </trkpt>
      <trkpt lat="43.507516" lon="-5.390209">
        <ele>45.575</ele>
        <time>2022-08-27T10:26:46Z</time>
      </trkpt>
      <trkpt lat="43.507549" lon="-5.390069">
        <ele>46.981</ele>
        <time>2022-08-27T10:26:48Z</time>
      </trkpt>
      <trkpt lat="43.507562" lon="-5.389996">
        <ele>46.975</ele>
        <time>2022-08-27T10:26:49Z</time>
      </trkpt>
      <trkpt lat="43.507579" lon="-5.389851">
        <ele>46.812</ele>
        <time>2022-08-27T10:26:51Z</time>
      </trkpt>
      <trkpt lat="43.507582" lon="-5.389776">
        <ele>46.639</ele>
        <time>2022-08-27T10:26:52Z</time>
      </trkpt>
      <trkpt lat="43.507589" lon="-5.389633">
        <ele>46.168</ele>
        <time>2022-08-27T10:26:54Z</time>
      </trkpt>
      <trkpt lat="43.507592" lon="-5.389486">
        <ele>46.142</ele>
        <time>2022-08-27T10:26:56Z</time>
      </trkpt>
      <trkpt lat="43.507589" lon="-5.389348">
        <ele>46.026</ele>
        <time>2022-08-27T10:26:58Z</time>
      </trkpt>
      <trkpt lat="43.507584" lon="-5.389216">
        <ele>45.609</ele>
        <time>2022-08-27T10:27:00Z</time>
      </trkpt>
      <trkpt lat="43.507581" lon="-5.389153">
        <ele>45.517</ele>
        <time>2022-08-27T10:27:01Z</time>
      </trkpt>
      <trkpt lat="43.507573" lon="-5.389028">
        <ele>45.557</ele>
        <time>2022-08-27T10:27:03Z</time>
      </trkpt>
      <trkpt lat="43.507563" lon="-5.388901">
        <ele>45.548</ele>
        <time>2022-08-27T10:27:05Z</time>
      </trkpt>
      <trkpt lat="43.507548" lon="-5.388781">
        <ele>45.836</ele>
        <time>2022-08-27T10:27:07Z</time>
      </trkpt>
      <trkpt lat="43.507533" lon="-5.388666">
        <ele>46.326</ele>
        <time>2022-08-27T10:27:09Z</time>
      </trkpt>
      <trkpt lat="43.507518" lon="-5.388553">
        <ele>46.512</ele>
        <time>2022-08-27T10:27:11Z</time>
      </trkpt>
      <trkpt lat="43.507510" lon="-5.388443">
        <ele>47.036</ele>
        <time>2022-08-27T10:27:13Z</time>
      </trkpt>
      <trkpt lat="43.507503" lon="-5.388333">
        <ele>47.483</ele>
        <time>2022-08-27T10:27:15Z</time>
      </trkpt>
      <trkpt lat="43.507496" lon="-5.388225">
        <ele>48.140</ele>
        <time>2022-08-27T10:27:17Z</time>
      </trkpt>
      <trkpt lat="43.507499" lon="-5.388120">
        <ele>48.497</ele>
        <time>2022-08-27T10:27:19Z</time>
      </trkpt>
      <trkpt lat="43.507504" lon="-5.388013">
        <ele>48.423</ele>
        <time>2022-08-27T10:27:21Z</time>
      </trkpt>
      <trkpt lat="43.507509" lon="-5.387911">
        <ele>48.425</ele>
        <time>2022-08-27T10:27:23Z</time>
      </trkpt>
      <trkpt lat="43.507524" lon="-5.387806">
        <ele>48.509</ele>
        <time>2022-08-27T10:27:25Z</time>
      </trkpt>
      <trkpt lat="43.507541" lon="-5.387706">
        <ele>48.650</ele>
        <time>2022-08-27T10:27:27Z</time>
      </trkpt>
      <trkpt lat="43.507558" lon="-5.387608">
        <ele>49.230</ele>
        <time>2022-08-27T10:27:29Z</time>
      </trkpt>
      <trkpt lat="43.507573" lon="-5.387513">
        <ele>50.191</ele>
        <time>2022-08-27T10:27:31Z</time>
      </trkpt>
      <trkpt lat="43.507593" lon="-5.387418">
        <ele>50.919</ele>
        <time>2022-08-27T10:27:33Z</time>
      </trkpt>
      <trkpt lat="43.507613" lon="-5.387323">
        <ele>51.129</ele>
        <time>2022-08-27T10:27:35Z</time>
      </trkpt>
      <trkpt lat="43.507638" lon="-5.387231">
        <ele>51.485</ele>
        <time>2022-08-27T10:27:37Z</time>
      </trkpt>
      <trkpt lat="43.507665" lon="-5.387136">
        <ele>51.989</ele>
        <time>2022-08-27T10:27:39Z</time>
      </trkpt>
      <trkpt lat="43.507700" lon="-5.387044">
        <ele>51.936</ele>
        <time>2022-08-27T10:27:41Z</time>
      </trkpt>
      <trkpt lat="43.507732" lon="-5.386954">
        <ele>51.933</ele>
        <time>2022-08-27T10:27:43Z</time>
      </trkpt>
      <trkpt lat="43.507760" lon="-5.386859">
        <ele>51.936</ele>
        <time>2022-08-27T10:27:45Z</time>
      </trkpt>
      <trkpt lat="43.507782" lon="-5.386764">
        <ele>51.917</ele>
        <time>2022-08-27T10:27:47Z</time>
      </trkpt>
      <trkpt lat="43.507797" lon="-5.386666">
        <ele>51.918</ele>
        <time>2022-08-27T10:27:49Z</time>
      </trkpt>
      <trkpt lat="43.507807" lon="-5.386563">
        <ele>52.009</ele>
        <time>2022-08-27T10:27:51Z</time>
      </trkpt>
      <trkpt lat="43.507814" lon="-5.386456">
        <ele>52.184</ele>
        <time>2022-08-27T10:27:53Z</time>
      </trkpt>
      <trkpt lat="43.507811" lon="-5.386349">
        <ele>52.424</ele>
        <time>2022-08-27T10:27:55Z</time>
      </trkpt>
      <trkpt lat="43.507801" lon="-5.386242">
        <ele>52.415</ele>
        <time>2022-08-27T10:27:57Z</time>
      </trkpt>
      <trkpt lat="43.507779" lon="-5.386135">
        <ele>52.593</ele>
        <time>2022-08-27T10:27:59Z</time>
      </trkpt>
      <trkpt lat="43.507747" lon="-5.386030">
        <ele>52.663</ele>
        <time>2022-08-27T10:28:01Z</time>
      </trkpt>
      <trkpt lat="43.507719" lon="-5.385930">
        <ele>53.069</ele>
        <time>2022-08-27T10:28:03Z</time>
      </trkpt>
      <trkpt lat="43.507689" lon="-5.385835">
        <ele>53.713</ele>
        <time>2022-08-27T10:28:05Z</time>
      </trkpt>
      <trkpt lat="43.507657" lon="-5.385733">
        <ele>54.250</ele>
        <time>2022-08-27T10:28:07Z</time>
      </trkpt>
      <trkpt lat="43.507622" lon="-5.385631">
        <ele>54.757</ele>
        <time>2022-08-27T10:28:09Z</time>
      </trkpt>
      <trkpt lat="43.507592" lon="-5.385531">
        <ele>55.423</ele>
        <time>2022-08-27T10:28:11Z</time>
      </trkpt>
      <trkpt lat="43.507560" lon="-5.385428">
        <ele>55.683</ele>
        <time>2022-08-27T10:28:13Z</time>
      </trkpt>
      <trkpt lat="43.507527" lon="-5.385321">
        <ele>55.811</ele>
        <time>2022-08-27T10:28:15Z</time>
      </trkpt>
      <trkpt lat="43.507499" lon="-5.385218">
        <ele>55.909</ele>
        <time>2022-08-27T10:28:17Z</time>
      </trkpt>
      <trkpt lat="43.507467" lon="-5.385116">
        <ele>55.973</ele>
        <time>2022-08-27T10:28:19Z</time>
      </trkpt>
      <trkpt lat="43.507440" lon="-5.385016">
        <ele>55.983</ele>
        <time>2022-08-27T10:28:21Z</time>
      </trkpt>
      <trkpt lat="43.507410" lon="-5.384913">
        <ele>55.774</ele>
        <time>2022-08-27T10:28:23Z</time>
      </trkpt>
      <trkpt lat="43.507377" lon="-5.384805">
        <ele>55.792</ele>
        <time>2022-08-27T10:28:25Z</time>
      </trkpt>
      <trkpt lat="43.507339" lon="-5.384698">
        <ele>56.142</ele>
        <time>2022-08-27T10:28:27Z</time>
      </trkpt>
      <trkpt lat="43.507302" lon="-5.384593">
        <ele>56.338</ele>
        <time>2022-08-27T10:28:29Z</time>
      </trkpt>
      <trkpt lat="43.507262" lon="-5.384488">
        <ele>56.462</ele>
        <time>2022-08-27T10:28:31Z</time>
      </trkpt>
      <trkpt lat="43.507214" lon="-5.384400">
        <ele>57.049</ele>
        <time>2022-08-27T10:28:33Z</time>
      </trkpt>
      <trkpt lat="43.507157" lon="-5.384323">
        <ele>57.276</ele>
        <time>2022-08-27T10:28:35Z</time>
      </trkpt>
      <trkpt lat="43.507094" lon="-5.384250">
        <ele>57.414</ele>
        <time>2022-08-27T10:28:37Z</time>
      </trkpt>
      <trkpt lat="43.507026" lon="-5.384175">
        <ele>58.054</ele>
        <time>2022-08-27T10:28:39Z</time>
      </trkpt>
      <trkpt lat="43.506964" lon="-5.384105">
        <ele>58.509</ele>
        <time>2022-08-27T10:28:41Z</time>
      </trkpt>
      <trkpt lat="43.506899" lon="-5.384045">
        <ele>59.009</ele>
        <time>2022-08-27T10:28:43Z</time>
      </trkpt>
      <trkpt lat="43.506832" lon="-5.383985">
        <ele>59.432</ele>
        <time>2022-08-27T10:28:45Z</time>
      </trkpt>
      <trkpt lat="43.506769" lon="-5.383933">
        <ele>59.892</ele>
        <time>2022-08-27T10:28:47Z</time>
      </trkpt>
      <trkpt lat="43.506706" lon="-5.383878">
        <ele>60.073</ele>
        <time>2022-08-27T10:28:49Z</time>
      </trkpt>
      <trkpt lat="43.506651" lon="-5.383813">
        <ele>60.081</ele>
        <time>2022-08-27T10:28:51Z</time>
      </trkpt>
      <trkpt lat="43.506594" lon="-5.383736">
        <ele>60.431</ele>
        <time>2022-08-27T10:28:53Z</time>
      </trkpt>
      <trkpt lat="43.506536" lon="-5.383663">
        <ele>60.887</ele>
        <time>2022-08-27T10:28:55Z</time>
      </trkpt>
      <trkpt lat="43.506481" lon="-5.383581">
        <ele>61.221</ele>
        <time>2022-08-27T10:28:57Z</time>
      </trkpt>
      <trkpt lat="43.506434" lon="-5.383504">
        <ele>61.478</ele>
        <time>2022-08-27T10:28:59Z</time>
      </trkpt>
      <trkpt lat="43.506394" lon="-5.383421">
        <ele>61.345</ele>
        <time>2022-08-27T10:29:01Z</time>
      </trkpt>
      <trkpt lat="43.506357" lon="-5.383338">
        <ele>61.327</ele>
        <time>2022-08-27T10:29:03Z</time>
      </trkpt>
      <trkpt lat="43.506325" lon="-5.383245">
        <ele>61.568</ele>
        <time>2022-08-27T10:29:05Z</time>
      </trkpt>
      <trkpt lat="43.506302" lon="-5.383152">
        <ele>61.514</ele>
        <time>2022-08-27T10:29:07Z</time>
      </trkpt>
      <trkpt lat="43.506284" lon="-5.383057">
        <ele>61.709</ele>
        <time>2022-08-27T10:29:09Z</time>
      </trkpt>
      <trkpt lat="43.506262" lon="-5.382965">
        <ele>61.983</ele>
        <time>2022-08-27T10:29:11Z</time>
      </trkpt>
      <trkpt lat="43.506242" lon="-5.382877">
        <ele>62.133</ele>
        <time>2022-08-27T10:29:13Z</time>
      </trkpt>
      <trkpt lat="43.506220" lon="-5.382785">
        <ele>62.324</ele>
        <time>2022-08-27T10:29:15Z</time>
      </trkpt>
      <trkpt lat="43.506185" lon="-5.382698">
        <ele>62.692</ele>
        <time>2022-08-27T10:29:17Z</time>
      </trkpt>
      <trkpt lat="43.506135" lon="-5.382626">
        <ele>62.982</ele>
        <time>2022-08-27T10:29:19Z</time>
      </trkpt>
      <trkpt lat="43.506067" lon="-5.382574">
        <ele>63.238</ele>
        <time>2022-08-27T10:29:21Z</time>
      </trkpt>
      <trkpt lat="43.505995" lon="-5.382547">
        <ele>63.992</ele>
        <time>2022-08-27T10:29:23Z</time>
      </trkpt>
      <trkpt lat="43.505925" lon="-5.382522">
        <ele>64.819</ele>
        <time>2022-08-27T10:29:25Z</time>
      </trkpt>
      <trkpt lat="43.505860" lon="-5.382495">
        <ele>65.346</ele>
        <time>2022-08-27T10:29:27Z</time>
      </trkpt>
      <trkpt lat="43.505802" lon="-5.382468">
        <ele>65.776</ele>
        <time>2022-08-27T10:29:29Z</time>
      </trkpt>
      <trkpt lat="43.505752" lon="-5.382423">
        <ele>65.890</ele>
        <time>2022-08-27T10:29:31Z</time>
      </trkpt>
      <trkpt lat="43.505705" lon="-5.382365">
        <ele>65.819</ele>
        <time>2022-08-27T10:29:33Z</time>
      </trkpt>
      <trkpt lat="43.505667" lon="-5.382302">
        <ele>65.709</ele>
        <time>2022-08-27T10:29:35Z</time>
      </trkpt>
      <trkpt lat="43.505634" lon="-5.382227">
        <ele>65.538</ele>
        <time>2022-08-27T10:29:37Z</time>
      </trkpt>
      <trkpt lat="43.505602" lon="-5.382140">
        <ele>65.488</ele>
        <time>2022-08-27T10:29:39Z</time>
      </trkpt>
      <trkpt lat="43.505569" lon="-5.382055">
        <ele>65.489</ele>
        <time>2022-08-27T10:29:41Z</time>
      </trkpt>
      <trkpt lat="43.505532" lon="-5.381982">
        <ele>65.397</ele>
        <time>2022-08-27T10:29:43Z</time>
      </trkpt>
      <trkpt lat="43.505472" lon="-5.381934">
        <ele>65.397</ele>
        <time>2022-08-27T10:29:45Z</time>
      </trkpt>
      <trkpt lat="43.505400" lon="-5.381917">
        <ele>65.133</ele>
        <time>2022-08-27T10:29:47Z</time>
      </trkpt>
      <trkpt lat="43.505332" lon="-5.381925">
        <ele>65.017</ele>
        <time>2022-08-27T10:29:49Z</time>
      </trkpt>
      <trkpt lat="43.505262" lon="-5.381958">
        <ele>65.064</ele>
        <time>2022-08-27T10:29:51Z</time>
      </trkpt>
      <trkpt lat="43.505202" lon="-5.382015">
        <ele>65.391</ele>
        <time>2022-08-27T10:29:53Z</time>
      </trkpt>
      <trkpt lat="43.505147" lon="-5.382082">
        <ele>66.258</ele>
        <time>2022-08-27T10:29:55Z</time>
      </trkpt>
      <trkpt lat="43.505100" lon="-5.382162">
        <ele>66.952</ele>
        <time>2022-08-27T10:29:57Z</time>
      </trkpt>
      <trkpt lat="43.505050" lon="-5.382244">
        <ele>67.517</ele>
        <time>2022-08-27T10:29:59Z</time>
      </trkpt>
      <trkpt lat="43.504997" lon="-5.382319">
        <ele>67.909</ele>
        <time>2022-08-27T10:30:01Z</time>
      </trkpt>
      <trkpt lat="43.504939" lon="-5.382374">
        <ele>68.186</ele>
        <time>2022-08-27T10:30:03Z</time>
      </trkpt>
      <trkpt lat="43.504872" lon="-5.382402">
        <ele>68.686</ele>
        <time>2022-08-27T10:30:05Z</time>
      </trkpt>
      <trkpt lat="43.504799" lon="-5.382405">
        <ele>69.297</ele>
        <time>2022-08-27T10:30:07Z</time>
      </trkpt>
      <trkpt lat="43.504729" lon="-5.382385">
        <ele>69.665</ele>
        <time>2022-08-27T10:30:09Z</time>
      </trkpt>
      <trkpt lat="43.504666" lon="-5.382348">
        <ele>69.725</ele>
        <time>2022-08-27T10:30:11Z</time>
      </trkpt>
      <trkpt lat="43.504613" lon="-5.382293">
        <ele>70.271</ele>
        <time>2022-08-27T10:30:13Z</time>
      </trkpt>
      <trkpt lat="43.504575" lon="-5.382216">
        <ele>70.655</ele>
        <time>2022-08-27T10:30:15Z</time>
      </trkpt>
      <trkpt lat="43.504543" lon="-5.382128">
        <ele>70.672</ele>
        <time>2022-08-27T10:30:17Z</time>
      </trkpt>
      <trkpt lat="43.504523" lon="-5.382035">
        <ele>70.589</ele>
        <time>2022-08-27T10:30:19Z</time>
      </trkpt>
      <trkpt lat="43.504523" lon="-5.381935">
        <ele>70.428</ele>
        <time>2022-08-27T10:30:21Z</time>
      </trkpt>
      <trkpt lat="43.504528" lon="-5.381835">
        <ele>70.489</ele>
        <time>2022-08-27T10:30:23Z</time>
      </trkpt>
      <trkpt lat="43.504535" lon="-5.381732">
        <ele>70.417</ele>
        <time>2022-08-27T10:30:25Z</time>
      </trkpt>
      <trkpt lat="43.504545" lon="-5.381634">
        <ele>70.309</ele>
        <time>2022-08-27T10:30:27Z</time>
      </trkpt>
      <trkpt lat="43.504555" lon="-5.381542">
        <ele>70.313</ele>
        <time>2022-08-27T10:30:29Z</time>
      </trkpt>
      <trkpt lat="43.504570" lon="-5.381450">
        <ele>70.383</ele>
        <time>2022-08-27T10:30:31Z</time>
      </trkpt>
      <trkpt lat="43.504582" lon="-5.381363">
        <ele>70.394</ele>
        <time>2022-08-27T10:30:33Z</time>
      </trkpt>
      <trkpt lat="43.504582" lon="-5.381276">
        <ele>70.282</ele>
        <time>2022-08-27T10:30:35Z</time>
      </trkpt>
      <trkpt lat="43.504587" lon="-5.381194">
        <ele>70.222</ele>
        <time>2022-08-27T10:30:37Z</time>
      </trkpt>
      <trkpt lat="43.504599" lon="-5.381109">
        <ele>70.238</ele>
        <time>2022-08-27T10:30:39Z</time>
      </trkpt>
      <trkpt lat="43.504607" lon="-5.381021">
        <ele>70.352</ele>
        <time>2022-08-27T10:30:41Z</time>
      </trkpt>
      <trkpt lat="43.504614" lon="-5.380929">
        <ele>70.459</ele>
        <time>2022-08-27T10:30:43Z</time>
      </trkpt>
      <trkpt lat="43.504622" lon="-5.380839">
        <ele>70.436</ele>
        <time>2022-08-27T10:30:45Z</time>
      </trkpt>
      <trkpt lat="43.504630" lon="-5.380746">
        <ele>70.482</ele>
        <time>2022-08-27T10:30:47Z</time>
      </trkpt>
      <trkpt lat="43.504640" lon="-5.380653">
        <ele>70.443</ele>
        <time>2022-08-27T10:30:49Z</time>
      </trkpt>
      <trkpt lat="43.504652" lon="-5.380565">
        <ele>70.317</ele>
        <time>2022-08-27T10:30:51Z</time>
      </trkpt>
      <trkpt lat="43.504664" lon="-5.380478">
        <ele>70.309</ele>
        <time>2022-08-27T10:30:53Z</time>
      </trkpt>
      <trkpt lat="43.504676" lon="-5.380396">
        <ele>70.349</ele>
        <time>2022-08-27T10:30:55Z</time>
      </trkpt>
      <trkpt lat="43.504693" lon="-5.380309">
        <ele>70.339</ele>
        <time>2022-08-27T10:30:57Z</time>
      </trkpt>
      <trkpt lat="43.504706" lon="-5.380217">
        <ele>70.450</ele>
        <time>2022-08-27T10:30:59Z</time>
      </trkpt>
      <trkpt lat="43.504713" lon="-5.380127">
        <ele>70.448</ele>
        <time>2022-08-27T10:31:01Z</time>
      </trkpt>
      <trkpt lat="43.504715" lon="-5.380040">
        <ele>70.638</ele>
        <time>2022-08-27T10:31:03Z</time>
      </trkpt>
      <trkpt lat="43.504717" lon="-5.379950">
        <ele>70.514</ele>
        <time>2022-08-27T10:31:05Z</time>
      </trkpt>
      <trkpt lat="43.504715" lon="-5.379862">
        <ele>70.518</ele>
        <time>2022-08-27T10:31:07Z</time>
      </trkpt>
      <trkpt lat="43.504715" lon="-5.379774">
        <ele>70.735</ele>
        <time>2022-08-27T10:31:09Z</time>
      </trkpt>
      <trkpt lat="43.504718" lon="-5.379689">
        <ele>70.852</ele>
        <time>2022-08-27T10:31:11Z</time>
      </trkpt>
      <trkpt lat="43.504725" lon="-5.379606">
        <ele>71.387</ele>
        <time>2022-08-27T10:31:13Z</time>
      </trkpt>
      <trkpt lat="43.504743" lon="-5.379523">
        <ele>71.942</ele>
        <time>2022-08-27T10:31:15Z</time>
      </trkpt>
      <trkpt lat="43.504766" lon="-5.379431">
        <ele>72.426</ele>
        <time>2022-08-27T10:31:17Z</time>
      </trkpt>
      <trkpt lat="43.504796" lon="-5.379343">
        <ele>73.209</ele>
        <time>2022-08-27T10:31:19Z</time>
      </trkpt>
      <trkpt lat="43.504828" lon="-5.379260">
        <ele>74.019</ele>
        <time>2022-08-27T10:31:21Z</time>
      </trkpt>
      <trkpt lat="43.504856" lon="-5.379177">
        <ele>74.669</ele>
        <time>2022-08-27T10:31:23Z</time>
      </trkpt>
      <trkpt lat="43.504883" lon="-5.379094">
        <ele>74.750</ele>
        <time>2022-08-27T10:31:25Z</time>
      </trkpt>
      <trkpt lat="43.504916" lon="-5.379012">
        <ele>74.898</ele>
        <time>2022-08-27T10:31:27Z</time>
      </trkpt>
      <trkpt lat="43.504948" lon="-5.378929">
        <ele>74.838</ele>
        <time>2022-08-27T10:31:29Z</time>
      </trkpt>
      <trkpt lat="43.504980" lon="-5.378851">
        <ele>74.994</ele>
        <time>2022-08-27T10:31:31Z</time>
      </trkpt>
      <trkpt lat="43.505012" lon="-5.378768">
        <ele>75.198</ele>
        <time>2022-08-27T10:31:33Z</time>
      </trkpt>
      <trkpt lat="43.505042" lon="-5.378685">
        <ele>75.465</ele>
        <time>2022-08-27T10:31:35Z</time>
      </trkpt>
      <trkpt lat="43.505075" lon="-5.378593">
        <ele>76.112</ele>
        <time>2022-08-27T10:31:37Z</time>
      </trkpt>
      <trkpt lat="43.505105" lon="-5.378500">
        <ele>76.442</ele>
        <time>2022-08-27T10:31:39Z</time>
      </trkpt>
      <trkpt lat="43.505135" lon="-5.378408">
        <ele>76.922</ele>
        <time>2022-08-27T10:31:41Z</time>
      </trkpt>
      <trkpt lat="43.505147" lon="-5.378311">
        <ele>77.814</ele>
        <time>2022-08-27T10:31:43Z</time>
      </trkpt>
      <trkpt lat="43.505137" lon="-5.378206">
        <ele>77.909</ele>
        <time>2022-08-27T10:31:45Z</time>
      </trkpt>
      <trkpt lat="43.505104" lon="-5.378118">
        <ele>78.075</ele>
        <time>2022-08-27T10:31:47Z</time>
      </trkpt>
      <trkpt lat="43.505049" lon="-5.378048">
        <ele>78.165</ele>
        <time>2022-08-27T10:31:49Z</time>
      </trkpt>
      <trkpt lat="43.504981" lon="-5.377998">
        <ele>78.146</ele>
        <time>2022-08-27T10:31:51Z</time>
      </trkpt>
      <trkpt lat="43.504916" lon="-5.377961">
        <ele>78.794</ele>
        <time>2022-08-27T10:31:53Z</time>
      </trkpt>
      <trkpt lat="43.504854" lon="-5.377926">
        <ele>80.044</ele>
        <time>2022-08-27T10:31:55Z</time>
      </trkpt>
      <trkpt lat="43.504797" lon="-5.377884">
        <ele>80.770</ele>
        <time>2022-08-27T10:31:57Z</time>
      </trkpt>
      <trkpt lat="43.504747" lon="-5.377842">
        <ele>81.454</ele>
        <time>2022-08-27T10:31:59Z</time>
      </trkpt>
      <trkpt lat="43.504714" lon="-5.377779">
        <ele>82.171</ele>
        <time>2022-08-27T10:32:01Z</time>
      </trkpt>
      <trkpt lat="43.504682" lon="-5.377704">
        <ele>82.828</ele>
        <time>2022-08-27T10:32:03Z</time>
      </trkpt>
      <trkpt lat="43.504665" lon="-5.377616">
        <ele>82.852</ele>
        <time>2022-08-27T10:32:05Z</time>
      </trkpt>
      <trkpt lat="43.504668" lon="-5.377521">
        <ele>82.853</ele>
        <time>2022-08-27T10:32:07Z</time>
      </trkpt>
      <trkpt lat="43.504688" lon="-5.377421">
        <ele>82.708</ele>
        <time>2022-08-27T10:32:09Z</time>
      </trkpt>
      <trkpt lat="43.504716" lon="-5.377323">
        <ele>82.509</ele>
        <time>2022-08-27T10:32:11Z</time>
      </trkpt>
      <trkpt lat="43.504746" lon="-5.377230">
        <ele>82.546</ele>
        <time>2022-08-27T10:32:13Z</time>
      </trkpt>
      <trkpt lat="43.504781" lon="-5.377138">
        <ele>82.686</ele>
        <time>2022-08-27T10:32:15Z</time>
      </trkpt>
      <trkpt lat="43.504818" lon="-5.377046">
        <ele>82.787</ele>
        <time>2022-08-27T10:32:17Z</time>
      </trkpt>
      <trkpt lat="43.504850" lon="-5.376954">
        <ele>83.245</ele>
        <time>2022-08-27T10:32:19Z</time>
      </trkpt>
      <trkpt lat="43.504883" lon="-5.376866">
        <ele>83.235</ele>
        <time>2022-08-27T10:32:21Z</time>
      </trkpt>
      <trkpt lat="43.504915" lon="-5.376774">
        <ele>83.291</ele>
        <time>2022-08-27T10:32:23Z</time>
      </trkpt>
      <trkpt lat="43.504935" lon="-5.376681">
        <ele>83.345</ele>
        <time>2022-08-27T10:32:25Z</time>
      </trkpt>
      <trkpt lat="43.504940" lon="-5.376589">
        <ele>83.442</ele>
        <time>2022-08-27T10:32:27Z</time>
      </trkpt>
      <trkpt lat="43.504935" lon="-5.376491">
        <ele>83.789</ele>
        <time>2022-08-27T10:32:29Z</time>
      </trkpt>
      <trkpt lat="43.504907" lon="-5.376408">
        <ele>84.024</ele>
        <time>2022-08-27T10:32:31Z</time>
      </trkpt>
      <trkpt lat="43.504865" lon="-5.376340">
        <ele>84.104</ele>
        <time>2022-08-27T10:32:33Z</time>
      </trkpt>
      <trkpt lat="43.504817" lon="-5.376277">
        <ele>84.514</ele>
        <time>2022-08-27T10:32:35Z</time>
      </trkpt>
      <trkpt lat="43.504755" lon="-5.376207">
        <ele>84.809</ele>
        <time>2022-08-27T10:32:37Z</time>
      </trkpt>
      <trkpt lat="43.504685" lon="-5.376145">
        <ele>85.383</ele>
        <time>2022-08-27T10:32:39Z</time>
      </trkpt>
      <trkpt lat="43.504625" lon="-5.376088">
        <ele>85.833</ele>
        <time>2022-08-27T10:32:41Z</time>
      </trkpt>
      <trkpt lat="43.504570" lon="-5.376036">
        <ele>86.814</ele>
        <time>2022-08-27T10:32:43Z</time>
      </trkpt>
      <trkpt lat="43.504515" lon="-5.375984">
        <ele>88.022</ele>
        <time>2022-08-27T10:32:45Z</time>
      </trkpt>
      <trkpt lat="43.504462" lon="-5.375931">
        <ele>89.392</ele>
        <time>2022-08-27T10:32:47Z</time>
      </trkpt>
      <trkpt lat="43.504415" lon="-5.375873">
        <ele>89.898</ele>
        <time>2022-08-27T10:32:49Z</time>
      </trkpt>
      <trkpt lat="43.504365" lon="-5.375823">
        <ele>90.312</ele>
        <time>2022-08-27T10:32:51Z</time>
      </trkpt>
      <trkpt lat="43.504308" lon="-5.375778">
        <ele>90.499</ele>
        <time>2022-08-27T10:32:53Z</time>
      </trkpt>
      <trkpt lat="43.504245" lon="-5.375748">
        <ele>90.546</ele>
        <time>2022-08-27T10:32:55Z</time>
      </trkpt>
      <trkpt lat="43.504175" lon="-5.375738">
        <ele>90.792</ele>
        <time>2022-08-27T10:32:57Z</time>
      </trkpt>
      <trkpt lat="43.504107" lon="-5.375741">
        <ele>91.473</ele>
        <time>2022-08-27T10:32:59Z</time>
      </trkpt>
      <trkpt lat="43.504045" lon="-5.375749">
        <ele>92.620</ele>
        <time>2022-08-27T10:33:01Z</time>
      </trkpt>
      <trkpt lat="43.503988" lon="-5.375767">
        <ele>93.109</ele>
        <time>2022-08-27T10:33:03Z</time>
      </trkpt>
      <trkpt lat="43.503936" lon="-5.375780">
        <ele>93.170</ele>
        <time>2022-08-27T10:33:05Z</time>
      </trkpt>
      <trkpt lat="43.503884" lon="-5.375788">
        <ele>93.010</ele>
        <time>2022-08-27T10:33:07Z</time>
      </trkpt>
      <trkpt lat="43.503832" lon="-5.375791">
        <ele>92.841</ele>
        <time>2022-08-27T10:33:09Z</time>
      </trkpt>
      <trkpt lat="43.503777" lon="-5.375783">
        <ele>92.699</ele>
        <time>2022-08-27T10:33:11Z</time>
      </trkpt>
      <trkpt lat="43.503722" lon="-5.375765">
        <ele>92.429</ele>
        <time>2022-08-27T10:33:13Z</time>
      </trkpt>
      <trkpt lat="43.503670" lon="-5.375737">
        <ele>92.265</ele>
        <time>2022-08-27T10:33:15Z</time>
      </trkpt>
      <trkpt lat="43.503623" lon="-5.375692">
        <ele>92.229</ele>
        <time>2022-08-27T10:33:17Z</time>
      </trkpt>
      <trkpt lat="43.503591" lon="-5.375627">
        <ele>92.316</ele>
        <time>2022-08-27T10:33:19Z</time>
      </trkpt>
      <trkpt lat="43.503561" lon="-5.375559">
        <ele>92.453</ele>
        <time>2022-08-27T10:33:21Z</time>
      </trkpt>
      <trkpt lat="43.503554" lon="-5.375479">
        <ele>92.755</ele>
        <time>2022-08-27T10:33:23Z</time>
      </trkpt>
      <trkpt lat="43.503546" lon="-5.375399">
        <ele>92.707</ele>
        <time>2022-08-27T10:33:25Z</time>
      </trkpt>
      <trkpt lat="43.503539" lon="-5.375319">
        <ele>92.717</ele>
        <time>2022-08-27T10:33:27Z</time>
      </trkpt>
      <trkpt lat="43.503537" lon="-5.375232">
        <ele>92.409</ele>
        <time>2022-08-27T10:33:29Z</time>
      </trkpt>
      <trkpt lat="43.503532" lon="-5.375152">
        <ele>92.216</ele>
        <time>2022-08-27T10:33:31Z</time>
      </trkpt>
      <trkpt lat="43.503529" lon="-5.375072">
        <ele>92.256</ele>
        <time>2022-08-27T10:33:33Z</time>
      </trkpt>
      <trkpt lat="43.503522" lon="-5.374985">
        <ele>92.277</ele>
        <time>2022-08-27T10:33:35Z</time>
      </trkpt>
      <trkpt lat="43.503519" lon="-5.374900">
        <ele>92.275</ele>
        <time>2022-08-27T10:33:37Z</time>
      </trkpt>
      <trkpt lat="43.503506" lon="-5.374810">
        <ele>92.255</ele>
        <time>2022-08-27T10:33:39Z</time>
      </trkpt>
      <trkpt lat="43.503496" lon="-5.374723">
        <ele>92.291</ele>
        <time>2022-08-27T10:33:41Z</time>
      </trkpt>
      <trkpt lat="43.503478" lon="-5.374643">
        <ele>92.285</ele>
        <time>2022-08-27T10:33:43Z</time>
      </trkpt>
      <trkpt lat="43.503453" lon="-5.374565">
        <ele>92.322</ele>
        <time>2022-08-27T10:33:45Z</time>
      </trkpt>
      <trkpt lat="43.503426" lon="-5.374492">
        <ele>92.339</ele>
        <time>2022-08-27T10:33:47Z</time>
      </trkpt>
      <trkpt lat="43.503398" lon="-5.374417">
        <ele>92.644</ele>
        <time>2022-08-27T10:33:49Z</time>
      </trkpt>
      <trkpt lat="43.503368" lon="-5.374337">
        <ele>92.805</ele>
        <time>2022-08-27T10:33:51Z</time>
      </trkpt>
      <trkpt lat="43.503330" lon="-5.374265">
        <ele>93.115</ele>
        <time>2022-08-27T10:33:53Z</time>
      </trkpt>
      <trkpt lat="43.503292" lon="-5.374200">
        <ele>94.109</ele>
        <time>2022-08-27T10:33:55Z</time>
      </trkpt>
      <trkpt lat="43.503249" lon="-5.374133">
        <ele>95.295</ele>
        <time>2022-08-27T10:33:57Z</time>
      </trkpt>
      <trkpt lat="43.503209" lon="-5.374068">
        <ele>95.835</ele>
        <time>2022-08-27T10:33:59Z</time>
      </trkpt>
      <trkpt lat="43.503169" lon="-5.374011">
        <ele>96.546</ele>
        <time>2022-08-27T10:34:01Z</time>
      </trkpt>
      <trkpt lat="43.503127" lon="-5.373949">
        <ele>96.874</ele>
        <time>2022-08-27T10:34:03Z</time>
      </trkpt>
      <trkpt lat="43.503089" lon="-5.373886">
        <ele>97.254</ele>
        <time>2022-08-27T10:34:05Z</time>
      </trkpt>
      <trkpt lat="43.503049" lon="-5.373826">
        <ele>97.720</ele>
        <time>2022-08-27T10:34:07Z</time>
      </trkpt>
      <trkpt lat="43.503021" lon="-5.373769">
        <ele>98.284</ele>
        <time>2022-08-27T10:34:09Z</time>
      </trkpt>
      <trkpt lat="43.502998" lon="-5.373701">
        <ele>98.531</ele>
        <time>2022-08-27T10:34:11Z</time>
      </trkpt>
      <trkpt lat="43.502988" lon="-5.373618">
        <ele>98.548</ele>
        <time>2022-08-27T10:34:13Z</time>
      </trkpt>
      <trkpt lat="43.502983" lon="-5.373535">
        <ele>98.584</ele>
        <time>2022-08-27T10:34:15Z</time>
      </trkpt>
      <trkpt lat="43.502990" lon="-5.373445">
        <ele>97.807</ele>
        <time>2022-08-27T10:34:17Z</time>
      </trkpt>
      <trkpt lat="43.502997" lon="-5.373353">
        <ele>97.517</ele>
        <time>2022-08-27T10:34:19Z</time>
      </trkpt>
      <trkpt lat="43.503007" lon="-5.373256">
        <ele>96.909</ele>
        <time>2022-08-27T10:34:21Z</time>
      </trkpt>
      <trkpt lat="43.503015" lon="-5.373164">
        <ele>96.529</ele>
        <time>2022-08-27T10:34:23Z</time>
      </trkpt>
      <trkpt lat="43.503022" lon="-5.373072">
        <ele>95.959</ele>
        <time>2022-08-27T10:34:25Z</time>
      </trkpt>
      <trkpt lat="43.503020" lon="-5.372979">
        <ele>95.770</ele>
        <time>2022-08-27T10:34:27Z</time>
      </trkpt>
      <trkpt lat="43.503012" lon="-5.372887">
        <ele>95.768</ele>
        <time>2022-08-27T10:34:29Z</time>
      </trkpt>
      <trkpt lat="43.502987" lon="-5.372794">
        <ele>95.798</ele>
        <time>2022-08-27T10:34:31Z</time>
      </trkpt>
      <trkpt lat="43.502950" lon="-5.372706">
        <ele>95.824</ele>
        <time>2022-08-27T10:34:33Z</time>
      </trkpt>
      <trkpt lat="43.502910" lon="-5.372631">
        <ele>96.378</ele>
        <time>2022-08-27T10:34:35Z</time>
      </trkpt>
      <trkpt lat="43.502867" lon="-5.372566">
        <ele>97.225</ele>
        <time>2022-08-27T10:34:37Z</time>
      </trkpt>
      <trkpt lat="43.502820" lon="-5.372501">
        <ele>98.122</ele>
        <time>2022-08-27T10:34:39Z</time>
      </trkpt>
      <trkpt lat="43.502767" lon="-5.372433">
        <ele>98.715</ele>
        <time>2022-08-27T10:34:41Z</time>
      </trkpt>
      <trkpt lat="43.502715" lon="-5.372361">
        <ele>99.965</ele>
        <time>2022-08-27T10:34:43Z</time>
      </trkpt>
      <trkpt lat="43.502672" lon="-5.372283">
        <ele>100.611</ele>
        <time>2022-08-27T10:34:45Z</time>
      </trkpt>
      <trkpt lat="43.502639" lon="-5.372188">
        <ele>101.109</ele>
        <time>2022-08-27T10:34:47Z</time>
      </trkpt>
      <trkpt lat="43.502611" lon="-5.372095">
        <ele>101.572</ele>
        <time>2022-08-27T10:34:49Z</time>
      </trkpt>
      <trkpt lat="43.502588" lon="-5.371998">
        <ele>101.912</ele>
        <time>2022-08-27T10:34:51Z</time>
      </trkpt>
      <trkpt lat="43.502570" lon="-5.371905">
        <ele>102.193</ele>
        <time>2022-08-27T10:34:53Z</time>
      </trkpt>
      <trkpt lat="43.502553" lon="-5.371813">
        <ele>102.181</ele>
        <time>2022-08-27T10:34:55Z</time>
      </trkpt>
      <trkpt lat="43.502536" lon="-5.371721">
        <ele>102.041</ele>
        <time>2022-08-27T10:34:57Z</time>
      </trkpt>
      <trkpt lat="43.502514" lon="-5.371629">
        <ele>102.057</ele>
        <time>2022-08-27T10:34:59Z</time>
      </trkpt>
      <trkpt lat="43.502491" lon="-5.371537">
        <ele>102.071</ele>
        <time>2022-08-27T10:35:01Z</time>
      </trkpt>
      <trkpt lat="43.502459" lon="-5.371450">
        <ele>102.258</ele>
        <time>2022-08-27T10:35:03Z</time>
      </trkpt>
      <trkpt lat="43.502421" lon="-5.371370">
        <ele>102.335</ele>
        <time>2022-08-27T10:35:05Z</time>
      </trkpt>
      <trkpt lat="43.502373" lon="-5.371292">
        <ele>102.837</ele>
        <time>2022-08-27T10:35:07Z</time>
      </trkpt>
      <trkpt lat="43.502328" lon="-5.371219">
        <ele>103.249</ele>
        <time>2022-08-27T10:35:09Z</time>
      </trkpt>
      <trkpt lat="43.502280" lon="-5.371157">
        <ele>103.713</ele>
        <time>2022-08-27T10:35:11Z</time>
      </trkpt>
      <trkpt lat="43.502222" lon="-5.371099">
        <ele>104.409</ele>
        <time>2022-08-27T10:35:13Z</time>
      </trkpt>
      <trkpt lat="43.502165" lon="-5.371049">
        <ele>104.914</ele>
        <time>2022-08-27T10:35:15Z</time>
      </trkpt>
      <trkpt lat="43.502100" lon="-5.370999">
        <ele>105.724</ele>
        <time>2022-08-27T10:35:17Z</time>
      </trkpt>
      <trkpt lat="43.502033" lon="-5.370961">
        <ele>106.295</ele>
        <time>2022-08-27T10:35:19Z</time>
      </trkpt>
      <trkpt lat="43.501966" lon="-5.370938">
        <ele>106.513</ele>
        <time>2022-08-27T10:35:21Z</time>
      </trkpt>
      <trkpt lat="43.501903" lon="-5.370928">
        <ele>106.663</ele>
        <time>2022-08-27T10:35:23Z</time>
      </trkpt>
      <trkpt lat="43.501841" lon="-5.370920">
        <ele>107.119</ele>
        <time>2022-08-27T10:35:25Z</time>
      </trkpt>
      <trkpt lat="43.501783" lon="-5.370912">
        <ele>107.563</ele>
        <time>2022-08-27T10:35:27Z</time>
      </trkpt>
      <trkpt lat="43.501725" lon="-5.370899">
        <ele>108.060</ele>
        <time>2022-08-27T10:35:29Z</time>
      </trkpt>
      <trkpt lat="43.501670" lon="-5.370882">
        <ele>108.257</ele>
        <time>2022-08-27T10:35:31Z</time>
      </trkpt>
      <trkpt lat="43.501613" lon="-5.370855">
        <ele>108.798</ele>
        <time>2022-08-27T10:35:33Z</time>
      </trkpt>
      <trkpt lat="43.501563" lon="-5.370808">
        <ele>108.815</ele>
        <time>2022-08-27T10:35:35Z</time>
      </trkpt>
      <trkpt lat="43.501518" lon="-5.370760">
        <ele>109.026</ele>
        <time>2022-08-27T10:35:37Z</time>
      </trkpt>
      <trkpt lat="43.501473" lon="-5.370693">
        <ele>109.509</ele>
        <time>2022-08-27T10:35:39Z</time>
      </trkpt>
      <trkpt lat="43.501433" lon="-5.370616">
        <ele>109.680</ele>
        <time>2022-08-27T10:35:41Z</time>
      </trkpt>
      <trkpt lat="43.501396" lon="-5.370534">
        <ele>109.740</ele>
        <time>2022-08-27T10:35:43Z</time>
      </trkpt>
      <trkpt lat="43.501359" lon="-5.370454">
        <ele>109.721</ele>
        <time>2022-08-27T10:35:45Z</time>
      </trkpt>
      <trkpt lat="43.501319" lon="-5.370379">
        <ele>110.079</ele>
        <time>2022-08-27T10:35:47Z</time>
      </trkpt>
      <trkpt lat="43.501271" lon="-5.370314">
        <ele>110.859</ele>
        <time>2022-08-27T10:35:49Z</time>
      </trkpt>
      <trkpt lat="43.501221" lon="-5.370254">
        <ele>111.235</ele>
        <time>2022-08-27T10:35:51Z</time>
      </trkpt>
      <trkpt lat="43.501168" lon="-5.370201">
        <ele>111.269</ele>
        <time>2022-08-27T10:35:53Z</time>
      </trkpt>
      <trkpt lat="43.501113" lon="-5.370149">
        <ele>111.556</ele>
        <time>2022-08-27T10:35:55Z</time>
      </trkpt>
      <trkpt lat="43.501053" lon="-5.370101">
        <ele>111.793</ele>
        <time>2022-08-27T10:35:57Z</time>
      </trkpt>
      <trkpt lat="43.500988" lon="-5.370056">
        <ele>111.979</ele>
        <time>2022-08-27T10:35:59Z</time>
      </trkpt>
      <trkpt lat="43.500928" lon="-5.370013">
        <ele>112.105</ele>
        <time>2022-08-27T10:36:01Z</time>
      </trkpt>
      <trkpt lat="43.500863" lon="-5.369976">
        <ele>112.325</ele>
        <time>2022-08-27T10:36:03Z</time>
      </trkpt>
      <trkpt lat="43.500796" lon="-5.369946">
        <ele>112.809</ele>
        <time>2022-08-27T10:36:05Z</time>
      </trkpt>
      <trkpt lat="43.500724" lon="-5.369921">
        <ele>113.168</ele>
        <time>2022-08-27T10:36:07Z</time>
      </trkpt>
      <trkpt lat="43.500659" lon="-5.369893">
        <ele>113.588</ele>
        <time>2022-08-27T10:36:09Z</time>
      </trkpt>
      <trkpt lat="43.500597" lon="-5.369861">
        <ele>113.969</ele>
        <time>2022-08-27T10:36:11Z</time>
      </trkpt>
      <trkpt lat="43.500535" lon="-5.369823">
        <ele>114.427</ele>
        <time>2022-08-27T10:36:13Z</time>
      </trkpt>
      <trkpt lat="43.500480" lon="-5.369778">
        <ele>114.927</ele>
        <time>2022-08-27T10:36:15Z</time>
      </trkpt>
      <trkpt lat="43.500435" lon="-5.369723">
        <ele>115.863</ele>
        <time>2022-08-27T10:36:17Z</time>
      </trkpt>
      <trkpt lat="43.500397" lon="-5.369650">
        <ele>115.847</ele>
        <time>2022-08-27T10:36:19Z</time>
      </trkpt>
      <trkpt lat="43.500365" lon="-5.369557">
        <ele>115.844</ele>
        <time>2022-08-27T10:36:20Z</time>
      </trkpt>
      <trkpt lat="43.500343" lon="-5.369464">
        <ele>115.491</ele>
        <time>2022-08-27T10:36:23Z</time>
      </trkpt>
      <trkpt lat="43.500325" lon="-5.369364">
        <ele>115.097</ele>
        <time>2022-08-27T10:36:25Z</time>
      </trkpt>
      <trkpt lat="43.500310" lon="-5.369269">
        <ele>114.823</ele>
        <time>2022-08-27T10:36:27Z</time>
      </trkpt>
      <trkpt lat="43.500292" lon="-5.369177">
        <ele>114.525</ele>
        <time>2022-08-27T10:36:29Z</time>
      </trkpt>
      <trkpt lat="43.500272" lon="-5.369085">
        <ele>114.509</ele>
        <time>2022-08-27T10:36:31Z</time>
      </trkpt>
      <trkpt lat="43.500254" lon="-5.368993">
        <ele>114.520</ele>
        <time>2022-08-27T10:36:33Z</time>
      </trkpt>
      <trkpt lat="43.500232" lon="-5.368898">
        <ele>114.750</ele>
        <time>2022-08-27T10:36:35Z</time>
      </trkpt>
      <trkpt lat="43.500210" lon="-5.368805">
        <ele>114.941</ele>
        <time>2022-08-27T10:36:37Z</time>
      </trkpt>
      <trkpt lat="43.500180" lon="-5.368715">
        <ele>115.349</ele>
        <time>2022-08-27T10:36:39Z</time>
      </trkpt>
      <trkpt lat="43.500145" lon="-5.368623">
        <ele>115.669</ele>
        <time>2022-08-27T10:36:41Z</time>
      </trkpt>
      <trkpt lat="43.500112" lon="-5.368530">
        <ele>115.715</ele>
        <time>2022-08-27T10:36:43Z</time>
      </trkpt>
      <trkpt lat="43.500069" lon="-5.368447">
        <ele>115.859</ele>
        <time>2022-08-27T10:36:45Z</time>
      </trkpt>
      <trkpt lat="43.500019" lon="-5.368374">
        <ele>115.866</ele>
        <time>2022-08-27T10:36:47Z</time>
      </trkpt>
      <trkpt lat="43.499974" lon="-5.368299">
        <ele>116.173</ele>
        <time>2022-08-27T10:36:49Z</time>
      </trkpt>
      <trkpt lat="43.499926" lon="-5.368222">
        <ele>116.219</ele>
        <time>2022-08-27T10:36:51Z</time>
      </trkpt>
      <trkpt lat="43.499883" lon="-5.368142">
        <ele>116.409</ele>
        <time>2022-08-27T10:36:53Z</time>
      </trkpt>
      <trkpt lat="43.499840" lon="-5.368065">
        <ele>116.519</ele>
        <time>2022-08-27T10:36:55Z</time>
      </trkpt>
      <trkpt lat="43.499792" lon="-5.367987">
        <ele>116.609</ele>
        <time>2022-08-27T10:36:57Z</time>
      </trkpt>
      <trkpt lat="43.499747" lon="-5.367907">
        <ele>116.742</ele>
        <time>2022-08-27T10:36:59Z</time>
      </trkpt>
      <trkpt lat="43.499702" lon="-5.367827">
        <ele>116.982</ele>
        <time>2022-08-27T10:37:01Z</time>
      </trkpt>
      <trkpt lat="43.499664" lon="-5.367744">
        <ele>117.023</ele>
        <time>2022-08-27T10:37:03Z</time>
      </trkpt>
      <trkpt lat="43.499624" lon="-5.367656">
        <ele>117.221</ele>
        <time>2022-08-27T10:37:05Z</time>
      </trkpt>
      <trkpt lat="43.499591" lon="-5.367563">
        <ele>117.261</ele>
        <time>2022-08-27T10:37:07Z</time>
      </trkpt>
      <trkpt lat="43.499559" lon="-5.367473">
        <ele>117.357</ele>
        <time>2022-08-27T10:37:09Z</time>
      </trkpt>
      <trkpt lat="43.499527" lon="-5.367383">
        <ele>117.761</ele>
        <time>2022-08-27T10:37:11Z</time>
      </trkpt>
      <trkpt lat="43.499497" lon="-5.367296">
        <ele>118.028</ele>
        <time>2022-08-27T10:37:13Z</time>
      </trkpt>
      <trkpt lat="43.499464" lon="-5.367208">
        <ele>118.185</ele>
        <time>2022-08-27T10:37:15Z</time>
      </trkpt>
      <trkpt lat="43.499431" lon="-5.367116">
        <ele>118.363</ele>
        <time>2022-08-27T10:37:17Z</time>
      </trkpt>
      <trkpt lat="43.499396" lon="-5.367023">
        <ele>118.544</ele>
        <time>2022-08-27T10:37:19Z</time>
      </trkpt>
      <trkpt lat="43.499363" lon="-5.366930">
        <ele>118.518</ele>
        <time>2022-08-27T10:37:21Z</time>
      </trkpt>
      <trkpt lat="43.499330" lon="-5.366837">
        <ele>118.709</ele>
        <time>2022-08-27T10:37:23Z</time>
      </trkpt>
      <trkpt lat="43.499292" lon="-5.366744">
        <ele>118.747</ele>
        <time>2022-08-27T10:37:25Z</time>
      </trkpt>
      <trkpt lat="43.499255" lon="-5.366651">
        <ele>118.747</ele>
        <time>2022-08-27T10:37:27Z</time>
      </trkpt>
      <trkpt lat="43.499218" lon="-5.366564">
        <ele>119.048</ele>
        <time>2022-08-27T10:37:29Z</time>
      </trkpt>
      <trkpt lat="43.499185" lon="-5.366481">
        <ele>119.086</ele>
        <time>2022-08-27T10:37:31Z</time>
      </trkpt>
      <trkpt lat="43.499153" lon="-5.366391">
        <ele>119.036</ele>
        <time>2022-08-27T10:37:33Z</time>
      </trkpt>
      <trkpt lat="43.499123" lon="-5.366299">
        <ele>118.982</ele>
        <time>2022-08-27T10:37:35Z</time>
      </trkpt>
      <trkpt lat="43.499091" lon="-5.366207">
        <ele>118.816</ele>
        <time>2022-08-27T10:37:37Z</time>
      </trkpt>
      <trkpt lat="43.499058" lon="-5.366109">
        <ele>118.833</ele>
        <time>2022-08-27T10:37:39Z</time>
      </trkpt>
      <trkpt lat="43.499021" lon="-5.366019">
        <ele>118.980</ele>
        <time>2022-08-27T10:37:41Z</time>
      </trkpt>
      <trkpt lat="43.498986" lon="-5.365931">
        <ele>119.282</ele>
        <time>2022-08-27T10:37:43Z</time>
      </trkpt>
      <trkpt lat="43.498951" lon="-5.365838">
        <ele>119.243</ele>
        <time>2022-08-27T10:37:45Z</time>
      </trkpt>
      <trkpt lat="43.498918" lon="-5.365746">
        <ele>119.117</ele>
        <time>2022-08-27T10:37:47Z</time>
      </trkpt>
      <trkpt lat="43.498886" lon="-5.365656">
        <ele>118.809</ele>
        <time>2022-08-27T10:37:49Z</time>
      </trkpt>
      <trkpt lat="43.498849" lon="-5.365563">
        <ele>118.749</ele>
        <time>2022-08-27T10:37:51Z</time>
      </trkpt>
      <trkpt lat="43.498814" lon="-5.365473">
        <ele>118.739</ele>
        <time>2022-08-27T10:37:53Z</time>
      </trkpt>
      <trkpt lat="43.498779" lon="-5.365383">
        <ele>118.960</ele>
        <time>2022-08-27T10:37:55Z</time>
      </trkpt>
      <trkpt lat="43.498746" lon="-5.365286">
        <ele>119.068</ele>
        <time>2022-08-27T10:37:57Z</time>
      </trkpt>
      <trkpt lat="43.498713" lon="-5.365196">
        <ele>119.388</ele>
        <time>2022-08-27T10:37:59Z</time>
      </trkpt>
      <trkpt lat="43.498678" lon="-5.365111">
        <ele>120.044</ele>
        <time>2022-08-27T10:38:01Z</time>
      </trkpt>
      <trkpt lat="43.498645" lon="-5.365019">
        <ele>120.318</ele>
        <time>2022-08-27T10:38:03Z</time>
      </trkpt>
      <trkpt lat="43.498610" lon="-5.364927">
        <ele>120.765</ele>
        <time>2022-08-27T10:38:05Z</time>
      </trkpt>
      <trkpt lat="43.498572" lon="-5.364840">
        <ele>121.182</ele>
        <time>2022-08-27T10:38:07Z</time>
      </trkpt>
      <trkpt lat="43.498532" lon="-5.364748">
        <ele>121.217</ele>
        <time>2022-08-27T10:38:09Z</time>
      </trkpt>
      <trkpt lat="43.498494" lon="-5.364658">
        <ele>121.587</ele>
        <time>2022-08-27T10:38:11Z</time>
      </trkpt>
      <trkpt lat="43.498461" lon="-5.364565">
        <ele>122.015</ele>
        <time>2022-08-27T10:38:13Z</time>
      </trkpt>
      <trkpt lat="43.498431" lon="-5.364472">
        <ele>122.009</ele>
        <time>2022-08-27T10:38:15Z</time>
      </trkpt>
      <trkpt lat="43.498401" lon="-5.364380">
        <ele>122.052</ele>
        <time>2022-08-27T10:38:17Z</time>
      </trkpt>
      <trkpt lat="43.498369" lon="-5.364297">
        <ele>121.552</ele>
        <time>2022-08-27T10:38:19Z</time>
      </trkpt>
      <trkpt lat="43.498337" lon="-5.364207">
        <ele>121.523</ele>
        <time>2022-08-27T10:38:21Z</time>
      </trkpt>
      <trkpt lat="43.498300" lon="-5.364120">
        <ele>121.661</ele>
        <time>2022-08-27T10:38:23Z</time>
      </trkpt>
      <trkpt lat="43.498263" lon="-5.364035">
        <ele>121.851</ele>
        <time>2022-08-27T10:38:25Z</time>
      </trkpt>
      <trkpt lat="43.498231" lon="-5.363945">
        <ele>122.287</ele>
        <time>2022-08-27T10:38:27Z</time>
      </trkpt>
      <trkpt lat="43.498201" lon="-5.363852">
        <ele>122.831</ele>
        <time>2022-08-27T10:38:29Z</time>
      </trkpt>
      <trkpt lat="43.498171" lon="-5.363782">
        <ele>123.628</ele>
        <time>2022-08-27T10:38:31Z</time>
      </trkpt>
      <trkpt lat="43.498144" lon="-5.363705">
        <ele>124.195</ele>
        <time>2022-08-27T10:38:33Z</time>
      </trkpt>
      <trkpt lat="43.498124" lon="-5.363632">
        <ele>124.582</ele>
        <time>2022-08-27T10:38:35Z</time>
      </trkpt>
      <trkpt lat="43.498104" lon="-5.363559">
        <ele>125.243</ele>
        <time>2022-08-27T10:38:37Z</time>
      </trkpt>
      <trkpt lat="43.498092" lon="-5.363479">
        <ele>125.217</ele>
        <time>2022-08-27T10:38:39Z</time>
      </trkpt>
      <trkpt lat="43.498084" lon="-5.363394">
        <ele>125.309</ele>
        <time>2022-08-27T10:38:41Z</time>
      </trkpt>
      <trkpt lat="43.498081" lon="-5.363311">
        <ele>125.479</ele>
        <time>2022-08-27T10:38:43Z</time>
      </trkpt>
      <trkpt lat="43.498086" lon="-5.363234">
        <ele>125.459</ele>
        <time>2022-08-27T10:38:45Z</time>
      </trkpt>
      <trkpt lat="43.498098" lon="-5.363154">
        <ele>125.830</ele>
        <time>2022-08-27T10:38:47Z</time>
      </trkpt>
      <trkpt lat="43.498120" lon="-5.363076">
        <ele>126.128</ele>
        <time>2022-08-27T10:38:49Z</time>
      </trkpt>
      <trkpt lat="43.498150" lon="-5.363004">
        <ele>126.788</ele>
        <time>2022-08-27T10:38:51Z</time>
      </trkpt>
      <trkpt lat="43.498192" lon="-5.362937">
        <ele>127.044</ele>
        <time>2022-08-27T10:38:53Z</time>
      </trkpt>
      <trkpt lat="43.498237" lon="-5.362879">
        <ele>127.568</ele>
        <time>2022-08-27T10:38:55Z</time>
      </trkpt>
      <trkpt lat="43.498285" lon="-5.362829">
        <ele>128.475</ele>
        <time>2022-08-27T10:38:57Z</time>
      </trkpt>
      <trkpt lat="43.498343" lon="-5.362789">
        <ele>129.012</ele>
        <time>2022-08-27T10:38:59Z</time>
      </trkpt>
      <trkpt lat="43.498400" lon="-5.362747">
        <ele>129.475</ele>
        <time>2022-08-27T10:39:01Z</time>
      </trkpt>
      <trkpt lat="43.498455" lon="-5.362709">
        <ele>129.928</ele>
        <time>2022-08-27T10:39:03Z</time>
      </trkpt>
      <trkpt lat="43.498513" lon="-5.362672">
        <ele>130.420</ele>
        <time>2022-08-27T10:39:05Z</time>
      </trkpt>
      <trkpt lat="43.498573" lon="-5.362634">
        <ele>130.609</ele>
        <time>2022-08-27T10:39:07Z</time>
      </trkpt>
      <trkpt lat="43.498628" lon="-5.362589">
        <ele>130.788</ele>
        <time>2022-08-27T10:39:09Z</time>
      </trkpt>
      <trkpt lat="43.498683" lon="-5.362549">
        <ele>130.878</ele>
        <time>2022-08-27T10:39:11Z</time>
      </trkpt>
      <trkpt lat="43.498738" lon="-5.362509">
        <ele>131.029</ele>
        <time>2022-08-27T10:39:13Z</time>
      </trkpt>
      <trkpt lat="43.498795" lon="-5.362467">
        <ele>131.417</ele>
        <time>2022-08-27T10:39:15Z</time>
      </trkpt>
      <trkpt lat="43.498852" lon="-5.362425">
        <ele>132.197</ele>
        <time>2022-08-27T10:39:17Z</time>
      </trkpt>
      <trkpt lat="43.498905" lon="-5.362378">
        <ele>132.383</ele>
        <time>2022-08-27T10:39:19Z</time>
      </trkpt>
      <trkpt lat="43.498963" lon="-5.362335">
        <ele>133.397</ele>
        <time>2022-08-27T10:39:21Z</time>
      </trkpt>
      <trkpt lat="43.499021" lon="-5.362287">
        <ele>133.774</ele>
        <time>2022-08-27T10:39:23Z</time>
      </trkpt>
      <trkpt lat="43.499078" lon="-5.362234">
        <ele>133.711</ele>
        <time>2022-08-27T10:39:25Z</time>
      </trkpt>
      <trkpt lat="43.499133" lon="-5.362171">
        <ele>133.899</ele>
        <time>2022-08-27T10:39:27Z</time>
      </trkpt>
      <trkpt lat="43.499188" lon="-5.362106">
        <ele>133.707</ele>
        <time>2022-08-27T10:39:29Z</time>
      </trkpt>
      <trkpt lat="43.499240" lon="-5.362034">
        <ele>133.627</ele>
        <time>2022-08-27T10:39:31Z</time>
      </trkpt>
      <trkpt lat="43.499292" lon="-5.361961">
        <ele>133.509</ele>
        <time>2022-08-27T10:39:33Z</time>
      </trkpt>
      <trkpt lat="43.499344" lon="-5.361884">
        <ele>133.520</ele>
        <time>2022-08-27T10:39:35Z</time>
      </trkpt>
      <trkpt lat="43.499394" lon="-5.361802">
        <ele>133.570</ele>
        <time>2022-08-27T10:39:37Z</time>
      </trkpt>
      <trkpt lat="43.499437" lon="-5.361722">
        <ele>133.761</ele>
        <time>2022-08-27T10:39:39Z</time>
      </trkpt>
      <trkpt lat="43.499480" lon="-5.361639">
        <ele>133.959</ele>
        <time>2022-08-27T10:39:41Z</time>
      </trkpt>
      <trkpt lat="43.499520" lon="-5.361564">
        <ele>134.449</ele>
        <time>2022-08-27T10:39:43Z</time>
      </trkpt>
      <trkpt lat="43.499558" lon="-5.361482">
        <ele>135.455</ele>
        <time>2022-08-27T10:39:45Z</time>
      </trkpt>
      <trkpt lat="43.499601" lon="-5.361404">
        <ele>135.419</ele>
        <time>2022-08-27T10:39:47Z</time>
      </trkpt>
      <trkpt lat="43.499639" lon="-5.361327">
        <ele>135.556</ele>
        <time>2022-08-27T10:39:49Z</time>
      </trkpt>
      <trkpt lat="43.499674" lon="-5.361252">
        <ele>135.553</ele>
        <time>2022-08-27T10:39:50Z</time>
      </trkpt>
      <trkpt lat="43.499706" lon="-5.361175">
        <ele>135.896</ele>
        <time>2022-08-27T10:39:52Z</time>
      </trkpt>
      <trkpt lat="43.499743" lon="-5.361110">
        <ele>136.331</ele>
        <time>2022-08-27T10:39:55Z</time>
      </trkpt>
      <trkpt lat="43.499783" lon="-5.361040">
        <ele>136.424</ele>
        <time>2022-08-27T10:39:56Z</time>
      </trkpt>
      <trkpt lat="43.499818" lon="-5.360968">
        <ele>136.809</ele>
        <time>2022-08-27T10:39:59Z</time>
      </trkpt>
      <trkpt lat="43.499855" lon="-5.360895">
        <ele>136.920</ele>
        <time>2022-08-27T10:40:01Z</time>
      </trkpt>
      <trkpt lat="43.499907" lon="-5.360823">
        <ele>136.920</ele>
        <time>2022-08-27T10:40:03Z</time>
      </trkpt>
      <trkpt lat="43.499965" lon="-5.360760">
        <ele>136.281</ele>
        <time>2022-08-27T10:40:05Z</time>
      </trkpt>
      <trkpt lat="43.500023" lon="-5.360700">
        <ele>136.029</ele>
        <time>2022-08-27T10:40:07Z</time>
      </trkpt>
      <trkpt lat="43.500086" lon="-5.360643">
        <ele>136.099</ele>
        <time>2022-08-27T10:40:09Z</time>
      </trkpt>
      <trkpt lat="43.500153" lon="-5.360595">
        <ele>136.235</ele>
        <time>2022-08-27T10:40:10Z</time>
      </trkpt>
      <trkpt lat="43.500225" lon="-5.360557">
        <ele>136.329</ele>
        <time>2022-08-27T10:40:13Z</time>
      </trkpt>
      <trkpt lat="43.500302" lon="-5.360522">
        <ele>136.496</ele>
        <time>2022-08-27T10:40:15Z</time>
      </trkpt>
      <trkpt lat="43.500380" lon="-5.360492">
        <ele>136.383</ele>
        <time>2022-08-27T10:40:17Z</time>
      </trkpt>
      <trkpt lat="43.500453" lon="-5.360460">
        <ele>136.474</ele>
        <time>2022-08-27T10:40:19Z</time>
      </trkpt>
      <trkpt lat="43.500525" lon="-5.360422">
        <ele>136.456</ele>
        <time>2022-08-27T10:40:21Z</time>
      </trkpt>
      <trkpt lat="43.500593" lon="-5.360379">
        <ele>136.621</ele>
        <time>2022-08-27T10:40:23Z</time>
      </trkpt>
      <trkpt lat="43.500661" lon="-5.360334">
        <ele>136.509</ele>
        <time>2022-08-27T10:40:25Z</time>
      </trkpt>
      <trkpt lat="43.500728" lon="-5.360284">
        <ele>136.468</ele>
        <time>2022-08-27T10:40:27Z</time>
      </trkpt>
      <trkpt lat="43.500798" lon="-5.360239">
        <ele>135.568</ele>
        <time>2022-08-27T10:40:29Z</time>
      </trkpt>
      <trkpt lat="43.500863" lon="-5.360181">
        <ele>134.749</ele>
        <time>2022-08-27T10:40:31Z</time>
      </trkpt>
      <trkpt lat="43.500921" lon="-5.360113">
        <ele>133.847</ele>
        <time>2022-08-27T10:40:33Z</time>
      </trkpt>
      <trkpt lat="43.500981" lon="-5.360045">
        <ele>133.597</ele>
        <time>2022-08-27T10:40:35Z</time>
      </trkpt>
      <trkpt lat="43.501043" lon="-5.359972">
        <ele>133.423</ele>
        <time>2022-08-27T10:40:37Z</time>
      </trkpt>
      <trkpt lat="43.501095" lon="-5.359892">
        <ele>133.147</ele>
        <time>2022-08-27T10:40:39Z</time>
      </trkpt>
      <trkpt lat="43.501140" lon="-5.359810">
        <ele>132.384</ele>
        <time>2022-08-27T10:40:41Z</time>
      </trkpt>
      <trkpt lat="43.501183" lon="-5.359732">
        <ele>131.781</ele>
        <time>2022-08-27T10:40:43Z</time>
      </trkpt>
      <trkpt lat="43.501215" lon="-5.359652">
        <ele>131.733</ele>
        <time>2022-08-27T10:40:45Z</time>
      </trkpt>
      <trkpt lat="43.501250" lon="-5.359567">
        <ele>131.723</ele>
        <time>2022-08-27T10:40:47Z</time>
      </trkpt>
      <trkpt lat="43.501277" lon="-5.359492">
        <ele>132.015</ele>
        <time>2022-08-27T10:40:49Z</time>
      </trkpt>
      <trkpt lat="43.501310" lon="-5.359414">
        <ele>132.709</ele>
        <time>2022-08-27T10:40:51Z</time>
      </trkpt>
      <trkpt lat="43.501338" lon="-5.359336">
        <ele>132.824</ele>
        <time>2022-08-27T10:40:53Z</time>
      </trkpt>
      <trkpt lat="43.501373" lon="-5.359261">
        <ele>133.584</ele>
        <time>2022-08-27T10:40:55Z</time>
      </trkpt>
      <trkpt lat="43.501401" lon="-5.359181">
        <ele>134.335</ele>
        <time>2022-08-27T10:40:57Z</time>
      </trkpt>
      <trkpt lat="43.501429" lon="-5.359106">
        <ele>134.973</ele>
        <time>2022-08-27T10:40:59Z</time>
      </trkpt>
      <trkpt lat="43.501459" lon="-5.359026">
        <ele>135.453</ele>
        <time>2022-08-27T10:41:01Z</time>
      </trkpt>
      <trkpt lat="43.501491" lon="-5.358944">
        <ele>135.979</ele>
        <time>2022-08-27T10:41:03Z</time>
      </trkpt>
      <trkpt lat="43.501519" lon="-5.358864">
        <ele>136.343</ele>
        <time>2022-08-27T10:41:05Z</time>
      </trkpt>
      <trkpt lat="43.501542" lon="-5.358782">
        <ele>136.780</ele>
        <time>2022-08-27T10:41:07Z</time>
      </trkpt>
      <trkpt lat="43.501564" lon="-5.358705">
        <ele>136.937</ele>
        <time>2022-08-27T10:41:09Z</time>
      </trkpt>
      <trkpt lat="43.501586" lon="-5.358622">
        <ele>137.168</ele>
        <time>2022-08-27T10:41:11Z</time>
      </trkpt>
      <trkpt lat="43.501609" lon="-5.358540">
        <ele>137.842</ele>
        <time>2022-08-27T10:41:13Z</time>
      </trkpt>
      <trkpt lat="43.501641" lon="-5.358455">
        <ele>138.626</ele>
        <time>2022-08-27T10:41:15Z</time>
      </trkpt>
      <trkpt lat="43.501669" lon="-5.358372">
        <ele>139.309</ele>
        <time>2022-08-27T10:41:17Z</time>
      </trkpt>
      <trkpt lat="43.501701" lon="-5.358289">
        <ele>139.437</ele>
        <time>2022-08-27T10:41:19Z</time>
      </trkpt>
      <trkpt lat="43.501734" lon="-5.358212">
        <ele>140.217</ele>
        <time>2022-08-27T10:41:21Z</time>
      </trkpt>
      <trkpt lat="43.501761" lon="-5.358134">
        <ele>141.078</ele>
        <time>2022-08-27T10:41:23Z</time>
      </trkpt>
      <trkpt lat="43.501791" lon="-5.358056">
        <ele>141.526</ele>
        <time>2022-08-27T10:41:25Z</time>
      </trkpt>
      <trkpt lat="43.501818" lon="-5.357979">
        <ele>142.056</ele>
        <time>2022-08-27T10:41:27Z</time>
      </trkpt>
      <trkpt lat="43.501850" lon="-5.357907">
        <ele>142.622</ele>
        <time>2022-08-27T10:41:29Z</time>
      </trkpt>
      <trkpt lat="43.501877" lon="-5.357837">
        <ele>143.236</ele>
        <time>2022-08-27T10:41:31Z</time>
      </trkpt>
      <trkpt lat="43.501909" lon="-5.357767">
        <ele>143.793</ele>
        <time>2022-08-27T10:41:33Z</time>
      </trkpt>
      <trkpt lat="43.501944" lon="-5.357699">
        <ele>143.980</ele>
        <time>2022-08-27T10:41:35Z</time>
      </trkpt>
      <trkpt lat="43.501982" lon="-5.357629">
        <ele>144.131</ele>
        <time>2022-08-27T10:41:37Z</time>
      </trkpt>
      <trkpt lat="43.502019" lon="-5.357559">
        <ele>144.761</ele>
        <time>2022-08-27T10:41:39Z</time>
      </trkpt>
      <trkpt lat="43.502047" lon="-5.357484">
        <ele>145.407</ele>
        <time>2022-08-27T10:41:41Z</time>
      </trkpt>
      <trkpt lat="43.502070" lon="-5.357409">
        <ele>145.909</ele>
        <time>2022-08-27T10:41:43Z</time>
      </trkpt>
      <trkpt lat="43.502090" lon="-5.357327">
        <ele>146.714</ele>
        <time>2022-08-27T10:41:44Z</time>
      </trkpt>
      <trkpt lat="43.502105" lon="-5.357249">
        <ele>147.314</ele>
        <time>2022-08-27T10:41:47Z</time>
      </trkpt>
      <trkpt lat="43.502117" lon="-5.357164">
        <ele>148.165</ele>
        <time>2022-08-27T10:41:49Z</time>
      </trkpt>
      <trkpt lat="43.502127" lon="-5.357066">
        <ele>148.833</ele>
        <time>2022-08-27T10:41:51Z</time>
      </trkpt>
      <trkpt lat="43.502134" lon="-5.356979">
        <ele>148.893</ele>
        <time>2022-08-27T10:41:53Z</time>
      </trkpt>
      <trkpt lat="43.502146" lon="-5.356894">
        <ele>148.819</ele>
        <time>2022-08-27T10:41:54Z</time>
      </trkpt>
      <trkpt lat="43.502159" lon="-5.356811">
        <ele>148.893</ele>
        <time>2022-08-27T10:41:57Z</time>
      </trkpt>
      <trkpt lat="43.502172" lon="-5.356729">
        <ele>148.830</ele>
        <time>2022-08-27T10:41:59Z</time>
      </trkpt>
      <trkpt lat="43.502189" lon="-5.356651">
        <ele>148.697</ele>
        <time>2022-08-27T10:42:01Z</time>
      </trkpt>
      <trkpt lat="43.502199" lon="-5.356573">
        <ele>148.352</ele>
        <time>2022-08-27T10:42:03Z</time>
      </trkpt>
      <trkpt lat="43.502206" lon="-5.356493">
        <ele>148.353</ele>
        <time>2022-08-27T10:42:05Z</time>
      </trkpt>
      <trkpt lat="43.502208" lon="-5.356413">
        <ele>148.308</ele>
        <time>2022-08-27T10:42:07Z</time>
      </trkpt>
      <trkpt lat="43.502201" lon="-5.356338">
        <ele>148.609</ele>
        <time>2022-08-27T10:42:09Z</time>
      </trkpt>
      <trkpt lat="43.502188" lon="-5.356258">
        <ele>149.666</ele>
        <time>2022-08-27T10:42:11Z</time>
      </trkpt>
      <trkpt lat="43.502175" lon="-5.356183">
        <ele>150.696</ele>
        <time>2022-08-27T10:42:13Z</time>
      </trkpt>
      <trkpt lat="43.502162" lon="-5.356116">
        <ele>151.477</ele>
        <time>2022-08-27T10:42:15Z</time>
      </trkpt>
      <trkpt lat="43.502154" lon="-5.356054">
        <ele>151.965</ele>
        <time>2022-08-27T10:42:17Z</time>
      </trkpt>
      <trkpt lat="43.502161" lon="-5.355987">
        <ele>152.795</ele>
        <time>2022-08-27T10:42:19Z</time>
      </trkpt>
      <trkpt lat="43.502166" lon="-5.355919">
        <ele>153.151</ele>
        <time>2022-08-27T10:42:21Z</time>
      </trkpt>
      <trkpt lat="43.502184" lon="-5.355854">
        <ele>153.445</ele>
        <time>2022-08-27T10:42:23Z</time>
      </trkpt>
      <trkpt lat="43.502217" lon="-5.355801">
        <ele>154.182</ele>
        <time>2022-08-27T10:42:25Z</time>
      </trkpt>
      <trkpt lat="43.502260" lon="-5.355751">
        <ele>155.129</ele>
        <time>2022-08-27T10:42:27Z</time>
      </trkpt>
      <trkpt lat="43.502305" lon="-5.355711">
        <ele>156.284</ele>
        <time>2022-08-27T10:42:29Z</time>
      </trkpt>
      <trkpt lat="43.502357" lon="-5.355678">
        <ele>156.907</ele>
        <time>2022-08-27T10:42:31Z</time>
      </trkpt>
      <trkpt lat="43.502412" lon="-5.355658">
        <ele>157.817</ele>
        <time>2022-08-27T10:42:33Z</time>
      </trkpt>
      <trkpt lat="43.502465" lon="-5.355638">
        <ele>158.909</ele>
        <time>2022-08-27T10:42:35Z</time>
      </trkpt>
      <trkpt lat="43.502518" lon="-5.355620">
        <ele>159.569</ele>
        <time>2022-08-27T10:42:37Z</time>
      </trkpt>
      <trkpt lat="43.502571" lon="-5.355593">
        <ele>159.589</ele>
        <time>2022-08-27T10:42:39Z</time>
      </trkpt>
      <trkpt lat="43.502628" lon="-5.355576">
        <ele>159.550</ele>
        <time>2022-08-27T10:42:41Z</time>
      </trkpt>
      <trkpt lat="43.502680" lon="-5.355558">
        <ele>159.178</ele>
        <time>2022-08-27T10:42:43Z</time>
      </trkpt>
      <trkpt lat="43.502730" lon="-5.355530">
        <ele>157.938</ele>
        <time>2022-08-27T10:42:45Z</time>
      </trkpt>
      <trkpt lat="43.502785" lon="-5.355498">
        <ele>157.224</ele>
        <time>2022-08-27T10:42:47Z</time>
      </trkpt>
      <trkpt lat="43.502835" lon="-5.355463">
        <ele>157.088</ele>
        <time>2022-08-27T10:42:49Z</time>
      </trkpt>
      <trkpt lat="43.502882" lon="-5.355418">
        <ele>157.035</ele>
        <time>2022-08-27T10:42:51Z</time>
      </trkpt>
      <trkpt lat="43.502922" lon="-5.355366">
        <ele>157.172</ele>
        <time>2022-08-27T10:42:53Z</time>
      </trkpt>
      <trkpt lat="43.502959" lon="-5.355313">
        <ele>157.974</ele>
        <time>2022-08-27T10:42:55Z</time>
      </trkpt>
      <trkpt lat="43.502994" lon="-5.355250">
        <ele>158.356</ele>
        <time>2022-08-27T10:42:57Z</time>
      </trkpt>
      <trkpt lat="43.503026" lon="-5.355180">
        <ele>158.821</ele>
        <time>2022-08-27T10:42:59Z</time>
      </trkpt>
      <trkpt lat="43.503058" lon="-5.355110">
        <ele>159.509</ele>
        <time>2022-08-27T10:43:01Z</time>
      </trkpt>
      <trkpt lat="43.503083" lon="-5.355040">
        <ele>160.538</ele>
        <time>2022-08-27T10:43:02Z</time>
      </trkpt>
      <trkpt lat="43.503100" lon="-5.354968">
        <ele>161.378</ele>
        <time>2022-08-27T10:43:05Z</time>
      </trkpt>
      <trkpt lat="43.503118" lon="-5.354900">
        <ele>162.459</ele>
        <time>2022-08-27T10:43:07Z</time>
      </trkpt>
      <trkpt lat="43.503128" lon="-5.354828">
        <ele>163.027</ele>
        <time>2022-08-27T10:43:09Z</time>
      </trkpt>
      <trkpt lat="43.503140" lon="-5.354758">
        <ele>163.367</ele>
        <time>2022-08-27T10:43:11Z</time>
      </trkpt>
      <trkpt lat="43.503153" lon="-5.354691">
        <ele>163.433</ele>
        <time>2022-08-27T10:43:13Z</time>
      </trkpt>
      <trkpt lat="43.503168" lon="-5.354623">
        <ele>163.657</ele>
        <time>2022-08-27T10:43:15Z</time>
      </trkpt>
      <trkpt lat="43.503183" lon="-5.354561">
        <ele>163.634</ele>
        <time>2022-08-27T10:43:17Z</time>
      </trkpt>
      <trkpt lat="43.503195" lon="-5.354499">
        <ele>163.731</ele>
        <time>2022-08-27T10:43:19Z</time>
      </trkpt>
      <trkpt lat="43.503210" lon="-5.354439">
        <ele>164.013</ele>
        <time>2022-08-27T10:43:21Z</time>
      </trkpt>
      <trkpt lat="43.503220" lon="-5.354376">
        <ele>164.343</ele>
        <time>2022-08-27T10:43:23Z</time>
      </trkpt>
      <trkpt lat="43.503233" lon="-5.354314">
        <ele>164.607</ele>
        <time>2022-08-27T10:43:25Z</time>
      </trkpt>
      <trkpt lat="43.503246" lon="-5.354222">
        <ele>164.709</ele>
        <time>2022-08-27T10:43:28Z</time>
      </trkpt>
      <trkpt lat="43.503264" lon="-5.354154">
        <ele>164.822</ele>
        <time>2022-08-27T10:43:30Z</time>
      </trkpt>
      <trkpt lat="43.503279" lon="-5.354087">
        <ele>164.972</ele>
        <time>2022-08-27T10:43:32Z</time>
      </trkpt>
      <trkpt lat="43.503299" lon="-5.354015">
        <ele>165.243</ele>
        <time>2022-08-27T10:43:34Z</time>
      </trkpt>
      <trkpt lat="43.503316" lon="-5.353947">
        <ele>165.481</ele>
        <time>2022-08-27T10:43:36Z</time>
      </trkpt>
      <trkpt lat="43.503328" lon="-5.353875">
        <ele>165.781</ele>
        <time>2022-08-27T10:43:38Z</time>
      </trkpt>
      <trkpt lat="43.503341" lon="-5.353803">
        <ele>166.387</ele>
        <time>2022-08-27T10:43:40Z</time>
      </trkpt>
      <trkpt lat="43.503349" lon="-5.353725">
        <ele>166.621</ele>
        <time>2022-08-27T10:43:42Z</time>
      </trkpt>
      <trkpt lat="43.503359" lon="-5.353650">
        <ele>167.398</ele>
        <time>2022-08-27T10:43:44Z</time>
      </trkpt>
      <trkpt lat="43.503366" lon="-5.353577">
        <ele>167.965</ele>
        <time>2022-08-27T10:43:46Z</time>
      </trkpt>
      <trkpt lat="43.503373" lon="-5.353507">
        <ele>168.093</ele>
        <time>2022-08-27T10:43:48Z</time>
      </trkpt>
      <trkpt lat="43.503381" lon="-5.353437">
        <ele>168.265</ele>
        <time>2022-08-27T10:43:50Z</time>
      </trkpt>
      <trkpt lat="43.503394" lon="-5.353362">
        <ele>168.221</ele>
        <time>2022-08-27T10:43:52Z</time>
      </trkpt>
      <trkpt lat="43.503404" lon="-5.353284">
        <ele>168.309</ele>
        <time>2022-08-27T10:43:54Z</time>
      </trkpt>
      <trkpt lat="43.503412" lon="-5.353206">
        <ele>168.760</ele>
        <time>2022-08-27T10:43:56Z</time>
      </trkpt>
      <trkpt lat="43.503420" lon="-5.353128">
        <ele>169.010</ele>
        <time>2022-08-27T10:43:58Z</time>
      </trkpt>
      <trkpt lat="43.503427" lon="-5.353046">
        <ele>169.321</ele>
        <time>2022-08-27T10:44:00Z</time>
      </trkpt>
      <trkpt lat="43.503432" lon="-5.352969">
        <ele>169.639</ele>
        <time>2022-08-27T10:44:02Z</time>
      </trkpt>
      <trkpt lat="43.503435" lon="-5.352896">
        <ele>169.989</ele>
        <time>2022-08-27T10:44:04Z</time>
      </trkpt>
      <trkpt lat="43.503440" lon="-5.352821">
        <ele>170.075</ele>
        <time>2022-08-27T10:44:06Z</time>
      </trkpt>
      <trkpt lat="43.503437" lon="-5.352748">
        <ele>170.279</ele>
        <time>2022-08-27T10:44:08Z</time>
      </trkpt>
      <trkpt lat="43.503437" lon="-5.352675">
        <ele>170.456</ele>
        <time>2022-08-27T10:44:10Z</time>
      </trkpt>
      <trkpt lat="43.503440" lon="-5.352607">
        <ele>170.673</ele>
        <time>2022-08-27T10:44:12Z</time>
      </trkpt>
      <trkpt lat="43.503443" lon="-5.352535">
        <ele>171.426</ele>
        <time>2022-08-27T10:44:14Z</time>
      </trkpt>
      <trkpt lat="43.503441" lon="-5.352448">
        <ele>172.247</ele>
        <time>2022-08-27T10:44:16Z</time>
      </trkpt>
      <trkpt lat="43.503449" lon="-5.352368">
        <ele>172.311</ele>
        <time>2022-08-27T10:44:18Z</time>
      </trkpt>
      <trkpt lat="43.503449" lon="-5.352300">
        <ele>172.609</ele>
        <time>2022-08-27T10:44:20Z</time>
      </trkpt>
      <trkpt lat="43.503446" lon="-5.352232">
        <ele>172.923</ele>
        <time>2022-08-27T10:44:22Z</time>
      </trkpt>
      <trkpt lat="43.503443" lon="-5.352164">
        <ele>173.233</ele>
        <time>2022-08-27T10:44:24Z</time>
      </trkpt>
      <trkpt lat="43.503440" lon="-5.352092">
        <ele>173.364</ele>
        <time>2022-08-27T10:44:26Z</time>
      </trkpt>
      <trkpt lat="43.503438" lon="-5.352019">
        <ele>173.552</ele>
        <time>2022-08-27T10:44:28Z</time>
      </trkpt>
      <trkpt lat="43.503435" lon="-5.351946">
        <ele>174.022</ele>
        <time>2022-08-27T10:44:30Z</time>
      </trkpt>
      <trkpt lat="43.503433" lon="-5.351876">
        <ele>174.278</ele>
        <time>2022-08-27T10:44:32Z</time>
      </trkpt>
      <trkpt lat="43.503433" lon="-5.351806">
        <ele>174.542</ele>
        <time>2022-08-27T10:44:34Z</time>
      </trkpt>
      <trkpt lat="43.503431" lon="-5.351733">
        <ele>174.699</ele>
        <time>2022-08-27T10:44:36Z</time>
      </trkpt>
      <trkpt lat="43.503429" lon="-5.351663">
        <ele>174.946</ele>
        <time>2022-08-27T10:44:38Z</time>
      </trkpt>
      <trkpt lat="43.503429" lon="-5.351591">
        <ele>175.183</ele>
        <time>2022-08-27T10:44:40Z</time>
      </trkpt>
      <trkpt lat="43.503429" lon="-5.351518">
        <ele>175.425</ele>
        <time>2022-08-27T10:44:42Z</time>
      </trkpt>
      <trkpt lat="43.503427" lon="-5.351446">
        <ele>175.617</ele>
        <time>2022-08-27T10:44:44Z</time>
      </trkpt>
      <trkpt lat="43.503422" lon="-5.351379">
        <ele>176.009</ele>
        <time>2022-08-27T10:44:46Z</time>
      </trkpt>
      <trkpt lat="43.503422" lon="-5.351286">
        <ele>176.129</ele>
        <time>2022-08-27T10:44:49Z</time>
      </trkpt>
      <trkpt lat="43.503414" lon="-5.351224">
        <ele>176.359</ele>
        <time>2022-08-27T10:44:51Z</time>
      </trkpt>
      <trkpt lat="43.503406" lon="-5.351161">
        <ele>176.370</ele>
        <time>2022-08-27T10:44:53Z</time>
      </trkpt>
      <trkpt lat="43.503401" lon="-5.351093">
        <ele>176.388</ele>
        <time>2022-08-27T10:44:55Z</time>
      </trkpt>
      <trkpt lat="43.503391" lon="-5.351028">
        <ele>176.348</ele>
        <time>2022-08-27T10:44:57Z</time>
      </trkpt>
      <trkpt lat="43.503388" lon="-5.350955">
        <ele>176.634</ele>
        <time>2022-08-27T10:44:59Z</time>
      </trkpt>
      <trkpt lat="43.503383" lon="-5.350880">
        <ele>176.798</ele>
        <time>2022-08-27T10:45:01Z</time>
      </trkpt>
      <trkpt lat="43.503378" lon="-5.350803">
        <ele>177.225</ele>
        <time>2022-08-27T10:45:03Z</time>
      </trkpt>
      <trkpt lat="43.503371" lon="-5.350726">
        <ele>177.252</ele>
        <time>2022-08-27T10:45:05Z</time>
      </trkpt>
      <trkpt lat="43.503361" lon="-5.350649">
        <ele>177.316</ele>
        <time>2022-08-27T10:45:07Z</time>
      </trkpt>
      <trkpt lat="43.503356" lon="-5.350574">
        <ele>177.576</ele>
        <time>2022-08-27T10:45:09Z</time>
      </trkpt>
      <trkpt lat="43.503346" lon="-5.350504">
        <ele>177.713</ele>
        <time>2022-08-27T10:45:11Z</time>
      </trkpt>
      <trkpt lat="43.503333" lon="-5.350427">
        <ele>178.509</ele>
        <time>2022-08-27T10:45:13Z</time>
      </trkpt>
      <trkpt lat="43.503318" lon="-5.350357">
        <ele>178.782</ele>
        <time>2022-08-27T10:45:15Z</time>
      </trkpt>
      <trkpt lat="43.503298" lon="-5.350292">
        <ele>179.582</ele>
        <time>2022-08-27T10:45:17Z</time>
      </trkpt>
      <trkpt lat="43.503280" lon="-5.350230">
        <ele>179.893</ele>
        <time>2022-08-27T10:45:19Z</time>
      </trkpt>
      <trkpt lat="43.503260" lon="-5.350160">
        <ele>179.881</ele>
        <time>2022-08-27T10:45:21Z</time>
      </trkpt>
      <trkpt lat="43.503240" lon="-5.350092">
        <ele>179.841</ele>
        <time>2022-08-27T10:45:23Z</time>
      </trkpt>
      <trkpt lat="43.503223" lon="-5.350030">
        <ele>179.717</ele>
        <time>2022-08-27T10:45:25Z</time>
      </trkpt>
      <trkpt lat="43.503203" lon="-5.349970">
        <ele>179.741</ele>
        <time>2022-08-27T10:45:27Z</time>
      </trkpt>
      <trkpt lat="43.503186" lon="-5.349905">
        <ele>179.618</ele>
        <time>2022-08-27T10:45:29Z</time>
      </trkpt>
      <trkpt lat="43.503164" lon="-5.349842">
        <ele>179.665</ele>
        <time>2022-08-27T10:45:31Z</time>
      </trkpt>
      <trkpt lat="43.503139" lon="-5.349779">
        <ele>179.661</ele>
        <time>2022-08-27T10:45:33Z</time>
      </trkpt>
      <trkpt lat="43.503112" lon="-5.349719">
        <ele>179.621</ele>
        <time>2022-08-27T10:45:35Z</time>
      </trkpt>
      <trkpt lat="43.503087" lon="-5.349664">
        <ele>179.813</ele>
        <time>2022-08-27T10:45:37Z</time>
      </trkpt>
      <trkpt lat="43.503060" lon="-5.349609">
        <ele>179.809</ele>
        <time>2022-08-27T10:45:39Z</time>
      </trkpt>
      <trkpt lat="43.503025" lon="-5.349556">
        <ele>180.047</ele>
        <time>2022-08-27T10:45:41Z</time>
      </trkpt>
      <trkpt lat="43.502990" lon="-5.349506">
        <ele>180.177</ele>
        <time>2022-08-27T10:45:43Z</time>
      </trkpt>
      <trkpt lat="43.502938" lon="-5.349461">
        <ele>180.358</ele>
        <time>2022-08-27T10:45:45Z</time>
      </trkpt>
      <trkpt lat="43.502886" lon="-5.349423">
        <ele>180.736</ele>
        <time>2022-08-27T10:45:47Z</time>
      </trkpt>
      <trkpt lat="43.502833" lon="-5.349395">
        <ele>181.466</ele>
        <time>2022-08-27T10:45:49Z</time>
      </trkpt>
      <trkpt lat="43.502776" lon="-5.349378">
        <ele>181.842</ele>
        <time>2022-08-27T10:45:51Z</time>
      </trkpt>
      <trkpt lat="43.502724" lon="-5.349368">
        <ele>182.036</ele>
        <time>2022-08-27T10:45:53Z</time>
      </trkpt>
      <trkpt lat="43.502674" lon="-5.349360">
        <ele>182.463</ele>
        <time>2022-08-27T10:45:55Z</time>
      </trkpt>
      <trkpt lat="43.502622" lon="-5.349357">
        <ele>182.710</ele>
        <time>2022-08-27T10:45:57Z</time>
      </trkpt>
      <trkpt lat="43.502572" lon="-5.349352">
        <ele>183.047</ele>
        <time>2022-08-27T10:45:59Z</time>
      </trkpt>
      <trkpt lat="43.502517" lon="-5.349342">
        <ele>183.629</ele>
        <time>2022-08-27T10:46:01Z</time>
      </trkpt>
      <trkpt lat="43.502469" lon="-5.349324">
        <ele>183.921</ele>
        <time>2022-08-27T10:46:03Z</time>
      </trkpt>
      <trkpt lat="43.502424" lon="-5.349306">
        <ele>184.209</ele>
        <time>2022-08-27T10:46:05Z</time>
      </trkpt>
      <trkpt lat="43.502379" lon="-5.349281">
        <ele>185.155</ele>
        <time>2022-08-27T10:46:07Z</time>
      </trkpt>
      <trkpt lat="43.502332" lon="-5.349249">
        <ele>185.525</ele>
        <time>2022-08-27T10:46:09Z</time>
      </trkpt>
      <trkpt lat="43.502289" lon="-5.349206">
        <ele>185.716</ele>
        <time>2022-08-27T10:46:11Z</time>
      </trkpt>
      <trkpt lat="43.502241" lon="-5.349161">
        <ele>185.794</ele>
        <time>2022-08-27T10:46:13Z</time>
      </trkpt>
      <trkpt lat="43.502191" lon="-5.349111">
        <ele>185.824</ele>
        <time>2022-08-27T10:46:15Z</time>
      </trkpt>
      <trkpt lat="43.502139" lon="-5.349061">
        <ele>185.830</ele>
        <time>2022-08-27T10:46:17Z</time>
      </trkpt>
      <trkpt lat="43.502094" lon="-5.349006">
        <ele>186.324</ele>
        <time>2022-08-27T10:46:19Z</time>
      </trkpt>
      <trkpt lat="43.502046" lon="-5.348953">
        <ele>186.741</ele>
        <time>2022-08-27T10:46:21Z</time>
      </trkpt>
      <trkpt lat="43.502004" lon="-5.348905">
        <ele>187.228</ele>
        <time>2022-08-27T10:46:23Z</time>
      </trkpt>
      <trkpt lat="43.501971" lon="-5.348860">
        <ele>187.561</ele>
        <time>2022-08-27T10:46:25Z</time>
      </trkpt>
      <trkpt lat="43.501936" lon="-5.348805">
        <ele>187.821</ele>
        <time>2022-08-27T10:46:27Z</time>
      </trkpt>
      <trkpt lat="43.501906" lon="-5.348743">
        <ele>188.013</ele>
        <time>2022-08-27T10:46:29Z</time>
      </trkpt>
      <trkpt lat="43.501893" lon="-5.348675">
        <ele>188.009</ele>
        <time>2022-08-27T10:46:31Z</time>
      </trkpt>
      <trkpt lat="43.501890" lon="-5.348605">
        <ele>188.257</ele>
        <time>2022-08-27T10:46:33Z</time>
      </trkpt>
      <trkpt lat="43.501898" lon="-5.348537">
        <ele>188.527</ele>
        <time>2022-08-27T10:46:35Z</time>
      </trkpt>
      <trkpt lat="43.501921" lon="-5.348474">
        <ele>188.788</ele>
        <time>2022-08-27T10:46:37Z</time>
      </trkpt>
      <trkpt lat="43.501956" lon="-5.348414">
        <ele>189.156</ele>
        <time>2022-08-27T10:46:39Z</time>
      </trkpt>
      <trkpt lat="43.501996" lon="-5.348352">
        <ele>189.226</ele>
        <time>2022-08-27T10:46:41Z</time>
      </trkpt>
      <trkpt lat="43.502034" lon="-5.348294">
        <ele>189.812</ele>
        <time>2022-08-27T10:46:43Z</time>
      </trkpt>
      <trkpt lat="43.502081" lon="-5.348242">
        <ele>190.946</ele>
        <time>2022-08-27T10:46:45Z</time>
      </trkpt>
      <trkpt lat="43.502129" lon="-5.348187">
        <ele>191.683</ele>
        <time>2022-08-27T10:46:47Z</time>
      </trkpt>
      <trkpt lat="43.502179" lon="-5.348130">
        <ele>192.140</ele>
        <time>2022-08-27T10:46:49Z</time>
      </trkpt>
      <trkpt lat="43.502232" lon="-5.348073">
        <ele>192.244</ele>
        <time>2022-08-27T10:46:51Z</time>
      </trkpt>
      <trkpt lat="43.502277" lon="-5.348016">
        <ele>192.505</ele>
        <time>2022-08-27T10:46:53Z</time>
      </trkpt>
      <trkpt lat="43.502324" lon="-5.347949">
        <ele>192.615</ele>
        <time>2022-08-27T10:46:55Z</time>
      </trkpt>
      <trkpt lat="43.502371" lon="-5.347887">
        <ele>192.709</ele>
        <time>2022-08-27T10:46:57Z</time>
      </trkpt>
      <trkpt lat="43.502419" lon="-5.347832">
        <ele>192.885</ele>
        <time>2022-08-27T10:46:59Z</time>
      </trkpt>
      <trkpt lat="43.502467" lon="-5.347770">
        <ele>193.035</ele>
        <time>2022-08-27T10:47:01Z</time>
      </trkpt>
      <trkpt lat="43.502515" lon="-5.347708">
        <ele>193.146</ele>
        <time>2022-08-27T10:47:03Z</time>
      </trkpt>
      <trkpt lat="43.502563" lon="-5.347646">
        <ele>193.514</ele>
        <time>2022-08-27T10:47:05Z</time>
      </trkpt>
      <trkpt lat="43.502608" lon="-5.347583">
        <ele>193.754</ele>
        <time>2022-08-27T10:47:07Z</time>
      </trkpt>
      <trkpt lat="43.502655" lon="-5.347523">
        <ele>194.240</ele>
        <time>2022-08-27T10:47:09Z</time>
      </trkpt>
      <trkpt lat="43.502702" lon="-5.347460">
        <ele>194.214</ele>
        <time>2022-08-27T10:47:11Z</time>
      </trkpt>
      <trkpt lat="43.502745" lon="-5.347402">
        <ele>194.271</ele>
        <time>2022-08-27T10:47:13Z</time>
      </trkpt>
      <trkpt lat="43.502790" lon="-5.347344">
        <ele>194.118</ele>
        <time>2022-08-27T10:47:15Z</time>
      </trkpt>
      <trkpt lat="43.502832" lon="-5.347282">
        <ele>193.968</ele>
        <time>2022-08-27T10:47:17Z</time>
      </trkpt>
      <trkpt lat="43.502872" lon="-5.347215">
        <ele>193.942</ele>
        <time>2022-08-27T10:47:19Z</time>
      </trkpt>
      <trkpt lat="43.502909" lon="-5.347145">
        <ele>193.926</ele>
        <time>2022-08-27T10:47:21Z</time>
      </trkpt>
      <trkpt lat="43.502939" lon="-5.347072">
        <ele>193.909</ele>
        <time>2022-08-27T10:47:23Z</time>
      </trkpt>
      <trkpt lat="43.502964" lon="-5.346995">
        <ele>194.397</ele>
        <time>2022-08-27T10:47:25Z</time>
      </trkpt>
      <trkpt lat="43.502986" lon="-5.346922">
        <ele>194.997</ele>
        <time>2022-08-27T10:47:27Z</time>
      </trkpt>
      <trkpt lat="43.503013" lon="-5.346849">
        <ele>195.278</ele>
        <time>2022-08-27T10:47:29Z</time>
      </trkpt>
      <trkpt lat="43.503038" lon="-5.346774">
        <ele>195.496</ele>
        <time>2022-08-27T10:47:31Z</time>
      </trkpt>
      <trkpt lat="43.503066" lon="-5.346702">
        <ele>195.996</ele>
        <time>2022-08-27T10:47:33Z</time>
      </trkpt>
      <trkpt lat="43.503096" lon="-5.346634">
        <ele>196.512</ele>
        <time>2022-08-27T10:47:34Z</time>
      </trkpt>
      <trkpt lat="43.503131" lon="-5.346566">
        <ele>196.886</ele>
        <time>2022-08-27T10:47:37Z</time>
      </trkpt>
      <trkpt lat="43.503164" lon="-5.346503">
        <ele>197.563</ele>
        <time>2022-08-27T10:47:39Z</time>
      </trkpt>
      <trkpt lat="43.503197" lon="-5.346438">
        <ele>198.080</ele>
        <time>2022-08-27T10:47:41Z</time>
      </trkpt>
      <trkpt lat="43.503235" lon="-5.346366">
        <ele>198.375</ele>
        <time>2022-08-27T10:47:43Z</time>
      </trkpt>
      <trkpt lat="43.503265" lon="-5.346289">
        <ele>198.428</ele>
        <time>2022-08-27T10:47:45Z</time>
      </trkpt>
      <trkpt lat="43.503295" lon="-5.346209">
        <ele>198.420</ele>
        <time>2022-08-27T10:47:47Z</time>
      </trkpt>
      <trkpt lat="43.503322" lon="-5.346129">
        <ele>198.509</ele>
        <time>2022-08-27T10:47:49Z</time>
      </trkpt>
      <trkpt lat="43.503347" lon="-5.346052">
        <ele>199.018</ele>
        <time>2022-08-27T10:47:51Z</time>
      </trkpt>
      <trkpt lat="43.503365" lon="-5.345977">
        <ele>199.258</ele>
        <time>2022-08-27T10:47:53Z</time>
      </trkpt>
      <trkpt lat="43.503390" lon="-5.345895">
        <ele>199.499</ele>
        <time>2022-08-27T10:47:55Z</time>
      </trkpt>
      <trkpt lat="43.503410" lon="-5.345822">
        <ele>199.967</ele>
        <time>2022-08-27T10:47:57Z</time>
      </trkpt>
      <trkpt lat="43.503433" lon="-5.345742">
        <ele>200.687</ele>
        <time>2022-08-27T10:47:59Z</time>
      </trkpt>
      <trkpt lat="43.503458" lon="-5.345664">
        <ele>201.983</ele>
        <time>2022-08-27T10:48:01Z</time>
      </trkpt>
      <trkpt lat="43.503476" lon="-5.345587">
        <ele>202.377</ele>
        <time>2022-08-27T10:48:03Z</time>
      </trkpt>
      <trkpt lat="43.503491" lon="-5.345510">
        <ele>202.714</ele>
        <time>2022-08-27T10:48:05Z</time>
      </trkpt>
      <trkpt lat="43.503511" lon="-5.345425">
        <ele>203.461</ele>
        <time>2022-08-27T10:48:07Z</time>
      </trkpt>
      <trkpt lat="43.503541" lon="-5.345340">
        <ele>203.758</ele>
        <time>2022-08-27T10:48:09Z</time>
      </trkpt>
      <trkpt lat="43.503558" lon="-5.345258">
        <ele>204.952</ele>
        <time>2022-08-27T10:48:11Z</time>
      </trkpt>
      <trkpt lat="43.503570" lon="-5.345176">
        <ele>205.917</ele>
        <time>2022-08-27T10:48:13Z</time>
      </trkpt>
      <trkpt lat="43.503588" lon="-5.345098">
        <ele>206.909</ele>
        <time>2022-08-27T10:48:15Z</time>
      </trkpt>
      <trkpt lat="43.503605" lon="-5.345020">
        <ele>208.476</ele>
        <time>2022-08-27T10:48:17Z</time>
      </trkpt>
      <trkpt lat="43.503613" lon="-5.344938">
        <ele>208.986</ele>
        <time>2022-08-27T10:48:19Z</time>
      </trkpt>
      <trkpt lat="43.503616" lon="-5.344858">
        <ele>209.767</ele>
        <time>2022-08-27T10:48:21Z</time>
      </trkpt>
      <trkpt lat="43.503616" lon="-5.344781">
        <ele>209.735</ele>
        <time>2022-08-27T10:48:23Z</time>
      </trkpt>
      <trkpt lat="43.503613" lon="-5.344709">
        <ele>209.775</ele>
        <time>2022-08-27T10:48:25Z</time>
      </trkpt>
      <trkpt lat="43.503610" lon="-5.344626">
        <ele>209.791</ele>
        <time>2022-08-27T10:48:27Z</time>
      </trkpt>
      <trkpt lat="43.503608" lon="-5.344539">
        <ele>209.525</ele>
        <time>2022-08-27T10:48:29Z</time>
      </trkpt>
      <trkpt lat="43.503613" lon="-5.344452">
        <ele>209.312</ele>
        <time>2022-08-27T10:48:31Z</time>
      </trkpt>
      <trkpt lat="43.503615" lon="-5.344367">
        <ele>209.359</ele>
        <time>2022-08-27T10:48:33Z</time>
      </trkpt>
      <trkpt lat="43.503612" lon="-5.344287">
        <ele>209.474</ele>
        <time>2022-08-27T10:48:35Z</time>
      </trkpt>
      <trkpt lat="43.503617" lon="-5.344205">
        <ele>209.956</ele>
        <time>2022-08-27T10:48:37Z</time>
      </trkpt>
      <trkpt lat="43.503619" lon="-5.344120">
        <ele>210.021</ele>
        <time>2022-08-27T10:48:39Z</time>
      </trkpt>
      <trkpt lat="43.503621" lon="-5.344040">
        <ele>210.109</ele>
        <time>2022-08-27T10:48:41Z</time>
      </trkpt>
      <trkpt lat="43.503631" lon="-5.343962">
        <ele>210.138</ele>
        <time>2022-08-27T10:48:43Z</time>
      </trkpt>
      <trkpt lat="43.503643" lon="-5.343874">
        <ele>210.658</ele>
        <time>2022-08-27T10:48:45Z</time>
      </trkpt>
      <trkpt lat="43.503655" lon="-5.343792">
        <ele>211.579</ele>
        <time>2022-08-27T10:48:47Z</time>
      </trkpt>
      <trkpt lat="43.503672" lon="-5.343729">
        <ele>211.637</ele>
        <time>2022-08-27T10:48:49Z</time>
      </trkpt>
      <trkpt lat="43.503694" lon="-5.343674">
        <ele>211.667</ele>
        <time>2022-08-27T10:48:51Z</time>
      </trkpt>
      <trkpt lat="43.503719" lon="-5.343616">
        <ele>211.573</ele>
        <time>2022-08-27T10:48:53Z</time>
      </trkpt>
      <trkpt lat="43.503746" lon="-5.343554">
        <ele>211.137</ele>
        <time>2022-08-27T10:48:55Z</time>
      </trkpt>
      <trkpt lat="43.503774" lon="-5.343497">
        <ele>210.734</ele>
        <time>2022-08-27T10:48:57Z</time>
      </trkpt>
      <trkpt lat="43.503804" lon="-5.343440">
        <ele>210.411</ele>
        <time>2022-08-27T10:48:59Z</time>
      </trkpt>
      <trkpt lat="43.503834" lon="-5.343383">
        <ele>210.178</ele>
        <time>2022-08-27T10:49:01Z</time>
      </trkpt>
      <trkpt lat="43.503864" lon="-5.343321">
        <ele>209.933</ele>
        <time>2022-08-27T10:49:03Z</time>
      </trkpt>
      <trkpt lat="43.503897" lon="-5.343259">
        <ele>209.926</ele>
        <time>2022-08-27T10:49:05Z</time>
      </trkpt>
      <trkpt lat="43.503929" lon="-5.343197">
        <ele>209.709</ele>
        <time>2022-08-27T10:49:07Z</time>
      </trkpt>
      <trkpt lat="43.503957" lon="-5.343129">
        <ele>209.738</ele>
        <time>2022-08-27T10:49:09Z</time>
      </trkpt>
      <trkpt lat="43.503984" lon="-5.343061">
        <ele>209.748</ele>
        <time>2022-08-27T10:49:11Z</time>
      </trkpt>
      <trkpt lat="43.504007" lon="-5.342988">
        <ele>209.929</ele>
        <time>2022-08-27T10:49:13Z</time>
      </trkpt>
      <trkpt lat="43.504015" lon="-5.342913">
        <ele>209.937</ele>
        <time>2022-08-27T10:49:15Z</time>
      </trkpt>
      <trkpt lat="43.504017" lon="-5.342838">
        <ele>210.367</ele>
        <time>2022-08-27T10:49:17Z</time>
      </trkpt>
      <trkpt lat="43.504015" lon="-5.342768">
        <ele>210.443</ele>
        <time>2022-08-27T10:49:19Z</time>
      </trkpt>
      <trkpt lat="43.504008" lon="-5.342700">
        <ele>210.777</ele>
        <time>2022-08-27T10:49:21Z</time>
      </trkpt>
      <trkpt lat="43.504001" lon="-5.342633">
        <ele>210.994</ele>
        <time>2022-08-27T10:49:23Z</time>
      </trkpt>
      <trkpt lat="43.503991" lon="-5.342558">
        <ele>211.361</ele>
        <time>2022-08-27T10:49:25Z</time>
      </trkpt>
      <trkpt lat="43.503986" lon="-5.342486">
        <ele>211.491</ele>
        <time>2022-08-27T10:49:27Z</time>
      </trkpt>
      <trkpt lat="43.503979" lon="-5.342413">
        <ele>211.481</ele>
        <time>2022-08-27T10:49:29Z</time>
      </trkpt>
      <trkpt lat="43.503974" lon="-5.342343">
        <ele>211.319</ele>
        <time>2022-08-27T10:49:31Z</time>
      </trkpt>
      <trkpt lat="43.503969" lon="-5.342245">
        <ele>211.409</ele>
        <time>2022-08-27T10:49:34Z</time>
      </trkpt>
      <trkpt lat="43.503969" lon="-5.342162">
        <ele>211.460</ele>
        <time>2022-08-27T10:49:36Z</time>
      </trkpt>
      <trkpt lat="43.503987" lon="-5.342085">
        <ele>211.620</ele>
        <time>2022-08-27T10:49:38Z</time>
      </trkpt>
      <trkpt lat="43.504015" lon="-5.342015">
        <ele>212.331</ele>
        <time>2022-08-27T10:49:40Z</time>
      </trkpt>
      <trkpt lat="43.504047" lon="-5.341950">
        <ele>213.119</ele>
        <time>2022-08-27T10:49:42Z</time>
      </trkpt>
      <trkpt lat="43.504082" lon="-5.341888">
        <ele>214.099</ele>
        <time>2022-08-27T10:49:44Z</time>
      </trkpt>
      <trkpt lat="43.504117" lon="-5.341821">
        <ele>214.585</ele>
        <time>2022-08-27T10:49:46Z</time>
      </trkpt>
      <trkpt lat="43.504154" lon="-5.341753">
        <ele>214.979</ele>
        <time>2022-08-27T10:49:48Z</time>
      </trkpt>
      <trkpt lat="43.504191" lon="-5.341685">
        <ele>215.276</ele>
        <time>2022-08-27T10:49:50Z</time>
      </trkpt>
      <trkpt lat="43.504224" lon="-5.341615">
        <ele>215.343</ele>
        <time>2022-08-27T10:49:52Z</time>
      </trkpt>
      <trkpt lat="43.504257" lon="-5.341547">
        <ele>215.232</ele>
        <time>2022-08-27T10:49:54Z</time>
      </trkpt>
      <trkpt lat="43.504297" lon="-5.341480">
        <ele>215.292</ele>
        <time>2022-08-27T10:49:56Z</time>
      </trkpt>
      <trkpt lat="43.504335" lon="-5.341412">
        <ele>215.211</ele>
        <time>2022-08-27T10:49:58Z</time>
      </trkpt>
      <trkpt lat="43.504375" lon="-5.341339">
        <ele>215.509</ele>
        <time>2022-08-27T10:50:00Z</time>
      </trkpt>
      <trkpt lat="43.504420" lon="-5.341261">
        <ele>215.744</ele>
        <time>2022-08-27T10:50:02Z</time>
      </trkpt>
      <trkpt lat="43.504462" lon="-5.341186">
        <ele>215.754</ele>
        <time>2022-08-27T10:50:04Z</time>
      </trkpt>
      <trkpt lat="43.504504" lon="-5.341108">
        <ele>215.635</ele>
        <time>2022-08-27T10:50:06Z</time>
      </trkpt>
      <trkpt lat="43.504547" lon="-5.341030">
        <ele>215.423</ele>
        <time>2022-08-27T10:50:08Z</time>
      </trkpt>
      <trkpt lat="43.504592" lon="-5.340948">
        <ele>215.433</ele>
        <time>2022-08-27T10:50:10Z</time>
      </trkpt>
      <trkpt lat="43.504640" lon="-5.340865">
        <ele>215.399</ele>
        <time>2022-08-27T10:50:12Z</time>
      </trkpt>
      <trkpt lat="43.504685" lon="-5.340785">
        <ele>215.073</ele>
        <time>2022-08-27T10:50:14Z</time>
      </trkpt>
      <trkpt lat="43.504730" lon="-5.340702">
        <ele>214.940</ele>
        <time>2022-08-27T10:50:16Z</time>
      </trkpt>
      <trkpt lat="43.504780" lon="-5.340612">
        <ele>214.927</ele>
        <time>2022-08-27T10:50:18Z</time>
      </trkpt>
      <trkpt lat="43.504825" lon="-5.340529">
        <ele>215.785</ele>
        <time>2022-08-27T10:50:20Z</time>
      </trkpt>
      <trkpt lat="43.504875" lon="-5.340442">
        <ele>215.989</ele>
        <time>2022-08-27T10:50:22Z</time>
      </trkpt>
      <trkpt lat="43.504922" lon="-5.340355">
        <ele>215.617</ele>
        <time>2022-08-27T10:50:24Z</time>
      </trkpt>
      <trkpt lat="43.504969" lon="-5.340270">
        <ele>215.509</ele>
        <time>2022-08-27T10:50:26Z</time>
      </trkpt>
      <trkpt lat="43.505019" lon="-5.340180">
        <ele>215.289</ele>
        <time>2022-08-27T10:50:28Z</time>
      </trkpt>
      <trkpt lat="43.505069" lon="-5.340085">
        <ele>215.199</ele>
        <time>2022-08-27T10:50:30Z</time>
      </trkpt>
      <trkpt lat="43.505114" lon="-5.339988">
        <ele>215.140</ele>
        <time>2022-08-27T10:50:32Z</time>
      </trkpt>
      <trkpt lat="43.505156" lon="-5.339881">
        <ele>215.148</ele>
        <time>2022-08-27T10:50:34Z</time>
      </trkpt>
      <trkpt lat="43.505173" lon="-5.339821">
        <ele>215.168</ele>
        <time>2022-08-27T10:50:35Z</time>
      </trkpt>
      <trkpt lat="43.505185" lon="-5.339684">
        <ele>215.164</ele>
        <time>2022-08-27T10:50:37Z</time>
      </trkpt>
      <trkpt lat="43.505182" lon="-5.339534">
        <ele>215.298</ele>
        <time>2022-08-27T10:50:39Z</time>
      </trkpt>
      <trkpt lat="43.505169" lon="-5.339456">
        <ele>214.915</ele>
        <time>2022-08-27T10:50:40Z</time>
      </trkpt>
      <trkpt lat="43.505146" lon="-5.339381">
        <ele>214.612</ele>
        <time>2022-08-27T10:50:41Z</time>
      </trkpt>
      <trkpt lat="43.505121" lon="-5.339304">
        <ele>214.083</ele>
        <time>2022-08-27T10:50:42Z</time>
      </trkpt>
      <trkpt lat="43.505093" lon="-5.339226">
        <ele>213.325</ele>
        <time>2022-08-27T10:50:43Z</time>
      </trkpt>
      <trkpt lat="43.505031" lon="-5.339064">
        <ele>212.417</ele>
        <time>2022-08-27T10:50:45Z</time>
      </trkpt>
      <trkpt lat="43.504993" lon="-5.338982">
        <ele>212.009</ele>
        <time>2022-08-27T10:50:46Z</time>
      </trkpt>
      <trkpt lat="43.504915" lon="-5.338825">
        <ele>210.719</ele>
        <time>2022-08-27T10:50:48Z</time>
      </trkpt>
      <trkpt lat="43.504872" lon="-5.338748">
        <ele>210.199</ele>
        <time>2022-08-27T10:50:49Z</time>
      </trkpt>
      <trkpt lat="43.504827" lon="-5.338675">
        <ele>209.880</ele>
        <time>2022-08-27T10:50:50Z</time>
      </trkpt>
      <trkpt lat="43.504735" lon="-5.338523">
        <ele>209.138</ele>
        <time>2022-08-27T10:50:52Z</time>
      </trkpt>
      <trkpt lat="43.504692" lon="-5.338445">
        <ele>208.858</ele>
        <time>2022-08-27T10:50:53Z</time>
      </trkpt>
      <trkpt lat="43.504650" lon="-5.338365">
        <ele>208.664</ele>
        <time>2022-08-27T10:50:54Z</time>
      </trkpt>
      <trkpt lat="43.504582" lon="-5.338190">
        <ele>208.018</ele>
        <time>2022-08-27T10:50:56Z</time>
      </trkpt>
      <trkpt lat="43.504532" lon="-5.338003">
        <ele>207.855</ele>
        <time>2022-08-27T10:50:58Z</time>
      </trkpt>
      <trkpt lat="43.504499" lon="-5.337810">
        <ele>206.722</ele>
        <time>2022-08-27T10:51:00Z</time>
      </trkpt>
      <trkpt lat="43.504469" lon="-5.337602">
        <ele>205.796</ele>
        <time>2022-08-27T10:51:02Z</time>
      </trkpt>
      <trkpt lat="43.504434" lon="-5.337384">
        <ele>205.231</ele>
        <time>2022-08-27T10:51:04Z</time>
      </trkpt>
      <trkpt lat="43.504417" lon="-5.337272">
        <ele>204.824</ele>
        <time>2022-08-27T10:51:05Z</time>
      </trkpt>
      <trkpt lat="43.504384" lon="-5.337044">
        <ele>203.809</ele>
        <time>2022-08-27T10:51:07Z</time>
      </trkpt>
      <trkpt lat="43.504356" lon="-5.336812">
        <ele>203.330</ele>
        <time>2022-08-27T10:51:09Z</time>
      </trkpt>
      <trkpt lat="43.504343" lon="-5.336695">
        <ele>203.080</ele>
        <time>2022-08-27T10:51:10Z</time>
      </trkpt>
      <trkpt lat="43.504311" lon="-5.336463">
        <ele>202.491</ele>
        <time>2022-08-27T10:51:12Z</time>
      </trkpt>
      <trkpt lat="43.504294" lon="-5.336351">
        <ele>201.959</ele>
        <time>2022-08-27T10:51:13Z</time>
      </trkpt>
      <trkpt lat="43.504261" lon="-5.336129">
        <ele>200.999</ele>
        <time>2022-08-27T10:51:15Z</time>
      </trkpt>
      <trkpt lat="43.504246" lon="-5.336017">
        <ele>200.475</ele>
        <time>2022-08-27T10:51:16Z</time>
      </trkpt>
      <trkpt lat="43.504211" lon="-5.335797">
        <ele>199.889</ele>
        <time>2022-08-27T10:51:18Z</time>
      </trkpt>
      <trkpt lat="43.504188" lon="-5.335690">
        <ele>199.556</ele>
        <time>2022-08-27T10:51:19Z</time>
      </trkpt>
      <trkpt lat="43.504116" lon="-5.335495">
        <ele>198.813</ele>
        <time>2022-08-27T10:51:21Z</time>
      </trkpt>
      <trkpt lat="43.504069" lon="-5.335412">
        <ele>198.541</ele>
        <time>2022-08-27T10:51:22Z</time>
      </trkpt>
      <trkpt lat="43.504012" lon="-5.335345">
        <ele>198.281</ele>
        <time>2022-08-27T10:51:23Z</time>
      </trkpt>
      <trkpt lat="43.503885" lon="-5.335223">
        <ele>197.609</ele>
        <time>2022-08-27T10:51:25Z</time>
      </trkpt>
      <trkpt lat="43.503762" lon="-5.335101">
        <ele>197.509</ele>
        <time>2022-08-27T10:51:27Z</time>
      </trkpt>
      <trkpt lat="43.503697" lon="-5.335043">
        <ele>197.525</ele>
        <time>2022-08-27T10:51:28Z</time>
      </trkpt>
      <trkpt lat="43.503570" lon="-5.334925">
        <ele>197.115</ele>
        <time>2022-08-27T10:51:30Z</time>
      </trkpt>
      <trkpt lat="43.503510" lon="-5.334868">
        <ele>196.966</ele>
        <time>2022-08-27T10:51:31Z</time>
      </trkpt>
      <trkpt lat="43.503390" lon="-5.334751">
        <ele>196.354</ele>
        <time>2022-08-27T10:51:33Z</time>
      </trkpt>
      <trkpt lat="43.503330" lon="-5.334694">
        <ele>196.084</ele>
        <time>2022-08-27T10:51:34Z</time>
      </trkpt>
      <trkpt lat="43.503268" lon="-5.334634">
        <ele>195.680</ele>
        <time>2022-08-27T10:51:35Z</time>
      </trkpt>
      <trkpt lat="43.503205" lon="-5.334576">
        <ele>195.144</ele>
        <time>2022-08-27T10:51:36Z</time>
      </trkpt>
      <trkpt lat="43.503082" lon="-5.334459">
        <ele>194.071</ele>
        <time>2022-08-27T10:51:38Z</time>
      </trkpt>
      <trkpt lat="43.503020" lon="-5.334401">
        <ele>193.578</ele>
        <time>2022-08-27T10:51:39Z</time>
      </trkpt>
      <trkpt lat="43.502908" lon="-5.334286">
        <ele>192.729</ele>
        <time>2022-08-27T10:51:41Z</time>
      </trkpt>
      <trkpt lat="43.502820" lon="-5.334148">
        <ele>191.800</ele>
        <time>2022-08-27T10:51:43Z</time>
      </trkpt>
      <trkpt lat="43.502757" lon="-5.333981">
        <ele>191.120</ele>
        <time>2022-08-27T10:51:45Z</time>
      </trkpt>
      <trkpt lat="43.502724" lon="-5.333796">
        <ele>190.409</ele>
        <time>2022-08-27T10:51:47Z</time>
      </trkpt>
      <trkpt lat="43.502716" lon="-5.333704">
        <ele>190.293</ele>
        <time>2022-08-27T10:51:48Z</time>
      </trkpt>
      <trkpt lat="43.502706" lon="-5.333527">
        <ele>189.613</ele>
        <time>2022-08-27T10:51:50Z</time>
      </trkpt>
      <trkpt lat="43.502716" lon="-5.333362">
        <ele>189.274</ele>
        <time>2022-08-27T10:51:52Z</time>
      </trkpt>
      <trkpt lat="43.502729" lon="-5.333287">
        <ele>189.152</ele>
        <time>2022-08-27T10:51:53Z</time>
      </trkpt>
      <trkpt lat="43.502779" lon="-5.333144">
        <ele>188.522</ele>
        <time>2022-08-27T10:51:55Z</time>
      </trkpt>
      <trkpt lat="43.502846" lon="-5.333017">
        <ele>188.128</ele>
        <time>2022-08-27T10:51:57Z</time>
      </trkpt>
      <trkpt lat="43.502881" lon="-5.332955">
        <ele>188.122</ele>
        <time>2022-08-27T10:51:58Z</time>
      </trkpt>
      <trkpt lat="43.502939" lon="-5.332825">
        <ele>188.569</ele>
        <time>2022-08-27T10:52:00Z</time>
      </trkpt>
      <trkpt lat="43.502976" lon="-5.332680">
        <ele>189.186</ele>
        <time>2022-08-27T10:52:02Z</time>
      </trkpt>
      <trkpt lat="43.502983" lon="-5.332528">
        <ele>189.233</ele>
        <time>2022-08-27T10:52:04Z</time>
      </trkpt>
      <trkpt lat="43.502978" lon="-5.332456">
        <ele>189.223</ele>
        <time>2022-08-27T10:52:05Z</time>
      </trkpt>
      <trkpt lat="43.502978" lon="-5.332384">
        <ele>189.315</ele>
        <time>2022-08-27T10:52:06Z</time>
      </trkpt>
      <trkpt lat="43.502995" lon="-5.332254">
        <ele>189.309</ele>
        <time>2022-08-27T10:52:08Z</time>
      </trkpt>
      <trkpt lat="43.503048" lon="-5.332141">
        <ele>189.044</ele>
        <time>2022-08-27T10:52:09Z</time>
      </trkpt>
      <trkpt lat="43.503086" lon="-5.332094">
        <ele>188.874</ele>
        <time>2022-08-27T10:52:11Z</time>
      </trkpt>
      <trkpt lat="43.503131" lon="-5.332056">
        <ele>188.685</ele>
        <time>2022-08-27T10:52:12Z</time>
      </trkpt>
      <trkpt lat="43.503179" lon="-5.332026">
        <ele>188.423</ele>
        <time>2022-08-27T10:52:13Z</time>
      </trkpt>
      <trkpt lat="43.503269" lon="-5.331956">
        <ele>188.233</ele>
        <time>2022-08-27T10:52:15Z</time>
      </trkpt>
      <trkpt lat="43.503312" lon="-5.331906">
        <ele>187.959</ele>
        <time>2022-08-27T10:52:16Z</time>
      </trkpt>
      <trkpt lat="43.503374" lon="-5.331778">
        <ele>187.283</ele>
        <time>2022-08-27T10:52:18Z</time>
      </trkpt>
      <trkpt lat="43.503424" lon="-5.331621">
        <ele>186.160</ele>
        <time>2022-08-27T10:52:20Z</time>
      </trkpt>
      <trkpt lat="43.503469" lon="-5.331453">
        <ele>185.747</ele>
        <time>2022-08-27T10:52:22Z</time>
      </trkpt>
      <trkpt lat="43.503496" lon="-5.331365">
        <ele>185.338</ele>
        <time>2022-08-27T10:52:23Z</time>
      </trkpt>
      <trkpt lat="43.503523" lon="-5.331275">
        <ele>185.170</ele>
        <time>2022-08-27T10:52:24Z</time>
      </trkpt>
      <trkpt lat="43.503575" lon="-5.331092">
        <ele>184.917</ele>
        <time>2022-08-27T10:52:26Z</time>
      </trkpt>
      <trkpt lat="43.503620" lon="-5.330914">
        <ele>184.809</ele>
        <time>2022-08-27T10:52:28Z</time>
      </trkpt>
      <trkpt lat="43.503642" lon="-5.330826">
        <ele>184.854</ele>
        <time>2022-08-27T10:52:29Z</time>
      </trkpt>
      <trkpt lat="43.503689" lon="-5.330654">
        <ele>184.724</ele>
        <time>2022-08-27T10:52:31Z</time>
      </trkpt>
      <trkpt lat="43.503711" lon="-5.330569">
        <ele>184.685</ele>
        <time>2022-08-27T10:52:32Z</time>
      </trkpt>
      <trkpt lat="43.503739" lon="-5.330391">
        <ele>184.483</ele>
        <time>2022-08-27T10:52:34Z</time>
      </trkpt>
      <trkpt lat="43.503736" lon="-5.330226">
        <ele>184.133</ele>
        <time>2022-08-27T10:52:36Z</time>
      </trkpt>
      <trkpt lat="43.503711" lon="-5.330151">
        <ele>183.929</ele>
        <time>2022-08-27T10:52:37Z</time>
      </trkpt>
      <trkpt lat="43.503624" lon="-5.330031">
        <ele>183.163</ele>
        <time>2022-08-27T10:52:39Z</time>
      </trkpt>
      <trkpt lat="43.503507" lon="-5.329959">
        <ele>182.750</ele>
        <time>2022-08-27T10:52:41Z</time>
      </trkpt>
      <trkpt lat="43.503447" lon="-5.329941">
        <ele>182.697</ele>
        <time>2022-08-27T10:52:42Z</time>
      </trkpt>
      <trkpt lat="43.503382" lon="-5.329924">
        <ele>182.461</ele>
        <time>2022-08-27T10:52:43Z</time>
      </trkpt>
      <trkpt lat="43.503247" lon="-5.329899">
        <ele>182.221</ele>
        <time>2022-08-27T10:52:45Z</time>
      </trkpt>
      <trkpt lat="43.503179" lon="-5.329884">
        <ele>182.213</ele>
        <time>2022-08-27T10:52:46Z</time>
      </trkpt>
      <trkpt lat="43.503031" lon="-5.329846">
        <ele>181.509</ele>
        <time>2022-08-27T10:52:48Z</time>
      </trkpt>
      <trkpt lat="43.502956" lon="-5.329819">
        <ele>181.027</ele>
        <time>2022-08-27T10:52:49Z</time>
      </trkpt>
      <trkpt lat="43.502799" lon="-5.329757">
        <ele>180.347</ele>
        <time>2022-08-27T10:52:51Z</time>
      </trkpt>
      <trkpt lat="43.502721" lon="-5.329727">
        <ele>180.188</ele>
        <time>2022-08-27T10:52:52Z</time>
      </trkpt>
      <trkpt lat="43.502559" lon="-5.329662">
        <ele>179.086</ele>
        <time>2022-08-27T10:52:54Z</time>
      </trkpt>
      <trkpt lat="43.502472" lon="-5.329629">
        <ele>178.346</ele>
        <time>2022-08-27T10:52:55Z</time>
      </trkpt>
      <trkpt lat="43.502290" lon="-5.329561">
        <ele>176.832</ele>
        <time>2022-08-27T10:52:57Z</time>
      </trkpt>
      <trkpt lat="43.502197" lon="-5.329531">
        <ele>175.626</ele>
        <time>2022-08-27T10:52:58Z</time>
      </trkpt>
      <trkpt lat="43.502102" lon="-5.329508">
        <ele>174.883</ele>
        <time>2022-08-27T10:52:59Z</time>
      </trkpt>
      <trkpt lat="43.501902" lon="-5.329478">
        <ele>173.180</ele>
        <time>2022-08-27T10:53:01Z</time>
      </trkpt>
      <trkpt lat="43.501695" lon="-5.329465">
        <ele>171.969</ele>
        <time>2022-08-27T10:53:03Z</time>
      </trkpt>
      <trkpt lat="43.501483" lon="-5.329465">
        <ele>170.804</ele>
        <time>2022-08-27T10:53:05Z</time>
      </trkpt>
      <trkpt lat="43.501376" lon="-5.329465">
        <ele>170.324</ele>
        <time>2022-08-27T10:53:06Z</time>
      </trkpt>
      <trkpt lat="43.501273" lon="-5.329455">
        <ele>170.009</ele>
        <time>2022-08-27T10:53:07Z</time>
      </trkpt>
      <trkpt lat="43.501063" lon="-5.329403">
        <ele>168.497</ele>
        <time>2022-08-27T10:53:09Z</time>
      </trkpt>
      <trkpt lat="43.500963" lon="-5.329360">
        <ele>167.557</ele>
        <time>2022-08-27T10:53:10Z</time>
      </trkpt>
      <trkpt lat="43.500765" lon="-5.329242">
        <ele>165.768</ele>
        <time>2022-08-27T10:53:12Z</time>
      </trkpt>
      <trkpt lat="43.500578" lon="-5.329100">
        <ele>164.076</ele>
        <time>2022-08-27T10:53:14Z</time>
      </trkpt>
      <trkpt lat="43.500408" lon="-5.328972">
        <ele>162.126</ele>
        <time>2022-08-27T10:53:16Z</time>
      </trkpt>
      <trkpt lat="43.500251" lon="-5.328859">
        <ele>160.252</ele>
        <time>2022-08-27T10:53:18Z</time>
      </trkpt>
      <trkpt lat="43.500096" lon="-5.328814">
        <ele>158.276</ele>
        <time>2022-08-27T10:53:20Z</time>
      </trkpt>
      <trkpt lat="43.499939" lon="-5.328926">
        <ele>156.023</ele>
        <time>2022-08-27T10:53:22Z</time>
      </trkpt>
      <trkpt lat="43.499827" lon="-5.329173">
        <ele>154.220</ele>
        <time>2022-08-27T10:53:24Z</time>
      </trkpt>
      <trkpt lat="43.499772" lon="-5.329291">
        <ele>153.819</ele>
        <time>2022-08-27T10:53:25Z</time>
      </trkpt>
      <trkpt lat="43.499650" lon="-5.329493">
        <ele>153.309</ele>
        <time>2022-08-27T10:53:27Z</time>
      </trkpt>
      <trkpt lat="43.499512" lon="-5.329658">
        <ele>151.919</ele>
        <time>2022-08-27T10:53:29Z</time>
      </trkpt>
      <trkpt lat="43.499429" lon="-5.329725">
        <ele>151.409</ele>
        <time>2022-08-27T10:53:30Z</time>
      </trkpt>
      <trkpt lat="43.499221" lon="-5.329792">
        <ele>149.742</ele>
        <time>2022-08-27T10:53:32Z</time>
      </trkpt>
      <trkpt lat="43.499016" lon="-5.329795">
        <ele>148.332</ele>
        <time>2022-08-27T10:53:34Z</time>
      </trkpt>
      <trkpt lat="43.498911" lon="-5.329807">
        <ele>147.423</ele>
        <time>2022-08-27T10:53:35Z</time>
      </trkpt>
      <trkpt lat="43.498708" lon="-5.329802">
        <ele>146.531</ele>
        <time>2022-08-27T10:53:37Z</time>
      </trkpt>
      <trkpt lat="43.498606" lon="-5.329790">
        <ele>145.541</ele>
        <time>2022-08-27T10:53:38Z</time>
      </trkpt>
      <trkpt lat="43.498504" lon="-5.329772">
        <ele>144.567</ele>
        <time>2022-08-27T10:53:39Z</time>
      </trkpt>
      <trkpt lat="43.498299" lon="-5.329724">
        <ele>143.291</ele>
        <time>2022-08-27T10:53:41Z</time>
      </trkpt>
      <trkpt lat="43.498199" lon="-5.329699">
        <ele>142.528</ele>
        <time>2022-08-27T10:53:42Z</time>
      </trkpt>
      <trkpt lat="43.498034" lon="-5.329652">
        <ele>142.175</ele>
        <time>2022-08-27T10:53:44Z</time>
      </trkpt>
      <trkpt lat="43.497926" lon="-5.329625">
        <ele>142.044</ele>
        <time>2022-08-27T10:53:46Z</time>
      </trkpt>
      <trkpt lat="43.497874" lon="-5.329607">
        <ele>141.805</ele>
        <time>2022-08-27T10:53:47Z</time>
      </trkpt>
      <trkpt lat="43.497821" lon="-5.329587">
        <ele>141.715</ele>
        <time>2022-08-27T10:53:48Z</time>
      </trkpt>
      <trkpt lat="43.497763" lon="-5.329567">
        <ele>141.509</ele>
        <time>2022-08-27T10:53:49Z</time>
      </trkpt>
      <trkpt lat="43.497640" lon="-5.329517">
        <ele>141.265</ele>
        <time>2022-08-27T10:53:51Z</time>
      </trkpt>
      <trkpt lat="43.497577" lon="-5.329490">
        <ele>141.115</ele>
        <time>2022-08-27T10:53:52Z</time>
      </trkpt>
      <trkpt lat="43.497510" lon="-5.329462">
        <ele>141.196</ele>
        <time>2022-08-27T10:53:53Z</time>
      </trkpt>
      <trkpt lat="43.497375" lon="-5.329404">
        <ele>140.914</ele>
        <time>2022-08-27T10:53:55Z</time>
      </trkpt>
      <trkpt lat="43.497305" lon="-5.329367">
        <ele>140.784</ele>
        <time>2022-08-27T10:53:56Z</time>
      </trkpt>
      <trkpt lat="43.497157" lon="-5.329297">
        <ele>140.240</ele>
        <time>2022-08-27T10:53:58Z</time>
      </trkpt>
      <trkpt lat="43.497084" lon="-5.329259">
        <ele>139.724</ele>
        <time>2022-08-27T10:53:59Z</time>
      </trkpt>
      <trkpt lat="43.496942" lon="-5.329184">
        <ele>138.651</ele>
        <time>2022-08-27T10:54:01Z</time>
      </trkpt>
      <trkpt lat="43.496817" lon="-5.329099">
        <ele>137.538</ele>
        <time>2022-08-27T10:54:03Z</time>
      </trkpt>
      <trkpt lat="43.496759" lon="-5.329057">
        <ele>136.883</ele>
        <time>2022-08-27T10:54:04Z</time>
      </trkpt>
      <trkpt lat="43.496704" lon="-5.329019">
        <ele>136.225</ele>
        <time>2022-08-27T10:54:05Z</time>
      </trkpt>
      <trkpt lat="43.496594" lon="-5.328946">
        <ele>135.517</ele>
        <time>2022-08-27T10:54:07Z</time>
      </trkpt>
      <trkpt lat="43.496537" lon="-5.328913">
        <ele>135.109</ele>
        <time>2022-08-27T10:54:08Z</time>
      </trkpt>
      <trkpt lat="43.496417" lon="-5.328863">
        <ele>134.399</ele>
        <time>2022-08-27T10:54:10Z</time>
      </trkpt>
      <trkpt lat="43.496350" lon="-5.328843">
        <ele>134.199</ele>
        <time>2022-08-27T10:54:11Z</time>
      </trkpt>
      <trkpt lat="43.496223" lon="-5.328806">
        <ele>133.520</ele>
        <time>2022-08-27T10:54:13Z</time>
      </trkpt>
      <trkpt lat="43.496165" lon="-5.328786">
        <ele>133.128</ele>
        <time>2022-08-27T10:54:14Z</time>
      </trkpt>
      <trkpt lat="43.496065" lon="-5.328739">
        <ele>132.368</ele>
        <time>2022-08-27T10:54:16Z</time>
      </trkpt>
      <trkpt lat="43.496020" lon="-5.328709">
        <ele>132.024</ele>
        <time>2022-08-27T10:54:17Z</time>
      </trkpt>
      <trkpt lat="43.495943" lon="-5.328644">
        <ele>131.858</ele>
        <time>2022-08-27T10:54:19Z</time>
      </trkpt>
      <trkpt lat="43.495893" lon="-5.328594">
        <ele>131.525</ele>
        <time>2022-08-27T10:54:21Z</time>
      </trkpt>
      <trkpt lat="43.495853" lon="-5.328552">
        <ele>130.972</ele>
        <time>2022-08-27T10:54:23Z</time>
      </trkpt>
      <trkpt lat="43.495810" lon="-5.328495">
        <ele>130.448</ele>
        <time>2022-08-27T10:54:25Z</time>
      </trkpt>
      <trkpt lat="43.495752" lon="-5.328433">
        <ele>130.261</ele>
        <time>2022-08-27T10:54:27Z</time>
      </trkpt>
      <trkpt lat="43.495680" lon="-5.328363">
        <ele>130.017</ele>
        <time>2022-08-27T10:54:29Z</time>
      </trkpt>
      <trkpt lat="43.495642" lon="-5.328326">
        <ele>129.809</ele>
        <time>2022-08-27T10:54:30Z</time>
      </trkpt>
      <trkpt lat="43.495562" lon="-5.328239">
        <ele>129.525</ele>
        <time>2022-08-27T10:54:32Z</time>
      </trkpt>
      <trkpt lat="43.495482" lon="-5.328147">
        <ele>129.395</ele>
        <time>2022-08-27T10:54:33Z</time>
      </trkpt>
      <trkpt lat="43.495439" lon="-5.328099">
        <ele>129.136</ele>
        <time>2022-08-27T10:54:35Z</time>
      </trkpt>
      <trkpt lat="43.495349" lon="-5.327997">
        <ele>128.884</ele>
        <time>2022-08-27T10:54:37Z</time>
      </trkpt>
      <trkpt lat="43.495301" lon="-5.327942">
        <ele>128.394</ele>
        <time>2022-08-27T10:54:38Z</time>
      </trkpt>
      <trkpt lat="43.495211" lon="-5.327822">
        <ele>128.110</ele>
        <time>2022-08-27T10:54:40Z</time>
      </trkpt>
      <trkpt lat="43.495169" lon="-5.327754">
        <ele>128.154</ele>
        <time>2022-08-27T10:54:41Z</time>
      </trkpt>
      <trkpt lat="43.495077" lon="-5.327607">
        <ele>128.121</ele>
        <time>2022-08-27T10:54:43Z</time>
      </trkpt>
      <trkpt lat="43.495032" lon="-5.327530">
        <ele>127.568</ele>
        <time>2022-08-27T10:54:44Z</time>
      </trkpt>
      <trkpt lat="43.494985" lon="-5.327452">
        <ele>127.292</ele>
        <time>2022-08-27T10:54:45Z</time>
      </trkpt>
      <trkpt lat="43.494890" lon="-5.327290">
        <ele>126.673</ele>
        <time>2022-08-27T10:54:47Z</time>
      </trkpt>
      <trkpt lat="43.494847" lon="-5.327208">
        <ele>126.420</ele>
        <time>2022-08-27T10:54:48Z</time>
      </trkpt>
      <trkpt lat="43.494800" lon="-5.327131">
        <ele>126.209</ele>
        <time>2022-08-27T10:54:49Z</time>
      </trkpt>
      <trkpt lat="43.494752" lon="-5.327053">
        <ele>125.790</ele>
        <time>2022-08-27T10:54:50Z</time>
      </trkpt>
      <trkpt lat="43.494655" lon="-5.326898">
        <ele>124.590</ele>
        <time>2022-08-27T10:54:52Z</time>
      </trkpt>
      <trkpt lat="43.494558" lon="-5.326746">
        <ele>123.861</ele>
        <time>2022-08-27T10:54:54Z</time>
      </trkpt>
      <trkpt lat="43.494465" lon="-5.326606">
        <ele>123.789</ele>
        <time>2022-08-27T10:54:56Z</time>
      </trkpt>
      <trkpt lat="43.494420" lon="-5.326536">
        <ele>123.629</ele>
        <time>2022-08-27T10:54:57Z</time>
      </trkpt>
      <trkpt lat="43.494377" lon="-5.326469">
        <ele>123.635</ele>
        <time>2022-08-27T10:54:58Z</time>
      </trkpt>
      <trkpt lat="43.494299" lon="-5.326336">
        <ele>123.319</ele>
        <time>2022-08-27T10:55:00Z</time>
      </trkpt>
      <trkpt lat="43.494226" lon="-5.326201">
        <ele>123.396</ele>
        <time>2022-08-27T10:55:02Z</time>
      </trkpt>
      <trkpt lat="43.494193" lon="-5.326129">
        <ele>123.533</ele>
        <time>2022-08-27T10:55:03Z</time>
      </trkpt>
      <trkpt lat="43.494130" lon="-5.325982">
        <ele>123.882</ele>
        <time>2022-08-27T10:55:05Z</time>
      </trkpt>
      <trkpt lat="43.494073" lon="-5.325827">
        <ele>123.843</ele>
        <time>2022-08-27T10:55:07Z</time>
      </trkpt>
      <trkpt lat="43.494043" lon="-5.325752">
        <ele>123.817</ele>
        <time>2022-08-27T10:55:08Z</time>
      </trkpt>
      <trkpt lat="43.493983" lon="-5.325607">
        <ele>123.709</ele>
        <time>2022-08-27T10:55:10Z</time>
      </trkpt>
      <trkpt lat="43.493953" lon="-5.325535">
        <ele>123.759</ele>
        <time>2022-08-27T10:55:11Z</time>
      </trkpt>
      <trkpt lat="43.493923" lon="-5.325462">
        <ele>123.649</ele>
        <time>2022-08-27T10:55:12Z</time>
      </trkpt>
      <trkpt lat="43.493866" lon="-5.325319">
        <ele>123.610</ele>
        <time>2022-08-27T10:55:14Z</time>
      </trkpt>
      <trkpt lat="43.493839" lon="-5.325246">
        <ele>123.528</ele>
        <time>2022-08-27T10:55:15Z</time>
      </trkpt>
      <trkpt lat="43.493781" lon="-5.325101">
        <ele>123.568</ele>
        <time>2022-08-27T10:55:17Z</time>
      </trkpt>
      <trkpt lat="43.493753" lon="-5.325028">
        <ele>123.154</ele>
        <time>2022-08-27T10:55:18Z</time>
      </trkpt>
      <trkpt lat="43.493690" lon="-5.324888">
        <ele>122.678</ele>
        <time>2022-08-27T10:55:20Z</time>
      </trkpt>
      <trkpt lat="43.493627" lon="-5.324753">
        <ele>121.915</ele>
        <time>2022-08-27T10:55:22Z</time>
      </trkpt>
      <trkpt lat="43.493599" lon="-5.324688">
        <ele>121.742</ele>
        <time>2022-08-27T10:55:23Z</time>
      </trkpt>
      <trkpt lat="43.493571" lon="-5.324621">
        <ele>121.773</ele>
        <time>2022-08-27T10:55:24Z</time>
      </trkpt>
      <trkpt lat="43.493518" lon="-5.324496">
        <ele>121.985</ele>
        <time>2022-08-27T10:55:26Z</time>
      </trkpt>
      <trkpt lat="43.493495" lon="-5.324438">
        <ele>122.113</ele>
        <time>2022-08-27T10:55:27Z</time>
      </trkpt>
      <trkpt lat="43.493455" lon="-5.324326">
        <ele>122.309</ele>
        <time>2022-08-27T10:55:29Z</time>
      </trkpt>
      <trkpt lat="43.493417" lon="-5.324221">
        <ele>122.588</ele>
        <time>2022-08-27T10:55:31Z</time>
      </trkpt>
      <trkpt lat="43.493377" lon="-5.324126">
        <ele>122.748</ele>
        <time>2022-08-27T10:55:33Z</time>
      </trkpt>
      <trkpt lat="43.493339" lon="-5.324024">
        <ele>122.739</ele>
        <time>2022-08-27T10:55:35Z</time>
      </trkpt>
      <trkpt lat="43.493294" lon="-5.323922">
        <ele>122.617</ele>
        <time>2022-08-27T10:55:37Z</time>
      </trkpt>
      <trkpt lat="43.493249" lon="-5.323819">
        <ele>122.517</ele>
        <time>2022-08-27T10:55:39Z</time>
      </trkpt>
      <trkpt lat="43.493211" lon="-5.323716">
        <ele>122.593</ele>
        <time>2022-08-27T10:55:41Z</time>
      </trkpt>
      <trkpt lat="43.493173" lon="-5.323616">
        <ele>122.587</ele>
        <time>2022-08-27T10:55:43Z</time>
      </trkpt>
      <trkpt lat="43.493133" lon="-5.323521">
        <ele>122.674</ele>
        <time>2022-08-27T10:55:45Z</time>
      </trkpt>
      <trkpt lat="43.493096" lon="-5.323428">
        <ele>122.691</ele>
        <time>2022-08-27T10:55:47Z</time>
      </trkpt>
      <trkpt lat="43.493054" lon="-5.323336">
        <ele>122.636</ele>
        <time>2022-08-27T10:55:49Z</time>
      </trkpt>
      <trkpt lat="43.493006" lon="-5.323244">
        <ele>122.617</ele>
        <time>2022-08-27T10:55:51Z</time>
      </trkpt>
      <trkpt lat="43.492963" lon="-5.323179">
        <ele>122.218</ele>
        <time>2022-08-27T10:55:53Z</time>
      </trkpt>
      <trkpt lat="43.493003" lon="-5.323266">
        <ele>121.409</ele>
        <time>2022-08-27T10:56:21Z</time>
      </trkpt>
      <trkpt lat="43.492916" lon="-5.323078">
        <ele>128.574</ele>
        <time>2022-08-27T10:57:55Z</time>
      </trkpt>
      <trkpt lat="43.492886" lon="-5.323031">
        <ele>128.584</ele>
        <time>2022-08-27T10:57:57Z</time>
      </trkpt>
      <trkpt lat="43.492834" lon="-5.322963">
        <ele>128.575</ele>
        <time>2022-08-27T10:57:59Z</time>
      </trkpt>
      <trkpt lat="43.492782" lon="-5.322886">
        <ele>128.533</ele>
        <time>2022-08-27T10:58:01Z</time>
      </trkpt>
      <trkpt lat="43.492720" lon="-5.322804">
        <ele>123.753</ele>
        <time>2022-08-27T10:58:03Z</time>
      </trkpt>
      <trkpt lat="43.492682" lon="-5.322761">
        <ele>123.389</ele>
        <time>2022-08-27T10:58:04Z</time>
      </trkpt>
      <trkpt lat="43.492645" lon="-5.322714">
        <ele>122.883</ele>
        <time>2022-08-27T10:58:05Z</time>
      </trkpt>
      <trkpt lat="43.492560" lon="-5.322612">
        <ele>122.550</ele>
        <time>2022-08-27T10:58:07Z</time>
      </trkpt>
      <trkpt lat="43.492517" lon="-5.322557">
        <ele>122.377</ele>
        <time>2022-08-27T10:58:08Z</time>
      </trkpt>
      <trkpt lat="43.492430" lon="-5.322449">
        <ele>121.369</ele>
        <time>2022-08-27T10:58:10Z</time>
      </trkpt>
      <trkpt lat="43.492328" lon="-5.322334">
        <ele>120.304</ele>
        <time>2022-08-27T10:58:12Z</time>
      </trkpt>
      <trkpt lat="43.492221" lon="-5.322204">
        <ele>119.224</ele>
        <time>2022-08-27T10:58:14Z</time>
      </trkpt>
      <trkpt lat="43.492178" lon="-5.322141">
        <ele>119.009</ele>
        <time>2022-08-27T10:58:15Z</time>
      </trkpt>
      <trkpt lat="43.492076" lon="-5.322014">
        <ele>118.737</ele>
        <time>2022-08-27T10:58:17Z</time>
      </trkpt>
      <trkpt lat="43.491974" lon="-5.321894">
        <ele>118.227</ele>
        <time>2022-08-27T10:58:19Z</time>
      </trkpt>
      <trkpt lat="43.491882" lon="-5.321766">
        <ele>117.728</ele>
        <time>2022-08-27T10:58:21Z</time>
      </trkpt>
      <trkpt lat="43.491809" lon="-5.321621">
        <ele>117.766</ele>
        <time>2022-08-27T10:58:23Z</time>
      </trkpt>
      <trkpt lat="43.491782" lon="-5.321538">
        <ele>117.826</ele>
        <time>2022-08-27T10:58:24Z</time>
      </trkpt>
      <trkpt lat="43.491762" lon="-5.321455">
        <ele>117.912</ele>
        <time>2022-08-27T10:58:25Z</time>
      </trkpt>
      <trkpt lat="43.491740" lon="-5.321288">
        <ele>118.296</ele>
        <time>2022-08-27T10:58:27Z</time>
      </trkpt>
      <trkpt lat="43.491742" lon="-5.321208">
        <ele>118.253</ele>
        <time>2022-08-27T10:58:28Z</time>
      </trkpt>
      <trkpt lat="43.491750" lon="-5.321131">
        <ele>118.230</ele>
        <time>2022-08-27T10:58:29Z</time>
      </trkpt>
      <trkpt lat="43.491763" lon="-5.321056">
        <ele>118.141</ele>
        <time>2022-08-27T10:58:30Z</time>
      </trkpt>
      <trkpt lat="43.491793" lon="-5.320924">
        <ele>117.981</ele>
        <time>2022-08-27T10:58:32Z</time>
      </trkpt>
      <trkpt lat="43.491808" lon="-5.320856">
        <ele>117.509</ele>
        <time>2022-08-27T10:58:33Z</time>
      </trkpt>
      <trkpt lat="43.491821" lon="-5.320784">
        <ele>117.509</ele>
        <time>2022-08-27T10:58:34Z</time>
      </trkpt>
      <trkpt lat="43.491836" lon="-5.320709">
        <ele>117.595</ele>
        <time>2022-08-27T10:58:35Z</time>
      </trkpt>
      <trkpt lat="43.491853" lon="-5.320631">
        <ele>117.555</ele>
        <time>2022-08-27T10:58:36Z</time>
      </trkpt>
      <trkpt lat="43.491868" lon="-5.320464">
        <ele>117.386</ele>
        <time>2022-08-27T10:58:38Z</time>
      </trkpt>
      <trkpt lat="43.491843" lon="-5.320299">
        <ele>116.914</ele>
        <time>2022-08-27T10:58:40Z</time>
      </trkpt>
      <trkpt lat="43.491796" lon="-5.320137">
        <ele>116.874</ele>
        <time>2022-08-27T10:58:42Z</time>
      </trkpt>
      <trkpt lat="43.491764" lon="-5.320064">
        <ele>116.820</ele>
        <time>2022-08-27T10:58:43Z</time>
      </trkpt>
      <trkpt lat="43.491681" lon="-5.319937">
        <ele>116.754</ele>
        <time>2022-08-27T10:58:45Z</time>
      </trkpt>
      <trkpt lat="43.491631" lon="-5.319882">
        <ele>116.781</ele>
        <time>2022-08-27T10:58:46Z</time>
      </trkpt>
      <trkpt lat="43.491576" lon="-5.319837">
        <ele>116.728</ele>
        <time>2022-08-27T10:58:47Z</time>
      </trkpt>
      <trkpt lat="43.491464" lon="-5.319762">
        <ele>116.517</ele>
        <time>2022-08-27T10:58:49Z</time>
      </trkpt>
      <trkpt lat="43.491351" lon="-5.319674">
        <ele>116.287</ele>
        <time>2022-08-27T10:58:51Z</time>
      </trkpt>
      <trkpt lat="43.491294" lon="-5.319622">
        <ele>115.915</ele>
        <time>2022-08-27T10:58:52Z</time>
      </trkpt>
      <trkpt lat="43.491237" lon="-5.319560">
        <ele>115.609</ele>
        <time>2022-08-27T10:58:53Z</time>
      </trkpt>
      <trkpt lat="43.491140" lon="-5.319405">
        <ele>114.632</ele>
        <time>2022-08-27T10:58:55Z</time>
      </trkpt>
      <trkpt lat="43.491063" lon="-5.319220">
        <ele>113.882</ele>
        <time>2022-08-27T10:58:57Z</time>
      </trkpt>
      <trkpt lat="43.491036" lon="-5.319113">
        <ele>113.123</ele>
        <time>2022-08-27T10:58:58Z</time>
      </trkpt>
      <trkpt lat="43.491004" lon="-5.318898">
        <ele>111.761</ele>
        <time>2022-08-27T10:59:00Z</time>
      </trkpt>
      <trkpt lat="43.490991" lon="-5.318690">
        <ele>111.111</ele>
        <time>2022-08-27T10:59:02Z</time>
      </trkpt>
      <trkpt lat="43.490976" lon="-5.318493">
        <ele>110.697</ele>
        <time>2022-08-27T10:59:04Z</time>
      </trkpt>
      <trkpt lat="43.490964" lon="-5.318305">
        <ele>110.191</ele>
        <time>2022-08-27T10:59:06Z</time>
      </trkpt>
      <trkpt lat="43.490974" lon="-5.318120">
        <ele>109.618</ele>
        <time>2022-08-27T10:59:08Z</time>
      </trkpt>
      <trkpt lat="43.490991" lon="-5.318033">
        <ele>109.385</ele>
        <time>2022-08-27T10:59:09Z</time>
      </trkpt>
      <trkpt lat="43.491016" lon="-5.317948">
        <ele>109.168</ele>
        <time>2022-08-27T10:59:10Z</time>
      </trkpt>
      <trkpt lat="43.491049" lon="-5.317866">
        <ele>108.942</ele>
        <time>2022-08-27T10:59:11Z</time>
      </trkpt>
      <trkpt lat="43.491144" lon="-5.317721">
        <ele>108.626</ele>
        <time>2022-08-27T10:59:13Z</time>
      </trkpt>
      <trkpt lat="43.491257" lon="-5.317578">
        <ele>108.109</ele>
        <time>2022-08-27T10:59:15Z</time>
      </trkpt>
      <trkpt lat="43.491359" lon="-5.317415">
        <ele>107.367</ele>
        <time>2022-08-27T10:59:17Z</time>
      </trkpt>
      <trkpt lat="43.491424" lon="-5.317217">
        <ele>105.927</ele>
        <time>2022-08-27T10:59:19Z</time>
      </trkpt>
      <trkpt lat="43.491446" lon="-5.317107">
        <ele>105.358</ele>
        <time>2022-08-27T10:59:20Z</time>
      </trkpt>
      <trkpt lat="43.491459" lon="-5.316994">
        <ele>104.616</ele>
        <time>2022-08-27T10:59:21Z</time>
      </trkpt>
      <trkpt lat="43.491459" lon="-5.316757">
        <ele>103.426</ele>
        <time>2022-08-27T10:59:23Z</time>
      </trkpt>
      <trkpt lat="43.491426" lon="-5.316519">
        <ele>102.442</ele>
        <time>2022-08-27T10:59:25Z</time>
      </trkpt>
      <trkpt lat="43.491393" lon="-5.316407">
        <ele>101.826</ele>
        <time>2022-08-27T10:59:26Z</time>
      </trkpt>
      <trkpt lat="43.491288" lon="-5.316207">
        <ele>100.983</ele>
        <time>2022-08-27T10:59:28Z</time>
      </trkpt>
      <trkpt lat="43.491225" lon="-5.316119">
        <ele>100.880</ele>
        <time>2022-08-27T10:59:29Z</time>
      </trkpt>
      <trkpt lat="43.491100" lon="-5.315937">
        <ele>100.446</ele>
        <time>2022-08-27T10:59:31Z</time>
      </trkpt>
      <trkpt lat="43.491055" lon="-5.315837">
        <ele>100.088</ele>
        <time>2022-08-27T10:59:32Z</time>
      </trkpt>
      <trkpt lat="43.490993" lon="-5.315620">
        <ele>99.216</ele>
        <time>2022-08-27T10:59:34Z</time>
      </trkpt>
      <trkpt lat="43.490960" lon="-5.315393">
        <ele>98.109</ele>
        <time>2022-08-27T10:59:36Z</time>
      </trkpt>
      <trkpt lat="43.490948" lon="-5.315276">
        <ele>97.745</ele>
        <time>2022-08-27T10:59:37Z</time>
      </trkpt>
      <trkpt lat="43.490930" lon="-5.315049">
        <ele>97.355</ele>
        <time>2022-08-27T10:59:39Z</time>
      </trkpt>
      <trkpt lat="43.490927" lon="-5.314932">
        <ele>97.056</ele>
        <time>2022-08-27T10:59:40Z</time>
      </trkpt>
      <trkpt lat="43.490929" lon="-5.314814">
        <ele>96.514</ele>
        <time>2022-08-27T10:59:41Z</time>
      </trkpt>
      <trkpt lat="43.490934" lon="-5.314581">
        <ele>95.494</ele>
        <time>2022-08-27T10:59:43Z</time>
      </trkpt>
      <trkpt lat="43.490936" lon="-5.314459">
        <ele>94.710</ele>
        <time>2022-08-27T10:59:44Z</time>
      </trkpt>
      <trkpt lat="43.490936" lon="-5.314339">
        <ele>94.114</ele>
        <time>2022-08-27T10:59:45Z</time>
      </trkpt>
      <trkpt lat="43.490933" lon="-5.314217">
        <ele>93.631</ele>
        <time>2022-08-27T10:59:46Z</time>
      </trkpt>
      <trkpt lat="43.490923" lon="-5.314095">
        <ele>93.028</ele>
        <time>2022-08-27T10:59:47Z</time>
      </trkpt>
      <trkpt lat="43.490891" lon="-5.313853">
        <ele>92.143</ele>
        <time>2022-08-27T10:59:49Z</time>
      </trkpt>
      <trkpt lat="43.490871" lon="-5.313731">
        <ele>91.964</ele>
        <time>2022-08-27T10:59:50Z</time>
      </trkpt>
      <trkpt lat="43.490849" lon="-5.313611">
        <ele>91.810</ele>
        <time>2022-08-27T10:59:51Z</time>
      </trkpt>
      <trkpt lat="43.490831" lon="-5.313494">
        <ele>91.209</ele>
        <time>2022-08-27T10:59:52Z</time>
      </trkpt>
      <trkpt lat="43.490789" lon="-5.313254">
        <ele>90.085</ele>
        <time>2022-08-27T10:59:54Z</time>
      </trkpt>
      <trkpt lat="43.490767" lon="-5.313129">
        <ele>89.525</ele>
        <time>2022-08-27T10:59:55Z</time>
      </trkpt>
      <trkpt lat="43.490747" lon="-5.313007">
        <ele>88.896</ele>
        <time>2022-08-27T10:59:56Z</time>
      </trkpt>
      <trkpt lat="43.490699" lon="-5.312769">
        <ele>87.774</ele>
        <time>2022-08-27T10:59:58Z</time>
      </trkpt>
      <trkpt lat="43.490654" lon="-5.312529">
        <ele>86.924</ele>
        <time>2022-08-27T11:00:00Z</time>
      </trkpt>
      <trkpt lat="43.490596" lon="-5.312292">
        <ele>86.130</ele>
        <time>2022-08-27T11:00:02Z</time>
      </trkpt>
      <trkpt lat="43.490556" lon="-5.312177">
        <ele>85.514</ele>
        <time>2022-08-27T11:00:03Z</time>
      </trkpt>
      <trkpt lat="43.490436" lon="-5.311969">
        <ele>84.251</ele>
        <time>2022-08-27T11:00:05Z</time>
      </trkpt>
      <trkpt lat="43.490284" lon="-5.311809">
        <ele>83.788</ele>
        <time>2022-08-27T11:00:07Z</time>
      </trkpt>
      <trkpt lat="43.490206" lon="-5.311736">
        <ele>83.494</ele>
        <time>2022-08-27T11:00:08Z</time>
      </trkpt>
      <trkpt lat="43.490124" lon="-5.311663">
        <ele>82.657</ele>
        <time>2022-08-27T11:00:09Z</time>
      </trkpt>
      <trkpt lat="43.489977" lon="-5.311506">
        <ele>81.922</ele>
        <time>2022-08-27T11:00:11Z</time>
      </trkpt>
      <trkpt lat="43.489915" lon="-5.311416">
        <ele>81.509</ele>
        <time>2022-08-27T11:00:12Z</time>
      </trkpt>
      <trkpt lat="43.489860" lon="-5.311319">
        <ele>80.810</ele>
        <time>2022-08-27T11:00:13Z</time>
      </trkpt>
      <trkpt lat="43.489773" lon="-5.311099">
        <ele>80.070</ele>
        <time>2022-08-27T11:00:15Z</time>
      </trkpt>
      <trkpt lat="43.489735" lon="-5.310989">
        <ele>79.791</ele>
        <time>2022-08-27T11:00:16Z</time>
      </trkpt>
      <trkpt lat="43.489697" lon="-5.310876">
        <ele>79.589</ele>
        <time>2022-08-27T11:00:17Z</time>
      </trkpt>
      <trkpt lat="43.489632" lon="-5.310651">
        <ele>79.079</ele>
        <time>2022-08-27T11:00:19Z</time>
      </trkpt>
      <trkpt lat="43.489609" lon="-5.310539">
        <ele>78.725</ele>
        <time>2022-08-27T11:00:20Z</time>
      </trkpt>
      <trkpt lat="43.489591" lon="-5.310424">
        <ele>78.499</ele>
        <time>2022-08-27T11:00:21Z</time>
      </trkpt>
      <trkpt lat="43.489576" lon="-5.310311">
        <ele>77.946</ele>
        <time>2022-08-27T11:00:22Z</time>
      </trkpt>
      <trkpt lat="43.489563" lon="-5.310198">
        <ele>77.463</ele>
        <time>2022-08-27T11:00:23Z</time>
      </trkpt>
      <trkpt lat="43.489538" lon="-5.309975">
        <ele>76.931</ele>
        <time>2022-08-27T11:00:25Z</time>
      </trkpt>
      <trkpt lat="43.489525" lon="-5.309868">
        <ele>76.961</ele>
        <time>2022-08-27T11:00:26Z</time>
      </trkpt>
      <trkpt lat="43.489503" lon="-5.309663">
        <ele>76.807</ele>
        <time>2022-08-27T11:00:28Z</time>
      </trkpt>
      <trkpt lat="43.489496" lon="-5.309565">
        <ele>76.709</ele>
        <time>2022-08-27T11:00:29Z</time>
      </trkpt>
      <trkpt lat="43.489486" lon="-5.309467">
        <ele>76.544</ele>
        <time>2022-08-27T11:00:30Z</time>
      </trkpt>
      <trkpt lat="43.489478" lon="-5.309370">
        <ele>76.374</ele>
        <time>2022-08-27T11:00:31Z</time>
      </trkpt>
      <trkpt lat="43.489448" lon="-5.309183">
        <ele>75.985</ele>
        <time>2022-08-27T11:00:33Z</time>
      </trkpt>
      <trkpt lat="43.489435" lon="-5.309090">
        <ele>75.883</ele>
        <time>2022-08-27T11:00:34Z</time>
      </trkpt>
      <trkpt lat="43.489412" lon="-5.308907">
        <ele>75.843</ele>
        <time>2022-08-27T11:00:36Z</time>
      </trkpt>
      <trkpt lat="43.489394" lon="-5.308724">
        <ele>75.919</ele>
        <time>2022-08-27T11:00:38Z</time>
      </trkpt>
      <trkpt lat="43.489376" lon="-5.308544">
        <ele>76.273</ele>
        <time>2022-08-27T11:00:40Z</time>
      </trkpt>
      <trkpt lat="43.489353" lon="-5.308371">
        <ele>76.340</ele>
        <time>2022-08-27T11:00:42Z</time>
      </trkpt>
      <trkpt lat="43.489343" lon="-5.308288">
        <ele>76.377</ele>
        <time>2022-08-27T11:00:43Z</time>
      </trkpt>
      <trkpt lat="43.489320" lon="-5.308125">
        <ele>76.073</ele>
        <time>2022-08-27T11:00:45Z</time>
      </trkpt>
      <trkpt lat="43.489298" lon="-5.307965">
        <ele>75.785</ele>
        <time>2022-08-27T11:00:47Z</time>
      </trkpt>
      <trkpt lat="43.489271" lon="-5.307810">
        <ele>75.513</ele>
        <time>2022-08-27T11:00:48Z</time>
      </trkpt>
      <trkpt lat="43.489261" lon="-5.307732">
        <ele>75.409</ele>
        <time>2022-08-27T11:00:50Z</time>
      </trkpt>
      <trkpt lat="43.489251" lon="-5.307655">
        <ele>75.328</ele>
        <time>2022-08-27T11:00:51Z</time>
      </trkpt>
      <trkpt lat="43.489241" lon="-5.307582">
        <ele>75.398</ele>
        <time>2022-08-27T11:00:52Z</time>
      </trkpt>
      <trkpt lat="43.489229" lon="-5.307507">
        <ele>75.329</ele>
        <time>2022-08-27T11:00:53Z</time>
      </trkpt>
      <trkpt lat="43.489209" lon="-5.307354">
        <ele>74.987</ele>
        <time>2022-08-27T11:00:55Z</time>
      </trkpt>
      <trkpt lat="43.489187" lon="-5.307202">
        <ele>74.737</ele>
        <time>2022-08-27T11:00:57Z</time>
      </trkpt>
      <trkpt lat="43.489179" lon="-5.307127">
        <ele>74.763</ele>
        <time>2022-08-27T11:00:58Z</time>
      </trkpt>
      <trkpt lat="43.489159" lon="-5.306977">
        <ele>75.047</ele>
        <time>2022-08-27T11:01:00Z</time>
      </trkpt>
      <trkpt lat="43.489149" lon="-5.306904">
        <ele>75.044</ele>
        <time>2022-08-27T11:01:01Z</time>
      </trkpt>
      <trkpt lat="43.489132" lon="-5.306757">
        <ele>75.051</ele>
        <time>2022-08-27T11:01:03Z</time>
      </trkpt>
      <trkpt lat="43.489114" lon="-5.306607">
        <ele>75.061</ele>
        <time>2022-08-27T11:01:05Z</time>
      </trkpt>
      <trkpt lat="43.489106" lon="-5.306532">
        <ele>75.321</ele>
        <time>2022-08-27T11:01:06Z</time>
      </trkpt>
      <trkpt lat="43.489088" lon="-5.306382">
        <ele>75.613</ele>
        <time>2022-08-27T11:01:08Z</time>
      </trkpt>
      <trkpt lat="43.489066" lon="-5.306234">
        <ele>75.809</ele>
        <time>2022-08-27T11:01:10Z</time>
      </trkpt>
      <trkpt lat="43.489044" lon="-5.306087">
        <ele>76.047</ele>
        <time>2022-08-27T11:01:12Z</time>
      </trkpt>
      <trkpt lat="43.489034" lon="-5.306014">
        <ele>76.147</ele>
        <time>2022-08-27T11:01:13Z</time>
      </trkpt>
      <trkpt lat="43.489016" lon="-5.305867">
        <ele>76.318</ele>
        <time>2022-08-27T11:01:15Z</time>
      </trkpt>
      <trkpt lat="43.489008" lon="-5.305792">
        <ele>76.366</ele>
        <time>2022-08-27T11:01:16Z</time>
      </trkpt>
      <trkpt lat="43.489000" lon="-5.305719">
        <ele>76.376</ele>
        <time>2022-08-27T11:01:17Z</time>
      </trkpt>
      <trkpt lat="43.488978" lon="-5.305572">
        <ele>76.022</ele>
        <time>2022-08-27T11:01:19Z</time>
      </trkpt>
      <trkpt lat="43.488968" lon="-5.305499">
        <ele>76.046</ele>
        <time>2022-08-27T11:01:20Z</time>
      </trkpt>
      <trkpt lat="43.488958" lon="-5.305424">
        <ele>76.073</ele>
        <time>2022-08-27T11:01:21Z</time>
      </trkpt>
      <trkpt lat="43.488940" lon="-5.305272">
        <ele>76.030</ele>
        <time>2022-08-27T11:01:23Z</time>
      </trkpt>
      <trkpt lat="43.488923" lon="-5.305124">
        <ele>76.141</ele>
        <time>2022-08-27T11:01:25Z</time>
      </trkpt>
      <trkpt lat="43.488901" lon="-5.304979">
        <ele>76.081</ele>
        <time>2022-08-27T11:01:27Z</time>
      </trkpt>
      <trkpt lat="43.488891" lon="-5.304909">
        <ele>75.709</ele>
        <time>2022-08-27T11:01:28Z</time>
      </trkpt>
      <trkpt lat="43.488871" lon="-5.304761">
        <ele>75.409</ele>
        <time>2022-08-27T11:01:30Z</time>
      </trkpt>
      <trkpt lat="43.488861" lon="-5.304688">
        <ele>75.295</ele>
        <time>2022-08-27T11:01:31Z</time>
      </trkpt>
      <trkpt lat="43.488841" lon="-5.304535">
        <ele>74.765</ele>
        <time>2022-08-27T11:01:33Z</time>
      </trkpt>
      <trkpt lat="43.488818" lon="-5.304378">
        <ele>74.416</ele>
        <time>2022-08-27T11:01:35Z</time>
      </trkpt>
      <trkpt lat="43.488808" lon="-5.304298">
        <ele>74.374</ele>
        <time>2022-08-27T11:01:36Z</time>
      </trkpt>
      <trkpt lat="43.488798" lon="-5.304216">
        <ele>74.234</ele>
        <time>2022-08-27T11:01:37Z</time>
      </trkpt>
      <trkpt lat="43.488781" lon="-5.304053">
        <ele>73.960</ele>
        <time>2022-08-27T11:01:39Z</time>
      </trkpt>
      <trkpt lat="43.488769" lon="-5.303971">
        <ele>73.984</ele>
        <time>2022-08-27T11:01:40Z</time>
      </trkpt>
      <trkpt lat="43.488756" lon="-5.303893">
        <ele>73.941</ele>
        <time>2022-08-27T11:01:41Z</time>
      </trkpt>
      <trkpt lat="43.488736" lon="-5.303730">
        <ele>73.848</ele>
        <time>2022-08-27T11:01:43Z</time>
      </trkpt>
      <trkpt lat="43.488724" lon="-5.303647">
        <ele>73.885</ele>
        <time>2022-08-27T11:01:44Z</time>
      </trkpt>
      <trkpt lat="43.488701" lon="-5.303484">
        <ele>73.889</ele>
        <time>2022-08-27T11:01:46Z</time>
      </trkpt>
      <trkpt lat="43.488679" lon="-5.303322">
        <ele>73.417</ele>
        <time>2022-08-27T11:01:48Z</time>
      </trkpt>
      <trkpt lat="43.488661" lon="-5.303164">
        <ele>73.009</ele>
        <time>2022-08-27T11:01:50Z</time>
      </trkpt>
      <trkpt lat="43.488649" lon="-5.303084">
        <ele>72.929</ele>
        <time>2022-08-27T11:01:51Z</time>
      </trkpt>
      <trkpt lat="43.488637" lon="-5.303006">
        <ele>72.869</ele>
        <time>2022-08-27T11:01:52Z</time>
      </trkpt>
      <trkpt lat="43.488615" lon="-5.302843">
        <ele>72.890</ele>
        <time>2022-08-27T11:01:54Z</time>
      </trkpt>
      <trkpt lat="43.488605" lon="-5.302761">
        <ele>72.968</ele>
        <time>2022-08-27T11:01:55Z</time>
      </trkpt>
      <trkpt lat="43.488585" lon="-5.302601">
        <ele>72.988</ele>
        <time>2022-08-27T11:01:57Z</time>
      </trkpt>
      <trkpt lat="43.488577" lon="-5.302519">
        <ele>72.934</ele>
        <time>2022-08-27T11:01:58Z</time>
      </trkpt>
      <trkpt lat="43.488559" lon="-5.302352">
        <ele>72.488</ele>
        <time>2022-08-27T11:02:00Z</time>
      </trkpt>
      <trkpt lat="43.488547" lon="-5.302267">
        <ele>72.115</ele>
        <time>2022-08-27T11:02:01Z</time>
      </trkpt>
      <trkpt lat="43.488525" lon="-5.302100">
        <ele>72.092</ele>
        <time>2022-08-27T11:02:03Z</time>
      </trkpt>
      <trkpt lat="43.488505" lon="-5.301932">
        <ele>72.025</ele>
        <time>2022-08-27T11:02:05Z</time>
      </trkpt>
      <trkpt lat="43.488493" lon="-5.301850">
        <ele>72.026</ele>
        <time>2022-08-27T11:02:06Z</time>
      </trkpt>
      <trkpt lat="43.488470" lon="-5.301687">
        <ele>71.808</ele>
        <time>2022-08-27T11:02:08Z</time>
      </trkpt>
      <trkpt lat="43.488457" lon="-5.301605">
        <ele>71.709</ele>
        <time>2022-08-27T11:02:09Z</time>
      </trkpt>
      <trkpt lat="43.488445" lon="-5.301523">
        <ele>71.563</ele>
        <time>2022-08-27T11:02:10Z</time>
      </trkpt>
      <trkpt lat="43.488423" lon="-5.301353">
        <ele>71.483</ele>
        <time>2022-08-27T11:02:12Z</time>
      </trkpt>
      <trkpt lat="43.488413" lon="-5.301266">
        <ele>71.494</ele>
        <time>2022-08-27T11:02:13Z</time>
      </trkpt>
      <trkpt lat="43.488388" lon="-5.301089">
        <ele>71.532</ele>
        <time>2022-08-27T11:02:15Z</time>
      </trkpt>
      <trkpt lat="43.488378" lon="-5.301001">
        <ele>71.852</ele>
        <time>2022-08-27T11:02:16Z</time>
      </trkpt>
      <trkpt lat="43.488355" lon="-5.300828">
        <ele>72.148</ele>
        <time>2022-08-27T11:02:18Z</time>
      </trkpt>
      <trkpt lat="43.488333" lon="-5.300658">
        <ele>72.182</ele>
        <time>2022-08-27T11:02:20Z</time>
      </trkpt>
      <trkpt lat="43.488326" lon="-5.300568">
        <ele>72.029</ele>
        <time>2022-08-27T11:02:21Z</time>
      </trkpt>
      <trkpt lat="43.488318" lon="-5.300478">
        <ele>71.836</ele>
        <time>2022-08-27T11:02:22Z</time>
      </trkpt>
      <trkpt lat="43.488308" lon="-5.300386">
        <ele>71.827</ele>
        <time>2022-08-27T11:02:23Z</time>
      </trkpt>
      <trkpt lat="43.488283" lon="-5.300204">
        <ele>71.968</ele>
        <time>2022-08-27T11:02:25Z</time>
      </trkpt>
      <trkpt lat="43.488273" lon="-5.300114">
        <ele>72.114</ele>
        <time>2022-08-27T11:02:26Z</time>
      </trkpt>
      <trkpt lat="43.488261" lon="-5.300026">
        <ele>72.109</ele>
        <time>2022-08-27T11:02:27Z</time>
      </trkpt>
      <trkpt lat="43.488251" lon="-5.299938">
        <ele>72.313</ele>
        <time>2022-08-27T11:02:28Z</time>
      </trkpt>
      <trkpt lat="43.488229" lon="-5.299758">
        <ele>72.653</ele>
        <time>2022-08-27T11:02:30Z</time>
      </trkpt>
      <trkpt lat="43.488202" lon="-5.299581">
        <ele>72.634</ele>
        <time>2022-08-27T11:02:32Z</time>
      </trkpt>
      <trkpt lat="43.488174" lon="-5.299408">
        <ele>72.592</ele>
        <time>2022-08-27T11:02:34Z</time>
      </trkpt>
      <trkpt lat="43.488164" lon="-5.299320">
        <ele>72.552</ele>
        <time>2022-08-27T11:02:35Z</time>
      </trkpt>
      <trkpt lat="43.488154" lon="-5.299233">
        <ele>72.568</ele>
        <time>2022-08-27T11:02:36Z</time>
      </trkpt>
      <trkpt lat="43.488144" lon="-5.299153">
        <ele>72.862</ele>
        <time>2022-08-27T11:02:37Z</time>
      </trkpt>
      <trkpt lat="43.488124" lon="-5.298993">
        <ele>72.869</ele>
        <time>2022-08-27T11:02:39Z</time>
      </trkpt>
      <trkpt lat="43.488116" lon="-5.298911">
        <ele>72.746</ele>
        <time>2022-08-27T11:02:40Z</time>
      </trkpt>
      <trkpt lat="43.488099" lon="-5.298751">
        <ele>72.665</ele>
        <time>2022-08-27T11:02:42Z</time>
      </trkpt>
      <trkpt lat="43.488089" lon="-5.298671">
        <ele>72.568</ele>
        <time>2022-08-27T11:02:43Z</time>
      </trkpt>
      <trkpt lat="43.488071" lon="-5.298508">
        <ele>72.314</ele>
        <time>2022-08-27T11:02:45Z</time>
      </trkpt>
      <trkpt lat="43.488061" lon="-5.298428">
        <ele>71.809</ele>
        <time>2022-08-27T11:02:46Z</time>
      </trkpt>
      <trkpt lat="43.488049" lon="-5.298346">
        <ele>71.647</ele>
        <time>2022-08-27T11:02:47Z</time>
      </trkpt>
      <trkpt lat="43.488024" lon="-5.298183">
        <ele>71.167</ele>
        <time>2022-08-27T11:02:49Z</time>
      </trkpt>
      <trkpt lat="43.487999" lon="-5.298016">
        <ele>70.918</ele>
        <time>2022-08-27T11:02:51Z</time>
      </trkpt>
      <trkpt lat="43.487987" lon="-5.297931">
        <ele>70.946</ele>
        <time>2022-08-27T11:02:52Z</time>
      </trkpt>
      <trkpt lat="43.487974" lon="-5.297844">
        <ele>70.956</ele>
        <time>2022-08-27T11:02:53Z</time>
      </trkpt>
      <trkpt lat="43.487949" lon="-5.297671">
        <ele>70.892</ele>
        <time>2022-08-27T11:02:55Z</time>
      </trkpt>
      <trkpt lat="43.487937" lon="-5.297581">
        <ele>70.826</ele>
        <time>2022-08-27T11:02:56Z</time>
      </trkpt>
      <trkpt lat="43.487910" lon="-5.297408">
        <ele>70.823</ele>
        <time>2022-08-27T11:02:58Z</time>
      </trkpt>
      <trkpt lat="43.487888" lon="-5.297238">
        <ele>71.050</ele>
        <time>2022-08-27T11:03:00Z</time>
      </trkpt>
      <trkpt lat="43.487870" lon="-5.297061">
        <ele>71.236</ele>
        <time>2022-08-27T11:03:02Z</time>
      </trkpt>
      <trkpt lat="43.487852" lon="-5.296891">
        <ele>71.517</ele>
        <time>2022-08-27T11:03:04Z</time>
      </trkpt>
      <trkpt lat="43.487832" lon="-5.296719">
        <ele>71.518</ele>
        <time>2022-08-27T11:03:05Z</time>
      </trkpt>
      <trkpt lat="43.487822" lon="-5.296636">
        <ele>71.409</ele>
        <time>2022-08-27T11:03:07Z</time>
      </trkpt>
      <trkpt lat="43.487812" lon="-5.296553">
        <ele>71.354</ele>
        <time>2022-08-27T11:03:08Z</time>
      </trkpt>
      <trkpt lat="43.487800" lon="-5.296471">
        <ele>71.094</ele>
        <time>2022-08-27T11:03:09Z</time>
      </trkpt>
      <trkpt lat="43.487788" lon="-5.296394">
        <ele>71.095</ele>
        <time>2022-08-27T11:03:10Z</time>
      </trkpt>
      <trkpt lat="43.487765" lon="-5.296241">
        <ele>70.483</ele>
        <time>2022-08-27T11:03:12Z</time>
      </trkpt>
      <trkpt lat="43.487743" lon="-5.296084">
        <ele>70.213</ele>
        <time>2022-08-27T11:03:14Z</time>
      </trkpt>
      <trkpt lat="43.487736" lon="-5.295999">
        <ele>70.219</ele>
        <time>2022-08-27T11:03:15Z</time>
      </trkpt>
      <trkpt lat="43.487741" lon="-5.295829">
        <ele>70.593</ele>
        <time>2022-08-27T11:03:17Z</time>
      </trkpt>
      <trkpt lat="43.487753" lon="-5.295744">
        <ele>70.830</ele>
        <time>2022-08-27T11:03:18Z</time>
      </trkpt>
      <trkpt lat="43.487766" lon="-5.295659">
        <ele>70.977</ele>
        <time>2022-08-27T11:03:19Z</time>
      </trkpt>
      <trkpt lat="43.487781" lon="-5.295576">
        <ele>70.974</ele>
        <time>2022-08-27T11:03:20Z</time>
      </trkpt>
      <trkpt lat="43.487814" lon="-5.295403">
        <ele>70.656</ele>
        <time>2022-08-27T11:03:22Z</time>
      </trkpt>
      <trkpt lat="43.487831" lon="-5.295315">
        <ele>70.321</ele>
        <time>2022-08-27T11:03:23Z</time>
      </trkpt>
      <trkpt lat="43.487846" lon="-5.295223">
        <ele>70.109</ele>
        <time>2022-08-27T11:03:24Z</time>
      </trkpt>
      <trkpt lat="43.487868" lon="-5.295040">
        <ele>69.738</ele>
        <time>2022-08-27T11:03:26Z</time>
      </trkpt>
      <trkpt lat="43.487881" lon="-5.294860">
        <ele>69.228</ele>
        <time>2022-08-27T11:03:28Z</time>
      </trkpt>
      <trkpt lat="43.487883" lon="-5.294685">
        <ele>69.179</ele>
        <time>2022-08-27T11:03:30Z</time>
      </trkpt>
      <trkpt lat="43.487881" lon="-5.294595">
        <ele>68.997</ele>
        <time>2022-08-27T11:03:31Z</time>
      </trkpt>
      <trkpt lat="43.487863" lon="-5.294417">
        <ele>68.797</ele>
        <time>2022-08-27T11:03:33Z</time>
      </trkpt>
      <trkpt lat="43.487845" lon="-5.294330">
        <ele>68.673</ele>
        <time>2022-08-27T11:03:34Z</time>
      </trkpt>
      <trkpt lat="43.487803" lon="-5.294162">
        <ele>68.557</ele>
        <time>2022-08-27T11:03:36Z</time>
      </trkpt>
      <trkpt lat="43.487785" lon="-5.294080">
        <ele>68.674</ele>
        <time>2022-08-27T11:03:37Z</time>
      </trkpt>
      <trkpt lat="43.487763" lon="-5.294002">
        <ele>68.651</ele>
        <time>2022-08-27T11:03:38Z</time>
      </trkpt>
      <trkpt lat="43.487718" lon="-5.293849">
        <ele>68.629</ele>
        <time>2022-08-27T11:03:40Z</time>
      </trkpt>
      <trkpt lat="43.487673" lon="-5.293696">
        <ele>68.400</ele>
        <time>2022-08-27T11:03:42Z</time>
      </trkpt>
      <trkpt lat="43.487651" lon="-5.293621">
        <ele>68.320</ele>
        <time>2022-08-27T11:03:43Z</time>
      </trkpt>
      <trkpt lat="43.487619" lon="-5.293468">
        <ele>68.309</ele>
        <time>2022-08-27T11:03:45Z</time>
      </trkpt>
      <trkpt lat="43.487612" lon="-5.293390">
        <ele>68.383</ele>
        <time>2022-08-27T11:03:46Z</time>
      </trkpt>
      <trkpt lat="43.487610" lon="-5.293312">
        <ele>68.623</ele>
        <time>2022-08-27T11:03:47Z</time>
      </trkpt>
      <trkpt lat="43.487623" lon="-5.293155">
        <ele>69.154</ele>
        <time>2022-08-27T11:03:49Z</time>
      </trkpt>
      <trkpt lat="43.487648" lon="-5.293000">
        <ele>69.252</ele>
        <time>2022-08-27T11:03:51Z</time>
      </trkpt>
      <trkpt lat="43.487663" lon="-5.292923">
        <ele>69.252</ele>
        <time>2022-08-27T11:03:52Z</time>
      </trkpt>
      <trkpt lat="43.487691" lon="-5.292766">
        <ele>69.098</ele>
        <time>2022-08-27T11:03:54Z</time>
      </trkpt>
      <trkpt lat="43.487723" lon="-5.292614">
        <ele>68.772</ele>
        <time>2022-08-27T11:03:56Z</time>
      </trkpt>
      <trkpt lat="43.487738" lon="-5.292539">
        <ele>68.639</ele>
        <time>2022-08-27T11:03:57Z</time>
      </trkpt>
      <trkpt lat="43.487755" lon="-5.292466">
        <ele>68.466</ele>
        <time>2022-08-27T11:03:58Z</time>
      </trkpt>
      <trkpt lat="43.487780" lon="-5.292314">
        <ele>68.045</ele>
        <time>2022-08-27T11:04:00Z</time>
      </trkpt>
      <trkpt lat="43.487797" lon="-5.292157">
        <ele>67.847</ele>
        <time>2022-08-27T11:04:02Z</time>
      </trkpt>
      <trkpt lat="43.487802" lon="-5.292000">
        <ele>67.811</ele>
        <time>2022-08-27T11:04:04Z</time>
      </trkpt>
      <trkpt lat="43.487792" lon="-5.291927">
        <ele>67.809</ele>
        <time>2022-08-27T11:04:05Z</time>
      </trkpt>
      <trkpt lat="43.487777" lon="-5.291855">
        <ele>67.885</ele>
        <time>2022-08-27T11:04:06Z</time>
      </trkpt>
      <trkpt lat="43.487755" lon="-5.291787">
        <ele>67.885</ele>
        <time>2022-08-27T11:04:07Z</time>
      </trkpt>
      <trkpt lat="43.487710" lon="-5.291649">
        <ele>67.786</ele>
        <time>2022-08-27T11:04:09Z</time>
      </trkpt>
      <trkpt lat="43.487685" lon="-5.291584">
        <ele>67.644</ele>
        <time>2022-08-27T11:04:10Z</time>
      </trkpt>
      <trkpt lat="43.487657" lon="-5.291517">
        <ele>67.614</ele>
        <time>2022-08-27T11:04:11Z</time>
      </trkpt>
      <trkpt lat="43.487605" lon="-5.291389">
        <ele>67.310</ele>
        <time>2022-08-27T11:04:13Z</time>
      </trkpt>
      <trkpt lat="43.487583" lon="-5.291327">
        <ele>67.324</ele>
        <time>2022-08-27T11:04:14Z</time>
      </trkpt>
      <trkpt lat="43.487561" lon="-5.291262">
        <ele>67.381</ele>
        <time>2022-08-27T11:04:15Z</time>
      </trkpt>
      <trkpt lat="43.487519" lon="-5.291130">
        <ele>67.368</ele>
        <time>2022-08-27T11:04:17Z</time>
      </trkpt>
      <trkpt lat="43.487479" lon="-5.291003">
        <ele>67.316</ele>
        <time>2022-08-27T11:04:19Z</time>
      </trkpt>
      <trkpt lat="43.487442" lon="-5.290880">
        <ele>67.476</ele>
        <time>2022-08-27T11:04:21Z</time>
      </trkpt>
      <trkpt lat="43.487417" lon="-5.290757">
        <ele>67.413</ele>
        <time>2022-08-27T11:04:23Z</time>
      </trkpt>
      <trkpt lat="43.487407" lon="-5.290695">
        <ele>67.509</ele>
        <time>2022-08-27T11:04:24Z</time>
      </trkpt>
      <trkpt lat="43.487390" lon="-5.290572">
        <ele>67.922</ele>
        <time>2022-08-27T11:04:26Z</time>
      </trkpt>
      <trkpt lat="43.487375" lon="-5.290452">
        <ele>68.582</ele>
        <time>2022-08-27T11:04:28Z</time>
      </trkpt>
      <trkpt lat="43.487365" lon="-5.290337">
        <ele>69.023</ele>
        <time>2022-08-27T11:04:30Z</time>
      </trkpt>
      <trkpt lat="43.487357" lon="-5.290222">
        <ele>69.861</ele>
        <time>2022-08-27T11:04:32Z</time>
      </trkpt>
      <trkpt lat="43.487349" lon="-5.290109">
        <ele>70.151</ele>
        <time>2022-08-27T11:04:34Z</time>
      </trkpt>
      <trkpt lat="43.487344" lon="-5.289997">
        <ele>70.547</ele>
        <time>2022-08-27T11:04:36Z</time>
      </trkpt>
      <trkpt lat="43.487351" lon="-5.289882">
        <ele>70.771</ele>
        <time>2022-08-27T11:04:38Z</time>
      </trkpt>
      <trkpt lat="43.487364" lon="-5.289762">
        <ele>70.818</ele>
        <time>2022-08-27T11:04:40Z</time>
      </trkpt>
      <trkpt lat="43.487374" lon="-5.289700">
        <ele>70.855</ele>
        <time>2022-08-27T11:04:41Z</time>
      </trkpt>
      <trkpt lat="43.487381" lon="-5.289638">
        <ele>70.822</ele>
        <time>2022-08-27T11:04:42Z</time>
      </trkpt>
      <trkpt lat="43.487401" lon="-5.289518">
        <ele>70.862</ele>
        <time>2022-08-27T11:04:44Z</time>
      </trkpt>
      <trkpt lat="43.487418" lon="-5.289400">
        <ele>71.108</ele>
        <time>2022-08-27T11:04:46Z</time>
      </trkpt>
      <trkpt lat="43.487435" lon="-5.289278">
        <ele>71.409</ele>
        <time>2022-08-27T11:04:48Z</time>
      </trkpt>
      <trkpt lat="43.487443" lon="-5.289215">
        <ele>71.523</ele>
        <time>2022-08-27T11:04:49Z</time>
      </trkpt>
      <trkpt lat="43.487451" lon="-5.289153">
        <ele>71.713</ele>
        <time>2022-08-27T11:04:50Z</time>
      </trkpt>
      <trkpt lat="43.487471" lon="-5.289031">
        <ele>71.964</ele>
        <time>2022-08-27T11:04:52Z</time>
      </trkpt>
      <trkpt lat="43.487488" lon="-5.288913">
        <ele>71.962</ele>
        <time>2022-08-27T11:04:54Z</time>
      </trkpt>
      <trkpt lat="43.487510" lon="-5.288798">
        <ele>71.892</ele>
        <time>2022-08-27T11:04:56Z</time>
      </trkpt>
      <trkpt lat="43.487532" lon="-5.288683">
        <ele>71.618</ele>
        <time>2022-08-27T11:04:58Z</time>
      </trkpt>
      <trkpt lat="43.487550" lon="-5.288560">
        <ele>70.712</ele>
        <time>2022-08-27T11:05:00Z</time>
      </trkpt>
      <trkpt lat="43.487562" lon="-5.288497">
        <ele>70.439</ele>
        <time>2022-08-27T11:05:01Z</time>
      </trkpt>
      <trkpt lat="43.487574" lon="-5.288429">
        <ele>70.136</ele>
        <time>2022-08-27T11:05:02Z</time>
      </trkpt>
      <trkpt lat="43.487586" lon="-5.288357">
        <ele>69.593</ele>
        <time>2022-08-27T11:05:03Z</time>
      </trkpt>
      <trkpt lat="43.487611" lon="-5.288205">
        <ele>68.865</ele>
        <time>2022-08-27T11:05:05Z</time>
      </trkpt>
      <trkpt lat="43.487636" lon="-5.288047">
        <ele>67.921</ele>
        <time>2022-08-27T11:05:07Z</time>
      </trkpt>
      <trkpt lat="43.487661" lon="-5.287877">
        <ele>67.309</ele>
        <time>2022-08-27T11:05:09Z</time>
      </trkpt>
      <trkpt lat="43.487678" lon="-5.287787">
        <ele>66.840</ele>
        <time>2022-08-27T11:05:10Z</time>
      </trkpt>
      <trkpt lat="43.487693" lon="-5.287697">
        <ele>66.260</ele>
        <time>2022-08-27T11:05:11Z</time>
      </trkpt>
      <trkpt lat="43.487725" lon="-5.287517">
        <ele>65.061</ele>
        <time>2022-08-27T11:05:13Z</time>
      </trkpt>
      <trkpt lat="43.487752" lon="-5.287339">
        <ele>64.319</ele>
        <time>2022-08-27T11:05:15Z</time>
      </trkpt>
      <trkpt lat="43.487764" lon="-5.287252">
        <ele>64.069</ele>
        <time>2022-08-27T11:05:16Z</time>
      </trkpt>
      <trkpt lat="43.487777" lon="-5.287164">
        <ele>63.875</ele>
        <time>2022-08-27T11:05:17Z</time>
      </trkpt>
      <trkpt lat="43.487812" lon="-5.286999">
        <ele>63.789</ele>
        <time>2022-08-27T11:05:19Z</time>
      </trkpt>
      <trkpt lat="43.487840" lon="-5.286929">
        <ele>63.856</ele>
        <time>2022-08-27T11:05:20Z</time>
      </trkpt>
      <trkpt lat="43.487918" lon="-5.286809">
        <ele>63.983</ele>
        <time>2022-08-27T11:05:22Z</time>
      </trkpt>
      <trkpt lat="43.488011" lon="-5.286706">
        <ele>64.145</ele>
        <time>2022-08-27T11:05:24Z</time>
      </trkpt>
      <trkpt lat="43.488063" lon="-5.286659">
        <ele>64.147</ele>
        <time>2022-08-27T11:05:25Z</time>
      </trkpt>
      <trkpt lat="43.488170" lon="-5.286561">
        <ele>63.711</ele>
        <time>2022-08-27T11:05:27Z</time>
      </trkpt>
      <trkpt lat="43.488278" lon="-5.286449">
        <ele>62.809</ele>
        <time>2022-08-27T11:05:29Z</time>
      </trkpt>
      <trkpt lat="43.488330" lon="-5.286382">
        <ele>62.845</ele>
        <time>2022-08-27T11:05:30Z</time>
      </trkpt>
      <trkpt lat="43.488413" lon="-5.286220">
        <ele>62.725</ele>
        <time>2022-08-27T11:05:32Z</time>
      </trkpt>
      <trkpt lat="43.488466" lon="-5.286037">
        <ele>62.736</ele>
        <time>2022-08-27T11:05:34Z</time>
      </trkpt>
      <trkpt lat="43.488511" lon="-5.285852">
        <ele>62.574</ele>
        <time>2022-08-27T11:05:36Z</time>
      </trkpt>
      <trkpt lat="43.488554" lon="-5.285672">
        <ele>62.154</ele>
        <time>2022-08-27T11:05:38Z</time>
      </trkpt>
      <trkpt lat="43.488579" lon="-5.285580">
        <ele>61.960</ele>
        <time>2022-08-27T11:05:39Z</time>
      </trkpt>
      <trkpt lat="43.488599" lon="-5.285487">
        <ele>61.814</ele>
        <time>2022-08-27T11:05:40Z</time>
      </trkpt>
      <trkpt lat="43.488627" lon="-5.285297">
        <ele>61.551</ele>
        <time>2022-08-27T11:05:42Z</time>
      </trkpt>
      <trkpt lat="43.488625" lon="-5.285105">
        <ele>61.178</ele>
        <time>2022-08-27T11:05:44Z</time>
      </trkpt>
      <trkpt lat="43.488613" lon="-5.285007">
        <ele>60.972</ele>
        <time>2022-08-27T11:05:45Z</time>
      </trkpt>
      <trkpt lat="43.488568" lon="-5.284822">
        <ele>60.413</ele>
        <time>2022-08-27T11:05:47Z</time>
      </trkpt>
      <trkpt lat="43.488540" lon="-5.284732">
        <ele>60.414</ele>
        <time>2022-08-27T11:05:48Z</time>
      </trkpt>
      <trkpt lat="43.488492" lon="-5.284555">
        <ele>60.509</ele>
        <time>2022-08-27T11:05:50Z</time>
      </trkpt>
      <trkpt lat="43.488469" lon="-5.284470">
        <ele>60.548</ele>
        <time>2022-08-27T11:05:51Z</time>
      </trkpt>
      <trkpt lat="43.488427" lon="-5.284298">
        <ele>60.498</ele>
        <time>2022-08-27T11:05:53Z</time>
      </trkpt>
      <trkpt lat="43.488410" lon="-5.284211">
        <ele>60.419</ele>
        <time>2022-08-27T11:05:54Z</time>
      </trkpt>
      <trkpt lat="43.488377" lon="-5.284034">
        <ele>60.017</ele>
        <time>2022-08-27T11:05:56Z</time>
      </trkpt>
      <trkpt lat="43.488364" lon="-5.283947">
        <ele>60.097</ele>
        <time>2022-08-27T11:05:57Z</time>
      </trkpt>
      <trkpt lat="43.488347" lon="-5.283767">
        <ele>59.963</ele>
        <time>2022-08-27T11:05:59Z</time>
      </trkpt>
      <trkpt lat="43.488345" lon="-5.283679">
        <ele>59.957</ele>
        <time>2022-08-27T11:06:00Z</time>
      </trkpt>
      <trkpt lat="43.488353" lon="-5.283501">
        <ele>59.964</ele>
        <time>2022-08-27T11:06:02Z</time>
      </trkpt>
      <trkpt lat="43.488365" lon="-5.283413">
        <ele>59.991</ele>
        <time>2022-08-27T11:06:03Z</time>
      </trkpt>
      <trkpt lat="43.488398" lon="-5.283238">
        <ele>60.158</ele>
        <time>2022-08-27T11:06:05Z</time>
      </trkpt>
      <trkpt lat="43.488413" lon="-5.283155">
        <ele>60.352</ele>
        <time>2022-08-27T11:06:06Z</time>
      </trkpt>
      <trkpt lat="43.488448" lon="-5.282988">
        <ele>60.417</ele>
        <time>2022-08-27T11:06:08Z</time>
      </trkpt>
      <trkpt lat="43.488483" lon="-5.282828">
        <ele>60.609</ele>
        <time>2022-08-27T11:06:10Z</time>
      </trkpt>
      <trkpt lat="43.488500" lon="-5.282750">
        <ele>60.746</ele>
        <time>2022-08-27T11:06:11Z</time>
      </trkpt>
      <trkpt lat="43.488518" lon="-5.282672">
        <ele>60.836</ele>
        <time>2022-08-27T11:06:12Z</time>
      </trkpt>
      <trkpt lat="43.488538" lon="-5.282595">
        <ele>61.187</ele>
        <time>2022-08-27T11:06:13Z</time>
      </trkpt>
      <trkpt lat="43.488560" lon="-5.282518">
        <ele>61.285</ele>
        <time>2022-08-27T11:06:14Z</time>
      </trkpt>
      <trkpt lat="43.488608" lon="-5.282376">
        <ele>61.275</ele>
        <time>2022-08-27T11:06:16Z</time>
      </trkpt>
      <trkpt lat="43.488676" lon="-5.282241">
        <ele>61.121</ele>
        <time>2022-08-27T11:06:18Z</time>
      </trkpt>
      <trkpt lat="43.488748" lon="-5.282111">
        <ele>61.135</ele>
        <time>2022-08-27T11:06:20Z</time>
      </trkpt>
      <trkpt lat="43.488785" lon="-5.282051">
        <ele>60.812</ele>
        <time>2022-08-27T11:06:21Z</time>
      </trkpt>
      <trkpt lat="43.488863" lon="-5.281921">
        <ele>60.219</ele>
        <time>2022-08-27T11:06:23Z</time>
      </trkpt>
      <trkpt lat="43.488938" lon="-5.281793">
        <ele>60.112</ele>
        <time>2022-08-27T11:06:25Z</time>
      </trkpt>
      <trkpt lat="43.488975" lon="-5.281728">
        <ele>60.032</ele>
        <time>2022-08-27T11:06:26Z</time>
      </trkpt>
      <trkpt lat="43.489052" lon="-5.281598">
        <ele>60.005</ele>
        <time>2022-08-27T11:06:28Z</time>
      </trkpt>
      <trkpt lat="43.489090" lon="-5.281538">
        <ele>60.009</ele>
        <time>2022-08-27T11:06:29Z</time>
      </trkpt>
      <trkpt lat="43.489128" lon="-5.281480">
        <ele>60.192</ele>
        <time>2022-08-27T11:06:30Z</time>
      </trkpt>
      <trkpt lat="43.489165" lon="-5.281420">
        <ele>60.312</ele>
        <time>2022-08-27T11:06:31Z</time>
      </trkpt>
      <trkpt lat="43.489203" lon="-5.281360">
        <ele>60.413</ele>
        <time>2022-08-27T11:06:32Z</time>
      </trkpt>
      <trkpt lat="43.489238" lon="-5.281298">
        <ele>60.781</ele>
        <time>2022-08-27T11:06:33Z</time>
      </trkpt>
      <trkpt lat="43.489275" lon="-5.281238">
        <ele>60.931</ele>
        <time>2022-08-27T11:06:34Z</time>
      </trkpt>
      <trkpt lat="43.489343" lon="-5.281115">
        <ele>61.057</ele>
        <time>2022-08-27T11:06:36Z</time>
      </trkpt>
      <trkpt lat="43.489376" lon="-5.281052">
        <ele>61.091</ele>
        <time>2022-08-27T11:06:37Z</time>
      </trkpt>
      <trkpt lat="43.489409" lon="-5.280989">
        <ele>60.988</ele>
        <time>2022-08-27T11:06:38Z</time>
      </trkpt>
      <trkpt lat="43.489442" lon="-5.280927">
        <ele>60.885</ele>
        <time>2022-08-27T11:06:39Z</time>
      </trkpt>
      <trkpt lat="43.489510" lon="-5.280789">
        <ele>60.781</ele>
        <time>2022-08-27T11:06:41Z</time>
      </trkpt>
      <trkpt lat="43.489573" lon="-5.280641">
        <ele>60.361</ele>
        <time>2022-08-27T11:06:43Z</time>
      </trkpt>
      <trkpt lat="43.489598" lon="-5.280559">
        <ele>60.017</ele>
        <time>2022-08-27T11:06:44Z</time>
      </trkpt>
      <trkpt lat="43.489621" lon="-5.280472">
        <ele>59.809</ele>
        <time>2022-08-27T11:06:45Z</time>
      </trkpt>
      <trkpt lat="43.489664" lon="-5.280290">
        <ele>59.549</ele>
        <time>2022-08-27T11:06:47Z</time>
      </trkpt>
      <trkpt lat="43.489704" lon="-5.280105">
        <ele>59.489</ele>
        <time>2022-08-27T11:06:49Z</time>
      </trkpt>
      <trkpt lat="43.489747" lon="-5.279912">
        <ele>58.790</ele>
        <time>2022-08-27T11:06:51Z</time>
      </trkpt>
      <trkpt lat="43.489765" lon="-5.279819">
        <ele>58.588</ele>
        <time>2022-08-27T11:06:52Z</time>
      </trkpt>
      <trkpt lat="43.489805" lon="-5.279632">
        <ele>57.938</ele>
        <time>2022-08-27T11:06:54Z</time>
      </trkpt>
      <trkpt lat="43.489845" lon="-5.279445">
        <ele>57.344</ele>
        <time>2022-08-27T11:06:56Z</time>
      </trkpt>
      <trkpt lat="43.489867" lon="-5.279348">
        <ele>56.938</ele>
        <time>2022-08-27T11:06:57Z</time>
      </trkpt>
      <trkpt lat="43.489890" lon="-5.279251">
        <ele>56.655</ele>
        <time>2022-08-27T11:06:58Z</time>
      </trkpt>
      <trkpt lat="43.489933" lon="-5.279056">
        <ele>56.032</ele>
        <time>2022-08-27T11:07:00Z</time>
      </trkpt>
      <trkpt lat="43.489953" lon="-5.278958">
        <ele>55.993</ele>
        <time>2022-08-27T11:07:01Z</time>
      </trkpt>
      <trkpt lat="43.489991" lon="-5.278760">
        <ele>55.765</ele>
        <time>2022-08-27T11:07:03Z</time>
      </trkpt>
      <trkpt lat="43.490004" lon="-5.278658">
        <ele>55.621</ele>
        <time>2022-08-27T11:07:04Z</time>
      </trkpt>
      <trkpt lat="43.490024" lon="-5.278451">
        <ele>54.909</ele>
        <time>2022-08-27T11:07:06Z</time>
      </trkpt>
      <trkpt lat="43.490021" lon="-5.278238">
        <ele>54.440</ele>
        <time>2022-08-27T11:07:08Z</time>
      </trkpt>
      <trkpt lat="43.489983" lon="-5.278031">
        <ele>54.110</ele>
        <time>2022-08-27T11:07:10Z</time>
      </trkpt>
      <trkpt lat="43.489951" lon="-5.277928">
        <ele>53.741</ele>
        <time>2022-08-27T11:07:11Z</time>
      </trkpt>
      <trkpt lat="43.489908" lon="-5.277835">
        <ele>53.429</ele>
        <time>2022-08-27T11:07:12Z</time>
      </trkpt>
      <trkpt lat="43.489798" lon="-5.277677">
        <ele>53.479</ele>
        <time>2022-08-27T11:07:14Z</time>
      </trkpt>
      <trkpt lat="43.489670" lon="-5.277569">
        <ele>53.465</ele>
        <time>2022-08-27T11:07:16Z</time>
      </trkpt>
      <trkpt lat="43.489542" lon="-5.277464">
        <ele>53.229</ele>
        <time>2022-08-27T11:07:18Z</time>
      </trkpt>
      <trkpt lat="43.489419" lon="-5.277367">
        <ele>53.256</ele>
        <time>2022-08-27T11:07:20Z</time>
      </trkpt>
      <trkpt lat="43.489361" lon="-5.277317">
        <ele>53.133</ele>
        <time>2022-08-27T11:07:21Z</time>
      </trkpt>
      <trkpt lat="43.489308" lon="-5.277269">
        <ele>53.051</ele>
        <time>2022-08-27T11:07:22Z</time>
      </trkpt>
      <trkpt lat="43.489196" lon="-5.277171">
        <ele>52.801</ele>
        <time>2022-08-27T11:07:24Z</time>
      </trkpt>
      <trkpt lat="43.489139" lon="-5.277121">
        <ele>52.811</ele>
        <time>2022-08-27T11:07:25Z</time>
      </trkpt>
      <trkpt lat="43.489086" lon="-5.277073">
        <ele>52.809</ele>
        <time>2022-08-27T11:07:26Z</time>
      </trkpt>
      <trkpt lat="43.488984" lon="-5.276983">
        <ele>53.036</ele>
        <time>2022-08-27T11:07:28Z</time>
      </trkpt>
      <trkpt lat="43.488934" lon="-5.276941">
        <ele>53.076</ele>
        <time>2022-08-27T11:07:29Z</time>
      </trkpt>
      <trkpt lat="43.488834" lon="-5.276859">
        <ele>53.087</ele>
        <time>2022-08-27T11:07:31Z</time>
      </trkpt>
      <trkpt lat="43.488784" lon="-5.276819">
        <ele>52.915</ele>
        <time>2022-08-27T11:07:32Z</time>
      </trkpt>
      <trkpt lat="43.488734" lon="-5.276776">
        <ele>52.725</ele>
        <time>2022-08-27T11:07:33Z</time>
      </trkpt>
      <trkpt lat="43.488684" lon="-5.276729">
        <ele>52.431</ele>
        <time>2022-08-27T11:07:34Z</time>
      </trkpt>
      <trkpt lat="43.488579" lon="-5.276641">
        <ele>52.465</ele>
        <time>2022-08-27T11:07:36Z</time>
      </trkpt>
      <trkpt lat="43.488472" lon="-5.276556">
        <ele>52.822</ele>
        <time>2022-08-27T11:07:38Z</time>
      </trkpt>
      <trkpt lat="43.488417" lon="-5.276514">
        <ele>53.079</ele>
        <time>2022-08-27T11:07:39Z</time>
      </trkpt>
      <trkpt lat="43.488362" lon="-5.276476">
        <ele>53.291</ele>
        <time>2022-08-27T11:07:40Z</time>
      </trkpt>
      <trkpt lat="43.488250" lon="-5.276406">
        <ele>53.381</ele>
        <time>2022-08-27T11:07:42Z</time>
      </trkpt>
      <trkpt lat="43.488137" lon="-5.276343">
        <ele>53.419</ele>
        <time>2022-08-27T11:07:44Z</time>
      </trkpt>
      <trkpt lat="43.488080" lon="-5.276313">
        <ele>53.409</ele>
        <time>2022-08-27T11:07:45Z</time>
      </trkpt>
      <trkpt lat="43.487960" lon="-5.276268">
        <ele>53.440</ele>
        <time>2022-08-27T11:07:47Z</time>
      </trkpt>
      <trkpt lat="43.487900" lon="-5.276243">
        <ele>53.450</ele>
        <time>2022-08-27T11:07:48Z</time>
      </trkpt>
      <trkpt lat="43.487785" lon="-5.276193">
        <ele>53.451</ele>
        <time>2022-08-27T11:07:50Z</time>
      </trkpt>
      <trkpt lat="43.487727" lon="-5.276173">
        <ele>53.459</ele>
        <time>2022-08-27T11:07:51Z</time>
      </trkpt>
      <trkpt lat="43.487669" lon="-5.276161">
        <ele>53.339</ele>
        <time>2022-08-27T11:07:52Z</time>
      </trkpt>
      <trkpt lat="43.487552" lon="-5.276154">
        <ele>52.525</ele>
        <time>2022-08-27T11:07:54Z</time>
      </trkpt>
      <trkpt lat="43.487494" lon="-5.276154">
        <ele>52.549</ele>
        <time>2022-08-27T11:07:55Z</time>
      </trkpt>
      <trkpt lat="43.487434" lon="-5.276152">
        <ele>52.566</ele>
        <time>2022-08-27T11:07:56Z</time>
      </trkpt>
      <trkpt lat="43.487376" lon="-5.276149">
        <ele>53.023</ele>
        <time>2022-08-27T11:07:57Z</time>
      </trkpt>
      <trkpt lat="43.487319" lon="-5.276149">
        <ele>53.277</ele>
        <time>2022-08-27T11:07:58Z</time>
      </trkpt>
      <trkpt lat="43.487211" lon="-5.276136">
        <ele>53.461</ele>
        <time>2022-08-27T11:08:00Z</time>
      </trkpt>
      <trkpt lat="43.487109" lon="-5.276109">
        <ele>53.427</ele>
        <time>2022-08-27T11:08:02Z</time>
      </trkpt>
      <trkpt lat="43.487061" lon="-5.276091">
        <ele>53.309</ele>
        <time>2022-08-27T11:08:03Z</time>
      </trkpt>
      <trkpt lat="43.487009" lon="-5.276071">
        <ele>52.818</ele>
        <time>2022-08-27T11:08:04Z</time>
      </trkpt>
      <trkpt lat="43.486912" lon="-5.276018">
        <ele>51.628</ele>
        <time>2022-08-27T11:08:06Z</time>
      </trkpt>
      <trkpt lat="43.486864" lon="-5.275986">
        <ele>51.449</ele>
        <time>2022-08-27T11:08:07Z</time>
      </trkpt>
      <trkpt lat="43.486772" lon="-5.275919">
        <ele>51.157</ele>
        <time>2022-08-27T11:08:09Z</time>
      </trkpt>
      <trkpt lat="43.486725" lon="-5.275886">
        <ele>50.697</ele>
        <time>2022-08-27T11:08:10Z</time>
      </trkpt>
      <trkpt lat="43.486630" lon="-5.275818">
        <ele>49.953</ele>
        <time>2022-08-27T11:08:12Z</time>
      </trkpt>
      <trkpt lat="43.486537" lon="-5.275746">
        <ele>49.867</ele>
        <time>2022-08-27T11:08:14Z</time>
      </trkpt>
      <trkpt lat="43.486489" lon="-5.275708">
        <ele>49.814</ele>
        <time>2022-08-27T11:08:15Z</time>
      </trkpt>
      <trkpt lat="43.486441" lon="-5.275671">
        <ele>50.051</ele>
        <time>2022-08-27T11:08:16Z</time>
      </trkpt>
      <trkpt lat="43.486349" lon="-5.275589">
        <ele>50.924</ele>
        <time>2022-08-27T11:08:18Z</time>
      </trkpt>
      <trkpt lat="43.486262" lon="-5.275501">
        <ele>51.604</ele>
        <time>2022-08-27T11:08:20Z</time>
      </trkpt>
      <trkpt lat="43.486177" lon="-5.275398">
        <ele>52.114</ele>
        <time>2022-08-27T11:08:22Z</time>
      </trkpt>
      <trkpt lat="43.486135" lon="-5.275348">
        <ele>52.409</ele>
        <time>2022-08-27T11:08:23Z</time>
      </trkpt>
      <trkpt lat="43.486045" lon="-5.275245">
        <ele>52.683</ele>
        <time>2022-08-27T11:08:25Z</time>
      </trkpt>
      <trkpt lat="43.485995" lon="-5.275200">
        <ele>52.643</ele>
        <time>2022-08-27T11:08:26Z</time>
      </trkpt>
      <trkpt lat="43.485942" lon="-5.275155">
        <ele>52.734</ele>
        <time>2022-08-27T11:08:27Z</time>
      </trkpt>
      <trkpt lat="43.485839" lon="-5.275065">
        <ele>52.882</ele>
        <time>2022-08-27T11:08:29Z</time>
      </trkpt>
      <trkpt lat="43.485789" lon="-5.275020">
        <ele>52.962</ele>
        <time>2022-08-27T11:08:30Z</time>
      </trkpt>
      <trkpt lat="43.485741" lon="-5.274973">
        <ele>52.948</ele>
        <time>2022-08-27T11:08:31Z</time>
      </trkpt>
      <trkpt lat="43.485696" lon="-5.274923">
        <ele>52.952</ele>
        <time>2022-08-27T11:08:32Z</time>
      </trkpt>
      <trkpt lat="43.485653" lon="-5.274870">
        <ele>52.949</ele>
        <time>2022-08-27T11:08:33Z</time>
      </trkpt>
      <trkpt lat="43.485561" lon="-5.274762">
        <ele>52.936</ele>
        <time>2022-08-27T11:08:35Z</time>
      </trkpt>
      <trkpt lat="43.485464" lon="-5.274649">
        <ele>53.269</ele>
        <time>2022-08-27T11:08:37Z</time>
      </trkpt>
      <trkpt lat="43.485421" lon="-5.274586">
        <ele>53.304</ele>
        <time>2022-08-27T11:08:38Z</time>
      </trkpt>
      <trkpt lat="43.485381" lon="-5.274528">
        <ele>53.324</ele>
        <time>2022-08-27T11:08:39Z</time>
      </trkpt>
      <trkpt lat="43.485308" lon="-5.274415">
        <ele>53.509</ele>
        <time>2022-08-27T11:08:41Z</time>
      </trkpt>
      <trkpt lat="43.485273" lon="-5.274362">
        <ele>53.597</ele>
        <time>2022-08-27T11:08:42Z</time>
      </trkpt>
      <trkpt lat="43.485211" lon="-5.274267">
        <ele>53.517</ele>
        <time>2022-08-27T11:08:44Z</time>
      </trkpt>
      <trkpt lat="43.485149" lon="-5.274189">
        <ele>53.548</ele>
        <time>2022-08-27T11:08:46Z</time>
      </trkpt>
      <trkpt lat="43.485097" lon="-5.274119">
        <ele>54.026</ele>
        <time>2022-08-27T11:08:48Z</time>
      </trkpt>
      <trkpt lat="43.485034" lon="-5.274067">
        <ele>55.186</ele>
        <time>2022-08-27T11:08:50Z</time>
      </trkpt>
      <trkpt lat="43.484977" lon="-5.274022">
        <ele>56.022</ele>
        <time>2022-08-27T11:08:52Z</time>
      </trkpt>
      <trkpt lat="43.484927" lon="-5.273967">
        <ele>57.966</ele>
        <time>2022-08-27T11:08:54Z</time>
      </trkpt>
      <trkpt lat="43.484870" lon="-5.273909">
        <ele>59.563</ele>
        <time>2022-08-27T11:08:56Z</time>
      </trkpt>
      <trkpt lat="43.484813" lon="-5.273851">
        <ele>59.940</ele>
        <time>2022-08-27T11:08:58Z</time>
      </trkpt>
      <trkpt lat="43.484760" lon="-5.273803">
        <ele>59.916</ele>
        <time>2022-08-27T11:09:00Z</time>
      </trkpt>
      <trkpt lat="43.484713" lon="-5.273745">
        <ele>59.776</ele>
        <time>2022-08-27T11:09:02Z</time>
      </trkpt>
      <trkpt lat="43.484661" lon="-5.273678">
        <ele>59.213</ele>
        <time>2022-08-27T11:09:04Z</time>
      </trkpt>
      <trkpt lat="43.484609" lon="-5.273610">
        <ele>58.909</ele>
        <time>2022-08-27T11:09:06Z</time>
      </trkpt>
      <trkpt lat="43.484551" lon="-5.273552">
        <ele>58.492</ele>
        <time>2022-08-27T11:09:08Z</time>
      </trkpt>
      <trkpt lat="43.484494" lon="-5.273489">
        <ele>58.332</ele>
        <time>2022-08-27T11:09:10Z</time>
      </trkpt>
      <trkpt lat="43.484441" lon="-5.273431">
        <ele>58.313</ele>
        <time>2022-08-27T11:09:12Z</time>
      </trkpt>
      <trkpt lat="43.484403" lon="-5.273371">
        <ele>58.411</ele>
        <time>2022-08-27T11:09:14Z</time>
      </trkpt>
      <trkpt lat="43.484376" lon="-5.273304">
        <ele>59.231</ele>
        <time>2022-08-27T11:09:16Z</time>
      </trkpt>
      <trkpt lat="43.484356" lon="-5.273244">
        <ele>60.137</ele>
        <time>2022-08-27T11:09:18Z</time>
      </trkpt>
      <trkpt lat="43.484331" lon="-5.273182">
        <ele>60.341</ele>
        <time>2022-08-27T11:09:20Z</time>
      </trkpt>
      <trkpt lat="43.484314" lon="-5.273112">
        <ele>60.528</ele>
        <time>2022-08-27T11:09:22Z</time>
      </trkpt>
      <trkpt lat="43.484299" lon="-5.273050">
        <ele>60.595</ele>
        <time>2022-08-27T11:09:24Z</time>
      </trkpt>
      <trkpt lat="43.484289" lon="-5.272983">
        <ele>60.887</ele>
        <time>2022-08-27T11:09:26Z</time>
      </trkpt>
      <trkpt lat="43.484294" lon="-5.272901">
        <ele>61.142</ele>
        <time>2022-08-27T11:09:28Z</time>
      </trkpt>
      <trkpt lat="43.484314" lon="-5.272824">
        <ele>61.426</ele>
        <time>2022-08-27T11:09:30Z</time>
      </trkpt>
      <trkpt lat="43.484342" lon="-5.272742">
        <ele>61.709</ele>
        <time>2022-08-27T11:09:32Z</time>
      </trkpt>
      <trkpt lat="43.484384" lon="-5.272685">
        <ele>62.339</ele>
        <time>2022-08-27T11:09:34Z</time>
      </trkpt>
      <trkpt lat="43.484427" lon="-5.272617">
        <ele>63.399</ele>
        <time>2022-08-27T11:09:36Z</time>
      </trkpt>
      <trkpt lat="43.484449" lon="-5.272552">
        <ele>64.970</ele>
        <time>2022-08-27T11:09:38Z</time>
      </trkpt>
      <trkpt lat="43.484464" lon="-5.272485">
        <ele>67.068</ele>
        <time>2022-08-27T11:09:41Z</time>
      </trkpt>
      <trkpt lat="43.484479" lon="-5.272420">
        <ele>67.828</ele>
        <time>2022-08-27T11:09:43Z</time>
      </trkpt>
      <trkpt lat="43.484494" lon="-5.272348">
        <ele>69.584</ele>
        <time>2022-08-27T11:09:45Z</time>
      </trkpt>
      <trkpt lat="43.484504" lon="-5.272271">
        <ele>69.888</ele>
        <time>2022-08-27T11:09:47Z</time>
      </trkpt>
      <trkpt lat="43.484512" lon="-5.272186">
        <ele>69.925</ele>
        <time>2022-08-27T11:09:49Z</time>
      </trkpt>
      <trkpt lat="43.484529" lon="-5.272091">
        <ele>69.942</ele>
        <time>2022-08-27T11:09:51Z</time>
      </trkpt>
      <trkpt lat="43.484537" lon="-5.271996">
        <ele>69.666</ele>
        <time>2022-08-27T11:09:53Z</time>
      </trkpt>
      <trkpt lat="43.484544" lon="-5.271906">
        <ele>68.929</ele>
        <time>2022-08-27T11:09:55Z</time>
      </trkpt>
      <trkpt lat="43.484561" lon="-5.271831">
        <ele>68.721</ele>
        <time>2022-08-27T11:09:57Z</time>
      </trkpt>
      <trkpt lat="43.484579" lon="-5.271766">
        <ele>68.609</ele>
        <time>2022-08-27T11:09:59Z</time>
      </trkpt>
      <trkpt lat="43.484599" lon="-5.271708">
        <ele>68.617</ele>
        <time>2022-08-27T11:10:01Z</time>
      </trkpt>
      <trkpt lat="43.484637" lon="-5.271600">
        <ele>68.697</ele>
        <time>2022-08-27T11:10:09Z</time>
      </trkpt>
      <trkpt lat="43.484655" lon="-5.271515">
        <ele>68.748</ele>
        <time>2022-08-27T11:10:11Z</time>
      </trkpt>
      <trkpt lat="43.484693" lon="-5.271412">
        <ele>69.316</ele>
        <time>2022-08-27T11:10:13Z</time>
      </trkpt>
      <trkpt lat="43.484716" lon="-5.271357">
        <ele>69.396</ele>
        <time>2022-08-27T11:10:14Z</time>
      </trkpt>
      <trkpt lat="43.484758" lon="-5.271244">
        <ele>70.652</ele>
        <time>2022-08-27T11:10:16Z</time>
      </trkpt>
      <trkpt lat="43.484798" lon="-5.271136">
        <ele>70.656</ele>
        <time>2022-08-27T11:10:18Z</time>
      </trkpt>
      <trkpt lat="43.484821" lon="-5.271078">
        <ele>70.763</ele>
        <time>2022-08-27T11:10:19Z</time>
      </trkpt>
      <trkpt lat="43.484863" lon="-5.270973">
        <ele>70.680</ele>
        <time>2022-08-27T11:10:21Z</time>
      </trkpt>
      <trkpt lat="43.484883" lon="-5.270915">
        <ele>70.514</ele>
        <time>2022-08-27T11:10:22Z</time>
      </trkpt>
      <trkpt lat="43.484931" lon="-5.270795">
        <ele>70.554</ele>
        <time>2022-08-27T11:10:24Z</time>
      </trkpt>
      <trkpt lat="43.484979" lon="-5.270677">
        <ele>70.509</ele>
        <time>2022-08-27T11:10:26Z</time>
      </trkpt>
      <trkpt lat="43.485021" lon="-5.270570">
        <ele>70.809</ele>
        <time>2022-08-27T11:10:28Z</time>
      </trkpt>
      <trkpt lat="43.485071" lon="-5.270467">
        <ele>70.852</ele>
        <time>2022-08-27T11:10:30Z</time>
      </trkpt>
      <trkpt lat="43.485098" lon="-5.270415">
        <ele>70.822</ele>
        <time>2022-08-27T11:10:31Z</time>
      </trkpt>
      <trkpt lat="43.485123" lon="-5.270363">
        <ele>70.413</ele>
        <time>2022-08-27T11:10:32Z</time>
      </trkpt>
      <trkpt lat="43.485166" lon="-5.270253">
        <ele>69.511</ele>
        <time>2022-08-27T11:10:34Z</time>
      </trkpt>
      <trkpt lat="43.485196" lon="-5.270141">
        <ele>68.991</ele>
        <time>2022-08-27T11:10:36Z</time>
      </trkpt>
      <trkpt lat="43.485226" lon="-5.270024">
        <ele>68.617</ele>
        <time>2022-08-27T11:10:38Z</time>
      </trkpt>
      <trkpt lat="43.485261" lon="-5.269911">
        <ele>68.641</ele>
        <time>2022-08-27T11:10:40Z</time>
      </trkpt>
      <trkpt lat="43.485294" lon="-5.269799">
        <ele>68.958</ele>
        <time>2022-08-27T11:10:42Z</time>
      </trkpt>
      <trkpt lat="43.485302" lon="-5.269677">
        <ele>68.985</ele>
        <time>2022-08-27T11:10:44Z</time>
      </trkpt>
      <trkpt lat="43.485299" lon="-5.269547">
        <ele>68.822</ele>
        <time>2022-08-27T11:10:46Z</time>
      </trkpt>
      <trkpt lat="43.485299" lon="-5.269410">
        <ele>68.462</ele>
        <time>2022-08-27T11:10:48Z</time>
      </trkpt>
      <trkpt lat="43.485296" lon="-5.269270">
        <ele>68.208</ele>
        <time>2022-08-27T11:10:50Z</time>
      </trkpt>
      <trkpt lat="43.485293" lon="-5.269198">
        <ele>67.809</ele>
        <time>2022-08-27T11:10:51Z</time>
      </trkpt>
      <trkpt lat="43.485283" lon="-5.269050">
        <ele>67.713</ele>
        <time>2022-08-27T11:10:53Z</time>
      </trkpt>
      <trkpt lat="43.485273" lon="-5.268900">
        <ele>67.733</ele>
        <time>2022-08-27T11:10:55Z</time>
      </trkpt>
      <trkpt lat="43.485268" lon="-5.268827">
        <ele>67.864</ele>
        <time>2022-08-27T11:10:56Z</time>
      </trkpt>
      <trkpt lat="43.485261" lon="-5.268755">
        <ele>67.882</ele>
        <time>2022-08-27T11:10:57Z</time>
      </trkpt>
      <trkpt lat="43.485254" lon="-5.268683">
        <ele>67.792</ele>
        <time>2022-08-27T11:10:58Z</time>
      </trkpt>
      <trkpt lat="43.485247" lon="-5.268531">
        <ele>67.538</ele>
        <time>2022-08-27T11:11:00Z</time>
      </trkpt>
      <trkpt lat="43.485245" lon="-5.268456">
        <ele>67.072</ele>
        <time>2022-08-27T11:11:01Z</time>
      </trkpt>
      <trkpt lat="43.485232" lon="-5.268303">
        <ele>66.629</ele>
        <time>2022-08-27T11:11:03Z</time>
      </trkpt>
      <trkpt lat="43.485214" lon="-5.268160">
        <ele>66.566</ele>
        <time>2022-08-27T11:11:05Z</time>
      </trkpt>
      <trkpt lat="43.485209" lon="-5.268085">
        <ele>66.599</ele>
        <time>2022-08-27T11:11:06Z</time>
      </trkpt>
      <trkpt lat="43.485199" lon="-5.267942">
        <ele>66.007</ele>
        <time>2022-08-27T11:11:08Z</time>
      </trkpt>
      <trkpt lat="43.485191" lon="-5.267872">
        <ele>65.827</ele>
        <time>2022-08-27T11:11:09Z</time>
      </trkpt>
      <trkpt lat="43.485179" lon="-5.267724">
        <ele>64.909</ele>
        <time>2022-08-27T11:11:11Z</time>
      </trkpt>
      <trkpt lat="43.485162" lon="-5.267582">
        <ele>64.910</ele>
        <time>2022-08-27T11:11:12Z</time>
      </trkpt>
      <trkpt lat="43.485155" lon="-5.267515">
        <ele>64.740</ele>
        <time>2022-08-27T11:11:14Z</time>
      </trkpt>
      <trkpt lat="43.485127" lon="-5.267392">
        <ele>64.731</ele>
        <time>2022-08-27T11:11:16Z</time>
      </trkpt>
      <trkpt lat="43.485102" lon="-5.267279">
        <ele>64.319</ele>
        <time>2022-08-27T11:11:18Z</time>
      </trkpt>
      <trkpt lat="43.485079" lon="-5.267161">
        <ele>63.999</ele>
        <time>2022-08-27T11:11:19Z</time>
      </trkpt>
      <trkpt lat="43.485061" lon="-5.267046">
        <ele>63.775</ele>
        <time>2022-08-27T11:11:22Z</time>
      </trkpt>
      <trkpt lat="43.485048" lon="-5.266913">
        <ele>63.699</ele>
        <time>2022-08-27T11:11:24Z</time>
      </trkpt>
      <trkpt lat="43.485046" lon="-5.266846">
        <ele>63.596</ele>
        <time>2022-08-27T11:11:25Z</time>
      </trkpt>
      <trkpt lat="43.485039" lon="-5.266774">
        <ele>63.523</ele>
        <time>2022-08-27T11:11:26Z</time>
      </trkpt>
      <trkpt lat="43.485024" lon="-5.266634">
        <ele>63.622</ele>
        <time>2022-08-27T11:11:28Z</time>
      </trkpt>
      <trkpt lat="43.485012" lon="-5.266566">
        <ele>64.062</ele>
        <time>2022-08-27T11:11:29Z</time>
      </trkpt>
      <trkpt lat="43.484997" lon="-5.266428">
        <ele>64.608</ele>
        <time>2022-08-27T11:11:31Z</time>
      </trkpt>
      <trkpt lat="43.484985" lon="-5.266290">
        <ele>65.209</ele>
        <time>2022-08-27T11:11:33Z</time>
      </trkpt>
      <trkpt lat="43.484977" lon="-5.266147">
        <ele>66.133</ele>
        <time>2022-08-27T11:11:35Z</time>
      </trkpt>
      <trkpt lat="43.484970" lon="-5.266079">
        <ele>66.473</ele>
        <time>2022-08-27T11:11:36Z</time>
      </trkpt>
      <trkpt lat="43.484962" lon="-5.265942">
        <ele>67.494</ele>
        <time>2022-08-27T11:11:38Z</time>
      </trkpt>
      <trkpt lat="43.484952" lon="-5.265875">
        <ele>67.972</ele>
        <time>2022-08-27T11:11:39Z</time>
      </trkpt>
      <trkpt lat="43.484947" lon="-5.265808">
        <ele>68.372</ele>
        <time>2022-08-27T11:11:40Z</time>
      </trkpt>
      <trkpt lat="43.484932" lon="-5.265681">
        <ele>68.378</ele>
        <time>2022-08-27T11:11:42Z</time>
      </trkpt>
      <trkpt lat="43.484925" lon="-5.265616">
        <ele>68.312</ele>
        <time>2022-08-27T11:11:43Z</time>
      </trkpt>
      <trkpt lat="43.484908" lon="-5.265488">
        <ele>68.319</ele>
        <time>2022-08-27T11:11:45Z</time>
      </trkpt>
      <trkpt lat="43.484886" lon="-5.265366">
        <ele>68.296</ele>
        <time>2022-08-27T11:11:47Z</time>
      </trkpt>
      <trkpt lat="43.484868" lon="-5.265236">
        <ele>68.134</ele>
        <time>2022-08-27T11:11:49Z</time>
      </trkpt>
      <trkpt lat="43.484861" lon="-5.265168">
        <ele>68.155</ele>
        <time>2022-08-27T11:11:50Z</time>
      </trkpt>
      <trkpt lat="43.484854" lon="-5.265100">
        <ele>68.110</ele>
        <time>2022-08-27T11:11:51Z</time>
      </trkpt>
      <trkpt lat="43.484849" lon="-5.265030">
        <ele>68.209</ele>
        <time>2022-08-27T11:11:52Z</time>
      </trkpt>
      <trkpt lat="43.484832" lon="-5.264890">
        <ele>68.234</ele>
        <time>2022-08-27T11:11:54Z</time>
      </trkpt>
      <trkpt lat="43.484825" lon="-5.264820">
        <ele>68.194</ele>
        <time>2022-08-27T11:11:55Z</time>
      </trkpt>
      <trkpt lat="43.484808" lon="-5.264682">
        <ele>68.295</ele>
        <time>2022-08-27T11:11:57Z</time>
      </trkpt>
      <trkpt lat="43.484800" lon="-5.264610">
        <ele>68.283</ele>
        <time>2022-08-27T11:11:58Z</time>
      </trkpt>
      <trkpt lat="43.484793" lon="-5.264540">
        <ele>68.323</ele>
        <time>2022-08-27T11:11:59Z</time>
      </trkpt>
      <trkpt lat="43.484786" lon="-5.264467">
        <ele>68.319</ele>
        <time>2022-08-27T11:12:00Z</time>
      </trkpt>
      <trkpt lat="43.484776" lon="-5.264320">
        <ele>68.453</ele>
        <time>2022-08-27T11:12:02Z</time>
      </trkpt>
      <trkpt lat="43.484768" lon="-5.264248">
        <ele>68.510</ele>
        <time>2022-08-27T11:12:03Z</time>
      </trkpt>
      <trkpt lat="43.484758" lon="-5.264178">
        <ele>68.627</ele>
        <time>2022-08-27T11:12:04Z</time>
      </trkpt>
      <trkpt lat="43.484743" lon="-5.264036">
        <ele>68.713</ele>
        <time>2022-08-27T11:12:06Z</time>
      </trkpt>
      <trkpt lat="43.484725" lon="-5.263903">
        <ele>68.743</ele>
        <time>2022-08-27T11:12:08Z</time>
      </trkpt>
      <trkpt lat="43.484705" lon="-5.263768">
        <ele>68.507</ele>
        <time>2022-08-27T11:12:10Z</time>
      </trkpt>
      <trkpt lat="43.484698" lon="-5.263695">
        <ele>68.309</ele>
        <time>2022-08-27T11:12:11Z</time>
      </trkpt>
      <trkpt lat="43.484678" lon="-5.263553">
        <ele>67.952</ele>
        <time>2022-08-27T11:12:13Z</time>
      </trkpt>
      <trkpt lat="43.484651" lon="-5.263406">
        <ele>67.412</ele>
        <time>2022-08-27T11:12:15Z</time>
      </trkpt>
      <trkpt lat="43.484639" lon="-5.263254">
        <ele>66.983</ele>
        <time>2022-08-27T11:12:17Z</time>
      </trkpt>
      <trkpt lat="43.484626" lon="-5.263109">
        <ele>66.881</ele>
        <time>2022-08-27T11:12:19Z</time>
      </trkpt>
      <trkpt lat="43.484611" lon="-5.262964">
        <ele>66.831</ele>
        <time>2022-08-27T11:12:21Z</time>
      </trkpt>
      <trkpt lat="43.484598" lon="-5.262817">
        <ele>66.867</ele>
        <time>2022-08-27T11:12:23Z</time>
      </trkpt>
      <trkpt lat="43.484593" lon="-5.262750">
        <ele>66.931</ele>
        <time>2022-08-27T11:12:24Z</time>
      </trkpt>
      <trkpt lat="43.484575" lon="-5.262620">
        <ele>67.228</ele>
        <time>2022-08-27T11:12:26Z</time>
      </trkpt>
      <trkpt lat="43.484557" lon="-5.262493">
        <ele>67.345</ele>
        <time>2022-08-27T11:12:28Z</time>
      </trkpt>
      <trkpt lat="43.484550" lon="-5.262430">
        <ele>67.373</ele>
        <time>2022-08-27T11:12:29Z</time>
      </trkpt>
      <trkpt lat="43.484532" lon="-5.262300">
        <ele>67.685</ele>
        <time>2022-08-27T11:12:31Z</time>
      </trkpt>
      <trkpt lat="43.484525" lon="-5.262235">
        <ele>67.813</ele>
        <time>2022-08-27T11:12:32Z</time>
      </trkpt>
      <trkpt lat="43.484518" lon="-5.262168">
        <ele>68.009</ele>
        <time>2022-08-27T11:12:33Z</time>
      </trkpt>
      <trkpt lat="43.484503" lon="-5.262041">
        <ele>68.078</ele>
        <time>2022-08-27T11:12:35Z</time>
      </trkpt>
      <trkpt lat="43.484495" lon="-5.261979">
        <ele>68.018</ele>
        <time>2022-08-27T11:12:36Z</time>
      </trkpt>
      <trkpt lat="43.484488" lon="-5.261916">
        <ele>68.079</ele>
        <time>2022-08-27T11:12:37Z</time>
      </trkpt>
      <trkpt lat="43.484471" lon="-5.261791">
        <ele>67.667</ele>
        <time>2022-08-27T11:12:39Z</time>
      </trkpt>
      <trkpt lat="43.484463" lon="-5.261729">
        <ele>67.617</ele>
        <time>2022-08-27T11:12:40Z</time>
      </trkpt>
      <trkpt lat="43.484448" lon="-5.261606">
        <ele>67.673</ele>
        <time>2022-08-27T11:12:42Z</time>
      </trkpt>
      <trkpt lat="43.484445" lon="-5.261539">
        <ele>67.667</ele>
        <time>2022-08-27T11:12:43Z</time>
      </trkpt>
      <trkpt lat="43.484430" lon="-5.261412">
        <ele>68.054</ele>
        <time>2022-08-27T11:12:45Z</time>
      </trkpt>
      <trkpt lat="43.484415" lon="-5.261292">
        <ele>68.561</ele>
        <time>2022-08-27T11:12:47Z</time>
      </trkpt>
      <trkpt lat="43.484408" lon="-5.261227">
        <ele>68.553</ele>
        <time>2022-08-27T11:12:48Z</time>
      </trkpt>
      <trkpt lat="43.484401" lon="-5.261162">
        <ele>68.504</ele>
        <time>2022-08-27T11:12:49Z</time>
      </trkpt>
      <trkpt lat="43.484393" lon="-5.261025">
        <ele>68.914</ele>
        <time>2022-08-27T11:12:51Z</time>
      </trkpt>
      <trkpt lat="43.484380" lon="-5.260890">
        <ele>69.209</ele>
        <time>2022-08-27T11:12:53Z</time>
      </trkpt>
      <trkpt lat="43.484372" lon="-5.260823">
        <ele>69.476</ele>
        <time>2022-08-27T11:12:54Z</time>
      </trkpt>
      <trkpt lat="43.484359" lon="-5.260695">
        <ele>69.546</ele>
        <time>2022-08-27T11:12:56Z</time>
      </trkpt>
      <trkpt lat="43.484352" lon="-5.260630">
        <ele>69.627</ele>
        <time>2022-08-27T11:12:57Z</time>
      </trkpt>
      <trkpt lat="43.484337" lon="-5.260502">
        <ele>69.935</ele>
        <time>2022-08-27T11:12:59Z</time>
      </trkpt>
      <trkpt lat="43.484324" lon="-5.260369">
        <ele>70.095</ele>
        <time>2022-08-27T11:13:01Z</time>
      </trkpt>
      <trkpt lat="43.484311" lon="-5.260237">
        <ele>70.461</ele>
        <time>2022-08-27T11:13:03Z</time>
      </trkpt>
      <trkpt lat="43.484306" lon="-5.260169">
        <ele>70.715</ele>
        <time>2022-08-27T11:13:04Z</time>
      </trkpt>
      <trkpt lat="43.484291" lon="-5.260037">
        <ele>71.052</ele>
        <time>2022-08-27T11:13:06Z</time>
      </trkpt>
      <trkpt lat="43.484281" lon="-5.259907">
        <ele>71.179</ele>
        <time>2022-08-27T11:13:08Z</time>
      </trkpt>
      <trkpt lat="43.484269" lon="-5.259772">
        <ele>71.217</ele>
        <time>2022-08-27T11:13:10Z</time>
      </trkpt>
      <trkpt lat="43.484261" lon="-5.259704">
        <ele>71.387</ele>
        <time>2022-08-27T11:13:11Z</time>
      </trkpt>
      <trkpt lat="43.484251" lon="-5.259637">
        <ele>71.315</ele>
        <time>2022-08-27T11:13:12Z</time>
      </trkpt>
      <trkpt lat="43.484236" lon="-5.259502">
        <ele>71.209</ele>
        <time>2022-08-27T11:13:14Z</time>
      </trkpt>
      <trkpt lat="43.484223" lon="-5.259365">
        <ele>71.112</ele>
        <time>2022-08-27T11:13:16Z</time>
      </trkpt>
      <trkpt lat="43.484205" lon="-5.259232">
        <ele>71.112</ele>
        <time>2022-08-27T11:13:18Z</time>
      </trkpt>
      <trkpt lat="43.484187" lon="-5.259099">
        <ele>71.243</ele>
        <time>2022-08-27T11:13:20Z</time>
      </trkpt>
      <trkpt lat="43.484179" lon="-5.259031">
        <ele>71.261</ele>
        <time>2022-08-27T11:13:21Z</time>
      </trkpt>
      <trkpt lat="43.484172" lon="-5.258966">
        <ele>71.371</ele>
        <time>2022-08-27T11:13:22Z</time>
      </trkpt>
      <trkpt lat="43.484152" lon="-5.258834">
        <ele>71.357</ele>
        <time>2022-08-27T11:13:24Z</time>
      </trkpt>
      <trkpt lat="43.484139" lon="-5.258701">
        <ele>71.061</ele>
        <time>2022-08-27T11:13:26Z</time>
      </trkpt>
      <trkpt lat="43.484136" lon="-5.258633">
        <ele>70.858</ele>
        <time>2022-08-27T11:13:27Z</time>
      </trkpt>
      <trkpt lat="43.484123" lon="-5.258496">
        <ele>70.615</ele>
        <time>2022-08-27T11:13:29Z</time>
      </trkpt>
      <trkpt lat="43.484116" lon="-5.258429">
        <ele>70.631</ele>
        <time>2022-08-27T11:13:30Z</time>
      </trkpt>
      <trkpt lat="43.484108" lon="-5.258362">
        <ele>70.661</ele>
        <time>2022-08-27T11:13:31Z</time>
      </trkpt>
      <trkpt lat="43.484096" lon="-5.258230">
        <ele>70.707</ele>
        <time>2022-08-27T11:13:33Z</time>
      </trkpt>
      <trkpt lat="43.484083" lon="-5.258100">
        <ele>70.709</ele>
        <time>2022-08-27T11:13:35Z</time>
      </trkpt>
      <trkpt lat="43.484075" lon="-5.258035">
        <ele>70.774</ele>
        <time>2022-08-27T11:13:36Z</time>
      </trkpt>
      <trkpt lat="43.484058" lon="-5.257910">
        <ele>70.644</ele>
        <time>2022-08-27T11:13:38Z</time>
      </trkpt>
      <trkpt lat="43.484045" lon="-5.257780">
        <ele>70.685</ele>
        <time>2022-08-27T11:13:40Z</time>
      </trkpt>
      <trkpt lat="43.484037" lon="-5.257713">
        <ele>70.653</ele>
        <time>2022-08-27T11:13:41Z</time>
      </trkpt>
      <trkpt lat="43.484032" lon="-5.257646">
        <ele>70.683</ele>
        <time>2022-08-27T11:13:42Z</time>
      </trkpt>
      <trkpt lat="43.484019" lon="-5.257519">
        <ele>70.869</ele>
        <time>2022-08-27T11:13:44Z</time>
      </trkpt>
      <trkpt lat="43.484006" lon="-5.257396">
        <ele>70.973</ele>
        <time>2022-08-27T11:13:46Z</time>
      </trkpt>
      <trkpt lat="43.483996" lon="-5.257273">
        <ele>71.180</ele>
        <time>2022-08-27T11:13:48Z</time>
      </trkpt>
      <trkpt lat="43.483978" lon="-5.257156">
        <ele>71.777</ele>
        <time>2022-08-27T11:13:50Z</time>
      </trkpt>
      <trkpt lat="43.483966" lon="-5.257041">
        <ele>71.792</ele>
        <time>2022-08-27T11:13:52Z</time>
      </trkpt>
      <trkpt lat="43.483951" lon="-5.256929">
        <ele>71.773</ele>
        <time>2022-08-27T11:13:54Z</time>
      </trkpt>
      <trkpt lat="43.483936" lon="-5.256816">
        <ele>71.720</ele>
        <time>2022-08-27T11:13:56Z</time>
      </trkpt>
      <trkpt lat="43.483923" lon="-5.256706">
        <ele>71.809</ele>
        <time>2022-08-27T11:13:58Z</time>
      </trkpt>
      <trkpt lat="43.483915" lon="-5.256598">
        <ele>72.070</ele>
        <time>2022-08-27T11:14:00Z</time>
      </trkpt>
      <trkpt lat="43.483902" lon="-5.256491">
        <ele>72.030</ele>
        <time>2022-08-27T11:14:02Z</time>
      </trkpt>
      <trkpt lat="43.483885" lon="-5.256388">
        <ele>71.981</ele>
        <time>2022-08-27T11:14:04Z</time>
      </trkpt>
      <trkpt lat="43.483848" lon="-5.256295">
        <ele>71.959</ele>
        <time>2022-08-27T11:14:06Z</time>
      </trkpt>
      <trkpt lat="43.483798" lon="-5.256222">
        <ele>71.569</ele>
        <time>2022-08-27T11:14:08Z</time>
      </trkpt>
      <trkpt lat="43.483736" lon="-5.256157">
        <ele>71.155</ele>
        <time>2022-08-27T11:14:10Z</time>
      </trkpt>
      <trkpt lat="43.483681" lon="-5.256077">
        <ele>70.539</ele>
        <time>2022-08-27T11:14:12Z</time>
      </trkpt>
      <trkpt lat="43.483646" lon="-5.255975">
        <ele>70.436</ele>
        <time>2022-08-27T11:14:14Z</time>
      </trkpt>
      <trkpt lat="43.483643" lon="-5.255865">
        <ele>70.933</ele>
        <time>2022-08-27T11:14:16Z</time>
      </trkpt>
      <trkpt lat="43.483666" lon="-5.255758">
        <ele>71.636</ele>
        <time>2022-08-27T11:14:18Z</time>
      </trkpt>
      <trkpt lat="43.483706" lon="-5.255661">
        <ele>72.017</ele>
        <time>2022-08-27T11:14:20Z</time>
      </trkpt>
      <trkpt lat="43.483744" lon="-5.255563">
        <ele>72.018</ele>
        <time>2022-08-27T11:14:22Z</time>
      </trkpt>
      <trkpt lat="43.483767" lon="-5.255450">
        <ele>72.009</ele>
        <time>2022-08-27T11:14:24Z</time>
      </trkpt>
      <trkpt lat="43.483772" lon="-5.255332">
        <ele>71.824</ele>
        <time>2022-08-27T11:14:26Z</time>
      </trkpt>
      <trkpt lat="43.483767" lon="-5.255215">
        <ele>71.844</ele>
        <time>2022-08-27T11:14:28Z</time>
      </trkpt>
      <trkpt lat="43.483750" lon="-5.255098">
        <ele>72.325</ele>
        <time>2022-08-27T11:14:30Z</time>
      </trkpt>
      <trkpt lat="43.483737" lon="-5.254983">
        <ele>72.553</ele>
        <time>2022-08-27T11:14:32Z</time>
      </trkpt>
      <trkpt lat="43.483729" lon="-5.254868">
        <ele>72.593</ele>
        <time>2022-08-27T11:14:33Z</time>
      </trkpt>
      <trkpt lat="43.483717" lon="-5.254753">
        <ele>72.589</ele>
        <time>2022-08-27T11:14:35Z</time>
      </trkpt>
      <trkpt lat="43.483705" lon="-5.254638">
        <ele>72.363</ele>
        <time>2022-08-27T11:14:37Z</time>
      </trkpt>
      <trkpt lat="43.483690" lon="-5.254528">
        <ele>72.310</ele>
        <time>2022-08-27T11:14:40Z</time>
      </trkpt>
      <trkpt lat="43.483673" lon="-5.254421">
        <ele>72.387</ele>
        <time>2022-08-27T11:14:42Z</time>
      </trkpt>
      <trkpt lat="43.483660" lon="-5.254306">
        <ele>72.822</ele>
        <time>2022-08-27T11:14:44Z</time>
      </trkpt>
      <trkpt lat="43.483647" lon="-5.254191">
        <ele>72.962</ele>
        <time>2022-08-27T11:14:46Z</time>
      </trkpt>
      <trkpt lat="43.483630" lon="-5.254076">
        <ele>73.008</ele>
        <time>2022-08-27T11:14:48Z</time>
      </trkpt>
      <trkpt lat="43.483623" lon="-5.254014">
        <ele>73.109</ele>
        <time>2022-08-27T11:14:49Z</time>
      </trkpt>
      <trkpt lat="43.483618" lon="-5.253952">
        <ele>73.363</ele>
        <time>2022-08-27T11:14:50Z</time>
      </trkpt>
      <trkpt lat="43.483610" lon="-5.253832">
        <ele>73.913</ele>
        <time>2022-08-27T11:14:52Z</time>
      </trkpt>
      <trkpt lat="43.483602" lon="-5.253710">
        <ele>74.484</ele>
        <time>2022-08-27T11:14:54Z</time>
      </trkpt>
      <trkpt lat="43.483590" lon="-5.253590">
        <ele>74.772</ele>
        <time>2022-08-27T11:14:56Z</time>
      </trkpt>
      <trkpt lat="43.483573" lon="-5.253473">
        <ele>75.292</ele>
        <time>2022-08-27T11:14:58Z</time>
      </trkpt>
      <trkpt lat="43.483563" lon="-5.253353">
        <ele>75.318</ele>
        <time>2022-08-27T11:15:00Z</time>
      </trkpt>
      <trkpt lat="43.483543" lon="-5.253248">
        <ele>75.382</ele>
        <time>2022-08-27T11:15:01Z</time>
      </trkpt>
      <trkpt lat="43.483535" lon="-5.253138">
        <ele>75.449</ele>
        <time>2022-08-27T11:15:04Z</time>
      </trkpt>
      <trkpt lat="43.483533" lon="-5.253023">
        <ele>75.776</ele>
        <time>2022-08-27T11:15:06Z</time>
      </trkpt>
      <trkpt lat="43.483531" lon="-5.252905">
        <ele>77.025</ele>
        <time>2022-08-27T11:15:08Z</time>
      </trkpt>
      <trkpt lat="43.483516" lon="-5.252787">
        <ele>77.126</ele>
        <time>2022-08-27T11:15:10Z</time>
      </trkpt>
      <trkpt lat="43.483506" lon="-5.252665">
        <ele>77.208</ele>
        <time>2022-08-27T11:15:12Z</time>
      </trkpt>
      <trkpt lat="43.483484" lon="-5.252552">
        <ele>77.409</ele>
        <time>2022-08-27T11:15:14Z</time>
      </trkpt>
      <trkpt lat="43.483461" lon="-5.252435">
        <ele>77.433</ele>
        <time>2022-08-27T11:15:16Z</time>
      </trkpt>
      <trkpt lat="43.483454" lon="-5.252372">
        <ele>77.453</ele>
        <time>2022-08-27T11:15:17Z</time>
      </trkpt>
      <trkpt lat="43.483439" lon="-5.252252">
        <ele>77.084</ele>
        <time>2022-08-27T11:15:19Z</time>
      </trkpt>
      <trkpt lat="43.483426" lon="-5.252130">
        <ele>77.022</ele>
        <time>2022-08-27T11:15:21Z</time>
      </trkpt>
      <trkpt lat="43.483419" lon="-5.252067">
        <ele>77.362</ele>
        <time>2022-08-27T11:15:22Z</time>
      </trkpt>
      <trkpt lat="43.483406" lon="-5.251939">
        <ele>77.668</ele>
        <time>2022-08-27T11:15:24Z</time>
      </trkpt>
      <trkpt lat="43.483386" lon="-5.251817">
        <ele>77.772</ele>
        <time>2022-08-27T11:15:26Z</time>
      </trkpt>
      <trkpt lat="43.483379" lon="-5.251752">
        <ele>77.949</ele>
        <time>2022-08-27T11:15:27Z</time>
      </trkpt>
      <trkpt lat="43.483381" lon="-5.251685">
        <ele>78.186</ele>
        <time>2022-08-27T11:15:28Z</time>
      </trkpt>
      <trkpt lat="43.483374" lon="-5.251557">
        <ele>78.255</ele>
        <time>2022-08-27T11:15:30Z</time>
      </trkpt>
      <trkpt lat="43.483362" lon="-5.251437">
        <ele>78.207</ele>
        <time>2022-08-27T11:15:31Z</time>
      </trkpt>
      <trkpt lat="43.483345" lon="-5.251320">
        <ele>77.717</ele>
        <time>2022-08-27T11:15:34Z</time>
      </trkpt>
      <trkpt lat="43.483337" lon="-5.251258">
        <ele>77.609</ele>
        <time>2022-08-27T11:15:35Z</time>
      </trkpt>
      <trkpt lat="43.483320" lon="-5.251133">
        <ele>76.476</ele>
        <time>2022-08-27T11:15:37Z</time>
      </trkpt>
      <trkpt lat="43.483293" lon="-5.251021">
        <ele>76.446</ele>
        <time>2022-08-27T11:15:39Z</time>
      </trkpt>
      <trkpt lat="43.483263" lon="-5.250931">
        <ele>76.247</ele>
        <time>2022-08-27T11:15:41Z</time>
      </trkpt>
      <trkpt lat="43.483245" lon="-5.250814">
        <ele>76.275</ele>
        <time>2022-08-27T11:15:43Z</time>
      </trkpt>
      <trkpt lat="43.483223" lon="-5.250704">
        <ele>75.835</ele>
        <time>2022-08-27T11:15:45Z</time>
      </trkpt>
      <trkpt lat="43.483220" lon="-5.250594">
        <ele>75.521</ele>
        <time>2022-08-27T11:15:47Z</time>
      </trkpt>
      <trkpt lat="43.483200" lon="-5.250481">
        <ele>75.085</ele>
        <time>2022-08-27T11:15:49Z</time>
      </trkpt>
      <trkpt lat="43.483195" lon="-5.250404">
        <ele>75.062</ele>
        <time>2022-08-27T11:15:50Z</time>
      </trkpt>
      <trkpt lat="43.483188" lon="-5.250264">
        <ele>74.549</ele>
        <time>2022-08-27T11:15:52Z</time>
      </trkpt>
      <trkpt lat="43.483183" lon="-5.250197">
        <ele>74.577</ele>
        <time>2022-08-27T11:15:53Z</time>
      </trkpt>
      <trkpt lat="43.483166" lon="-5.250054">
        <ele>74.561</ele>
        <time>2022-08-27T11:15:55Z</time>
      </trkpt>
      <trkpt lat="43.483159" lon="-5.249984">
        <ele>74.827</ele>
        <time>2022-08-27T11:15:56Z</time>
      </trkpt>
      <trkpt lat="43.483149" lon="-5.249849">
        <ele>76.209</ele>
        <time>2022-08-27T11:15:58Z</time>
      </trkpt>
      <trkpt lat="43.483132" lon="-5.249726">
        <ele>77.548</ele>
        <time>2022-08-27T11:16:00Z</time>
      </trkpt>
      <trkpt lat="43.483125" lon="-5.249664">
        <ele>78.198</ele>
        <time>2022-08-27T11:16:01Z</time>
      </trkpt>
      <trkpt lat="43.483112" lon="-5.249541">
        <ele>78.599</ele>
        <time>2022-08-27T11:16:03Z</time>
      </trkpt>
      <trkpt lat="43.483105" lon="-5.249476">
        <ele>78.737</ele>
        <time>2022-08-27T11:16:04Z</time>
      </trkpt>
      <trkpt lat="43.483092" lon="-5.249351">
        <ele>79.047</ele>
        <time>2022-08-27T11:16:06Z</time>
      </trkpt>
      <trkpt lat="43.483084" lon="-5.249286">
        <ele>79.183</ele>
        <time>2022-08-27T11:16:07Z</time>
      </trkpt>
      <trkpt lat="43.483072" lon="-5.249163">
        <ele>79.357</ele>
        <time>2022-08-27T11:16:09Z</time>
      </trkpt>
      <trkpt lat="43.483069" lon="-5.249100">
        <ele>79.594</ele>
        <time>2022-08-27T11:16:10Z</time>
      </trkpt>
      <trkpt lat="43.483061" lon="-5.248975">
        <ele>79.811</ele>
        <time>2022-08-27T11:16:11Z</time>
      </trkpt>
      <trkpt lat="43.483046" lon="-5.248863">
        <ele>80.119</ele>
        <time>2022-08-27T11:16:14Z</time>
      </trkpt>
      <trkpt lat="43.483031" lon="-5.248751">
        <ele>80.209</ele>
        <time>2022-08-27T11:16:16Z</time>
      </trkpt>
      <trkpt lat="43.483014" lon="-5.248633">
        <ele>80.519</ele>
        <time>2022-08-27T11:16:18Z</time>
      </trkpt>
      <trkpt lat="43.483007" lon="-5.248568">
        <ele>80.709</ele>
        <time>2022-08-27T11:16:19Z</time>
      </trkpt>
      <trkpt lat="43.482990" lon="-5.248438">
        <ele>81.062</ele>
        <time>2022-08-27T11:16:21Z</time>
      </trkpt>
      <trkpt lat="43.482975" lon="-5.248306">
        <ele>81.022</ele>
        <time>2022-08-27T11:16:23Z</time>
      </trkpt>
      <trkpt lat="43.482960" lon="-5.248164">
        <ele>80.843</ele>
        <time>2022-08-27T11:16:25Z</time>
      </trkpt>
      <trkpt lat="43.482952" lon="-5.248092">
        <ele>80.641</ele>
        <time>2022-08-27T11:16:26Z</time>
      </trkpt>
      <trkpt lat="43.482944" lon="-5.248019">
        <ele>80.521</ele>
        <time>2022-08-27T11:16:27Z</time>
      </trkpt>
      <trkpt lat="43.482934" lon="-5.247946">
        <ele>80.427</ele>
        <time>2022-08-27T11:16:28Z</time>
      </trkpt>
      <trkpt lat="43.482917" lon="-5.247794">
        <ele>80.111</ele>
        <time>2022-08-27T11:16:30Z</time>
      </trkpt>
      <trkpt lat="43.482902" lon="-5.247639">
        <ele>79.638</ele>
        <time>2022-08-27T11:16:32Z</time>
      </trkpt>
      <trkpt lat="43.482894" lon="-5.247559">
        <ele>79.395</ele>
        <time>2022-08-27T11:16:33Z</time>
      </trkpt>
      <trkpt lat="43.482882" lon="-5.247481">
        <ele>79.145</ele>
        <time>2022-08-27T11:16:34Z</time>
      </trkpt>
      <trkpt lat="43.482872" lon="-5.247401">
        <ele>79.147</ele>
        <time>2022-08-27T11:16:35Z</time>
      </trkpt>
      <trkpt lat="43.482857" lon="-5.247238">
        <ele>79.111</ele>
        <time>2022-08-27T11:16:37Z</time>
      </trkpt>
      <trkpt lat="43.482837" lon="-5.247076">
        <ele>79.009</ele>
        <time>2022-08-27T11:16:39Z</time>
      </trkpt>
      <trkpt lat="43.482819" lon="-5.246906">
        <ele>78.735</ele>
        <time>2022-08-27T11:16:41Z</time>
      </trkpt>
      <trkpt lat="43.482799" lon="-5.246738">
        <ele>78.795</ele>
        <time>2022-08-27T11:16:43Z</time>
      </trkpt>
      <trkpt lat="43.482781" lon="-5.246565">
        <ele>78.816</ele>
        <time>2022-08-27T11:16:45Z</time>
      </trkpt>
      <trkpt lat="43.482773" lon="-5.246477">
        <ele>78.964</ele>
        <time>2022-08-27T11:16:46Z</time>
      </trkpt>
      <trkpt lat="43.482766" lon="-5.246389">
        <ele>79.064</ele>
        <time>2022-08-27T11:16:47Z</time>
      </trkpt>
      <trkpt lat="43.482756" lon="-5.246204">
        <ele>79.050</ele>
        <time>2022-08-27T11:16:49Z</time>
      </trkpt>
      <trkpt lat="43.482748" lon="-5.246111">
        <ele>79.034</ele>
        <time>2022-08-27T11:16:50Z</time>
      </trkpt>
      <trkpt lat="43.482725" lon="-5.245924">
        <ele>78.161</ele>
        <time>2022-08-27T11:16:52Z</time>
      </trkpt>
      <trkpt lat="43.482717" lon="-5.245832">
        <ele>77.588</ele>
        <time>2022-08-27T11:16:53Z</time>
      </trkpt>
      <trkpt lat="43.482690" lon="-5.245652">
        <ele>76.996</ele>
        <time>2022-08-27T11:16:55Z</time>
      </trkpt>
      <trkpt lat="43.482680" lon="-5.245564">
        <ele>76.431</ele>
        <time>2022-08-27T11:16:56Z</time>
      </trkpt>
      <trkpt lat="43.482655" lon="-5.245399">
        <ele>75.724</ele>
        <time>2022-08-27T11:16:58Z</time>
      </trkpt>
      <trkpt lat="43.482637" lon="-5.245232">
        <ele>74.809</ele>
        <time>2022-08-27T11:17:00Z</time>
      </trkpt>
      <trkpt lat="43.482625" lon="-5.245147">
        <ele>74.130</ele>
        <time>2022-08-27T11:17:01Z</time>
      </trkpt>
      <trkpt lat="43.482617" lon="-5.245064">
        <ele>74.130</ele>
        <time>2022-08-27T11:17:02Z</time>
      </trkpt>
      <trkpt lat="43.482605" lon="-5.244981">
        <ele>74.181</ele>
        <time>2022-08-27T11:17:03Z</time>
      </trkpt>
      <trkpt lat="43.482593" lon="-5.244898">
        <ele>74.089</ele>
        <time>2022-08-27T11:17:04Z</time>
      </trkpt>
      <trkpt lat="43.482571" lon="-5.244730">
        <ele>74.049</ele>
        <time>2022-08-27T11:17:06Z</time>
      </trkpt>
      <trkpt lat="43.482556" lon="-5.244552">
        <ele>73.875</ele>
        <time>2022-08-27T11:17:08Z</time>
      </trkpt>
      <trkpt lat="43.482549" lon="-5.244464">
        <ele>73.899</ele>
        <time>2022-08-27T11:17:09Z</time>
      </trkpt>
      <trkpt lat="43.482527" lon="-5.244292">
        <ele>73.626</ele>
        <time>2022-08-27T11:17:11Z</time>
      </trkpt>
      <trkpt lat="43.482504" lon="-5.244117">
        <ele>72.833</ele>
        <time>2022-08-27T11:17:13Z</time>
      </trkpt>
      <trkpt lat="43.482496" lon="-5.244029">
        <ele>72.725</ele>
        <time>2022-08-27T11:17:14Z</time>
      </trkpt>
      <trkpt lat="43.482489" lon="-5.243941">
        <ele>72.626</ele>
        <time>2022-08-27T11:17:15Z</time>
      </trkpt>
      <trkpt lat="43.482474" lon="-5.243768">
        <ele>72.208</ele>
        <time>2022-08-27T11:17:17Z</time>
      </trkpt>
      <trkpt lat="43.482462" lon="-5.243598">
        <ele>71.909</ele>
        <time>2022-08-27T11:17:19Z</time>
      </trkpt>
      <trkpt lat="43.482457" lon="-5.243513">
        <ele>71.833</ele>
        <time>2022-08-27T11:17:20Z</time>
      </trkpt>
      <trkpt lat="43.482442" lon="-5.243350">
        <ele>71.543</ele>
        <time>2022-08-27T11:17:22Z</time>
      </trkpt>
      <trkpt lat="43.482435" lon="-5.243197">
        <ele>70.944</ele>
        <time>2022-08-27T11:17:24Z</time>
      </trkpt>
      <trkpt lat="43.482428" lon="-5.243119">
        <ele>70.872</ele>
        <time>2022-08-27T11:17:25Z</time>
      </trkpt>
      <trkpt lat="43.482405" lon="-5.242969">
        <ele>70.862</ele>
        <time>2022-08-27T11:17:27Z</time>
      </trkpt>
      <trkpt lat="43.482383" lon="-5.242821">
        <ele>71.068</ele>
        <time>2022-08-27T11:17:29Z</time>
      </trkpt>
      <trkpt lat="43.482373" lon="-5.242748">
        <ele>71.522</ele>
        <time>2022-08-27T11:17:30Z</time>
      </trkpt>
      <trkpt lat="43.482351" lon="-5.242606">
        <ele>72.459</ele>
        <time>2022-08-27T11:17:32Z</time>
      </trkpt>
      <trkpt lat="43.482343" lon="-5.242538">
        <ele>72.366</ele>
        <time>2022-08-27T11:17:33Z</time>
      </trkpt>
      <trkpt lat="43.482335" lon="-5.242470">
        <ele>72.382</ele>
        <time>2022-08-27T11:17:34Z</time>
      </trkpt>
      <trkpt lat="43.482328" lon="-5.242402">
        <ele>72.343</ele>
        <time>2022-08-27T11:17:35Z</time>
      </trkpt>
      <trkpt lat="43.482313" lon="-5.242270">
        <ele>72.217</ele>
        <time>2022-08-27T11:17:37Z</time>
      </trkpt>
      <trkpt lat="43.482298" lon="-5.242143">
        <ele>72.209</ele>
        <time>2022-08-27T11:17:39Z</time>
      </trkpt>
      <trkpt lat="43.482283" lon="-5.242018">
        <ele>72.479</ele>
        <time>2022-08-27T11:17:41Z</time>
      </trkpt>
      <trkpt lat="43.482280" lon="-5.241953">
        <ele>72.739</ele>
        <time>2022-08-27T11:17:42Z</time>
      </trkpt>
      <trkpt lat="43.482273" lon="-5.241831">
        <ele>73.330</ele>
        <time>2022-08-27T11:17:44Z</time>
      </trkpt>
      <trkpt lat="43.482285" lon="-5.241711">
        <ele>74.118</ele>
        <time>2022-08-27T11:17:46Z</time>
      </trkpt>
      <trkpt lat="43.482302" lon="-5.241593">
        <ele>74.498</ele>
        <time>2022-08-27T11:17:48Z</time>
      </trkpt>
      <trkpt lat="43.482294" lon="-5.241485">
        <ele>74.484</ele>
        <time>2022-08-27T11:17:50Z</time>
      </trkpt>
      <trkpt lat="43.482282" lon="-5.241372">
        <ele>74.178</ele>
        <time>2022-08-27T11:17:52Z</time>
      </trkpt>
      <trkpt lat="43.482265" lon="-5.241254">
        <ele>73.945</ele>
        <time>2022-08-27T11:17:54Z</time>
      </trkpt>
      <trkpt lat="43.482253" lon="-5.241136">
        <ele>73.982</ele>
        <time>2022-08-27T11:17:56Z</time>
      </trkpt>
      <trkpt lat="43.482238" lon="-5.241021">
        <ele>74.063</ele>
        <time>2022-08-27T11:17:58Z</time>
      </trkpt>
      <trkpt lat="43.482223" lon="-5.240904">
        <ele>74.244</ele>
        <time>2022-08-27T11:18:00Z</time>
      </trkpt>
      <trkpt lat="43.482211" lon="-5.240789">
        <ele>74.418</ele>
        <time>2022-08-27T11:18:02Z</time>
      </trkpt>
      <trkpt lat="43.482199" lon="-5.240681">
        <ele>74.409</ele>
        <time>2022-08-27T11:18:04Z</time>
      </trkpt>
      <trkpt lat="43.482187" lon="-5.240569">
        <ele>75.487</ele>
        <time>2022-08-27T11:18:06Z</time>
      </trkpt>
      <trkpt lat="43.482179" lon="-5.240461">
        <ele>75.877</ele>
        <time>2022-08-27T11:18:08Z</time>
      </trkpt>
      <trkpt lat="43.482164" lon="-5.240353">
        <ele>76.238</ele>
        <time>2022-08-27T11:18:10Z</time>
      </trkpt>
      <trkpt lat="43.482149" lon="-5.240248">
        <ele>76.216</ele>
        <time>2022-08-27T11:18:12Z</time>
      </trkpt>
      <trkpt lat="43.482134" lon="-5.240151">
        <ele>76.246</ele>
        <time>2022-08-27T11:18:14Z</time>
      </trkpt>
      <trkpt lat="43.482112" lon="-5.240041">
        <ele>76.152</ele>
        <time>2022-08-27T11:18:16Z</time>
      </trkpt>
      <trkpt lat="43.482094" lon="-5.239918">
        <ele>75.746</ele>
        <time>2022-08-27T11:18:18Z</time>
      </trkpt>
      <trkpt lat="43.482077" lon="-5.239795">
        <ele>75.573</ele>
        <time>2022-08-27T11:18:20Z</time>
      </trkpt>
      <trkpt lat="43.482062" lon="-5.239687">
        <ele>75.560</ele>
        <time>2022-08-27T11:18:22Z</time>
      </trkpt>
      <trkpt lat="43.482047" lon="-5.239579">
        <ele>75.762</ele>
        <time>2022-08-27T11:18:24Z</time>
      </trkpt>
      <trkpt lat="43.482035" lon="-5.239474">
        <ele>75.883</ele>
        <time>2022-08-27T11:18:26Z</time>
      </trkpt>
      <trkpt lat="43.482022" lon="-5.239377">
        <ele>75.811</ele>
        <time>2022-08-27T11:18:28Z</time>
      </trkpt>
      <trkpt lat="43.482007" lon="-5.239292">
        <ele>75.709</ele>
        <time>2022-08-27T11:18:30Z</time>
      </trkpt>
      <trkpt lat="43.481985" lon="-5.239205">
        <ele>75.567</ele>
        <time>2022-08-27T11:18:32Z</time>
      </trkpt>
      <trkpt lat="43.481972" lon="-5.239112">
        <ele>74.967</ele>
        <time>2022-08-27T11:18:34Z</time>
      </trkpt>
      <trkpt lat="43.481954" lon="-5.239014">
        <ele>74.268</ele>
        <time>2022-08-27T11:18:36Z</time>
      </trkpt>
      <trkpt lat="43.481942" lon="-5.238899">
        <ele>73.536</ele>
        <time>2022-08-27T11:18:38Z</time>
      </trkpt>
      <trkpt lat="43.481934" lon="-5.238776">
        <ele>72.826</ele>
        <time>2022-08-27T11:18:40Z</time>
      </trkpt>
      <trkpt lat="43.481929" lon="-5.238709">
        <ele>72.362</ele>
        <time>2022-08-27T11:18:41Z</time>
      </trkpt>
      <trkpt lat="43.481917" lon="-5.238567">
        <ele>71.786</ele>
        <time>2022-08-27T11:18:43Z</time>
      </trkpt>
      <trkpt lat="43.481912" lon="-5.238489">
        <ele>71.553</ele>
        <time>2022-08-27T11:18:44Z</time>
      </trkpt>
      <trkpt lat="43.481897" lon="-5.238331">
        <ele>71.170</ele>
        <time>2022-08-27T11:18:46Z</time>
      </trkpt>
      <trkpt lat="43.481889" lon="-5.238249">
        <ele>71.091</ele>
        <time>2022-08-27T11:18:47Z</time>
      </trkpt>
      <trkpt lat="43.481872" lon="-5.238086">
        <ele>71.081</ele>
        <time>2022-08-27T11:18:49Z</time>
      </trkpt>
      <trkpt lat="43.481855" lon="-5.237916">
        <ele>70.819</ele>
        <time>2022-08-27T11:18:51Z</time>
      </trkpt>
      <trkpt lat="43.481830" lon="-5.237749">
        <ele>70.609</ele>
        <time>2022-08-27T11:18:53Z</time>
      </trkpt>
      <trkpt lat="43.481820" lon="-5.237662">
        <ele>70.670</ele>
        <time>2022-08-27T11:18:54Z</time>
      </trkpt>
      <trkpt lat="43.481798" lon="-5.237492">
        <ele>70.170</ele>
        <time>2022-08-27T11:18:56Z</time>
      </trkpt>
      <trkpt lat="43.481780" lon="-5.237319">
        <ele>69.041</ele>
        <time>2022-08-27T11:18:58Z</time>
      </trkpt>
      <trkpt lat="43.481768" lon="-5.237141">
        <ele>68.259</ele>
        <time>2022-08-27T11:19:00Z</time>
      </trkpt>
      <trkpt lat="43.481750" lon="-5.236961">
        <ele>67.549</ele>
        <time>2022-08-27T11:19:02Z</time>
      </trkpt>
      <trkpt lat="43.481737" lon="-5.236873">
        <ele>67.455</ele>
        <time>2022-08-27T11:19:03Z</time>
      </trkpt>
      <trkpt lat="43.481725" lon="-5.236781">
        <ele>67.259</ele>
        <time>2022-08-27T11:19:04Z</time>
      </trkpt>
      <trkpt lat="43.481712" lon="-5.236689">
        <ele>67.076</ele>
        <time>2022-08-27T11:19:05Z</time>
      </trkpt>
      <trkpt lat="43.481695" lon="-5.236502">
        <ele>66.713</ele>
        <time>2022-08-27T11:19:07Z</time>
      </trkpt>
      <trkpt lat="43.481687" lon="-5.236407">
        <ele>66.296</ele>
        <time>2022-08-27T11:19:08Z</time>
      </trkpt>
      <trkpt lat="43.481669" lon="-5.236220">
        <ele>65.831</ele>
        <time>2022-08-27T11:19:10Z</time>
      </trkpt>
      <trkpt lat="43.481651" lon="-5.236045">
        <ele>65.324</ele>
        <time>2022-08-27T11:19:12Z</time>
      </trkpt>
      <trkpt lat="43.481641" lon="-5.235952">
        <ele>65.109</ele>
        <time>2022-08-27T11:19:13Z</time>
      </trkpt>
      <trkpt lat="43.481631" lon="-5.235772">
        <ele>64.830</ele>
        <time>2022-08-27T11:19:15Z</time>
      </trkpt>
      <trkpt lat="43.481628" lon="-5.235685">
        <ele>64.590</ele>
        <time>2022-08-27T11:19:16Z</time>
      </trkpt>
      <trkpt lat="43.481625" lon="-5.235595">
        <ele>64.211</ele>
        <time>2022-08-27T11:19:17Z</time>
      </trkpt>
      <trkpt lat="43.481608" lon="-5.235417">
        <ele>63.879</ele>
        <time>2022-08-27T11:19:19Z</time>
      </trkpt>
      <trkpt lat="43.481583" lon="-5.235244">
        <ele>63.639</ele>
        <time>2022-08-27T11:19:21Z</time>
      </trkpt>
      <trkpt lat="43.481566" lon="-5.235067">
        <ele>63.065</ele>
        <time>2022-08-27T11:19:23Z</time>
      </trkpt>
      <trkpt lat="43.481554" lon="-5.234977">
        <ele>62.649</ele>
        <time>2022-08-27T11:19:24Z</time>
      </trkpt>
      <trkpt lat="43.481532" lon="-5.234802">
        <ele>62.386</ele>
        <time>2022-08-27T11:19:26Z</time>
      </trkpt>
      <trkpt lat="43.481522" lon="-5.234714">
        <ele>62.183</ele>
        <time>2022-08-27T11:19:27Z</time>
      </trkpt>
      <trkpt lat="43.481499" lon="-5.234541">
        <ele>61.741</ele>
        <time>2022-08-27T11:19:29Z</time>
      </trkpt>
      <trkpt lat="43.481482" lon="-5.234454">
        <ele>61.581</ele>
        <time>2022-08-27T11:19:30Z</time>
      </trkpt>
      <trkpt lat="43.481432" lon="-5.234286">
        <ele>60.909</ele>
        <time>2022-08-27T11:19:32Z</time>
      </trkpt>
      <trkpt lat="43.481400" lon="-5.234203">
        <ele>60.609</ele>
        <time>2022-08-27T11:19:33Z</time>
      </trkpt>
      <trkpt lat="43.481365" lon="-5.234118">
        <ele>60.325</ele>
        <time>2022-08-27T11:19:34Z</time>
      </trkpt>
      <trkpt lat="43.481292" lon="-5.233950">
        <ele>59.715</ele>
        <time>2022-08-27T11:19:36Z</time>
      </trkpt>
      <trkpt lat="43.481255" lon="-5.233867">
        <ele>59.686</ele>
        <time>2022-08-27T11:19:37Z</time>
      </trkpt>
      <trkpt lat="43.481178" lon="-5.233699">
        <ele>59.054</ele>
        <time>2022-08-27T11:19:39Z</time>
      </trkpt>
      <trkpt lat="43.481098" lon="-5.233524">
        <ele>58.244</ele>
        <time>2022-08-27T11:19:41Z</time>
      </trkpt>
      <trkpt lat="43.481060" lon="-5.233436">
        <ele>58.030</ele>
        <time>2022-08-27T11:19:42Z</time>
      </trkpt>
      <trkpt lat="43.480973" lon="-5.233261">
        <ele>57.284</ele>
        <time>2022-08-27T11:19:44Z</time>
      </trkpt>
      <trkpt lat="43.480890" lon="-5.233083">
        <ele>56.391</ele>
        <time>2022-08-27T11:19:46Z</time>
      </trkpt>
      <trkpt lat="43.480808" lon="-5.232906">
        <ele>55.318</ele>
        <time>2022-08-27T11:19:48Z</time>
      </trkpt>
      <trkpt lat="43.480728" lon="-5.232739">
        <ele>54.354</ele>
        <time>2022-08-27T11:19:50Z</time>
      </trkpt>
      <trkpt lat="43.480693" lon="-5.232666">
        <ele>54.156</ele>
        <time>2022-08-27T11:19:51Z</time>
      </trkpt>
      <trkpt lat="43.480666" lon="-5.232596">
        <ele>53.711</ele>
        <time>2022-08-27T11:19:52Z</time>
      </trkpt>
      <trkpt lat="43.480599" lon="-5.232444">
        <ele>53.109</ele>
        <time>2022-08-27T11:19:54Z</time>
      </trkpt>
      <trkpt lat="43.480532" lon="-5.232292">
        <ele>52.756</ele>
        <time>2022-08-27T11:19:56Z</time>
      </trkpt>
      <trkpt lat="43.480469" lon="-5.232129">
        <ele>52.796</ele>
        <time>2022-08-27T11:19:58Z</time>
      </trkpt>
      <trkpt lat="43.480399" lon="-5.231981">
        <ele>52.727</ele>
        <time>2022-08-27T11:20:00Z</time>
      </trkpt>
      <trkpt lat="43.480331" lon="-5.231858">
        <ele>52.415</ele>
        <time>2022-08-27T11:20:02Z</time>
      </trkpt>
      <trkpt lat="43.480301" lon="-5.231798">
        <ele>52.425</ele>
        <time>2022-08-27T11:20:03Z</time>
      </trkpt>
      <trkpt lat="43.480261" lon="-5.231703">
        <ele>52.731</ele>
        <time>2022-08-27T11:20:05Z</time>
      </trkpt>
      <trkpt lat="43.480228" lon="-5.231625">
        <ele>52.765</ele>
        <time>2022-08-27T11:20:07Z</time>
      </trkpt>
      <trkpt lat="43.480193" lon="-5.231557">
        <ele>52.832</ele>
        <time>2022-08-27T11:20:09Z</time>
      </trkpt>
      <trkpt lat="43.480168" lon="-5.231487">
        <ele>53.379</ele>
        <time>2022-08-27T11:20:11Z</time>
      </trkpt>
      <trkpt lat="43.480136" lon="-5.231415">
        <ele>53.552</ele>
        <time>2022-08-27T11:20:13Z</time>
      </trkpt>
      <trkpt lat="43.480108" lon="-5.231352">
        <ele>53.553</ele>
        <time>2022-08-27T11:20:15Z</time>
      </trkpt>
      <trkpt lat="43.480078" lon="-5.231292">
        <ele>53.508</ele>
        <time>2022-08-27T11:20:17Z</time>
      </trkpt>
      <trkpt lat="43.480063" lon="-5.231222">
        <ele>52.909</ele>
        <time>2022-08-27T11:20:20Z</time>
      </trkpt>
      <trkpt lat="43.480051" lon="-5.231160">
        <ele>52.546</ele>
        <time>2022-08-27T11:20:23Z</time>
      </trkpt>
      <trkpt lat="43.480036" lon="-5.231088">
        <ele>52.266</ele>
        <time>2022-08-27T11:20:26Z</time>
      </trkpt>
      <trkpt lat="43.480049" lon="-5.231006">
        <ele>52.087</ele>
        <time>2022-08-27T11:20:29Z</time>
      </trkpt>
      <trkpt lat="43.480056" lon="-5.230916">
        <ele>51.915</ele>
        <time>2022-08-27T11:20:31Z</time>
      </trkpt>
      <trkpt lat="43.480081" lon="-5.230808">
        <ele>51.985</ele>
        <time>2022-08-27T11:20:33Z</time>
      </trkpt>
      <trkpt lat="43.480121" lon="-5.230696">
        <ele>52.081</ele>
        <time>2022-08-27T11:20:35Z</time>
      </trkpt>
      <trkpt lat="43.480144" lon="-5.230638">
        <ele>52.455</ele>
        <time>2022-08-27T11:20:36Z</time>
      </trkpt>
      <trkpt lat="43.480199" lon="-5.230521">
        <ele>52.442</ele>
        <time>2022-08-27T11:20:38Z</time>
      </trkpt>
      <trkpt lat="43.480242" lon="-5.230411">
        <ele>52.499</ele>
        <time>2022-08-27T11:20:40Z</time>
      </trkpt>
      <trkpt lat="43.480285" lon="-5.230299">
        <ele>52.157</ele>
        <time>2022-08-27T11:20:42Z</time>
      </trkpt>
      <trkpt lat="43.480312" lon="-5.230241">
        <ele>51.900</ele>
        <time>2022-08-27T11:20:43Z</time>
      </trkpt>
      <trkpt lat="43.480367" lon="-5.230114">
        <ele>50.920</ele>
        <time>2022-08-27T11:20:45Z</time>
      </trkpt>
      <trkpt lat="43.480390" lon="-5.230051">
        <ele>50.709</ele>
        <time>2022-08-27T11:20:46Z</time>
      </trkpt>
      <trkpt lat="43.480443" lon="-5.229921">
        <ele>50.666</ele>
        <time>2022-08-27T11:20:48Z</time>
      </trkpt>
      <trkpt lat="43.480473" lon="-5.229856">
        <ele>50.636</ele>
        <time>2022-08-27T11:20:49Z</time>
      </trkpt>
      <trkpt lat="43.480500" lon="-5.229789">
        <ele>50.657</ele>
        <time>2022-08-27T11:20:50Z</time>
      </trkpt>
      <trkpt lat="43.480558" lon="-5.229659">
        <ele>50.695</ele>
        <time>2022-08-27T11:20:52Z</time>
      </trkpt>
      <trkpt lat="43.480585" lon="-5.229596">
        <ele>50.645</ele>
        <time>2022-08-27T11:20:53Z</time>
      </trkpt>
      <trkpt lat="43.480613" lon="-5.229531">
        <ele>50.331</ele>
        <time>2022-08-27T11:20:54Z</time>
      </trkpt>
      <trkpt lat="43.480670" lon="-5.229403">
        <ele>50.255</ele>
        <time>2022-08-27T11:20:56Z</time>
      </trkpt>
      <trkpt lat="43.480695" lon="-5.229338">
        <ele>50.232</ele>
        <time>2022-08-27T11:20:57Z</time>
      </trkpt>
      <trkpt lat="43.480742" lon="-5.229211">
        <ele>50.419</ele>
        <time>2022-08-27T11:20:59Z</time>
      </trkpt>
      <trkpt lat="43.480800" lon="-5.229083">
        <ele>50.612</ele>
        <time>2022-08-27T11:21:01Z</time>
      </trkpt>
      <trkpt lat="43.480860" lon="-5.228961">
        <ele>51.032</ele>
        <time>2022-08-27T11:21:03Z</time>
      </trkpt>
      <trkpt lat="43.480910" lon="-5.228838">
        <ele>51.405</ele>
        <time>2022-08-27T11:21:05Z</time>
      </trkpt>
      <trkpt lat="43.480937" lon="-5.228778">
        <ele>51.509</ele>
        <time>2022-08-27T11:21:06Z</time>
      </trkpt>
      <trkpt lat="43.480999" lon="-5.228658">
        <ele>51.682</ele>
        <time>2022-08-27T11:21:08Z</time>
      </trkpt>
      <trkpt lat="43.481027" lon="-5.228598">
        <ele>51.812</ele>
        <time>2022-08-27T11:21:09Z</time>
      </trkpt>
      <trkpt lat="43.481084" lon="-5.228488">
        <ele>52.423</ele>
        <time>2022-08-27T11:21:11Z</time>
      </trkpt>
      <trkpt lat="43.481146" lon="-5.228375">
        <ele>52.551</ele>
        <time>2022-08-27T11:21:13Z</time>
      </trkpt>
      <trkpt lat="43.481176" lon="-5.228323">
        <ele>52.781</ele>
        <time>2022-08-27T11:21:14Z</time>
      </trkpt>
      <trkpt lat="43.481206" lon="-5.228275">
        <ele>52.917</ele>
        <time>2022-08-27T11:21:15Z</time>
      </trkpt>
      <trkpt lat="43.481239" lon="-5.228223">
        <ele>53.061</ele>
        <time>2022-08-27T11:21:16Z</time>
      </trkpt>
      <trkpt lat="43.481302" lon="-5.228118">
        <ele>53.058</ele>
        <time>2022-08-27T11:21:18Z</time>
      </trkpt>
      <trkpt lat="43.481335" lon="-5.228065">
        <ele>53.065</ele>
        <time>2022-08-27T11:21:19Z</time>
      </trkpt>
      <trkpt lat="43.481365" lon="-5.228015">
        <ele>52.968</ele>
        <time>2022-08-27T11:21:20Z</time>
      </trkpt>
      <trkpt lat="43.481395" lon="-5.227965">
        <ele>52.842</ele>
        <time>2022-08-27T11:21:21Z</time>
      </trkpt>
      <trkpt lat="43.481457" lon="-5.227858">
        <ele>52.126</ele>
        <time>2022-08-27T11:21:23Z</time>
      </trkpt>
      <trkpt lat="43.481490" lon="-5.227808">
        <ele>51.709</ele>
        <time>2022-08-27T11:21:24Z</time>
      </trkpt>
      <trkpt lat="43.481550" lon="-5.227706">
        <ele>51.337</ele>
        <time>2022-08-27T11:21:26Z</time>
      </trkpt>
      <trkpt lat="43.481613" lon="-5.227603">
        <ele>50.767</ele>
        <time>2022-08-27T11:21:28Z</time>
      </trkpt>
      <trkpt lat="43.481670" lon="-5.227508">
        <ele>50.428</ele>
        <time>2022-08-27T11:21:30Z</time>
      </trkpt>
      <trkpt lat="43.481725" lon="-5.227418">
        <ele>49.946</ele>
        <time>2022-08-27T11:21:32Z</time>
      </trkpt>
      <trkpt lat="43.481782" lon="-5.227331">
        <ele>49.916</ele>
        <time>2022-08-27T11:21:34Z</time>
      </trkpt>
      <trkpt lat="43.481839" lon="-5.227249">
        <ele>49.932</ele>
        <time>2022-08-27T11:21:36Z</time>
      </trkpt>
      <trkpt lat="43.481882" lon="-5.227169">
        <ele>50.086</ele>
        <time>2022-08-27T11:21:38Z</time>
      </trkpt>
      <trkpt lat="43.481889" lon="-5.227082">
        <ele>50.033</ele>
        <time>2022-08-27T11:21:40Z</time>
      </trkpt>
      <trkpt lat="43.481861" lon="-5.226989">
        <ele>49.920</ele>
        <time>2022-08-27T11:21:42Z</time>
      </trkpt>
      <trkpt lat="43.481831" lon="-5.226891">
        <ele>49.978</ele>
        <time>2022-08-27T11:21:44Z</time>
      </trkpt>
      <trkpt lat="43.481798" lon="-5.226788">
        <ele>49.533</ele>
        <time>2022-08-27T11:21:46Z</time>
      </trkpt>
      <trkpt lat="43.481775" lon="-5.226688">
        <ele>49.026</ele>
        <time>2022-08-27T11:21:48Z</time>
      </trkpt>
      <trkpt lat="43.481758" lon="-5.226593">
        <ele>48.509</ele>
        <time>2022-08-27T11:21:50Z</time>
      </trkpt>
      <trkpt lat="43.481733" lon="-5.226510">
        <ele>48.388</ele>
        <time>2022-08-27T11:21:52Z</time>
      </trkpt>
      <trkpt lat="43.481698" lon="-5.226442">
        <ele>48.198</ele>
        <time>2022-08-27T11:21:54Z</time>
      </trkpt>
      <trkpt lat="43.481648" lon="-5.226410">
        <ele>47.819</ele>
        <time>2022-08-27T11:21:56Z</time>
      </trkpt>
      <trkpt lat="43.481598" lon="-5.226397">
        <ele>47.677</ele>
        <time>2022-08-27T11:21:58Z</time>
      </trkpt>
      <trkpt lat="43.481541" lon="-5.226389">
        <ele>47.597</ele>
        <time>2022-08-27T11:22:01Z</time>
      </trkpt>
      <trkpt lat="43.481491" lon="-5.226381">
        <ele>47.533</ele>
        <time>2022-08-27T11:22:04Z</time>
      </trkpt>
      <trkpt lat="43.481431" lon="-5.226368">
        <ele>47.547</ele>
        <time>2022-08-27T11:22:08Z</time>
      </trkpt>
      <trkpt lat="43.481386" lon="-5.226363">
        <ele>47.564</ele>
        <time>2022-08-27T11:22:10Z</time>
      </trkpt>
      <trkpt lat="43.481341" lon="-5.226340">
        <ele>47.551</ele>
        <time>2022-08-27T11:22:12Z</time>
      </trkpt>
      <trkpt lat="43.481268" lon="-5.226313">
        <ele>47.525</ele>
        <time>2022-08-27T11:22:14Z</time>
      </trkpt>
      <trkpt lat="43.481195" lon="-5.226275">
        <ele>47.426</ele>
        <time>2022-08-27T11:22:16Z</time>
      </trkpt>
      <trkpt lat="43.481120" lon="-5.226238">
        <ele>47.008</ele>
        <time>2022-08-27T11:22:18Z</time>
      </trkpt>
      <trkpt lat="43.481077" lon="-5.226216">
        <ele>46.809</ele>
        <time>2022-08-27T11:22:19Z</time>
      </trkpt>
      <trkpt lat="43.481007" lon="-5.226168">
        <ele>46.743</ele>
        <time>2022-08-27T11:22:21Z</time>
      </trkpt>
      <trkpt lat="43.480967" lon="-5.226126">
        <ele>46.783</ele>
        <time>2022-08-27T11:22:23Z</time>
      </trkpt>
      <trkpt lat="43.481015" lon="-5.226058">
        <ele>47.424</ele>
        <time>2022-08-27T11:22:35Z</time>
      </trkpt>
      <trkpt lat="43.480920" lon="-5.225855">
        <ele>48.412</ele>
        <time>2022-08-27T11:22:53Z</time>
      </trkpt>
      <trkpt lat="43.480988" lon="-5.225848">
        <ele>71.342</ele>
        <time>2022-08-27T11:23:37Z</time>
      </trkpt>
      <trkpt lat="43.481048" lon="-5.225941">
        <ele>101.518</ele>
        <time>2022-08-27T11:24:15Z</time>
      </trkpt>
      <trkpt lat="43.481350" lon="-5.226391">
        <ele>50.862</ele>
        <time>2022-08-27T11:47:37Z</time>
      </trkpt>
      <trkpt lat="43.481288" lon="-5.226293">
        <ele>50.949</ele>
        <time>2022-08-27T11:52:56Z</time>
      </trkpt>
      <trkpt lat="43.481180" lon="-5.226256">
        <ele>50.946</ele>
        <time>2022-08-27T11:53:12Z</time>
      </trkpt>
      <trkpt lat="43.481127" lon="-5.226261">
        <ele>50.973</ele>
        <time>2022-08-27T11:53:15Z</time>
      </trkpt>
      <trkpt lat="43.481079" lon="-5.226244">
        <ele>56.685</ele>
        <time>2022-08-27T11:53:18Z</time>
      </trkpt>
      <trkpt lat="43.481032" lon="-5.226216">
        <ele>56.613</ele>
        <time>2022-08-27T11:53:21Z</time>
      </trkpt>
      <trkpt lat="43.480970" lon="-5.226176">
        <ele>52.809</ele>
        <time>2022-08-27T11:53:24Z</time>
      </trkpt>
      <trkpt lat="43.480917" lon="-5.226153">
        <ele>52.478</ele>
        <time>2022-08-27T11:53:26Z</time>
      </trkpt>
      <trkpt lat="43.480862" lon="-5.226125">
        <ele>51.388</ele>
        <time>2022-08-27T11:53:28Z</time>
      </trkpt>
      <trkpt lat="43.480809" lon="-5.226102">
        <ele>49.929</ele>
        <time>2022-08-27T11:53:30Z</time>
      </trkpt>
      <trkpt lat="43.480754" lon="-5.226074">
        <ele>48.657</ele>
        <time>2022-08-27T11:53:32Z</time>
      </trkpt>
      <trkpt lat="43.480706" lon="-5.226042">
        <ele>48.617</ele>
        <time>2022-08-27T11:53:34Z</time>
      </trkpt>
      <trkpt lat="43.480658" lon="-5.226015">
        <ele>48.633</ele>
        <time>2022-08-27T11:53:36Z</time>
      </trkpt>
      <trkpt lat="43.480615" lon="-5.225992">
        <ele>48.967</ele>
        <time>2022-08-27T11:53:38Z</time>
      </trkpt>
      <trkpt lat="43.480572" lon="-5.225969">
        <ele>49.134</ele>
        <time>2022-08-27T11:53:40Z</time>
      </trkpt>
      <trkpt lat="43.480517" lon="-5.225944">
        <ele>50.281</ele>
        <time>2022-08-27T11:53:43Z</time>
      </trkpt>
      <trkpt lat="43.480460" lon="-5.225904">
        <ele>51.546</ele>
        <time>2022-08-27T11:53:46Z</time>
      </trkpt>
      <trkpt lat="43.480397" lon="-5.225867">
        <ele>52.088</ele>
        <time>2022-08-27T11:53:49Z</time>
      </trkpt>
      <trkpt lat="43.480350" lon="-5.225845">
        <ele>52.016</ele>
        <time>2022-08-27T11:53:51Z</time>
      </trkpt>
      <trkpt lat="43.480308" lon="-5.225817">
        <ele>52.009</ele>
        <time>2022-08-27T11:53:53Z</time>
      </trkpt>
      <trkpt lat="43.480261" lon="-5.225794">
        <ele>52.075</ele>
        <time>2022-08-27T11:53:54Z</time>
      </trkpt>
      <trkpt lat="43.480211" lon="-5.225772">
        <ele>52.095</ele>
        <time>2022-08-27T11:53:57Z</time>
      </trkpt>
      <trkpt lat="43.480153" lon="-5.225745">
        <ele>51.946</ele>
        <time>2022-08-27T11:53:59Z</time>
      </trkpt>
      <trkpt lat="43.480095" lon="-5.225730">
        <ele>51.764</ele>
        <time>2022-08-27T11:54:01Z</time>
      </trkpt>
      <trkpt lat="43.480030" lon="-5.225718">
        <ele>51.364</ele>
        <time>2022-08-27T11:54:03Z</time>
      </trkpt>
      <trkpt lat="43.479963" lon="-5.225688">
        <ele>51.250</ele>
        <time>2022-08-27T11:54:05Z</time>
      </trkpt>
      <trkpt lat="43.479896" lon="-5.225653">
        <ele>51.194</ele>
        <time>2022-08-27T11:54:07Z</time>
      </trkpt>
      <trkpt lat="43.479836" lon="-5.225613">
        <ele>51.031</ele>
        <time>2022-08-27T11:54:09Z</time>
      </trkpt>
      <trkpt lat="43.479774" lon="-5.225566">
        <ele>51.368</ele>
        <time>2022-08-27T11:54:11Z</time>
      </trkpt>
      <trkpt lat="43.479714" lon="-5.225538">
        <ele>51.313</ele>
        <time>2022-08-27T11:54:13Z</time>
      </trkpt>
      <trkpt lat="43.479659" lon="-5.225503">
        <ele>51.343</ele>
        <time>2022-08-27T11:54:15Z</time>
      </trkpt>
      <trkpt lat="43.479609" lon="-5.225465">
        <ele>51.107</ele>
        <time>2022-08-27T11:54:17Z</time>
      </trkpt>
      <trkpt lat="43.479561" lon="-5.225430">
        <ele>50.709</ele>
        <time>2022-08-27T11:54:19Z</time>
      </trkpt>
      <trkpt lat="43.479511" lon="-5.225392">
        <ele>50.592</ele>
        <time>2022-08-27T11:54:22Z</time>
      </trkpt>
      <trkpt lat="43.479423" lon="-5.225355">
        <ele>50.312</ele>
        <time>2022-08-27T11:57:14Z</time>
      </trkpt>
      <trkpt lat="43.479375" lon="-5.225330">
        <ele>50.353</ele>
        <time>2022-08-27T11:57:17Z</time>
      </trkpt>
      <trkpt lat="43.479332" lon="-5.225313">
        <ele>50.331</ele>
        <time>2022-08-27T11:57:19Z</time>
      </trkpt>
      <trkpt lat="43.479270" lon="-5.225285">
        <ele>50.361</ele>
        <time>2022-08-27T11:57:22Z</time>
      </trkpt>
      <trkpt lat="43.479232" lon="-5.225242">
        <ele>50.347</ele>
        <time>2022-08-27T11:57:24Z</time>
      </trkpt>
      <trkpt lat="43.479187" lon="-5.225214">
        <ele>52.881</ele>
        <time>2022-08-27T11:57:26Z</time>
      </trkpt>
      <trkpt lat="43.479140" lon="-5.225187">
        <ele>53.088</ele>
        <time>2022-08-27T11:57:28Z</time>
      </trkpt>
      <trkpt lat="43.479092" lon="-5.225169">
        <ele>53.375</ele>
        <time>2022-08-27T11:57:31Z</time>
      </trkpt>
      <trkpt lat="43.479142" lon="-5.225182">
        <ele>53.518</ele>
        <time>2022-08-27T11:57:39Z</time>
      </trkpt>
      <trkpt lat="43.479204" lon="-5.225207">
        <ele>53.598</ele>
        <time>2022-08-27T11:57:41Z</time>
      </trkpt>
      <trkpt lat="43.479267" lon="-5.225242">
        <ele>53.517</ele>
        <time>2022-08-27T11:57:43Z</time>
      </trkpt>
      <trkpt lat="43.479330" lon="-5.225284">
        <ele>53.009</ele>
        <time>2022-08-27T11:57:45Z</time>
      </trkpt>
      <trkpt lat="43.479392" lon="-5.225316">
        <ele>52.722</ele>
        <time>2022-08-27T11:57:47Z</time>
      </trkpt>
      <trkpt lat="43.479452" lon="-5.225348">
        <ele>52.772</ele>
        <time>2022-08-27T11:57:49Z</time>
      </trkpt>
      <trkpt lat="43.479505" lon="-5.225375">
        <ele>52.783</ele>
        <time>2022-08-27T11:57:51Z</time>
      </trkpt>
      <trkpt lat="43.479550" lon="-5.225407">
        <ele>52.921</ele>
        <time>2022-08-27T11:57:53Z</time>
      </trkpt>
      <trkpt lat="43.479592" lon="-5.225464">
        <ele>53.441</ele>
        <time>2022-08-27T11:57:56Z</time>
      </trkpt>
      <trkpt lat="43.479614" lon="-5.225521">
        <ele>53.867</ele>
        <time>2022-08-27T11:57:59Z</time>
      </trkpt>
      <trkpt lat="43.478749" lon="-5.225498">
        <ele>49.911</ele>
        <time>2022-08-27T12:09:24Z</time>
      </trkpt>
      <trkpt lat="43.478719" lon="-5.225545">
        <ele>50.788</ele>
        <time>2022-08-27T12:09:26Z</time>
      </trkpt>
      <trkpt lat="43.478682" lon="-5.225605">
        <ele>50.345</ele>
        <time>2022-08-27T12:09:29Z</time>
      </trkpt>
      <trkpt lat="43.478639" lon="-5.225677">
        <ele>49.912</ele>
        <time>2022-08-27T12:09:32Z</time>
      </trkpt>
      <trkpt lat="43.478611" lon="-5.225727">
        <ele>49.832</ele>
        <time>2022-08-27T12:09:34Z</time>
      </trkpt>
      <trkpt lat="43.478561" lon="-5.225794">
        <ele>49.005</ele>
        <time>2022-08-27T12:09:37Z</time>
      </trkpt>
      <trkpt lat="43.478523" lon="-5.225839">
        <ele>48.909</ele>
        <time>2022-08-27T12:09:39Z</time>
      </trkpt>
      <trkpt lat="43.478478" lon="-5.225872">
        <ele>48.882</ele>
        <time>2022-08-27T12:09:41Z</time>
      </trkpt>
      <trkpt lat="43.478430" lon="-5.225894">
        <ele>48.872</ele>
        <time>2022-08-27T12:09:43Z</time>
      </trkpt>
      <trkpt lat="43.478385" lon="-5.225921">
        <ele>48.813</ele>
        <time>2022-08-27T12:09:45Z</time>
      </trkpt>
      <trkpt lat="43.478328" lon="-5.225946">
        <ele>49.721</ele>
        <time>2022-08-27T12:09:48Z</time>
      </trkpt>
      <trkpt lat="43.478281" lon="-5.225951">
        <ele>50.471</ele>
        <time>2022-08-27T12:09:50Z</time>
      </trkpt>
      <trkpt lat="43.478231" lon="-5.225943">
        <ele>50.617</ele>
        <time>2022-08-27T12:09:52Z</time>
      </trkpt>
      <trkpt lat="43.478184" lon="-5.225938">
        <ele>50.881</ele>
        <time>2022-08-27T12:09:54Z</time>
      </trkpt>
      <trkpt lat="43.478129" lon="-5.225941">
        <ele>52.188</ele>
        <time>2022-08-27T12:09:57Z</time>
      </trkpt>
      <trkpt lat="43.478079" lon="-5.225936">
        <ele>53.315</ele>
        <time>2022-08-27T12:10:00Z</time>
      </trkpt>
      <trkpt lat="43.478024" lon="-5.225936">
        <ele>53.772</ele>
        <time>2022-08-27T12:10:03Z</time>
      </trkpt>
      <trkpt lat="43.477962" lon="-5.225928">
        <ele>53.713</ele>
        <time>2022-08-27T12:10:06Z</time>
      </trkpt>
      <trkpt lat="43.477899" lon="-5.225905">
        <ele>53.914</ele>
        <time>2022-08-27T12:10:09Z</time>
      </trkpt>
      <trkpt lat="43.477836" lon="-5.225893">
        <ele>54.309</ele>
        <time>2022-08-27T12:10:11Z</time>
      </trkpt>
      <trkpt lat="43.477789" lon="-5.225898">
        <ele>54.728</ele>
        <time>2022-08-27T12:10:15Z</time>
      </trkpt>
      <trkpt lat="43.477737" lon="-5.225891">
        <ele>55.348</ele>
        <time>2022-08-27T12:10:18Z</time>
      </trkpt>
      <trkpt lat="43.477689" lon="-5.225931">
        <ele>56.659</ele>
        <time>2022-08-27T12:10:21Z</time>
      </trkpt>
      <trkpt lat="43.477642" lon="-5.225963">
        <ele>56.847</ele>
        <time>2022-08-27T12:10:24Z</time>
      </trkpt>
      <trkpt lat="43.477594" lon="-5.225975">
        <ele>56.847</ele>
        <time>2022-08-27T12:10:27Z</time>
      </trkpt>
      <trkpt lat="43.477547" lon="-5.225942">
        <ele>57.173</ele>
        <time>2022-08-27T12:10:30Z</time>
      </trkpt>
      <trkpt lat="43.477505" lon="-5.225870">
        <ele>57.127</ele>
        <time>2022-08-27T12:10:33Z</time>
      </trkpt>
      <trkpt lat="43.477477" lon="-5.225812">
        <ele>57.174</ele>
        <time>2022-08-27T12:10:35Z</time>
      </trkpt>
      <trkpt lat="43.477447" lon="-5.225735">
        <ele>58.411</ele>
        <time>2022-08-27T12:10:37Z</time>
      </trkpt>
      <trkpt lat="43.477417" lon="-5.225657">
        <ele>58.963</ele>
        <time>2022-08-27T12:10:39Z</time>
      </trkpt>
      <trkpt lat="43.477380" lon="-5.225575">
        <ele>59.244</ele>
        <time>2022-08-27T12:10:41Z</time>
      </trkpt>
      <trkpt lat="43.477340" lon="-5.225488">
        <ele>59.318</ele>
        <time>2022-08-27T12:10:43Z</time>
      </trkpt>
      <trkpt lat="43.477302" lon="-5.225405">
        <ele>59.209</ele>
        <time>2022-08-27T12:10:45Z</time>
      </trkpt>
      <trkpt lat="43.477260" lon="-5.225315">
        <ele>58.917</ele>
        <time>2022-08-27T12:10:47Z</time>
      </trkpt>
      <trkpt lat="43.477218" lon="-5.225225">
        <ele>58.997</ele>
        <time>2022-08-27T12:10:48Z</time>
      </trkpt>
      <trkpt lat="43.477176" lon="-5.225127">
        <ele>59.048</ele>
        <time>2022-08-27T12:10:51Z</time>
      </trkpt>
      <trkpt lat="43.477133" lon="-5.225035">
        <ele>59.796</ele>
        <time>2022-08-27T12:10:53Z</time>
      </trkpt>
      <trkpt lat="43.477098" lon="-5.224942">
        <ele>59.876</ele>
        <time>2022-08-27T12:10:55Z</time>
      </trkpt>
      <trkpt lat="43.477056" lon="-5.224849">
        <ele>59.812</ele>
        <time>2022-08-27T12:10:57Z</time>
      </trkpt>
      <trkpt lat="43.477014" lon="-5.224761">
        <ele>59.376</ele>
        <time>2022-08-27T12:10:59Z</time>
      </trkpt>
      <trkpt lat="43.476974" lon="-5.224674">
        <ele>59.163</ele>
        <time>2022-08-27T12:11:01Z</time>
      </trkpt>
      <trkpt lat="43.476931" lon="-5.224586">
        <ele>59.130</ele>
        <time>2022-08-27T12:11:03Z</time>
      </trkpt>
      <trkpt lat="43.476886" lon="-5.224496">
        <ele>59.179</ele>
        <time>2022-08-27T12:11:05Z</time>
      </trkpt>
      <trkpt lat="43.476846" lon="-5.224409">
        <ele>59.405</ele>
        <time>2022-08-27T12:11:07Z</time>
      </trkpt>
      <trkpt lat="43.476808" lon="-5.224321">
        <ele>59.625</ele>
        <time>2022-08-27T12:11:09Z</time>
      </trkpt>
      <trkpt lat="43.476770" lon="-5.224236">
        <ele>60.009</ele>
        <time>2022-08-27T12:11:11Z</time>
      </trkpt>
      <trkpt lat="43.476732" lon="-5.224153">
        <ele>60.698</ele>
        <time>2022-08-27T12:11:13Z</time>
      </trkpt>
      <trkpt lat="43.476695" lon="-5.224065">
        <ele>60.738</ele>
        <time>2022-08-27T12:11:15Z</time>
      </trkpt>
      <trkpt lat="43.476655" lon="-5.223963">
        <ele>60.739</ele>
        <time>2022-08-27T12:11:17Z</time>
      </trkpt>
      <trkpt lat="43.476615" lon="-5.223865">
        <ele>60.697</ele>
        <time>2022-08-27T12:11:19Z</time>
      </trkpt>
      <trkpt lat="43.476567" lon="-5.223763">
        <ele>60.687</ele>
        <time>2022-08-27T12:11:21Z</time>
      </trkpt>
      <trkpt lat="43.476520" lon="-5.223655">
        <ele>61.143</ele>
        <time>2022-08-27T12:11:23Z</time>
      </trkpt>
      <trkpt lat="43.476473" lon="-5.223548">
        <ele>62.027</ele>
        <time>2022-08-27T12:11:25Z</time>
      </trkpt>
      <trkpt lat="43.476425" lon="-5.223440">
        <ele>62.584</ele>
        <time>2022-08-27T12:11:27Z</time>
      </trkpt>
      <trkpt lat="43.476398" lon="-5.223388">
        <ele>62.911</ele>
        <time>2022-08-27T12:11:28Z</time>
      </trkpt>
      <trkpt lat="43.476350" lon="-5.223288">
        <ele>63.016</ele>
        <time>2022-08-27T12:11:30Z</time>
      </trkpt>
      <trkpt lat="43.476308" lon="-5.223183">
        <ele>63.076</ele>
        <time>2022-08-27T12:11:32Z</time>
      </trkpt>
      <trkpt lat="43.476285" lon="-5.223130">
        <ele>63.013</ele>
        <time>2022-08-27T12:11:33Z</time>
      </trkpt>
      <trkpt lat="43.476233" lon="-5.223028">
        <ele>62.809</ele>
        <time>2022-08-27T12:11:35Z</time>
      </trkpt>
      <trkpt lat="43.476181" lon="-5.222926">
        <ele>62.612</ele>
        <time>2022-08-27T12:11:37Z</time>
      </trkpt>
      <trkpt lat="43.476154" lon="-5.222874">
        <ele>62.352</ele>
        <time>2022-08-27T12:11:38Z</time>
      </trkpt>
      <trkpt lat="43.476127" lon="-5.222822">
        <ele>61.783</ele>
        <time>2022-08-27T12:11:39Z</time>
      </trkpt>
      <trkpt lat="43.476102" lon="-5.222764">
        <ele>61.691</ele>
        <time>2022-08-27T12:11:40Z</time>
      </trkpt>
      <trkpt lat="43.476075" lon="-5.222706">
        <ele>61.651</ele>
        <time>2022-08-27T12:11:41Z</time>
      </trkpt>
      <trkpt lat="43.476025" lon="-5.222596">
        <ele>61.757</ele>
        <time>2022-08-27T12:11:43Z</time>
      </trkpt>
      <trkpt lat="43.476000" lon="-5.222534">
        <ele>61.811</ele>
        <time>2022-08-27T12:11:44Z</time>
      </trkpt>
      <trkpt lat="43.475952" lon="-5.222417">
        <ele>62.138</ele>
        <time>2022-08-27T12:11:46Z</time>
      </trkpt>
      <trkpt lat="43.475927" lon="-5.222362">
        <ele>62.435</ele>
        <time>2022-08-27T12:11:47Z</time>
      </trkpt>
      <trkpt lat="43.475902" lon="-5.222310">
        <ele>62.746</ele>
        <time>2022-08-27T12:11:48Z</time>
      </trkpt>
      <trkpt lat="43.475854" lon="-5.222202">
        <ele>62.988</ele>
        <time>2022-08-27T12:11:50Z</time>
      </trkpt>
      <trkpt lat="43.475802" lon="-5.222099">
        <ele>62.916</ele>
        <time>2022-08-27T12:11:52Z</time>
      </trkpt>
      <trkpt lat="43.475752" lon="-5.221997">
        <ele>63.109</ele>
        <time>2022-08-27T12:11:54Z</time>
      </trkpt>
      <trkpt lat="43.475709" lon="-5.221897">
        <ele>63.495</ele>
        <time>2022-08-27T12:11:56Z</time>
      </trkpt>
      <trkpt lat="43.475664" lon="-5.221795">
        <ele>63.645</ele>
        <time>2022-08-27T12:11:58Z</time>
      </trkpt>
      <trkpt lat="43.475619" lon="-5.221695">
        <ele>64.956</ele>
        <time>2022-08-27T12:12:00Z</time>
      </trkpt>
      <trkpt lat="43.475574" lon="-5.221592">
        <ele>65.384</ele>
        <time>2022-08-27T12:12:02Z</time>
      </trkpt>
      <trkpt lat="43.475551" lon="-5.221539">
        <ele>65.434</ele>
        <time>2022-08-27T12:12:03Z</time>
      </trkpt>
      <trkpt lat="43.475506" lon="-5.221442">
        <ele>65.550</ele>
        <time>2022-08-27T12:12:05Z</time>
      </trkpt>
      <trkpt lat="43.475458" lon="-5.221342">
        <ele>65.564</ele>
        <time>2022-08-27T12:12:07Z</time>
      </trkpt>
      <trkpt lat="43.475408" lon="-5.221242">
        <ele>65.531</ele>
        <time>2022-08-27T12:12:09Z</time>
      </trkpt>
      <trkpt lat="43.475365" lon="-5.221149">
        <ele>65.898</ele>
        <time>2022-08-27T12:12:11Z</time>
      </trkpt>
      <trkpt lat="43.475318" lon="-5.221047">
        <ele>66.198</ele>
        <time>2022-08-27T12:12:13Z</time>
      </trkpt>
      <trkpt lat="43.475270" lon="-5.220944">
        <ele>66.415</ele>
        <time>2022-08-27T12:12:15Z</time>
      </trkpt>
      <trkpt lat="43.475222" lon="-5.220834">
        <ele>66.426</ele>
        <time>2022-08-27T12:12:17Z</time>
      </trkpt>
      <trkpt lat="43.475194" lon="-5.220779">
        <ele>66.509</ele>
        <time>2022-08-27T12:12:18Z</time>
      </trkpt>
      <trkpt lat="43.475141" lon="-5.220672">
        <ele>65.610</ele>
        <time>2022-08-27T12:12:20Z</time>
      </trkpt>
      <trkpt lat="43.475091" lon="-5.220559">
        <ele>65.350</ele>
        <time>2022-08-27T12:12:22Z</time>
      </trkpt>
      <trkpt lat="43.475064" lon="-5.220501">
        <ele>64.991</ele>
        <time>2022-08-27T12:12:23Z</time>
      </trkpt>
      <trkpt lat="43.475037" lon="-5.220441">
        <ele>64.549</ele>
        <time>2022-08-27T12:12:24Z</time>
      </trkpt>
      <trkpt lat="43.475010" lon="-5.220378">
        <ele>64.029</ele>
        <time>2022-08-27T12:12:25Z</time>
      </trkpt>
      <trkpt lat="43.474955" lon="-5.220250">
        <ele>62.845</ele>
        <time>2022-08-27T12:12:27Z</time>
      </trkpt>
      <trkpt lat="43.474902" lon="-5.220122">
        <ele>62.049</ele>
        <time>2022-08-27T12:12:29Z</time>
      </trkpt>
      <trkpt lat="43.474875" lon="-5.220057">
        <ele>61.876</ele>
        <time>2022-08-27T12:12:30Z</time>
      </trkpt>
      <trkpt lat="43.474847" lon="-5.219994">
        <ele>61.553</ele>
        <time>2022-08-27T12:12:31Z</time>
      </trkpt>
      <trkpt lat="43.474789" lon="-5.219859">
        <ele>60.778</ele>
        <time>2022-08-27T12:12:33Z</time>
      </trkpt>
      <trkpt lat="43.474759" lon="-5.219789">
        <ele>60.333</ele>
        <time>2022-08-27T12:12:34Z</time>
      </trkpt>
      <trkpt lat="43.474729" lon="-5.219719">
        <ele>60.326</ele>
        <time>2022-08-27T12:12:35Z</time>
      </trkpt>
      <trkpt lat="43.474697" lon="-5.219649">
        <ele>59.909</ele>
        <time>2022-08-27T12:12:36Z</time>
      </trkpt>
      <trkpt lat="43.474635" lon="-5.219509">
        <ele>59.048</ele>
        <time>2022-08-27T12:12:38Z</time>
      </trkpt>
      <trkpt lat="43.474570" lon="-5.219369">
        <ele>57.918</ele>
        <time>2022-08-27T12:12:40Z</time>
      </trkpt>
      <trkpt lat="43.474538" lon="-5.219297">
        <ele>57.529</ele>
        <time>2022-08-27T12:12:41Z</time>
      </trkpt>
      <trkpt lat="43.474506" lon="-5.219227">
        <ele>57.237</ele>
        <time>2022-08-27T12:12:42Z</time>
      </trkpt>
      <trkpt lat="43.474474" lon="-5.219160">
        <ele>57.077</ele>
        <time>2022-08-27T12:12:43Z</time>
      </trkpt>
      <trkpt lat="43.474412" lon="-5.219018">
        <ele>56.173</ele>
        <time>2022-08-27T12:12:45Z</time>
      </trkpt>
      <trkpt lat="43.474380" lon="-5.218945">
        <ele>55.767</ele>
        <time>2022-08-27T12:12:46Z</time>
      </trkpt>
      <trkpt lat="43.474348" lon="-5.218872">
        <ele>55.574</ele>
        <time>2022-08-27T12:12:47Z</time>
      </trkpt>
      <trkpt lat="43.474283" lon="-5.218729">
        <ele>54.981</ele>
        <time>2022-08-27T12:12:49Z</time>
      </trkpt>
      <trkpt lat="43.474221" lon="-5.218586">
        <ele>54.389</ele>
        <time>2022-08-27T12:12:51Z</time>
      </trkpt>
      <trkpt lat="43.474156" lon="-5.218443">
        <ele>53.806</ele>
        <time>2022-08-27T12:12:53Z</time>
      </trkpt>
      <trkpt lat="43.474123" lon="-5.218371">
        <ele>53.426</ele>
        <time>2022-08-27T12:12:54Z</time>
      </trkpt>
      <trkpt lat="43.474058" lon="-5.218229">
        <ele>52.509</ele>
        <time>2022-08-27T12:12:56Z</time>
      </trkpt>
      <trkpt lat="43.474025" lon="-5.218157">
        <ele>52.279</ele>
        <time>2022-08-27T12:12:57Z</time>
      </trkpt>
      <trkpt lat="43.473962" lon="-5.218017">
        <ele>52.099</ele>
        <time>2022-08-27T12:12:59Z</time>
      </trkpt>
      <trkpt lat="43.473930" lon="-5.217950">
        <ele>51.880</ele>
        <time>2022-08-27T12:13:00Z</time>
      </trkpt>
      <trkpt lat="43.473902" lon="-5.217887">
        <ele>51.648</ele>
        <time>2022-08-27T12:13:01Z</time>
      </trkpt>
      <trkpt lat="43.473872" lon="-5.217825">
        <ele>51.668</ele>
        <time>2022-08-27T12:13:02Z</time>
      </trkpt>
      <trkpt lat="43.473817" lon="-5.217707">
        <ele>51.684</ele>
        <time>2022-08-27T12:13:04Z</time>
      </trkpt>
      <trkpt lat="43.473789" lon="-5.217649">
        <ele>51.678</ele>
        <time>2022-08-27T12:13:05Z</time>
      </trkpt>
      <trkpt lat="43.473737" lon="-5.217539">
        <ele>51.545</ele>
        <time>2022-08-27T12:13:07Z</time>
      </trkpt>
      <trkpt lat="43.473685" lon="-5.217424">
        <ele>51.382</ele>
        <time>2022-08-27T12:13:09Z</time>
      </trkpt>
      <trkpt lat="43.473635" lon="-5.217314">
        <ele>51.323</ele>
        <time>2022-08-27T12:13:11Z</time>
      </trkpt>
      <trkpt lat="43.473612" lon="-5.217259">
        <ele>51.383</ele>
        <time>2022-08-27T12:13:12Z</time>
      </trkpt>
      <trkpt lat="43.473589" lon="-5.217204">
        <ele>51.311</ele>
        <time>2022-08-27T12:13:13Z</time>
      </trkpt>
      <trkpt lat="43.473544" lon="-5.217096">
        <ele>51.709</ele>
        <time>2022-08-27T12:13:15Z</time>
      </trkpt>
      <trkpt lat="43.473497" lon="-5.216991">
        <ele>52.413</ele>
        <time>2022-08-27T12:13:17Z</time>
      </trkpt>
      <trkpt lat="43.473474" lon="-5.216938">
        <ele>52.783</ele>
        <time>2022-08-27T12:13:18Z</time>
      </trkpt>
      <trkpt lat="43.473427" lon="-5.216836">
        <ele>53.164</ele>
        <time>2022-08-27T12:13:20Z</time>
      </trkpt>
      <trkpt lat="43.473380" lon="-5.216739">
        <ele>53.192</ele>
        <time>2022-08-27T12:13:22Z</time>
      </trkpt>
      <trkpt lat="43.473335" lon="-5.216642">
        <ele>53.252</ele>
        <time>2022-08-27T12:13:24Z</time>
      </trkpt>
      <trkpt lat="43.473292" lon="-5.216547">
        <ele>53.398</ele>
        <time>2022-08-27T12:13:26Z</time>
      </trkpt>
      <trkpt lat="43.473249" lon="-5.216450">
        <ele>53.712</ele>
        <time>2022-08-27T12:13:28Z</time>
      </trkpt>
      <trkpt lat="43.473204" lon="-5.216350">
        <ele>53.769</ele>
        <time>2022-08-27T12:13:30Z</time>
      </trkpt>
      <trkpt lat="43.473159" lon="-5.216243">
        <ele>54.056</ele>
        <time>2022-08-27T12:13:32Z</time>
      </trkpt>
      <trkpt lat="43.473116" lon="-5.216143">
        <ele>54.257</ele>
        <time>2022-08-27T12:13:34Z</time>
      </trkpt>
      <trkpt lat="43.473069" lon="-5.216046">
        <ele>54.300</ele>
        <time>2022-08-27T12:13:36Z</time>
      </trkpt>
      <trkpt lat="43.473022" lon="-5.215948">
        <ele>54.320</ele>
        <time>2022-08-27T12:13:38Z</time>
      </trkpt>
      <trkpt lat="43.472974" lon="-5.215843">
        <ele>54.409</ele>
        <time>2022-08-27T12:13:40Z</time>
      </trkpt>
      <trkpt lat="43.472951" lon="-5.215790">
        <ele>54.516</ele>
        <time>2022-08-27T12:13:41Z</time>
      </trkpt>
      <trkpt lat="43.472904" lon="-5.215682">
        <ele>55.216</ele>
        <time>2022-08-27T12:13:43Z</time>
      </trkpt>
      <trkpt lat="43.472852" lon="-5.215574">
        <ele>55.627</ele>
        <time>2022-08-27T12:13:45Z</time>
      </trkpt>
      <trkpt lat="43.472825" lon="-5.215517">
        <ele>55.745</ele>
        <time>2022-08-27T12:13:46Z</time>
      </trkpt>
      <trkpt lat="43.472798" lon="-5.215460">
        <ele>55.795</ele>
        <time>2022-08-27T12:13:47Z</time>
      </trkpt>
      <trkpt lat="43.472750" lon="-5.215348">
        <ele>55.691</ele>
        <time>2022-08-27T12:13:49Z</time>
      </trkpt>
      <trkpt lat="43.472697" lon="-5.215226">
        <ele>54.855</ele>
        <time>2022-08-27T12:13:51Z</time>
      </trkpt>
      <trkpt lat="43.472669" lon="-5.215164">
        <ele>54.682</ele>
        <time>2022-08-27T12:13:52Z</time>
      </trkpt>
      <trkpt lat="43.472611" lon="-5.215031">
        <ele>53.829</ele>
        <time>2022-08-27T12:13:54Z</time>
      </trkpt>
      <trkpt lat="43.472554" lon="-5.214898">
        <ele>53.235</ele>
        <time>2022-08-27T12:13:56Z</time>
      </trkpt>
      <trkpt lat="43.472526" lon="-5.214833">
        <ele>53.186</ele>
        <time>2022-08-27T12:13:57Z</time>
      </trkpt>
      <trkpt lat="43.472466" lon="-5.214703">
        <ele>52.914</ele>
        <time>2022-08-27T12:13:59Z</time>
      </trkpt>
      <trkpt lat="43.472404" lon="-5.214566">
        <ele>52.909</ele>
        <time>2022-08-27T12:14:01Z</time>
      </trkpt>
      <trkpt lat="43.472374" lon="-5.214496">
        <ele>53.094</ele>
        <time>2022-08-27T12:14:02Z</time>
      </trkpt>
      <trkpt lat="43.472316" lon="-5.214361">
        <ele>53.084</ele>
        <time>2022-08-27T12:14:04Z</time>
      </trkpt>
      <trkpt lat="43.472286" lon="-5.214293">
        <ele>52.965</ele>
        <time>2022-08-27T12:14:05Z</time>
      </trkpt>
      <trkpt lat="43.472229" lon="-5.214160">
        <ele>52.923</ele>
        <time>2022-08-27T12:14:07Z</time>
      </trkpt>
      <trkpt lat="43.472172" lon="-5.214030">
        <ele>52.913</ele>
        <time>2022-08-27T12:14:09Z</time>
      </trkpt>
      <trkpt lat="43.472115" lon="-5.213905">
        <ele>52.629</ele>
        <time>2022-08-27T12:14:11Z</time>
      </trkpt>
      <trkpt lat="43.472085" lon="-5.213845">
        <ele>52.623</ele>
        <time>2022-08-27T12:14:12Z</time>
      </trkpt>
      <trkpt lat="43.472055" lon="-5.213787">
        <ele>52.660</ele>
        <time>2022-08-27T12:14:13Z</time>
      </trkpt>
      <trkpt lat="43.471998" lon="-5.213672">
        <ele>52.937</ele>
        <time>2022-08-27T12:14:15Z</time>
      </trkpt>
      <trkpt lat="43.471946" lon="-5.213565">
        <ele>53.739</ele>
        <time>2022-08-27T12:14:17Z</time>
      </trkpt>
      <trkpt lat="43.471916" lon="-5.213515">
        <ele>54.601</ele>
        <time>2022-08-27T12:14:18Z</time>
      </trkpt>
      <trkpt lat="43.471851" lon="-5.213423">
        <ele>56.221</ele>
        <time>2022-08-27T12:14:20Z</time>
      </trkpt>
      <trkpt lat="43.471816" lon="-5.213383">
        <ele>56.609</ele>
        <time>2022-08-27T12:14:21Z</time>
      </trkpt>
      <trkpt lat="43.471748" lon="-5.213310">
        <ele>56.954</ele>
        <time>2022-08-27T12:14:23Z</time>
      </trkpt>
      <trkpt lat="43.471678" lon="-5.213242">
        <ele>57.054</ele>
        <time>2022-08-27T12:14:25Z</time>
      </trkpt>
      <trkpt lat="43.471611" lon="-5.213190">
        <ele>57.525</ele>
        <time>2022-08-27T12:14:27Z</time>
      </trkpt>
      <trkpt lat="43.471546" lon="-5.213153">
        <ele>57.753</ele>
        <time>2022-08-27T12:14:29Z</time>
      </trkpt>
      <trkpt lat="43.471486" lon="-5.213130">
        <ele>57.893</ele>
        <time>2022-08-27T12:14:31Z</time>
      </trkpt>
      <trkpt lat="43.471428" lon="-5.213118">
        <ele>57.829</ele>
        <time>2022-08-27T12:14:33Z</time>
      </trkpt>
      <trkpt lat="43.471368" lon="-5.213108">
        <ele>58.173</ele>
        <time>2022-08-27T12:14:35Z</time>
      </trkpt>
      <trkpt lat="43.471308" lon="-5.213096">
        <ele>58.670</ele>
        <time>2022-08-27T12:14:37Z</time>
      </trkpt>
      <trkpt lat="43.471253" lon="-5.213094">
        <ele>59.257</ele>
        <time>2022-08-27T12:14:39Z</time>
      </trkpt>
      <trkpt lat="43.471201" lon="-5.213092">
        <ele>59.452</ele>
        <time>2022-08-27T12:14:41Z</time>
      </trkpt>
      <trkpt lat="43.471149" lon="-5.213092">
        <ele>59.853</ele>
        <time>2022-08-27T12:14:43Z</time>
      </trkpt>
      <trkpt lat="43.471096" lon="-5.213092">
        <ele>60.108</ele>
        <time>2022-08-27T12:14:45Z</time>
      </trkpt>
      <trkpt lat="43.471046" lon="-5.213089">
        <ele>60.309</ele>
        <time>2022-08-27T12:14:47Z</time>
      </trkpt>
      <trkpt lat="43.470996" lon="-5.213079">
        <ele>60.696</ele>
        <time>2022-08-27T12:14:49Z</time>
      </trkpt>
      <trkpt lat="43.470948" lon="-5.213072">
        <ele>60.786</ele>
        <time>2022-08-27T12:14:51Z</time>
      </trkpt>
      <trkpt lat="43.470898" lon="-5.213060">
        <ele>60.857</ele>
        <time>2022-08-27T12:14:53Z</time>
      </trkpt>
      <trkpt lat="43.470850" lon="-5.213047">
        <ele>61.125</ele>
        <time>2022-08-27T12:14:55Z</time>
      </trkpt>
      <trkpt lat="43.470803" lon="-5.213035">
        <ele>61.725</ele>
        <time>2022-08-27T12:14:57Z</time>
      </trkpt>
      <trkpt lat="43.470735" lon="-5.213023">
        <ele>61.711</ele>
        <time>2022-08-27T12:15:00Z</time>
      </trkpt>
      <trkpt lat="43.470682" lon="-5.213008">
        <ele>61.895</ele>
        <time>2022-08-27T12:15:02Z</time>
      </trkpt>
      <trkpt lat="43.470629" lon="-5.212988">
        <ele>61.912</ele>
        <time>2022-08-27T12:15:04Z</time>
      </trkpt>
      <trkpt lat="43.470579" lon="-5.212975">
        <ele>62.029</ele>
        <time>2022-08-27T12:15:06Z</time>
      </trkpt>
      <trkpt lat="43.470529" lon="-5.212958">
        <ele>62.794</ele>
        <time>2022-08-27T12:15:08Z</time>
      </trkpt>
      <trkpt lat="43.470481" lon="-5.212935">
        <ele>62.857</ele>
        <time>2022-08-27T12:15:10Z</time>
      </trkpt>
      <trkpt lat="43.470434" lon="-5.212903">
        <ele>62.922</ele>
        <time>2022-08-27T12:15:12Z</time>
      </trkpt>
      <trkpt lat="43.470387" lon="-5.212863">
        <ele>63.209</ele>
        <time>2022-08-27T12:15:14Z</time>
      </trkpt>
      <trkpt lat="43.470352" lon="-5.212810">
        <ele>63.410</ele>
        <time>2022-08-27T12:15:16Z</time>
      </trkpt>
      <trkpt lat="43.470320" lon="-5.212757">
        <ele>64.270</ele>
        <time>2022-08-27T12:15:18Z</time>
      </trkpt>
      <trkpt lat="43.470290" lon="-5.212700">
        <ele>64.821</ele>
        <time>2022-08-27T12:15:20Z</time>
      </trkpt>
      <trkpt lat="43.470273" lon="-5.212635">
        <ele>65.019</ele>
        <time>2022-08-27T12:15:22Z</time>
      </trkpt>
      <trkpt lat="43.470266" lon="-5.212565">
        <ele>65.269</ele>
        <time>2022-08-27T12:15:24Z</time>
      </trkpt>
      <trkpt lat="43.470256" lon="-5.212490">
        <ele>65.225</ele>
        <time>2022-08-27T12:15:26Z</time>
      </trkpt>
      <trkpt lat="43.470254" lon="-5.212423">
        <ele>65.329</ele>
        <time>2022-08-27T12:15:28Z</time>
      </trkpt>
      <trkpt lat="43.470259" lon="-5.212350">
        <ele>65.386</ele>
        <time>2022-08-27T12:15:30Z</time>
      </trkpt>
      <trkpt lat="43.470267" lon="-5.212277">
        <ele>65.633</ele>
        <time>2022-08-27T12:15:32Z</time>
      </trkpt>
      <trkpt lat="43.470272" lon="-5.212210">
        <ele>65.677</ele>
        <time>2022-08-27T12:15:34Z</time>
      </trkpt>
      <trkpt lat="43.470279" lon="-5.212142">
        <ele>65.761</ele>
        <time>2022-08-27T12:15:36Z</time>
      </trkpt>
      <trkpt lat="43.470292" lon="-5.212075">
        <ele>66.127</ele>
        <time>2022-08-27T12:15:38Z</time>
      </trkpt>
      <trkpt lat="43.470300" lon="-5.212010">
        <ele>67.009</ele>
        <time>2022-08-27T12:15:40Z</time>
      </trkpt>
      <trkpt lat="43.470308" lon="-5.211943">
        <ele>67.828</ele>
        <time>2022-08-27T12:15:42Z</time>
      </trkpt>
      <trkpt lat="43.470320" lon="-5.211873">
        <ele>68.898</ele>
        <time>2022-08-27T12:15:44Z</time>
      </trkpt>
      <trkpt lat="43.470332" lon="-5.211806">
        <ele>69.449</ele>
        <time>2022-08-27T12:15:46Z</time>
      </trkpt>
      <trkpt lat="43.470350" lon="-5.211738">
        <ele>69.497</ele>
        <time>2022-08-27T12:15:48Z</time>
      </trkpt>
      <trkpt lat="43.470360" lon="-5.211665">
        <ele>69.687</ele>
        <time>2022-08-27T12:15:50Z</time>
      </trkpt>
      <trkpt lat="43.470368" lon="-5.211590">
        <ele>69.983</ele>
        <time>2022-08-27T12:15:52Z</time>
      </trkpt>
      <trkpt lat="43.470375" lon="-5.211513">
        <ele>70.737</ele>
        <time>2022-08-27T12:15:54Z</time>
      </trkpt>
      <trkpt lat="43.470377" lon="-5.211435">
        <ele>72.494</ele>
        <time>2022-08-27T12:15:56Z</time>
      </trkpt>
      <trkpt lat="43.470372" lon="-5.211360">
        <ele>73.331</ele>
        <time>2022-08-27T12:15:58Z</time>
      </trkpt>
      <trkpt lat="43.470359" lon="-5.211283">
        <ele>73.733</ele>
        <time>2022-08-27T12:16:00Z</time>
      </trkpt>
      <trkpt lat="43.470331" lon="-5.211210">
        <ele>73.723</ele>
        <time>2022-08-27T12:16:02Z</time>
      </trkpt>
      <trkpt lat="43.470291" lon="-5.211147">
        <ele>73.715</ele>
        <time>2022-08-27T12:16:04Z</time>
      </trkpt>
      <trkpt lat="43.470246" lon="-5.211097">
        <ele>73.209</ele>
        <time>2022-08-27T12:16:06Z</time>
      </trkpt>
      <trkpt lat="43.470196" lon="-5.211050">
        <ele>73.234</ele>
        <time>2022-08-27T12:16:08Z</time>
      </trkpt>
      <trkpt lat="43.470146" lon="-5.211005">
        <ele>73.234</ele>
        <time>2022-08-27T12:16:10Z</time>
      </trkpt>
      <trkpt lat="43.470096" lon="-5.210967">
        <ele>73.215</ele>
        <time>2022-08-27T12:16:12Z</time>
      </trkpt>
      <trkpt lat="43.470044" lon="-5.210930">
        <ele>73.343</ele>
        <time>2022-08-27T12:16:14Z</time>
      </trkpt>
      <trkpt lat="43.469989" lon="-5.210892">
        <ele>73.593</ele>
        <time>2022-08-27T12:16:16Z</time>
      </trkpt>
      <trkpt lat="43.469932" lon="-5.210847">
        <ele>73.959</ele>
        <time>2022-08-27T12:16:18Z</time>
      </trkpt>
      <trkpt lat="43.469874" lon="-5.210807">
        <ele>74.873</ele>
        <time>2022-08-27T12:16:20Z</time>
      </trkpt>
      <trkpt lat="43.469817" lon="-5.210769">
        <ele>75.680</ele>
        <time>2022-08-27T12:16:22Z</time>
      </trkpt>
      <trkpt lat="43.469762" lon="-5.210729">
        <ele>76.397</ele>
        <time>2022-08-27T12:16:24Z</time>
      </trkpt>
      <trkpt lat="43.469705" lon="-5.210689">
        <ele>76.848</ele>
        <time>2022-08-27T12:16:26Z</time>
      </trkpt>
      <trkpt lat="43.469653" lon="-5.210651">
        <ele>77.461</ele>
        <time>2022-08-27T12:16:28Z</time>
      </trkpt>
      <trkpt lat="43.469603" lon="-5.210618">
        <ele>78.117</ele>
        <time>2022-08-27T12:16:30Z</time>
      </trkpt>
      <trkpt lat="43.469551" lon="-5.210580">
        <ele>78.309</ele>
        <time>2022-08-27T12:16:32Z</time>
      </trkpt>
      <trkpt lat="43.469498" lon="-5.210547">
        <ele>78.415</ele>
        <time>2022-08-27T12:16:34Z</time>
      </trkpt>
      <trkpt lat="43.469445" lon="-5.210510">
        <ele>78.575</ele>
        <time>2022-08-27T12:16:36Z</time>
      </trkpt>
      <trkpt lat="43.469393" lon="-5.210468">
        <ele>78.616</ele>
        <time>2022-08-27T12:16:38Z</time>
      </trkpt>
      <trkpt lat="43.469343" lon="-5.210431">
        <ele>78.894</ele>
        <time>2022-08-27T12:16:40Z</time>
      </trkpt>
      <trkpt lat="43.469296" lon="-5.210393">
        <ele>79.284</ele>
        <time>2022-08-27T12:16:42Z</time>
      </trkpt>
      <trkpt lat="43.469243" lon="-5.210353">
        <ele>79.610</ele>
        <time>2022-08-27T12:16:44Z</time>
      </trkpt>
      <trkpt lat="43.469190" lon="-5.210311">
        <ele>79.974</ele>
        <time>2022-08-27T12:16:46Z</time>
      </trkpt>
      <trkpt lat="43.469137" lon="-5.210271">
        <ele>80.351</ele>
        <time>2022-08-27T12:16:48Z</time>
      </trkpt>
      <trkpt lat="43.469084" lon="-5.210234">
        <ele>81.138</ele>
        <time>2022-08-27T12:16:50Z</time>
      </trkpt>
      <trkpt lat="43.469034" lon="-5.210196">
        <ele>81.446</ele>
        <time>2022-08-27T12:16:52Z</time>
      </trkpt>
      <trkpt lat="43.468986" lon="-5.210158">
        <ele>81.688</ele>
        <time>2022-08-27T12:16:54Z</time>
      </trkpt>
      <trkpt lat="43.468939" lon="-5.210121">
        <ele>81.716</ele>
        <time>2022-08-27T12:16:56Z</time>
      </trkpt>
      <trkpt lat="43.468892" lon="-5.210086">
        <ele>82.109</ele>
        <time>2022-08-27T12:16:58Z</time>
      </trkpt>
      <trkpt lat="43.468847" lon="-5.210053">
        <ele>82.455</ele>
        <time>2022-08-27T12:17:00Z</time>
      </trkpt>
      <trkpt lat="43.468800" lon="-5.210020">
        <ele>82.725</ele>
        <time>2022-08-27T12:17:02Z</time>
      </trkpt>
      <trkpt lat="43.468755" lon="-5.209982">
        <ele>83.226</ele>
        <time>2022-08-27T12:17:04Z</time>
      </trkpt>
      <trkpt lat="43.468703" lon="-5.209947">
        <ele>83.614</ele>
        <time>2022-08-27T12:17:06Z</time>
      </trkpt>
      <trkpt lat="43.468650" lon="-5.209910">
        <ele>83.814</ele>
        <time>2022-08-27T12:17:08Z</time>
      </trkpt>
      <trkpt lat="43.468597" lon="-5.209872">
        <ele>84.180</ele>
        <time>2022-08-27T12:17:10Z</time>
      </trkpt>
      <trkpt lat="43.468545" lon="-5.209837">
        <ele>84.944</ele>
        <time>2022-08-27T12:17:12Z</time>
      </trkpt>
      <trkpt lat="43.468500" lon="-5.209797">
        <ele>85.261</ele>
        <time>2022-08-27T12:17:14Z</time>
      </trkpt>
      <trkpt lat="43.468455" lon="-5.209759">
        <ele>85.518</ele>
        <time>2022-08-27T12:17:16Z</time>
      </trkpt>
      <trkpt lat="43.468412" lon="-5.209721">
        <ele>85.744</ele>
        <time>2022-08-27T12:17:18Z</time>
      </trkpt>
      <trkpt lat="43.468365" lon="-5.209671">
        <ele>86.105</ele>
        <time>2022-08-27T12:17:19Z</time>
      </trkpt>
      <trkpt lat="43.468322" lon="-5.209616">
        <ele>86.615</ele>
        <time>2022-08-27T12:17:21Z</time>
      </trkpt>
      <trkpt lat="43.468284" lon="-5.209556">
        <ele>86.709</ele>
        <time>2022-08-27T12:17:24Z</time>
      </trkpt>
      <trkpt lat="43.468249" lon="-5.209493">
        <ele>87.155</ele>
        <time>2022-08-27T12:17:26Z</time>
      </trkpt>
      <trkpt lat="43.468212" lon="-5.209435">
        <ele>87.365</ele>
        <time>2022-08-27T12:17:28Z</time>
      </trkpt>
      <trkpt lat="43.468177" lon="-5.209375">
        <ele>87.576</ele>
        <time>2022-08-27T12:17:30Z</time>
      </trkpt>
      <trkpt lat="43.468147" lon="-5.209310">
        <ele>87.734</ele>
        <time>2022-08-27T12:17:32Z</time>
      </trkpt>
      <trkpt lat="43.468117" lon="-5.209242">
        <ele>88.264</ele>
        <time>2022-08-27T12:17:34Z</time>
      </trkpt>
      <trkpt lat="43.468089" lon="-5.209175">
        <ele>89.060</ele>
        <time>2022-08-27T12:17:36Z</time>
      </trkpt>
      <trkpt lat="43.468062" lon="-5.209110">
        <ele>89.414</ele>
        <time>2022-08-27T12:17:38Z</time>
      </trkpt>
      <trkpt lat="43.468034" lon="-5.209047">
        <ele>90.011</ele>
        <time>2022-08-27T12:17:40Z</time>
      </trkpt>
      <trkpt lat="43.468007" lon="-5.208979">
        <ele>90.488</ele>
        <time>2022-08-27T12:17:42Z</time>
      </trkpt>
      <trkpt lat="43.467982" lon="-5.208909">
        <ele>90.991</ele>
        <time>2022-08-27T12:17:44Z</time>
      </trkpt>
      <trkpt lat="43.467954" lon="-5.208841">
        <ele>91.881</ele>
        <time>2022-08-27T12:17:46Z</time>
      </trkpt>
      <trkpt lat="43.467926" lon="-5.208774">
        <ele>92.219</ele>
        <time>2022-08-27T12:17:48Z</time>
      </trkpt>
      <trkpt lat="43.467898" lon="-5.208709">
        <ele>92.309</ele>
        <time>2022-08-27T12:17:50Z</time>
      </trkpt>
      <trkpt lat="43.467871" lon="-5.208646">
        <ele>92.430</ele>
        <time>2022-08-27T12:17:52Z</time>
      </trkpt>
      <trkpt lat="43.467843" lon="-5.208579">
        <ele>92.560</ele>
        <time>2022-08-27T12:17:54Z</time>
      </trkpt>
      <trkpt lat="43.467813" lon="-5.208517">
        <ele>92.571</ele>
        <time>2022-08-27T12:17:56Z</time>
      </trkpt>
      <trkpt lat="43.467785" lon="-5.208454">
        <ele>92.549</ele>
        <time>2022-08-27T12:17:58Z</time>
      </trkpt>
      <trkpt lat="43.467758" lon="-5.208387">
        <ele>92.639</ele>
        <time>2022-08-27T12:18:00Z</time>
      </trkpt>
      <trkpt lat="43.467733" lon="-5.208322">
        <ele>92.625</ele>
        <time>2022-08-27T12:18:02Z</time>
      </trkpt>
      <trkpt lat="43.467710" lon="-5.208259">
        <ele>92.639</ele>
        <time>2022-08-27T12:18:04Z</time>
      </trkpt>
      <trkpt lat="43.467682" lon="-5.208194">
        <ele>92.616</ele>
        <time>2022-08-27T12:18:06Z</time>
      </trkpt>
      <trkpt lat="43.467654" lon="-5.208131">
        <ele>92.633</ele>
        <time>2022-08-27T12:18:08Z</time>
      </trkpt>
      <trkpt lat="43.467626" lon="-5.208066">
        <ele>92.682</ele>
        <time>2022-08-27T12:18:10Z</time>
      </trkpt>
      <trkpt lat="43.467598" lon="-5.208006">
        <ele>92.643</ele>
        <time>2022-08-27T12:18:12Z</time>
      </trkpt>
      <trkpt lat="43.467568" lon="-5.207938">
        <ele>93.117</ele>
        <time>2022-08-27T12:18:14Z</time>
      </trkpt>
      <trkpt lat="43.467546" lon="-5.207871">
        <ele>93.809</ele>
        <time>2022-08-27T12:18:16Z</time>
      </trkpt>
      <trkpt lat="43.467523" lon="-5.207804">
        <ele>94.659</ele>
        <time>2022-08-27T12:18:18Z</time>
      </trkpt>
      <trkpt lat="43.467503" lon="-5.207741">
        <ele>95.459</ele>
        <time>2022-08-27T12:18:20Z</time>
      </trkpt>
      <trkpt lat="43.467486" lon="-5.207673">
        <ele>95.770</ele>
        <time>2022-08-27T12:18:22Z</time>
      </trkpt>
      <trkpt lat="43.467476" lon="-5.207608">
        <ele>95.718</ele>
        <time>2022-08-27T12:18:24Z</time>
      </trkpt>
      <trkpt lat="43.467469" lon="-5.207541">
        <ele>95.798</ele>
        <time>2022-08-27T12:18:26Z</time>
      </trkpt>
      <trkpt lat="43.467467" lon="-5.207473">
        <ele>95.264</ele>
        <time>2022-08-27T12:18:28Z</time>
      </trkpt>
      <trkpt lat="43.467467" lon="-5.207403">
        <ele>94.758</ele>
        <time>2022-08-27T12:18:30Z</time>
      </trkpt>
      <trkpt lat="43.467469" lon="-5.207331">
        <ele>94.795</ele>
        <time>2022-08-27T12:18:32Z</time>
      </trkpt>
      <trkpt lat="43.467474" lon="-5.207258">
        <ele>94.752</ele>
        <time>2022-08-27T12:18:34Z</time>
      </trkpt>
      <trkpt lat="43.467471" lon="-5.207183">
        <ele>94.866</ele>
        <time>2022-08-27T12:18:36Z</time>
      </trkpt>
      <trkpt lat="43.467468" lon="-5.207111">
        <ele>95.229</ele>
        <time>2022-08-27T12:18:38Z</time>
      </trkpt>
      <trkpt lat="43.467463" lon="-5.207039">
        <ele>95.821</ele>
        <time>2022-08-27T12:18:40Z</time>
      </trkpt>
      <trkpt lat="43.467460" lon="-5.206972">
        <ele>96.009</ele>
        <time>2022-08-27T12:18:42Z</time>
      </trkpt>
      <trkpt lat="43.467460" lon="-5.206904">
        <ele>96.057</ele>
        <time>2022-08-27T12:18:44Z</time>
      </trkpt>
      <trkpt lat="43.467458" lon="-5.206836">
        <ele>96.287</ele>
        <time>2022-08-27T12:18:46Z</time>
      </trkpt>
      <trkpt lat="43.467455" lon="-5.206768">
        <ele>96.628</ele>
        <time>2022-08-27T12:18:48Z</time>
      </trkpt>
      <trkpt lat="43.467452" lon="-5.206696">
        <ele>96.696</ele>
        <time>2022-08-27T12:18:50Z</time>
      </trkpt>
      <trkpt lat="43.467445" lon="-5.206626">
        <ele>96.666</ele>
        <time>2022-08-27T12:18:52Z</time>
      </trkpt>
      <trkpt lat="43.467443" lon="-5.206554">
        <ele>96.452</ele>
        <time>2022-08-27T12:18:54Z</time>
      </trkpt>
      <trkpt lat="43.467443" lon="-5.206486">
        <ele>96.486</ele>
        <time>2022-08-27T12:18:56Z</time>
      </trkpt>
      <trkpt lat="43.467445" lon="-5.206418">
        <ele>96.433</ele>
        <time>2022-08-27T12:18:58Z</time>
      </trkpt>
      <trkpt lat="43.467445" lon="-5.206355">
        <ele>96.430</ele>
        <time>2022-08-27T12:19:00Z</time>
      </trkpt>
      <trkpt lat="43.467447" lon="-5.206292">
        <ele>96.852</ele>
        <time>2022-08-27T12:19:02Z</time>
      </trkpt>
      <trkpt lat="43.467444" lon="-5.206229">
        <ele>96.853</ele>
        <time>2022-08-27T12:19:04Z</time>
      </trkpt>
      <trkpt lat="43.467439" lon="-5.206164">
        <ele>97.008</ele>
        <time>2022-08-27T12:19:06Z</time>
      </trkpt>
      <trkpt lat="43.467439" lon="-5.206094">
        <ele>97.409</ele>
        <time>2022-08-27T12:19:08Z</time>
      </trkpt>
      <trkpt lat="43.467437" lon="-5.206027">
        <ele>97.936</ele>
        <time>2022-08-27T12:19:10Z</time>
      </trkpt>
      <trkpt lat="43.467432" lon="-5.205959">
        <ele>98.566</ele>
        <time>2022-08-27T12:19:12Z</time>
      </trkpt>
      <trkpt lat="43.467429" lon="-5.205892">
        <ele>99.397</ele>
        <time>2022-08-27T12:19:14Z</time>
      </trkpt>
      <trkpt lat="43.467427" lon="-5.205824">
        <ele>99.765</ele>
        <time>2022-08-27T12:19:16Z</time>
      </trkpt>
      <trkpt lat="43.467427" lon="-5.205754">
        <ele>100.435</ele>
        <time>2022-08-27T12:19:18Z</time>
      </trkpt>
      <trkpt lat="43.467425" lon="-5.205687">
        <ele>101.391</ele>
        <time>2022-08-27T12:19:20Z</time>
      </trkpt>
      <trkpt lat="43.467423" lon="-5.205624">
        <ele>101.745</ele>
        <time>2022-08-27T12:19:22Z</time>
      </trkpt>
      <trkpt lat="43.467423" lon="-5.205559">
        <ele>102.022</ele>
        <time>2022-08-27T12:19:24Z</time>
      </trkpt>
      <trkpt lat="43.467421" lon="-5.205491">
        <ele>102.219</ele>
        <time>2022-08-27T12:19:26Z</time>
      </trkpt>
      <trkpt lat="43.467421" lon="-5.205423">
        <ele>102.295</ele>
        <time>2022-08-27T12:19:28Z</time>
      </trkpt>
      <trkpt lat="43.467423" lon="-5.205350">
        <ele>102.349</ele>
        <time>2022-08-27T12:19:30Z</time>
      </trkpt>
      <trkpt lat="43.467423" lon="-5.205278">
        <ele>102.523</ele>
        <time>2022-08-27T12:19:32Z</time>
      </trkpt>
      <trkpt lat="43.467416" lon="-5.205206">
        <ele>102.709</ele>
        <time>2022-08-27T12:19:34Z</time>
      </trkpt>
      <trkpt lat="43.467418" lon="-5.205131">
        <ele>103.260</ele>
        <time>2022-08-27T12:19:36Z</time>
      </trkpt>
      <trkpt lat="43.467418" lon="-5.205066">
        <ele>103.590</ele>
        <time>2022-08-27T12:19:38Z</time>
      </trkpt>
      <trkpt lat="43.467415" lon="-5.204996">
        <ele>103.871</ele>
        <time>2022-08-27T12:19:40Z</time>
      </trkpt>
      <trkpt lat="43.467413" lon="-5.204924">
        <ele>104.469</ele>
        <time>2022-08-27T12:19:42Z</time>
      </trkpt>
      <trkpt lat="43.467416" lon="-5.204852">
        <ele>105.369</ele>
        <time>2022-08-27T12:19:44Z</time>
      </trkpt>
      <trkpt lat="43.467416" lon="-5.204785">
        <ele>105.475</ele>
        <time>2022-08-27T12:19:46Z</time>
      </trkpt>
      <trkpt lat="43.467413" lon="-5.204720">
        <ele>105.959</ele>
        <time>2022-08-27T12:19:48Z</time>
      </trkpt>
      <trkpt lat="43.467410" lon="-5.204652">
        <ele>106.186</ele>
        <time>2022-08-27T12:19:50Z</time>
      </trkpt>
      <trkpt lat="43.467405" lon="-5.204584">
        <ele>106.373</ele>
        <time>2022-08-27T12:19:52Z</time>
      </trkpt>
      <trkpt lat="43.467403" lon="-5.204516">
        <ele>106.676</ele>
        <time>2022-08-27T12:19:54Z</time>
      </trkpt>
      <trkpt lat="43.467405" lon="-5.204449">
        <ele>107.490</ele>
        <time>2022-08-27T12:19:56Z</time>
      </trkpt>
      <trkpt lat="43.467408" lon="-5.204377">
        <ele>107.819</ele>
        <time>2022-08-27T12:19:58Z</time>
      </trkpt>
      <trkpt lat="43.467413" lon="-5.204304">
        <ele>108.509</ele>
        <time>2022-08-27T12:20:00Z</time>
      </trkpt>
      <trkpt lat="43.467420" lon="-5.204234">
        <ele>109.548</ele>
        <time>2022-08-27T12:20:02Z</time>
      </trkpt>
      <trkpt lat="43.467418" lon="-5.204162">
        <ele>110.548</ele>
        <time>2022-08-27T12:20:04Z</time>
      </trkpt>
      <trkpt lat="43.467411" lon="-5.204094">
        <ele>111.129</ele>
        <time>2022-08-27T12:20:06Z</time>
      </trkpt>
      <trkpt lat="43.467411" lon="-5.204021">
        <ele>111.287</ele>
        <time>2022-08-27T12:20:08Z</time>
      </trkpt>
      <trkpt lat="43.467404" lon="-5.203951">
        <ele>111.267</ele>
        <time>2022-08-27T12:20:10Z</time>
      </trkpt>
      <trkpt lat="43.467402" lon="-5.203879">
        <ele>111.473</ele>
        <time>2022-08-27T12:20:12Z</time>
      </trkpt>
      <trkpt lat="43.467399" lon="-5.203811">
        <ele>111.447</ele>
        <time>2022-08-27T12:20:14Z</time>
      </trkpt>
      <trkpt lat="43.467396" lon="-5.203724">
        <ele>111.454</ele>
        <time>2022-08-27T12:20:17Z</time>
      </trkpt>
      <trkpt lat="43.467389" lon="-5.203636">
        <ele>111.481</ele>
        <time>2022-08-27T12:20:20Z</time>
      </trkpt>
      <trkpt lat="43.467377" lon="-5.203544">
        <ele>111.459</ele>
        <time>2022-08-27T12:20:23Z</time>
      </trkpt>
      <trkpt lat="43.467367" lon="-5.203451">
        <ele>111.503</ele>
        <time>2022-08-27T12:20:26Z</time>
      </trkpt>
      <trkpt lat="43.467355" lon="-5.203386">
        <ele>111.823</ele>
        <time>2022-08-27T12:20:28Z</time>
      </trkpt>
      <trkpt lat="43.467345" lon="-5.203321">
        <ele>112.109</ele>
        <time>2022-08-27T12:20:30Z</time>
      </trkpt>
      <trkpt lat="43.467337" lon="-5.203256">
        <ele>112.676</ele>
        <time>2022-08-27T12:20:32Z</time>
      </trkpt>
      <trkpt lat="43.467332" lon="-5.203168">
        <ele>112.666</ele>
        <time>2022-08-27T12:20:35Z</time>
      </trkpt>
      <trkpt lat="43.467322" lon="-5.203078">
        <ele>112.567</ele>
        <time>2022-08-27T12:20:38Z</time>
      </trkpt>
      <trkpt lat="43.467317" lon="-5.203011">
        <ele>112.355</ele>
        <time>2022-08-27T12:20:40Z</time>
      </trkpt>
      <trkpt lat="43.467309" lon="-5.202941">
        <ele>112.175</ele>
        <time>2022-08-27T12:20:42Z</time>
      </trkpt>
      <trkpt lat="43.467301" lon="-5.202871">
        <ele>112.161</ele>
        <time>2022-08-27T12:20:44Z</time>
      </trkpt>
      <trkpt lat="43.467296" lon="-5.202806">
        <ele>112.165</ele>
        <time>2022-08-27T12:20:46Z</time>
      </trkpt>
      <trkpt lat="43.467291" lon="-5.202741">
        <ele>112.342</ele>
        <time>2022-08-27T12:20:48Z</time>
      </trkpt>
      <trkpt lat="43.467284" lon="-5.202676">
        <ele>112.569</ele>
        <time>2022-08-27T12:20:50Z</time>
      </trkpt>
      <trkpt lat="43.467279" lon="-5.202613">
        <ele>112.792</ele>
        <time>2022-08-27T12:20:52Z</time>
      </trkpt>
      <trkpt lat="43.467274" lon="-5.202550">
        <ele>113.073</ele>
        <time>2022-08-27T12:20:54Z</time>
      </trkpt>
      <trkpt lat="43.467267" lon="-5.202485">
        <ele>113.120</ele>
        <time>2022-08-27T12:20:56Z</time>
      </trkpt>
      <trkpt lat="43.467262" lon="-5.202418">
        <ele>113.409</ele>
        <time>2022-08-27T12:20:58Z</time>
      </trkpt>
      <trkpt lat="43.467257" lon="-5.202353">
        <ele>113.930</ele>
        <time>2022-08-27T12:21:00Z</time>
      </trkpt>
      <trkpt lat="43.467250" lon="-5.202288">
        <ele>114.350</ele>
        <time>2022-08-27T12:21:02Z</time>
      </trkpt>
      <trkpt lat="43.467242" lon="-5.202221">
        <ele>114.981</ele>
        <time>2022-08-27T12:21:04Z</time>
      </trkpt>
      <trkpt lat="43.467235" lon="-5.202158">
        <ele>115.319</ele>
        <time>2022-08-27T12:21:06Z</time>
      </trkpt>
      <trkpt lat="43.467227" lon="-5.202093">
        <ele>115.819</ele>
        <time>2022-08-27T12:21:08Z</time>
      </trkpt>
      <trkpt lat="43.467220" lon="-5.202030">
        <ele>116.425</ele>
        <time>2022-08-27T12:21:10Z</time>
      </trkpt>
      <trkpt lat="43.467210" lon="-5.201965">
        <ele>116.529</ele>
        <time>2022-08-27T12:21:12Z</time>
      </trkpt>
      <trkpt lat="43.467195" lon="-5.201905">
        <ele>116.696</ele>
        <time>2022-08-27T12:21:14Z</time>
      </trkpt>
      <trkpt lat="43.467182" lon="-5.201843">
        <ele>116.973</ele>
        <time>2022-08-27T12:21:16Z</time>
      </trkpt>
      <trkpt lat="43.467169" lon="-5.201778">
        <ele>117.799</ele>
        <time>2022-08-27T12:21:18Z</time>
      </trkpt>
      <trkpt lat="43.467157" lon="-5.201715">
        <ele>118.507</ele>
        <time>2022-08-27T12:21:20Z</time>
      </trkpt>
      <trkpt lat="43.467145" lon="-5.201647">
        <ele>118.827</ele>
        <time>2022-08-27T12:21:22Z</time>
      </trkpt>
      <trkpt lat="43.467132" lon="-5.201580">
        <ele>119.209</ele>
        <time>2022-08-27T12:21:24Z</time>
      </trkpt>
      <trkpt lat="43.467120" lon="-5.201513">
        <ele>119.380</ele>
        <time>2022-08-27T12:21:26Z</time>
      </trkpt>
      <trkpt lat="43.467108" lon="-5.201441">
        <ele>119.740</ele>
        <time>2022-08-27T12:21:28Z</time>
      </trkpt>
      <trkpt lat="43.467091" lon="-5.201376">
        <ele>119.841</ele>
        <time>2022-08-27T12:21:30Z</time>
      </trkpt>
      <trkpt lat="43.467078" lon="-5.201306">
        <ele>120.259</ele>
        <time>2022-08-27T12:21:32Z</time>
      </trkpt>
      <trkpt lat="43.467065" lon="-5.201239">
        <ele>120.329</ele>
        <time>2022-08-27T12:21:34Z</time>
      </trkpt>
      <trkpt lat="43.467057" lon="-5.201169">
        <ele>120.975</ele>
        <time>2022-08-27T12:21:36Z</time>
      </trkpt>
      <trkpt lat="43.467047" lon="-5.201101">
        <ele>121.429</ele>
        <time>2022-08-27T12:21:38Z</time>
      </trkpt>
      <trkpt lat="43.467029" lon="-5.201036">
        <ele>121.616</ele>
        <time>2022-08-27T12:21:40Z</time>
      </trkpt>
      <trkpt lat="43.467009" lon="-5.200969">
        <ele>121.663</ele>
        <time>2022-08-27T12:21:42Z</time>
      </trkpt>
      <trkpt lat="43.466987" lon="-5.200904">
        <ele>121.631</ele>
        <time>2022-08-27T12:21:44Z</time>
      </trkpt>
      <trkpt lat="43.466964" lon="-5.200839">
        <ele>121.561</ele>
        <time>2022-08-27T12:21:46Z</time>
      </trkpt>
      <trkpt lat="43.466941" lon="-5.200777">
        <ele>121.407</ele>
        <time>2022-08-27T12:21:48Z</time>
      </trkpt>
      <trkpt lat="43.466909" lon="-5.200722">
        <ele>121.009</ele>
        <time>2022-08-27T12:21:50Z</time>
      </trkpt>
      <trkpt lat="43.466872" lon="-5.200662">
        <ele>121.064</ele>
        <time>2022-08-27T12:21:52Z</time>
      </trkpt>
      <trkpt lat="43.466830" lon="-5.200604">
        <ele>121.064</ele>
        <time>2022-08-27T12:21:54Z</time>
      </trkpt>
      <trkpt lat="43.466788" lon="-5.200549">
        <ele>121.395</ele>
        <time>2022-08-27T12:21:56Z</time>
      </trkpt>
      <trkpt lat="43.466741" lon="-5.200494">
        <ele>121.513</ele>
        <time>2022-08-27T12:21:58Z</time>
      </trkpt>
      <trkpt lat="43.466694" lon="-5.200439">
        <ele>121.783</ele>
        <time>2022-08-27T12:22:00Z</time>
      </trkpt>
      <trkpt lat="43.466647" lon="-5.200389">
        <ele>121.879</ele>
        <time>2022-08-27T12:22:02Z</time>
      </trkpt>
      <trkpt lat="43.466597" lon="-5.200341">
        <ele>121.823</ele>
        <time>2022-08-27T12:22:04Z</time>
      </trkpt>
      <trkpt lat="43.466540" lon="-5.200304">
        <ele>122.070</ele>
        <time>2022-08-27T12:22:06Z</time>
      </trkpt>
      <trkpt lat="43.466477" lon="-5.200282">
        <ele>122.127</ele>
        <time>2022-08-27T12:22:08Z</time>
      </trkpt>
      <trkpt lat="43.466417" lon="-5.200274">
        <ele>122.516</ele>
        <time>2022-08-27T12:22:10Z</time>
      </trkpt>
      <trkpt lat="43.466357" lon="-5.200289">
        <ele>122.876</ele>
        <time>2022-08-27T12:22:12Z</time>
      </trkpt>
      <trkpt lat="43.466302" lon="-5.200317">
        <ele>124.013</ele>
        <time>2022-08-27T12:22:14Z</time>
      </trkpt>
      <trkpt lat="43.466252" lon="-5.200347">
        <ele>125.009</ele>
        <time>2022-08-27T12:22:16Z</time>
      </trkpt>
      <trkpt lat="43.466205" lon="-5.200389">
        <ele>126.042</ele>
        <time>2022-08-27T12:22:18Z</time>
      </trkpt>
      <trkpt lat="43.466158" lon="-5.200436">
        <ele>127.182</ele>
        <time>2022-08-27T12:22:20Z</time>
      </trkpt>
      <trkpt lat="43.466108" lon="-5.200486">
        <ele>128.093</ele>
        <time>2022-08-27T12:22:22Z</time>
      </trkpt>
      <trkpt lat="43.466065" lon="-5.200541">
        <ele>129.091</ele>
        <time>2022-08-27T12:22:24Z</time>
      </trkpt>
      <trkpt lat="43.466023" lon="-5.200591">
        <ele>129.351</ele>
        <time>2022-08-27T12:22:26Z</time>
      </trkpt>
      <trkpt lat="43.465981" lon="-5.200646">
        <ele>130.257</ele>
        <time>2022-08-27T12:22:28Z</time>
      </trkpt>
      <trkpt lat="43.465941" lon="-5.200699">
        <ele>130.831</ele>
        <time>2022-08-27T12:22:30Z</time>
      </trkpt>
      <trkpt lat="43.465899" lon="-5.200752">
        <ele>131.198</ele>
        <time>2022-08-27T12:22:32Z</time>
      </trkpt>
      <trkpt lat="43.465859" lon="-5.200809">
        <ele>131.435</ele>
        <time>2022-08-27T12:22:34Z</time>
      </trkpt>
      <trkpt lat="43.465817" lon="-5.200869">
        <ele>131.853</ele>
        <time>2022-08-27T12:22:36Z</time>
      </trkpt>
      <trkpt lat="43.465772" lon="-5.200916">
        <ele>131.804</ele>
        <time>2022-08-27T12:22:38Z</time>
      </trkpt>
      <trkpt lat="43.465734" lon="-5.200966">
        <ele>132.014</ele>
        <time>2022-08-27T12:22:40Z</time>
      </trkpt>
      <trkpt lat="43.465692" lon="-5.201019">
        <ele>132.309</ele>
        <time>2022-08-27T12:22:42Z</time>
      </trkpt>
      <trkpt lat="43.465652" lon="-5.201079">
        <ele>132.746</ele>
        <time>2022-08-27T12:22:44Z</time>
      </trkpt>
      <trkpt lat="43.465605" lon="-5.201139">
        <ele>132.876</ele>
        <time>2022-08-27T12:22:46Z</time>
      </trkpt>
      <trkpt lat="43.465563" lon="-5.201204">
        <ele>132.857</ele>
        <time>2022-08-27T12:22:48Z</time>
      </trkpt>
      <trkpt lat="43.465520" lon="-5.201271">
        <ele>132.225</ele>
        <time>2022-08-27T12:22:50Z</time>
      </trkpt>
      <trkpt lat="43.465473" lon="-5.201334">
        <ele>130.465</ele>
        <time>2022-08-27T12:22:52Z</time>
      </trkpt>
      <trkpt lat="43.465425" lon="-5.201396">
        <ele>130.341</ele>
        <time>2022-08-27T12:22:54Z</time>
      </trkpt>
      <trkpt lat="43.465378" lon="-5.201459">
        <ele>130.295</ele>
        <time>2022-08-27T12:22:56Z</time>
      </trkpt>
      <trkpt lat="43.465331" lon="-5.201516">
        <ele>129.722</ele>
        <time>2022-08-27T12:22:58Z</time>
      </trkpt>
      <trkpt lat="43.465283" lon="-5.201571">
        <ele>129.779</ele>
        <time>2022-08-27T12:23:00Z</time>
      </trkpt>
      <trkpt lat="43.465236" lon="-5.201633">
        <ele>129.854</ele>
        <time>2022-08-27T12:23:02Z</time>
      </trkpt>
      <trkpt lat="43.465186" lon="-5.201688">
        <ele>130.056</ele>
        <time>2022-08-27T12:23:04Z</time>
      </trkpt>
      <trkpt lat="43.465139" lon="-5.201748">
        <ele>130.211</ele>
        <time>2022-08-27T12:23:06Z</time>
      </trkpt>
      <trkpt lat="43.465094" lon="-5.201806">
        <ele>130.309</ele>
        <time>2022-08-27T12:23:08Z</time>
      </trkpt>
      <trkpt lat="43.465049" lon="-5.201854">
        <ele>130.576</ele>
        <time>2022-08-27T12:23:10Z</time>
      </trkpt>
      <trkpt lat="43.465004" lon="-5.201906">
        <ele>130.586</ele>
        <time>2022-08-27T12:23:12Z</time>
      </trkpt>
      <trkpt lat="43.464959" lon="-5.201956">
        <ele>130.657</ele>
        <time>2022-08-27T12:23:14Z</time>
      </trkpt>
      <trkpt lat="43.464912" lon="-5.201996">
        <ele>130.715</ele>
        <time>2022-08-27T12:23:16Z</time>
      </trkpt>
      <trkpt lat="43.464859" lon="-5.202023">
        <ele>130.745</ele>
        <time>2022-08-27T12:23:18Z</time>
      </trkpt>
      <trkpt lat="43.464801" lon="-5.202038">
        <ele>131.041</ele>
        <time>2022-08-27T12:23:20Z</time>
      </trkpt>
      <trkpt lat="43.464736" lon="-5.202040">
        <ele>131.585</ele>
        <time>2022-08-27T12:23:22Z</time>
      </trkpt>
      <trkpt lat="43.464669" lon="-5.202042">
        <ele>132.042</ele>
        <time>2022-08-27T12:23:24Z</time>
      </trkpt>
      <trkpt lat="43.464602" lon="-5.202032">
        <ele>132.539</ele>
        <time>2022-08-27T12:23:26Z</time>
      </trkpt>
      <trkpt lat="43.464537" lon="-5.202030">
        <ele>132.979</ele>
        <time>2022-08-27T12:23:28Z</time>
      </trkpt>
      <trkpt lat="43.464474" lon="-5.202028">
        <ele>133.305</ele>
        <time>2022-08-27T12:23:30Z</time>
      </trkpt>
      <trkpt lat="43.464411" lon="-5.202030">
        <ele>133.325</ele>
        <time>2022-08-27T12:23:32Z</time>
      </trkpt>
      <trkpt lat="43.464346" lon="-5.202030">
        <ele>133.209</ele>
        <time>2022-08-27T12:23:34Z</time>
      </trkpt>
      <trkpt lat="43.464283" lon="-5.202028">
        <ele>132.948</ele>
        <time>2022-08-27T12:23:36Z</time>
      </trkpt>
      <trkpt lat="43.464220" lon="-5.202023">
        <ele>132.998</ele>
        <time>2022-08-27T12:23:38Z</time>
      </trkpt>
      <trkpt lat="43.464155" lon="-5.202018">
        <ele>132.929</ele>
        <time>2022-08-27T12:23:40Z</time>
      </trkpt>
      <trkpt lat="43.464093" lon="-5.202015">
        <ele>133.397</ele>
        <time>2022-08-27T12:23:42Z</time>
      </trkpt>
      <trkpt lat="43.464033" lon="-5.202013">
        <ele>133.637</ele>
        <time>2022-08-27T12:23:44Z</time>
      </trkpt>
      <trkpt lat="43.463971" lon="-5.202015">
        <ele>133.933</ele>
        <time>2022-08-27T12:23:46Z</time>
      </trkpt>
      <trkpt lat="43.463909" lon="-5.202018">
        <ele>133.997</ele>
        <time>2022-08-27T12:23:48Z</time>
      </trkpt>
      <trkpt lat="43.463847" lon="-5.202020">
        <ele>133.974</ele>
        <time>2022-08-27T12:23:50Z</time>
      </trkpt>
      <trkpt lat="43.463785" lon="-5.202020">
        <ele>133.711</ele>
        <time>2022-08-27T12:23:52Z</time>
      </trkpt>
      <trkpt lat="43.463722" lon="-5.202020">
        <ele>133.659</ele>
        <time>2022-08-27T12:23:54Z</time>
      </trkpt>
      <trkpt lat="43.463657" lon="-5.202015">
        <ele>133.603</ele>
        <time>2022-08-27T12:23:56Z</time>
      </trkpt>
      <trkpt lat="43.463592" lon="-5.202012">
        <ele>133.723</ele>
        <time>2022-08-27T12:23:58Z</time>
      </trkpt>
      <trkpt lat="43.463530" lon="-5.202000">
        <ele>134.009</ele>
        <time>2022-08-27T12:24:00Z</time>
      </trkpt>
      <trkpt lat="43.463465" lon="-5.201995">
        <ele>134.646</ele>
        <time>2022-08-27T12:24:02Z</time>
      </trkpt>
      <trkpt lat="43.463402" lon="-5.201988">
        <ele>134.936</ele>
        <time>2022-08-27T12:24:04Z</time>
      </trkpt>
      <trkpt lat="43.463339" lon="-5.201983">
        <ele>135.667</ele>
        <time>2022-08-27T12:24:06Z</time>
      </trkpt>
      <trkpt lat="43.463281" lon="-5.201980">
        <ele>136.665</ele>
        <time>2022-08-27T12:24:08Z</time>
      </trkpt>
      <trkpt lat="43.463219" lon="-5.201988">
        <ele>137.265</ele>
        <time>2022-08-27T12:24:10Z</time>
      </trkpt>
      <trkpt lat="43.463154" lon="-5.201986">
        <ele>137.381</ele>
        <time>2022-08-27T12:24:12Z</time>
      </trkpt>
      <trkpt lat="43.463091" lon="-5.201986">
        <ele>137.395</ele>
        <time>2022-08-27T12:24:14Z</time>
      </trkpt>
      <trkpt lat="43.463028" lon="-5.201988">
        <ele>137.512</ele>
        <time>2022-08-27T12:24:16Z</time>
      </trkpt>
      <trkpt lat="43.462961" lon="-5.201988">
        <ele>137.819</ele>
        <time>2022-08-27T12:24:18Z</time>
      </trkpt>
      <trkpt lat="43.462891" lon="-5.201986">
        <ele>137.979</ele>
        <time>2022-08-27T12:24:20Z</time>
      </trkpt>
      <trkpt lat="43.462819" lon="-5.201976">
        <ele>138.205</ele>
        <time>2022-08-27T12:24:22Z</time>
      </trkpt>
      <trkpt lat="43.462749" lon="-5.201954">
        <ele>138.325</ele>
        <time>2022-08-27T12:24:24Z</time>
      </trkpt>
      <trkpt lat="43.462677" lon="-5.201919">
        <ele>138.209</ele>
        <time>2022-08-27T12:24:26Z</time>
      </trkpt>
      <trkpt lat="43.462610" lon="-5.201869">
        <ele>138.068</ele>
        <time>2022-08-27T12:24:28Z</time>
      </trkpt>
      <trkpt lat="43.462552" lon="-5.201801">
        <ele>138.088</ele>
        <time>2022-08-27T12:24:30Z</time>
      </trkpt>
      <trkpt lat="43.462502" lon="-5.201729">
        <ele>138.179</ele>
        <time>2022-08-27T12:24:32Z</time>
      </trkpt>
      <trkpt lat="43.462454" lon="-5.201652">
        <ele>138.227</ele>
        <time>2022-08-27T12:24:34Z</time>
      </trkpt>
      <trkpt lat="43.462411" lon="-5.201574">
        <ele>138.237</ele>
        <time>2022-08-27T12:24:36Z</time>
      </trkpt>
      <trkpt lat="43.462373" lon="-5.201499">
        <ele>138.023</ele>
        <time>2022-08-27T12:24:38Z</time>
      </trkpt>
      <trkpt lat="43.462338" lon="-5.201421">
        <ele>138.027</ele>
        <time>2022-08-27T12:24:40Z</time>
      </trkpt>
      <trkpt lat="43.462308" lon="-5.201339">
        <ele>138.064</ele>
        <time>2022-08-27T12:24:42Z</time>
      </trkpt>
      <trkpt lat="43.462281" lon="-5.201252">
        <ele>138.081</ele>
        <time>2022-08-27T12:24:44Z</time>
      </trkpt>
      <trkpt lat="43.462258" lon="-5.201154">
        <ele>138.271</ele>
        <time>2022-08-27T12:24:46Z</time>
      </trkpt>
      <trkpt lat="43.462246" lon="-5.201046">
        <ele>138.341</ele>
        <time>2022-08-27T12:24:48Z</time>
      </trkpt>
      <trkpt lat="43.462236" lon="-5.200938">
        <ele>138.315</ele>
        <time>2022-08-27T12:24:50Z</time>
      </trkpt>
      <trkpt lat="43.462233" lon="-5.200833">
        <ele>138.209</ele>
        <time>2022-08-27T12:24:52Z</time>
      </trkpt>
      <trkpt lat="43.462238" lon="-5.200728">
        <ele>138.158</ele>
        <time>2022-08-27T12:24:54Z</time>
      </trkpt>
      <trkpt lat="43.462253" lon="-5.200630">
        <ele>138.268</ele>
        <time>2022-08-27T12:24:56Z</time>
      </trkpt>
      <trkpt lat="43.462281" lon="-5.200528">
        <ele>138.389</ele>
        <time>2022-08-27T12:24:58Z</time>
      </trkpt>
      <trkpt lat="43.462318" lon="-5.200436">
        <ele>138.547</ele>
        <time>2022-08-27T12:25:00Z</time>
      </trkpt>
      <trkpt lat="43.462366" lon="-5.200353">
        <ele>138.657</ele>
        <time>2022-08-27T12:25:02Z</time>
      </trkpt>
      <trkpt lat="43.462421" lon="-5.200278">
        <ele>138.883</ele>
        <time>2022-08-27T12:25:04Z</time>
      </trkpt>
      <trkpt lat="43.462476" lon="-5.200216">
        <ele>138.917</ele>
        <time>2022-08-27T12:25:06Z</time>
      </trkpt>
      <trkpt lat="43.462536" lon="-5.200169">
        <ele>138.924</ele>
        <time>2022-08-27T12:25:08Z</time>
      </trkpt>
      <trkpt lat="43.462598" lon="-5.200137">
        <ele>138.981</ele>
        <time>2022-08-27T12:25:10Z</time>
      </trkpt>
      <trkpt lat="43.462663" lon="-5.200120">
        <ele>138.948</ele>
        <time>2022-08-27T12:25:12Z</time>
      </trkpt>
      <trkpt lat="43.462725" lon="-5.200100">
        <ele>138.961</ele>
        <time>2022-08-27T12:25:14Z</time>
      </trkpt>
      <trkpt lat="43.462787" lon="-5.200075">
        <ele>139.017</ele>
        <time>2022-08-27T12:25:16Z</time>
      </trkpt>
      <trkpt lat="43.462840" lon="-5.200048">
        <ele>139.509</ele>
        <time>2022-08-27T12:25:18Z</time>
      </trkpt>
      <trkpt lat="43.462895" lon="-5.200021">
        <ele>140.235</ele>
        <time>2022-08-27T12:25:20Z</time>
      </trkpt>
      <trkpt lat="43.462950" lon="-5.199983">
        <ele>140.365</ele>
        <time>2022-08-27T12:25:22Z</time>
      </trkpt>
      <trkpt lat="43.463000" lon="-5.199941">
        <ele>140.746</ele>
        <time>2022-08-27T12:25:24Z</time>
      </trkpt>
      <trkpt lat="43.463050" lon="-5.199899">
        <ele>141.694</ele>
        <time>2022-08-27T12:25:26Z</time>
      </trkpt>
      <trkpt lat="43.463098" lon="-5.199856">
        <ele>142.314</ele>
        <time>2022-08-27T12:25:28Z</time>
      </trkpt>
      <trkpt lat="43.463146" lon="-5.199809">
        <ele>142.560</ele>
        <time>2022-08-27T12:25:30Z</time>
      </trkpt>
      <trkpt lat="43.463193" lon="-5.199757">
        <ele>142.934</ele>
        <time>2022-08-27T12:25:32Z</time>
      </trkpt>
      <trkpt lat="43.463243" lon="-5.199705">
        <ele>143.711</ele>
        <time>2022-08-27T12:25:34Z</time>
      </trkpt>
      <trkpt lat="43.463293" lon="-5.199647">
        <ele>144.778</ele>
        <time>2022-08-27T12:25:36Z</time>
      </trkpt>
      <trkpt lat="43.463335" lon="-5.199590">
        <ele>145.838</ele>
        <time>2022-08-27T12:25:38Z</time>
      </trkpt>
      <trkpt lat="43.463372" lon="-5.199533">
        <ele>146.970</ele>
        <time>2022-08-27T12:25:40Z</time>
      </trkpt>
      <trkpt lat="43.463405" lon="-5.199475">
        <ele>147.717</ele>
        <time>2022-08-27T12:25:42Z</time>
      </trkpt>
      <trkpt lat="43.463437" lon="-5.199412">
        <ele>148.609</ele>
        <time>2022-08-27T12:25:44Z</time>
      </trkpt>
      <trkpt lat="43.463467" lon="-5.199345">
        <ele>148.614</ele>
        <time>2022-08-27T12:25:46Z</time>
      </trkpt>
      <trkpt lat="43.463494" lon="-5.199280">
        <ele>148.684</ele>
        <time>2022-08-27T12:25:48Z</time>
      </trkpt>
      <trkpt lat="43.463521" lon="-5.199215">
        <ele>148.515</ele>
        <time>2022-08-27T12:25:50Z</time>
      </trkpt>
      <trkpt lat="43.463538" lon="-5.199145">
        <ele>148.423</ele>
        <time>2022-08-27T12:25:52Z</time>
      </trkpt>
      <trkpt lat="43.463550" lon="-5.199078">
        <ele>148.223</ele>
        <time>2022-08-27T12:25:54Z</time>
      </trkpt>
      <trkpt lat="43.463563" lon="-5.199010">
        <ele>148.059</ele>
        <time>2022-08-27T12:25:56Z</time>
      </trkpt>
      <trkpt lat="43.463566" lon="-5.198932">
        <ele>147.423</ele>
        <time>2022-08-27T12:25:58Z</time>
      </trkpt>
      <trkpt lat="43.463573" lon="-5.198844">
        <ele>147.450</ele>
        <time>2022-08-27T12:26:00Z</time>
      </trkpt>
      <trkpt lat="43.463581" lon="-5.198746">
        <ele>147.387</ele>
        <time>2022-08-27T12:26:02Z</time>
      </trkpt>
      <trkpt lat="43.463588" lon="-5.198678">
        <ele>147.231</ele>
        <time>2022-08-27T12:26:04Z</time>
      </trkpt>
      <trkpt lat="43.463590" lon="-5.198588">
        <ele>146.961</ele>
        <time>2022-08-27T12:26:07Z</time>
      </trkpt>
      <trkpt lat="43.463590" lon="-5.198503">
        <ele>146.407</ele>
        <time>2022-08-27T12:26:09Z</time>
      </trkpt>
      <trkpt lat="43.463588" lon="-5.198421">
        <ele>145.809</ele>
        <time>2022-08-27T12:26:11Z</time>
      </trkpt>
      <trkpt lat="43.463580" lon="-5.198344">
        <ele>145.994</ele>
        <time>2022-08-27T12:26:13Z</time>
      </trkpt>
      <trkpt lat="43.463568" lon="-5.198269">
        <ele>145.884</ele>
        <time>2022-08-27T12:26:15Z</time>
      </trkpt>
      <trkpt lat="43.463553" lon="-5.198199">
        <ele>146.135</ele>
        <time>2022-08-27T12:26:17Z</time>
      </trkpt>
      <trkpt lat="43.463535" lon="-5.198127">
        <ele>146.633</ele>
        <time>2022-08-27T12:26:19Z</time>
      </trkpt>
      <trkpt lat="43.463513" lon="-5.198059">
        <ele>146.733</ele>
        <time>2022-08-27T12:26:21Z</time>
      </trkpt>
      <trkpt lat="43.463485" lon="-5.197996">
        <ele>146.919</ele>
        <time>2022-08-27T12:26:23Z</time>
      </trkpt>
      <trkpt lat="43.463453" lon="-5.197933">
        <ele>147.223</ele>
        <time>2022-08-27T12:26:25Z</time>
      </trkpt>
      <trkpt lat="43.463416" lon="-5.197883">
        <ele>147.980</ele>
        <time>2022-08-27T12:26:27Z</time>
      </trkpt>
      <trkpt lat="43.463384" lon="-5.197833">
        <ele>148.587</ele>
        <time>2022-08-27T12:26:29Z</time>
      </trkpt>
      <trkpt lat="43.463352" lon="-5.197788">
        <ele>148.992</ele>
        <time>2022-08-27T12:26:31Z</time>
      </trkpt>
      <trkpt lat="43.463320" lon="-5.197743">
        <ele>148.973</ele>
        <time>2022-08-27T12:26:32Z</time>
      </trkpt>
      <trkpt lat="43.463282" lon="-5.197706">
        <ele>148.920</ele>
        <time>2022-08-27T12:26:34Z</time>
      </trkpt>
      <trkpt lat="43.463244" lon="-5.197669">
        <ele>148.909</ele>
        <time>2022-08-27T12:26:37Z</time>
      </trkpt>
      <trkpt lat="43.463197" lon="-5.197604">
        <ele>148.880</ele>
        <time>2022-08-27T12:26:40Z</time>
      </trkpt>
      <trkpt lat="43.463159" lon="-5.197564">
        <ele>148.680</ele>
        <time>2022-08-27T12:26:42Z</time>
      </trkpt>
      <trkpt lat="43.463112" lon="-5.197524">
        <ele>148.611</ele>
        <time>2022-08-27T12:26:44Z</time>
      </trkpt>
      <trkpt lat="43.463062" lon="-5.197484">
        <ele>148.729</ele>
        <time>2022-08-27T12:26:46Z</time>
      </trkpt>
      <trkpt lat="43.463007" lon="-5.197444">
        <ele>148.729</ele>
        <time>2022-08-27T12:26:48Z</time>
      </trkpt>
      <trkpt lat="43.462955" lon="-5.197399">
        <ele>148.715</ele>
        <time>2022-08-27T12:26:50Z</time>
      </trkpt>
      <trkpt lat="43.462902" lon="-5.197361">
        <ele>148.979</ele>
        <time>2022-08-27T12:26:52Z</time>
      </trkpt>
      <trkpt lat="43.462849" lon="-5.197316">
        <ele>149.056</ele>
        <time>2022-08-27T12:26:54Z</time>
      </trkpt>
      <trkpt lat="43.462797" lon="-5.197268">
        <ele>149.173</ele>
        <time>2022-08-27T12:26:56Z</time>
      </trkpt>
      <trkpt lat="43.462749" lon="-5.197210">
        <ele>149.374</ele>
        <time>2022-08-27T12:26:58Z</time>
      </trkpt>
      <trkpt lat="43.462704" lon="-5.197147">
        <ele>149.456</ele>
        <time>2022-08-27T12:27:00Z</time>
      </trkpt>
      <trkpt lat="43.462661" lon="-5.197080">
        <ele>149.421</ele>
        <time>2022-08-27T12:27:02Z</time>
      </trkpt>
      <trkpt lat="43.462628" lon="-5.197013">
        <ele>149.409</ele>
        <time>2022-08-27T12:27:04Z</time>
      </trkpt>
      <trkpt lat="43.462596" lon="-5.196936">
        <ele>149.438</ele>
        <time>2022-08-27T12:27:06Z</time>
      </trkpt>
      <trkpt lat="43.462561" lon="-5.196859">
        <ele>149.218</ele>
        <time>2022-08-27T12:27:08Z</time>
      </trkpt>
      <trkpt lat="43.462524" lon="-5.196777">
        <ele>149.219</ele>
        <time>2022-08-27T12:27:10Z</time>
      </trkpt>
      <trkpt lat="43.462482" lon="-5.196700">
        <ele>149.277</ele>
        <time>2022-08-27T12:27:12Z</time>
      </trkpt>
      <trkpt lat="43.462437" lon="-5.196625">
        <ele>149.637</ele>
        <time>2022-08-27T12:27:14Z</time>
      </trkpt>
      <trkpt lat="43.462390" lon="-5.196558">
        <ele>150.153</ele>
        <time>2022-08-27T12:27:16Z</time>
      </trkpt>
      <trkpt lat="43.462342" lon="-5.196498">
        <ele>150.717</ele>
        <time>2022-08-27T12:27:18Z</time>
      </trkpt>
      <trkpt lat="43.462295" lon="-5.196440">
        <ele>151.044</ele>
        <time>2022-08-27T12:27:20Z</time>
      </trkpt>
      <trkpt lat="43.462247" lon="-5.196383">
        <ele>151.721</ele>
        <time>2022-08-27T12:27:22Z</time>
      </trkpt>
      <trkpt lat="43.462197" lon="-5.196323">
        <ele>151.882</ele>
        <time>2022-08-27T12:27:24Z</time>
      </trkpt>
      <trkpt lat="43.462155" lon="-5.196258">
        <ele>151.943</ele>
        <time>2022-08-27T12:27:26Z</time>
      </trkpt>
      <trkpt lat="43.462118" lon="-5.196185">
        <ele>152.617</ele>
        <time>2022-08-27T12:27:28Z</time>
      </trkpt>
      <trkpt lat="43.462078" lon="-5.196108">
        <ele>152.609</ele>
        <time>2022-08-27T12:27:30Z</time>
      </trkpt>
      <trkpt lat="43.462036" lon="-5.196035">
        <ele>152.619</ele>
        <time>2022-08-27T12:27:32Z</time>
      </trkpt>
      <trkpt lat="43.461994" lon="-5.195957">
        <ele>152.669</ele>
        <time>2022-08-27T12:27:34Z</time>
      </trkpt>
      <trkpt lat="43.461956" lon="-5.195877">
        <ele>152.610</ele>
        <time>2022-08-27T12:27:36Z</time>
      </trkpt>
      <trkpt lat="43.461913" lon="-5.195785">
        <ele>152.568</ele>
        <time>2022-08-27T12:27:38Z</time>
      </trkpt>
      <trkpt lat="43.461870" lon="-5.195687">
        <ele>152.628</ele>
        <time>2022-08-27T12:27:40Z</time>
      </trkpt>
      <trkpt lat="43.461833" lon="-5.195582">
        <ele>153.664</ele>
        <time>2022-08-27T12:27:42Z</time>
      </trkpt>
      <trkpt lat="43.461801" lon="-5.195479">
        <ele>155.458</ele>
        <time>2022-08-27T12:27:44Z</time>
      </trkpt>
      <trkpt lat="43.461769" lon="-5.195391">
        <ele>158.125</ele>
        <time>2022-08-27T12:27:46Z</time>
      </trkpt>
      <trkpt lat="43.461731" lon="-5.195308">
        <ele>160.442</ele>
        <time>2022-08-27T12:27:48Z</time>
      </trkpt>
      <trkpt lat="43.461696" lon="-5.195226">
        <ele>161.235</ele>
        <time>2022-08-27T12:27:50Z</time>
      </trkpt>
      <trkpt lat="43.461651" lon="-5.195149">
        <ele>161.386</ele>
        <time>2022-08-27T12:27:52Z</time>
      </trkpt>
      <trkpt lat="43.461603" lon="-5.195057">
        <ele>161.314</ele>
        <time>2022-08-27T12:27:54Z</time>
      </trkpt>
      <trkpt lat="43.461550" lon="-5.194969">
        <ele>160.509</ele>
        <time>2022-08-27T12:27:56Z</time>
      </trkpt>
      <trkpt lat="43.461500" lon="-5.194879">
        <ele>159.054</ele>
        <time>2022-08-27T12:27:58Z</time>
      </trkpt>
      <trkpt lat="43.461452" lon="-5.194797">
        <ele>158.324</ele>
        <time>2022-08-27T12:28:00Z</time>
      </trkpt>
      <trkpt lat="43.461399" lon="-5.194705">
        <ele>157.625</ele>
        <time>2022-08-27T12:28:02Z</time>
      </trkpt>
      <trkpt lat="43.461344" lon="-5.194603">
        <ele>156.833</ele>
        <time>2022-08-27T12:28:03Z</time>
      </trkpt>
      <trkpt lat="43.461287" lon="-5.194516">
        <ele>156.183</ele>
        <time>2022-08-27T12:28:05Z</time>
      </trkpt>
      <trkpt lat="43.461232" lon="-5.194438">
        <ele>155.129</ele>
        <time>2022-08-27T12:28:07Z</time>
      </trkpt>
      <trkpt lat="43.461180" lon="-5.194346">
        <ele>154.513</ele>
        <time>2022-08-27T12:28:10Z</time>
      </trkpt>
      <trkpt lat="43.461132" lon="-5.194246">
        <ele>153.490</ele>
        <time>2022-08-27T12:28:12Z</time>
      </trkpt>
      <trkpt lat="43.461085" lon="-5.194156">
        <ele>152.627</ele>
        <time>2022-08-27T12:28:14Z</time>
      </trkpt>
      <trkpt lat="43.461035" lon="-5.194058">
        <ele>152.081</ele>
        <time>2022-08-27T12:28:16Z</time>
      </trkpt>
      <trkpt lat="43.460990" lon="-5.193960">
        <ele>152.061</ele>
        <time>2022-08-27T12:28:18Z</time>
      </trkpt>
      <trkpt lat="43.460942" lon="-5.193862">
        <ele>152.017</ele>
        <time>2022-08-27T12:28:20Z</time>
      </trkpt>
      <trkpt lat="43.460894" lon="-5.193759">
        <ele>152.109</ele>
        <time>2022-08-27T12:28:22Z</time>
      </trkpt>
      <trkpt lat="43.460849" lon="-5.193656">
        <ele>152.399</ele>
        <time>2022-08-27T12:28:24Z</time>
      </trkpt>
      <trkpt lat="43.460811" lon="-5.193554">
        <ele>152.389</ele>
        <time>2022-08-27T12:28:26Z</time>
      </trkpt>
      <trkpt lat="43.460766" lon="-5.193454">
        <ele>152.810</ele>
        <time>2022-08-27T12:28:28Z</time>
      </trkpt>
      <trkpt lat="43.460723" lon="-5.193351">
        <ele>153.178</ele>
        <time>2022-08-27T12:28:30Z</time>
      </trkpt>
      <trkpt lat="43.460673" lon="-5.193256">
        <ele>154.158</ele>
        <time>2022-08-27T12:28:32Z</time>
      </trkpt>
      <trkpt lat="43.460630" lon="-5.193154">
        <ele>154.584</ele>
        <time>2022-08-27T12:28:34Z</time>
      </trkpt>
      <trkpt lat="43.460592" lon="-5.193062">
        <ele>154.538</ele>
        <time>2022-08-27T12:28:36Z</time>
      </trkpt>
      <trkpt lat="43.460554" lon="-5.192970">
        <ele>154.135</ele>
        <time>2022-08-27T12:28:38Z</time>
      </trkpt>
      <trkpt lat="43.460531" lon="-5.192865">
        <ele>153.242</ele>
        <time>2022-08-27T12:28:40Z</time>
      </trkpt>
      <trkpt lat="43.460531" lon="-5.192758">
        <ele>152.994</ele>
        <time>2022-08-27T12:28:42Z</time>
      </trkpt>
      <trkpt lat="43.460553" lon="-5.192640">
        <ele>152.857</ele>
        <time>2022-08-27T12:28:44Z</time>
      </trkpt>
      <trkpt lat="43.460590" lon="-5.192523">
        <ele>153.022</ele>
        <time>2022-08-27T12:28:46Z</time>
      </trkpt>
      <trkpt lat="43.460627" lon="-5.192413">
        <ele>153.009</ele>
        <time>2022-08-27T12:28:48Z</time>
      </trkpt>
      <trkpt lat="43.460660" lon="-5.192313">
        <ele>153.330</ele>
        <time>2022-08-27T12:28:50Z</time>
      </trkpt>
      <trkpt lat="43.460692" lon="-5.192223">
        <ele>153.320</ele>
        <time>2022-08-27T12:28:52Z</time>
      </trkpt>
      <trkpt lat="43.460725" lon="-5.192140">
        <ele>153.411</ele>
        <time>2022-08-27T12:28:54Z</time>
      </trkpt>
      <trkpt lat="43.460755" lon="-5.192057">
        <ele>153.869</ele>
        <time>2022-08-27T12:28:56Z</time>
      </trkpt>
      <trkpt lat="43.460787" lon="-5.191977">
        <ele>154.099</ele>
        <time>2022-08-27T12:28:58Z</time>
      </trkpt>
      <trkpt lat="43.460820" lon="-5.191897">
        <ele>154.255</ele>
        <time>2022-08-27T12:29:00Z</time>
      </trkpt>
      <trkpt lat="43.460852" lon="-5.191817">
        <ele>154.369</ele>
        <time>2022-08-27T12:29:02Z</time>
      </trkpt>
      <trkpt lat="43.460879" lon="-5.191739">
        <ele>154.836</ele>
        <time>2022-08-27T12:29:04Z</time>
      </trkpt>
      <trkpt lat="43.460907" lon="-5.191661">
        <ele>154.853</ele>
        <time>2022-08-27T12:29:06Z</time>
      </trkpt>
      <trkpt lat="43.460934" lon="-5.191586">
        <ele>155.067</ele>
        <time>2022-08-27T12:29:08Z</time>
      </trkpt>
      <trkpt lat="43.460964" lon="-5.191509">
        <ele>155.481</ele>
        <time>2022-08-27T12:29:10Z</time>
      </trkpt>
      <trkpt lat="43.460996" lon="-5.191432">
        <ele>155.419</ele>
        <time>2022-08-27T12:29:12Z</time>
      </trkpt>
      <trkpt lat="43.461026" lon="-5.191347">
        <ele>155.509</ele>
        <time>2022-08-27T12:29:14Z</time>
      </trkpt>
      <trkpt lat="43.461058" lon="-5.191267">
        <ele>155.927</ele>
        <time>2022-08-27T12:29:16Z</time>
      </trkpt>
      <trkpt lat="43.461090" lon="-5.191190">
        <ele>156.437</ele>
        <time>2022-08-27T12:29:18Z</time>
      </trkpt>
      <trkpt lat="43.461125" lon="-5.191118">
        <ele>156.438</ele>
        <time>2022-08-27T12:29:20Z</time>
      </trkpt>
      <trkpt lat="43.461143" lon="-5.191040">
        <ele>156.436</ele>
        <time>2022-08-27T12:29:22Z</time>
      </trkpt>
      <trkpt lat="43.461161" lon="-5.190960">
        <ele>156.056</ele>
        <time>2022-08-27T12:29:24Z</time>
      </trkpt>
      <trkpt lat="43.461181" lon="-5.190878">
        <ele>155.992</ele>
        <time>2022-08-27T12:29:26Z</time>
      </trkpt>
      <trkpt lat="43.461198" lon="-5.190793">
        <ele>155.926</ele>
        <time>2022-08-27T12:29:28Z</time>
      </trkpt>
      <trkpt lat="43.461215" lon="-5.190706">
        <ele>156.223</ele>
        <time>2022-08-27T12:29:30Z</time>
      </trkpt>
      <trkpt lat="43.461233" lon="-5.190623">
        <ele>156.380</ele>
        <time>2022-08-27T12:29:32Z</time>
      </trkpt>
      <trkpt lat="43.461250" lon="-5.190538">
        <ele>156.751</ele>
        <time>2022-08-27T12:29:33Z</time>
      </trkpt>
      <trkpt lat="43.461265" lon="-5.190458">
        <ele>157.601</ele>
        <time>2022-08-27T12:29:36Z</time>
      </trkpt>
      <trkpt lat="43.461275" lon="-5.190380">
        <ele>158.711</ele>
        <time>2022-08-27T12:29:38Z</time>
      </trkpt>
      <trkpt lat="43.461285" lon="-5.190302">
        <ele>159.509</ele>
        <time>2022-08-27T12:29:40Z</time>
      </trkpt>
      <trkpt lat="43.461282" lon="-5.190220">
        <ele>159.866</ele>
        <time>2022-08-27T12:29:42Z</time>
      </trkpt>
      <trkpt lat="43.461275" lon="-5.190138">
        <ele>159.826</ele>
        <time>2022-08-27T12:29:44Z</time>
      </trkpt>
      <trkpt lat="43.461258" lon="-5.190063">
        <ele>159.847</ele>
        <time>2022-08-27T12:29:46Z</time>
      </trkpt>
      <trkpt lat="43.461235" lon="-5.190001">
        <ele>159.915</ele>
        <time>2022-08-27T12:29:48Z</time>
      </trkpt>
      <trkpt lat="43.461223" lon="-5.189941">
        <ele>160.165</ele>
        <time>2022-08-27T12:29:50Z</time>
      </trkpt>
      <trkpt lat="43.461210" lon="-5.189873">
        <ele>160.241</ele>
        <time>2022-08-27T12:29:52Z</time>
      </trkpt>
      <trkpt lat="43.461193" lon="-5.189806">
        <ele>161.015</ele>
        <time>2022-08-27T12:29:54Z</time>
      </trkpt>
      <trkpt lat="43.461176" lon="-5.189743">
        <ele>161.842</ele>
        <time>2022-08-27T12:29:56Z</time>
      </trkpt>
      <trkpt lat="43.461158" lon="-5.189676">
        <ele>162.739</ele>
        <time>2022-08-27T12:29:58Z</time>
      </trkpt>
      <trkpt lat="43.461143" lon="-5.189604">
        <ele>163.295</ele>
        <time>2022-08-27T12:30:00Z</time>
      </trkpt>
      <trkpt lat="43.461130" lon="-5.189531">
        <ele>163.549</ele>
        <time>2022-08-27T12:30:02Z</time>
      </trkpt>
      <trkpt lat="43.461123" lon="-5.189461">
        <ele>164.023</ele>
        <time>2022-08-27T12:30:04Z</time>
      </trkpt>
      <trkpt lat="43.461103" lon="-5.189393">
        <ele>164.709</ele>
        <time>2022-08-27T12:30:06Z</time>
      </trkpt>
      <trkpt lat="43.461081" lon="-5.189313">
        <ele>165.850</ele>
        <time>2022-08-27T12:30:08Z</time>
      </trkpt>
      <trkpt lat="43.461059" lon="-5.189228">
        <ele>167.280</ele>
        <time>2022-08-27T12:30:10Z</time>
      </trkpt>
      <trkpt lat="43.461039" lon="-5.189141">
        <ele>167.611</ele>
        <time>2022-08-27T12:30:12Z</time>
      </trkpt>
      <trkpt lat="43.461026" lon="-5.189058">
        <ele>167.979</ele>
        <time>2022-08-27T12:30:14Z</time>
      </trkpt>
      <trkpt lat="43.461014" lon="-5.188978">
        <ele>168.549</ele>
        <time>2022-08-27T12:30:16Z</time>
      </trkpt>
      <trkpt lat="43.461014" lon="-5.188901">
        <ele>169.055</ele>
        <time>2022-08-27T12:30:18Z</time>
      </trkpt>
      <trkpt lat="43.461012" lon="-5.188823">
        <ele>169.319</ele>
        <time>2022-08-27T12:30:20Z</time>
      </trkpt>
      <trkpt lat="43.461022" lon="-5.188745">
        <ele>169.196</ele>
        <time>2022-08-27T12:30:22Z</time>
      </trkpt>
      <trkpt lat="43.461042" lon="-5.188667">
        <ele>169.263</ele>
        <time>2022-08-27T12:30:24Z</time>
      </trkpt>
      <trkpt lat="43.461065" lon="-5.188584">
        <ele>169.255</ele>
        <time>2022-08-27T12:30:26Z</time>
      </trkpt>
      <trkpt lat="43.461085" lon="-5.188507">
        <ele>169.307</ele>
        <time>2022-08-27T12:30:28Z</time>
      </trkpt>
      <trkpt lat="43.461107" lon="-5.188434">
        <ele>169.917</ele>
        <time>2022-08-27T12:30:30Z</time>
      </trkpt>
      <trkpt lat="43.461132" lon="-5.188356">
        <ele>170.509</ele>
        <time>2022-08-27T12:30:32Z</time>
      </trkpt>
      <trkpt lat="43.461164" lon="-5.188284">
        <ele>171.356</ele>
        <time>2022-08-27T12:30:34Z</time>
      </trkpt>
      <trkpt lat="43.461184" lon="-5.188214">
        <ele>171.776</ele>
        <time>2022-08-27T12:30:36Z</time>
      </trkpt>
      <trkpt lat="43.461201" lon="-5.188141">
        <ele>171.877</ele>
        <time>2022-08-27T12:30:38Z</time>
      </trkpt>
      <trkpt lat="43.461219" lon="-5.188061">
        <ele>171.825</ele>
        <time>2022-08-27T12:30:40Z</time>
      </trkpt>
      <trkpt lat="43.461237" lon="-5.187989">
        <ele>171.715</ele>
        <time>2022-08-27T12:30:42Z</time>
      </trkpt>
      <trkpt lat="43.461259" lon="-5.187922">
        <ele>171.361</ele>
        <time>2022-08-27T12:30:44Z</time>
      </trkpt>
      <trkpt lat="43.461281" lon="-5.187862">
        <ele>171.125</ele>
        <time>2022-08-27T12:30:46Z</time>
      </trkpt>
      <trkpt lat="43.461311" lon="-5.187795">
        <ele>170.952</ele>
        <time>2022-08-27T12:30:48Z</time>
      </trkpt>
      <trkpt lat="43.461341" lon="-5.187728">
        <ele>170.739</ele>
        <time>2022-08-27T12:30:50Z</time>
      </trkpt>
      <trkpt lat="43.461374" lon="-5.187666">
        <ele>170.723</ele>
        <time>2022-08-27T12:30:52Z</time>
      </trkpt>
      <trkpt lat="43.461409" lon="-5.187609">
        <ele>170.783</ele>
        <time>2022-08-27T12:30:54Z</time>
      </trkpt>
      <trkpt lat="43.461442" lon="-5.187554">
        <ele>171.111</ele>
        <time>2022-08-27T12:30:56Z</time>
      </trkpt>
      <trkpt lat="43.461480" lon="-5.187496">
        <ele>171.509</ele>
        <time>2022-08-27T12:30:58Z</time>
      </trkpt>
      <trkpt lat="43.461518" lon="-5.187449">
        <ele>172.393</ele>
        <time>2022-08-27T12:31:00Z</time>
      </trkpt>
      <trkpt lat="43.461555" lon="-5.187394">
        <ele>172.863</ele>
        <time>2022-08-27T12:31:02Z</time>
      </trkpt>
      <trkpt lat="43.461590" lon="-5.187347">
        <ele>173.364</ele>
        <time>2022-08-27T12:31:04Z</time>
      </trkpt>
      <trkpt lat="43.461628" lon="-5.187304">
        <ele>173.862</ele>
        <time>2022-08-27T12:31:06Z</time>
      </trkpt>
      <trkpt lat="43.461670" lon="-5.187261">
        <ele>174.192</ele>
        <time>2022-08-27T12:31:08Z</time>
      </trkpt>
      <trkpt lat="43.461712" lon="-5.187223">
        <ele>174.478</ele>
        <time>2022-08-27T12:31:10Z</time>
      </trkpt>
      <trkpt lat="43.461762" lon="-5.187198">
        <ele>174.512</ele>
        <time>2022-08-27T12:31:12Z</time>
      </trkpt>
      <trkpt lat="43.461814" lon="-5.187181">
        <ele>174.749</ele>
        <time>2022-08-27T12:31:14Z</time>
      </trkpt>
      <trkpt lat="43.461861" lon="-5.187164">
        <ele>174.776</ele>
        <time>2022-08-27T12:31:16Z</time>
      </trkpt>
      <trkpt lat="43.461911" lon="-5.187142">
        <ele>174.761</ele>
        <time>2022-08-27T12:31:18Z</time>
      </trkpt>
      <trkpt lat="43.461969" lon="-5.187120">
        <ele>174.721</ele>
        <time>2022-08-27T12:31:20Z</time>
      </trkpt>
      <trkpt lat="43.462026" lon="-5.187108">
        <ele>174.913</ele>
        <time>2022-08-27T12:31:22Z</time>
      </trkpt>
      <trkpt lat="43.462079" lon="-5.187098">
        <ele>175.609</ele>
        <time>2022-08-27T12:31:24Z</time>
      </trkpt>
      <trkpt lat="43.462137" lon="-5.187081">
        <ele>176.287</ele>
        <time>2022-08-27T12:31:26Z</time>
      </trkpt>
      <trkpt lat="43.462190" lon="-5.187066">
        <ele>177.047</ele>
        <time>2022-08-27T12:31:28Z</time>
      </trkpt>
      <trkpt lat="43.462243" lon="-5.187051">
        <ele>177.888</ele>
        <time>2022-08-27T12:31:30Z</time>
      </trkpt>
      <trkpt lat="43.462298" lon="-5.187044">
        <ele>179.576</ele>
        <time>2022-08-27T12:31:32Z</time>
      </trkpt>
      <trkpt lat="43.462361" lon="-5.187032">
        <ele>180.586</ele>
        <time>2022-08-27T12:31:34Z</time>
      </trkpt>
      <trkpt lat="43.462419" lon="-5.187012">
        <ele>181.012</ele>
        <time>2022-08-27T12:31:36Z</time>
      </trkpt>
      <trkpt lat="43.462481" lon="-5.186994">
        <ele>181.076</ele>
        <time>2022-08-27T12:31:38Z</time>
      </trkpt>
      <trkpt lat="43.462543" lon="-5.186982">
        <ele>181.063</ele>
        <time>2022-08-27T12:31:40Z</time>
      </trkpt>
      <trkpt lat="43.462601" lon="-5.186964">
        <ele>180.390</ele>
        <time>2022-08-27T12:31:42Z</time>
      </trkpt>
      <trkpt lat="43.462661" lon="-5.186949">
        <ele>179.664</ele>
        <time>2022-08-27T12:31:44Z</time>
      </trkpt>
      <trkpt lat="43.462714" lon="-5.186934">
        <ele>179.206</ele>
        <time>2022-08-27T12:31:46Z</time>
      </trkpt>
      <trkpt lat="43.462771" lon="-5.186922">
        <ele>179.116</ele>
        <time>2022-08-27T12:31:48Z</time>
      </trkpt>
      <trkpt lat="43.462823" lon="-5.186914">
        <ele>179.109</ele>
        <time>2022-08-27T12:31:50Z</time>
      </trkpt>
      <trkpt lat="43.462873" lon="-5.186894">
        <ele>179.147</ele>
        <time>2022-08-27T12:31:52Z</time>
      </trkpt>
      <trkpt lat="43.462928" lon="-5.186881">
        <ele>179.427</ele>
        <time>2022-08-27T12:31:54Z</time>
      </trkpt>
      <trkpt lat="43.462986" lon="-5.186864">
        <ele>179.538</ele>
        <time>2022-08-27T12:31:56Z</time>
      </trkpt>
      <trkpt lat="43.463044" lon="-5.186852">
        <ele>179.566</ele>
        <time>2022-08-27T12:31:58Z</time>
      </trkpt>
      <trkpt lat="43.463099" lon="-5.186835">
        <ele>179.616</ele>
        <time>2022-08-27T12:32:00Z</time>
      </trkpt>
      <trkpt lat="43.463154" lon="-5.186817">
        <ele>179.692</ele>
        <time>2022-08-27T12:32:02Z</time>
      </trkpt>
      <trkpt lat="43.463206" lon="-5.186807">
        <ele>179.836</ele>
        <time>2022-08-27T12:32:04Z</time>
      </trkpt>
      <trkpt lat="43.463263" lon="-5.186792">
        <ele>180.413</ele>
        <time>2022-08-27T12:32:06Z</time>
      </trkpt>
      <trkpt lat="43.463320" lon="-5.186779">
        <ele>181.010</ele>
        <time>2022-08-27T12:32:08Z</time>
      </trkpt>
      <trkpt lat="43.463372" lon="-5.186749">
        <ele>181.685</ele>
        <time>2022-08-27T12:32:10Z</time>
      </trkpt>
      <trkpt lat="43.463419" lon="-5.186717">
        <ele>182.789</ele>
        <time>2022-08-27T12:32:12Z</time>
      </trkpt>
      <trkpt lat="43.463472" lon="-5.186697">
        <ele>183.117</ele>
        <time>2022-08-27T12:32:14Z</time>
      </trkpt>
      <trkpt lat="43.463517" lon="-5.186667">
        <ele>183.209</ele>
        <time>2022-08-27T12:32:16Z</time>
      </trkpt>
      <trkpt lat="43.463564" lon="-5.186642">
        <ele>183.219</ele>
        <time>2022-08-27T12:32:18Z</time>
      </trkpt>
      <trkpt lat="43.463607" lon="-5.186615">
        <ele>183.269</ele>
        <time>2022-08-27T12:32:20Z</time>
      </trkpt>
      <trkpt lat="43.463662" lon="-5.186573">
        <ele>183.010</ele>
        <time>2022-08-27T12:32:22Z</time>
      </trkpt>
      <trkpt lat="43.463737" lon="-5.186536">
        <ele>182.548</ele>
        <time>2022-08-27T12:32:24Z</time>
      </trkpt>
      <trkpt lat="43.463805" lon="-5.186481">
        <ele>182.168</ele>
        <time>2022-08-27T12:32:26Z</time>
      </trkpt>
      <trkpt lat="43.463885" lon="-5.186403">
        <ele>181.364</ele>
        <time>2022-08-27T12:32:28Z</time>
      </trkpt>
      <trkpt lat="43.463967" lon="-5.186313">
        <ele>180.468</ele>
        <time>2022-08-27T12:32:30Z</time>
      </trkpt>
      <trkpt lat="43.464007" lon="-5.186265">
        <ele>180.355</ele>
        <time>2022-08-27T12:32:31Z</time>
      </trkpt>
      <trkpt lat="43.464085" lon="-5.186167">
        <ele>180.142</ele>
        <time>2022-08-27T12:32:33Z</time>
      </trkpt>
      <trkpt lat="43.464168" lon="-5.186065">
        <ele>180.166</ele>
        <time>2022-08-27T12:32:35Z</time>
      </trkpt>
      <trkpt lat="43.464253" lon="-5.185963">
        <ele>180.029</ele>
        <time>2022-08-27T12:32:37Z</time>
      </trkpt>
      <trkpt lat="43.464293" lon="-5.185911">
        <ele>180.021</ele>
        <time>2022-08-27T12:32:38Z</time>
      </trkpt>
      <trkpt lat="43.464375" lon="-5.185804">
        <ele>179.609</ele>
        <time>2022-08-27T12:32:40Z</time>
      </trkpt>
      <trkpt lat="43.464413" lon="-5.185749">
        <ele>179.557</ele>
        <time>2022-08-27T12:32:41Z</time>
      </trkpt>
      <trkpt lat="43.464501" lon="-5.185639">
        <ele>178.717</ele>
        <time>2022-08-27T12:32:43Z</time>
      </trkpt>
      <trkpt lat="43.464588" lon="-5.185527">
        <ele>177.938</ele>
        <time>2022-08-27T12:32:45Z</time>
      </trkpt>
      <trkpt lat="43.464685" lon="-5.185425">
        <ele>177.196</ele>
        <time>2022-08-27T12:32:47Z</time>
      </trkpt>
      <trkpt lat="43.464790" lon="-5.185340">
        <ele>176.856</ele>
        <time>2022-08-27T12:32:49Z</time>
      </trkpt>
      <trkpt lat="43.464905" lon="-5.185263">
        <ele>176.272</ele>
        <time>2022-08-27T12:32:51Z</time>
      </trkpt>
      <trkpt lat="43.465022" lon="-5.185178">
        <ele>175.836</ele>
        <time>2022-08-27T12:32:53Z</time>
      </trkpt>
      <trkpt lat="43.465140" lon="-5.185098">
        <ele>175.573</ele>
        <time>2022-08-27T12:32:55Z</time>
      </trkpt>
      <trkpt lat="43.465257" lon="-5.185003">
        <ele>174.810</ele>
        <time>2022-08-27T12:32:57Z</time>
      </trkpt>
      <trkpt lat="43.465309" lon="-5.184945">
        <ele>174.542</ele>
        <time>2022-08-27T12:32:58Z</time>
      </trkpt>
      <trkpt lat="43.465399" lon="-5.184800">
        <ele>173.622</ele>
        <time>2022-08-27T12:33:00Z</time>
      </trkpt>
      <trkpt lat="43.465454" lon="-5.184635">
        <ele>172.814</ele>
        <time>2022-08-27T12:33:02Z</time>
      </trkpt>
      <trkpt lat="43.465471" lon="-5.184550">
        <ele>172.409</ele>
        <time>2022-08-27T12:33:03Z</time>
      </trkpt>
      <trkpt lat="43.465488" lon="-5.184465">
        <ele>172.275</ele>
        <time>2022-08-27T12:33:04Z</time>
      </trkpt>
      <trkpt lat="43.465523" lon="-5.184305">
        <ele>171.375</ele>
        <time>2022-08-27T12:33:06Z</time>
      </trkpt>
      <trkpt lat="43.465541" lon="-5.184227">
        <ele>171.046</ele>
        <time>2022-08-27T12:33:07Z</time>
      </trkpt>
      <trkpt lat="43.465554" lon="-5.184149">
        <ele>170.484</ele>
        <time>2022-08-27T12:33:08Z</time>
      </trkpt>
      <trkpt lat="43.465586" lon="-5.183989">
        <ele>169.834</ele>
        <time>2022-08-27T12:33:10Z</time>
      </trkpt>
      <trkpt lat="43.465623" lon="-5.183829">
        <ele>169.590</ele>
        <time>2022-08-27T12:33:12Z</time>
      </trkpt>
      <trkpt lat="43.465641" lon="-5.183749">
        <ele>169.254</ele>
        <time>2022-08-27T12:33:13Z</time>
      </trkpt>
      <trkpt lat="43.465661" lon="-5.183671">
        <ele>169.171</ele>
        <time>2022-08-27T12:33:14Z</time>
      </trkpt>
      <trkpt lat="43.465681" lon="-5.183591">
        <ele>169.128</ele>
        <time>2022-08-27T12:33:15Z</time>
      </trkpt>
      <trkpt lat="43.465729" lon="-5.183429">
        <ele>168.818</ele>
        <time>2022-08-27T12:33:17Z</time>
      </trkpt>
      <trkpt lat="43.465756" lon="-5.183347">
        <ele>168.898</ele>
        <time>2022-08-27T12:33:18Z</time>
      </trkpt>
      <trkpt lat="43.465783" lon="-5.183264">
        <ele>168.817</ele>
        <time>2022-08-27T12:33:19Z</time>
      </trkpt>
      <trkpt lat="43.465811" lon="-5.183179">
        <ele>168.809</ele>
        <time>2022-08-27T12:33:20Z</time>
      </trkpt>
      <trkpt lat="43.465838" lon="-5.183094">
        <ele>168.872</ele>
        <time>2022-08-27T12:33:21Z</time>
      </trkpt>
      <trkpt lat="43.465895" lon="-5.182919">
        <ele>168.532</ele>
        <time>2022-08-27T12:33:23Z</time>
      </trkpt>
      <trkpt lat="43.465958" lon="-5.182744">
        <ele>167.793</ele>
        <time>2022-08-27T12:33:25Z</time>
      </trkpt>
      <trkpt lat="43.466025" lon="-5.182569">
        <ele>166.931</ele>
        <time>2022-08-27T12:33:27Z</time>
      </trkpt>
      <trkpt lat="43.466058" lon="-5.182482">
        <ele>166.731</ele>
        <time>2022-08-27T12:33:28Z</time>
      </trkpt>
      <trkpt lat="43.466126" lon="-5.182320">
        <ele>166.537</ele>
        <time>2022-08-27T12:33:30Z</time>
      </trkpt>
      <trkpt lat="43.466156" lon="-5.182245">
        <ele>166.341</ele>
        <time>2022-08-27T12:33:31Z</time>
      </trkpt>
      <trkpt lat="43.466213" lon="-5.182107">
        <ele>166.088</ele>
        <time>2022-08-27T12:33:33Z</time>
      </trkpt>
      <trkpt lat="43.466240" lon="-5.182035">
        <ele>165.835</ele>
        <time>2022-08-27T12:33:34Z</time>
      </trkpt>
      <trkpt lat="43.466287" lon="-5.181872">
        <ele>165.663</ele>
        <time>2022-08-27T12:33:36Z</time>
      </trkpt>
      <trkpt lat="43.466324" lon="-5.181692">
        <ele>165.244</ele>
        <time>2022-08-27T12:33:38Z</time>
      </trkpt>
      <trkpt lat="43.466339" lon="-5.181600">
        <ele>165.018</ele>
        <time>2022-08-27T12:33:39Z</time>
      </trkpt>
      <trkpt lat="43.466362" lon="-5.181413">
        <ele>164.209</ele>
        <time>2022-08-27T12:33:41Z</time>
      </trkpt>
      <trkpt lat="43.466379" lon="-5.181318">
        <ele>163.797</ele>
        <time>2022-08-27T12:33:42Z</time>
      </trkpt>
      <trkpt lat="43.466401" lon="-5.181228">
        <ele>163.347</ele>
        <time>2022-08-27T12:33:43Z</time>
      </trkpt>
      <trkpt lat="43.466454" lon="-5.181050">
        <ele>162.348</ele>
        <time>2022-08-27T12:33:45Z</time>
      </trkpt>
      <trkpt lat="43.466487" lon="-5.180960">
        <ele>161.796</ele>
        <time>2022-08-27T12:33:46Z</time>
      </trkpt>
      <trkpt lat="43.466524" lon="-5.180872">
        <ele>161.286</ele>
        <time>2022-08-27T12:33:47Z</time>
      </trkpt>
      <trkpt lat="43.466601" lon="-5.180699">
        <ele>160.112</ele>
        <time>2022-08-27T12:33:49Z</time>
      </trkpt>
      <trkpt lat="43.466638" lon="-5.180617">
        <ele>159.556</ele>
        <time>2022-08-27T12:33:50Z</time>
      </trkpt>
      <trkpt lat="43.466708" lon="-5.180459">
        <ele>158.243</ele>
        <time>2022-08-27T12:33:52Z</time>
      </trkpt>
      <trkpt lat="43.466746" lon="-5.180384">
        <ele>157.720</ele>
        <time>2022-08-27T12:33:53Z</time>
      </trkpt>
      <trkpt lat="43.466781" lon="-5.180314">
        <ele>157.228</ele>
        <time>2022-08-27T12:33:54Z</time>
      </trkpt>
      <trkpt lat="43.466854" lon="-5.180167">
        <ele>156.889</ele>
        <time>2022-08-27T12:33:56Z</time>
      </trkpt>
      <trkpt lat="43.466889" lon="-5.180092">
        <ele>156.417</ele>
        <time>2022-08-27T12:33:57Z</time>
      </trkpt>
      <trkpt lat="43.466961" lon="-5.179937">
        <ele>156.009</ele>
        <time>2022-08-27T12:33:59Z</time>
      </trkpt>
      <trkpt lat="43.467039" lon="-5.179779">
        <ele>155.353</ele>
        <time>2022-08-27T12:34:01Z</time>
      </trkpt>
      <trkpt lat="43.467081" lon="-5.179697">
        <ele>154.853</ele>
        <time>2022-08-27T12:34:02Z</time>
      </trkpt>
      <trkpt lat="43.467128" lon="-5.179624">
        <ele>154.664</ele>
        <time>2022-08-27T12:34:03Z</time>
      </trkpt>
      <trkpt lat="43.467181" lon="-5.179564">
        <ele>154.272</ele>
        <time>2022-08-27T12:34:04Z</time>
      </trkpt>
      <trkpt lat="43.467313" lon="-5.179494">
        <ele>153.542</ele>
        <time>2022-08-27T12:34:06Z</time>
      </trkpt>
      <trkpt lat="43.467460" lon="-5.179489">
        <ele>152.268</ele>
        <time>2022-08-27T12:34:08Z</time>
      </trkpt>
      <trkpt lat="43.467537" lon="-5.179496">
        <ele>151.332</ele>
        <time>2022-08-27T12:34:09Z</time>
      </trkpt>
      <trkpt lat="43.467610" lon="-5.179504">
        <ele>150.669</ele>
        <time>2022-08-27T12:34:10Z</time>
      </trkpt>
      <trkpt lat="43.467753" lon="-5.179517">
        <ele>149.576</ele>
        <time>2022-08-27T12:34:12Z</time>
      </trkpt>
      <trkpt lat="43.467830" lon="-5.179519">
        <ele>148.854</ele>
        <time>2022-08-27T12:34:13Z</time>
      </trkpt>
      <trkpt lat="43.467993" lon="-5.179519">
        <ele>147.956</ele>
        <time>2022-08-27T12:34:15Z</time>
      </trkpt>
      <trkpt lat="43.468078" lon="-5.179524">
        <ele>147.511</ele>
        <time>2022-08-27T12:34:16Z</time>
      </trkpt>
      <trkpt lat="43.468246" lon="-5.179536">
        <ele>146.709</ele>
        <time>2022-08-27T12:34:18Z</time>
      </trkpt>
      <trkpt lat="43.468413" lon="-5.179496">
        <ele>145.676</ele>
        <time>2022-08-27T12:34:20Z</time>
      </trkpt>
      <trkpt lat="43.468563" lon="-5.179349">
        <ele>144.286</ele>
        <time>2022-08-27T12:34:22Z</time>
      </trkpt>
      <trkpt lat="43.468631" lon="-5.179252">
        <ele>143.627</ele>
        <time>2022-08-27T12:34:23Z</time>
      </trkpt>
      <trkpt lat="43.468761" lon="-5.179054">
        <ele>142.985</ele>
        <time>2022-08-27T12:34:25Z</time>
      </trkpt>
      <trkpt lat="43.468818" lon="-5.178957">
        <ele>142.675</ele>
        <time>2022-08-27T12:34:26Z</time>
      </trkpt>
      <trkpt lat="43.468900" lon="-5.178752">
        <ele>142.281</ele>
        <time>2022-08-27T12:34:28Z</time>
      </trkpt>
      <trkpt lat="43.468920" lon="-5.178524">
        <ele>141.635</ele>
        <time>2022-08-27T12:34:30Z</time>
      </trkpt>
      <trkpt lat="43.468897" lon="-5.178304">
        <ele>140.872</ele>
        <time>2022-08-27T12:34:32Z</time>
      </trkpt>
      <trkpt lat="43.468882" lon="-5.178199">
        <ele>139.989</ele>
        <time>2022-08-27T12:34:33Z</time>
      </trkpt>
      <trkpt lat="43.468867" lon="-5.178096">
        <ele>139.246</ele>
        <time>2022-08-27T12:34:34Z</time>
      </trkpt>
      <trkpt lat="43.468840" lon="-5.177894">
        <ele>138.288</ele>
        <time>2022-08-27T12:34:36Z</time>
      </trkpt>
      <trkpt lat="43.468820" lon="-5.177701">
        <ele>137.916</ele>
        <time>2022-08-27T12:34:38Z</time>
      </trkpt>
      <trkpt lat="43.468805" lon="-5.177514">
        <ele>137.909</ele>
        <time>2022-08-27T12:34:40Z</time>
      </trkpt>
      <trkpt lat="43.468803" lon="-5.177422">
        <ele>137.915</ele>
        <time>2022-08-27T12:34:41Z</time>
      </trkpt>
      <trkpt lat="43.468803" lon="-5.177329">
        <ele>137.935</ele>
        <time>2022-08-27T12:34:42Z</time>
      </trkpt>
      <trkpt lat="43.468808" lon="-5.177234">
        <ele>137.886</ele>
        <time>2022-08-27T12:34:43Z</time>
      </trkpt>
      <trkpt lat="43.468843" lon="-5.177046">
        <ele>136.934</ele>
        <time>2022-08-27T12:34:45Z</time>
      </trkpt>
      <trkpt lat="43.468900" lon="-5.176859">
        <ele>136.484</ele>
        <time>2022-08-27T12:34:47Z</time>
      </trkpt>
      <trkpt lat="43.468930" lon="-5.176771">
        <ele>136.310</ele>
        <time>2022-08-27T12:34:48Z</time>
      </trkpt>
      <trkpt lat="43.468958" lon="-5.176683">
        <ele>136.354</ele>
        <time>2022-08-27T12:34:49Z</time>
      </trkpt>
      <trkpt lat="43.469021" lon="-5.176520">
        <ele>136.331</ele>
        <time>2022-08-27T12:34:51Z</time>
      </trkpt>
      <trkpt lat="43.469051" lon="-5.176445">
        <ele>136.358</ele>
        <time>2022-08-27T12:34:52Z</time>
      </trkpt>
      <trkpt lat="43.469109" lon="-5.176285">
        <ele>136.331</ele>
        <time>2022-08-27T12:34:54Z</time>
      </trkpt>
      <trkpt lat="43.469139" lon="-5.176207">
        <ele>136.361</ele>
        <time>2022-08-27T12:34:55Z</time>
      </trkpt>
      <trkpt lat="43.469199" lon="-5.176054">
        <ele>136.407</ele>
        <time>2022-08-27T12:34:57Z</time>
      </trkpt>
      <trkpt lat="43.469229" lon="-5.175977">
        <ele>136.409</ele>
        <time>2022-08-27T12:34:58Z</time>
      </trkpt>
      <trkpt lat="43.469257" lon="-5.175902">
        <ele>136.464</ele>
        <time>2022-08-27T12:34:59Z</time>
      </trkpt>
      <trkpt lat="43.469314" lon="-5.175755">
        <ele>136.284</ele>
        <time>2022-08-27T12:35:01Z</time>
      </trkpt>
      <trkpt lat="43.469337" lon="-5.175682">
        <ele>136.245</ele>
        <time>2022-08-27T12:35:02Z</time>
      </trkpt>
      <trkpt lat="43.469360" lon="-5.175612">
        <ele>136.263</ele>
        <time>2022-08-27T12:35:03Z</time>
      </trkpt>
      <trkpt lat="43.469407" lon="-5.175474">
        <ele>135.843</ele>
        <time>2022-08-27T12:35:05Z</time>
      </trkpt>
      <trkpt lat="43.469457" lon="-5.175336">
        <ele>135.599</ele>
        <time>2022-08-27T12:35:07Z</time>
      </trkpt>
      <trkpt lat="43.469505" lon="-5.175194">
        <ele>135.163</ele>
        <time>2022-08-27T12:35:09Z</time>
      </trkpt>
      <trkpt lat="43.469528" lon="-5.175119">
        <ele>134.660</ele>
        <time>2022-08-27T12:35:10Z</time>
      </trkpt>
      <trkpt lat="43.469553" lon="-5.175042">
        <ele>134.157</ele>
        <time>2022-08-27T12:35:11Z</time>
      </trkpt>
      <trkpt lat="43.469598" lon="-5.174887">
        <ele>133.884</ele>
        <time>2022-08-27T12:35:13Z</time>
      </trkpt>
      <trkpt lat="43.469620" lon="-5.174807">
        <ele>133.707</ele>
        <time>2022-08-27T12:35:14Z</time>
      </trkpt>
      <trkpt lat="43.469667" lon="-5.174642">
        <ele>133.117</ele>
        <time>2022-08-27T12:35:16Z</time>
      </trkpt>
      <trkpt lat="43.469715" lon="-5.174469">
        <ele>132.209</ele>
        <time>2022-08-27T12:35:18Z</time>
      </trkpt>
      <trkpt lat="43.469740" lon="-5.174377">
        <ele>131.899</ele>
        <time>2022-08-27T12:35:19Z</time>
      </trkpt>
      <trkpt lat="43.469767" lon="-5.174284">
        <ele>131.349</ele>
        <time>2022-08-27T12:35:20Z</time>
      </trkpt>
      <trkpt lat="43.469794" lon="-5.174187">
        <ele>131.070</ele>
        <time>2022-08-27T12:35:21Z</time>
      </trkpt>
      <trkpt lat="43.469824" lon="-5.174087">
        <ele>130.748</ele>
        <time>2022-08-27T12:35:22Z</time>
      </trkpt>
      <trkpt lat="43.469884" lon="-5.173874">
        <ele>129.698</ele>
        <time>2022-08-27T12:35:24Z</time>
      </trkpt>
      <trkpt lat="43.469952" lon="-5.173661">
        <ele>128.694</ele>
        <time>2022-08-27T12:35:26Z</time>
      </trkpt>
      <trkpt lat="43.470039" lon="-5.173449">
        <ele>127.488</ele>
        <time>2022-08-27T12:35:28Z</time>
      </trkpt>
      <trkpt lat="43.470087" lon="-5.173344">
        <ele>126.735</ele>
        <time>2022-08-27T12:35:29Z</time>
      </trkpt>
      <trkpt lat="43.470185" lon="-5.173131">
        <ele>125.072</ele>
        <time>2022-08-27T12:35:31Z</time>
      </trkpt>
      <trkpt lat="43.470253" lon="-5.172918">
        <ele>123.891</ele>
        <time>2022-08-27T12:35:33Z</time>
      </trkpt>
      <trkpt lat="43.470261" lon="-5.172806">
        <ele>123.581</ele>
        <time>2022-08-27T12:35:34Z</time>
      </trkpt>
      <trkpt lat="43.470219" lon="-5.172603">
        <ele>122.519</ele>
        <time>2022-08-27T12:35:36Z</time>
      </trkpt>
      <trkpt lat="43.470177" lon="-5.172421">
        <ele>122.309</ele>
        <time>2022-08-27T12:35:38Z</time>
      </trkpt>
      <trkpt lat="43.470184" lon="-5.172338">
        <ele>122.480</ele>
        <time>2022-08-27T12:35:39Z</time>
      </trkpt>
      <trkpt lat="43.470262" lon="-5.172215">
        <ele>122.540</ele>
        <time>2022-08-27T12:35:41Z</time>
      </trkpt>
      <trkpt lat="43.470379" lon="-5.172187">
        <ele>122.681</ele>
        <time>2022-08-27T12:35:43Z</time>
      </trkpt>
      <trkpt lat="43.470439" lon="-5.172209">
        <ele>122.559</ele>
        <time>2022-08-27T12:35:44Z</time>
      </trkpt>
      <trkpt lat="43.470499" lon="-5.172224">
        <ele>122.299</ele>
        <time>2022-08-27T12:35:45Z</time>
      </trkpt>
      <trkpt lat="43.470557" lon="-5.172214">
        <ele>121.795</ele>
        <time>2022-08-27T12:35:46Z</time>
      </trkpt>
      <trkpt lat="43.470612" lon="-5.172171">
        <ele>121.799</ele>
        <time>2022-08-27T12:35:47Z</time>
      </trkpt>
      <trkpt lat="43.470702" lon="-5.172036">
        <ele>121.756</ele>
        <time>2022-08-27T12:35:49Z</time>
      </trkpt>
      <trkpt lat="43.470774" lon="-5.171884">
        <ele>121.533</ele>
        <time>2022-08-27T12:35:51Z</time>
      </trkpt>
      <trkpt lat="43.470807" lon="-5.171799">
        <ele>121.511</ele>
        <time>2022-08-27T12:35:52Z</time>
      </trkpt>
      <trkpt lat="43.470875" lon="-5.171607">
        <ele>120.921</ele>
        <time>2022-08-27T12:35:54Z</time>
      </trkpt>
      <trkpt lat="43.470905" lon="-5.171504">
        <ele>120.403</ele>
        <time>2022-08-27T12:35:55Z</time>
      </trkpt>
      <trkpt lat="43.470937" lon="-5.171397">
        <ele>119.909</ele>
        <time>2022-08-27T12:35:56Z</time>
      </trkpt>
      <trkpt lat="43.470990" lon="-5.171167">
        <ele>118.832</ele>
        <time>2022-08-27T12:35:58Z</time>
      </trkpt>
      <trkpt lat="43.471010" lon="-5.171047">
        <ele>118.112</ele>
        <time>2022-08-27T12:35:59Z</time>
      </trkpt>
      <trkpt lat="43.471030" lon="-5.170919">
        <ele>117.433</ele>
        <time>2022-08-27T12:36:00Z</time>
      </trkpt>
      <trkpt lat="43.471060" lon="-5.170664">
        <ele>115.421</ele>
        <time>2022-08-27T12:36:02Z</time>
      </trkpt>
      <trkpt lat="43.471112" lon="-5.170414">
        <ele>114.521</ele>
        <time>2022-08-27T12:36:04Z</time>
      </trkpt>
      <trkpt lat="43.471204" lon="-5.170182">
        <ele>113.247</ele>
        <time>2022-08-27T12:36:06Z</time>
      </trkpt>
      <trkpt lat="43.471339" lon="-5.169990">
        <ele>111.561</ele>
        <time>2022-08-27T12:36:08Z</time>
      </trkpt>
      <trkpt lat="43.471499" lon="-5.169842">
        <ele>110.728</ele>
        <time>2022-08-27T12:36:10Z</time>
      </trkpt>
      <trkpt lat="43.471676" lon="-5.169735">
        <ele>110.235</ele>
        <time>2022-08-27T12:36:12Z</time>
      </trkpt>
      <trkpt lat="43.471768" lon="-5.169693">
        <ele>109.916</ele>
        <time>2022-08-27T12:36:13Z</time>
      </trkpt>
      <trkpt lat="43.471958" lon="-5.169631">
        <ele>109.576</ele>
        <time>2022-08-27T12:36:15Z</time>
      </trkpt>
      <trkpt lat="43.472146" lon="-5.169544">
        <ele>108.613</ele>
        <time>2022-08-27T12:36:17Z</time>
      </trkpt>
      <trkpt lat="43.472308" lon="-5.169394">
        <ele>107.709</ele>
        <time>2022-08-27T12:36:19Z</time>
      </trkpt>
      <trkpt lat="43.472378" lon="-5.169296">
        <ele>107.142</ele>
        <time>2022-08-27T12:36:20Z</time>
      </trkpt>
      <trkpt lat="43.472508" lon="-5.169088">
        <ele>105.882</ele>
        <time>2022-08-27T12:36:22Z</time>
      </trkpt>
      <trkpt lat="43.472571" lon="-5.168981">
        <ele>105.283</ele>
        <time>2022-08-27T12:36:23Z</time>
      </trkpt>
      <trkpt lat="43.472693" lon="-5.168773">
        <ele>104.031</ele>
        <time>2022-08-27T12:36:25Z</time>
      </trkpt>
      <trkpt lat="43.472815" lon="-5.168556">
        <ele>102.481</ele>
        <time>2022-08-27T12:36:27Z</time>
      </trkpt>
      <trkpt lat="43.472873" lon="-5.168443">
        <ele>101.687</ele>
        <time>2022-08-27T12:36:28Z</time>
      </trkpt>
      <trkpt lat="43.472928" lon="-5.168325">
        <ele>100.881</ele>
        <time>2022-08-27T12:36:29Z</time>
      </trkpt>
      <trkpt lat="43.472975" lon="-5.168205">
        <ele>99.768</ele>
        <time>2022-08-27T12:36:30Z</time>
      </trkpt>
      <trkpt lat="43.473015" lon="-5.168080">
        <ele>98.415</ele>
        <time>2022-08-27T12:36:31Z</time>
      </trkpt>
      <trkpt lat="43.473045" lon="-5.167948">
        <ele>97.453</ele>
        <time>2022-08-27T12:36:32Z</time>
      </trkpt>
      <trkpt lat="43.473095" lon="-5.167680">
        <ele>95.504</ele>
        <time>2022-08-27T12:36:34Z</time>
      </trkpt>
      <trkpt lat="43.473140" lon="-5.167427">
        <ele>93.914</ele>
        <time>2022-08-27T12:36:36Z</time>
      </trkpt>
      <trkpt lat="43.473183" lon="-5.167170">
        <ele>91.309</ele>
        <time>2022-08-27T12:36:38Z</time>
      </trkpt>
      <trkpt lat="43.473221" lon="-5.166913">
        <ele>88.926</ele>
        <time>2022-08-27T12:36:40Z</time>
      </trkpt>
      <trkpt lat="43.473238" lon="-5.166780">
        <ele>88.916</ele>
        <time>2022-08-27T12:36:41Z</time>
      </trkpt>
      <trkpt lat="43.473258" lon="-5.166647">
        <ele>88.977</ele>
        <time>2022-08-27T12:36:42Z</time>
      </trkpt>
      <trkpt lat="43.473303" lon="-5.166402">
        <ele>89.355</ele>
        <time>2022-08-27T12:36:44Z</time>
      </trkpt>
      <trkpt lat="43.473343" lon="-5.166175">
        <ele>89.435</ele>
        <time>2022-08-27T12:36:46Z</time>
      </trkpt>
      <trkpt lat="43.473358" lon="-5.166068">
        <ele>89.751</ele>
        <time>2022-08-27T12:36:47Z</time>
      </trkpt>
      <trkpt lat="43.473388" lon="-5.165863">
        <ele>90.335</ele>
        <time>2022-08-27T12:36:49Z</time>
      </trkpt>
      <trkpt lat="43.473423" lon="-5.165670">
        <ele>91.192</ele>
        <time>2022-08-27T12:36:51Z</time>
      </trkpt>
      <trkpt lat="43.473440" lon="-5.165575">
        <ele>91.629</ele>
        <time>2022-08-27T12:36:52Z</time>
      </trkpt>
      <trkpt lat="43.473457" lon="-5.165478">
        <ele>91.917</ele>
        <time>2022-08-27T12:36:53Z</time>
      </trkpt>
      <trkpt lat="43.473490" lon="-5.165291">
        <ele>92.187</ele>
        <time>2022-08-27T12:36:55Z</time>
      </trkpt>
      <trkpt lat="43.473508" lon="-5.165194">
        <ele>92.115</ele>
        <time>2022-08-27T12:36:56Z</time>
      </trkpt>
      <trkpt lat="43.473541" lon="-5.165007">
        <ele>91.509</ele>
        <time>2022-08-27T12:36:58Z</time>
      </trkpt>
      <trkpt lat="43.473569" lon="-5.164812">
        <ele>90.932</ele>
        <time>2022-08-27T12:37:00Z</time>
      </trkpt>
      <trkpt lat="43.473577" lon="-5.164712">
        <ele>90.732</ele>
        <time>2022-08-27T12:37:01Z</time>
      </trkpt>
      <trkpt lat="43.473584" lon="-5.164610">
        <ele>90.563</ele>
        <time>2022-08-27T12:37:02Z</time>
      </trkpt>
      <trkpt lat="43.473586" lon="-5.164508">
        <ele>90.361</ele>
        <time>2022-08-27T12:37:03Z</time>
      </trkpt>
      <trkpt lat="43.473589" lon="-5.164408">
        <ele>90.121</ele>
        <time>2022-08-27T12:37:04Z</time>
      </trkpt>
      <trkpt lat="43.473596" lon="-5.164200">
        <ele>89.747</ele>
        <time>2022-08-27T12:37:06Z</time>
      </trkpt>
      <trkpt lat="43.473608" lon="-5.163998">
        <ele>89.261</ele>
        <time>2022-08-27T12:37:08Z</time>
      </trkpt>
      <trkpt lat="43.473625" lon="-5.163793">
        <ele>88.028</ele>
        <time>2022-08-27T12:37:10Z</time>
      </trkpt>
      <trkpt lat="43.473628" lon="-5.163693">
        <ele>87.785</ele>
        <time>2022-08-27T12:37:11Z</time>
      </trkpt>
      <trkpt lat="43.473636" lon="-5.163495">
        <ele>87.366</ele>
        <time>2022-08-27T12:37:13Z</time>
      </trkpt>
      <trkpt lat="43.473638" lon="-5.163400">
        <ele>87.329</ele>
        <time>2022-08-27T12:37:14Z</time>
      </trkpt>
      <trkpt lat="43.473640" lon="-5.163212">
        <ele>87.021</ele>
        <time>2022-08-27T12:37:16Z</time>
      </trkpt>
      <trkpt lat="43.473638" lon="-5.163119">
        <ele>86.709</ele>
        <time>2022-08-27T12:37:17Z</time>
      </trkpt>
      <trkpt lat="43.473618" lon="-5.162932">
        <ele>86.227</ele>
        <time>2022-08-27T12:37:19Z</time>
      </trkpt>
      <trkpt lat="43.473555" lon="-5.162770">
        <ele>86.117</ele>
        <time>2022-08-27T12:37:21Z</time>
      </trkpt>
      <trkpt lat="43.473465" lon="-5.162632">
        <ele>86.288</ele>
        <time>2022-08-27T12:37:23Z</time>
      </trkpt>
      <trkpt lat="43.473358" lon="-5.162505">
        <ele>86.416</ele>
        <time>2022-08-27T12:37:25Z</time>
      </trkpt>
      <trkpt lat="43.473303" lon="-5.162442">
        <ele>86.446</ele>
        <time>2022-08-27T12:37:26Z</time>
      </trkpt>
      <trkpt lat="43.473215" lon="-5.162287">
        <ele>86.462</ele>
        <time>2022-08-27T12:37:28Z</time>
      </trkpt>
      <trkpt lat="43.473178" lon="-5.162094">
        <ele>87.056</ele>
        <time>2022-08-27T12:37:30Z</time>
      </trkpt>
      <trkpt lat="43.473176" lon="-5.161997">
        <ele>87.353</ele>
        <time>2022-08-27T12:37:31Z</time>
      </trkpt>
      <trkpt lat="43.473186" lon="-5.161902">
        <ele>87.420</ele>
        <time>2022-08-27T12:37:32Z</time>
      </trkpt>
      <trkpt lat="43.473221" lon="-5.161727">
        <ele>87.818</ele>
        <time>2022-08-27T12:37:34Z</time>
      </trkpt>
      <trkpt lat="43.473243" lon="-5.161647">
        <ele>87.898</ele>
        <time>2022-08-27T12:37:35Z</time>
      </trkpt>
      <trkpt lat="43.473296" lon="-5.161500">
        <ele>87.817</ele>
        <time>2022-08-27T12:37:37Z</time>
      </trkpt>
      <trkpt lat="43.473321" lon="-5.161432">
        <ele>87.809</ele>
        <time>2022-08-27T12:37:38Z</time>
      </trkpt>
      <trkpt lat="43.473366" lon="-5.161297">
        <ele>88.022</ele>
        <time>2022-08-27T12:37:40Z</time>
      </trkpt>
      <trkpt lat="43.473406" lon="-5.161169">
        <ele>88.852</ele>
        <time>2022-08-27T12:37:42Z</time>
      </trkpt>
      <trkpt lat="43.473416" lon="-5.161107">
        <ele>88.953</ele>
        <time>2022-08-27T12:37:43Z</time>
      </trkpt>
      <trkpt lat="43.473428" lon="-5.160984">
        <ele>88.921</ele>
        <time>2022-08-27T12:37:45Z</time>
      </trkpt>
      <trkpt lat="43.473420" lon="-5.160862">
        <ele>88.751</ele>
        <time>2022-08-27T12:37:47Z</time>
      </trkpt>
      <trkpt lat="43.473388" lon="-5.160747">
        <ele>88.017</ele>
        <time>2022-08-27T12:37:49Z</time>
      </trkpt>
      <trkpt lat="43.473351" lon="-5.160642">
        <ele>87.881</ele>
        <time>2022-08-27T12:37:51Z</time>
      </trkpt>
      <trkpt lat="43.473311" lon="-5.160547">
        <ele>87.468</ele>
        <time>2022-08-27T12:37:53Z</time>
      </trkpt>
      <trkpt lat="43.473271" lon="-5.160462">
        <ele>87.315</ele>
        <time>2022-08-27T12:37:55Z</time>
      </trkpt>
      <trkpt lat="43.473231" lon="-5.160374">
        <ele>87.315</ele>
        <time>2022-08-27T12:37:57Z</time>
      </trkpt>
      <trkpt lat="43.473201" lon="-5.160284">
        <ele>87.665</ele>
        <time>2022-08-27T12:37:59Z</time>
      </trkpt>
      <trkpt lat="43.473168" lon="-5.160199">
        <ele>87.711</ele>
        <time>2022-08-27T12:38:01Z</time>
      </trkpt>
      <trkpt lat="43.473131" lon="-5.160131">
        <ele>87.909</ele>
        <time>2022-08-27T12:38:03Z</time>
      </trkpt>
      <trkpt lat="43.473088" lon="-5.160058">
        <ele>88.242</ele>
        <time>2022-08-27T12:38:05Z</time>
      </trkpt>
      <trkpt lat="43.473043" lon="-5.159993">
        <ele>89.092</ele>
        <time>2022-08-27T12:38:07Z</time>
      </trkpt>
      <trkpt lat="43.472998" lon="-5.159921">
        <ele>89.413</ele>
        <time>2022-08-27T12:38:09Z</time>
      </trkpt>
      <trkpt lat="43.472958" lon="-5.159851">
        <ele>89.721</ele>
        <time>2022-08-27T12:38:11Z</time>
      </trkpt>
      <trkpt lat="43.472926" lon="-5.159773">
        <ele>90.231</ele>
        <time>2022-08-27T12:38:13Z</time>
      </trkpt>
      <trkpt lat="43.472896" lon="-5.159701">
        <ele>90.667</ele>
        <time>2022-08-27T12:38:15Z</time>
      </trkpt>
      <trkpt lat="43.472863" lon="-5.159623">
        <ele>90.611</ele>
        <time>2022-08-27T12:38:17Z</time>
      </trkpt>
      <trkpt lat="43.472833" lon="-5.159548">
        <ele>90.638</ele>
        <time>2022-08-27T12:38:19Z</time>
      </trkpt>
      <trkpt lat="43.472805" lon="-5.159483">
        <ele>90.445</ele>
        <time>2022-08-27T12:38:21Z</time>
      </trkpt>
      <trkpt lat="43.472778" lon="-5.159408">
        <ele>89.894</ele>
        <time>2022-08-27T12:38:23Z</time>
      </trkpt>
      <trkpt lat="43.472750" lon="-5.159330">
        <ele>89.457</ele>
        <time>2022-08-27T12:38:25Z</time>
      </trkpt>
      <trkpt lat="43.472725" lon="-5.159253">
        <ele>89.422</ele>
        <time>2022-08-27T12:38:27Z</time>
      </trkpt>
      <trkpt lat="43.472708" lon="-5.159171">
        <ele>90.009</ele>
        <time>2022-08-27T12:38:29Z</time>
      </trkpt>
      <trkpt lat="43.472695" lon="-5.159079">
        <ele>90.170</ele>
        <time>2022-08-27T12:38:31Z</time>
      </trkpt>
      <trkpt lat="43.472685" lon="-5.158986">
        <ele>90.190</ele>
        <time>2022-08-27T12:38:33Z</time>
      </trkpt>
      <trkpt lat="43.472668" lon="-5.158896">
        <ele>90.011</ele>
        <time>2022-08-27T12:38:35Z</time>
      </trkpt>
      <trkpt lat="43.472653" lon="-5.158808">
        <ele>90.019</ele>
        <time>2022-08-27T12:38:37Z</time>
      </trkpt>
      <trkpt lat="43.472640" lon="-5.158720">
        <ele>89.969</ele>
        <time>2022-08-27T12:38:39Z</time>
      </trkpt>
      <trkpt lat="43.472623" lon="-5.158628">
        <ele>89.855</ele>
        <time>2022-08-27T12:38:41Z</time>
      </trkpt>
      <trkpt lat="43.472601" lon="-5.158535">
        <ele>89.739</ele>
        <time>2022-08-27T12:38:43Z</time>
      </trkpt>
      <trkpt lat="43.472568" lon="-5.158432">
        <ele>89.246</ele>
        <time>2022-08-27T12:38:45Z</time>
      </trkpt>
      <trkpt lat="43.472523" lon="-5.158339">
        <ele>89.063</ele>
        <time>2022-08-27T12:38:47Z</time>
      </trkpt>
      <trkpt lat="43.472475" lon="-5.158247">
        <ele>88.323</ele>
        <time>2022-08-27T12:38:49Z</time>
      </trkpt>
      <trkpt lat="43.472423" lon="-5.158155">
        <ele>88.083</ele>
        <time>2022-08-27T12:38:51Z</time>
      </trkpt>
      <trkpt lat="43.472355" lon="-5.158077">
        <ele>87.611</ele>
        <time>2022-08-27T12:38:53Z</time>
      </trkpt>
      <trkpt lat="43.472320" lon="-5.158035">
        <ele>87.309</ele>
        <time>2022-08-27T12:38:54Z</time>
      </trkpt>
      <trkpt lat="43.472247" lon="-5.157953">
        <ele>86.543</ele>
        <time>2022-08-27T12:38:56Z</time>
      </trkpt>
      <trkpt lat="43.472175" lon="-5.157881">
        <ele>85.783</ele>
        <time>2022-08-27T12:38:58Z</time>
      </trkpt>
      <trkpt lat="43.472095" lon="-5.157833">
        <ele>85.374</ele>
        <time>2022-08-27T12:39:00Z</time>
      </trkpt>
      <trkpt lat="43.472003" lon="-5.157798">
        <ele>85.282</ele>
        <time>2022-08-27T12:39:02Z</time>
      </trkpt>
      <trkpt lat="43.471955" lon="-5.157780">
        <ele>85.232</ele>
        <time>2022-08-27T12:39:03Z</time>
      </trkpt>
      <trkpt lat="43.471907" lon="-5.157758">
        <ele>85.278</ele>
        <time>2022-08-27T12:39:04Z</time>
      </trkpt>
      <trkpt lat="43.471812" lon="-5.157715">
        <ele>86.082</ele>
        <time>2022-08-27T12:39:06Z</time>
      </trkpt>
      <trkpt lat="43.471764" lon="-5.157682">
        <ele>86.319</ele>
        <time>2022-08-27T12:39:07Z</time>
      </trkpt>
      <trkpt lat="43.471677" lon="-5.157614">
        <ele>87.316</ele>
        <time>2022-08-27T12:39:09Z</time>
      </trkpt>
      <trkpt lat="43.471637" lon="-5.157576">
        <ele>87.315</ele>
        <time>2022-08-27T12:39:10Z</time>
      </trkpt>
      <trkpt lat="43.471574" lon="-5.157478">
        <ele>87.365</ele>
        <time>2022-08-27T12:39:12Z</time>
      </trkpt>
      <trkpt lat="43.471547" lon="-5.157418">
        <ele>87.111</ele>
        <time>2022-08-27T12:39:13Z</time>
      </trkpt>
      <trkpt lat="43.471504" lon="-5.157296">
        <ele>87.109</ele>
        <time>2022-08-27T12:39:15Z</time>
      </trkpt>
      <trkpt lat="43.471476" lon="-5.157166">
        <ele>87.842</ele>
        <time>2022-08-27T12:39:17Z</time>
      </trkpt>
      <trkpt lat="43.471474" lon="-5.157036">
        <ele>88.712</ele>
        <time>2022-08-27T12:39:19Z</time>
      </trkpt>
      <trkpt lat="43.471479" lon="-5.156973">
        <ele>89.063</ele>
        <time>2022-08-27T12:39:20Z</time>
      </trkpt>
      <trkpt lat="43.471501" lon="-5.156841">
        <ele>89.061</ele>
        <time>2022-08-27T12:39:22Z</time>
      </trkpt>
      <trkpt lat="43.471513" lon="-5.156778">
        <ele>88.881</ele>
        <time>2022-08-27T12:39:23Z</time>
      </trkpt>
      <trkpt lat="43.471545" lon="-5.156650">
        <ele>88.367</ele>
        <time>2022-08-27T12:39:25Z</time>
      </trkpt>
      <trkpt lat="43.471568" lon="-5.156525">
        <ele>88.241</ele>
        <time>2022-08-27T12:39:27Z</time>
      </trkpt>
      <trkpt lat="43.471591" lon="-5.156413">
        <ele>88.258</ele>
        <time>2022-08-27T12:39:29Z</time>
      </trkpt>
      <trkpt lat="43.471611" lon="-5.156318">
        <ele>88.215</ele>
        <time>2022-08-27T12:39:31Z</time>
      </trkpt>
      <trkpt lat="43.471631" lon="-5.156238">
        <ele>88.329</ele>
        <time>2022-08-27T12:39:33Z</time>
      </trkpt>
      <trkpt lat="43.471648" lon="-5.156166">
        <ele>88.500</ele>
        <time>2022-08-27T12:39:35Z</time>
      </trkpt>
      <trkpt lat="43.471661" lon="-5.156091">
        <ele>88.920</ele>
        <time>2022-08-27T12:39:37Z</time>
      </trkpt>
      <trkpt lat="43.471683" lon="-5.156006">
        <ele>89.509</ele>
        <time>2022-08-27T12:39:39Z</time>
      </trkpt>
      <trkpt lat="43.471703" lon="-5.155921">
        <ele>89.853</ele>
        <time>2022-08-27T12:39:41Z</time>
      </trkpt>
      <trkpt lat="43.471725" lon="-5.155843">
        <ele>90.553</ele>
        <time>2022-08-27T12:39:43Z</time>
      </trkpt>
      <trkpt lat="43.471755" lon="-5.155763">
        <ele>90.934</ele>
        <time>2022-08-27T12:39:45Z</time>
      </trkpt>
      <trkpt lat="43.471787" lon="-5.155681">
        <ele>91.352</ele>
        <time>2022-08-27T12:39:47Z</time>
      </trkpt>
      <trkpt lat="43.471819" lon="-5.155606">
        <ele>91.792</ele>
        <time>2022-08-27T12:39:49Z</time>
      </trkpt>
      <trkpt lat="43.471852" lon="-5.155529">
        <ele>92.168</ele>
        <time>2022-08-27T12:39:51Z</time>
      </trkpt>
      <trkpt lat="43.471885" lon="-5.155452">
        <ele>92.272</ele>
        <time>2022-08-27T12:39:53Z</time>
      </trkpt>
      <trkpt lat="43.471917" lon="-5.155377">
        <ele>92.579</ele>
        <time>2022-08-27T12:39:55Z</time>
      </trkpt>
      <trkpt lat="43.471949" lon="-5.155300">
        <ele>92.946</ele>
        <time>2022-08-27T12:39:57Z</time>
      </trkpt>
      <trkpt lat="43.471986" lon="-5.155217">
        <ele>93.235</ele>
        <time>2022-08-27T12:39:59Z</time>
      </trkpt>
      <trkpt lat="43.472024" lon="-5.155120">
        <ele>93.586</ele>
        <time>2022-08-27T12:40:01Z</time>
      </trkpt>
      <trkpt lat="43.472072" lon="-5.155035">
        <ele>93.814</ele>
        <time>2022-08-27T12:40:03Z</time>
      </trkpt>
      <trkpt lat="43.472137" lon="-5.154968">
        <ele>94.309</ele>
        <time>2022-08-27T12:40:05Z</time>
      </trkpt>
      <trkpt lat="43.472220" lon="-5.154920">
        <ele>94.524</ele>
        <time>2022-08-27T12:40:07Z</time>
      </trkpt>
      <trkpt lat="43.472297" lon="-5.154892">
        <ele>94.714</ele>
        <time>2022-08-27T12:40:09Z</time>
      </trkpt>
      <trkpt lat="43.472369" lon="-5.154884">
        <ele>94.655</ele>
        <time>2022-08-27T12:40:11Z</time>
      </trkpt>
      <trkpt lat="43.472439" lon="-5.154896">
        <ele>94.573</ele>
        <time>2022-08-27T12:40:13Z</time>
      </trkpt>
      <trkpt lat="43.472511" lon="-5.154904">
        <ele>94.013</ele>
        <time>2022-08-27T12:40:15Z</time>
      </trkpt>
      <trkpt lat="43.472578" lon="-5.154914">
        <ele>93.819</ele>
        <time>2022-08-27T12:40:17Z</time>
      </trkpt>
      <trkpt lat="43.472635" lon="-5.154927">
        <ele>93.893</ele>
        <time>2022-08-27T12:40:19Z</time>
      </trkpt>
      <trkpt lat="43.472700" lon="-5.154927">
        <ele>93.790</ele>
        <time>2022-08-27T12:40:21Z</time>
      </trkpt>
      <trkpt lat="43.472763" lon="-5.154922">
        <ele>93.567</ele>
        <time>2022-08-27T12:40:23Z</time>
      </trkpt>
      <trkpt lat="43.472825" lon="-5.154912">
        <ele>93.524</ele>
        <time>2022-08-27T12:40:25Z</time>
      </trkpt>
      <trkpt lat="43.472872" lon="-5.154927">
        <ele>93.504</ele>
        <time>2022-08-27T12:40:27Z</time>
      </trkpt>
      <trkpt lat="43.472924" lon="-5.154947">
        <ele>93.514</ele>
        <time>2022-08-27T12:40:29Z</time>
      </trkpt>
      <trkpt lat="43.472976" lon="-5.154965">
        <ele>93.409</ele>
        <time>2022-08-27T12:40:31Z</time>
      </trkpt>
      <trkpt lat="43.473038" lon="-5.155003">
        <ele>93.123</ele>
        <time>2022-08-27T12:40:33Z</time>
      </trkpt>
      <trkpt lat="43.473105" lon="-5.155055">
        <ele>93.013</ele>
        <time>2022-08-27T12:40:35Z</time>
      </trkpt>
      <trkpt lat="43.473165" lon="-5.155110">
        <ele>93.034</ele>
        <time>2022-08-27T12:40:37Z</time>
      </trkpt>
      <trkpt lat="43.473197" lon="-5.155155">
        <ele>93.112</ele>
        <time>2022-08-27T12:40:38Z</time>
      </trkpt>
      <trkpt lat="43.473237" lon="-5.155237">
        <ele>94.252</ele>
        <time>2022-08-27T12:40:40Z</time>
      </trkpt>
      <trkpt lat="43.473270" lon="-5.155327">
        <ele>95.528</ele>
        <time>2022-08-27T12:40:42Z</time>
      </trkpt>
      <trkpt lat="43.473287" lon="-5.155409">
        <ele>97.352</ele>
        <time>2022-08-27T12:40:44Z</time>
      </trkpt>
      <trkpt lat="43.473300" lon="-5.155481">
        <ele>99.199</ele>
        <time>2022-08-27T12:40:46Z</time>
      </trkpt>
      <trkpt lat="43.473313" lon="-5.155553">
        <ele>99.826</ele>
        <time>2022-08-27T12:40:48Z</time>
      </trkpt>
      <trkpt lat="43.473325" lon="-5.155630">
        <ele>100.325</ele>
        <time>2022-08-27T12:40:50Z</time>
      </trkpt>
      <trkpt lat="43.473345" lon="-5.155707">
        <ele>100.826</ele>
        <time>2022-08-27T12:40:52Z</time>
      </trkpt>
      <trkpt lat="43.473373" lon="-5.155772">
        <ele>101.008</ele>
        <time>2022-08-27T12:40:54Z</time>
      </trkpt>
      <trkpt lat="43.473400" lon="-5.155834">
        <ele>101.009</ele>
        <time>2022-08-27T12:40:56Z</time>
      </trkpt>
      <trkpt lat="43.473437" lon="-5.155884">
        <ele>100.823</ele>
        <time>2022-08-27T12:40:58Z</time>
      </trkpt>
      <trkpt lat="43.473479" lon="-5.155929">
        <ele>100.523</ele>
        <time>2022-08-27T12:41:00Z</time>
      </trkpt>
      <trkpt lat="43.473516" lon="-5.155967">
        <ele>100.644</ele>
        <time>2022-08-27T12:41:02Z</time>
      </trkpt>
      <trkpt lat="43.473558" lon="-5.156007">
        <ele>100.632</ele>
        <time>2022-08-27T12:41:04Z</time>
      </trkpt>
      <trkpt lat="43.473605" lon="-5.156034">
        <ele>100.642</ele>
        <time>2022-08-27T12:41:06Z</time>
      </trkpt>
      <trkpt lat="43.473653" lon="-5.156056">
        <ele>101.878</ele>
        <time>2022-08-27T12:41:08Z</time>
      </trkpt>
      <trkpt lat="43.473698" lon="-5.156074">
        <ele>103.082</ele>
        <time>2022-08-27T12:41:10Z</time>
      </trkpt>
      <trkpt lat="43.473743" lon="-5.156087">
        <ele>104.159</ele>
        <time>2022-08-27T12:41:12Z</time>
      </trkpt>
      <trkpt lat="43.473788" lon="-5.156080">
        <ele>105.596</ele>
        <time>2022-08-27T12:41:14Z</time>
      </trkpt>
      <trkpt lat="43.473835" lon="-5.156067">
        <ele>107.038</ele>
        <time>2022-08-27T12:41:16Z</time>
      </trkpt>
      <trkpt lat="43.473885" lon="-5.156039">
        <ele>108.570</ele>
        <time>2022-08-27T12:41:18Z</time>
      </trkpt>
      <trkpt lat="43.473935" lon="-5.155981">
        <ele>109.617</ele>
        <time>2022-08-27T12:41:20Z</time>
      </trkpt>
      <trkpt lat="43.473973" lon="-5.155916">
        <ele>109.609</ele>
        <time>2022-08-27T12:41:22Z</time>
      </trkpt>
      <trkpt lat="43.474000" lon="-5.155841">
        <ele>109.774</ele>
        <time>2022-08-27T12:41:24Z</time>
      </trkpt>
      <trkpt lat="43.474012" lon="-5.155759">
        <ele>109.264</ele>
        <time>2022-08-27T12:41:26Z</time>
      </trkpt>
      <trkpt lat="43.474014" lon="-5.155677">
        <ele>109.245</ele>
        <time>2022-08-27T12:41:28Z</time>
      </trkpt>
      <trkpt lat="43.474009" lon="-5.155594">
        <ele>109.283</ele>
        <time>2022-08-27T12:41:30Z</time>
      </trkpt>
      <trkpt lat="43.474006" lon="-5.155516">
        <ele>109.293</ele>
        <time>2022-08-27T12:41:32Z</time>
      </trkpt>
      <trkpt lat="43.474003" lon="-5.155439">
        <ele>109.129</ele>
        <time>2022-08-27T12:41:34Z</time>
      </trkpt>
      <trkpt lat="43.474003" lon="-5.155357">
        <ele>108.733</ele>
        <time>2022-08-27T12:41:36Z</time>
      </trkpt>
      <trkpt lat="43.473995" lon="-5.155277">
        <ele>108.690</ele>
        <time>2022-08-27T12:41:38Z</time>
      </trkpt>
      <trkpt lat="43.473988" lon="-5.155202">
        <ele>108.657</ele>
        <time>2022-08-27T12:41:40Z</time>
      </trkpt>
      <trkpt lat="43.473971" lon="-5.155125">
        <ele>109.036</ele>
        <time>2022-08-27T12:41:42Z</time>
      </trkpt>
      <trkpt lat="43.473953" lon="-5.155048">
        <ele>109.317</ele>
        <time>2022-08-27T12:41:44Z</time>
      </trkpt>
      <trkpt lat="43.473938" lon="-5.154973">
        <ele>109.318</ele>
        <time>2022-08-27T12:41:46Z</time>
      </trkpt>
      <trkpt lat="43.473913" lon="-5.154898">
        <ele>109.209</ele>
        <time>2022-08-27T12:41:48Z</time>
      </trkpt>
      <trkpt lat="43.473891" lon="-5.154823">
        <ele>108.594</ele>
        <time>2022-08-27T12:41:50Z</time>
      </trkpt>
      <trkpt lat="43.473863" lon="-5.154751">
        <ele>108.054</ele>
        <time>2022-08-27T12:41:52Z</time>
      </trkpt>
      <trkpt lat="43.473831" lon="-5.154684">
        <ele>108.015</ele>
        <time>2022-08-27T12:41:54Z</time>
      </trkpt>
      <trkpt lat="43.473798" lon="-5.154626">
        <ele>108.053</ele>
        <time>2022-08-27T12:41:56Z</time>
      </trkpt>
      <trkpt lat="43.473766" lon="-5.154569">
        <ele>108.443</ele>
        <time>2022-08-27T12:41:58Z</time>
      </trkpt>
      <trkpt lat="43.473729" lon="-5.154519">
        <ele>109.659</ele>
        <time>2022-08-27T12:42:00Z</time>
      </trkpt>
      <trkpt lat="43.473696" lon="-5.154467">
        <ele>110.553</ele>
        <time>2022-08-27T12:42:02Z</time>
      </trkpt>
      <trkpt lat="43.473656" lon="-5.154424">
        <ele>110.830</ele>
        <time>2022-08-27T12:42:04Z</time>
      </trkpt>
      <trkpt lat="43.473621" lon="-5.154382">
        <ele>111.187</ele>
        <time>2022-08-27T12:42:06Z</time>
      </trkpt>
      <trkpt lat="43.473571" lon="-5.154344">
        <ele>111.674</ele>
        <time>2022-08-27T12:42:08Z</time>
      </trkpt>
      <trkpt lat="43.473518" lon="-5.154307">
        <ele>111.956</ele>
        <time>2022-08-27T12:42:10Z</time>
      </trkpt>
      <trkpt lat="43.473476" lon="-5.154280">
        <ele>111.921</ele>
        <time>2022-08-27T12:42:12Z</time>
      </trkpt>
      <trkpt lat="43.473424" lon="-5.154242">
        <ele>111.909</ele>
        <time>2022-08-27T12:42:15Z</time>
      </trkpt>
      <trkpt lat="43.473376" lon="-5.154199">
        <ele>111.948</ele>
        <time>2022-08-27T12:42:18Z</time>
      </trkpt>
      <trkpt lat="43.473321" lon="-5.154152">
        <ele>111.898</ele>
        <time>2022-08-27T12:42:21Z</time>
      </trkpt>
      <trkpt lat="43.473278" lon="-5.154107">
        <ele>111.869</ele>
        <time>2022-08-27T12:42:24Z</time>
      </trkpt>
      <trkpt lat="43.473236" lon="-5.154050">
        <ele>112.047</ele>
        <time>2022-08-27T12:42:27Z</time>
      </trkpt>
      <trkpt lat="43.473191" lon="-5.153985">
        <ele>112.417</ele>
        <time>2022-08-27T12:42:30Z</time>
      </trkpt>
      <trkpt lat="43.473161" lon="-5.153927">
        <ele>113.393</ele>
        <time>2022-08-27T12:42:32Z</time>
      </trkpt>
      <trkpt lat="43.473139" lon="-5.153860">
        <ele>114.317</ele>
        <time>2022-08-27T12:42:34Z</time>
      </trkpt>
      <trkpt lat="43.473124" lon="-5.153792">
        <ele>114.444</ele>
        <time>2022-08-27T12:42:36Z</time>
      </trkpt>
      <trkpt lat="43.473117" lon="-5.153724">
        <ele>114.791</ele>
        <time>2022-08-27T12:42:38Z</time>
      </trkpt>
      <trkpt lat="43.473115" lon="-5.153659">
        <ele>115.081</ele>
        <time>2022-08-27T12:42:40Z</time>
      </trkpt>
      <trkpt lat="43.473118" lon="-5.153589">
        <ele>115.661</ele>
        <time>2022-08-27T12:42:42Z</time>
      </trkpt>
      <trkpt lat="43.473121" lon="-5.153522">
        <ele>117.117</ele>
        <time>2022-08-27T12:42:44Z</time>
      </trkpt>
      <trkpt lat="43.473133" lon="-5.153429">
        <ele>117.909</ele>
        <time>2022-08-27T12:42:47Z</time>
      </trkpt>
      <trkpt lat="43.473153" lon="-5.153342">
        <ele>118.549</ele>
        <time>2022-08-27T12:42:50Z</time>
      </trkpt>
      <trkpt lat="43.473186" lon="-5.153262">
        <ele>118.889</ele>
        <time>2022-08-27T12:42:53Z</time>
      </trkpt>
      <trkpt lat="43.473209" lon="-5.153204">
        <ele>119.270</ele>
        <time>2022-08-27T12:42:55Z</time>
      </trkpt>
      <trkpt lat="43.473232" lon="-5.153146">
        <ele>119.928</ele>
        <time>2022-08-27T12:42:57Z</time>
      </trkpt>
      <trkpt lat="43.473259" lon="-5.153088">
        <ele>120.378</ele>
        <time>2022-08-27T12:42:59Z</time>
      </trkpt>
      <trkpt lat="43.473284" lon="-5.153026">
        <ele>120.554</ele>
        <time>2022-08-27T12:43:01Z</time>
      </trkpt>
      <trkpt lat="43.473311" lon="-5.152966">
        <ele>120.578</ele>
        <time>2022-08-27T12:43:03Z</time>
      </trkpt>
      <trkpt lat="43.473338" lon="-5.152909">
        <ele>120.545</ele>
        <time>2022-08-27T12:43:05Z</time>
      </trkpt>
      <trkpt lat="43.473365" lon="-5.152846">
        <ele>120.512</ele>
        <time>2022-08-27T12:43:07Z</time>
      </trkpt>
      <trkpt lat="43.473397" lon="-5.152784">
        <ele>120.673</ele>
        <time>2022-08-27T12:43:09Z</time>
      </trkpt>
      <trkpt lat="43.473425" lon="-5.152719">
        <ele>120.685</ele>
        <time>2022-08-27T12:43:11Z</time>
      </trkpt>
      <trkpt lat="43.473452" lon="-5.152657">
        <ele>120.813</ele>
        <time>2022-08-27T12:43:13Z</time>
      </trkpt>
      <trkpt lat="43.473480" lon="-5.152599">
        <ele>121.009</ele>
        <time>2022-08-27T12:43:15Z</time>
      </trkpt>
      <trkpt lat="43.473507" lon="-5.152541">
        <ele>121.418</ele>
        <time>2022-08-27T12:43:17Z</time>
      </trkpt>
      <trkpt lat="43.473530" lon="-5.152481">
        <ele>122.168</ele>
        <time>2022-08-27T12:43:19Z</time>
      </trkpt>
      <trkpt lat="43.473545" lon="-5.152418">
        <ele>122.529</ele>
        <time>2022-08-27T12:43:21Z</time>
      </trkpt>
      <trkpt lat="43.473557" lon="-5.152351">
        <ele>123.177</ele>
        <time>2022-08-27T12:43:23Z</time>
      </trkpt>
      <trkpt lat="43.473569" lon="-5.152283">
        <ele>123.217</ele>
        <time>2022-08-27T12:43:25Z</time>
      </trkpt>
      <trkpt lat="43.473582" lon="-5.152215">
        <ele>123.513</ele>
        <time>2022-08-27T12:43:27Z</time>
      </trkpt>
      <trkpt lat="43.473590" lon="-5.152150">
        <ele>124.487</ele>
        <time>2022-08-27T12:43:29Z</time>
      </trkpt>
      <trkpt lat="43.473600" lon="-5.152078">
        <ele>125.184</ele>
        <time>2022-08-27T12:43:31Z</time>
      </trkpt>
      <trkpt lat="43.473612" lon="-5.152006">
        <ele>125.281</ele>
        <time>2022-08-27T12:43:33Z</time>
      </trkpt>
      <trkpt lat="43.473622" lon="-5.151936">
        <ele>125.287</ele>
        <time>2022-08-27T12:43:35Z</time>
      </trkpt>
      <trkpt lat="43.473637" lon="-5.151871">
        <ele>125.642</ele>
        <time>2022-08-27T12:43:37Z</time>
      </trkpt>
      <trkpt lat="43.473657" lon="-5.151814">
        <ele>126.526</ele>
        <time>2022-08-27T12:43:38Z</time>
      </trkpt>
      <trkpt lat="43.473682" lon="-5.151736">
        <ele>127.809</ele>
        <time>2022-08-27T12:43:41Z</time>
      </trkpt>
      <trkpt lat="43.473705" lon="-5.151661">
        <ele>128.059</ele>
        <time>2022-08-27T12:43:45Z</time>
      </trkpt>
      <trkpt lat="43.473742" lon="-5.151613">
        <ele>127.959</ele>
        <time>2022-08-27T12:43:47Z</time>
      </trkpt>
      <trkpt lat="43.473785" lon="-5.151573">
        <ele>127.960</ele>
        <time>2022-08-27T12:43:49Z</time>
      </trkpt>
      <trkpt lat="43.473827" lon="-5.151531">
        <ele>127.498</ele>
        <time>2022-08-27T12:43:51Z</time>
      </trkpt>
      <trkpt lat="43.473875" lon="-5.151498">
        <ele>127.228</ele>
        <time>2022-08-27T12:43:53Z</time>
      </trkpt>
      <trkpt lat="43.473928" lon="-5.151475">
        <ele>127.184</ele>
        <time>2022-08-27T12:43:55Z</time>
      </trkpt>
      <trkpt lat="43.473980" lon="-5.151443">
        <ele>127.138</ele>
        <time>2022-08-27T12:43:57Z</time>
      </trkpt>
      <trkpt lat="43.474033" lon="-5.151416">
        <ele>127.715</ele>
        <time>2022-08-27T12:43:59Z</time>
      </trkpt>
      <trkpt lat="43.474091" lon="-5.151388">
        <ele>128.092</ele>
        <time>2022-08-27T12:44:01Z</time>
      </trkpt>
      <trkpt lat="43.474148" lon="-5.151360">
        <ele>128.252</ele>
        <time>2022-08-27T12:44:03Z</time>
      </trkpt>
      <trkpt lat="43.474203" lon="-5.151335">
        <ele>128.253</ele>
        <time>2022-08-27T12:44:05Z</time>
      </trkpt>
      <trkpt lat="43.474253" lon="-5.151310">
        <ele>128.408</ele>
        <time>2022-08-27T12:44:07Z</time>
      </trkpt>
      <trkpt lat="43.474301" lon="-5.151282">
        <ele>128.409</ele>
        <time>2022-08-27T12:44:09Z</time>
      </trkpt>
      <trkpt lat="43.474351" lon="-5.151245">
        <ele>128.446</ele>
        <time>2022-08-27T12:44:11Z</time>
      </trkpt>
      <trkpt lat="43.474394" lon="-5.151203">
        <ele>128.566</ele>
        <time>2022-08-27T12:44:13Z</time>
      </trkpt>
      <trkpt lat="43.474431" lon="-5.151151">
        <ele>128.537</ele>
        <time>2022-08-27T12:44:15Z</time>
      </trkpt>
      <trkpt lat="43.474451" lon="-5.151089">
        <ele>128.565</ele>
        <time>2022-08-27T12:44:17Z</time>
      </trkpt>
      <trkpt lat="43.474468" lon="-5.151027">
        <ele>128.655</ele>
        <time>2022-08-27T12:44:19Z</time>
      </trkpt>
      <trkpt lat="43.474480" lon="-5.150959">
        <ele>128.671</ele>
        <time>2022-08-27T12:44:21Z</time>
      </trkpt>
      <trkpt lat="43.474485" lon="-5.150887">
        <ele>129.155</ele>
        <time>2022-08-27T12:44:23Z</time>
      </trkpt>
      <trkpt lat="43.474482" lon="-5.150814">
        <ele>129.842</ele>
        <time>2022-08-27T12:44:25Z</time>
      </trkpt>
      <trkpt lat="43.474479" lon="-5.150744">
        <ele>130.279</ele>
        <time>2022-08-27T12:44:27Z</time>
      </trkpt>
      <trkpt lat="43.474469" lon="-5.150681">
        <ele>130.336</ele>
        <time>2022-08-27T12:44:29Z</time>
      </trkpt>
      <trkpt lat="43.474454" lon="-5.150619">
        <ele>130.417</ele>
        <time>2022-08-27T12:44:31Z</time>
      </trkpt>
      <trkpt lat="43.474431" lon="-5.150559">
        <ele>130.518</ele>
        <time>2022-08-27T12:44:33Z</time>
      </trkpt>
      <trkpt lat="43.474404" lon="-5.150497">
        <ele>130.509</ele>
        <time>2022-08-27T12:44:35Z</time>
      </trkpt>
      <trkpt lat="43.474372" lon="-5.150437">
        <ele>130.824</ele>
        <time>2022-08-27T12:44:37Z</time>
      </trkpt>
      <trkpt lat="43.474330" lon="-5.150390">
        <ele>130.824</ele>
        <time>2022-08-27T12:44:39Z</time>
      </trkpt>
      <trkpt lat="43.474280" lon="-5.150350">
        <ele>130.855</ele>
        <time>2022-08-27T12:44:41Z</time>
      </trkpt>
      <trkpt lat="43.474225" lon="-5.150315">
        <ele>130.563</ele>
        <time>2022-08-27T12:44:43Z</time>
      </trkpt>
      <trkpt lat="43.474163" lon="-5.150283">
        <ele>130.413</ele>
        <time>2022-08-27T12:44:45Z</time>
      </trkpt>
      <trkpt lat="43.474108" lon="-5.150241">
        <ele>130.419</ele>
        <time>2022-08-27T12:44:47Z</time>
      </trkpt>
      <trkpt lat="43.474060" lon="-5.150193">
        <ele>130.573</ele>
        <time>2022-08-27T12:44:49Z</time>
      </trkpt>
      <trkpt lat="43.474015" lon="-5.150136">
        <ele>130.660</ele>
        <time>2022-08-27T12:44:51Z</time>
      </trkpt>
      <trkpt lat="43.473978" lon="-5.150068">
        <ele>130.627</ele>
        <time>2022-08-27T12:44:53Z</time>
      </trkpt>
      <trkpt lat="43.473943" lon="-5.149985">
        <ele>130.614</ele>
        <time>2022-08-27T12:44:55Z</time>
      </trkpt>
      <trkpt lat="43.473913" lon="-5.149895">
        <ele>130.554</ele>
        <time>2022-08-27T12:44:57Z</time>
      </trkpt>
      <trkpt lat="43.473881" lon="-5.149803">
        <ele>130.409</ele>
        <time>2022-08-27T12:44:59Z</time>
      </trkpt>
      <trkpt lat="43.473851" lon="-5.149705">
        <ele>130.409</ele>
        <time>2022-08-27T12:45:01Z</time>
      </trkpt>
      <trkpt lat="43.473829" lon="-5.149605">
        <ele>130.482</ele>
        <time>2022-08-27T12:45:03Z</time>
      </trkpt>
      <trkpt lat="43.473824" lon="-5.149512">
        <ele>130.662</ele>
        <time>2022-08-27T12:45:05Z</time>
      </trkpt>
      <trkpt lat="43.473834" lon="-5.149410">
        <ele>130.933</ele>
        <time>2022-08-27T12:45:07Z</time>
      </trkpt>
      <trkpt lat="43.473854" lon="-5.149307">
        <ele>131.041</ele>
        <time>2022-08-27T12:45:09Z</time>
      </trkpt>
      <trkpt lat="43.473894" lon="-5.149202">
        <ele>131.131</ele>
        <time>2022-08-27T12:45:11Z</time>
      </trkpt>
      <trkpt lat="43.473944" lon="-5.149107">
        <ele>131.787</ele>
        <time>2022-08-27T12:45:13Z</time>
      </trkpt>
      <trkpt lat="43.473991" lon="-5.149017">
        <ele>132.041</ele>
        <time>2022-08-27T12:45:15Z</time>
      </trkpt>
      <trkpt lat="43.474033" lon="-5.148927">
        <ele>132.018</ele>
        <time>2022-08-27T12:45:17Z</time>
      </trkpt>
      <trkpt lat="43.474071" lon="-5.148832">
        <ele>132.135</ele>
        <time>2022-08-27T12:45:19Z</time>
      </trkpt>
      <trkpt lat="43.474116" lon="-5.148740">
        <ele>132.363</ele>
        <time>2022-08-27T12:45:21Z</time>
      </trkpt>
      <trkpt lat="43.474158" lon="-5.148650">
        <ele>132.944</ele>
        <time>2022-08-27T12:45:23Z</time>
      </trkpt>
      <trkpt lat="43.474201" lon="-5.148553">
        <ele>133.318</ele>
        <time>2022-08-27T12:45:25Z</time>
      </trkpt>
      <trkpt lat="43.474238" lon="-5.148450">
        <ele>133.409</ele>
        <time>2022-08-27T12:45:27Z</time>
      </trkpt>
      <trkpt lat="43.474266" lon="-5.148337">
        <ele>133.757</ele>
        <time>2022-08-27T12:45:29Z</time>
      </trkpt>
      <trkpt lat="43.474281" lon="-5.148219">
        <ele>133.757</ele>
        <time>2022-08-27T12:45:31Z</time>
      </trkpt>
      <trkpt lat="43.474298" lon="-5.148101">
        <ele>133.828</ele>
        <time>2022-08-27T12:45:33Z</time>
      </trkpt>
      <trkpt lat="43.474313" lon="-5.147991">
        <ele>134.036</ele>
        <time>2022-08-27T12:45:35Z</time>
      </trkpt>
      <trkpt lat="43.474325" lon="-5.147883">
        <ele>134.756</ele>
        <time>2022-08-27T12:45:37Z</time>
      </trkpt>
      <trkpt lat="43.474333" lon="-5.147775">
        <ele>135.052</ele>
        <time>2022-08-27T12:45:39Z</time>
      </trkpt>
      <trkpt lat="43.474333" lon="-5.147672">
        <ele>135.146</ele>
        <time>2022-08-27T12:45:41Z</time>
      </trkpt>
      <trkpt lat="43.474325" lon="-5.147570">
        <ele>135.163</ele>
        <time>2022-08-27T12:45:43Z</time>
      </trkpt>
      <trkpt lat="43.474318" lon="-5.147467">
        <ele>135.170</ele>
        <time>2022-08-27T12:45:45Z</time>
      </trkpt>
      <trkpt lat="43.474310" lon="-5.147360">
        <ele>135.273</ele>
        <time>2022-08-27T12:45:47Z</time>
      </trkpt>
      <trkpt lat="43.474302" lon="-5.147257">
        <ele>135.385</ele>
        <time>2022-08-27T12:45:49Z</time>
      </trkpt>
      <trkpt lat="43.474295" lon="-5.147159">
        <ele>135.313</ele>
        <time>2022-08-27T12:45:51Z</time>
      </trkpt>
      <trkpt lat="43.474290" lon="-5.147052">
        <ele>135.409</ele>
        <time>2022-08-27T12:45:53Z</time>
      </trkpt>
      <trkpt lat="43.474285" lon="-5.146945">
        <ele>135.488</ele>
        <time>2022-08-27T12:45:55Z</time>
      </trkpt>
      <trkpt lat="43.474275" lon="-5.146837">
        <ele>135.428</ele>
        <time>2022-08-27T12:45:57Z</time>
      </trkpt>
      <trkpt lat="43.474257" lon="-5.146732">
        <ele>135.099</ele>
        <time>2022-08-27T12:45:59Z</time>
      </trkpt>
      <trkpt lat="43.474237" lon="-5.146629">
        <ele>134.417</ele>
        <time>2022-08-27T12:46:01Z</time>
      </trkpt>
      <trkpt lat="43.474214" lon="-5.146536">
        <ele>134.027</ele>
        <time>2022-08-27T12:46:03Z</time>
      </trkpt>
      <trkpt lat="43.474191" lon="-5.146439">
        <ele>133.893</ele>
        <time>2022-08-27T12:46:05Z</time>
      </trkpt>
      <trkpt lat="43.474173" lon="-5.146337">
        <ele>133.787</ele>
        <time>2022-08-27T12:46:07Z</time>
      </trkpt>
      <trkpt lat="43.474150" lon="-5.146232">
        <ele>133.794</ele>
        <time>2022-08-27T12:46:09Z</time>
      </trkpt>
      <trkpt lat="43.474125" lon="-5.146125">
        <ele>134.131</ele>
        <time>2022-08-27T12:46:11Z</time>
      </trkpt>
      <trkpt lat="43.474103" lon="-5.146015">
        <ele>134.146</ele>
        <time>2022-08-27T12:46:13Z</time>
      </trkpt>
      <trkpt lat="43.474080" lon="-5.145905">
        <ele>133.988</ele>
        <time>2022-08-27T12:46:15Z</time>
      </trkpt>
      <trkpt lat="43.474053" lon="-5.145793">
        <ele>133.716</ele>
        <time>2022-08-27T12:46:17Z</time>
      </trkpt>
      <trkpt lat="43.474026" lon="-5.145685">
        <ele>133.709</ele>
        <time>2022-08-27T12:46:19Z</time>
      </trkpt>
      <trkpt lat="43.473993" lon="-5.145580">
        <ele>133.775</ele>
        <time>2022-08-27T12:46:21Z</time>
      </trkpt>
      <trkpt lat="43.473965" lon="-5.145473">
        <ele>133.615</ele>
        <time>2022-08-27T12:46:23Z</time>
      </trkpt>
      <trkpt lat="43.473942" lon="-5.145358">
        <ele>133.316</ele>
        <time>2022-08-27T12:46:25Z</time>
      </trkpt>
      <trkpt lat="43.473910" lon="-5.145240">
        <ele>132.774</ele>
        <time>2022-08-27T12:46:27Z</time>
      </trkpt>
      <trkpt lat="43.473892" lon="-5.145180">
        <ele>132.434</ele>
        <time>2022-08-27T12:46:28Z</time>
      </trkpt>
      <trkpt lat="43.473849" lon="-5.145060">
        <ele>132.480</ele>
        <time>2022-08-27T12:46:30Z</time>
      </trkpt>
      <trkpt lat="43.473824" lon="-5.145002">
        <ele>132.464</ele>
        <time>2022-08-27T12:46:31Z</time>
      </trkpt>
      <trkpt lat="43.473764" lon="-5.144889">
        <ele>132.671</ele>
        <time>2022-08-27T12:46:33Z</time>
      </trkpt>
      <trkpt lat="43.473732" lon="-5.144834">
        <ele>132.698</ele>
        <time>2022-08-27T12:46:34Z</time>
      </trkpt>
      <trkpt lat="43.473699" lon="-5.144782">
        <ele>132.693</ele>
        <time>2022-08-27T12:46:35Z</time>
      </trkpt>
      <trkpt lat="43.473632" lon="-5.144682">
        <ele>132.665</ele>
        <time>2022-08-27T12:46:37Z</time>
      </trkpt>
      <trkpt lat="43.473600" lon="-5.144632">
        <ele>132.621</ele>
        <time>2022-08-27T12:46:38Z</time>
      </trkpt>
      <trkpt lat="43.473538" lon="-5.144525">
        <ele>132.709</ele>
        <time>2022-08-27T12:46:40Z</time>
      </trkpt>
      <trkpt lat="43.473508" lon="-5.144470">
        <ele>132.720</ele>
        <time>2022-08-27T12:46:41Z</time>
      </trkpt>
      <trkpt lat="43.473475" lon="-5.144418">
        <ele>132.740</ele>
        <time>2022-08-27T12:46:42Z</time>
      </trkpt>
      <trkpt lat="43.473410" lon="-5.144310">
        <ele>132.511</ele>
        <time>2022-08-27T12:46:44Z</time>
      </trkpt>
      <trkpt lat="43.473347" lon="-5.144195">
        <ele>132.299</ele>
        <time>2022-08-27T12:46:46Z</time>
      </trkpt>
      <trkpt lat="43.473277" lon="-5.144087">
        <ele>132.079</ele>
        <time>2022-08-27T12:46:48Z</time>
      </trkpt>
      <trkpt lat="43.473202" lon="-5.143985">
        <ele>131.865</ele>
        <time>2022-08-27T12:46:50Z</time>
      </trkpt>
      <trkpt lat="43.473137" lon="-5.143873">
        <ele>131.849</ele>
        <time>2022-08-27T12:46:52Z</time>
      </trkpt>
      <trkpt lat="43.473085" lon="-5.143756">
        <ele>132.156</ele>
        <time>2022-08-27T12:46:54Z</time>
      </trkpt>
      <trkpt lat="43.473065" lon="-5.143699">
        <ele>132.523</ele>
        <time>2022-08-27T12:46:55Z</time>
      </trkpt>
      <trkpt lat="43.473033" lon="-5.143574">
        <ele>133.325</ele>
        <time>2022-08-27T12:46:57Z</time>
      </trkpt>
      <trkpt lat="43.473025" lon="-5.143511">
        <ele>133.626</ele>
        <time>2022-08-27T12:46:58Z</time>
      </trkpt>
      <trkpt lat="43.473015" lon="-5.143444">
        <ele>134.008</ele>
        <time>2022-08-27T12:46:59Z</time>
      </trkpt>
      <trkpt lat="43.473000" lon="-5.143376">
        <ele>134.609</ele>
        <time>2022-08-27T12:47:00Z</time>
      </trkpt>
      <trkpt lat="43.472980" lon="-5.143309">
        <ele>135.293</ele>
        <time>2022-08-27T12:47:01Z</time>
      </trkpt>
      <trkpt lat="43.472965" lon="-5.143241">
        <ele>135.613</ele>
        <time>2022-08-27T12:47:02Z</time>
      </trkpt>
      <trkpt lat="43.472933" lon="-5.143109">
        <ele>135.614</ele>
        <time>2022-08-27T12:47:04Z</time>
      </trkpt>
      <trkpt lat="43.472915" lon="-5.143046">
        <ele>135.542</ele>
        <time>2022-08-27T12:47:05Z</time>
      </trkpt>
      <trkpt lat="43.472895" lon="-5.142988">
        <ele>135.262</ele>
        <time>2022-08-27T12:47:06Z</time>
      </trkpt>
      <trkpt lat="43.472845" lon="-5.142893">
        <ele>134.818</ele>
        <time>2022-08-27T12:47:08Z</time>
      </trkpt>
      <trkpt lat="43.472767" lon="-5.142823">
        <ele>134.522</ele>
        <time>2022-08-27T12:47:10Z</time>
      </trkpt>
      <trkpt lat="43.472672" lon="-5.142785">
        <ele>134.079</ele>
        <time>2022-08-27T12:47:12Z</time>
      </trkpt>
      <trkpt lat="43.472589" lon="-5.142753">
        <ele>133.236</ele>
        <time>2022-08-27T12:47:14Z</time>
      </trkpt>
      <trkpt lat="43.472522" lon="-5.142705">
        <ele>132.859</ele>
        <time>2022-08-27T12:47:16Z</time>
      </trkpt>
      <trkpt lat="43.472467" lon="-5.142612">
        <ele>132.803</ele>
        <time>2022-08-27T12:47:18Z</time>
      </trkpt>
      <trkpt lat="43.472442" lon="-5.142559">
        <ele>132.823</ele>
        <time>2022-08-27T12:47:19Z</time>
      </trkpt>
      <trkpt lat="43.472415" lon="-5.142446">
        <ele>133.109</ele>
        <time>2022-08-27T12:47:21Z</time>
      </trkpt>
      <trkpt lat="43.472428" lon="-5.142319">
        <ele>133.436</ele>
        <time>2022-08-27T12:47:23Z</time>
      </trkpt>
      <trkpt lat="43.472440" lon="-5.142256">
        <ele>133.726</ele>
        <time>2022-08-27T12:47:24Z</time>
      </trkpt>
      <trkpt lat="43.472463" lon="-5.142128">
        <ele>134.127</ele>
        <time>2022-08-27T12:47:26Z</time>
      </trkpt>
      <trkpt lat="43.472491" lon="-5.142000">
        <ele>134.665</ele>
        <time>2022-08-27T12:47:28Z</time>
      </trkpt>
      <trkpt lat="43.472513" lon="-5.141875">
        <ele>134.835</ele>
        <time>2022-08-27T12:47:30Z</time>
      </trkpt>
      <trkpt lat="43.472535" lon="-5.141747">
        <ele>134.951</ele>
        <time>2022-08-27T12:47:32Z</time>
      </trkpt>
      <trkpt lat="43.472555" lon="-5.141624">
        <ele>135.895</ele>
        <time>2022-08-27T12:47:34Z</time>
      </trkpt>
      <trkpt lat="43.472577" lon="-5.141501">
        <ele>135.862</ele>
        <time>2022-08-27T12:47:36Z</time>
      </trkpt>
      <trkpt lat="43.472587" lon="-5.141436">
        <ele>135.879</ele>
        <time>2022-08-27T12:47:37Z</time>
      </trkpt>
      <trkpt lat="43.472597" lon="-5.141373">
        <ele>135.443</ele>
        <time>2022-08-27T12:47:38Z</time>
      </trkpt>
      <trkpt lat="43.472610" lon="-5.141246">
        <ele>134.764</ele>
        <time>2022-08-27T12:47:40Z</time>
      </trkpt>
      <trkpt lat="43.472617" lon="-5.141184">
        <ele>134.310</ele>
        <time>2022-08-27T12:47:41Z</time>
      </trkpt>
      <trkpt lat="43.472634" lon="-5.141066">
        <ele>133.909</ele>
        <time>2022-08-27T12:47:43Z</time>
      </trkpt>
      <trkpt lat="43.472654" lon="-5.140948">
        <ele>133.715</ele>
        <time>2022-08-27T12:47:45Z</time>
      </trkpt>
      <trkpt lat="43.472669" lon="-5.140831">
        <ele>133.875</ele>
        <time>2022-08-27T12:47:47Z</time>
      </trkpt>
      <trkpt lat="43.472679" lon="-5.140709">
        <ele>134.036</ele>
        <time>2022-08-27T12:47:49Z</time>
      </trkpt>
      <trkpt lat="43.472687" lon="-5.140589">
        <ele>135.124</ele>
        <time>2022-08-27T12:47:51Z</time>
      </trkpt>
      <trkpt lat="43.472699" lon="-5.140466">
        <ele>136.074</ele>
        <time>2022-08-27T12:47:53Z</time>
      </trkpt>
      <trkpt lat="43.472706" lon="-5.140404">
        <ele>136.340</ele>
        <time>2022-08-27T12:47:54Z</time>
      </trkpt>
      <trkpt lat="43.472711" lon="-5.140342">
        <ele>136.774</ele>
        <time>2022-08-27T12:47:55Z</time>
      </trkpt>
      <trkpt lat="43.472719" lon="-5.140217">
        <ele>137.141</ele>
        <time>2022-08-27T12:47:57Z</time>
      </trkpt>
      <trkpt lat="43.472717" lon="-5.140094">
        <ele>137.678</ele>
        <time>2022-08-27T12:47:59Z</time>
      </trkpt>
      <trkpt lat="43.472710" lon="-5.139969">
        <ele>137.856</ele>
        <time>2022-08-27T12:48:01Z</time>
      </trkpt>
      <trkpt lat="43.472705" lon="-5.139906">
        <ele>137.859</ele>
        <time>2022-08-27T12:48:02Z</time>
      </trkpt>
      <trkpt lat="43.472688" lon="-5.139781">
        <ele>138.114</ele>
        <time>2022-08-27T12:48:04Z</time>
      </trkpt>
      <trkpt lat="43.472676" lon="-5.139663">
        <ele>138.809</ele>
        <time>2022-08-27T12:48:06Z</time>
      </trkpt>
      <trkpt lat="43.472676" lon="-5.139600">
        <ele>139.126</ele>
        <time>2022-08-27T12:48:07Z</time>
      </trkpt>
      <trkpt lat="43.472666" lon="-5.139475">
        <ele>139.556</ele>
        <time>2022-08-27T12:48:09Z</time>
      </trkpt>
      <trkpt lat="43.472656" lon="-5.139352">
        <ele>139.647</ele>
        <time>2022-08-27T12:48:11Z</time>
      </trkpt>
      <trkpt lat="43.472649" lon="-5.139289">
        <ele>139.685</ele>
        <time>2022-08-27T12:48:12Z</time>
      </trkpt>
      <trkpt lat="43.472636" lon="-5.139164">
        <ele>139.595</ele>
        <time>2022-08-27T12:48:14Z</time>
      </trkpt>
      <trkpt lat="43.472634" lon="-5.139032">
        <ele>139.661</ele>
        <time>2022-08-27T12:48:16Z</time>
      </trkpt>
      <trkpt lat="43.472631" lon="-5.138965">
        <ele>139.675</ele>
        <time>2022-08-27T12:48:17Z</time>
      </trkpt>
      <trkpt lat="43.472628" lon="-5.138900">
        <ele>139.812</ele>
        <time>2022-08-27T12:48:18Z</time>
      </trkpt>
      <trkpt lat="43.472623" lon="-5.138768">
        <ele>140.359</ele>
        <time>2022-08-27T12:48:20Z</time>
      </trkpt>
      <trkpt lat="43.472625" lon="-5.138631">
        <ele>141.149</ele>
        <time>2022-08-27T12:48:22Z</time>
      </trkpt>
      <trkpt lat="43.472642" lon="-5.138486">
        <ele>141.502</ele>
        <time>2022-08-27T12:48:24Z</time>
      </trkpt>
      <trkpt lat="43.472650" lon="-5.138406">
        <ele>142.022</ele>
        <time>2022-08-27T12:48:25Z</time>
      </trkpt>
      <trkpt lat="43.472658" lon="-5.138328">
        <ele>142.309</ele>
        <time>2022-08-27T12:48:26Z</time>
      </trkpt>
      <trkpt lat="43.472681" lon="-5.138183">
        <ele>143.775</ele>
        <time>2022-08-27T12:48:28Z</time>
      </trkpt>
      <trkpt lat="43.472704" lon="-5.138048">
        <ele>144.225</ele>
        <time>2022-08-27T12:48:30Z</time>
      </trkpt>
      <trkpt lat="43.472714" lon="-5.137978">
        <ele>144.166</ele>
        <time>2022-08-27T12:48:31Z</time>
      </trkpt>
      <trkpt lat="43.472744" lon="-5.137843">
        <ele>143.964</ele>
        <time>2022-08-27T12:48:33Z</time>
      </trkpt>
      <trkpt lat="43.472767" lon="-5.137713">
        <ele>142.424</ele>
        <time>2022-08-27T12:48:35Z</time>
      </trkpt>
      <trkpt lat="43.472790" lon="-5.137593">
        <ele>140.780</ele>
        <time>2022-08-27T12:48:37Z</time>
      </trkpt>
      <trkpt lat="43.472800" lon="-5.137478">
        <ele>139.524</ele>
        <time>2022-08-27T12:48:39Z</time>
      </trkpt>
      <trkpt lat="43.472813" lon="-5.137366">
        <ele>138.661</ele>
        <time>2022-08-27T12:48:41Z</time>
      </trkpt>
      <trkpt lat="43.472825" lon="-5.137253">
        <ele>137.818</ele>
        <time>2022-08-27T12:48:43Z</time>
      </trkpt>
      <trkpt lat="43.472842" lon="-5.137131">
        <ele>137.668</ele>
        <time>2022-08-27T12:48:45Z</time>
      </trkpt>
      <trkpt lat="43.472855" lon="-5.136998">
        <ele>137.042</ele>
        <time>2022-08-27T12:48:47Z</time>
      </trkpt>
      <trkpt lat="43.472860" lon="-5.136935">
        <ele>135.826</ele>
        <time>2022-08-27T12:48:48Z</time>
      </trkpt>
      <trkpt lat="43.472862" lon="-5.136823">
        <ele>134.909</ele>
        <time>2022-08-27T12:48:50Z</time>
      </trkpt>
      <trkpt lat="43.472860" lon="-5.136718">
        <ele>134.297</ele>
        <time>2022-08-27T12:48:52Z</time>
      </trkpt>
      <trkpt lat="43.472855" lon="-5.136611">
        <ele>133.957</ele>
        <time>2022-08-27T12:48:54Z</time>
      </trkpt>
      <trkpt lat="43.472857" lon="-5.136503">
        <ele>133.728</ele>
        <time>2022-08-27T12:48:56Z</time>
      </trkpt>
      <trkpt lat="43.472862" lon="-5.136365">
        <ele>133.776</ele>
        <time>2022-08-27T12:48:58Z</time>
      </trkpt>
      <trkpt lat="43.472864" lon="-5.136298">
        <ele>133.766</ele>
        <time>2022-08-27T12:48:59Z</time>
      </trkpt>
      <trkpt lat="43.472866" lon="-5.136176">
        <ele>134.252</ele>
        <time>2022-08-27T12:49:01Z</time>
      </trkpt>
      <trkpt lat="43.472856" lon="-5.136066">
        <ele>135.066</ele>
        <time>2022-08-27T12:49:03Z</time>
      </trkpt>
      <trkpt lat="43.472844" lon="-5.135951">
        <ele>135.383</ele>
        <time>2022-08-27T12:49:05Z</time>
      </trkpt>
      <trkpt lat="43.472829" lon="-5.135849">
        <ele>135.430</ele>
        <time>2022-08-27T12:49:07Z</time>
      </trkpt>
      <trkpt lat="43.472822" lon="-5.135731">
        <ele>135.627</ele>
        <time>2022-08-27T12:49:09Z</time>
      </trkpt>
      <trkpt lat="43.472817" lon="-5.135663">
        <ele>135.668</ele>
        <time>2022-08-27T12:49:10Z</time>
      </trkpt>
      <trkpt lat="43.472802" lon="-5.135543">
        <ele>135.814</ele>
        <time>2022-08-27T12:49:12Z</time>
      </trkpt>
      <trkpt lat="43.472787" lon="-5.135443">
        <ele>135.809</ele>
        <time>2022-08-27T12:49:14Z</time>
      </trkpt>
      <trkpt lat="43.472767" lon="-5.135330">
        <ele>135.973</ele>
        <time>2022-08-27T12:49:16Z</time>
      </trkpt>
      <trkpt lat="43.472760" lon="-5.135268">
        <ele>136.093</ele>
        <time>2022-08-27T12:49:17Z</time>
      </trkpt>
      <trkpt lat="43.472753" lon="-5.135203">
        <ele>136.134</ele>
        <time>2022-08-27T12:49:18Z</time>
      </trkpt>
      <trkpt lat="43.472745" lon="-5.135140">
        <ele>136.142</ele>
        <time>2022-08-27T12:49:19Z</time>
      </trkpt>
      <trkpt lat="43.472722" lon="-5.135022">
        <ele>137.052</ele>
        <time>2022-08-27T12:49:21Z</time>
      </trkpt>
      <trkpt lat="43.472695" lon="-5.134925">
        <ele>137.288</ele>
        <time>2022-08-27T12:49:23Z</time>
      </trkpt>
      <trkpt lat="43.472677" lon="-5.134830">
        <ele>137.332</ele>
        <time>2022-08-27T12:49:25Z</time>
      </trkpt>
      <trkpt lat="43.472665" lon="-5.134728">
        <ele>137.839</ele>
        <time>2022-08-27T12:49:27Z</time>
      </trkpt>
      <trkpt lat="43.472640" lon="-5.134610">
        <ele>138.056</ele>
        <time>2022-08-27T12:49:29Z</time>
      </trkpt>
      <trkpt lat="43.472603" lon="-5.134497">
        <ele>138.656</ele>
        <time>2022-08-27T12:49:31Z</time>
      </trkpt>
      <trkpt lat="43.472561" lon="-5.134402">
        <ele>138.659</ele>
        <time>2022-08-27T12:49:33Z</time>
      </trkpt>
      <trkpt lat="43.472518" lon="-5.134310">
        <ele>138.214</ele>
        <time>2022-08-27T12:49:35Z</time>
      </trkpt>
      <trkpt lat="43.472466" lon="-5.134232">
        <ele>136.909</ele>
        <time>2022-08-27T12:49:37Z</time>
      </trkpt>
      <trkpt lat="43.472391" lon="-5.134182">
        <ele>136.396</ele>
        <time>2022-08-27T12:49:39Z</time>
      </trkpt>
      <trkpt lat="43.472314" lon="-5.134139">
        <ele>135.966</ele>
        <time>2022-08-27T12:49:41Z</time>
      </trkpt>
      <trkpt lat="43.472231" lon="-5.134107">
        <ele>135.757</ele>
        <time>2022-08-27T12:49:43Z</time>
      </trkpt>
      <trkpt lat="43.472186" lon="-5.134099">
        <ele>135.145</ele>
        <time>2022-08-27T12:49:44Z</time>
      </trkpt>
      <trkpt lat="43.472096" lon="-5.134077">
        <ele>135.115</ele>
        <time>2022-08-27T12:49:46Z</time>
      </trkpt>
      <trkpt lat="43.472049" lon="-5.134069">
        <ele>135.171</ele>
        <time>2022-08-27T12:49:47Z</time>
      </trkpt>
      <trkpt lat="43.471954" lon="-5.134047">
        <ele>135.125</ele>
        <time>2022-08-27T12:49:49Z</time>
      </trkpt>
      <trkpt lat="43.471904" lon="-5.134037">
        <ele>135.172</ele>
        <time>2022-08-27T12:49:50Z</time>
      </trkpt>
      <trkpt lat="43.471856" lon="-5.134035">
        <ele>135.129</ele>
        <time>2022-08-27T12:49:51Z</time>
      </trkpt>
      <trkpt lat="43.471758" lon="-5.134062">
        <ele>135.135</ele>
        <time>2022-08-27T12:49:53Z</time>
      </trkpt>
      <trkpt lat="43.471668" lon="-5.134090">
        <ele>135.186</ele>
        <time>2022-08-27T12:49:55Z</time>
      </trkpt>
      <trkpt lat="43.471611" lon="-5.134100">
        <ele>135.214</ele>
        <time>2022-08-27T12:49:56Z</time>
      </trkpt>
      <trkpt lat="43.471549" lon="-5.134103">
        <ele>135.209</ele>
        <time>2022-08-27T12:49:57Z</time>
      </trkpt>
      <trkpt lat="43.471422" lon="-5.134085">
        <ele>135.094</ele>
        <time>2022-08-27T12:49:59Z</time>
      </trkpt>
      <trkpt lat="43.471284" lon="-5.134053">
        <ele>135.024</ele>
        <time>2022-08-27T12:50:01Z</time>
      </trkpt>
      <trkpt lat="43.471129" lon="-5.134053">
        <ele>133.365</ele>
        <time>2022-08-27T12:50:03Z</time>
      </trkpt>
      <trkpt lat="43.470961" lon="-5.134068">
        <ele>131.353</ele>
        <time>2022-08-27T12:50:05Z</time>
      </trkpt>
      <trkpt lat="43.470876" lon="-5.134071">
        <ele>130.323</ele>
        <time>2022-08-27T12:50:06Z</time>
      </trkpt>
      <trkpt lat="43.470791" lon="-5.134073">
        <ele>129.789</ele>
        <time>2022-08-27T12:50:07Z</time>
      </trkpt>
      <trkpt lat="43.470616" lon="-5.134071">
        <ele>128.293</ele>
        <time>2022-08-27T12:50:09Z</time>
      </trkpt>
      <trkpt lat="43.470449" lon="-5.133958">
        <ele>126.750</ele>
        <time>2022-08-27T12:50:11Z</time>
      </trkpt>
      <trkpt lat="43.470392" lon="-5.133871">
        <ele>125.887</ele>
        <time>2022-08-27T12:50:12Z</time>
      </trkpt>
      <trkpt lat="43.470349" lon="-5.133756">
        <ele>125.062</ele>
        <time>2022-08-27T12:50:13Z</time>
      </trkpt>
      <trkpt lat="43.470299" lon="-5.133539">
        <ele>124.083</ele>
        <time>2022-08-27T12:50:15Z</time>
      </trkpt>
      <trkpt lat="43.470281" lon="-5.133436">
        <ele>122.411</ele>
        <time>2022-08-27T12:50:16Z</time>
      </trkpt>
      <trkpt lat="43.470208" lon="-5.133233">
        <ele>118.109</ele>
        <time>2022-08-27T12:50:18Z</time>
      </trkpt>
      <trkpt lat="43.470071" lon="-5.133098">
        <ele>115.447</ele>
        <time>2022-08-27T12:50:20Z</time>
      </trkpt>
      <trkpt lat="43.469989" lon="-5.133073">
        <ele>114.277</ele>
        <time>2022-08-27T12:50:21Z</time>
      </trkpt>
      <trkpt lat="43.469899" lon="-5.133076">
        <ele>113.368</ele>
        <time>2022-08-27T12:50:22Z</time>
      </trkpt>
      <trkpt lat="43.469716" lon="-5.133136">
        <ele>112.026</ele>
        <time>2022-08-27T12:50:24Z</time>
      </trkpt>
      <trkpt lat="43.469628" lon="-5.133176">
        <ele>111.036</ele>
        <time>2022-08-27T12:50:25Z</time>
      </trkpt>
      <trkpt lat="43.469538" lon="-5.133213">
        <ele>110.782</ele>
        <time>2022-08-27T12:50:26Z</time>
      </trkpt>
      <trkpt lat="43.469445" lon="-5.133250">
        <ele>110.496</ele>
        <time>2022-08-27T12:50:27Z</time>
      </trkpt>
      <trkpt lat="43.469275" lon="-5.133378">
        <ele>108.613</ele>
        <time>2022-08-27T12:50:29Z</time>
      </trkpt>
      <trkpt lat="43.469210" lon="-5.133480">
        <ele>107.970</ele>
        <time>2022-08-27T12:50:30Z</time>
      </trkpt>
      <trkpt lat="43.469115" lon="-5.133730">
        <ele>106.187</ele>
        <time>2022-08-27T12:50:32Z</time>
      </trkpt>
      <trkpt lat="43.469068" lon="-5.133865">
        <ele>105.242</ele>
        <time>2022-08-27T12:50:33Z</time>
      </trkpt>
      <trkpt lat="43.468970" lon="-5.134133">
        <ele>103.726</ele>
        <time>2022-08-27T12:50:35Z</time>
      </trkpt>
      <trkpt lat="43.468920" lon="-5.134266">
        <ele>103.109</ele>
        <time>2022-08-27T12:50:36Z</time>
      </trkpt>
      <trkpt lat="43.468828" lon="-5.134518">
        <ele>101.379</ele>
        <time>2022-08-27T12:50:38Z</time>
      </trkpt>
      <trkpt lat="43.468746" lon="-5.134743">
        <ele>99.459</ele>
        <time>2022-08-27T12:50:40Z</time>
      </trkpt>
      <trkpt lat="43.468694" lon="-5.134840">
        <ele>98.220</ele>
        <time>2022-08-27T12:50:41Z</time>
      </trkpt>
      <trkpt lat="43.468551" lon="-5.134977">
        <ele>97.228</ele>
        <time>2022-08-27T12:50:43Z</time>
      </trkpt>
      <trkpt lat="43.468376" lon="-5.134982">
        <ele>95.748</ele>
        <time>2022-08-27T12:50:45Z</time>
      </trkpt>
      <trkpt lat="43.468296" lon="-5.134929">
        <ele>94.794</ele>
        <time>2022-08-27T12:50:46Z</time>
      </trkpt>
      <trkpt lat="43.468231" lon="-5.134847">
        <ele>93.958</ele>
        <time>2022-08-27T12:50:47Z</time>
      </trkpt>
      <trkpt lat="43.468159" lon="-5.134642">
        <ele>92.095</ele>
        <time>2022-08-27T12:50:49Z</time>
      </trkpt>
      <trkpt lat="43.468157" lon="-5.134524">
        <ele>91.382</ele>
        <time>2022-08-27T12:50:50Z</time>
      </trkpt>
      <trkpt lat="43.468190" lon="-5.134286">
        <ele>90.425</ele>
        <time>2022-08-27T12:50:52Z</time>
      </trkpt>
      <trkpt lat="43.468217" lon="-5.134051">
        <ele>89.926</ele>
        <time>2022-08-27T12:50:54Z</time>
      </trkpt>
      <trkpt lat="43.468205" lon="-5.133944">
        <ele>89.908</ele>
        <time>2022-08-27T12:50:55Z</time>
      </trkpt>
      <trkpt lat="43.468083" lon="-5.133831">
        <ele>91.309</ele>
        <time>2022-08-27T12:50:57Z</time>
      </trkpt>
      <trkpt lat="43.468001" lon="-5.133819">
        <ele>91.363</ele>
        <time>2022-08-27T12:50:58Z</time>
      </trkpt>
      <trkpt lat="43.467833" lon="-5.133814">
        <ele>91.313</ele>
        <time>2022-08-27T12:51:00Z</time>
      </trkpt>
      <trkpt lat="43.467690" lon="-5.133699">
        <ele>91.394</ele>
        <time>2022-08-27T12:51:02Z</time>
      </trkpt>
      <trkpt lat="43.467633" lon="-5.133499">
        <ele>91.242</ele>
        <time>2022-08-27T12:51:04Z</time>
      </trkpt>
      <trkpt lat="43.467663" lon="-5.133279">
        <ele>90.842</ele>
        <time>2022-08-27T12:51:06Z</time>
      </trkpt>
      <trkpt lat="43.467701" lon="-5.133044">
        <ele>89.138</ele>
        <time>2022-08-27T12:51:08Z</time>
      </trkpt>
      <trkpt lat="43.467719" lon="-5.132801">
        <ele>87.562</ele>
        <time>2022-08-27T12:51:10Z</time>
      </trkpt>
      <trkpt lat="43.467712" lon="-5.132679">
        <ele>86.899</ele>
        <time>2022-08-27T12:51:11Z</time>
      </trkpt>
      <trkpt lat="43.467662" lon="-5.132431">
        <ele>84.496</ele>
        <time>2022-08-27T12:51:13Z</time>
      </trkpt>
      <trkpt lat="43.467609" lon="-5.132179">
        <ele>82.536</ele>
        <time>2022-08-27T12:51:15Z</time>
      </trkpt>
      <trkpt lat="43.467581" lon="-5.132054">
        <ele>81.517</ele>
        <time>2022-08-27T12:51:16Z</time>
      </trkpt>
      <trkpt lat="43.467526" lon="-5.131794">
        <ele>79.818</ele>
        <time>2022-08-27T12:51:18Z</time>
      </trkpt>
      <trkpt lat="43.467463" lon="-5.131529">
        <ele>77.909</ele>
        <time>2022-08-27T12:51:20Z</time>
      </trkpt>
      <trkpt lat="43.467375" lon="-5.131272">
        <ele>76.764</ele>
        <time>2022-08-27T12:51:22Z</time>
      </trkpt>
      <trkpt lat="43.467327" lon="-5.131145">
        <ele>76.414</ele>
        <time>2022-08-27T12:51:23Z</time>
      </trkpt>
      <trkpt lat="43.467227" lon="-5.130900">
        <ele>75.435</ele>
        <time>2022-08-27T12:51:25Z</time>
      </trkpt>
      <trkpt lat="43.467177" lon="-5.130780">
        <ele>75.173</ele>
        <time>2022-08-27T12:51:26Z</time>
      </trkpt>
      <trkpt lat="43.467074" lon="-5.130550">
        <ele>74.393</ele>
        <time>2022-08-27T12:51:28Z</time>
      </trkpt>
      <trkpt lat="43.466957" lon="-5.130347">
        <ele>74.169</ele>
        <time>2022-08-27T12:51:30Z</time>
      </trkpt>
      <trkpt lat="43.466894" lon="-5.130259">
        <ele>74.143</ele>
        <time>2022-08-27T12:51:31Z</time>
      </trkpt>
      <trkpt lat="43.466769" lon="-5.130106">
        <ele>74.310</ele>
        <time>2022-08-27T12:51:33Z</time>
      </trkpt>
      <trkpt lat="43.466647" lon="-5.129981">
        <ele>74.347</ele>
        <time>2022-08-27T12:51:35Z</time>
      </trkpt>
      <trkpt lat="43.466540" lon="-5.129864">
        <ele>74.776</ele>
        <time>2022-08-27T12:51:37Z</time>
      </trkpt>
      <trkpt lat="43.466448" lon="-5.129751">
        <ele>75.090</ele>
        <time>2022-08-27T12:51:39Z</time>
      </trkpt>
      <trkpt lat="43.466405" lon="-5.129704">
        <ele>75.019</ele>
        <time>2022-08-27T12:51:40Z</time>
      </trkpt>
      <trkpt lat="43.466318" lon="-5.129619">
        <ele>75.109</ele>
        <time>2022-08-27T12:51:42Z</time>
      </trkpt>
      <trkpt lat="43.466231" lon="-5.129542">
        <ele>75.088</ele>
        <time>2022-08-27T12:51:44Z</time>
      </trkpt>
      <trkpt lat="43.466186" lon="-5.129502">
        <ele>75.098</ele>
        <time>2022-08-27T12:51:45Z</time>
      </trkpt>
      <trkpt lat="43.466101" lon="-5.129417">
        <ele>75.079</ele>
        <time>2022-08-27T12:51:47Z</time>
      </trkpt>
      <trkpt lat="43.466061" lon="-5.129374">
        <ele>75.067</ele>
        <time>2022-08-27T12:51:48Z</time>
      </trkpt>
      <trkpt lat="43.466019" lon="-5.129336">
        <ele>75.067</ele>
        <time>2022-08-27T12:51:49Z</time>
      </trkpt>
      <trkpt lat="43.465939" lon="-5.129259">
        <ele>75.033</ele>
        <time>2022-08-27T12:51:51Z</time>
      </trkpt>
      <trkpt lat="43.465864" lon="-5.129179">
        <ele>75.057</ele>
        <time>2022-08-27T12:51:53Z</time>
      </trkpt>
      <trkpt lat="43.465792" lon="-5.129101">
        <ele>75.384</ele>
        <time>2022-08-27T12:51:55Z</time>
      </trkpt>
      <trkpt lat="43.465719" lon="-5.129023">
        <ele>76.031</ele>
        <time>2022-08-27T12:51:57Z</time>
      </trkpt>
      <trkpt lat="43.465684" lon="-5.128981">
        <ele>76.379</ele>
        <time>2022-08-27T12:51:58Z</time>
      </trkpt>
      <trkpt lat="43.465619" lon="-5.128896">
        <ele>76.605</ele>
        <time>2022-08-27T12:52:00Z</time>
      </trkpt>
      <trkpt lat="43.465564" lon="-5.128809">
        <ele>76.625</ele>
        <time>2022-08-27T12:52:02Z</time>
      </trkpt>
      <trkpt lat="43.465509" lon="-5.128714">
        <ele>76.609</ele>
        <time>2022-08-27T12:52:04Z</time>
      </trkpt>
      <trkpt lat="43.465449" lon="-5.128626">
        <ele>76.288</ele>
        <time>2022-08-27T12:52:06Z</time>
      </trkpt>
      <trkpt lat="43.465389" lon="-5.128541">
        <ele>76.258</ele>
        <time>2022-08-27T12:52:08Z</time>
      </trkpt>
      <trkpt lat="43.465322" lon="-5.128473">
        <ele>76.949</ele>
        <time>2022-08-27T12:52:10Z</time>
      </trkpt>
      <trkpt lat="43.465259" lon="-5.128416">
        <ele>78.067</ele>
        <time>2022-08-27T12:52:12Z</time>
      </trkpt>
      <trkpt lat="43.465196" lon="-5.128361">
        <ele>78.527</ele>
        <time>2022-08-27T12:52:14Z</time>
      </trkpt>
      <trkpt lat="43.465139" lon="-5.128309">
        <ele>79.113</ele>
        <time>2022-08-27T12:52:16Z</time>
      </trkpt>
      <trkpt lat="43.465087" lon="-5.128254">
        <ele>79.467</ele>
        <time>2022-08-27T12:52:18Z</time>
      </trkpt>
      <trkpt lat="43.465035" lon="-5.128194">
        <ele>79.634</ele>
        <time>2022-08-27T12:52:20Z</time>
      </trkpt>
      <trkpt lat="43.464987" lon="-5.128131">
        <ele>79.951</ele>
        <time>2022-08-27T12:52:22Z</time>
      </trkpt>
      <trkpt lat="43.464937" lon="-5.128069">
        <ele>80.077</ele>
        <time>2022-08-27T12:52:24Z</time>
      </trkpt>
      <trkpt lat="43.464892" lon="-5.128012">
        <ele>80.261</ele>
        <time>2022-08-27T12:52:26Z</time>
      </trkpt>
      <trkpt lat="43.464844" lon="-5.127955">
        <ele>80.727</ele>
        <time>2022-08-27T12:52:28Z</time>
      </trkpt>
      <trkpt lat="43.464797" lon="-5.127895">
        <ele>81.009</ele>
        <time>2022-08-27T12:52:30Z</time>
      </trkpt>
      <trkpt lat="43.464744" lon="-5.127843">
        <ele>81.598</ele>
        <time>2022-08-27T12:52:32Z</time>
      </trkpt>
      <trkpt lat="43.464694" lon="-5.127793">
        <ele>82.058</ele>
        <time>2022-08-27T12:52:34Z</time>
      </trkpt>
      <trkpt lat="43.464636" lon="-5.127740">
        <ele>82.279</ele>
        <time>2022-08-27T12:52:36Z</time>
      </trkpt>
      <trkpt lat="43.464581" lon="-5.127687">
        <ele>82.447</ele>
        <time>2022-08-27T12:52:38Z</time>
      </trkpt>
      <trkpt lat="43.464526" lon="-5.127634">
        <ele>82.527</ele>
        <time>2022-08-27T12:52:40Z</time>
      </trkpt>
      <trkpt lat="43.464471" lon="-5.127576">
        <ele>82.583</ele>
        <time>2022-08-27T12:52:42Z</time>
      </trkpt>
      <trkpt lat="43.464416" lon="-5.127516">
        <ele>82.577</ele>
        <time>2022-08-27T12:52:44Z</time>
      </trkpt>
      <trkpt lat="43.464359" lon="-5.127458">
        <ele>82.514</ele>
        <time>2022-08-27T12:52:46Z</time>
      </trkpt>
      <trkpt lat="43.464306" lon="-5.127390">
        <ele>82.551</ele>
        <time>2022-08-27T12:52:48Z</time>
      </trkpt>
      <trkpt lat="43.464256" lon="-5.127317">
        <ele>82.669</ele>
        <time>2022-08-27T12:52:50Z</time>
      </trkpt>
      <trkpt lat="43.464221" lon="-5.127239">
        <ele>83.004</ele>
        <time>2022-08-27T12:52:52Z</time>
      </trkpt>
      <trkpt lat="43.464199" lon="-5.127147">
        <ele>83.524</ele>
        <time>2022-08-27T12:52:54Z</time>
      </trkpt>
      <trkpt lat="43.464182" lon="-5.127060">
        <ele>83.909</ele>
        <time>2022-08-27T12:52:56Z</time>
      </trkpt>
      <trkpt lat="43.464174" lon="-5.126980">
        <ele>84.227</ele>
        <time>2022-08-27T12:52:58Z</time>
      </trkpt>
      <trkpt lat="43.464169" lon="-5.126898">
        <ele>84.627</ele>
        <time>2022-08-27T12:53:00Z</time>
      </trkpt>
      <trkpt lat="43.464164" lon="-5.126813">
        <ele>85.218</ele>
        <time>2022-08-27T12:53:02Z</time>
      </trkpt>
      <trkpt lat="43.464156" lon="-5.126731">
        <ele>85.946</ele>
        <time>2022-08-27T12:53:04Z</time>
      </trkpt>
      <trkpt lat="43.464148" lon="-5.126649">
        <ele>86.496</ele>
        <time>2022-08-27T12:53:06Z</time>
      </trkpt>
      <trkpt lat="43.464145" lon="-5.126567">
        <ele>87.342</ele>
        <time>2022-08-27T12:53:08Z</time>
      </trkpt>
      <trkpt lat="43.464133" lon="-5.126485">
        <ele>87.696</ele>
        <time>2022-08-27T12:53:10Z</time>
      </trkpt>
      <trkpt lat="43.464121" lon="-5.126405">
        <ele>87.843</ele>
        <time>2022-08-27T12:53:12Z</time>
      </trkpt>
      <trkpt lat="43.464114" lon="-5.126327">
        <ele>87.920</ele>
        <time>2022-08-27T12:53:14Z</time>
      </trkpt>
      <trkpt lat="43.464112" lon="-5.126244">
        <ele>88.174</ele>
        <time>2022-08-27T12:53:16Z</time>
      </trkpt>
      <trkpt lat="43.464112" lon="-5.126164">
        <ele>88.456</ele>
        <time>2022-08-27T12:53:18Z</time>
      </trkpt>
      <trkpt lat="43.464117" lon="-5.126091">
        <ele>88.821</ele>
        <time>2022-08-27T12:53:20Z</time>
      </trkpt>
      <trkpt lat="43.464134" lon="-5.126014">
        <ele>89.209</ele>
        <time>2022-08-27T12:53:22Z</time>
      </trkpt>
      <trkpt lat="43.464156" lon="-5.125941">
        <ele>89.718</ele>
        <time>2022-08-27T12:53:24Z</time>
      </trkpt>
      <trkpt lat="43.464189" lon="-5.125878">
        <ele>90.518</ele>
        <time>2022-08-27T12:53:26Z</time>
      </trkpt>
      <trkpt lat="43.464226" lon="-5.125820">
        <ele>91.489</ele>
        <time>2022-08-27T12:53:28Z</time>
      </trkpt>
      <trkpt lat="43.464268" lon="-5.125777">
        <ele>92.277</ele>
        <time>2022-08-27T12:53:30Z</time>
      </trkpt>
      <trkpt lat="43.464316" lon="-5.125742">
        <ele>92.657</ele>
        <time>2022-08-27T12:53:32Z</time>
      </trkpt>
      <trkpt lat="43.464371" lon="-5.125702">
        <ele>92.833</ele>
        <time>2022-08-27T12:53:34Z</time>
      </trkpt>
      <trkpt lat="43.464418" lon="-5.125670">
        <ele>93.057</ele>
        <time>2022-08-27T12:53:36Z</time>
      </trkpt>
      <trkpt lat="43.464465" lon="-5.125640">
        <ele>93.884</ele>
        <time>2022-08-27T12:53:38Z</time>
      </trkpt>
      <trkpt lat="43.464513" lon="-5.125610">
        <ele>94.151</ele>
        <time>2022-08-27T12:53:40Z</time>
      </trkpt>
      <trkpt lat="43.464560" lon="-5.125572">
        <ele>94.146</ele>
        <time>2022-08-27T12:53:42Z</time>
      </trkpt>
      <trkpt lat="43.464603" lon="-5.125524">
        <ele>94.188</ele>
        <time>2022-08-27T12:53:44Z</time>
      </trkpt>
      <trkpt lat="43.464641" lon="-5.125471">
        <ele>93.916</ele>
        <time>2022-08-27T12:53:46Z</time>
      </trkpt>
      <trkpt lat="43.464664" lon="-5.125404">
        <ele>93.709</ele>
        <time>2022-08-27T12:53:48Z</time>
      </trkpt>
      <trkpt lat="43.464681" lon="-5.125337">
        <ele>93.685</ele>
        <time>2022-08-27T12:53:50Z</time>
      </trkpt>
      <trkpt lat="43.464688" lon="-5.125267">
        <ele>93.555</ele>
        <time>2022-08-27T12:53:52Z</time>
      </trkpt>
      <trkpt lat="43.464696" lon="-5.125194">
        <ele>93.446</ele>
        <time>2022-08-27T12:53:54Z</time>
      </trkpt>
      <trkpt lat="43.464706" lon="-5.125122">
        <ele>93.054</ele>
        <time>2022-08-27T12:53:56Z</time>
      </trkpt>
      <trkpt lat="43.464709" lon="-5.125047">
        <ele>92.874</ele>
        <time>2022-08-27T12:53:58Z</time>
      </trkpt>
      <trkpt lat="43.464726" lon="-5.124974">
        <ele>92.140</ele>
        <time>2022-08-27T12:54:00Z</time>
      </trkpt>
      <trkpt lat="43.464749" lon="-5.124916">
        <ele>92.184</ele>
        <time>2022-08-27T12:54:02Z</time>
      </trkpt>
      <trkpt lat="43.464787" lon="-5.124859">
        <ele>92.121</ele>
        <time>2022-08-27T12:54:04Z</time>
      </trkpt>
      <trkpt lat="43.464837" lon="-5.124816">
        <ele>92.738</ele>
        <time>2022-08-27T12:54:06Z</time>
      </trkpt>
      <trkpt lat="43.464887" lon="-5.124786">
        <ele>94.277</ele>
        <time>2022-08-27T12:54:08Z</time>
      </trkpt>
      <trkpt lat="43.464940" lon="-5.124771">
        <ele>94.761</ele>
        <time>2022-08-27T12:54:10Z</time>
      </trkpt>
      <trkpt lat="43.464995" lon="-5.124754">
        <ele>95.627</ele>
        <time>2022-08-27T12:54:12Z</time>
      </trkpt>
      <trkpt lat="43.465058" lon="-5.124732">
        <ele>96.509</ele>
        <time>2022-08-27T12:54:15Z</time>
      </trkpt>
      <trkpt lat="43.465115" lon="-5.124712">
        <ele>96.738</ele>
        <time>2022-08-27T12:54:17Z</time>
      </trkpt>
      <trkpt lat="43.465160" lon="-5.124675">
        <ele>97.518</ele>
        <time>2022-08-27T12:54:19Z</time>
      </trkpt>
      <trkpt lat="43.465208" lon="-5.124638">
        <ele>97.639</ele>
        <time>2022-08-27T12:54:21Z</time>
      </trkpt>
      <trkpt lat="43.465248" lon="-5.124583">
        <ele>97.777</ele>
        <time>2022-08-27T12:54:23Z</time>
      </trkpt>
      <trkpt lat="43.465288" lon="-5.124516">
        <ele>97.857</ele>
        <time>2022-08-27T12:54:25Z</time>
      </trkpt>
      <trkpt lat="43.465318" lon="-5.124444">
        <ele>98.043</ele>
        <time>2022-08-27T12:54:27Z</time>
      </trkpt>
      <trkpt lat="43.465350" lon="-5.124369">
        <ele>98.387</ele>
        <time>2022-08-27T12:54:29Z</time>
      </trkpt>
      <trkpt lat="43.465385" lon="-5.124297">
        <ele>99.284</ele>
        <time>2022-08-27T12:54:31Z</time>
      </trkpt>
      <trkpt lat="43.465412" lon="-5.124227">
        <ele>100.071</ele>
        <time>2022-08-27T12:54:33Z</time>
      </trkpt>
      <trkpt lat="43.465434" lon="-5.124162">
        <ele>100.632</ele>
        <time>2022-08-27T12:54:35Z</time>
      </trkpt>
      <trkpt lat="43.465456" lon="-5.124105">
        <ele>101.492</ele>
        <time>2022-08-27T12:54:37Z</time>
      </trkpt>
      <trkpt lat="43.465476" lon="-5.124038">
        <ele>101.911</ele>
        <time>2022-08-27T12:54:39Z</time>
      </trkpt>
      <trkpt lat="43.465491" lon="-5.123970">
        <ele>102.309</ele>
        <time>2022-08-27T12:54:41Z</time>
      </trkpt>
      <trkpt lat="43.465503" lon="-5.123895">
        <ele>102.524</ele>
        <time>2022-08-27T12:54:43Z</time>
      </trkpt>
      <trkpt lat="43.465520" lon="-5.123822">
        <ele>103.034</ele>
        <time>2022-08-27T12:54:45Z</time>
      </trkpt>
      <trkpt lat="43.465535" lon="-5.123739">
        <ele>103.335</ele>
        <time>2022-08-27T12:54:48Z</time>
      </trkpt>
      <trkpt lat="43.465550" lon="-5.123654">
        <ele>103.713</ele>
        <time>2022-08-27T12:54:51Z</time>
      </trkpt>
      <trkpt lat="43.465567" lon="-5.123589">
        <ele>104.223</ele>
        <time>2022-08-27T12:54:53Z</time>
      </trkpt>
      <trkpt lat="43.465584" lon="-5.123521">
        <ele>104.649</ele>
        <time>2022-08-27T12:54:55Z</time>
      </trkpt>
      <trkpt lat="43.465599" lon="-5.123456">
        <ele>105.573</ele>
        <time>2022-08-27T12:54:57Z</time>
      </trkpt>
      <trkpt lat="43.465616" lon="-5.123389">
        <ele>106.650</ele>
        <time>2022-08-27T12:54:59Z</time>
      </trkpt>
      <trkpt lat="43.465633" lon="-5.123322">
        <ele>107.857</ele>
        <time>2022-08-27T12:55:01Z</time>
      </trkpt>
      <trkpt lat="43.465641" lon="-5.123260">
        <ele>108.816</ele>
        <time>2022-08-27T12:55:03Z</time>
      </trkpt>
      <trkpt lat="43.465649" lon="-5.123195">
        <ele>109.676</ele>
        <time>2022-08-27T12:55:05Z</time>
      </trkpt>
      <trkpt lat="43.465652" lon="-5.123132">
        <ele>110.413</ele>
        <time>2022-08-27T12:55:07Z</time>
      </trkpt>
      <trkpt lat="43.465637" lon="-5.123049">
        <ele>112.209</ele>
        <time>2022-08-27T12:55:10Z</time>
      </trkpt>
      <trkpt lat="43.465612" lon="-5.122964">
        <ele>112.712</ele>
        <time>2022-08-27T12:55:13Z</time>
      </trkpt>
      <trkpt lat="43.465585" lon="-5.122909">
        <ele>112.812</ele>
        <time>2022-08-27T12:55:15Z</time>
      </trkpt>
      <trkpt lat="43.465560" lon="-5.122847">
        <ele>112.813</ele>
        <time>2022-08-27T12:55:17Z</time>
      </trkpt>
      <trkpt lat="43.465540" lon="-5.122789">
        <ele>112.861</ele>
        <time>2022-08-27T12:55:19Z</time>
      </trkpt>
      <trkpt lat="43.465520" lon="-5.122731">
        <ele>112.331</ele>
        <time>2022-08-27T12:55:21Z</time>
      </trkpt>
      <trkpt lat="43.465495" lon="-5.122669">
        <ele>112.287</ele>
        <time>2022-08-27T12:55:23Z</time>
      </trkpt>
      <trkpt lat="43.465468" lon="-5.122611">
        <ele>112.131</ele>
        <time>2022-08-27T12:55:25Z</time>
      </trkpt>
      <trkpt lat="43.465445" lon="-5.122554">
        <ele>112.028</ele>
        <time>2022-08-27T12:55:27Z</time>
      </trkpt>
      <trkpt lat="43.465422" lon="-5.122496">
        <ele>112.015</ele>
        <time>2022-08-27T12:55:29Z</time>
      </trkpt>
      <trkpt lat="43.465402" lon="-5.122438">
        <ele>112.233</ele>
        <time>2022-08-27T12:55:31Z</time>
      </trkpt>
      <trkpt lat="43.465384" lon="-5.122378">
        <ele>112.423</ele>
        <time>2022-08-27T12:55:33Z</time>
      </trkpt>
      <trkpt lat="43.465366" lon="-5.122320">
        <ele>112.615</ele>
        <time>2022-08-27T12:55:35Z</time>
      </trkpt>
      <trkpt lat="43.465346" lon="-5.122230">
        <ele>113.109</ele>
        <time>2022-08-27T12:55:38Z</time>
      </trkpt>
      <trkpt lat="43.465324" lon="-5.122175">
        <ele>114.464</ele>
        <time>2022-08-27T12:55:40Z</time>
      </trkpt>
      <trkpt lat="43.465306" lon="-5.122118">
        <ele>115.464</ele>
        <time>2022-08-27T12:55:42Z</time>
      </trkpt>
      <trkpt lat="43.465281" lon="-5.122063">
        <ele>115.645</ele>
        <time>2022-08-27T12:55:44Z</time>
      </trkpt>
      <trkpt lat="43.465261" lon="-5.121971">
        <ele>115.923</ele>
        <time>2022-08-27T12:55:47Z</time>
      </trkpt>
      <trkpt lat="43.465243" lon="-5.121901">
        <ele>116.573</ele>
        <time>2022-08-27T12:55:49Z</time>
      </trkpt>
      <trkpt lat="43.465220" lon="-5.121831">
        <ele>116.769</ele>
        <time>2022-08-27T12:55:51Z</time>
      </trkpt>
      <trkpt lat="43.465195" lon="-5.121763">
        <ele>117.233</ele>
        <time>2022-08-27T12:55:53Z</time>
      </trkpt>
      <trkpt lat="43.465170" lon="-5.121690">
        <ele>117.770</ele>
        <time>2022-08-27T12:55:55Z</time>
      </trkpt>
      <trkpt lat="43.465142" lon="-5.121627">
        <ele>118.127</ele>
        <time>2022-08-27T12:55:57Z</time>
      </trkpt>
      <trkpt lat="43.465112" lon="-5.121552">
        <ele>118.729</ele>
        <time>2022-08-27T12:55:59Z</time>
      </trkpt>
      <trkpt lat="43.465084" lon="-5.121477">
        <ele>118.700</ele>
        <time>2022-08-27T12:56:01Z</time>
      </trkpt>
      <trkpt lat="43.465054" lon="-5.121402">
        <ele>118.720</ele>
        <time>2022-08-27T12:56:03Z</time>
      </trkpt>
      <trkpt lat="43.465027" lon="-5.121329">
        <ele>118.609</ele>
        <time>2022-08-27T12:56:05Z</time>
      </trkpt>
      <trkpt lat="43.464999" lon="-5.121259">
        <ele>118.683</ele>
        <time>2022-08-27T12:56:07Z</time>
      </trkpt>
      <trkpt lat="43.464971" lon="-5.121186">
        <ele>118.853</ele>
        <time>2022-08-27T12:56:09Z</time>
      </trkpt>
      <trkpt lat="43.464944" lon="-5.121118">
        <ele>118.864</ele>
        <time>2022-08-27T12:56:11Z</time>
      </trkpt>
      <trkpt lat="43.464919" lon="-5.121045">
        <ele>119.072</ele>
        <time>2022-08-27T12:56:13Z</time>
      </trkpt>
      <trkpt lat="43.464892" lon="-5.120972">
        <ele>119.052</ele>
        <time>2022-08-27T12:56:15Z</time>
      </trkpt>
      <trkpt lat="43.464875" lon="-5.120900">
        <ele>119.088</ele>
        <time>2022-08-27T12:56:17Z</time>
      </trkpt>
      <trkpt lat="43.464858" lon="-5.120825">
        <ele>118.882</ele>
        <time>2022-08-27T12:56:19Z</time>
      </trkpt>
      <trkpt lat="43.464846" lon="-5.120748">
        <ele>118.349</ele>
        <time>2022-08-27T12:56:21Z</time>
      </trkpt>
      <trkpt lat="43.464836" lon="-5.120670">
        <ele>117.946</ele>
        <time>2022-08-27T12:56:23Z</time>
      </trkpt>
      <trkpt lat="43.464828" lon="-5.120597">
        <ele>117.983</ele>
        <time>2022-08-27T12:56:25Z</time>
      </trkpt>
      <trkpt lat="43.464816" lon="-5.120527">
        <ele>117.925</ele>
        <time>2022-08-27T12:56:27Z</time>
      </trkpt>
      <trkpt lat="43.464814" lon="-5.120457">
        <ele>118.017</ele>
        <time>2022-08-27T12:56:29Z</time>
      </trkpt>
      <trkpt lat="43.464816" lon="-5.120389">
        <ele>118.109</ele>
        <time>2022-08-27T12:56:31Z</time>
      </trkpt>
      <trkpt lat="43.464814" lon="-5.120316">
        <ele>118.589</ele>
        <time>2022-08-27T12:56:33Z</time>
      </trkpt>
      <trkpt lat="43.464812" lon="-5.120249">
        <ele>118.859</ele>
        <time>2022-08-27T12:56:35Z</time>
      </trkpt>
      <trkpt lat="43.464809" lon="-5.120181">
        <ele>119.130</ele>
        <time>2022-08-27T12:56:37Z</time>
      </trkpt>
      <trkpt lat="43.464806" lon="-5.120116">
        <ele>119.348</ele>
        <time>2022-08-27T12:56:39Z</time>
      </trkpt>
      <trkpt lat="43.464803" lon="-5.120051">
        <ele>119.368</ele>
        <time>2022-08-27T12:56:41Z</time>
      </trkpt>
      <trkpt lat="43.464798" lon="-5.119989">
        <ele>119.584</ele>
        <time>2022-08-27T12:56:43Z</time>
      </trkpt>
      <trkpt lat="43.464796" lon="-5.119926">
        <ele>119.918</ele>
        <time>2022-08-27T12:56:45Z</time>
      </trkpt>
      <trkpt lat="43.464796" lon="-5.119831">
        <ele>120.965</ele>
        <time>2022-08-27T12:56:48Z</time>
      </trkpt>
      <trkpt lat="43.464794" lon="-5.119768">
        <ele>122.072</ele>
        <time>2022-08-27T12:56:50Z</time>
      </trkpt>
      <trkpt lat="43.464791" lon="-5.119681">
        <ele>122.558</ele>
        <time>2022-08-27T12:56:53Z</time>
      </trkpt>
      <trkpt lat="43.464784" lon="-5.119589">
        <ele>123.852</ele>
        <time>2022-08-27T12:56:56Z</time>
      </trkpt>
      <trkpt lat="43.464774" lon="-5.119527">
        <ele>125.117</ele>
        <time>2022-08-27T12:56:58Z</time>
      </trkpt>
      <trkpt lat="43.464766" lon="-5.119462">
        <ele>125.609</ele>
        <time>2022-08-27T12:57:00Z</time>
      </trkpt>
      <trkpt lat="43.464766" lon="-5.119367">
        <ele>125.636</ele>
        <time>2022-08-27T12:57:03Z</time>
      </trkpt>
      <trkpt lat="43.464748" lon="-5.119280">
        <ele>125.796</ele>
        <time>2022-08-27T12:57:06Z</time>
      </trkpt>
      <trkpt lat="43.464723" lon="-5.119193">
        <ele>125.877</ele>
        <time>2022-08-27T12:57:09Z</time>
      </trkpt>
      <trkpt lat="43.464698" lon="-5.119136">
        <ele>126.095</ele>
        <time>2022-08-27T12:57:11Z</time>
      </trkpt>
      <trkpt lat="43.464650" lon="-5.119071">
        <ele>126.315</ele>
        <time>2022-08-27T12:57:14Z</time>
      </trkpt>
      <trkpt lat="43.464615" lon="-5.119028">
        <ele>126.441</ele>
        <time>2022-08-27T12:57:16Z</time>
      </trkpt>
      <trkpt lat="43.464582" lon="-5.118978">
        <ele>126.415</ele>
        <time>2022-08-27T12:57:18Z</time>
      </trkpt>
      <trkpt lat="43.464557" lon="-5.118920">
        <ele>126.442</ele>
        <time>2022-08-27T12:57:20Z</time>
      </trkpt>
      <trkpt lat="43.464535" lon="-5.118853">
        <ele>126.459</ele>
        <time>2022-08-27T12:57:22Z</time>
      </trkpt>
      <trkpt lat="43.464520" lon="-5.118785">
        <ele>126.432</ele>
        <time>2022-08-27T12:57:24Z</time>
      </trkpt>
      <trkpt lat="43.464512" lon="-5.118713">
        <ele>126.492</ele>
        <time>2022-08-27T12:57:26Z</time>
      </trkpt>
      <trkpt lat="43.464519" lon="-5.118645">
        <ele>127.011</ele>
        <time>2022-08-27T12:57:28Z</time>
      </trkpt>
      <trkpt lat="43.464532" lon="-5.118582">
        <ele>127.509</ele>
        <time>2022-08-27T12:57:30Z</time>
      </trkpt>
      <trkpt lat="43.464552" lon="-5.118524">
        <ele>127.814</ele>
        <time>2022-08-27T12:57:32Z</time>
      </trkpt>
      <trkpt lat="43.464572" lon="-5.118466">
        <ele>128.044</ele>
        <time>2022-08-27T12:57:34Z</time>
      </trkpt>
      <trkpt lat="43.464594" lon="-5.118411">
        <ele>128.225</ele>
        <time>2022-08-27T12:57:36Z</time>
      </trkpt>
      <trkpt lat="43.464617" lon="-5.118353">
        <ele>128.233</ele>
        <time>2022-08-27T12:57:38Z</time>
      </trkpt>
      <trkpt lat="43.464635" lon="-5.118291">
        <ele>128.333</ele>
        <time>2022-08-27T12:57:40Z</time>
      </trkpt>
      <trkpt lat="43.464652" lon="-5.118231">
        <ele>128.339</ele>
        <time>2022-08-27T12:57:42Z</time>
      </trkpt>
      <trkpt lat="43.464660" lon="-5.118168">
        <ele>128.333</ele>
        <time>2022-08-27T12:57:44Z</time>
      </trkpt>
      <trkpt lat="43.464660" lon="-5.118103">
        <ele>128.390</ele>
        <time>2022-08-27T12:57:46Z</time>
      </trkpt>
      <trkpt lat="43.464665" lon="-5.118030">
        <ele>128.387</ele>
        <time>2022-08-27T12:57:48Z</time>
      </trkpt>
      <trkpt lat="43.464667" lon="-5.117962">
        <ele>128.375</ele>
        <time>2022-08-27T12:57:50Z</time>
      </trkpt>
      <trkpt lat="43.464665" lon="-5.117894">
        <ele>128.528</ele>
        <time>2022-08-27T12:57:52Z</time>
      </trkpt>
      <trkpt lat="43.464665" lon="-5.117827">
        <ele>129.320</ele>
        <time>2022-08-27T12:57:54Z</time>
      </trkpt>
      <trkpt lat="43.464663" lon="-5.117764">
        <ele>129.909</ele>
        <time>2022-08-27T12:57:56Z</time>
      </trkpt>
      <trkpt lat="43.464658" lon="-5.117699">
        <ele>130.228</ele>
        <time>2022-08-27T12:57:58Z</time>
      </trkpt>
      <trkpt lat="43.464651" lon="-5.117611">
        <ele>130.498</ele>
        <time>2022-08-27T12:58:01Z</time>
      </trkpt>
      <trkpt lat="43.464646" lon="-5.117521">
        <ele>130.549</ele>
        <time>2022-08-27T12:58:04Z</time>
      </trkpt>
      <trkpt lat="43.464644" lon="-5.117449">
        <ele>130.677</ele>
        <time>2022-08-27T12:58:06Z</time>
      </trkpt>
      <trkpt lat="43.464636" lon="-5.117377">
        <ele>130.897</ele>
        <time>2022-08-27T12:58:08Z</time>
      </trkpt>
      <trkpt lat="43.464634" lon="-5.117302">
        <ele>131.053</ele>
        <time>2022-08-27T12:58:10Z</time>
      </trkpt>
      <trkpt lat="43.464632" lon="-5.117230">
        <ele>131.417</ele>
        <time>2022-08-27T12:58:12Z</time>
      </trkpt>
      <trkpt lat="43.464625" lon="-5.117157">
        <ele>132.214</ele>
        <time>2022-08-27T12:58:14Z</time>
      </trkpt>
      <trkpt lat="43.464622" lon="-5.117079">
        <ele>133.141</ele>
        <time>2022-08-27T12:58:16Z</time>
      </trkpt>
      <trkpt lat="43.464617" lon="-5.117001">
        <ele>133.971</ele>
        <time>2022-08-27T12:58:18Z</time>
      </trkpt>
      <trkpt lat="43.464610" lon="-5.116924">
        <ele>134.241</ele>
        <time>2022-08-27T12:58:20Z</time>
      </trkpt>
      <trkpt lat="43.464605" lon="-5.116846">
        <ele>134.615</ele>
        <time>2022-08-27T12:58:22Z</time>
      </trkpt>
      <trkpt lat="43.464598" lon="-5.116761">
        <ele>135.309</ele>
        <time>2022-08-27T12:58:24Z</time>
      </trkpt>
      <trkpt lat="43.464593" lon="-5.116679">
        <ele>135.958</ele>
        <time>2022-08-27T12:58:26Z</time>
      </trkpt>
      <trkpt lat="43.464585" lon="-5.116599">
        <ele>136.288</ele>
        <time>2022-08-27T12:58:28Z</time>
      </trkpt>
      <trkpt lat="43.464578" lon="-5.116514">
        <ele>136.329</ele>
        <time>2022-08-27T12:58:30Z</time>
      </trkpt>
      <trkpt lat="43.464571" lon="-5.116436">
        <ele>136.787</ele>
        <time>2022-08-27T12:58:32Z</time>
      </trkpt>
      <trkpt lat="43.464566" lon="-5.116354">
        <ele>137.257</ele>
        <time>2022-08-27T12:58:34Z</time>
      </trkpt>
      <trkpt lat="43.464561" lon="-5.116281">
        <ele>137.893</ele>
        <time>2022-08-27T12:58:36Z</time>
      </trkpt>
      <trkpt lat="43.464558" lon="-5.116203">
        <ele>138.267</ele>
        <time>2022-08-27T12:58:37Z</time>
      </trkpt>
      <trkpt lat="43.464555" lon="-5.116123">
        <ele>138.494</ele>
        <time>2022-08-27T12:58:40Z</time>
      </trkpt>
      <trkpt lat="43.464547" lon="-5.116050">
        <ele>138.971</ele>
        <time>2022-08-27T12:58:42Z</time>
      </trkpt>
      <trkpt lat="43.464540" lon="-5.115977">
        <ele>139.636</ele>
        <time>2022-08-27T12:58:43Z</time>
      </trkpt>
      <trkpt lat="43.464540" lon="-5.115910">
        <ele>139.617</ele>
        <time>2022-08-27T12:58:46Z</time>
      </trkpt>
      <trkpt lat="43.464537" lon="-5.115840">
        <ele>139.418</ele>
        <time>2022-08-27T12:58:48Z</time>
      </trkpt>
      <trkpt lat="43.464535" lon="-5.115770">
        <ele>139.209</ele>
        <time>2022-08-27T12:58:50Z</time>
      </trkpt>
      <trkpt lat="43.464532" lon="-5.115702">
        <ele>138.934</ele>
        <time>2022-08-27T12:58:52Z</time>
      </trkpt>
      <trkpt lat="43.464527" lon="-5.115630">
        <ele>138.794</ele>
        <time>2022-08-27T12:58:54Z</time>
      </trkpt>
      <trkpt lat="43.464524" lon="-5.115565">
        <ele>138.465</ele>
        <time>2022-08-27T12:58:56Z</time>
      </trkpt>
      <trkpt lat="43.464521" lon="-5.115502">
        <ele>138.423</ele>
        <time>2022-08-27T12:58:58Z</time>
      </trkpt>
      <trkpt lat="43.464523" lon="-5.115429">
        <ele>138.473</ele>
        <time>2022-08-27T12:59:00Z</time>
      </trkpt>
      <trkpt lat="43.464520" lon="-5.115357">
        <ele>138.429</ele>
        <time>2022-08-27T12:59:02Z</time>
      </trkpt>
      <trkpt lat="43.464517" lon="-5.115280">
        <ele>138.493</ele>
        <time>2022-08-27T12:59:04Z</time>
      </trkpt>
      <trkpt lat="43.464514" lon="-5.115198">
        <ele>138.410</ele>
        <time>2022-08-27T12:59:06Z</time>
      </trkpt>
      <trkpt lat="43.464509" lon="-5.115116">
        <ele>138.587</ele>
        <time>2022-08-27T12:59:08Z</time>
      </trkpt>
      <trkpt lat="43.464504" lon="-5.115038">
        <ele>138.513</ele>
        <time>2022-08-27T12:59:10Z</time>
      </trkpt>
      <trkpt lat="43.464501" lon="-5.114960">
        <ele>138.543</ele>
        <time>2022-08-27T12:59:12Z</time>
      </trkpt>
      <trkpt lat="43.464496" lon="-5.114883">
        <ele>138.507</ele>
        <time>2022-08-27T12:59:14Z</time>
      </trkpt>
      <trkpt lat="43.464489" lon="-5.114806">
        <ele>138.509</ele>
        <time>2022-08-27T12:59:16Z</time>
      </trkpt>
      <trkpt lat="43.464482" lon="-5.114728">
        <ele>138.562</ele>
        <time>2022-08-27T12:59:18Z</time>
      </trkpt>
      <trkpt lat="43.464477" lon="-5.114650">
        <ele>138.522</ele>
        <time>2022-08-27T12:59:20Z</time>
      </trkpt>
      <trkpt lat="43.464469" lon="-5.114568">
        <ele>138.593</ele>
        <time>2022-08-27T12:59:22Z</time>
      </trkpt>
      <trkpt lat="43.464466" lon="-5.114488">
        <ele>138.661</ele>
        <time>2022-08-27T12:59:24Z</time>
      </trkpt>
      <trkpt lat="43.464461" lon="-5.114418">
        <ele>139.341</ele>
        <time>2022-08-27T12:59:26Z</time>
      </trkpt>
      <trkpt lat="43.464456" lon="-5.114353">
        <ele>139.677</ele>
        <time>2022-08-27T12:59:28Z</time>
      </trkpt>
      <trkpt lat="43.464454" lon="-5.114283">
        <ele>139.711</ele>
        <time>2022-08-27T12:59:30Z</time>
      </trkpt>
      <trkpt lat="43.464452" lon="-5.114215">
        <ele>139.978</ele>
        <time>2022-08-27T12:59:32Z</time>
      </trkpt>
      <trkpt lat="43.464450" lon="-5.114147">
        <ele>140.155</ele>
        <time>2022-08-27T12:59:34Z</time>
      </trkpt>
      <trkpt lat="43.464455" lon="-5.114074">
        <ele>140.822</ele>
        <time>2022-08-27T12:59:36Z</time>
      </trkpt>
      <trkpt lat="43.464472" lon="-5.113996">
        <ele>141.362</ele>
        <time>2022-08-27T12:59:38Z</time>
      </trkpt>
      <trkpt lat="43.464490" lon="-5.113926">
        <ele>141.608</ele>
        <time>2022-08-27T12:59:40Z</time>
      </trkpt>
      <trkpt lat="43.464512" lon="-5.113868">
        <ele>142.309</ele>
        <time>2022-08-27T12:59:42Z</time>
      </trkpt>
      <trkpt lat="43.464535" lon="-5.113795">
        <ele>142.783</ele>
        <time>2022-08-27T12:59:44Z</time>
      </trkpt>
      <trkpt lat="43.464552" lon="-5.113718">
        <ele>143.423</ele>
        <time>2022-08-27T12:59:46Z</time>
      </trkpt>
      <trkpt lat="43.464562" lon="-5.113651">
        <ele>143.774</ele>
        <time>2022-08-27T12:59:48Z</time>
      </trkpt>
      <trkpt lat="43.464569" lon="-5.113578">
        <ele>143.942</ele>
        <time>2022-08-27T12:59:50Z</time>
      </trkpt>
      <trkpt lat="43.464571" lon="-5.113503">
        <ele>144.092</ele>
        <time>2022-08-27T12:59:52Z</time>
      </trkpt>
      <trkpt lat="43.464569" lon="-5.113430">
        <ele>144.078</ele>
        <time>2022-08-27T12:59:54Z</time>
      </trkpt>
      <trkpt lat="43.464566" lon="-5.113358">
        <ele>144.022</ele>
        <time>2022-08-27T12:59:56Z</time>
      </trkpt>
      <trkpt lat="43.464554" lon="-5.113290">
        <ele>144.099</ele>
        <time>2022-08-27T12:59:58Z</time>
      </trkpt>
      <trkpt lat="43.464544" lon="-5.113227">
        <ele>144.036</ele>
        <time>2022-08-27T13:00:00Z</time>
      </trkpt>
      <trkpt lat="43.464536" lon="-5.113159">
        <ele>144.072</ele>
        <time>2022-08-27T13:00:02Z</time>
      </trkpt>
      <trkpt lat="43.464526" lon="-5.113086">
        <ele>144.013</ele>
        <time>2022-08-27T13:00:04Z</time>
      </trkpt>
      <trkpt lat="43.464519" lon="-5.113019">
        <ele>144.514</ele>
        <time>2022-08-27T13:00:06Z</time>
      </trkpt>
      <trkpt lat="43.464512" lon="-5.112949">
        <ele>145.009</ele>
        <time>2022-08-27T13:00:08Z</time>
      </trkpt>
      <trkpt lat="43.464504" lon="-5.112879">
        <ele>145.348</ele>
        <time>2022-08-27T13:00:10Z</time>
      </trkpt>
      <trkpt lat="43.464496" lon="-5.112814">
        <ele>145.738</ele>
        <time>2022-08-27T13:00:12Z</time>
      </trkpt>
      <trkpt lat="43.464486" lon="-5.112746">
        <ele>145.969</ele>
        <time>2022-08-27T13:00:14Z</time>
      </trkpt>
      <trkpt lat="43.464478" lon="-5.112676">
        <ele>146.437</ele>
        <time>2022-08-27T13:00:16Z</time>
      </trkpt>
      <trkpt lat="43.464466" lon="-5.112604">
        <ele>146.817</ele>
        <time>2022-08-27T13:00:18Z</time>
      </trkpt>
      <trkpt lat="43.464458" lon="-5.112536">
        <ele>146.943</ele>
        <time>2022-08-27T13:00:20Z</time>
      </trkpt>
      <trkpt lat="43.464450" lon="-5.112463">
        <ele>147.087</ele>
        <time>2022-08-27T13:00:22Z</time>
      </trkpt>
      <trkpt lat="43.464437" lon="-5.112381">
        <ele>147.174</ele>
        <time>2022-08-27T13:00:24Z</time>
      </trkpt>
      <trkpt lat="43.464429" lon="-5.112303">
        <ele>147.261</ele>
        <time>2022-08-27T13:00:26Z</time>
      </trkpt>
      <trkpt lat="43.464421" lon="-5.112223">
        <ele>147.611</ele>
        <time>2022-08-27T13:00:28Z</time>
      </trkpt>
      <trkpt lat="43.464413" lon="-5.112150">
        <ele>148.121</ele>
        <time>2022-08-27T13:00:30Z</time>
      </trkpt>
      <trkpt lat="43.464403" lon="-5.112075">
        <ele>148.603</ele>
        <time>2022-08-27T13:00:32Z</time>
      </trkpt>
      <trkpt lat="43.464390" lon="-5.111997">
        <ele>148.809</ele>
        <time>2022-08-27T13:00:34Z</time>
      </trkpt>
      <trkpt lat="43.464378" lon="-5.111922">
        <ele>149.032</ele>
        <time>2022-08-27T13:00:36Z</time>
      </trkpt>
      <trkpt lat="43.464361" lon="-5.111847">
        <ele>149.292</ele>
        <time>2022-08-27T13:00:38Z</time>
      </trkpt>
      <trkpt lat="43.464353" lon="-5.111765">
        <ele>149.623</ele>
        <time>2022-08-27T13:00:40Z</time>
      </trkpt>
      <trkpt lat="43.464341" lon="-5.111687">
        <ele>149.851</ele>
        <time>2022-08-27T13:00:42Z</time>
      </trkpt>
      <trkpt lat="43.464331" lon="-5.111609">
        <ele>150.181</ele>
        <time>2022-08-27T13:00:44Z</time>
      </trkpt>
      <trkpt lat="43.464323" lon="-5.111539">
        <ele>150.837</ele>
        <time>2022-08-27T13:00:46Z</time>
      </trkpt>
      <trkpt lat="43.464315" lon="-5.111467">
        <ele>151.151</ele>
        <time>2022-08-27T13:00:48Z</time>
      </trkpt>
      <trkpt lat="43.464310" lon="-5.111390">
        <ele>151.178</ele>
        <time>2022-08-27T13:00:50Z</time>
      </trkpt>
      <trkpt lat="43.464298" lon="-5.111313">
        <ele>151.335</ele>
        <time>2022-08-27T13:00:52Z</time>
      </trkpt>
      <trkpt lat="43.464291" lon="-5.111233">
        <ele>151.228</ele>
        <time>2022-08-27T13:00:54Z</time>
      </trkpt>
      <trkpt lat="43.464281" lon="-5.111151">
        <ele>151.289</ele>
        <time>2022-08-27T13:00:56Z</time>
      </trkpt>
      <trkpt lat="43.464271" lon="-5.111073">
        <ele>151.317</ele>
        <time>2022-08-27T13:00:58Z</time>
      </trkpt>
      <trkpt lat="43.464263" lon="-5.110995">
        <ele>151.709</ele>
        <time>2022-08-27T13:01:00Z</time>
      </trkpt>
      <trkpt lat="43.464251" lon="-5.110917">
        <ele>152.123</ele>
        <time>2022-08-27T13:01:02Z</time>
      </trkpt>
      <trkpt lat="43.464241" lon="-5.110835">
        <ele>152.233</ele>
        <time>2022-08-27T13:01:04Z</time>
      </trkpt>
      <trkpt lat="43.464233" lon="-5.110755">
        <ele>152.444</ele>
        <time>2022-08-27T13:01:06Z</time>
      </trkpt>
      <trkpt lat="43.464225" lon="-5.110683">
        <ele>152.482</ele>
        <time>2022-08-27T13:01:08Z</time>
      </trkpt>
      <trkpt lat="43.464217" lon="-5.110616">
        <ele>152.672</ele>
        <time>2022-08-27T13:01:10Z</time>
      </trkpt>
      <trkpt lat="43.464207" lon="-5.110548">
        <ele>153.178</ele>
        <time>2022-08-27T13:01:12Z</time>
      </trkpt>
      <trkpt lat="43.464195" lon="-5.110476">
        <ele>153.372</ele>
        <time>2022-08-27T13:01:14Z</time>
      </trkpt>
      <trkpt lat="43.464182" lon="-5.110409">
        <ele>154.369</ele>
        <time>2022-08-27T13:01:16Z</time>
      </trkpt>
      <trkpt lat="43.464177" lon="-5.110336">
        <ele>154.936</ele>
        <time>2022-08-27T13:01:18Z</time>
      </trkpt>
      <trkpt lat="43.464172" lon="-5.110266">
        <ele>155.018</ele>
        <time>2022-08-27T13:01:20Z</time>
      </trkpt>
      <trkpt lat="43.464169" lon="-5.110184">
        <ele>155.098</ele>
        <time>2022-08-27T13:01:22Z</time>
      </trkpt>
      <trkpt lat="43.464164" lon="-5.110092">
        <ele>155.117</ele>
        <time>2022-08-27T13:01:24Z</time>
      </trkpt>
      <trkpt lat="43.464154" lon="-5.110000">
        <ele>155.309</ele>
        <time>2022-08-27T13:01:26Z</time>
      </trkpt>
      <trkpt lat="43.464151" lon="-5.109902">
        <ele>155.452</ele>
        <time>2022-08-27T13:01:28Z</time>
      </trkpt>
      <trkpt lat="43.464159" lon="-5.109797">
        <ele>155.482</ele>
        <time>2022-08-27T13:01:30Z</time>
      </trkpt>
      <trkpt lat="43.464176" lon="-5.109689">
        <ele>155.293</ele>
        <time>2022-08-27T13:01:32Z</time>
      </trkpt>
      <trkpt lat="43.464203" lon="-5.109572">
        <ele>154.591</ele>
        <time>2022-08-27T13:01:34Z</time>
      </trkpt>
      <trkpt lat="43.464228" lon="-5.109442">
        <ele>153.941</ele>
        <time>2022-08-27T13:01:36Z</time>
      </trkpt>
      <trkpt lat="43.464258" lon="-5.109310">
        <ele>153.417</ele>
        <time>2022-08-27T13:01:38Z</time>
      </trkpt>
      <trkpt lat="43.464291" lon="-5.109172">
        <ele>152.451</ele>
        <time>2022-08-27T13:01:40Z</time>
      </trkpt>
      <trkpt lat="43.464304" lon="-5.109097">
        <ele>151.968</ele>
        <time>2022-08-27T13:01:41Z</time>
      </trkpt>
      <trkpt lat="43.464321" lon="-5.108937">
        <ele>151.635</ele>
        <time>2022-08-27T13:01:43Z</time>
      </trkpt>
      <trkpt lat="43.464298" lon="-5.108779">
        <ele>151.921</ele>
        <time>2022-08-27T13:01:45Z</time>
      </trkpt>
      <trkpt lat="43.464260" lon="-5.108619">
        <ele>151.941</ele>
        <time>2022-08-27T13:01:47Z</time>
      </trkpt>
      <trkpt lat="43.464220" lon="-5.108452">
        <ele>151.605</ele>
        <time>2022-08-27T13:01:49Z</time>
      </trkpt>
      <trkpt lat="43.464180" lon="-5.108284">
        <ele>151.109</ele>
        <time>2022-08-27T13:01:51Z</time>
      </trkpt>
      <trkpt lat="43.464160" lon="-5.108197">
        <ele>150.483</ele>
        <time>2022-08-27T13:01:52Z</time>
      </trkpt>
      <trkpt lat="43.464117" lon="-5.108027">
        <ele>149.843</ele>
        <time>2022-08-27T13:01:54Z</time>
      </trkpt>
      <trkpt lat="43.464094" lon="-5.107940">
        <ele>148.824</ele>
        <time>2022-08-27T13:01:55Z</time>
      </trkpt>
      <trkpt lat="43.464074" lon="-5.107853">
        <ele>148.012</ele>
        <time>2022-08-27T13:01:56Z</time>
      </trkpt>
      <trkpt lat="43.464056" lon="-5.107765">
        <ele>147.152</ele>
        <time>2022-08-27T13:01:57Z</time>
      </trkpt>
      <trkpt lat="43.464016" lon="-5.107585">
        <ele>146.118</ele>
        <time>2022-08-27T13:01:59Z</time>
      </trkpt>
      <trkpt lat="43.463974" lon="-5.107400">
        <ele>145.142</ele>
        <time>2022-08-27T13:02:01Z</time>
      </trkpt>
      <trkpt lat="43.463952" lon="-5.107305">
        <ele>144.819</ele>
        <time>2022-08-27T13:02:02Z</time>
      </trkpt>
      <trkpt lat="43.463907" lon="-5.107110">
        <ele>144.366</ele>
        <time>2022-08-27T13:02:04Z</time>
      </trkpt>
      <trkpt lat="43.463857" lon="-5.106908">
        <ele>143.535</ele>
        <time>2022-08-27T13:02:06Z</time>
      </trkpt>
      <trkpt lat="43.463822" lon="-5.106701">
        <ele>143.486</ele>
        <time>2022-08-27T13:02:08Z</time>
      </trkpt>
      <trkpt lat="43.463824" lon="-5.106596">
        <ele>143.214</ele>
        <time>2022-08-27T13:02:09Z</time>
      </trkpt>
      <trkpt lat="43.463851" lon="-5.106373">
        <ele>142.609</ele>
        <time>2022-08-27T13:02:11Z</time>
      </trkpt>
      <trkpt lat="43.463866" lon="-5.106255">
        <ele>142.344</ele>
        <time>2022-08-27T13:02:12Z</time>
      </trkpt>
      <trkpt lat="43.463888" lon="-5.106020">
        <ele>142.094</ele>
        <time>2022-08-27T13:02:14Z</time>
      </trkpt>
      <trkpt lat="43.463886" lon="-5.105790">
        <ele>141.675</ele>
        <time>2022-08-27T13:02:16Z</time>
      </trkpt>
      <trkpt lat="43.463884" lon="-5.105555">
        <ele>141.433</ele>
        <time>2022-08-27T13:02:18Z</time>
      </trkpt>
      <trkpt lat="43.463886" lon="-5.105430">
        <ele>141.373</ele>
        <time>2022-08-27T13:02:19Z</time>
      </trkpt>
      <trkpt lat="43.463888" lon="-5.105312">
        <ele>141.159</ele>
        <time>2022-08-27T13:02:20Z</time>
      </trkpt>
      <trkpt lat="43.463885" lon="-5.105195">
        <ele>140.993</ele>
        <time>2022-08-27T13:02:21Z</time>
      </trkpt>
      <trkpt lat="43.463910" lon="-5.104957">
        <ele>140.210</ele>
        <time>2022-08-27T13:02:23Z</time>
      </trkpt>
      <trkpt lat="43.463913" lon="-5.104727">
        <ele>139.957</ele>
        <time>2022-08-27T13:02:25Z</time>
      </trkpt>
      <trkpt lat="43.463923" lon="-5.104489">
        <ele>139.272</ele>
        <time>2022-08-27T13:02:27Z</time>
      </trkpt>
      <trkpt lat="43.463951" lon="-5.104262">
        <ele>138.313</ele>
        <time>2022-08-27T13:02:29Z</time>
      </trkpt>
      <trkpt lat="43.463971" lon="-5.104147">
        <ele>138.114</ele>
        <time>2022-08-27T13:02:30Z</time>
      </trkpt>
      <trkpt lat="43.463993" lon="-5.104035">
        <ele>138.109</ele>
        <time>2022-08-27T13:02:31Z</time>
      </trkpt>
      <trkpt lat="43.464036" lon="-5.103808">
        <ele>137.918</ele>
        <time>2022-08-27T13:02:33Z</time>
      </trkpt>
      <trkpt lat="43.464058" lon="-5.103690">
        <ele>137.558</ele>
        <time>2022-08-27T13:02:34Z</time>
      </trkpt>
      <trkpt lat="43.464080" lon="-5.103460">
        <ele>136.489</ele>
        <time>2022-08-27T13:02:36Z</time>
      </trkpt>
      <trkpt lat="43.464073" lon="-5.103343">
        <ele>136.037</ele>
        <time>2022-08-27T13:02:37Z</time>
      </trkpt>
      <trkpt lat="43.464036" lon="-5.103108">
        <ele>135.377</ele>
        <time>2022-08-27T13:02:39Z</time>
      </trkpt>
      <trkpt lat="43.464014" lon="-5.102991">
        <ele>134.983</ele>
        <time>2022-08-27T13:02:40Z</time>
      </trkpt>
      <trkpt lat="43.463992" lon="-5.102874">
        <ele>134.457</ele>
        <time>2022-08-27T13:02:41Z</time>
      </trkpt>
      <trkpt lat="43.463937" lon="-5.102647">
        <ele>133.374</ele>
        <time>2022-08-27T13:02:43Z</time>
      </trkpt>
      <trkpt lat="43.463905" lon="-5.102537">
        <ele>132.651</ele>
        <time>2022-08-27T13:02:44Z</time>
      </trkpt>
      <trkpt lat="43.463863" lon="-5.102310">
        <ele>131.873</ele>
        <time>2022-08-27T13:02:46Z</time>
      </trkpt>
      <trkpt lat="43.463883" lon="-5.102073">
        <ele>131.085</ele>
        <time>2022-08-27T13:02:48Z</time>
      </trkpt>
      <trkpt lat="43.463945" lon="-5.101856">
        <ele>129.713</ele>
        <time>2022-08-27T13:02:50Z</time>
      </trkpt>
      <trkpt lat="43.463975" lon="-5.101736">
        <ele>129.009</ele>
        <time>2022-08-27T13:02:51Z</time>
      </trkpt>
      <trkpt lat="43.464002" lon="-5.101611">
        <ele>128.688</ele>
        <time>2022-08-27T13:02:52Z</time>
      </trkpt>
      <trkpt lat="43.464032" lon="-5.101491">
        <ele>128.688</ele>
        <time>2022-08-27T13:02:53Z</time>
      </trkpt>
      <trkpt lat="43.464067" lon="-5.101374">
        <ele>128.569</ele>
        <time>2022-08-27T13:02:54Z</time>
      </trkpt>
      <trkpt lat="43.464135" lon="-5.101142">
        <ele>128.027</ele>
        <time>2022-08-27T13:02:56Z</time>
      </trkpt>
      <trkpt lat="43.464182" lon="-5.100902">
        <ele>128.087</ele>
        <time>2022-08-27T13:02:58Z</time>
      </trkpt>
      <trkpt lat="43.464224" lon="-5.100664">
        <ele>127.023</ele>
        <time>2022-08-27T13:03:00Z</time>
      </trkpt>
      <trkpt lat="43.464246" lon="-5.100546">
        <ele>126.737</ele>
        <time>2022-08-27T13:03:01Z</time>
      </trkpt>
      <trkpt lat="43.464283" lon="-5.100311">
        <ele>125.564</ele>
        <time>2022-08-27T13:03:03Z</time>
      </trkpt>
      <trkpt lat="43.464291" lon="-5.100191">
        <ele>124.841</ele>
        <time>2022-08-27T13:03:04Z</time>
      </trkpt>
      <trkpt lat="43.464299" lon="-5.100074">
        <ele>124.188</ele>
        <time>2022-08-27T13:03:05Z</time>
      </trkpt>
      <trkpt lat="43.464307" lon="-5.099959">
        <ele>123.424</ele>
        <time>2022-08-27T13:03:06Z</time>
      </trkpt>
      <trkpt lat="43.464310" lon="-5.099736">
        <ele>122.626</ele>
        <time>2022-08-27T13:03:08Z</time>
      </trkpt>
      <trkpt lat="43.464292" lon="-5.099628">
        <ele>122.109</ele>
        <time>2022-08-27T13:03:09Z</time>
      </trkpt>
      <trkpt lat="43.464257" lon="-5.099528">
        <ele>121.559</ele>
        <time>2022-08-27T13:03:10Z</time>
      </trkpt>
      <trkpt lat="43.464202" lon="-5.099440">
        <ele>120.779</ele>
        <time>2022-08-27T13:03:11Z</time>
      </trkpt>
      <trkpt lat="43.464062" lon="-5.099297">
        <ele>119.180</ele>
        <time>2022-08-27T13:03:13Z</time>
      </trkpt>
      <trkpt lat="43.463995" lon="-5.099215">
        <ele>118.448</ele>
        <time>2022-08-27T13:03:14Z</time>
      </trkpt>
      <trkpt lat="43.463888" lon="-5.099020">
        <ele>117.528</ele>
        <time>2022-08-27T13:03:16Z</time>
      </trkpt>
      <trkpt lat="43.463850" lon="-5.098775">
        <ele>116.514</ele>
        <time>2022-08-27T13:03:18Z</time>
      </trkpt>
      <trkpt lat="43.463853" lon="-5.098650">
        <ele>116.198</ele>
        <time>2022-08-27T13:03:19Z</time>
      </trkpt>
      <trkpt lat="43.463860" lon="-5.098403">
        <ele>115.455</ele>
        <time>2022-08-27T13:03:21Z</time>
      </trkpt>
      <trkpt lat="43.463863" lon="-5.098291">
        <ele>115.122</ele>
        <time>2022-08-27T13:03:22Z</time>
      </trkpt>
      <trkpt lat="43.463866" lon="-5.098058">
        <ele>114.428</ele>
        <time>2022-08-27T13:03:24Z</time>
      </trkpt>
      <trkpt lat="43.463874" lon="-5.097946">
        <ele>113.789</ele>
        <time>2022-08-27T13:03:25Z</time>
      </trkpt>
      <trkpt lat="43.463904" lon="-5.097711">
        <ele>112.517</ele>
        <time>2022-08-27T13:03:27Z</time>
      </trkpt>
      <trkpt lat="43.463949" lon="-5.097483">
        <ele>111.409</ele>
        <time>2022-08-27T13:03:29Z</time>
      </trkpt>
      <trkpt lat="43.463981" lon="-5.097370">
        <ele>111.163</ele>
        <time>2022-08-27T13:03:30Z</time>
      </trkpt>
      <trkpt lat="43.464014" lon="-5.097143">
        <ele>110.483</ele>
        <time>2022-08-27T13:03:32Z</time>
      </trkpt>
      <trkpt lat="43.464024" lon="-5.097023">
        <ele>109.874</ele>
        <time>2022-08-27T13:03:33Z</time>
      </trkpt>
      <trkpt lat="43.464034" lon="-5.096785">
        <ele>109.142</ele>
        <time>2022-08-27T13:03:35Z</time>
      </trkpt>
      <trkpt lat="43.464032" lon="-5.096667">
        <ele>108.652</ele>
        <time>2022-08-27T13:03:36Z</time>
      </trkpt>
      <trkpt lat="43.464029" lon="-5.096550">
        <ele>107.998</ele>
        <time>2022-08-27T13:03:37Z</time>
      </trkpt>
      <trkpt lat="43.464012" lon="-5.096320">
        <ele>106.482</ele>
        <time>2022-08-27T13:03:39Z</time>
      </trkpt>
      <trkpt lat="43.463962" lon="-5.096093">
        <ele>105.239</ele>
        <time>2022-08-27T13:03:41Z</time>
      </trkpt>
      <trkpt lat="43.463862" lon="-5.095900">
        <ele>105.046</ele>
        <time>2022-08-27T13:03:43Z</time>
      </trkpt>
      <trkpt lat="43.463797" lon="-5.095815">
        <ele>105.396</ele>
        <time>2022-08-27T13:03:44Z</time>
      </trkpt>
      <trkpt lat="43.463665" lon="-5.095643">
        <ele>105.431</ele>
        <time>2022-08-27T13:03:46Z</time>
      </trkpt>
      <trkpt lat="43.463623" lon="-5.095536">
        <ele>105.124</ele>
        <time>2022-08-27T13:03:47Z</time>
      </trkpt>
      <trkpt lat="43.463600" lon="-5.095424">
        <ele>104.809</ele>
        <time>2022-08-27T13:03:48Z</time>
      </trkpt>
      <trkpt lat="43.463595" lon="-5.095319">
        <ele>104.330</ele>
        <time>2022-08-27T13:03:49Z</time>
      </trkpt>
      <trkpt lat="43.463657" lon="-5.095136">
        <ele>103.750</ele>
        <time>2022-08-27T13:03:51Z</time>
      </trkpt>
      <trkpt lat="43.463754" lon="-5.094936">
        <ele>103.371</ele>
        <time>2022-08-27T13:03:53Z</time>
      </trkpt>
      <trkpt lat="43.463784" lon="-5.094816">
        <ele>103.129</ele>
        <time>2022-08-27T13:03:54Z</time>
      </trkpt>
      <trkpt lat="43.463799" lon="-5.094696">
        <ele>103.099</ele>
        <time>2022-08-27T13:03:55Z</time>
      </trkpt>
      <trkpt lat="43.463802" lon="-5.094573">
        <ele>103.015</ele>
        <time>2022-08-27T13:03:56Z</time>
      </trkpt>
      <trkpt lat="43.463800" lon="-5.094328">
        <ele>102.889</ele>
        <time>2022-08-27T13:03:58Z</time>
      </trkpt>
      <trkpt lat="43.463785" lon="-5.094085">
        <ele>102.786</ele>
        <time>2022-08-27T13:04:00Z</time>
      </trkpt>
      <trkpt lat="43.463755" lon="-5.093973">
        <ele>102.643</ele>
        <time>2022-08-27T13:04:01Z</time>
      </trkpt>
      <trkpt lat="43.463705" lon="-5.093873">
        <ele>102.559</ele>
        <time>2022-08-27T13:04:02Z</time>
      </trkpt>
      <trkpt lat="43.463587" lon="-5.093686">
        <ele>101.503</ele>
        <time>2022-08-27T13:04:04Z</time>
      </trkpt>
      <trkpt lat="43.463499" lon="-5.093481">
        <ele>100.023</ele>
        <time>2022-08-27T13:04:06Z</time>
      </trkpt>
      <trkpt lat="43.463481" lon="-5.093361">
        <ele>98.909</ele>
        <time>2022-08-27T13:04:07Z</time>
      </trkpt>
      <trkpt lat="43.463476" lon="-5.093241">
        <ele>98.156</ele>
        <time>2022-08-27T13:04:08Z</time>
      </trkpt>
      <trkpt lat="43.463499" lon="-5.093126">
        <ele>97.716</ele>
        <time>2022-08-27T13:04:09Z</time>
      </trkpt>
      <trkpt lat="43.463556" lon="-5.093034">
        <ele>97.487</ele>
        <time>2022-08-27T13:04:10Z</time>
      </trkpt>
      <trkpt lat="43.463743" lon="-5.092914">
        <ele>96.025</ele>
        <time>2022-08-27T13:04:12Z</time>
      </trkpt>
      <trkpt lat="43.463921" lon="-5.092806">
        <ele>94.835</ele>
        <time>2022-08-27T13:04:14Z</time>
      </trkpt>
      <trkpt lat="43.464054" lon="-5.092646">
        <ele>93.881</ele>
        <time>2022-08-27T13:04:16Z</time>
      </trkpt>
      <trkpt lat="43.464106" lon="-5.092431">
        <ele>93.075</ele>
        <time>2022-08-27T13:04:18Z</time>
      </trkpt>
      <trkpt lat="43.464071" lon="-5.092186">
        <ele>92.012</ele>
        <time>2022-08-27T13:04:20Z</time>
      </trkpt>
      <trkpt lat="43.463904" lon="-5.092016">
        <ele>91.369</ele>
        <time>2022-08-27T13:04:22Z</time>
      </trkpt>
      <trkpt lat="43.463814" lon="-5.091944">
        <ele>91.181</ele>
        <time>2022-08-27T13:04:23Z</time>
      </trkpt>
      <trkpt lat="43.463727" lon="-5.091881">
        <ele>90.561</ele>
        <time>2022-08-27T13:04:24Z</time>
      </trkpt>
      <trkpt lat="43.463535" lon="-5.091794">
        <ele>89.817</ele>
        <time>2022-08-27T13:04:26Z</time>
      </trkpt>
      <trkpt lat="43.463443" lon="-5.091741">
        <ele>89.809</ele>
        <time>2022-08-27T13:04:27Z</time>
      </trkpt>
      <trkpt lat="43.463288" lon="-5.091616">
        <ele>90.369</ele>
        <time>2022-08-27T13:04:29Z</time>
      </trkpt>
      <trkpt lat="43.463193" lon="-5.091406">
        <ele>89.929</ele>
        <time>2022-08-27T13:04:31Z</time>
      </trkpt>
      <trkpt lat="43.463175" lon="-5.091283">
        <ele>89.810</ele>
        <time>2022-08-27T13:04:32Z</time>
      </trkpt>
      <trkpt lat="43.463173" lon="-5.091151">
        <ele>89.598</ele>
        <time>2022-08-27T13:04:33Z</time>
      </trkpt>
      <trkpt lat="43.463190" lon="-5.091018">
        <ele>88.798</ele>
        <time>2022-08-27T13:04:34Z</time>
      </trkpt>
      <trkpt lat="43.463258" lon="-5.090766">
        <ele>87.694</ele>
        <time>2022-08-27T13:04:36Z</time>
      </trkpt>
      <trkpt lat="43.463303" lon="-5.090654">
        <ele>86.948</ele>
        <time>2022-08-27T13:04:37Z</time>
      </trkpt>
      <trkpt lat="43.463431" lon="-5.090499">
        <ele>85.925</ele>
        <time>2022-08-27T13:04:39Z</time>
      </trkpt>
      <trkpt lat="43.463508" lon="-5.090461">
        <ele>85.662</ele>
        <time>2022-08-27T13:04:40Z</time>
      </trkpt>
      <trkpt lat="43.463668" lon="-5.090468">
        <ele>84.681</ele>
        <time>2022-08-27T13:04:42Z</time>
      </trkpt>
      <trkpt lat="43.463811" lon="-5.090503">
        <ele>83.961</ele>
        <time>2022-08-27T13:04:44Z</time>
      </trkpt>
      <trkpt lat="43.463878" lon="-5.090515">
        <ele>83.717</ele>
        <time>2022-08-27T13:04:45Z</time>
      </trkpt>
      <trkpt lat="43.464026" lon="-5.090480">
        <ele>83.309</ele>
        <time>2022-08-27T13:04:47Z</time>
      </trkpt>
      <trkpt lat="43.464163" lon="-5.090412">
        <ele>82.389</ele>
        <time>2022-08-27T13:04:49Z</time>
      </trkpt>
      <trkpt lat="43.464221" lon="-5.090367">
        <ele>81.719</ele>
        <time>2022-08-27T13:04:50Z</time>
      </trkpt>
      <trkpt lat="43.464308" lon="-5.090254">
        <ele>80.070</ele>
        <time>2022-08-27T13:04:52Z</time>
      </trkpt>
      <trkpt lat="43.464343" lon="-5.090191">
        <ele>79.698</ele>
        <time>2022-08-27T13:04:53Z</time>
      </trkpt>
      <trkpt lat="43.464386" lon="-5.090068">
        <ele>78.698</ele>
        <time>2022-08-27T13:04:55Z</time>
      </trkpt>
      <trkpt lat="43.464406" lon="-5.090010">
        <ele>77.914</ele>
        <time>2022-08-27T13:04:56Z</time>
      </trkpt>
      <trkpt lat="43.464448" lon="-5.089912">
        <ele>77.298</ele>
        <time>2022-08-27T13:04:58Z</time>
      </trkpt>
      <trkpt lat="43.464523" lon="-5.089837">
        <ele>76.915</ele>
        <time>2022-08-27T13:05:00Z</time>
      </trkpt>
      <trkpt lat="43.464610" lon="-5.089812">
        <ele>77.112</ele>
        <time>2022-08-27T13:05:02Z</time>
      </trkpt>
      <trkpt lat="43.464658" lon="-5.089822">
        <ele>77.544</ele>
        <time>2022-08-27T13:05:03Z</time>
      </trkpt>
      <trkpt lat="43.464745" lon="-5.089880">
        <ele>79.205</ele>
        <time>2022-08-27T13:05:05Z</time>
      </trkpt>
      <trkpt lat="43.464803" lon="-5.089952">
        <ele>80.115</ele>
        <time>2022-08-27T13:05:07Z</time>
      </trkpt>
      <trkpt lat="43.464768" lon="-5.090119">
        <ele>79.809</ele>
        <time>2022-08-27T13:05:19Z</time>
      </trkpt>
      <trkpt lat="43.464831" lon="-5.090042">
        <ele>81.875</ele>
        <time>2022-08-27T13:05:58Z</time>
      </trkpt>
      <trkpt lat="43.464874" lon="-5.090085">
        <ele>81.875</ele>
        <time>2022-08-27T13:06:13Z</time>
      </trkpt>
      <trkpt lat="43.464934" lon="-5.090137">
        <ele>81.816</ele>
        <time>2022-08-27T13:06:15Z</time>
      </trkpt>
      <trkpt lat="43.465006" lon="-5.090175">
        <ele>81.824</ele>
        <time>2022-08-27T13:06:17Z</time>
      </trkpt>
      <trkpt lat="43.465084" lon="-5.090188">
        <ele>81.684</ele>
        <time>2022-08-27T13:06:19Z</time>
      </trkpt>
      <trkpt lat="43.465162" lon="-5.090170">
        <ele>80.470</ele>
        <time>2022-08-27T13:06:21Z</time>
      </trkpt>
      <trkpt lat="43.465207" lon="-5.090140">
        <ele>79.234</ele>
        <time>2022-08-27T13:06:22Z</time>
      </trkpt>
      <trkpt lat="43.465294" lon="-5.090033">
        <ele>77.771</ele>
        <time>2022-08-27T13:06:24Z</time>
      </trkpt>
      <trkpt lat="43.465341" lon="-5.089875">
        <ele>76.198</ele>
        <time>2022-08-27T13:06:26Z</time>
      </trkpt>
      <trkpt lat="43.465363" lon="-5.089667">
        <ele>73.966</ele>
        <time>2022-08-27T13:06:28Z</time>
      </trkpt>
      <trkpt lat="43.465365" lon="-5.089420">
        <ele>71.829</ele>
        <time>2022-08-27T13:06:30Z</time>
      </trkpt>
      <trkpt lat="43.465355" lon="-5.089292">
        <ele>71.121</ele>
        <time>2022-08-27T13:06:31Z</time>
      </trkpt>
      <trkpt lat="43.465325" lon="-5.089040">
        <ele>69.109</ele>
        <time>2022-08-27T13:06:33Z</time>
      </trkpt>
      <trkpt lat="43.465298" lon="-5.088807">
        <ele>67.677</ele>
        <time>2022-08-27T13:06:35Z</time>
      </trkpt>
      <trkpt lat="43.465303" lon="-5.088610">
        <ele>66.397</ele>
        <time>2022-08-27T13:06:37Z</time>
      </trkpt>
      <trkpt lat="43.465320" lon="-5.088507">
        <ele>65.678</ele>
        <time>2022-08-27T13:06:38Z</time>
      </trkpt>
      <trkpt lat="43.465348" lon="-5.088415">
        <ele>65.116</ele>
        <time>2022-08-27T13:06:39Z</time>
      </trkpt>
      <trkpt lat="43.465440" lon="-5.088285">
        <ele>64.896</ele>
        <time>2022-08-27T13:06:41Z</time>
      </trkpt>
      <trkpt lat="43.465483" lon="-5.088218">
        <ele>64.422</ele>
        <time>2022-08-27T13:06:42Z</time>
      </trkpt>
      <trkpt lat="43.465560" lon="-5.088061">
        <ele>63.446</ele>
        <time>2022-08-27T13:06:44Z</time>
      </trkpt>
      <trkpt lat="43.465595" lon="-5.087973">
        <ele>62.773</ele>
        <time>2022-08-27T13:06:45Z</time>
      </trkpt>
      <trkpt lat="43.465673" lon="-5.087780">
        <ele>59.230</ele>
        <time>2022-08-27T13:06:47Z</time>
      </trkpt>
      <trkpt lat="43.465725" lon="-5.087692">
        <ele>58.035</ele>
        <time>2022-08-27T13:06:48Z</time>
      </trkpt>
      <trkpt lat="43.465837" lon="-5.087547">
        <ele>55.386</ele>
        <time>2022-08-27T13:06:50Z</time>
      </trkpt>
      <trkpt lat="43.465947" lon="-5.087477">
        <ele>53.614</ele>
        <time>2022-08-27T13:06:52Z</time>
      </trkpt>
      <trkpt lat="43.466037" lon="-5.087444">
        <ele>52.409</ele>
        <time>2022-08-27T13:06:54Z</time>
      </trkpt>
      <trkpt lat="43.466122" lon="-5.087431">
        <ele>51.734</ele>
        <time>2022-08-27T13:06:56Z</time>
      </trkpt>
      <trkpt lat="43.466214" lon="-5.087446">
        <ele>51.484</ele>
        <time>2022-08-27T13:06:58Z</time>
      </trkpt>
      <trkpt lat="43.466266" lon="-5.087458">
        <ele>51.335</ele>
        <time>2022-08-27T13:06:59Z</time>
      </trkpt>
      <trkpt lat="43.466363" lon="-5.087476">
        <ele>51.313</ele>
        <time>2022-08-27T13:07:01Z</time>
      </trkpt>
      <trkpt lat="43.466458" lon="-5.087508">
        <ele>51.473</ele>
        <time>2022-08-27T13:07:03Z</time>
      </trkpt>
      <trkpt lat="43.466510" lon="-5.087525">
        <ele>51.519</ele>
        <time>2022-08-27T13:07:04Z</time>
      </trkpt>
      <trkpt lat="43.466568" lon="-5.087537">
        <ele>51.563</ele>
        <time>2022-08-27T13:07:05Z</time>
      </trkpt>
      <trkpt lat="43.466688" lon="-5.087562">
        <ele>51.360</ele>
        <time>2022-08-27T13:07:07Z</time>
      </trkpt>
      <trkpt lat="43.466748" lon="-5.087570">
        <ele>51.247</ele>
        <time>2022-08-27T13:07:08Z</time>
      </trkpt>
      <trkpt lat="43.466806" lon="-5.087580">
        <ele>51.144</ele>
        <time>2022-08-27T13:07:09Z</time>
      </trkpt>
      <trkpt lat="43.466906" lon="-5.087607">
        <ele>50.805</ele>
        <time>2022-08-27T13:07:11Z</time>
      </trkpt>
      <trkpt lat="43.467003" lon="-5.087634">
        <ele>50.515</ele>
        <time>2022-08-27T13:07:13Z</time>
      </trkpt>
      <trkpt lat="43.467103" lon="-5.087657">
        <ele>50.509</ele>
        <time>2022-08-27T13:07:15Z</time>
      </trkpt>
      <trkpt lat="43.467148" lon="-5.087670">
        <ele>50.555</ele>
        <time>2022-08-27T13:07:16Z</time>
      </trkpt>
      <trkpt lat="43.467241" lon="-5.087690">
        <ele>50.595</ele>
        <time>2022-08-27T13:07:18Z</time>
      </trkpt>
      <trkpt lat="43.467291" lon="-5.087703">
        <ele>50.666</ele>
        <time>2022-08-27T13:07:19Z</time>
      </trkpt>
      <trkpt lat="43.467393" lon="-5.087731">
        <ele>50.854</ele>
        <time>2022-08-27T13:07:21Z</time>
      </trkpt>
      <trkpt lat="43.467450" lon="-5.087744">
        <ele>50.824</ele>
        <time>2022-08-27T13:07:22Z</time>
      </trkpt>
      <trkpt lat="43.467505" lon="-5.087756">
        <ele>50.710</ele>
        <time>2022-08-27T13:07:23Z</time>
      </trkpt>
      <trkpt lat="43.467557" lon="-5.087768">
        <ele>50.584</ele>
        <time>2022-08-27T13:07:24Z</time>
      </trkpt>
      <trkpt lat="43.467609" lon="-5.087781">
        <ele>50.521</ele>
        <time>2022-08-27T13:07:25Z</time>
      </trkpt>
      <trkpt lat="43.467709" lon="-5.087798">
        <ele>50.578</ele>
        <time>2022-08-27T13:07:27Z</time>
      </trkpt>
      <trkpt lat="43.467757" lon="-5.087783">
        <ele>50.516</ele>
        <time>2022-08-27T13:07:28Z</time>
      </trkpt>
      <trkpt lat="43.467800" lon="-5.087748">
        <ele>50.576</ele>
        <time>2022-08-27T13:07:29Z</time>
      </trkpt>
      <trkpt lat="43.467875" lon="-5.087646">
        <ele>50.813</ele>
        <time>2022-08-27T13:07:31Z</time>
      </trkpt>
      <trkpt lat="43.467903" lon="-5.087579">
        <ele>51.409</ele>
        <time>2022-08-27T13:07:32Z</time>
      </trkpt>
      <trkpt lat="43.467908" lon="-5.087504">
        <ele>52.012</ele>
        <time>2022-08-27T13:07:33Z</time>
      </trkpt>
      <trkpt lat="43.467903" lon="-5.087426">
        <ele>52.522</ele>
        <time>2022-08-27T13:07:34Z</time>
      </trkpt>
      <trkpt lat="43.467886" lon="-5.087268">
        <ele>53.523</ele>
        <time>2022-08-27T13:07:36Z</time>
      </trkpt>
      <trkpt lat="43.467879" lon="-5.087190">
        <ele>53.511</ele>
        <time>2022-08-27T13:07:37Z</time>
      </trkpt>
      <trkpt lat="43.467869" lon="-5.087028">
        <ele>53.491</ele>
        <time>2022-08-27T13:07:39Z</time>
      </trkpt>
      <trkpt lat="43.467862" lon="-5.086860">
        <ele>52.727</ele>
        <time>2022-08-27T13:07:41Z</time>
      </trkpt>
      <trkpt lat="43.467860" lon="-5.086773">
        <ele>52.791</ele>
        <time>2022-08-27T13:07:42Z</time>
      </trkpt>
      <trkpt lat="43.467853" lon="-5.086601">
        <ele>52.888</ele>
        <time>2022-08-27T13:07:44Z</time>
      </trkpt>
      <trkpt lat="43.467843" lon="-5.086431">
        <ele>52.875</ele>
        <time>2022-08-27T13:07:46Z</time>
      </trkpt>
      <trkpt lat="43.467841" lon="-5.086266">
        <ele>52.535</ele>
        <time>2022-08-27T13:07:48Z</time>
      </trkpt>
      <trkpt lat="43.467838" lon="-5.086186">
        <ele>51.786</ele>
        <time>2022-08-27T13:07:49Z</time>
      </trkpt>
      <trkpt lat="43.467828" lon="-5.086031">
        <ele>50.914</ele>
        <time>2022-08-27T13:07:51Z</time>
      </trkpt>
      <trkpt lat="43.467826" lon="-5.085949">
        <ele>50.809</ele>
        <time>2022-08-27T13:07:52Z</time>
      </trkpt>
      <trkpt lat="43.467823" lon="-5.085871">
        <ele>50.774</ele>
        <time>2022-08-27T13:07:53Z</time>
      </trkpt>
      <trkpt lat="43.467820" lon="-5.085711">
        <ele>50.574</ele>
        <time>2022-08-27T13:07:55Z</time>
      </trkpt>
      <trkpt lat="43.467810" lon="-5.085558">
        <ele>50.555</ele>
        <time>2022-08-27T13:07:57Z</time>
      </trkpt>
      <trkpt lat="43.467808" lon="-5.085486">
        <ele>50.833</ele>
        <time>2022-08-27T13:07:58Z</time>
      </trkpt>
      <trkpt lat="43.467803" lon="-5.085338">
        <ele>50.823</ele>
        <time>2022-08-27T13:08:00Z</time>
      </trkpt>
      <trkpt lat="43.467798" lon="-5.085265">
        <ele>50.679</ele>
        <time>2022-08-27T13:08:01Z</time>
      </trkpt>
      <trkpt lat="43.467790" lon="-5.085193">
        <ele>50.653</ele>
        <time>2022-08-27T13:08:02Z</time>
      </trkpt>
      <trkpt lat="43.467787" lon="-5.085121">
        <ele>50.680</ele>
        <time>2022-08-27T13:08:03Z</time>
      </trkpt>
      <trkpt lat="43.467777" lon="-5.084974">
        <ele>50.427</ele>
        <time>2022-08-27T13:08:05Z</time>
      </trkpt>
      <trkpt lat="43.467772" lon="-5.084899">
        <ele>50.155</ele>
        <time>2022-08-27T13:08:06Z</time>
      </trkpt>
      <trkpt lat="43.467769" lon="-5.084762">
        <ele>49.807</ele>
        <time>2022-08-27T13:08:08Z</time>
      </trkpt>
      <trkpt lat="43.467766" lon="-5.084694">
        <ele>49.617</ele>
        <time>2022-08-27T13:08:09Z</time>
      </trkpt>
      <trkpt lat="43.467758" lon="-5.084561">
        <ele>49.109</ele>
        <time>2022-08-27T13:08:11Z</time>
      </trkpt>
      <trkpt lat="43.467755" lon="-5.084496">
        <ele>48.936</ele>
        <time>2022-08-27T13:08:12Z</time>
      </trkpt>
      <trkpt lat="43.467750" lon="-5.084433">
        <ele>48.856</ele>
        <time>2022-08-27T13:08:13Z</time>
      </trkpt>
      <trkpt lat="43.467747" lon="-5.084370">
        <ele>48.837</ele>
        <time>2022-08-27T13:08:14Z</time>
      </trkpt>
      <trkpt lat="43.467732" lon="-5.084250">
        <ele>48.875</ele>
        <time>2022-08-27T13:08:16Z</time>
      </trkpt>
      <trkpt lat="43.467720" lon="-5.084123">
        <ele>49.115</ele>
        <time>2022-08-27T13:08:18Z</time>
      </trkpt>
      <trkpt lat="43.467708" lon="-5.083995">
        <ele>49.761</ele>
        <time>2022-08-27T13:08:20Z</time>
      </trkpt>
      <trkpt lat="43.467700" lon="-5.083928">
        <ele>49.895</ele>
        <time>2022-08-27T13:08:21Z</time>
      </trkpt>
      <trkpt lat="43.467690" lon="-5.083800">
        <ele>49.932</ele>
        <time>2022-08-27T13:08:23Z</time>
      </trkpt>
      <trkpt lat="43.467687" lon="-5.083737">
        <ele>49.979</ele>
        <time>2022-08-27T13:08:24Z</time>
      </trkpt>
      <trkpt lat="43.467680" lon="-5.083614">
        <ele>49.426</ele>
        <time>2022-08-27T13:08:26Z</time>
      </trkpt>
      <trkpt lat="43.467675" lon="-5.083489">
        <ele>48.547</ele>
        <time>2022-08-27T13:08:28Z</time>
      </trkpt>
      <trkpt lat="43.467670" lon="-5.083366">
        <ele>47.711</ele>
        <time>2022-08-27T13:08:30Z</time>
      </trkpt>
      <trkpt lat="43.467663" lon="-5.083241">
        <ele>47.709</ele>
        <time>2022-08-27T13:08:32Z</time>
      </trkpt>
      <trkpt lat="43.467660" lon="-5.083176">
        <ele>47.783</ele>
        <time>2022-08-27T13:08:33Z</time>
      </trkpt>
      <trkpt lat="43.467657" lon="-5.083113">
        <ele>47.823</ele>
        <time>2022-08-27T13:08:34Z</time>
      </trkpt>
      <trkpt lat="43.467652" lon="-5.083048">
        <ele>47.864</ele>
        <time>2022-08-27T13:08:35Z</time>
      </trkpt>
      <trkpt lat="43.467644" lon="-5.082918">
        <ele>47.932</ele>
        <time>2022-08-27T13:08:37Z</time>
      </trkpt>
      <trkpt lat="43.467639" lon="-5.082853">
        <ele>47.932</ele>
        <time>2022-08-27T13:08:38Z</time>
      </trkpt>
      <trkpt lat="43.467629" lon="-5.082723">
        <ele>48.128</ele>
        <time>2022-08-27T13:08:40Z</time>
      </trkpt>
      <trkpt lat="43.467622" lon="-5.082660">
        <ele>48.342</ele>
        <time>2022-08-27T13:08:41Z</time>
      </trkpt>
      <trkpt lat="43.467609" lon="-5.082528">
        <ele>48.629</ele>
        <time>2022-08-27T13:08:43Z</time>
      </trkpt>
      <trkpt lat="43.467602" lon="-5.082465">
        <ele>48.646</ele>
        <time>2022-08-27T13:08:44Z</time>
      </trkpt>
      <trkpt lat="43.467594" lon="-5.082402">
        <ele>48.664</ele>
        <time>2022-08-27T13:08:45Z</time>
      </trkpt>
      <trkpt lat="43.467579" lon="-5.082277">
        <ele>48.406</ele>
        <time>2022-08-27T13:08:47Z</time>
      </trkpt>
      <trkpt lat="43.467574" lon="-5.082155">
        <ele>48.116</ele>
        <time>2022-08-27T13:08:49Z</time>
      </trkpt>
      <trkpt lat="43.467564" lon="-5.082033">
        <ele>48.109</ele>
        <time>2022-08-27T13:08:51Z</time>
      </trkpt>
      <trkpt lat="43.467554" lon="-5.081970">
        <ele>48.157</ele>
        <time>2022-08-27T13:08:52Z</time>
      </trkpt>
      <trkpt lat="43.467539" lon="-5.081852">
        <ele>48.217</ele>
        <time>2022-08-27T13:08:54Z</time>
      </trkpt>
      <trkpt lat="43.467526" lon="-5.081729">
        <ele>48.438</ele>
        <time>2022-08-27T13:08:56Z</time>
      </trkpt>
      <trkpt lat="43.467524" lon="-5.081664">
        <ele>48.796</ele>
        <time>2022-08-27T13:08:57Z</time>
      </trkpt>
      <trkpt lat="43.467514" lon="-5.081534">
        <ele>49.286</ele>
        <time>2022-08-27T13:08:59Z</time>
      </trkpt>
      <trkpt lat="43.467507" lon="-5.081471">
        <ele>49.732</ele>
        <time>2022-08-27T13:09:00Z</time>
      </trkpt>
      <trkpt lat="43.467500" lon="-5.081403">
        <ele>49.936</ele>
        <time>2022-08-27T13:09:01Z</time>
      </trkpt>
      <trkpt lat="43.467485" lon="-5.081273">
        <ele>50.333</ele>
        <time>2022-08-27T13:09:03Z</time>
      </trkpt>
      <trkpt lat="43.467467" lon="-5.081143">
        <ele>50.670</ele>
        <time>2022-08-27T13:09:05Z</time>
      </trkpt>
      <trkpt lat="43.467459" lon="-5.081076">
        <ele>50.685</ele>
        <time>2022-08-27T13:09:06Z</time>
      </trkpt>
      <trkpt lat="43.467454" lon="-5.081008">
        <ele>50.789</ele>
        <time>2022-08-27T13:09:07Z</time>
      </trkpt>
      <trkpt lat="43.467441" lon="-5.080875">
        <ele>50.617</ele>
        <time>2022-08-27T13:09:09Z</time>
      </trkpt>
      <trkpt lat="43.467424" lon="-5.080753">
        <ele>50.409</ele>
        <time>2022-08-27T13:09:11Z</time>
      </trkpt>
      <trkpt lat="43.467411" lon="-5.080636">
        <ele>49.999</ele>
        <time>2022-08-27T13:09:13Z</time>
      </trkpt>
      <trkpt lat="43.467398" lon="-5.080518">
        <ele>49.349</ele>
        <time>2022-08-27T13:09:15Z</time>
      </trkpt>
      <trkpt lat="43.467381" lon="-5.080398">
        <ele>48.860</ele>
        <time>2022-08-27T13:09:17Z</time>
      </trkpt>
      <trkpt lat="43.467364" lon="-5.080270">
        <ele>48.298</ele>
        <time>2022-08-27T13:09:19Z</time>
      </trkpt>
      <trkpt lat="43.467359" lon="-5.080208">
        <ele>48.038</ele>
        <time>2022-08-27T13:09:20Z</time>
      </trkpt>
      <trkpt lat="43.467347" lon="-5.080080">
        <ele>47.934</ele>
        <time>2022-08-27T13:09:22Z</time>
      </trkpt>
      <trkpt lat="43.467340" lon="-5.080018">
        <ele>48.038</ele>
        <time>2022-08-27T13:09:23Z</time>
      </trkpt>
      <trkpt lat="43.467328" lon="-5.079891">
        <ele>48.015</ele>
        <time>2022-08-27T13:09:25Z</time>
      </trkpt>
      <trkpt lat="43.467315" lon="-5.079763">
        <ele>48.162</ele>
        <time>2022-08-27T13:09:27Z</time>
      </trkpt>
      <trkpt lat="43.467300" lon="-5.079633">
        <ele>48.184</ele>
        <time>2022-08-27T13:09:29Z</time>
      </trkpt>
      <trkpt lat="43.467292" lon="-5.079568">
        <ele>48.107</ele>
        <time>2022-08-27T13:09:30Z</time>
      </trkpt>
      <trkpt lat="43.467269" lon="-5.079438">
        <ele>47.917</ele>
        <time>2022-08-27T13:09:32Z</time>
      </trkpt>
      <trkpt lat="43.467249" lon="-5.079308">
        <ele>47.709</ele>
        <time>2022-08-27T13:09:34Z</time>
      </trkpt>
      <trkpt lat="43.467227" lon="-5.079180">
        <ele>47.799</ele>
        <time>2022-08-27T13:09:36Z</time>
      </trkpt>
      <trkpt lat="43.467219" lon="-5.079118">
        <ele>47.769</ele>
        <time>2022-08-27T13:09:37Z</time>
      </trkpt>
      <trkpt lat="43.467211" lon="-5.079056">
        <ele>47.880</ele>
        <time>2022-08-27T13:09:38Z</time>
      </trkpt>
      <trkpt lat="43.467193" lon="-5.078933">
        <ele>47.828</ele>
        <time>2022-08-27T13:09:40Z</time>
      </trkpt>
      <trkpt lat="43.467185" lon="-5.078870">
        <ele>47.928</ele>
        <time>2022-08-27T13:09:41Z</time>
      </trkpt>
      <trkpt lat="43.467158" lon="-5.078748">
        <ele>47.984</ele>
        <time>2022-08-27T13:09:43Z</time>
      </trkpt>
      <trkpt lat="43.467143" lon="-5.078683">
        <ele>48.188</ele>
        <time>2022-08-27T13:09:44Z</time>
      </trkpt>
      <trkpt lat="43.467113" lon="-5.078553">
        <ele>48.325</ele>
        <time>2022-08-27T13:09:46Z</time>
      </trkpt>
      <trkpt lat="43.467075" lon="-5.078433">
        <ele>48.372</ele>
        <time>2022-08-27T13:09:48Z</time>
      </trkpt>
      <trkpt lat="43.467050" lon="-5.078373">
        <ele>48.355</ele>
        <time>2022-08-27T13:09:49Z</time>
      </trkpt>
      <trkpt lat="43.467005" lon="-5.078258">
        <ele>47.607</ele>
        <time>2022-08-27T13:09:51Z</time>
      </trkpt>
      <trkpt lat="43.466957" lon="-5.078148">
        <ele>46.617</ele>
        <time>2022-08-27T13:09:53Z</time>
      </trkpt>
      <trkpt lat="43.466905" lon="-5.078036">
        <ele>46.109</ele>
        <time>2022-08-27T13:09:55Z</time>
      </trkpt>
      <trkpt lat="43.466852" lon="-5.077933">
        <ele>46.076</ele>
        <time>2022-08-27T13:09:57Z</time>
      </trkpt>
      <trkpt lat="43.466824" lon="-5.077885">
        <ele>45.916</ele>
        <time>2022-08-27T13:09:58Z</time>
      </trkpt>
      <trkpt lat="43.466771" lon="-5.077787">
        <ele>45.797</ele>
        <time>2022-08-27T13:10:00Z</time>
      </trkpt>
      <trkpt lat="43.466723" lon="-5.077684">
        <ele>45.365</ele>
        <time>2022-08-27T13:10:02Z</time>
      </trkpt>
      <trkpt lat="43.466698" lon="-5.077629">
        <ele>45.325</ele>
        <time>2022-08-27T13:10:03Z</time>
      </trkpt>
      <trkpt lat="43.466643" lon="-5.077517">
        <ele>44.791</ele>
        <time>2022-08-27T13:10:05Z</time>
      </trkpt>
      <trkpt lat="43.466588" lon="-5.077404">
        <ele>44.775</ele>
        <time>2022-08-27T13:10:07Z</time>
      </trkpt>
      <trkpt lat="43.466565" lon="-5.077346">
        <ele>44.812</ele>
        <time>2022-08-27T13:10:08Z</time>
      </trkpt>
      <trkpt lat="43.466512" lon="-5.077234">
        <ele>44.939</ele>
        <time>2022-08-27T13:10:10Z</time>
      </trkpt>
      <trkpt lat="43.466487" lon="-5.077177">
        <ele>44.972</ele>
        <time>2022-08-27T13:10:11Z</time>
      </trkpt>
      <trkpt lat="43.466435" lon="-5.077062">
        <ele>45.213</ele>
        <time>2022-08-27T13:10:13Z</time>
      </trkpt>
      <trkpt lat="43.466408" lon="-5.077007">
        <ele>45.214</ele>
        <time>2022-08-27T13:10:14Z</time>
      </trkpt>
      <trkpt lat="43.466355" lon="-5.076900">
        <ele>45.309</ele>
        <time>2022-08-27T13:10:16Z</time>
      </trkpt>
      <trkpt lat="43.466330" lon="-5.076848">
        <ele>45.458</ele>
        <time>2022-08-27T13:10:17Z</time>
      </trkpt>
      <trkpt lat="43.466280" lon="-5.076745">
        <ele>45.718</ele>
        <time>2022-08-27T13:10:19Z</time>
      </trkpt>
      <trkpt lat="43.466230" lon="-5.076650">
        <ele>46.269</ele>
        <time>2022-08-27T13:10:21Z</time>
      </trkpt>
      <trkpt lat="43.466172" lon="-5.076543">
        <ele>46.217</ele>
        <time>2022-08-27T13:10:23Z</time>
      </trkpt>
      <trkpt lat="43.466127" lon="-5.076436">
        <ele>46.587</ele>
        <time>2022-08-27T13:10:24Z</time>
      </trkpt>
      <trkpt lat="43.466097" lon="-5.076379">
        <ele>47.463</ele>
        <time>2022-08-27T13:10:27Z</time>
      </trkpt>
      <trkpt lat="43.466060" lon="-5.076297">
        <ele>47.657</ele>
        <time>2022-08-27T13:10:28Z</time>
      </trkpt>
      <trkpt lat="43.466022" lon="-5.076217">
        <ele>47.534</ele>
        <time>2022-08-27T13:10:31Z</time>
      </trkpt>
      <trkpt lat="43.465982" lon="-5.076135">
        <ele>46.971</ele>
        <time>2022-08-27T13:10:33Z</time>
      </trkpt>
      <trkpt lat="43.465939" lon="-5.076053">
        <ele>45.815</ele>
        <time>2022-08-27T13:10:35Z</time>
      </trkpt>
      <trkpt lat="43.465896" lon="-5.075966">
        <ele>45.765</ele>
        <time>2022-08-27T13:10:37Z</time>
      </trkpt>
      <trkpt lat="43.465853" lon="-5.075871">
        <ele>45.511</ele>
        <time>2022-08-27T13:10:39Z</time>
      </trkpt>
      <trkpt lat="43.465808" lon="-5.075778">
        <ele>45.409</ele>
        <time>2022-08-27T13:10:41Z</time>
      </trkpt>
      <trkpt lat="43.465765" lon="-5.075683">
        <ele>45.842</ele>
        <time>2022-08-27T13:10:43Z</time>
      </trkpt>
      <trkpt lat="43.465723" lon="-5.075586">
        <ele>45.932</ele>
        <time>2022-08-27T13:10:45Z</time>
      </trkpt>
      <trkpt lat="43.465683" lon="-5.075493">
        <ele>46.263</ele>
        <time>2022-08-27T13:10:47Z</time>
      </trkpt>
      <trkpt lat="43.465633" lon="-5.075410">
        <ele>46.231</ele>
        <time>2022-08-27T13:10:49Z</time>
      </trkpt>
      <trkpt lat="43.465588" lon="-5.075328">
        <ele>46.471</ele>
        <time>2022-08-27T13:10:51Z</time>
      </trkpt>
      <trkpt lat="43.465600" lon="-5.075235">
        <ele>46.677</ele>
        <time>2022-08-27T13:10:53Z</time>
      </trkpt>
      <trkpt lat="43.465675" lon="-5.075193">
        <ele>46.911</ele>
        <time>2022-08-27T13:10:55Z</time>
      </trkpt>
      <trkpt lat="43.465753" lon="-5.075213">
        <ele>47.248</ele>
        <time>2022-08-27T13:10:57Z</time>
      </trkpt>
      <trkpt lat="43.465838" lon="-5.075230">
        <ele>48.355</ele>
        <time>2022-08-27T13:10:59Z</time>
      </trkpt>
      <trkpt lat="43.465918" lon="-5.075213">
        <ele>48.781</ele>
        <time>2022-08-27T13:11:01Z</time>
      </trkpt>
      <trkpt lat="43.465990" lon="-5.075191">
        <ele>49.761</ele>
        <time>2022-08-27T13:11:02Z</time>
      </trkpt>
      <trkpt lat="43.466065" lon="-5.075158">
        <ele>50.617</ele>
        <time>2022-08-27T13:11:05Z</time>
      </trkpt>
      <trkpt lat="43.466142" lon="-5.075140">
        <ele>50.909</ele>
        <time>2022-08-27T13:11:07Z</time>
      </trkpt>
      <trkpt lat="43.466212" lon="-5.075123">
        <ele>50.999</ele>
        <time>2022-08-27T13:11:09Z</time>
      </trkpt>
      <trkpt lat="43.466275" lon="-5.075098">
        <ele>51.059</ele>
        <time>2022-08-27T13:11:11Z</time>
      </trkpt>
      <trkpt lat="43.466330" lon="-5.075075">
        <ele>51.450</ele>
        <time>2022-08-27T13:11:13Z</time>
      </trkpt>
      <trkpt lat="43.466378" lon="-5.075058">
        <ele>51.868</ele>
        <time>2022-08-27T13:11:15Z</time>
      </trkpt>
      <trkpt lat="43.466425" lon="-5.075025">
        <ele>52.958</ele>
        <time>2022-08-27T13:11:18Z</time>
      </trkpt>
      <trkpt lat="43.466475" lon="-5.075005">
        <ele>53.734</ele>
        <time>2022-08-27T13:11:27Z</time>
      </trkpt>
      <trkpt lat="43.466523" lon="-5.075055">
        <ele>53.718</ele>
        <time>2022-08-27T13:11:30Z</time>
      </trkpt>
      <trkpt lat="43.466556" lon="-5.075107">
        <ele>53.875</ele>
        <time>2022-08-27T13:11:32Z</time>
      </trkpt>
      <trkpt lat="43.466588" lon="-5.075159">
        <ele>53.932</ele>
        <time>2022-08-27T13:11:34Z</time>
      </trkpt>
      <trkpt lat="43.466621" lon="-5.075206">
        <ele>54.049</ele>
        <time>2022-08-27T13:11:36Z</time>
      </trkpt>
      <trkpt lat="43.466663" lon="-5.075268">
        <ele>54.002</ele>
        <time>2022-08-27T13:11:39Z</time>
      </trkpt>
      <trkpt lat="43.466705" lon="-5.075001">
        <ele>53.722</ele>
        <time>2022-08-27T13:11:59Z</time>
      </trkpt>
      <trkpt lat="43.466737" lon="-5.074614">
        <ele>59.709</ele>
        <time>2022-08-27T13:12:04Z</time>
      </trkpt>
      <trkpt lat="43.466705" lon="-5.074891">
        <ele>62.635</ele>
        <time>2022-08-27T13:12:13Z</time>
      </trkpt>
      <trkpt lat="43.466677" lon="-5.075069">
        <ele>62.665</ele>
        <time>2022-08-27T13:12:21Z</time>
      </trkpt>
      <trkpt lat="43.466679" lon="-5.075279">
        <ele>59.476</ele>
        <time>2022-08-27T13:12:33Z</time>
      </trkpt>
      <trkpt lat="43.466622" lon="-5.075286">
        <ele>55.644</ele>
        <time>2022-08-27T13:13:38Z</time>
      </trkpt>
      <trkpt lat="43.466574" lon="-5.075213">
        <ele>55.634</ele>
        <time>2022-08-27T13:13:41Z</time>
      </trkpt>
      <trkpt lat="43.466534" lon="-5.075153">
        <ele>55.690</ele>
        <time>2022-08-27T13:13:44Z</time>
      </trkpt>
      <trkpt lat="43.466496" lon="-5.075105">
        <ele>55.624</ele>
        <time>2022-08-27T13:13:46Z</time>
      </trkpt>
      <trkpt lat="43.466474" lon="-5.075043">
        <ele>52.511</ele>
        <time>2022-08-27T13:13:48Z</time>
      </trkpt>
      <trkpt lat="43.466451" lon="-5.074968">
        <ele>51.018</ele>
        <time>2022-08-27T13:13:51Z</time>
      </trkpt>
      <trkpt lat="43.466414" lon="-5.074918">
        <ele>50.546</ele>
        <time>2022-08-27T13:13:54Z</time>
      </trkpt>
      <trkpt lat="43.466372" lon="-5.074863">
        <ele>50.088</ele>
        <time>2022-08-27T13:13:57Z</time>
      </trkpt>
      <trkpt lat="43.466334" lon="-5.074796">
        <ele>49.616</ele>
        <time>2022-08-27T13:14:00Z</time>
      </trkpt>
      <trkpt lat="43.466299" lon="-5.074746">
        <ele>49.609</ele>
        <time>2022-08-27T13:14:02Z</time>
      </trkpt>
      <trkpt lat="43.466266" lon="-5.074681">
        <ele>49.535</ele>
        <time>2022-08-27T13:14:04Z</time>
      </trkpt>
      <trkpt lat="43.466229" lon="-5.074606">
        <ele>49.425</ele>
        <time>2022-08-27T13:14:06Z</time>
      </trkpt>
      <trkpt lat="43.466197" lon="-5.074523">
        <ele>49.296</ele>
        <time>2022-08-27T13:14:08Z</time>
      </trkpt>
      <trkpt lat="43.466165" lon="-5.074433">
        <ele>48.884</ele>
        <time>2022-08-27T13:14:10Z</time>
      </trkpt>
      <trkpt lat="43.466133" lon="-5.074335">
        <ele>48.164</ele>
        <time>2022-08-27T13:14:11Z</time>
      </trkpt>
      <trkpt lat="43.466111" lon="-5.074237">
        <ele>48.190</ele>
        <time>2022-08-27T13:14:13Z</time>
      </trkpt>
      <trkpt lat="43.466081" lon="-5.074144">
        <ele>48.114</ele>
        <time>2022-08-27T13:14:16Z</time>
      </trkpt>
      <trkpt lat="43.466051" lon="-5.074052">
        <ele>48.211</ele>
        <time>2022-08-27T13:14:18Z</time>
      </trkpt>
      <trkpt lat="43.466021" lon="-5.073959">
        <ele>48.268</ele>
        <time>2022-08-27T13:14:20Z</time>
      </trkpt>
      <trkpt lat="43.465994" lon="-5.073866">
        <ele>48.213</ele>
        <time>2022-08-27T13:14:22Z</time>
      </trkpt>
      <trkpt lat="43.465964" lon="-5.073769">
        <ele>48.143</ele>
        <time>2022-08-27T13:14:24Z</time>
      </trkpt>
      <trkpt lat="43.465937" lon="-5.073671">
        <ele>48.207</ele>
        <time>2022-08-27T13:14:26Z</time>
      </trkpt>
      <trkpt lat="43.465910" lon="-5.073569">
        <ele>48.409</ele>
        <time>2022-08-27T13:14:27Z</time>
      </trkpt>
      <trkpt lat="43.465882" lon="-5.073469">
        <ele>48.872</ele>
        <time>2022-08-27T13:14:30Z</time>
      </trkpt>
      <trkpt lat="43.465854" lon="-5.073372">
        <ele>49.412</ele>
        <time>2022-08-27T13:14:32Z</time>
      </trkpt>
      <trkpt lat="43.465826" lon="-5.073277">
        <ele>49.543</ele>
        <time>2022-08-27T13:14:34Z</time>
      </trkpt>
      <trkpt lat="43.465804" lon="-5.073182">
        <ele>49.771</ele>
        <time>2022-08-27T13:14:36Z</time>
      </trkpt>
      <trkpt lat="43.465779" lon="-5.073089">
        <ele>49.731</ele>
        <time>2022-08-27T13:14:38Z</time>
      </trkpt>
      <trkpt lat="43.465752" lon="-5.072989">
        <ele>49.757</ele>
        <time>2022-08-27T13:14:40Z</time>
      </trkpt>
      <trkpt lat="43.465725" lon="-5.072894">
        <ele>49.551</ele>
        <time>2022-08-27T13:14:42Z</time>
      </trkpt>
      <trkpt lat="43.465695" lon="-5.072796">
        <ele>49.488</ele>
        <time>2022-08-27T13:14:44Z</time>
      </trkpt>
      <trkpt lat="43.465675" lon="-5.072721">
        <ele>49.255</ele>
        <time>2022-08-27T13:14:46Z</time>
      </trkpt>
      <trkpt lat="43.465655" lon="-5.072634">
        <ele>49.143</ele>
        <time>2022-08-27T13:14:48Z</time>
      </trkpt>
      <trkpt lat="43.465630" lon="-5.072544">
        <ele>48.764</ele>
        <time>2022-08-27T13:14:50Z</time>
      </trkpt>
      <trkpt lat="43.465605" lon="-5.072464">
        <ele>48.610</ele>
        <time>2022-08-27T13:14:52Z</time>
      </trkpt>
      <trkpt lat="43.465582" lon="-5.072391">
        <ele>48.609</ele>
        <time>2022-08-27T13:14:54Z</time>
      </trkpt>
      <trkpt lat="43.465565" lon="-5.072311">
        <ele>48.665</ele>
        <time>2022-08-27T13:14:55Z</time>
      </trkpt>
      <trkpt lat="43.465548" lon="-5.072221">
        <ele>48.615</ele>
        <time>2022-08-27T13:14:58Z</time>
      </trkpt>
      <trkpt lat="43.465520" lon="-5.072139">
        <ele>48.766</ele>
        <time>2022-08-27T13:15:00Z</time>
      </trkpt>
      <trkpt lat="43.465497" lon="-5.072046">
        <ele>48.914</ele>
        <time>2022-08-27T13:15:02Z</time>
      </trkpt>
      <trkpt lat="43.465479" lon="-5.071951">
        <ele>48.934</ele>
        <time>2022-08-27T13:15:04Z</time>
      </trkpt>
      <trkpt lat="43.465459" lon="-5.071869">
        <ele>49.070</ele>
        <time>2022-08-27T13:15:06Z</time>
      </trkpt>
      <trkpt lat="43.465439" lon="-5.071794">
        <ele>49.054</ele>
        <time>2022-08-27T13:15:08Z</time>
      </trkpt>
      <trkpt lat="43.465424" lon="-5.071702">
        <ele>49.081</ele>
        <time>2022-08-27T13:15:10Z</time>
      </trkpt>
      <trkpt lat="43.465412" lon="-5.071602">
        <ele>49.058</ele>
        <time>2022-08-27T13:15:12Z</time>
      </trkpt>
      <trkpt lat="43.465402" lon="-5.071502">
        <ele>49.132</ele>
        <time>2022-08-27T13:15:14Z</time>
      </trkpt>
      <trkpt lat="43.465384" lon="-5.071420">
        <ele>49.492</ele>
        <time>2022-08-27T13:15:16Z</time>
      </trkpt>
      <trkpt lat="43.465372" lon="-5.071347">
        <ele>50.011</ele>
        <time>2022-08-27T13:15:18Z</time>
      </trkpt>
      <trkpt lat="43.465349" lon="-5.071284">
        <ele>50.509</ele>
        <time>2022-08-27T13:15:20Z</time>
      </trkpt>
      <trkpt lat="43.465331" lon="-5.071201">
        <ele>50.554</ele>
        <time>2022-08-27T13:15:22Z</time>
      </trkpt>
      <trkpt lat="43.465329" lon="-5.071119">
        <ele>50.594</ele>
        <time>2022-08-27T13:15:24Z</time>
      </trkpt>
      <trkpt lat="43.465329" lon="-5.071041">
        <ele>50.525</ele>
        <time>2022-08-27T13:15:26Z</time>
      </trkpt>
      <trkpt lat="43.465321" lon="-5.070964">
        <ele>50.113</ele>
        <time>2022-08-27T13:15:28Z</time>
      </trkpt>
      <trkpt lat="43.465323" lon="-5.070896">
        <ele>49.433</ele>
        <time>2022-08-27T13:15:30Z</time>
      </trkpt>
      <trkpt lat="43.465320" lon="-5.070814">
        <ele>49.219</ele>
        <time>2022-08-27T13:15:32Z</time>
      </trkpt>
      <trkpt lat="43.465307" lon="-5.070734">
        <ele>49.053</ele>
        <time>2022-08-27T13:15:34Z</time>
      </trkpt>
      <trkpt lat="43.465285" lon="-5.070669">
        <ele>49.080</ele>
        <time>2022-08-27T13:15:36Z</time>
      </trkpt>
      <trkpt lat="43.465250" lon="-5.070614">
        <ele>48.977</ele>
        <time>2022-08-27T13:15:38Z</time>
      </trkpt>
      <trkpt lat="43.465233" lon="-5.070539">
        <ele>48.971</ele>
        <time>2022-08-27T13:15:40Z</time>
      </trkpt>
      <trkpt lat="43.465236" lon="-5.070447">
        <ele>48.941</ele>
        <time>2022-08-27T13:15:42Z</time>
      </trkpt>
      <trkpt lat="43.465249" lon="-5.070354">
        <ele>48.915</ele>
        <time>2022-08-27T13:15:44Z</time>
      </trkpt>
      <trkpt lat="43.465242" lon="-5.070259">
        <ele>48.909</ele>
        <time>2022-08-27T13:15:46Z</time>
      </trkpt>
      <trkpt lat="43.465237" lon="-5.070162">
        <ele>48.838</ele>
        <time>2022-08-27T13:15:48Z</time>
      </trkpt>
      <trkpt lat="43.465229" lon="-5.070065">
        <ele>48.468</ele>
        <time>2022-08-27T13:15:50Z</time>
      </trkpt>
      <trkpt lat="43.465221" lon="-5.069968">
        <ele>48.259</ele>
        <time>2022-08-27T13:15:52Z</time>
      </trkpt>
      <trkpt lat="43.465211" lon="-5.069871">
        <ele>48.017</ele>
        <time>2022-08-27T13:15:54Z</time>
      </trkpt>
      <trkpt lat="43.465204" lon="-5.069773">
        <ele>47.947</ele>
        <time>2022-08-27T13:15:56Z</time>
      </trkpt>
      <trkpt lat="43.465202" lon="-5.069666">
        <ele>47.983</ele>
        <time>2022-08-27T13:15:58Z</time>
      </trkpt>
      <trkpt lat="43.465199" lon="-5.069568">
        <ele>47.947</ele>
        <time>2022-08-27T13:16:00Z</time>
      </trkpt>
      <trkpt lat="43.465194" lon="-5.069473">
        <ele>48.334</ele>
        <time>2022-08-27T13:16:02Z</time>
      </trkpt>
      <trkpt lat="43.465199" lon="-5.069375">
        <ele>48.851</ele>
        <time>2022-08-27T13:16:04Z</time>
      </trkpt>
      <trkpt lat="43.465214" lon="-5.069280">
        <ele>49.382</ele>
        <time>2022-08-27T13:16:06Z</time>
      </trkpt>
      <trkpt lat="43.465224" lon="-5.069180">
        <ele>49.843</ele>
        <time>2022-08-27T13:16:08Z</time>
      </trkpt>
      <trkpt lat="43.465231" lon="-5.069080">
        <ele>49.817</ele>
        <time>2022-08-27T13:16:10Z</time>
      </trkpt>
      <trkpt lat="43.465233" lon="-5.068973">
        <ele>49.609</ele>
        <time>2022-08-27T13:16:12Z</time>
      </trkpt>
      <trkpt lat="43.465235" lon="-5.068868">
        <ele>49.649</ele>
        <time>2022-08-27T13:16:14Z</time>
      </trkpt>
      <trkpt lat="43.465228" lon="-5.068766">
        <ele>49.719</ele>
        <time>2022-08-27T13:16:16Z</time>
      </trkpt>
      <trkpt lat="43.465223" lon="-5.068669">
        <ele>50.390</ele>
        <time>2022-08-27T13:16:17Z</time>
      </trkpt>
      <trkpt lat="43.465225" lon="-5.068564">
        <ele>50.878</ele>
        <time>2022-08-27T13:16:20Z</time>
      </trkpt>
      <trkpt lat="43.465227" lon="-5.068466">
        <ele>50.968</ele>
        <time>2022-08-27T13:16:22Z</time>
      </trkpt>
      <trkpt lat="43.465234" lon="-5.068363">
        <ele>51.084</ele>
        <time>2022-08-27T13:16:24Z</time>
      </trkpt>
      <trkpt lat="43.465242" lon="-5.068265">
        <ele>51.038</ele>
        <time>2022-08-27T13:16:26Z</time>
      </trkpt>
      <trkpt lat="43.465250" lon="-5.068180">
        <ele>51.025</ele>
        <time>2022-08-27T13:16:28Z</time>
      </trkpt>
      <trkpt lat="43.465247" lon="-5.068093">
        <ele>50.732</ele>
        <time>2022-08-27T13:16:30Z</time>
      </trkpt>
      <trkpt lat="43.465249" lon="-5.068000">
        <ele>50.135</ele>
        <time>2022-08-27T13:16:32Z</time>
      </trkpt>
      <trkpt lat="43.465257" lon="-5.067905">
        <ele>50.186</ele>
        <time>2022-08-27T13:16:34Z</time>
      </trkpt>
      <trkpt lat="43.465270" lon="-5.067822">
        <ele>50.114</ele>
        <time>2022-08-27T13:16:36Z</time>
      </trkpt>
      <trkpt lat="43.465292" lon="-5.067744">
        <ele>50.609</ele>
        <time>2022-08-27T13:16:38Z</time>
      </trkpt>
      <trkpt lat="43.465312" lon="-5.067669">
        <ele>51.024</ele>
        <time>2022-08-27T13:16:40Z</time>
      </trkpt>
      <trkpt lat="43.465319" lon="-5.067591">
        <ele>51.344</ele>
        <time>2022-08-27T13:16:42Z</time>
      </trkpt>
      <trkpt lat="43.465304" lon="-5.067526">
        <ele>51.775</ele>
        <time>2022-08-27T13:16:44Z</time>
      </trkpt>
      <trkpt lat="43.465302" lon="-5.067458">
        <ele>51.733</ele>
        <time>2022-08-27T13:16:46Z</time>
      </trkpt>
      <trkpt lat="43.465319" lon="-5.067380">
        <ele>51.893</ele>
        <time>2022-08-27T13:16:48Z</time>
      </trkpt>
      <trkpt lat="43.465337" lon="-5.067300">
        <ele>52.029</ele>
        <time>2022-08-27T13:16:50Z</time>
      </trkpt>
      <trkpt lat="43.465350" lon="-5.067232">
        <ele>52.473</ele>
        <time>2022-08-27T13:16:52Z</time>
      </trkpt>
      <trkpt lat="43.465355" lon="-5.067170">
        <ele>52.590</ele>
        <time>2022-08-27T13:16:54Z</time>
      </trkpt>
      <trkpt lat="43.465360" lon="-5.067107">
        <ele>52.557</ele>
        <time>2022-08-27T13:16:56Z</time>
      </trkpt>
      <trkpt lat="43.465385" lon="-5.067037">
        <ele>52.595</ele>
        <time>2022-08-27T13:16:58Z</time>
      </trkpt>
      <trkpt lat="43.465405" lon="-5.066955">
        <ele>52.549</ele>
        <time>2022-08-27T13:17:00Z</time>
      </trkpt>
      <trkpt lat="43.465433" lon="-5.066867">
        <ele>52.423</ele>
        <time>2022-08-27T13:17:02Z</time>
      </trkpt>
      <trkpt lat="43.465466" lon="-5.066777">
        <ele>53.309</ele>
        <time>2022-08-27T13:17:04Z</time>
      </trkpt>
      <trkpt lat="43.465483" lon="-5.066690">
        <ele>54.960</ele>
        <time>2022-08-27T13:17:06Z</time>
      </trkpt>
      <trkpt lat="43.465503" lon="-5.066615">
        <ele>55.460</ele>
        <time>2022-08-27T13:17:08Z</time>
      </trkpt>
      <trkpt lat="43.465530" lon="-5.066537">
        <ele>55.441</ele>
        <time>2022-08-27T13:17:10Z</time>
      </trkpt>
      <trkpt lat="43.465550" lon="-5.066447">
        <ele>55.459</ele>
        <time>2022-08-27T13:17:11Z</time>
      </trkpt>
      <trkpt lat="43.465567" lon="-5.066369">
        <ele>55.139</ele>
        <time>2022-08-27T13:17:14Z</time>
      </trkpt>
      <trkpt lat="43.465587" lon="-5.066294">
        <ele>54.755</ele>
        <time>2022-08-27T13:17:16Z</time>
      </trkpt>
      <trkpt lat="43.465614" lon="-5.066211">
        <ele>54.169</ele>
        <time>2022-08-27T13:17:18Z</time>
      </trkpt>
      <trkpt lat="43.465639" lon="-5.066123">
        <ele>53.786</ele>
        <time>2022-08-27T13:17:20Z</time>
      </trkpt>
      <trkpt lat="43.465667" lon="-5.066040">
        <ele>53.533</ele>
        <time>2022-08-27T13:17:22Z</time>
      </trkpt>
      <trkpt lat="43.465689" lon="-5.065958">
        <ele>52.958</ele>
        <time>2022-08-27T13:17:24Z</time>
      </trkpt>
      <trkpt lat="43.465714" lon="-5.065876">
        <ele>52.752</ele>
        <time>2022-08-27T13:17:26Z</time>
      </trkpt>
      <trkpt lat="43.465734" lon="-5.065786">
        <ele>52.417</ele>
        <time>2022-08-27T13:17:28Z</time>
      </trkpt>
      <trkpt lat="43.465754" lon="-5.065698">
        <ele>52.309</ele>
        <time>2022-08-27T13:17:30Z</time>
      </trkpt>
      <trkpt lat="43.465779" lon="-5.065620">
        <ele>52.136</ele>
        <time>2022-08-27T13:17:32Z</time>
      </trkpt>
      <trkpt lat="43.465827" lon="-5.065547">
        <ele>52.196</ele>
        <time>2022-08-27T13:17:34Z</time>
      </trkpt>
      <trkpt lat="43.465847" lon="-5.065464">
        <ele>51.967</ele>
        <time>2022-08-27T13:17:36Z</time>
      </trkpt>
      <trkpt lat="43.465864" lon="-5.065379">
        <ele>51.965</ele>
        <time>2022-08-27T13:17:38Z</time>
      </trkpt>
      <trkpt lat="43.465884" lon="-5.065289">
        <ele>52.095</ele>
        <time>2022-08-27T13:17:40Z</time>
      </trkpt>
      <trkpt lat="43.465909" lon="-5.065202">
        <ele>51.981</ele>
        <time>2022-08-27T13:17:42Z</time>
      </trkpt>
      <trkpt lat="43.465939" lon="-5.065119">
        <ele>52.095</ele>
        <time>2022-08-27T13:17:44Z</time>
      </trkpt>
      <trkpt lat="43.465969" lon="-5.065041">
        <ele>52.072</ele>
        <time>2022-08-27T13:17:46Z</time>
      </trkpt>
      <trkpt lat="43.466002" lon="-5.064958">
        <ele>52.199</ele>
        <time>2022-08-27T13:17:48Z</time>
      </trkpt>
      <trkpt lat="43.466035" lon="-5.064880">
        <ele>52.445</ele>
        <time>2022-08-27T13:17:50Z</time>
      </trkpt>
      <trkpt lat="43.466063" lon="-5.064793">
        <ele>52.847</ele>
        <time>2022-08-27T13:17:52Z</time>
      </trkpt>
      <trkpt lat="43.466100" lon="-5.064708">
        <ele>52.911</ele>
        <time>2022-08-27T13:17:54Z</time>
      </trkpt>
      <trkpt lat="43.466133" lon="-5.064618">
        <ele>53.209</ele>
        <time>2022-08-27T13:17:56Z</time>
      </trkpt>
      <trkpt lat="43.466158" lon="-5.064521">
        <ele>53.645</ele>
        <time>2022-08-27T13:17:58Z</time>
      </trkpt>
      <trkpt lat="43.466185" lon="-5.064428">
        <ele>53.695</ele>
        <time>2022-08-27T13:18:00Z</time>
      </trkpt>
      <trkpt lat="43.466225" lon="-5.064343">
        <ele>53.656</ele>
        <time>2022-08-27T13:18:02Z</time>
      </trkpt>
      <trkpt lat="43.466270" lon="-5.064265">
        <ele>53.674</ele>
        <time>2022-08-27T13:18:04Z</time>
      </trkpt>
      <trkpt lat="43.466305" lon="-5.064193">
        <ele>53.654</ele>
        <time>2022-08-27T13:18:06Z</time>
      </trkpt>
      <trkpt lat="43.466332" lon="-5.064113">
        <ele>53.870</ele>
        <time>2022-08-27T13:18:08Z</time>
      </trkpt>
      <trkpt lat="43.466359" lon="-5.064035">
        <ele>54.234</ele>
        <time>2022-08-27T13:18:10Z</time>
      </trkpt>
      <trkpt lat="43.466399" lon="-5.063963">
        <ele>54.221</ele>
        <time>2022-08-27T13:18:12Z</time>
      </trkpt>
      <trkpt lat="43.466442" lon="-5.063896">
        <ele>54.628</ele>
        <time>2022-08-27T13:18:14Z</time>
      </trkpt>
      <trkpt lat="43.466479" lon="-5.063824">
        <ele>55.061</ele>
        <time>2022-08-27T13:18:16Z</time>
      </trkpt>
      <trkpt lat="43.466509" lon="-5.063747">
        <ele>55.321</ele>
        <time>2022-08-27T13:18:18Z</time>
      </trkpt>
      <trkpt lat="43.466542" lon="-5.063660">
        <ele>55.513</ele>
        <time>2022-08-27T13:18:20Z</time>
      </trkpt>
      <trkpt lat="43.466565" lon="-5.063572">
        <ele>55.909</ele>
        <time>2022-08-27T13:18:22Z</time>
      </trkpt>
      <trkpt lat="43.466582" lon="-5.063489">
        <ele>56.347</ele>
        <time>2022-08-27T13:18:24Z</time>
      </trkpt>
      <trkpt lat="43.466584" lon="-5.063402">
        <ele>56.357</ele>
        <time>2022-08-27T13:18:26Z</time>
      </trkpt>
      <trkpt lat="43.466572" lon="-5.063320">
        <ele>56.348</ele>
        <time>2022-08-27T13:18:28Z</time>
      </trkpt>
      <trkpt lat="43.466554" lon="-5.063242">
        <ele>56.276</ele>
        <time>2022-08-27T13:18:30Z</time>
      </trkpt>
      <trkpt lat="43.466539" lon="-5.063162">
        <ele>55.776</ele>
        <time>2022-08-27T13:18:32Z</time>
      </trkpt>
      <trkpt lat="43.466527" lon="-5.063089">
        <ele>54.692</ele>
        <time>2022-08-27T13:18:34Z</time>
      </trkpt>
      <trkpt lat="43.466507" lon="-5.063019">
        <ele>53.776</ele>
        <time>2022-08-27T13:18:36Z</time>
      </trkpt>
      <trkpt lat="43.466490" lon="-5.062942">
        <ele>52.783</ele>
        <time>2022-08-27T13:18:38Z</time>
      </trkpt>
      <trkpt lat="43.466465" lon="-5.062864">
        <ele>52.180</ele>
        <time>2022-08-27T13:18:40Z</time>
      </trkpt>
      <trkpt lat="43.466430" lon="-5.062801">
        <ele>51.134</ele>
        <time>2022-08-27T13:18:42Z</time>
      </trkpt>
      <trkpt lat="43.466397" lon="-5.062749">
        <ele>49.955</ele>
        <time>2022-08-27T13:18:44Z</time>
      </trkpt>
      <trkpt lat="43.466362" lon="-5.062707">
        <ele>49.410</ele>
        <time>2022-08-27T13:18:46Z</time>
      </trkpt>
      <trkpt lat="43.466310" lon="-5.062682">
        <ele>49.509</ele>
        <time>2022-08-27T13:18:49Z</time>
      </trkpt>
      <trkpt lat="43.466277" lon="-5.062634">
        <ele>49.454</ele>
        <time>2022-08-27T13:18:51Z</time>
      </trkpt>
      <trkpt lat="43.466244" lon="-5.062562">
        <ele>49.244</ele>
        <time>2022-08-27T13:18:53Z</time>
      </trkpt>
      <trkpt lat="43.466186" lon="-5.062505">
        <ele>49.295</ele>
        <time>2022-08-27T13:18:55Z</time>
      </trkpt>
      <trkpt lat="43.466123" lon="-5.062452">
        <ele>48.793</ele>
        <time>2022-08-27T13:18:57Z</time>
      </trkpt>
      <trkpt lat="43.466055" lon="-5.062409">
        <ele>48.133</ele>
        <time>2022-08-27T13:18:59Z</time>
      </trkpt>
      <trkpt lat="43.465983" lon="-5.062379">
        <ele>47.789</ele>
        <time>2022-08-27T13:19:01Z</time>
      </trkpt>
      <trkpt lat="43.465915" lon="-5.062362">
        <ele>47.583</ele>
        <time>2022-08-27T13:19:03Z</time>
      </trkpt>
      <trkpt lat="43.465852" lon="-5.062350">
        <ele>47.370</ele>
        <time>2022-08-27T13:19:05Z</time>
      </trkpt>
      <trkpt lat="43.465794" lon="-5.062345">
        <ele>47.367</ele>
        <time>2022-08-27T13:19:07Z</time>
      </trkpt>
      <trkpt lat="43.465731" lon="-5.062343">
        <ele>47.336</ele>
        <time>2022-08-27T13:19:10Z</time>
      </trkpt>
      <trkpt lat="43.465678" lon="-5.062345">
        <ele>47.817</ele>
        <time>2022-08-27T13:19:14Z</time>
      </trkpt>
      <trkpt lat="43.465610" lon="-5.062367">
        <ele>48.118</ele>
        <time>2022-08-27T13:19:26Z</time>
      </trkpt>
      <trkpt lat="43.465558" lon="-5.062384">
        <ele>48.409</ele>
        <time>2022-08-27T13:19:30Z</time>
      </trkpt>
      <trkpt lat="43.465508" lon="-5.062401">
        <ele>48.464</ele>
        <time>2022-08-27T13:19:33Z</time>
      </trkpt>
      <trkpt lat="43.465556" lon="-5.062391">
        <ele>50.384</ele>
        <time>2022-08-27T13:22:02Z</time>
      </trkpt>
      <trkpt lat="43.465606" lon="-5.062371">
        <ele>50.325</ele>
        <time>2022-08-27T13:22:04Z</time>
      </trkpt>
      <trkpt lat="43.465659" lon="-5.062351">
        <ele>50.383</ele>
        <time>2022-08-27T13:22:06Z</time>
      </trkpt>
      <trkpt lat="43.465721" lon="-5.062351">
        <ele>50.373</ele>
        <time>2022-08-27T13:22:09Z</time>
      </trkpt>
      <trkpt lat="43.465783" lon="-5.062353">
        <ele>49.079</ele>
        <time>2022-08-27T13:22:12Z</time>
      </trkpt>
      <trkpt lat="43.465841" lon="-5.062370">
        <ele>48.913</ele>
        <time>2022-08-27T13:22:15Z</time>
      </trkpt>
      <trkpt lat="43.465888" lon="-5.062380">
        <ele>48.860</ele>
        <time>2022-08-27T13:22:17Z</time>
      </trkpt>
      <trkpt lat="43.465941" lon="-5.062393">
        <ele>48.087</ele>
        <time>2022-08-27T13:22:19Z</time>
      </trkpt>
      <trkpt lat="43.465996" lon="-5.062405">
        <ele>47.413</ele>
        <time>2022-08-27T13:22:21Z</time>
      </trkpt>
      <trkpt lat="43.466041" lon="-5.062420">
        <ele>47.443</ele>
        <time>2022-08-27T13:22:23Z</time>
      </trkpt>
      <trkpt lat="43.466088" lon="-5.062440">
        <ele>47.407</ele>
        <time>2022-08-27T13:22:25Z</time>
      </trkpt>
      <trkpt lat="43.466140" lon="-5.062470">
        <ele>47.409</ele>
        <time>2022-08-27T13:22:28Z</time>
      </trkpt>
      <trkpt lat="43.466185" lon="-5.062493">
        <ele>47.482</ele>
        <time>2022-08-27T13:22:30Z</time>
      </trkpt>
      <trkpt lat="43.466237" lon="-5.062543">
        <ele>47.692</ele>
        <time>2022-08-27T13:22:32Z</time>
      </trkpt>
      <trkpt lat="43.466274" lon="-5.062585">
        <ele>47.963</ele>
        <time>2022-08-27T13:22:34Z</time>
      </trkpt>
      <trkpt lat="43.466311" lon="-5.062623">
        <ele>48.061</ele>
        <time>2022-08-27T13:22:36Z</time>
      </trkpt>
      <trkpt lat="43.466349" lon="-5.062678">
        <ele>48.051</ele>
        <time>2022-08-27T13:22:38Z</time>
      </trkpt>
      <trkpt lat="43.466394" lon="-5.062746">
        <ele>48.157</ele>
        <time>2022-08-27T13:22:40Z</time>
      </trkpt>
      <trkpt lat="43.466432" lon="-5.062793">
        <ele>48.261</ele>
        <time>2022-08-27T13:22:42Z</time>
      </trkpt>
      <trkpt lat="43.466467" lon="-5.062858">
        <ele>48.368</ele>
        <time>2022-08-27T13:22:44Z</time>
      </trkpt>
      <trkpt lat="43.466504" lon="-5.062916">
        <ele>48.395</ele>
        <time>2022-08-27T13:22:46Z</time>
      </trkpt>
      <trkpt lat="43.466534" lon="-5.062978">
        <ele>48.751</ele>
        <time>2022-08-27T13:22:48Z</time>
      </trkpt>
      <trkpt lat="43.466554" lon="-5.063040">
        <ele>48.801</ele>
        <time>2022-08-27T13:22:49Z</time>
      </trkpt>
      <trkpt lat="43.466577" lon="-5.063125">
        <ele>48.811</ele>
        <time>2022-08-27T13:22:53Z</time>
      </trkpt>
      <trkpt lat="43.466594" lon="-5.063210">
        <ele>48.909</ele>
        <time>2022-08-27T13:22:56Z</time>
      </trkpt>
      <trkpt lat="43.466604" lon="-5.063290">
        <ele>49.026</ele>
        <time>2022-08-27T13:22:59Z</time>
      </trkpt>
      <trkpt lat="43.466606" lon="-5.063377">
        <ele>49.266</ele>
        <time>2022-08-27T13:23:02Z</time>
      </trkpt>
      <trkpt lat="43.466601" lon="-5.063460">
        <ele>49.397</ele>
        <time>2022-08-27T13:23:05Z</time>
      </trkpt>
      <trkpt lat="43.466588" lon="-5.063540">
        <ele>49.325</ele>
        <time>2022-08-27T13:23:08Z</time>
      </trkpt>
      <trkpt lat="43.466565" lon="-5.063615">
        <ele>49.465</ele>
        <time>2022-08-27T13:23:11Z</time>
      </trkpt>
      <trkpt lat="43.466543" lon="-5.063695">
        <ele>49.471</ele>
        <time>2022-08-27T13:23:14Z</time>
      </trkpt>
      <trkpt lat="43.466516" lon="-5.063767">
        <ele>49.515</ele>
        <time>2022-08-27T13:23:17Z</time>
      </trkpt>
      <trkpt lat="43.466514" lon="-5.063915">
        <ele>50.582</ele>
        <time>2022-08-27T13:23:48Z</time>
      </trkpt>
      <trkpt lat="43.466476" lon="-5.063862">
        <ele>53.149</ele>
        <time>2022-08-27T13:28:08Z</time>
      </trkpt>
      <trkpt lat="43.466441" lon="-5.063954">
        <ele>53.199</ele>
        <time>2022-08-27T13:28:38Z</time>
      </trkpt>
      <trkpt lat="43.466408" lon="-5.064042">
        <ele>53.107</ele>
        <time>2022-08-27T13:28:44Z</time>
      </trkpt>
      <trkpt lat="43.466381" lon="-5.064104">
        <ele>54.427</ele>
        <time>2022-08-27T13:28:49Z</time>
      </trkpt>
      <trkpt lat="43.466364" lon="-5.064164">
        <ele>54.409</ele>
        <time>2022-08-27T13:28:54Z</time>
      </trkpt>
      <trkpt lat="43.466347" lon="-5.064222">
        <ele>53.820</ele>
        <time>2022-08-27T13:28:58Z</time>
      </trkpt>
      <trkpt lat="43.466314" lon="-5.064275">
        <ele>54.210</ele>
        <time>2022-08-27T13:29:03Z</time>
      </trkpt>
      <trkpt lat="43.466286" lon="-5.064342">
        <ele>54.521</ele>
        <time>2022-08-27T13:29:08Z</time>
      </trkpt>
      <trkpt lat="43.466264" lon="-5.064404">
        <ele>54.839</ele>
        <time>2022-08-27T13:29:12Z</time>
      </trkpt>
      <trkpt lat="43.466227" lon="-5.064481">
        <ele>55.089</ele>
        <time>2022-08-27T13:29:18Z</time>
      </trkpt>
      <trkpt lat="43.466199" lon="-5.064554">
        <ele>55.075</ele>
        <time>2022-08-27T13:29:24Z</time>
      </trkpt>
      <trkpt lat="43.466182" lon="-5.064612">
        <ele>55.059</ele>
        <time>2022-08-27T13:29:29Z</time>
      </trkpt>
      <trkpt lat="43.466152" lon="-5.064674">
        <ele>54.966</ele>
        <time>2022-08-27T13:29:34Z</time>
      </trkpt>
      <trkpt lat="43.466129" lon="-5.064747">
        <ele>53.933</ele>
        <time>2022-08-27T13:29:40Z</time>
      </trkpt>
      <trkpt lat="43.466104" lon="-5.064812">
        <ele>52.269</ele>
        <time>2022-08-27T13:30:15Z</time>
      </trkpt>
      <trkpt lat="43.466071" lon="-5.064862">
        <ele>52.204</ele>
        <time>2022-08-27T13:30:17Z</time>
      </trkpt>
      <trkpt lat="43.466036" lon="-5.064927">
        <ele>52.224</ele>
        <time>2022-08-27T13:30:19Z</time>
      </trkpt>
      <trkpt lat="43.466013" lon="-5.064995">
        <ele>52.209</ele>
        <time>2022-08-27T13:30:21Z</time>
      </trkpt>
      <trkpt lat="43.465991" lon="-5.065063">
        <ele>52.227</ele>
        <time>2022-08-27T13:30:23Z</time>
      </trkpt>
      <trkpt lat="43.465973" lon="-5.065128">
        <ele>50.287</ele>
        <time>2022-08-27T13:30:25Z</time>
      </trkpt>
      <trkpt lat="43.465951" lon="-5.065191">
        <ele>49.838</ele>
        <time>2022-08-27T13:30:27Z</time>
      </trkpt>
      <trkpt lat="43.465914" lon="-5.065246">
        <ele>49.686</ele>
        <time>2022-08-27T13:30:29Z</time>
      </trkpt>
      <trkpt lat="43.465889" lon="-5.065314">
        <ele>49.456</ele>
        <time>2022-08-27T13:30:31Z</time>
      </trkpt>
      <trkpt lat="43.465876" lon="-5.065386">
        <ele>49.212</ele>
        <time>2022-08-27T13:30:33Z</time>
      </trkpt>
      <trkpt lat="43.465871" lon="-5.065458">
        <ele>49.116</ele>
        <time>2022-08-27T13:30:35Z</time>
      </trkpt>
      <trkpt lat="43.465853" lon="-5.065543">
        <ele>49.193</ele>
        <time>2022-08-27T13:30:38Z</time>
      </trkpt>
      <trkpt lat="43.465833" lon="-5.065613">
        <ele>49.250</ele>
        <time>2022-08-27T13:30:41Z</time>
      </trkpt>
      <trkpt lat="43.465816" lon="-5.065675">
        <ele>49.527</ele>
        <time>2022-08-27T13:30:45Z</time>
      </trkpt>
      <trkpt lat="43.465789" lon="-5.065733">
        <ele>50.468</ele>
        <time>2022-08-27T13:30:49Z</time>
      </trkpt>
      <trkpt lat="43.465774" lon="-5.065808">
        <ele>51.114</ele>
        <time>2022-08-27T13:30:53Z</time>
      </trkpt>
      <trkpt lat="43.465742" lon="-5.065898">
        <ele>51.709</ele>
        <time>2022-08-27T13:31:00Z</time>
      </trkpt>
      <trkpt lat="43.465724" lon="-5.065970">
        <ele>51.743</ele>
        <time>2022-08-27T13:31:05Z</time>
      </trkpt>
      <trkpt lat="43.465701" lon="-5.066038">
        <ele>51.743</ele>
        <time>2022-08-27T13:31:09Z</time>
      </trkpt>
      <trkpt lat="43.465693" lon="-5.066103">
        <ele>51.254</ele>
        <time>2022-08-27T13:32:25Z</time>
      </trkpt>
      <trkpt lat="43.465681" lon="-5.066165">
        <ele>51.232</ele>
        <time>2022-08-27T13:32:28Z</time>
      </trkpt>
      <trkpt lat="43.465661" lon="-5.066223">
        <ele>51.252</ele>
        <time>2022-08-27T13:32:30Z</time>
      </trkpt>
      <trkpt lat="43.465639" lon="-5.066290">
        <ele>51.228</ele>
        <time>2022-08-27T13:32:33Z</time>
      </trkpt>
      <trkpt lat="43.465619" lon="-5.066363">
        <ele>51.272</ele>
        <time>2022-08-27T13:32:37Z</time>
      </trkpt>
      <trkpt lat="43.465596" lon="-5.066430">
        <ele>51.259</ele>
        <time>2022-08-27T13:32:40Z</time>
      </trkpt>
      <trkpt lat="43.465576" lon="-5.066492">
        <ele>48.786</ele>
        <time>2022-08-27T13:32:43Z</time>
      </trkpt>
      <trkpt lat="43.464859" lon="-5.066742">
        <ele>52.243</ele>
        <time>2022-08-27T13:49:26Z</time>
      </trkpt>
      <trkpt lat="43.464797" lon="-5.066749">
        <ele>51.564</ele>
        <time>2022-08-27T13:49:29Z</time>
      </trkpt>
      <trkpt lat="43.464735" lon="-5.066731">
        <ele>50.410</ele>
        <time>2022-08-27T13:49:31Z</time>
      </trkpt>
      <trkpt lat="43.464658" lon="-5.066711">
        <ele>50.009</ele>
        <time>2022-08-27T13:49:33Z</time>
      </trkpt>
      <trkpt lat="43.464581" lon="-5.066664">
        <ele>50.695</ele>
        <time>2022-08-27T13:49:35Z</time>
      </trkpt>
      <trkpt lat="43.464496" lon="-5.066619">
        <ele>51.485</ele>
        <time>2022-08-27T13:49:37Z</time>
      </trkpt>
      <trkpt lat="43.464451" lon="-5.066597">
        <ele>51.756</ele>
        <time>2022-08-27T13:49:38Z</time>
      </trkpt>
      <trkpt lat="43.464374" lon="-5.066565">
        <ele>51.764</ele>
        <time>2022-08-27T13:49:40Z</time>
      </trkpt>
      <trkpt lat="43.464299" lon="-5.066537">
        <ele>51.724</ele>
        <time>2022-08-27T13:49:42Z</time>
      </trkpt>
      <trkpt lat="43.464222" lon="-5.066505">
        <ele>51.560</ele>
        <time>2022-08-27T13:49:44Z</time>
      </trkpt>
      <trkpt lat="43.464149" lon="-5.066465">
        <ele>51.444</ele>
        <time>2022-08-27T13:49:46Z</time>
      </trkpt>
      <trkpt lat="43.464086" lon="-5.066425">
        <ele>51.421</ele>
        <time>2022-08-27T13:49:48Z</time>
      </trkpt>
      <trkpt lat="43.464024" lon="-5.066417">
        <ele>51.588</ele>
        <time>2022-08-27T13:49:50Z</time>
      </trkpt>
      <trkpt lat="43.463966" lon="-5.066410">
        <ele>52.538</ele>
        <time>2022-08-27T13:49:52Z</time>
      </trkpt>
      <trkpt lat="43.463919" lon="-5.066390">
        <ele>52.970</ele>
        <time>2022-08-27T13:49:53Z</time>
      </trkpt>
      <trkpt lat="43.463844" lon="-5.066343">
        <ele>54.417</ele>
        <time>2022-08-27T13:50:05Z</time>
      </trkpt>
      <trkpt lat="43.463814" lon="-5.066270">
        <ele>54.809</ele>
        <time>2022-08-27T13:50:07Z</time>
      </trkpt>
      <trkpt lat="43.463789" lon="-5.066183">
        <ele>54.884</ele>
        <time>2022-08-27T13:50:09Z</time>
      </trkpt>
      <trkpt lat="43.463756" lon="-5.066088">
        <ele>54.874</ele>
        <time>2022-08-27T13:50:11Z</time>
      </trkpt>
      <trkpt lat="43.463729" lon="-5.065985">
        <ele>52.985</ele>
        <time>2022-08-27T13:50:13Z</time>
      </trkpt>
      <trkpt lat="43.463686" lon="-5.065892">
        <ele>51.213</ele>
        <time>2022-08-27T13:50:15Z</time>
      </trkpt>
      <trkpt lat="43.463629" lon="-5.065822">
        <ele>48.973</ele>
        <time>2022-08-27T13:50:17Z</time>
      </trkpt>
      <trkpt lat="43.463576" lon="-5.065737">
        <ele>47.249</ele>
        <time>2022-08-27T13:50:19Z</time>
      </trkpt>
      <trkpt lat="43.463508" lon="-5.065665">
        <ele>46.543</ele>
        <time>2022-08-27T13:50:21Z</time>
      </trkpt>
      <trkpt lat="43.463438" lon="-5.065598">
        <ele>46.520</ele>
        <time>2022-08-27T13:50:23Z</time>
      </trkpt>
      <trkpt lat="43.463375" lon="-5.065533">
        <ele>46.947</ele>
        <time>2022-08-27T13:50:25Z</time>
      </trkpt>
      <trkpt lat="43.463312" lon="-5.065481">
        <ele>47.024</ele>
        <time>2022-08-27T13:50:27Z</time>
      </trkpt>
      <trkpt lat="43.463239" lon="-5.065439">
        <ele>47.404</ele>
        <time>2022-08-27T13:50:29Z</time>
      </trkpt>
      <trkpt lat="43.463167" lon="-5.065376">
        <ele>47.914</ele>
        <time>2022-08-27T13:50:31Z</time>
      </trkpt>
      <trkpt lat="43.463099" lon="-5.065308">
        <ele>48.709</ele>
        <time>2022-08-27T13:50:33Z</time>
      </trkpt>
      <trkpt lat="43.463032" lon="-5.065231">
        <ele>49.373</ele>
        <time>2022-08-27T13:50:35Z</time>
      </trkpt>
      <trkpt lat="43.462967" lon="-5.065144">
        <ele>49.753</ele>
        <time>2022-08-27T13:50:37Z</time>
      </trkpt>
      <trkpt lat="43.462910" lon="-5.065054">
        <ele>50.114</ele>
        <time>2022-08-27T13:50:39Z</time>
      </trkpt>
      <trkpt lat="43.462887" lon="-5.064997">
        <ele>50.342</ele>
        <time>2022-08-27T13:50:40Z</time>
      </trkpt>
      <trkpt lat="43.462837" lon="-5.064890">
        <ele>50.392</ele>
        <time>2022-08-27T13:50:42Z</time>
      </trkpt>
      <trkpt lat="43.462795" lon="-5.064768">
        <ele>50.268</ele>
        <time>2022-08-27T13:50:44Z</time>
      </trkpt>
      <trkpt lat="43.462750" lon="-5.064653">
        <ele>50.282</ele>
        <time>2022-08-27T13:50:46Z</time>
      </trkpt>
      <trkpt lat="43.462730" lon="-5.064596">
        <ele>50.379</ele>
        <time>2022-08-27T13:50:47Z</time>
      </trkpt>
      <trkpt lat="43.462693" lon="-5.064488">
        <ele>50.536</ele>
        <time>2022-08-27T13:50:49Z</time>
      </trkpt>
      <trkpt lat="43.462658" lon="-5.064375">
        <ele>50.465</ele>
        <time>2022-08-27T13:50:51Z</time>
      </trkpt>
      <trkpt lat="43.462636" lon="-5.064312">
        <ele>50.468</ele>
        <time>2022-08-27T13:50:52Z</time>
      </trkpt>
      <trkpt lat="43.462594" lon="-5.064194">
        <ele>50.214</ele>
        <time>2022-08-27T13:50:54Z</time>
      </trkpt>
      <trkpt lat="43.462556" lon="-5.064071">
        <ele>50.209</ele>
        <time>2022-08-27T13:50:56Z</time>
      </trkpt>
      <trkpt lat="43.462534" lon="-5.064009">
        <ele>50.367</ele>
        <time>2022-08-27T13:50:57Z</time>
      </trkpt>
      <trkpt lat="43.462496" lon="-5.063884">
        <ele>50.397</ele>
        <time>2022-08-27T13:50:59Z</time>
      </trkpt>
      <trkpt lat="43.462478" lon="-5.063822">
        <ele>50.348</ele>
        <time>2022-08-27T13:51:00Z</time>
      </trkpt>
      <trkpt lat="43.462436" lon="-5.063700">
        <ele>50.156</ele>
        <time>2022-08-27T13:51:02Z</time>
      </trkpt>
      <trkpt lat="43.462416" lon="-5.063643">
        <ele>49.716</ele>
        <time>2022-08-27T13:51:03Z</time>
      </trkpt>
      <trkpt lat="43.462396" lon="-5.063583">
        <ele>49.382</ele>
        <time>2022-08-27T13:51:04Z</time>
      </trkpt>
      <trkpt lat="43.462376" lon="-5.063521">
        <ele>49.296</ele>
        <time>2022-08-27T13:51:05Z</time>
      </trkpt>
      <trkpt lat="43.462336" lon="-5.063398">
        <ele>49.293</ele>
        <time>2022-08-27T13:51:07Z</time>
      </trkpt>
      <trkpt lat="43.462318" lon="-5.063336">
        <ele>49.220</ele>
        <time>2022-08-27T13:51:08Z</time>
      </trkpt>
      <trkpt lat="43.462280" lon="-5.063213">
        <ele>49.368</ele>
        <time>2022-08-27T13:51:10Z</time>
      </trkpt>
      <trkpt lat="43.462247" lon="-5.063103">
        <ele>49.942</ele>
        <time>2022-08-27T13:51:12Z</time>
      </trkpt>
      <trkpt lat="43.462215" lon="-5.063000">
        <ele>49.926</ele>
        <time>2022-08-27T13:51:14Z</time>
      </trkpt>
      <trkpt lat="43.462185" lon="-5.062898">
        <ele>49.709</ele>
        <time>2022-08-27T13:51:16Z</time>
      </trkpt>
      <trkpt lat="43.462155" lon="-5.062800">
        <ele>49.677</ele>
        <time>2022-08-27T13:51:18Z</time>
      </trkpt>
      <trkpt lat="43.462127" lon="-5.062713">
        <ele>49.487</ele>
        <time>2022-08-27T13:51:20Z</time>
      </trkpt>
      <trkpt lat="43.462099" lon="-5.062638">
        <ele>49.288</ele>
        <time>2022-08-27T13:51:22Z</time>
      </trkpt>
      <trkpt lat="43.462077" lon="-5.062565">
        <ele>49.056</ele>
        <time>2022-08-27T13:51:24Z</time>
      </trkpt>
      <trkpt lat="43.462050" lon="-5.062492">
        <ele>48.986</ele>
        <time>2022-08-27T13:51:26Z</time>
      </trkpt>
      <trkpt lat="43.462030" lon="-5.062417">
        <ele>48.622</ele>
        <time>2022-08-27T13:51:28Z</time>
      </trkpt>
      <trkpt lat="43.462003" lon="-5.062347">
        <ele>48.536</ele>
        <time>2022-08-27T13:51:30Z</time>
      </trkpt>
      <trkpt lat="43.461976" lon="-5.062274">
        <ele>48.543</ele>
        <time>2022-08-27T13:51:32Z</time>
      </trkpt>
      <trkpt lat="43.461948" lon="-5.062199">
        <ele>48.440</ele>
        <time>2022-08-27T13:51:34Z</time>
      </trkpt>
      <trkpt lat="43.461923" lon="-5.062121">
        <ele>48.319</ele>
        <time>2022-08-27T13:51:36Z</time>
      </trkpt>
      <trkpt lat="43.461896" lon="-5.062051">
        <ele>48.209</ele>
        <time>2022-08-27T13:51:38Z</time>
      </trkpt>
      <trkpt lat="43.461876" lon="-5.061989">
        <ele>48.119</ele>
        <time>2022-08-27T13:51:40Z</time>
      </trkpt>
      <trkpt lat="43.461854" lon="-5.061926">
        <ele>48.109</ele>
        <time>2022-08-27T13:51:42Z</time>
      </trkpt>
      <trkpt lat="43.461832" lon="-5.061866">
        <ele>48.122</ele>
        <time>2022-08-27T13:51:44Z</time>
      </trkpt>
      <trkpt lat="43.461812" lon="-5.061809">
        <ele>48.152</ele>
        <time>2022-08-27T13:51:46Z</time>
      </trkpt>
      <trkpt lat="43.461799" lon="-5.061747">
        <ele>47.993</ele>
        <time>2022-08-27T13:51:48Z</time>
      </trkpt>
      <trkpt lat="43.461779" lon="-5.061689">
        <ele>47.921</ele>
        <time>2022-08-27T13:51:50Z</time>
      </trkpt>
      <trkpt lat="43.461756" lon="-5.061589">
        <ele>47.591</ele>
        <time>2022-08-27T13:52:05Z</time>
      </trkpt>
      <trkpt lat="43.461726" lon="-5.061507">
        <ele>46.937</ele>
        <time>2022-08-27T13:52:08Z</time>
      </trkpt>
      <trkpt lat="43.461706" lon="-5.061447">
        <ele>46.941</ele>
        <time>2022-08-27T13:52:10Z</time>
      </trkpt>
      <trkpt lat="43.461689" lon="-5.061384">
        <ele>46.998</ele>
        <time>2022-08-27T13:52:12Z</time>
      </trkpt>
      <trkpt lat="43.461667" lon="-5.061311">
        <ele>46.925</ele>
        <time>2022-08-27T13:52:15Z</time>
      </trkpt>
      <trkpt lat="43.461647" lon="-5.061236">
        <ele>47.819</ele>
        <time>2022-08-27T13:52:18Z</time>
      </trkpt>
      <trkpt lat="43.461625" lon="-5.061156">
        <ele>48.809</ele>
        <time>2022-08-27T13:52:22Z</time>
      </trkpt>
      <trkpt lat="43.461605" lon="-5.061094">
        <ele>49.119</ele>
        <time>2022-08-27T13:52:24Z</time>
      </trkpt>
      <trkpt lat="43.461583" lon="-5.061031">
        <ele>49.409</ele>
        <time>2022-08-27T13:52:26Z</time>
      </trkpt>
      <trkpt lat="43.461555" lon="-5.060971">
        <ele>49.792</ele>
        <time>2022-08-27T13:52:28Z</time>
      </trkpt>
      <trkpt lat="43.461522" lon="-5.060901">
        <ele>50.232</ele>
        <time>2022-08-27T13:52:30Z</time>
      </trkpt>
      <trkpt lat="43.461474" lon="-5.060834">
        <ele>51.423</ele>
        <time>2022-08-27T13:52:32Z</time>
      </trkpt>
      <trkpt lat="43.461424" lon="-5.060776">
        <ele>52.281</ele>
        <time>2022-08-27T13:52:34Z</time>
      </trkpt>
      <trkpt lat="43.461372" lon="-5.060739">
        <ele>52.321</ele>
        <time>2022-08-27T13:52:36Z</time>
      </trkpt>
      <trkpt lat="43.461335" lon="-5.060694">
        <ele>52.327</ele>
        <time>2022-08-27T13:52:38Z</time>
      </trkpt>
      <trkpt lat="43.461303" lon="-5.060626">
        <ele>52.191</ele>
        <time>2022-08-27T13:52:40Z</time>
      </trkpt>
      <trkpt lat="43.461268" lon="-5.060554">
        <ele>52.078</ele>
        <time>2022-08-27T13:52:42Z</time>
      </trkpt>
      <trkpt lat="43.461215" lon="-5.060509">
        <ele>51.935</ele>
        <time>2022-08-27T13:52:44Z</time>
      </trkpt>
      <trkpt lat="43.461155" lon="-5.060496">
        <ele>51.529</ele>
        <time>2022-08-27T13:52:46Z</time>
      </trkpt>
      <trkpt lat="43.461085" lon="-5.060509">
        <ele>50.400</ele>
        <time>2022-08-27T13:52:47Z</time>
      </trkpt>
      <trkpt lat="43.461017" lon="-5.060527">
        <ele>50.420</ele>
        <time>2022-08-27T13:52:50Z</time>
      </trkpt>
      <trkpt lat="43.460952" lon="-5.060554">
        <ele>50.409</ele>
        <time>2022-08-27T13:52:52Z</time>
      </trkpt>
      <trkpt lat="43.460877" lon="-5.060592">
        <ele>51.063</ele>
        <time>2022-08-27T13:52:54Z</time>
      </trkpt>
      <trkpt lat="43.460795" lon="-5.060619">
        <ele>51.963</ele>
        <time>2022-08-27T13:52:56Z</time>
      </trkpt>
      <trkpt lat="43.460708" lon="-5.060646">
        <ele>52.354</ele>
        <time>2022-08-27T13:52:58Z</time>
      </trkpt>
      <trkpt lat="43.460620" lon="-5.060664">
        <ele>52.242</ele>
        <time>2022-08-27T13:53:00Z</time>
      </trkpt>
      <trkpt lat="43.460575" lon="-5.060672">
        <ele>52.142</ele>
        <time>2022-08-27T13:53:01Z</time>
      </trkpt>
      <trkpt lat="43.460480" lon="-5.060707">
        <ele>50.488</ele>
        <time>2022-08-27T13:53:03Z</time>
      </trkpt>
      <trkpt lat="43.460387" lon="-5.060742">
        <ele>49.752</ele>
        <time>2022-08-27T13:53:05Z</time>
      </trkpt>
      <trkpt lat="43.460340" lon="-5.060769">
        <ele>49.749</ele>
        <time>2022-08-27T13:53:06Z</time>
      </trkpt>
      <trkpt lat="43.460292" lon="-5.060796">
        <ele>49.736</ele>
        <time>2022-08-27T13:53:07Z</time>
      </trkpt>
      <trkpt lat="43.460199" lon="-5.060851">
        <ele>50.066</ele>
        <time>2022-08-27T13:53:09Z</time>
      </trkpt>
      <trkpt lat="43.460112" lon="-5.060908">
        <ele>50.929</ele>
        <time>2022-08-27T13:53:11Z</time>
      </trkpt>
      <trkpt lat="43.460032" lon="-5.060970">
        <ele>51.521</ele>
        <time>2022-08-27T13:53:13Z</time>
      </trkpt>
      <trkpt lat="43.459950" lon="-5.061030">
        <ele>52.409</ele>
        <time>2022-08-27T13:53:15Z</time>
      </trkpt>
      <trkpt lat="43.459908" lon="-5.061053">
        <ele>52.877</ele>
        <time>2022-08-27T13:53:16Z</time>
      </trkpt>
      <trkpt lat="43.459868" lon="-5.061081">
        <ele>53.277</ele>
        <time>2022-08-27T13:53:17Z</time>
      </trkpt>
      <trkpt lat="43.459790" lon="-5.061138">
        <ele>53.218</ele>
        <time>2022-08-27T13:53:19Z</time>
      </trkpt>
      <trkpt lat="43.459750" lon="-5.061166">
        <ele>53.246</ele>
        <time>2022-08-27T13:53:20Z</time>
      </trkpt>
      <trkpt lat="43.459667" lon="-5.061211">
        <ele>53.086</ele>
        <time>2022-08-27T13:53:22Z</time>
      </trkpt>
      <trkpt lat="43.459589" lon="-5.061268">
        <ele>52.822</ele>
        <time>2022-08-27T13:53:24Z</time>
      </trkpt>
      <trkpt lat="43.459502" lon="-5.061306">
        <ele>52.486</ele>
        <time>2022-08-27T13:53:26Z</time>
      </trkpt>
      <trkpt lat="43.459412" lon="-5.061329">
        <ele>52.363</ele>
        <time>2022-08-27T13:53:28Z</time>
      </trkpt>
      <trkpt lat="43.459364" lon="-5.061332">
        <ele>51.690</ele>
        <time>2022-08-27T13:53:29Z</time>
      </trkpt>
      <trkpt lat="43.459266" lon="-5.061332">
        <ele>51.127</ele>
        <time>2022-08-27T13:53:31Z</time>
      </trkpt>
      <trkpt lat="43.459178" lon="-5.061335">
        <ele>51.168</ele>
        <time>2022-08-27T13:53:33Z</time>
      </trkpt>
      <trkpt lat="43.459096" lon="-5.061345">
        <ele>51.114</ele>
        <time>2022-08-27T13:53:35Z</time>
      </trkpt>
      <trkpt lat="43.459029" lon="-5.061347">
        <ele>51.309</ele>
        <time>2022-08-27T13:53:37Z</time>
      </trkpt>
      <trkpt lat="43.458962" lon="-5.061369">
        <ele>51.623</ele>
        <time>2022-08-27T13:53:38Z</time>
      </trkpt>
      <trkpt lat="43.458907" lon="-5.061387">
        <ele>52.163</ele>
        <time>2022-08-27T13:53:40Z</time>
      </trkpt>
      <trkpt lat="43.458855" lon="-5.061409">
        <ele>52.174</ele>
        <time>2022-08-27T13:53:43Z</time>
      </trkpt>
      <trkpt lat="43.458812" lon="-5.061351">
        <ele>52.082</ele>
        <time>2022-08-27T13:53:46Z</time>
      </trkpt>
      <trkpt lat="43.458807" lon="-5.061283">
        <ele>51.312</ele>
        <time>2022-08-27T13:53:48Z</time>
      </trkpt>
      <trkpt lat="43.458812" lon="-5.061215">
        <ele>50.918</ele>
        <time>2022-08-27T13:53:50Z</time>
      </trkpt>
      <trkpt lat="43.458874" lon="-5.061162">
        <ele>50.872</ele>
        <time>2022-08-27T13:53:53Z</time>
      </trkpt>
      <trkpt lat="43.458942" lon="-5.061152">
        <ele>50.859</ele>
        <time>2022-08-27T13:53:55Z</time>
      </trkpt>
      <trkpt lat="43.459012" lon="-5.061160">
        <ele>51.176</ele>
        <time>2022-08-27T13:53:57Z</time>
      </trkpt>
      <trkpt lat="43.459094" lon="-5.061162">
        <ele>51.367</ele>
        <time>2022-08-27T13:53:59Z</time>
      </trkpt>
      <trkpt lat="43.459171" lon="-5.061145">
        <ele>52.381</ele>
        <time>2022-08-27T13:54:01Z</time>
      </trkpt>
      <trkpt lat="43.459236" lon="-5.061132">
        <ele>53.719</ele>
        <time>2022-08-27T13:54:03Z</time>
      </trkpt>
      <trkpt lat="43.459286" lon="-5.061122">
        <ele>55.109</ele>
        <time>2022-08-27T13:54:05Z</time>
      </trkpt>
      <trkpt lat="43.459358" lon="-5.061112">
        <ele>57.097</ele>
        <time>2022-08-27T13:54:07Z</time>
      </trkpt>
      <trkpt lat="43.459426" lon="-5.061095">
        <ele>58.137</ele>
        <time>2022-08-27T13:54:10Z</time>
      </trkpt>
      <trkpt lat="43.459484" lon="-5.061078">
        <ele>59.578</ele>
        <time>2022-08-27T13:54:12Z</time>
      </trkpt>
      <trkpt lat="43.459536" lon="-5.061055">
        <ele>60.186</ele>
        <time>2022-08-27T13:54:14Z</time>
      </trkpt>
      <trkpt lat="43.459594" lon="-5.061023">
        <ele>61.156</ele>
        <time>2022-08-27T13:54:16Z</time>
      </trkpt>
      <trkpt lat="43.459652" lon="-5.060983">
        <ele>61.812</ele>
        <time>2022-08-27T13:54:18Z</time>
      </trkpt>
      <trkpt lat="43.459700" lon="-5.060923">
        <ele>61.916</ele>
        <time>2022-08-27T13:54:20Z</time>
      </trkpt>
      <trkpt lat="43.459753" lon="-5.060876">
        <ele>61.953</ele>
        <time>2022-08-27T13:54:22Z</time>
      </trkpt>
      <trkpt lat="43.459803" lon="-5.060819">
        <ele>62.080</ele>
        <time>2022-08-27T13:54:24Z</time>
      </trkpt>
      <trkpt lat="43.459866" lon="-5.060772">
        <ele>62.225</ele>
        <time>2022-08-27T13:54:26Z</time>
      </trkpt>
      <trkpt lat="43.459919" lon="-5.060725">
        <ele>62.826</ele>
        <time>2022-08-27T13:54:28Z</time>
      </trkpt>
      <trkpt lat="43.459954" lon="-5.060667">
        <ele>63.908</ele>
        <time>2022-08-27T13:54:30Z</time>
      </trkpt>
      <trkpt lat="43.460001" lon="-5.060612">
        <ele>64.309</ele>
        <time>2022-08-27T13:54:32Z</time>
      </trkpt>
      <trkpt lat="43.460046" lon="-5.060557">
        <ele>64.473</ele>
        <time>2022-08-27T13:54:34Z</time>
      </trkpt>
      <trkpt lat="43.460089" lon="-5.060505">
        <ele>64.523</ele>
        <time>2022-08-27T13:54:36Z</time>
      </trkpt>
      <trkpt lat="43.460126" lon="-5.060437">
        <ele>64.794</ele>
        <time>2022-08-27T13:54:38Z</time>
      </trkpt>
      <trkpt lat="43.460146" lon="-5.060365">
        <ele>64.732</ele>
        <time>2022-08-27T13:54:40Z</time>
      </trkpt>
      <trkpt lat="43.460153" lon="-5.060290">
        <ele>64.732</ele>
        <time>2022-08-27T13:54:42Z</time>
      </trkpt>
      <trkpt lat="43.460171" lon="-5.060215">
        <ele>64.278</ele>
        <time>2022-08-27T13:54:44Z</time>
      </trkpt>
      <trkpt lat="43.460171" lon="-5.060140">
        <ele>63.892</ele>
        <time>2022-08-27T13:54:46Z</time>
      </trkpt>
      <trkpt lat="43.460158" lon="-5.060080">
        <ele>63.789</ele>
        <time>2022-08-27T13:54:48Z</time>
      </trkpt>
      <trkpt lat="43.460148" lon="-5.060003">
        <ele>63.266</ele>
        <time>2022-08-27T13:54:50Z</time>
      </trkpt>
      <trkpt lat="43.460130" lon="-5.059928">
        <ele>62.512</ele>
        <time>2022-08-27T13:54:52Z</time>
      </trkpt>
      <trkpt lat="43.460117" lon="-5.059851">
        <ele>61.932</ele>
        <time>2022-08-27T13:54:54Z</time>
      </trkpt>
      <trkpt lat="43.460097" lon="-5.059774">
        <ele>61.405</ele>
        <time>2022-08-27T13:54:56Z</time>
      </trkpt>
      <trkpt lat="43.460069" lon="-5.059706">
        <ele>61.009</ele>
        <time>2022-08-27T13:54:58Z</time>
      </trkpt>
      <trkpt lat="43.460037" lon="-5.059633">
        <ele>60.962</ele>
        <time>2022-08-27T13:55:00Z</time>
      </trkpt>
      <trkpt lat="43.460005" lon="-5.059561">
        <ele>60.542</ele>
        <time>2022-08-27T13:55:02Z</time>
      </trkpt>
      <trkpt lat="43.459978" lon="-5.059503">
        <ele>60.483</ele>
        <time>2022-08-27T13:55:04Z</time>
      </trkpt>
      <trkpt lat="43.459951" lon="-5.059446">
        <ele>60.281</ele>
        <time>2022-08-27T13:55:06Z</time>
      </trkpt>
      <trkpt lat="43.459924" lon="-5.059381">
        <ele>60.031</ele>
        <time>2022-08-27T13:55:08Z</time>
      </trkpt>
      <trkpt lat="43.459894" lon="-5.059324">
        <ele>59.197</ele>
        <time>2022-08-27T13:55:10Z</time>
      </trkpt>
      <trkpt lat="43.459872" lon="-5.059261">
        <ele>58.711</ele>
        <time>2022-08-27T13:55:12Z</time>
      </trkpt>
      <trkpt lat="43.459845" lon="-5.059201">
        <ele>58.788</ele>
        <time>2022-08-27T13:55:14Z</time>
      </trkpt>
      <trkpt lat="43.459817" lon="-5.059146">
        <ele>58.745</ele>
        <time>2022-08-27T13:55:16Z</time>
      </trkpt>
      <trkpt lat="43.459795" lon="-5.059081">
        <ele>59.137</ele>
        <time>2022-08-27T13:55:18Z</time>
      </trkpt>
      <trkpt lat="43.459778" lon="-5.059014">
        <ele>60.249</ele>
        <time>2022-08-27T13:55:20Z</time>
      </trkpt>
      <trkpt lat="43.459760" lon="-5.058952">
        <ele>61.313</ele>
        <time>2022-08-27T13:55:22Z</time>
      </trkpt>
      <trkpt lat="43.459742" lon="-5.058880">
        <ele>62.409</ele>
        <time>2022-08-27T13:55:24Z</time>
      </trkpt>
      <trkpt lat="43.459729" lon="-5.058797">
        <ele>63.734</ele>
        <time>2022-08-27T13:55:26Z</time>
      </trkpt>
      <trkpt lat="43.459719" lon="-5.058725">
        <ele>64.474</ele>
        <time>2022-08-27T13:55:28Z</time>
      </trkpt>
      <trkpt lat="43.459711" lon="-5.058655">
        <ele>65.095</ele>
        <time>2022-08-27T13:55:30Z</time>
      </trkpt>
      <trkpt lat="43.459706" lon="-5.058580">
        <ele>65.333</ele>
        <time>2022-08-27T13:55:32Z</time>
      </trkpt>
      <trkpt lat="43.459699" lon="-5.058502">
        <ele>65.423</ele>
        <time>2022-08-27T13:55:34Z</time>
      </trkpt>
      <trkpt lat="43.459689" lon="-5.058434">
        <ele>65.799</ele>
        <time>2022-08-27T13:55:36Z</time>
      </trkpt>
      <trkpt lat="43.459679" lon="-5.058357">
        <ele>66.523</ele>
        <time>2022-08-27T13:55:38Z</time>
      </trkpt>
      <trkpt lat="43.459669" lon="-5.058285">
        <ele>67.160</ele>
        <time>2022-08-27T13:55:40Z</time>
      </trkpt>
      <trkpt lat="43.459669" lon="-5.058210">
        <ele>67.927</ele>
        <time>2022-08-27T13:55:42Z</time>
      </trkpt>
      <trkpt lat="43.459674" lon="-5.058133">
        <ele>68.775</ele>
        <time>2022-08-27T13:55:44Z</time>
      </trkpt>
      <trkpt lat="43.459672" lon="-5.058060">
        <ele>69.128</ele>
        <time>2022-08-27T13:55:46Z</time>
      </trkpt>
      <trkpt lat="43.459670" lon="-5.057988">
        <ele>69.320</ele>
        <time>2022-08-27T13:55:48Z</time>
      </trkpt>
      <trkpt lat="43.459673" lon="-5.057913">
        <ele>69.309</ele>
        <time>2022-08-27T13:55:50Z</time>
      </trkpt>
      <trkpt lat="43.459670" lon="-5.057840">
        <ele>69.328</ele>
        <time>2022-08-27T13:55:52Z</time>
      </trkpt>
      <trkpt lat="43.459672" lon="-5.057772">
        <ele>69.368</ele>
        <time>2022-08-27T13:55:54Z</time>
      </trkpt>
      <trkpt lat="43.459672" lon="-5.057700">
        <ele>69.219</ele>
        <time>2022-08-27T13:55:56Z</time>
      </trkpt>
      <trkpt lat="43.459672" lon="-5.057622">
        <ele>69.277</ele>
        <time>2022-08-27T13:55:58Z</time>
      </trkpt>
      <trkpt lat="43.459675" lon="-5.057542">
        <ele>69.147</ele>
        <time>2022-08-27T13:56:00Z</time>
      </trkpt>
      <trkpt lat="43.459677" lon="-5.057457">
        <ele>68.713</ele>
        <time>2022-08-27T13:56:02Z</time>
      </trkpt>
      <trkpt lat="43.459675" lon="-5.057382">
        <ele>68.667</ele>
        <time>2022-08-27T13:56:04Z</time>
      </trkpt>
      <trkpt lat="43.459678" lon="-5.057304">
        <ele>68.684</ele>
        <time>2022-08-27T13:56:06Z</time>
      </trkpt>
      <trkpt lat="43.459683" lon="-5.057226">
        <ele>68.611</ele>
        <time>2022-08-27T13:56:08Z</time>
      </trkpt>
      <trkpt lat="43.459680" lon="-5.057153">
        <ele>68.971</ele>
        <time>2022-08-27T13:56:10Z</time>
      </trkpt>
      <trkpt lat="43.459677" lon="-5.057073">
        <ele>70.441</ele>
        <time>2022-08-27T13:56:12Z</time>
      </trkpt>
      <trkpt lat="43.459685" lon="-5.056988">
        <ele>72.215</ele>
        <time>2022-08-27T13:56:14Z</time>
      </trkpt>
      <trkpt lat="43.459698" lon="-5.056911">
        <ele>73.809</ele>
        <time>2022-08-27T13:56:16Z</time>
      </trkpt>
      <trkpt lat="43.459703" lon="-5.056833">
        <ele>75.748</ele>
        <time>2022-08-27T13:56:18Z</time>
      </trkpt>
      <trkpt lat="43.459705" lon="-5.056756">
        <ele>77.388</ele>
        <time>2022-08-27T13:56:20Z</time>
      </trkpt>
      <trkpt lat="43.459708" lon="-5.056676">
        <ele>79.819</ele>
        <time>2022-08-27T13:56:22Z</time>
      </trkpt>
      <trkpt lat="43.459705" lon="-5.056591">
        <ele>81.697</ele>
        <time>2022-08-27T13:56:24Z</time>
      </trkpt>
      <trkpt lat="43.459702" lon="-5.056503">
        <ele>82.427</ele>
        <time>2022-08-27T13:56:26Z</time>
      </trkpt>
      <trkpt lat="43.459719" lon="-5.056408">
        <ele>83.553</ele>
        <time>2022-08-27T13:56:28Z</time>
      </trkpt>
      <trkpt lat="43.459736" lon="-5.056310">
        <ele>84.747</ele>
        <time>2022-08-27T13:56:30Z</time>
      </trkpt>
      <trkpt lat="43.459743" lon="-5.056213">
        <ele>86.494</ele>
        <time>2022-08-27T13:56:32Z</time>
      </trkpt>
      <trkpt lat="43.459751" lon="-5.056131">
        <ele>87.531</ele>
        <time>2022-08-27T13:56:34Z</time>
      </trkpt>
      <trkpt lat="43.459754" lon="-5.056059">
        <ele>87.612</ele>
        <time>2022-08-27T13:56:36Z</time>
      </trkpt>
      <trkpt lat="43.459766" lon="-5.055989">
        <ele>87.832</ele>
        <time>2022-08-27T13:56:38Z</time>
      </trkpt>
      <trkpt lat="43.459781" lon="-5.055916">
        <ele>87.805</ele>
        <time>2022-08-27T13:56:40Z</time>
      </trkpt>
      <trkpt lat="43.459798" lon="-5.055834">
        <ele>87.709</ele>
        <time>2022-08-27T13:56:42Z</time>
      </trkpt>
      <trkpt lat="43.459816" lon="-5.055759">
        <ele>86.662</ele>
        <time>2022-08-27T13:56:44Z</time>
      </trkpt>
      <trkpt lat="43.459839" lon="-5.055687">
        <ele>85.872</ele>
        <time>2022-08-27T13:56:46Z</time>
      </trkpt>
      <trkpt lat="43.459866" lon="-5.055619">
        <ele>85.593</ele>
        <time>2022-08-27T13:56:48Z</time>
      </trkpt>
      <trkpt lat="43.459898" lon="-5.055552">
        <ele>85.491</ele>
        <time>2022-08-27T13:56:50Z</time>
      </trkpt>
      <trkpt lat="43.459930" lon="-5.055489">
        <ele>85.391</ele>
        <time>2022-08-27T13:56:52Z</time>
      </trkpt>
      <trkpt lat="43.459963" lon="-5.055429">
        <ele>84.567</ele>
        <time>2022-08-27T13:56:53Z</time>
      </trkpt>
      <trkpt lat="43.459996" lon="-5.055364">
        <ele>83.531</ele>
        <time>2022-08-27T13:56:56Z</time>
      </trkpt>
      <trkpt lat="43.460029" lon="-5.055297">
        <ele>82.888</ele>
        <time>2022-08-27T13:56:58Z</time>
      </trkpt>
      <trkpt lat="43.460059" lon="-5.055230">
        <ele>82.275</ele>
        <time>2022-08-27T13:57:00Z</time>
      </trkpt>
      <trkpt lat="43.460087" lon="-5.055157">
        <ele>81.538</ele>
        <time>2022-08-27T13:57:02Z</time>
      </trkpt>
      <trkpt lat="43.460109" lon="-5.055085">
        <ele>81.370</ele>
        <time>2022-08-27T13:57:04Z</time>
      </trkpt>
      <trkpt lat="43.460132" lon="-5.055010">
        <ele>80.617</ele>
        <time>2022-08-27T13:57:06Z</time>
      </trkpt>
      <trkpt lat="43.460150" lon="-5.054930">
        <ele>80.109</ele>
        <time>2022-08-27T13:57:08Z</time>
      </trkpt>
      <trkpt lat="43.460165" lon="-5.054855">
        <ele>79.994</ele>
        <time>2022-08-27T13:57:10Z</time>
      </trkpt>
      <trkpt lat="43.460177" lon="-5.054765">
        <ele>79.764</ele>
        <time>2022-08-27T13:57:12Z</time>
      </trkpt>
      <trkpt lat="43.460170" lon="-5.054680">
        <ele>79.625</ele>
        <time>2022-08-27T13:57:14Z</time>
      </trkpt>
      <trkpt lat="43.460172" lon="-5.054590">
        <ele>79.553</ele>
        <time>2022-08-27T13:57:16Z</time>
      </trkpt>
      <trkpt lat="43.460174" lon="-5.054512">
        <ele>79.513</ele>
        <time>2022-08-27T13:57:18Z</time>
      </trkpt>
      <trkpt lat="43.460167" lon="-5.054442">
        <ele>79.189</ele>
        <time>2022-08-27T13:57:20Z</time>
      </trkpt>
      <trkpt lat="43.460155" lon="-5.054382">
        <ele>79.143</ele>
        <time>2022-08-27T13:57:22Z</time>
      </trkpt>
      <trkpt lat="43.460138" lon="-5.054302">
        <ele>79.160</ele>
        <time>2022-08-27T13:57:24Z</time>
      </trkpt>
      <trkpt lat="43.460120" lon="-5.054214">
        <ele>79.227</ele>
        <time>2022-08-27T13:57:26Z</time>
      </trkpt>
      <trkpt lat="43.460103" lon="-5.054149">
        <ele>79.719</ele>
        <time>2022-08-27T13:57:28Z</time>
      </trkpt>
      <trkpt lat="43.460083" lon="-5.054087">
        <ele>80.009</ele>
        <time>2022-08-27T13:57:30Z</time>
      </trkpt>
      <trkpt lat="43.460060" lon="-5.054020">
        <ele>80.519</ele>
        <time>2022-08-27T13:57:32Z</time>
      </trkpt>
      <trkpt lat="43.460037" lon="-5.053940">
        <ele>81.409</ele>
        <time>2022-08-27T13:57:34Z</time>
      </trkpt>
      <trkpt lat="43.460019" lon="-5.053873">
        <ele>82.252</ele>
        <time>2022-08-27T13:57:36Z</time>
      </trkpt>
      <trkpt lat="43.459999" lon="-5.053815">
        <ele>82.762</ele>
        <time>2022-08-27T13:57:38Z</time>
      </trkpt>
      <trkpt lat="43.459977" lon="-5.053728">
        <ele>83.943</ele>
        <time>2022-08-27T13:57:41Z</time>
      </trkpt>
      <trkpt lat="43.459965" lon="-5.053660">
        <ele>84.331</ele>
        <time>2022-08-27T13:57:43Z</time>
      </trkpt>
      <trkpt lat="43.459952" lon="-5.053592">
        <ele>84.961</ele>
        <time>2022-08-27T13:57:45Z</time>
      </trkpt>
      <trkpt lat="43.459939" lon="-5.053529">
        <ele>85.627</ele>
        <time>2022-08-27T13:57:47Z</time>
      </trkpt>
      <trkpt lat="43.459934" lon="-5.053461">
        <ele>86.321</ele>
        <time>2022-08-27T13:57:49Z</time>
      </trkpt>
      <trkpt lat="43.459926" lon="-5.053394">
        <ele>86.468</ele>
        <time>2022-08-27T13:57:51Z</time>
      </trkpt>
      <trkpt lat="43.459916" lon="-5.053331">
        <ele>86.665</ele>
        <time>2022-08-27T13:57:53Z</time>
      </trkpt>
      <trkpt lat="43.459899" lon="-5.053269">
        <ele>86.674</ele>
        <time>2022-08-27T13:57:55Z</time>
      </trkpt>
      <trkpt lat="43.459889" lon="-5.053202">
        <ele>86.756</ele>
        <time>2022-08-27T13:57:57Z</time>
      </trkpt>
      <trkpt lat="43.459877" lon="-5.053135">
        <ele>87.121</ele>
        <time>2022-08-27T13:57:59Z</time>
      </trkpt>
      <trkpt lat="43.459864" lon="-5.053065">
        <ele>87.409</ele>
        <time>2022-08-27T13:58:01Z</time>
      </trkpt>
      <trkpt lat="43.459857" lon="-5.052997">
        <ele>87.488</ele>
        <time>2022-08-27T13:58:03Z</time>
      </trkpt>
      <trkpt lat="43.459855" lon="-5.052927">
        <ele>87.598</ele>
        <time>2022-08-27T13:58:05Z</time>
      </trkpt>
      <trkpt lat="43.459858" lon="-5.052852">
        <ele>87.519</ele>
        <time>2022-08-27T13:58:07Z</time>
      </trkpt>
      <trkpt lat="43.459850" lon="-5.052779">
        <ele>87.467</ele>
        <time>2022-08-27T13:58:09Z</time>
      </trkpt>
      <trkpt lat="43.459845" lon="-5.052709">
        <ele>87.417</ele>
        <time>2022-08-27T13:58:11Z</time>
      </trkpt>
      <trkpt lat="43.459840" lon="-5.052637">
        <ele>87.323</ele>
        <time>2022-08-27T13:58:13Z</time>
      </trkpt>
      <trkpt lat="43.459837" lon="-5.052565">
        <ele>87.057</ele>
        <time>2022-08-27T13:58:15Z</time>
      </trkpt>
      <trkpt lat="43.459832" lon="-5.052497">
        <ele>86.824</ele>
        <time>2022-08-27T13:58:17Z</time>
      </trkpt>
      <trkpt lat="43.459825" lon="-5.052410">
        <ele>86.541</ele>
        <time>2022-08-27T13:59:58Z</time>
      </trkpt>
      <trkpt lat="43.459840" lon="-5.052330">
        <ele>86.525</ele>
        <time>2022-08-27T14:00:02Z</time>
      </trkpt>
      <trkpt lat="43.459850" lon="-5.052263">
        <ele>86.526</ele>
        <time>2022-08-27T14:00:05Z</time>
      </trkpt>
      <trkpt lat="43.459863" lon="-5.052185">
        <ele>86.508</ele>
        <time>2022-08-27T14:00:08Z</time>
      </trkpt>
      <trkpt lat="43.459863" lon="-5.052087">
        <ele>86.509</ele>
        <time>2022-08-27T14:00:11Z</time>
      </trkpt>
      <trkpt lat="43.459870" lon="-5.052010">
        <ele>88.343</ele>
        <time>2022-08-27T14:00:13Z</time>
      </trkpt>
      <trkpt lat="43.459877" lon="-5.051922">
        <ele>88.343</ele>
        <time>2022-08-27T14:00:15Z</time>
      </trkpt>
      <trkpt lat="43.459887" lon="-5.051822">
        <ele>88.144</ele>
        <time>2022-08-27T14:00:17Z</time>
      </trkpt>
      <trkpt lat="43.459904" lon="-5.051702">
        <ele>87.882</ele>
        <time>2022-08-27T14:00:19Z</time>
      </trkpt>
      <trkpt lat="43.459924" lon="-5.051572">
        <ele>87.052</ele>
        <time>2022-08-27T14:00:21Z</time>
      </trkpt>
      <trkpt lat="43.459932" lon="-5.051502">
        <ele>86.778</ele>
        <time>2022-08-27T14:00:22Z</time>
      </trkpt>
      <trkpt lat="43.459950" lon="-5.051349">
        <ele>86.262</ele>
        <time>2022-08-27T14:00:24Z</time>
      </trkpt>
      <trkpt lat="43.459960" lon="-5.051261">
        <ele>85.879</ele>
        <time>2022-08-27T14:00:25Z</time>
      </trkpt>
      <trkpt lat="43.459968" lon="-5.051163">
        <ele>84.926</ele>
        <time>2022-08-27T14:00:26Z</time>
      </trkpt>
      <trkpt lat="43.459981" lon="-5.050953">
        <ele>83.261</ele>
        <time>2022-08-27T14:00:28Z</time>
      </trkpt>
      <trkpt lat="43.459961" lon="-5.050720">
        <ele>81.721</ele>
        <time>2022-08-27T14:00:30Z</time>
      </trkpt>
      <trkpt lat="43.459946" lon="-5.050597">
        <ele>80.913</ele>
        <time>2022-08-27T14:00:31Z</time>
      </trkpt>
      <trkpt lat="43.459898" lon="-5.050359">
        <ele>79.609</ele>
        <time>2022-08-27T14:00:33Z</time>
      </trkpt>
      <trkpt lat="43.459868" lon="-5.050242">
        <ele>79.027</ele>
        <time>2022-08-27T14:00:34Z</time>
      </trkpt>
      <trkpt lat="43.459836" lon="-5.050129">
        <ele>78.897</ele>
        <time>2022-08-27T14:00:35Z</time>
      </trkpt>
      <trkpt lat="43.459808" lon="-5.050017">
        <ele>78.588</ele>
        <time>2022-08-27T14:00:36Z</time>
      </trkpt>
      <trkpt lat="43.459780" lon="-5.049907">
        <ele>78.286</ele>
        <time>2022-08-27T14:00:37Z</time>
      </trkpt>
      <trkpt lat="43.459750" lon="-5.049800">
        <ele>77.896</ele>
        <time>2022-08-27T14:00:38Z</time>
      </trkpt>
      <trkpt lat="43.459695" lon="-5.049593">
        <ele>76.672</ele>
        <time>2022-08-27T14:00:40Z</time>
      </trkpt>
      <trkpt lat="43.459640" lon="-5.049395">
        <ele>76.126</ele>
        <time>2022-08-27T14:00:42Z</time>
      </trkpt>
      <trkpt lat="43.459612" lon="-5.049303">
        <ele>76.123</ele>
        <time>2022-08-27T14:00:43Z</time>
      </trkpt>
      <trkpt lat="43.459564" lon="-5.049125">
        <ele>76.110</ele>
        <time>2022-08-27T14:00:45Z</time>
      </trkpt>
      <trkpt lat="43.459531" lon="-5.048943">
        <ele>75.991</ele>
        <time>2022-08-27T14:00:47Z</time>
      </trkpt>
      <trkpt lat="43.459511" lon="-5.048770">
        <ele>75.881</ele>
        <time>2022-08-27T14:00:49Z</time>
      </trkpt>
      <trkpt lat="43.459506" lon="-5.048682">
        <ele>75.819</ele>
        <time>2022-08-27T14:00:50Z</time>
      </trkpt>
      <trkpt lat="43.459503" lon="-5.048592">
        <ele>75.809</ele>
        <time>2022-08-27T14:00:51Z</time>
      </trkpt>
      <trkpt lat="43.459503" lon="-5.048502">
        <ele>75.860</ele>
        <time>2022-08-27T14:00:52Z</time>
      </trkpt>
      <trkpt lat="43.459498" lon="-5.048327">
        <ele>75.910</ele>
        <time>2022-08-27T14:00:54Z</time>
      </trkpt>
      <trkpt lat="43.459498" lon="-5.048239">
        <ele>75.951</ele>
        <time>2022-08-27T14:00:55Z</time>
      </trkpt>
      <trkpt lat="43.459500" lon="-5.048152">
        <ele>75.899</ele>
        <time>2022-08-27T14:00:56Z</time>
      </trkpt>
      <trkpt lat="43.459505" lon="-5.047982">
        <ele>75.379</ele>
        <time>2022-08-27T14:00:58Z</time>
      </trkpt>
      <trkpt lat="43.459508" lon="-5.047814">
        <ele>75.355</ele>
        <time>2022-08-27T14:01:00Z</time>
      </trkpt>
      <trkpt lat="43.459508" lon="-5.047731">
        <ele>75.439</ele>
        <time>2022-08-27T14:01:01Z</time>
      </trkpt>
      <trkpt lat="43.459510" lon="-5.047648">
        <ele>75.666</ele>
        <time>2022-08-27T14:01:02Z</time>
      </trkpt>
      <trkpt lat="43.459513" lon="-5.047485">
        <ele>75.673</ele>
        <time>2022-08-27T14:01:04Z</time>
      </trkpt>
      <trkpt lat="43.459511" lon="-5.047320">
        <ele>75.354</ele>
        <time>2022-08-27T14:01:06Z</time>
      </trkpt>
      <trkpt lat="43.459508" lon="-5.047238">
        <ele>75.156</ele>
        <time>2022-08-27T14:01:07Z</time>
      </trkpt>
      <trkpt lat="43.459500" lon="-5.047075">
        <ele>74.611</ele>
        <time>2022-08-27T14:01:09Z</time>
      </trkpt>
      <trkpt lat="43.459485" lon="-5.046913">
        <ele>74.309</ele>
        <time>2022-08-27T14:01:11Z</time>
      </trkpt>
      <trkpt lat="43.459473" lon="-5.046833">
        <ele>74.376</ele>
        <time>2022-08-27T14:01:12Z</time>
      </trkpt>
      <trkpt lat="43.459461" lon="-5.046755">
        <ele>74.196</ele>
        <time>2022-08-27T14:01:13Z</time>
      </trkpt>
      <trkpt lat="43.459428" lon="-5.046600">
        <ele>74.157</ele>
        <time>2022-08-27T14:01:15Z</time>
      </trkpt>
      <trkpt lat="43.459408" lon="-5.046522">
        <ele>74.225</ele>
        <time>2022-08-27T14:01:16Z</time>
      </trkpt>
      <trkpt lat="43.459386" lon="-5.046445">
        <ele>74.535</ele>
        <time>2022-08-27T14:01:17Z</time>
      </trkpt>
      <trkpt lat="43.459363" lon="-5.046373">
        <ele>74.741</ele>
        <time>2022-08-27T14:01:18Z</time>
      </trkpt>
      <trkpt lat="43.459336" lon="-5.046305">
        <ele>74.755</ele>
        <time>2022-08-27T14:01:19Z</time>
      </trkpt>
      <trkpt lat="43.459279" lon="-5.046173">
        <ele>74.722</ele>
        <time>2022-08-27T14:01:21Z</time>
      </trkpt>
      <trkpt lat="43.459247" lon="-5.046113">
        <ele>74.559</ele>
        <time>2022-08-27T14:01:22Z</time>
      </trkpt>
      <trkpt lat="43.459182" lon="-5.045991">
        <ele>74.395</ele>
        <time>2022-08-27T14:01:24Z</time>
      </trkpt>
      <trkpt lat="43.459114" lon="-5.045876">
        <ele>74.349</ele>
        <time>2022-08-27T14:01:26Z</time>
      </trkpt>
      <trkpt lat="43.459077" lon="-5.045823">
        <ele>74.323</ele>
        <time>2022-08-27T14:01:27Z</time>
      </trkpt>
      <trkpt lat="43.459000" lon="-5.045720">
        <ele>74.409</ele>
        <time>2022-08-27T14:01:29Z</time>
      </trkpt>
      <trkpt lat="43.458958" lon="-5.045668">
        <ele>74.510</ele>
        <time>2022-08-27T14:01:30Z</time>
      </trkpt>
      <trkpt lat="43.458876" lon="-5.045563">
        <ele>74.850</ele>
        <time>2022-08-27T14:01:32Z</time>
      </trkpt>
      <trkpt lat="43.458836" lon="-5.045511">
        <ele>74.961</ele>
        <time>2022-08-27T14:01:33Z</time>
      </trkpt>
      <trkpt lat="43.458758" lon="-5.045409">
        <ele>74.919</ele>
        <time>2022-08-27T14:01:35Z</time>
      </trkpt>
      <trkpt lat="43.458676" lon="-5.045307">
        <ele>75.329</ele>
        <time>2022-08-27T14:01:37Z</time>
      </trkpt>
      <trkpt lat="43.458594" lon="-5.045199">
        <ele>75.345</ele>
        <time>2022-08-27T14:01:39Z</time>
      </trkpt>
      <trkpt lat="43.458512" lon="-5.045084">
        <ele>75.849</ele>
        <time>2022-08-27T14:01:41Z</time>
      </trkpt>
      <trkpt lat="43.458439" lon="-5.044969">
        <ele>76.326</ele>
        <time>2022-08-27T14:01:43Z</time>
      </trkpt>
      <trkpt lat="43.458372" lon="-5.044842">
        <ele>76.383</ele>
        <time>2022-08-27T14:01:45Z</time>
      </trkpt>
      <trkpt lat="43.458342" lon="-5.044774">
        <ele>76.354</ele>
        <time>2022-08-27T14:01:46Z</time>
      </trkpt>
      <trkpt lat="43.458284" lon="-5.044646">
        <ele>76.056</ele>
        <time>2022-08-27T14:01:48Z</time>
      </trkpt>
      <trkpt lat="43.458252" lon="-5.044581">
        <ele>75.611</ele>
        <time>2022-08-27T14:01:49Z</time>
      </trkpt>
      <trkpt lat="43.458192" lon="-5.044449">
        <ele>75.309</ele>
        <time>2022-08-27T14:01:51Z</time>
      </trkpt>
      <trkpt lat="43.458135" lon="-5.044317">
        <ele>75.146</ele>
        <time>2022-08-27T14:01:53Z</time>
      </trkpt>
      <trkpt lat="43.458105" lon="-5.044255">
        <ele>75.146</ele>
        <time>2022-08-27T14:01:54Z</time>
      </trkpt>
      <trkpt lat="43.458042" lon="-5.044133">
        <ele>74.897</ele>
        <time>2022-08-27T14:01:56Z</time>
      </trkpt>
      <trkpt lat="43.457975" lon="-5.044008">
        <ele>74.695</ele>
        <time>2022-08-27T14:01:58Z</time>
      </trkpt>
      <trkpt lat="43.457908" lon="-5.043886">
        <ele>74.085</ele>
        <time>2022-08-27T14:02:00Z</time>
      </trkpt>
      <trkpt lat="43.457875" lon="-5.043824">
        <ele>73.561</ele>
        <time>2022-08-27T14:02:01Z</time>
      </trkpt>
      <trkpt lat="43.457808" lon="-5.043694">
        <ele>72.945</ele>
        <time>2022-08-27T14:02:03Z</time>
      </trkpt>
      <trkpt lat="43.457773" lon="-5.043622">
        <ele>72.632</ele>
        <time>2022-08-27T14:02:04Z</time>
      </trkpt>
      <trkpt lat="43.457706" lon="-5.043467">
        <ele>72.549</ele>
        <time>2022-08-27T14:02:06Z</time>
      </trkpt>
      <trkpt lat="43.457671" lon="-5.043387">
        <ele>72.482</ele>
        <time>2022-08-27T14:02:07Z</time>
      </trkpt>
      <trkpt lat="43.457593" lon="-5.043230">
        <ele>72.543</ele>
        <time>2022-08-27T14:02:09Z</time>
      </trkpt>
      <trkpt lat="43.457513" lon="-5.043065">
        <ele>72.717</ele>
        <time>2022-08-27T14:02:11Z</time>
      </trkpt>
      <trkpt lat="43.457473" lon="-5.042980">
        <ele>72.509</ele>
        <time>2022-08-27T14:02:12Z</time>
      </trkpt>
      <trkpt lat="43.457393" lon="-5.042805">
        <ele>72.189</ele>
        <time>2022-08-27T14:02:14Z</time>
      </trkpt>
      <trkpt lat="43.457316" lon="-5.042637">
        <ele>71.469</ele>
        <time>2022-08-27T14:02:16Z</time>
      </trkpt>
      <trkpt lat="43.457278" lon="-5.042555">
        <ele>71.040</ele>
        <time>2022-08-27T14:02:17Z</time>
      </trkpt>
      <trkpt lat="43.457201" lon="-5.042397">
        <ele>70.088</ele>
        <time>2022-08-27T14:02:19Z</time>
      </trkpt>
      <trkpt lat="43.457128" lon="-5.042247">
        <ele>69.468</ele>
        <time>2022-08-27T14:02:21Z</time>
      </trkpt>
      <trkpt lat="43.457055" lon="-5.042104">
        <ele>69.424</ele>
        <time>2022-08-27T14:02:23Z</time>
      </trkpt>
      <trkpt lat="43.457020" lon="-5.042037">
        <ele>69.318</ele>
        <time>2022-08-27T14:02:24Z</time>
      </trkpt>
      <trkpt lat="43.456985" lon="-5.041969">
        <ele>69.395</ele>
        <time>2022-08-27T14:02:25Z</time>
      </trkpt>
      <trkpt lat="43.456950" lon="-5.041901">
        <ele>69.322</ele>
        <time>2022-08-27T14:02:26Z</time>
      </trkpt>
      <trkpt lat="43.456882" lon="-5.041768">
        <ele>69.256</ele>
        <time>2022-08-27T14:02:28Z</time>
      </trkpt>
      <trkpt lat="43.456850" lon="-5.041703">
        <ele>69.359</ele>
        <time>2022-08-27T14:02:29Z</time>
      </trkpt>
      <trkpt lat="43.456785" lon="-5.041576">
        <ele>69.514</ele>
        <time>2022-08-27T14:02:31Z</time>
      </trkpt>
      <trkpt lat="43.456755" lon="-5.041513">
        <ele>69.609</ele>
        <time>2022-08-27T14:02:32Z</time>
      </trkpt>
      <trkpt lat="43.456693" lon="-5.041386">
        <ele>69.966</ele>
        <time>2022-08-27T14:02:34Z</time>
      </trkpt>
      <trkpt lat="43.456635" lon="-5.041264">
        <ele>70.156</ele>
        <time>2022-08-27T14:02:36Z</time>
      </trkpt>
      <trkpt lat="43.456608" lon="-5.041207">
        <ele>70.447</ele>
        <time>2022-08-27T14:02:37Z</time>
      </trkpt>
      <trkpt lat="43.456583" lon="-5.041147">
        <ele>70.685</ele>
        <time>2022-08-27T14:02:38Z</time>
      </trkpt>
      <trkpt lat="43.456535" lon="-5.041030">
        <ele>71.255</ele>
        <time>2022-08-27T14:02:40Z</time>
      </trkpt>
      <trkpt lat="43.456510" lon="-5.040977">
        <ele>71.621</ele>
        <time>2022-08-27T14:02:41Z</time>
      </trkpt>
      <trkpt lat="43.456462" lon="-5.040874">
        <ele>72.655</ele>
        <time>2022-08-27T14:02:43Z</time>
      </trkpt>
      <trkpt lat="43.456439" lon="-5.040817">
        <ele>73.162</ele>
        <time>2022-08-27T14:02:44Z</time>
      </trkpt>
      <trkpt lat="43.456392" lon="-5.040709">
        <ele>74.169</ele>
        <time>2022-08-27T14:02:46Z</time>
      </trkpt>
      <trkpt lat="43.456344" lon="-5.040606">
        <ele>74.929</ele>
        <time>2022-08-27T14:02:48Z</time>
      </trkpt>
      <trkpt lat="43.456304" lon="-5.040516">
        <ele>75.500</ele>
        <time>2022-08-27T14:02:50Z</time>
      </trkpt>
      <trkpt lat="43.456264" lon="-5.040431">
        <ele>76.120</ele>
        <time>2022-08-27T14:02:52Z</time>
      </trkpt>
      <trkpt lat="43.456224" lon="-5.040351">
        <ele>76.809</ele>
        <time>2022-08-27T14:02:54Z</time>
      </trkpt>
      <trkpt lat="43.456182" lon="-5.040271">
        <ele>77.213</ele>
        <time>2022-08-27T14:02:56Z</time>
      </trkpt>
      <trkpt lat="43.456144" lon="-5.040181">
        <ele>77.693</ele>
        <time>2022-08-27T14:02:58Z</time>
      </trkpt>
      <trkpt lat="43.456104" lon="-5.040089">
        <ele>77.814</ele>
        <time>2022-08-27T14:02:59Z</time>
      </trkpt>
      <trkpt lat="43.456061" lon="-5.039999">
        <ele>77.992</ele>
        <time>2022-08-27T14:03:02Z</time>
      </trkpt>
      <trkpt lat="43.456019" lon="-5.039914">
        <ele>78.262</ele>
        <time>2022-08-27T14:03:04Z</time>
      </trkpt>
      <trkpt lat="43.455977" lon="-5.039827">
        <ele>78.588</ele>
        <time>2022-08-27T14:03:06Z</time>
      </trkpt>
      <trkpt lat="43.455935" lon="-5.039739">
        <ele>78.952</ele>
        <time>2022-08-27T14:03:08Z</time>
      </trkpt>
      <trkpt lat="43.455893" lon="-5.039649">
        <ele>79.219</ele>
        <time>2022-08-27T14:03:10Z</time>
      </trkpt>
      <trkpt lat="43.455856" lon="-5.039559">
        <ele>79.576</ele>
        <time>2022-08-27T14:03:12Z</time>
      </trkpt>
      <trkpt lat="43.455819" lon="-5.039472">
        <ele>79.771</ele>
        <time>2022-08-27T14:03:14Z</time>
      </trkpt>
      <trkpt lat="43.455781" lon="-5.039392">
        <ele>80.141</ele>
        <time>2022-08-27T14:03:16Z</time>
      </trkpt>
      <trkpt lat="43.455749" lon="-5.039314">
        <ele>80.615</ele>
        <time>2022-08-27T14:03:18Z</time>
      </trkpt>
      <trkpt lat="43.455716" lon="-5.039237">
        <ele>80.809</ele>
        <time>2022-08-27T14:03:20Z</time>
      </trkpt>
      <trkpt lat="43.455679" lon="-5.039154">
        <ele>80.828</ele>
        <time>2022-08-27T14:03:22Z</time>
      </trkpt>
      <trkpt lat="43.455644" lon="-5.039069">
        <ele>80.868</ele>
        <time>2022-08-27T14:03:24Z</time>
      </trkpt>
      <trkpt lat="43.455611" lon="-5.038982">
        <ele>80.859</ele>
        <time>2022-08-27T14:03:26Z</time>
      </trkpt>
      <trkpt lat="43.455576" lon="-5.038892">
        <ele>81.127</ele>
        <time>2022-08-27T14:03:28Z</time>
      </trkpt>
      <trkpt lat="43.455543" lon="-5.038802">
        <ele>81.477</ele>
        <time>2022-08-27T14:03:30Z</time>
      </trkpt>
      <trkpt lat="43.455506" lon="-5.038712">
        <ele>81.513</ele>
        <time>2022-08-27T14:03:32Z</time>
      </trkpt>
      <trkpt lat="43.455469" lon="-5.038620">
        <ele>81.857</ele>
        <time>2022-08-27T14:03:34Z</time>
      </trkpt>
      <trkpt lat="43.455432" lon="-5.038527">
        <ele>81.894</ele>
        <time>2022-08-27T14:03:36Z</time>
      </trkpt>
      <trkpt lat="43.455395" lon="-5.038425">
        <ele>81.851</ele>
        <time>2022-08-27T14:03:38Z</time>
      </trkpt>
      <trkpt lat="43.455355" lon="-5.038330">
        <ele>81.819</ele>
        <time>2022-08-27T14:03:40Z</time>
      </trkpt>
      <trkpt lat="43.455318" lon="-5.038233">
        <ele>81.409</ele>
        <time>2022-08-27T14:03:42Z</time>
      </trkpt>
      <trkpt lat="43.455281" lon="-5.038135">
        <ele>81.319</ele>
        <time>2022-08-27T14:03:44Z</time>
      </trkpt>
      <trkpt lat="43.455241" lon="-5.038035">
        <ele>81.009</ele>
        <time>2022-08-27T14:03:46Z</time>
      </trkpt>
      <trkpt lat="43.455199" lon="-5.037935">
        <ele>80.942</ele>
        <time>2022-08-27T14:03:48Z</time>
      </trkpt>
      <trkpt lat="43.455156" lon="-5.037835">
        <ele>80.812</ele>
        <time>2022-08-27T14:03:50Z</time>
      </trkpt>
      <trkpt lat="43.455118" lon="-5.037737">
        <ele>80.993</ele>
        <time>2022-08-27T14:03:52Z</time>
      </trkpt>
      <trkpt lat="43.455076" lon="-5.037632">
        <ele>81.151</ele>
        <time>2022-08-27T14:03:54Z</time>
      </trkpt>
      <trkpt lat="43.455039" lon="-5.037522">
        <ele>81.171</ele>
        <time>2022-08-27T14:03:56Z</time>
      </trkpt>
      <trkpt lat="43.455002" lon="-5.037412">
        <ele>81.117</ele>
        <time>2022-08-27T14:03:58Z</time>
      </trkpt>
      <trkpt lat="43.454964" lon="-5.037305">
        <ele>81.121</ele>
        <time>2022-08-27T14:04:00Z</time>
      </trkpt>
      <trkpt lat="43.454946" lon="-5.037248">
        <ele>81.138</ele>
        <time>2022-08-27T14:04:01Z</time>
      </trkpt>
      <trkpt lat="43.454908" lon="-5.037141">
        <ele>81.185</ele>
        <time>2022-08-27T14:04:03Z</time>
      </trkpt>
      <trkpt lat="43.454866" lon="-5.037041">
        <ele>81.188</ele>
        <time>2022-08-27T14:04:05Z</time>
      </trkpt>
      <trkpt lat="43.454821" lon="-5.036938">
        <ele>81.024</ele>
        <time>2022-08-27T14:04:07Z</time>
      </trkpt>
      <trkpt lat="43.454781" lon="-5.036828">
        <ele>81.026</ele>
        <time>2022-08-27T14:04:09Z</time>
      </trkpt>
      <trkpt lat="43.454761" lon="-5.036768">
        <ele>81.109</ele>
        <time>2022-08-27T14:04:10Z</time>
      </trkpt>
      <trkpt lat="43.454743" lon="-5.036701">
        <ele>81.199</ele>
        <time>2022-08-27T14:04:11Z</time>
      </trkpt>
      <trkpt lat="43.454708" lon="-5.036578">
        <ele>81.349</ele>
        <time>2022-08-27T14:04:13Z</time>
      </trkpt>
      <trkpt lat="43.454691" lon="-5.036516">
        <ele>81.560</ele>
        <time>2022-08-27T14:04:14Z</time>
      </trkpt>
      <trkpt lat="43.454654" lon="-5.036393">
        <ele>81.818</ele>
        <time>2022-08-27T14:04:16Z</time>
      </trkpt>
      <trkpt lat="43.454619" lon="-5.036286">
        <ele>82.178</ele>
        <time>2022-08-27T14:04:18Z</time>
      </trkpt>
      <trkpt lat="43.454589" lon="-5.036159">
        <ele>82.184</ele>
        <time>2022-08-27T14:04:20Z</time>
      </trkpt>
      <trkpt lat="43.454551" lon="-5.036026">
        <ele>81.848</ele>
        <time>2022-08-27T14:04:22Z</time>
      </trkpt>
      <trkpt lat="43.454511" lon="-5.035886">
        <ele>81.425</ele>
        <time>2022-08-27T14:04:24Z</time>
      </trkpt>
      <trkpt lat="43.454489" lon="-5.035813">
        <ele>81.352</ele>
        <time>2022-08-27T14:04:25Z</time>
      </trkpt>
      <trkpt lat="43.454469" lon="-5.035738">
        <ele>81.256</ele>
        <time>2022-08-27T14:04:26Z</time>
      </trkpt>
      <trkpt lat="43.454421" lon="-5.035583">
        <ele>81.159</ele>
        <time>2022-08-27T14:04:28Z</time>
      </trkpt>
      <trkpt lat="43.454398" lon="-5.035505">
        <ele>81.114</ele>
        <time>2022-08-27T14:04:29Z</time>
      </trkpt>
      <trkpt lat="43.454351" lon="-5.035342">
        <ele>80.409</ele>
        <time>2022-08-27T14:04:31Z</time>
      </trkpt>
      <trkpt lat="43.454326" lon="-5.035259">
        <ele>79.976</ele>
        <time>2022-08-27T14:04:32Z</time>
      </trkpt>
      <trkpt lat="43.454276" lon="-5.035087">
        <ele>79.896</ele>
        <time>2022-08-27T14:04:34Z</time>
      </trkpt>
      <trkpt lat="43.454249" lon="-5.034999">
        <ele>79.857</ele>
        <time>2022-08-27T14:04:35Z</time>
      </trkpt>
      <trkpt lat="43.454194" lon="-5.034822">
        <ele>79.715</ele>
        <time>2022-08-27T14:04:37Z</time>
      </trkpt>
      <trkpt lat="43.454141" lon="-5.034644">
        <ele>79.345</ele>
        <time>2022-08-27T14:04:39Z</time>
      </trkpt>
      <trkpt lat="43.454114" lon="-5.034554">
        <ele>79.151</ele>
        <time>2022-08-27T14:04:40Z</time>
      </trkpt>
      <trkpt lat="43.454061" lon="-5.034379">
        <ele>78.445</ele>
        <time>2022-08-27T14:04:42Z</time>
      </trkpt>
      <trkpt lat="43.454036" lon="-5.034294">
        <ele>78.172</ele>
        <time>2022-08-27T14:04:43Z</time>
      </trkpt>
      <trkpt lat="43.453988" lon="-5.034131">
        <ele>77.929</ele>
        <time>2022-08-27T14:04:45Z</time>
      </trkpt>
      <trkpt lat="43.453938" lon="-5.033959">
        <ele>77.621</ele>
        <time>2022-08-27T14:04:47Z</time>
      </trkpt>
      <trkpt lat="43.453893" lon="-5.033782">
        <ele>77.241</ele>
        <time>2022-08-27T14:04:49Z</time>
      </trkpt>
      <trkpt lat="43.453845" lon="-5.033622">
        <ele>77.205</ele>
        <time>2022-08-27T14:04:51Z</time>
      </trkpt>
      <trkpt lat="43.453807" lon="-5.033467">
        <ele>77.709</ele>
        <time>2022-08-27T14:04:53Z</time>
      </trkpt>
      <trkpt lat="43.453770" lon="-5.033317">
        <ele>78.653</ele>
        <time>2022-08-27T14:04:55Z</time>
      </trkpt>
      <trkpt lat="43.453730" lon="-5.033174">
        <ele>78.653</ele>
        <time>2022-08-27T14:04:57Z</time>
      </trkpt>
      <trkpt lat="43.453688" lon="-5.033034">
        <ele>78.544</ele>
        <time>2022-08-27T14:04:59Z</time>
      </trkpt>
      <trkpt lat="43.453641" lon="-5.032897">
        <ele>78.472</ele>
        <time>2022-08-27T14:05:01Z</time>
      </trkpt>
      <trkpt lat="43.453598" lon="-5.032764">
        <ele>78.462</ele>
        <time>2022-08-27T14:05:03Z</time>
      </trkpt>
      <trkpt lat="43.453578" lon="-5.032697">
        <ele>78.458</ele>
        <time>2022-08-27T14:05:04Z</time>
      </trkpt>
      <trkpt lat="43.453536" lon="-5.032559">
        <ele>78.352</ele>
        <time>2022-08-27T14:05:06Z</time>
      </trkpt>
      <trkpt lat="43.453496" lon="-5.032422">
        <ele>78.169</ele>
        <time>2022-08-27T14:05:08Z</time>
      </trkpt>
      <trkpt lat="43.453459" lon="-5.032287">
        <ele>78.126</ele>
        <time>2022-08-27T14:05:10Z</time>
      </trkpt>
      <trkpt lat="43.453444" lon="-5.032222">
        <ele>77.952</ele>
        <time>2022-08-27T14:05:11Z</time>
      </trkpt>
      <trkpt lat="43.453407" lon="-5.032094">
        <ele>77.353</ele>
        <time>2022-08-27T14:05:13Z</time>
      </trkpt>
      <trkpt lat="43.453389" lon="-5.032031">
        <ele>77.008</ele>
        <time>2022-08-27T14:05:14Z</time>
      </trkpt>
      <trkpt lat="43.453349" lon="-5.031904">
        <ele>76.809</ele>
        <time>2022-08-27T14:05:16Z</time>
      </trkpt>
      <trkpt lat="43.453329" lon="-5.031841">
        <ele>76.616</ele>
        <time>2022-08-27T14:05:17Z</time>
      </trkpt>
      <trkpt lat="43.453292" lon="-5.031714">
        <ele>76.356</ele>
        <time>2022-08-27T14:05:19Z</time>
      </trkpt>
      <trkpt lat="43.453272" lon="-5.031652">
        <ele>76.177</ele>
        <time>2022-08-27T14:05:20Z</time>
      </trkpt>
      <trkpt lat="43.453252" lon="-5.031587">
        <ele>75.925</ele>
        <time>2022-08-27T14:05:21Z</time>
      </trkpt>
      <trkpt lat="43.453234" lon="-5.031525">
        <ele>75.725</ele>
        <time>2022-08-27T14:05:22Z</time>
      </trkpt>
      <trkpt lat="43.453196" lon="-5.031392">
        <ele>75.381</ele>
        <time>2022-08-27T14:05:24Z</time>
      </trkpt>
      <trkpt lat="43.453156" lon="-5.031255">
        <ele>75.125</ele>
        <time>2022-08-27T14:05:26Z</time>
      </trkpt>
      <trkpt lat="43.453113" lon="-5.031117">
        <ele>75.122</ele>
        <time>2022-08-27T14:05:28Z</time>
      </trkpt>
      <trkpt lat="43.453070" lon="-5.030984">
        <ele>75.699</ele>
        <time>2022-08-27T14:05:30Z</time>
      </trkpt>
      <trkpt lat="43.453050" lon="-5.030917">
        <ele>75.668</ele>
        <time>2022-08-27T14:05:31Z</time>
      </trkpt>
      <trkpt lat="43.453008" lon="-5.030780">
        <ele>75.642</ele>
        <time>2022-08-27T14:05:33Z</time>
      </trkpt>
      <trkpt lat="43.452965" lon="-5.030643">
        <ele>75.726</ele>
        <time>2022-08-27T14:05:35Z</time>
      </trkpt>
      <trkpt lat="43.452945" lon="-5.030575">
        <ele>75.709</ele>
        <time>2022-08-27T14:05:36Z</time>
      </trkpt>
      <trkpt lat="43.452923" lon="-5.030503">
        <ele>75.797</ele>
        <time>2022-08-27T14:05:37Z</time>
      </trkpt>
      <trkpt lat="43.452903" lon="-5.030431">
        <ele>75.647</ele>
        <time>2022-08-27T14:05:38Z</time>
      </trkpt>
      <trkpt lat="43.452861" lon="-5.030286">
        <ele>75.448</ele>
        <time>2022-08-27T14:05:40Z</time>
      </trkpt>
      <trkpt lat="43.452819" lon="-5.030143">
        <ele>75.046</ele>
        <time>2022-08-27T14:05:42Z</time>
      </trkpt>
      <trkpt lat="43.452779" lon="-5.030003">
        <ele>74.926</ele>
        <time>2022-08-27T14:05:44Z</time>
      </trkpt>
      <trkpt lat="43.452739" lon="-5.029853">
        <ele>75.012</ele>
        <time>2022-08-27T14:05:46Z</time>
      </trkpt>
      <trkpt lat="43.452722" lon="-5.029775">
        <ele>75.026</ele>
        <time>2022-08-27T14:05:47Z</time>
      </trkpt>
      <trkpt lat="43.452700" lon="-5.029698">
        <ele>75.023</ele>
        <time>2022-08-27T14:05:48Z</time>
      </trkpt>
      <trkpt lat="43.452657" lon="-5.029548">
        <ele>74.370</ele>
        <time>2022-08-27T14:05:50Z</time>
      </trkpt>
      <trkpt lat="43.452614" lon="-5.029396">
        <ele>73.548</ele>
        <time>2022-08-27T14:05:52Z</time>
      </trkpt>
      <trkpt lat="43.452596" lon="-5.029323">
        <ele>73.561</ele>
        <time>2022-08-27T14:05:53Z</time>
      </trkpt>
      <trkpt lat="43.452551" lon="-5.029171">
        <ele>73.117</ele>
        <time>2022-08-27T14:05:55Z</time>
      </trkpt>
      <trkpt lat="43.452526" lon="-5.029098">
        <ele>73.109</ele>
        <time>2022-08-27T14:05:56Z</time>
      </trkpt>
      <trkpt lat="43.452476" lon="-5.028950">
        <ele>73.375</ele>
        <time>2022-08-27T14:05:58Z</time>
      </trkpt>
      <trkpt lat="43.452428" lon="-5.028793">
        <ele>73.445</ele>
        <time>2022-08-27T14:06:00Z</time>
      </trkpt>
      <trkpt lat="43.452383" lon="-5.028641">
        <ele>73.976</ele>
        <time>2022-08-27T14:06:02Z</time>
      </trkpt>
      <trkpt lat="43.452360" lon="-5.028566">
        <ele>74.184</ele>
        <time>2022-08-27T14:06:03Z</time>
      </trkpt>
      <trkpt lat="43.452338" lon="-5.028491">
        <ele>74.224</ele>
        <time>2022-08-27T14:06:04Z</time>
      </trkpt>
      <trkpt lat="43.452298" lon="-5.028343">
        <ele>74.250</ele>
        <time>2022-08-27T14:06:06Z</time>
      </trkpt>
      <trkpt lat="43.452255" lon="-5.028195">
        <ele>74.154</ele>
        <time>2022-08-27T14:06:08Z</time>
      </trkpt>
      <trkpt lat="43.452232" lon="-5.028122">
        <ele>74.151</ele>
        <time>2022-08-27T14:06:09Z</time>
      </trkpt>
      <trkpt lat="43.452209" lon="-5.028049">
        <ele>74.158</ele>
        <time>2022-08-27T14:06:10Z</time>
      </trkpt>
      <trkpt lat="43.452167" lon="-5.027901">
        <ele>74.289</ele>
        <time>2022-08-27T14:06:12Z</time>
      </trkpt>
      <trkpt lat="43.452149" lon="-5.027829">
        <ele>74.606</ele>
        <time>2022-08-27T14:06:13Z</time>
      </trkpt>
      <trkpt lat="43.452109" lon="-5.027689">
        <ele>74.626</ele>
        <time>2022-08-27T14:06:15Z</time>
      </trkpt>
      <trkpt lat="43.452087" lon="-5.027621">
        <ele>74.609</ele>
        <time>2022-08-27T14:06:16Z</time>
      </trkpt>
      <trkpt lat="43.452067" lon="-5.027551">
        <ele>74.799</ele>
        <time>2022-08-27T14:06:17Z</time>
      </trkpt>
      <trkpt lat="43.452049" lon="-5.027484">
        <ele>74.839</ele>
        <time>2022-08-27T14:06:18Z</time>
      </trkpt>
      <trkpt lat="43.452009" lon="-5.027352">
        <ele>75.210</ele>
        <time>2022-08-27T14:06:20Z</time>
      </trkpt>
      <trkpt lat="43.451971" lon="-5.027222">
        <ele>75.288</ele>
        <time>2022-08-27T14:06:22Z</time>
      </trkpt>
      <trkpt lat="43.451931" lon="-5.027090">
        <ele>75.158</ele>
        <time>2022-08-27T14:06:24Z</time>
      </trkpt>
      <trkpt lat="43.451913" lon="-5.027028">
        <ele>75.144</ele>
        <time>2022-08-27T14:06:25Z</time>
      </trkpt>
      <trkpt lat="43.451878" lon="-5.026908">
        <ele>75.138</ele>
        <time>2022-08-27T14:06:27Z</time>
      </trkpt>
      <trkpt lat="43.451860" lon="-5.026850">
        <ele>75.175</ele>
        <time>2022-08-27T14:06:28Z</time>
      </trkpt>
      <trkpt lat="43.451820" lon="-5.026740">
        <ele>75.292</ele>
        <time>2022-08-27T14:06:30Z</time>
      </trkpt>
      <trkpt lat="43.451778" lon="-5.026632">
        <ele>75.349</ele>
        <time>2022-08-27T14:06:32Z</time>
      </trkpt>
      <trkpt lat="43.451740" lon="-5.026522">
        <ele>75.502</ele>
        <time>2022-08-27T14:06:34Z</time>
      </trkpt>
      <trkpt lat="43.451698" lon="-5.026424">
        <ele>76.522</ele>
        <time>2022-08-27T14:06:36Z</time>
      </trkpt>
      <trkpt lat="43.451651" lon="-5.026329">
        <ele>77.109</ele>
        <time>2022-08-27T14:06:38Z</time>
      </trkpt>
      <trkpt lat="43.451601" lon="-5.026246">
        <ele>77.945</ele>
        <time>2022-08-27T14:06:40Z</time>
      </trkpt>
      <trkpt lat="43.451554" lon="-5.026161">
        <ele>78.855</ele>
        <time>2022-08-27T14:06:42Z</time>
      </trkpt>
      <trkpt lat="43.451511" lon="-5.026084">
        <ele>79.746</ele>
        <time>2022-08-27T14:06:44Z</time>
      </trkpt>
      <trkpt lat="43.451469" lon="-5.026002">
        <ele>79.984</ele>
        <time>2022-08-27T14:06:46Z</time>
      </trkpt>
      <trkpt lat="43.451421" lon="-5.025919">
        <ele>80.034</ele>
        <time>2022-08-27T14:06:48Z</time>
      </trkpt>
      <trkpt lat="43.451376" lon="-5.025839">
        <ele>80.090</ele>
        <time>2022-08-27T14:06:50Z</time>
      </trkpt>
      <trkpt lat="43.451328" lon="-5.025769">
        <ele>80.054</ele>
        <time>2022-08-27T14:06:52Z</time>
      </trkpt>
      <trkpt lat="43.451278" lon="-5.025697">
        <ele>80.091</ele>
        <time>2022-08-27T14:06:54Z</time>
      </trkpt>
      <trkpt lat="43.451231" lon="-5.025619">
        <ele>80.338</ele>
        <time>2022-08-27T14:06:55Z</time>
      </trkpt>
      <trkpt lat="43.451191" lon="-5.025537">
        <ele>81.222</ele>
        <time>2022-08-27T14:06:57Z</time>
      </trkpt>
      <trkpt lat="43.451154" lon="-5.025455">
        <ele>82.262</ele>
        <time>2022-08-27T14:07:00Z</time>
      </trkpt>
      <trkpt lat="43.451111" lon="-5.025375">
        <ele>83.208</ele>
        <time>2022-08-27T14:07:02Z</time>
      </trkpt>
      <trkpt lat="43.451066" lon="-5.025297">
        <ele>83.209</ele>
        <time>2022-08-27T14:07:04Z</time>
      </trkpt>
      <trkpt lat="43.451019" lon="-5.025214">
        <ele>83.273</ele>
        <time>2022-08-27T14:07:06Z</time>
      </trkpt>
      <trkpt lat="43.450971" lon="-5.025139">
        <ele>82.473</ele>
        <time>2022-08-27T14:07:08Z</time>
      </trkpt>
      <trkpt lat="43.450923" lon="-5.025054">
        <ele>81.654</ele>
        <time>2022-08-27T14:07:10Z</time>
      </trkpt>
      <trkpt lat="43.450876" lon="-5.024967">
        <ele>80.662</ele>
        <time>2022-08-27T14:07:12Z</time>
      </trkpt>
      <trkpt lat="43.450824" lon="-5.024882">
        <ele>80.632</ele>
        <time>2022-08-27T14:07:14Z</time>
      </trkpt>
      <trkpt lat="43.450774" lon="-5.024799">
        <ele>80.828</ele>
        <time>2022-08-27T14:07:16Z</time>
      </trkpt>
      <trkpt lat="43.450726" lon="-5.024716">
        <ele>81.142</ele>
        <time>2022-08-27T14:07:18Z</time>
      </trkpt>
      <trkpt lat="43.450676" lon="-5.024629">
        <ele>81.219</ele>
        <time>2022-08-27T14:07:20Z</time>
      </trkpt>
      <trkpt lat="43.450628" lon="-5.024546">
        <ele>81.236</ele>
        <time>2022-08-27T14:07:22Z</time>
      </trkpt>
      <trkpt lat="43.450581" lon="-5.024459">
        <ele>81.261</ele>
        <time>2022-08-27T14:07:24Z</time>
      </trkpt>
      <trkpt lat="43.450529" lon="-5.024374">
        <ele>81.521</ele>
        <time>2022-08-27T14:07:26Z</time>
      </trkpt>
      <trkpt lat="43.450479" lon="-5.024292">
        <ele>81.713</ele>
        <time>2022-08-27T14:07:28Z</time>
      </trkpt>
      <trkpt lat="43.450432" lon="-5.024209">
        <ele>82.009</ele>
        <time>2022-08-27T14:07:30Z</time>
      </trkpt>
      <trkpt lat="43.450387" lon="-5.024129">
        <ele>82.437</ele>
        <time>2022-08-27T14:07:32Z</time>
      </trkpt>
      <trkpt lat="43.450340" lon="-5.024049">
        <ele>82.717</ele>
        <time>2022-08-27T14:07:34Z</time>
      </trkpt>
      <trkpt lat="43.450293" lon="-5.023972">
        <ele>83.058</ele>
        <time>2022-08-27T14:07:36Z</time>
      </trkpt>
      <trkpt lat="43.450243" lon="-5.023889">
        <ele>83.386</ele>
        <time>2022-08-27T14:07:38Z</time>
      </trkpt>
      <trkpt lat="43.450196" lon="-5.023806">
        <ele>83.846</ele>
        <time>2022-08-27T14:07:40Z</time>
      </trkpt>
      <trkpt lat="43.450153" lon="-5.023736">
        <ele>84.642</ele>
        <time>2022-08-27T14:07:42Z</time>
      </trkpt>
      <trkpt lat="43.450115" lon="-5.023669">
        <ele>85.256</ele>
        <time>2022-08-27T14:07:44Z</time>
      </trkpt>
      <trkpt lat="43.450075" lon="-5.023602">
        <ele>85.393</ele>
        <time>2022-08-27T14:07:46Z</time>
      </trkpt>
      <trkpt lat="43.450037" lon="-5.023534">
        <ele>85.540</ele>
        <time>2022-08-27T14:07:48Z</time>
      </trkpt>
      <trkpt lat="43.449997" lon="-5.023467">
        <ele>85.721</ele>
        <time>2022-08-27T14:07:50Z</time>
      </trkpt>
      <trkpt lat="43.449960" lon="-5.023402">
        <ele>85.841</ele>
        <time>2022-08-27T14:07:52Z</time>
      </trkpt>
      <trkpt lat="43.449920" lon="-5.023330">
        <ele>86.105</ele>
        <time>2022-08-27T14:07:54Z</time>
      </trkpt>
      <trkpt lat="43.449880" lon="-5.023255">
        <ele>86.109</ele>
        <time>2022-08-27T14:07:55Z</time>
      </trkpt>
      <trkpt lat="43.449840" lon="-5.023190">
        <ele>86.193</ele>
        <time>2022-08-27T14:07:58Z</time>
      </trkpt>
      <trkpt lat="43.449805" lon="-5.023123">
        <ele>86.223</ele>
        <time>2022-08-27T14:08:00Z</time>
      </trkpt>
      <trkpt lat="43.449767" lon="-5.023053">
        <ele>86.344</ele>
        <time>2022-08-27T14:08:02Z</time>
      </trkpt>
      <trkpt lat="43.449725" lon="-5.022986">
        <ele>87.052</ele>
        <time>2022-08-27T14:08:04Z</time>
      </trkpt>
      <trkpt lat="43.449695" lon="-5.022924">
        <ele>87.382</ele>
        <time>2022-08-27T14:08:06Z</time>
      </trkpt>
      <trkpt lat="43.449657" lon="-5.022866">
        <ele>87.758</ele>
        <time>2022-08-27T14:08:08Z</time>
      </trkpt>
      <trkpt lat="43.449619" lon="-5.022791">
        <ele>87.812</ele>
        <time>2022-08-27T14:08:10Z</time>
      </trkpt>
      <trkpt lat="43.449577" lon="-5.022719">
        <ele>88.039</ele>
        <time>2022-08-27T14:08:12Z</time>
      </trkpt>
      <trkpt lat="43.449537" lon="-5.022651">
        <ele>88.026</ele>
        <time>2022-08-27T14:08:14Z</time>
      </trkpt>
      <trkpt lat="43.449492" lon="-5.022586">
        <ele>88.578</ele>
        <time>2022-08-27T14:08:16Z</time>
      </trkpt>
      <trkpt lat="43.449440" lon="-5.022519">
        <ele>88.733</ele>
        <time>2022-08-27T14:08:18Z</time>
      </trkpt>
      <trkpt lat="43.449392" lon="-5.022444">
        <ele>88.826</ele>
        <time>2022-08-27T14:08:20Z</time>
      </trkpt>
      <trkpt lat="43.449362" lon="-5.022379">
        <ele>88.909</ele>
        <time>2022-08-27T14:08:22Z</time>
      </trkpt>
      <trkpt lat="43.449324" lon="-5.022311">
        <ele>89.028</ele>
        <time>2022-08-27T14:08:24Z</time>
      </trkpt>
      <trkpt lat="43.449286" lon="-5.022246">
        <ele>89.658</ele>
        <time>2022-08-27T14:08:26Z</time>
      </trkpt>
      <trkpt lat="43.449251" lon="-5.022186">
        <ele>90.669</ele>
        <time>2022-08-27T14:08:28Z</time>
      </trkpt>
      <trkpt lat="43.449216" lon="-5.022123">
        <ele>91.517</ele>
        <time>2022-08-27T14:08:30Z</time>
      </trkpt>
      <trkpt lat="43.449184" lon="-5.022068">
        <ele>91.957</ele>
        <time>2022-08-27T14:08:32Z</time>
      </trkpt>
      <trkpt lat="43.449149" lon="-5.022016">
        <ele>92.623</ele>
        <time>2022-08-27T14:08:34Z</time>
      </trkpt>
      <trkpt lat="43.449116" lon="-5.021959">
        <ele>92.927</ele>
        <time>2022-08-27T14:08:36Z</time>
      </trkpt>
      <trkpt lat="43.449083" lon="-5.021892">
        <ele>93.474</ele>
        <time>2022-08-27T14:08:38Z</time>
      </trkpt>
      <trkpt lat="43.449048" lon="-5.021834">
        <ele>94.261</ele>
        <time>2022-08-27T14:08:40Z</time>
      </trkpt>
      <trkpt lat="43.449011" lon="-5.021777">
        <ele>95.128</ele>
        <time>2022-08-27T14:08:42Z</time>
      </trkpt>
      <trkpt lat="43.448978" lon="-5.021722">
        <ele>96.189</ele>
        <time>2022-08-27T14:08:44Z</time>
      </trkpt>
      <trkpt lat="43.448948" lon="-5.021665">
        <ele>96.717</ele>
        <time>2022-08-27T14:08:46Z</time>
      </trkpt>
      <trkpt lat="43.448918" lon="-5.021607">
        <ele>96.909</ele>
        <time>2022-08-27T14:08:48Z</time>
      </trkpt>
      <trkpt lat="43.448883" lon="-5.021557">
        <ele>97.063</ele>
        <time>2022-08-27T14:08:50Z</time>
      </trkpt>
      <trkpt lat="43.448848" lon="-5.021499">
        <ele>97.013</ele>
        <time>2022-08-27T14:08:52Z</time>
      </trkpt>
      <trkpt lat="43.448816" lon="-5.021442">
        <ele>97.564</ele>
        <time>2022-08-27T14:08:54Z</time>
      </trkpt>
      <trkpt lat="43.448781" lon="-5.021387">
        <ele>97.952</ele>
        <time>2022-08-27T14:08:56Z</time>
      </trkpt>
      <trkpt lat="43.448748" lon="-5.021327">
        <ele>98.252</ele>
        <time>2022-08-27T14:08:58Z</time>
      </trkpt>
      <trkpt lat="43.448713" lon="-5.021264">
        <ele>98.418</ele>
        <time>2022-08-27T14:09:00Z</time>
      </trkpt>
      <trkpt lat="43.448676" lon="-5.021187">
        <ele>98.562</ele>
        <time>2022-08-27T14:09:02Z</time>
      </trkpt>
      <trkpt lat="43.448638" lon="-5.021117">
        <ele>98.729</ele>
        <time>2022-08-27T14:09:04Z</time>
      </trkpt>
      <trkpt lat="43.448606" lon="-5.021040">
        <ele>99.766</ele>
        <time>2022-08-27T14:09:06Z</time>
      </trkpt>
      <trkpt lat="43.448569" lon="-5.020968">
        <ele>99.914</ele>
        <time>2022-08-27T14:09:08Z</time>
      </trkpt>
      <trkpt lat="43.448536" lon="-5.020891">
        <ele>100.054</ele>
        <time>2022-08-27T14:09:10Z</time>
      </trkpt>
      <trkpt lat="43.448503" lon="-5.020813">
        <ele>100.009</ele>
        <time>2022-08-27T14:09:12Z</time>
      </trkpt>
      <trkpt lat="43.448463" lon="-5.020733">
        <ele>100.109</ele>
        <time>2022-08-27T14:09:14Z</time>
      </trkpt>
      <trkpt lat="43.448433" lon="-5.020648">
        <ele>100.172</ele>
        <time>2022-08-27T14:09:16Z</time>
      </trkpt>
      <trkpt lat="43.448405" lon="-5.020561">
        <ele>100.162</ele>
        <time>2022-08-27T14:09:18Z</time>
      </trkpt>
      <trkpt lat="43.448377" lon="-5.020468">
        <ele>99.443</ele>
        <time>2022-08-27T14:09:20Z</time>
      </trkpt>
      <trkpt lat="43.448349" lon="-5.020363">
        <ele>98.961</ele>
        <time>2022-08-27T14:09:22Z</time>
      </trkpt>
      <trkpt lat="43.448319" lon="-5.020248">
        <ele>98.551</ele>
        <time>2022-08-27T14:09:24Z</time>
      </trkpt>
      <trkpt lat="43.448301" lon="-5.020183">
        <ele>97.947</ele>
        <time>2022-08-27T14:09:25Z</time>
      </trkpt>
      <trkpt lat="43.448263" lon="-5.020046">
        <ele>97.131</ele>
        <time>2022-08-27T14:09:27Z</time>
      </trkpt>
      <trkpt lat="43.448241" lon="-5.019973">
        <ele>96.868</ele>
        <time>2022-08-27T14:09:28Z</time>
      </trkpt>
      <trkpt lat="43.448201" lon="-5.019818">
        <ele>95.985</ele>
        <time>2022-08-27T14:09:30Z</time>
      </trkpt>
      <trkpt lat="43.448156" lon="-5.019650">
        <ele>94.922</ele>
        <time>2022-08-27T14:09:32Z</time>
      </trkpt>
      <trkpt lat="43.448111" lon="-5.019475">
        <ele>93.962</ele>
        <time>2022-08-27T14:09:34Z</time>
      </trkpt>
      <trkpt lat="43.448086" lon="-5.019385">
        <ele>93.308</ele>
        <time>2022-08-27T14:09:35Z</time>
      </trkpt>
      <trkpt lat="43.448059" lon="-5.019293">
        <ele>92.309</ele>
        <time>2022-08-27T14:09:36Z</time>
      </trkpt>
      <trkpt lat="43.448034" lon="-5.019200">
        <ele>91.863</ele>
        <time>2022-08-27T14:09:37Z</time>
      </trkpt>
      <trkpt lat="43.447982" lon="-5.019010">
        <ele>91.233</ele>
        <time>2022-08-27T14:09:39Z</time>
      </trkpt>
      <trkpt lat="43.447955" lon="-5.018913">
        <ele>90.844</ele>
        <time>2022-08-27T14:09:40Z</time>
      </trkpt>
      <trkpt lat="43.447903" lon="-5.018715">
        <ele>89.832</ele>
        <time>2022-08-27T14:09:42Z</time>
      </trkpt>
      <trkpt lat="43.447848" lon="-5.018512">
        <ele>88.722</ele>
        <time>2022-08-27T14:09:44Z</time>
      </trkpt>
      <trkpt lat="43.447818" lon="-5.018409">
        <ele>88.448</ele>
        <time>2022-08-27T14:09:45Z</time>
      </trkpt>
      <trkpt lat="43.447758" lon="-5.018201">
        <ele>88.292</ele>
        <time>2022-08-27T14:09:47Z</time>
      </trkpt>
      <trkpt lat="43.447728" lon="-5.018093">
        <ele>88.179</ele>
        <time>2022-08-27T14:09:48Z</time>
      </trkpt>
      <trkpt lat="43.447700" lon="-5.017988">
        <ele>88.126</ele>
        <time>2022-08-27T14:09:49Z</time>
      </trkpt>
      <trkpt lat="43.447638" lon="-5.017780">
        <ele>88.137</ele>
        <time>2022-08-27T14:09:51Z</time>
      </trkpt>
      <trkpt lat="43.447605" lon="-5.017680">
        <ele>88.149</ele>
        <time>2022-08-27T14:09:52Z</time>
      </trkpt>
      <trkpt lat="43.447548" lon="-5.017480">
        <ele>88.313</ele>
        <time>2022-08-27T14:09:54Z</time>
      </trkpt>
      <trkpt lat="43.447523" lon="-5.017385">
        <ele>88.509</ele>
        <time>2022-08-27T14:09:55Z</time>
      </trkpt>
      <trkpt lat="43.447475" lon="-5.017198">
        <ele>88.554</ele>
        <time>2022-08-27T14:09:57Z</time>
      </trkpt>
      <trkpt lat="43.447452" lon="-5.017111">
        <ele>88.554</ele>
        <time>2022-08-27T14:09:58Z</time>
      </trkpt>
      <trkpt lat="43.447429" lon="-5.017024">
        <ele>88.515</ele>
        <time>2022-08-27T14:09:59Z</time>
      </trkpt>
      <trkpt lat="43.447407" lon="-5.016941">
        <ele>88.553</ele>
        <time>2022-08-27T14:10:00Z</time>
      </trkpt>
      <trkpt lat="43.447389" lon="-5.016863">
        <ele>88.583</ele>
        <time>2022-08-27T14:10:01Z</time>
      </trkpt>
      <trkpt lat="43.447349" lon="-5.016710">
        <ele>88.649</ele>
        <time>2022-08-27T14:10:03Z</time>
      </trkpt>
      <trkpt lat="43.447327" lon="-5.016635">
        <ele>88.643</ele>
        <time>2022-08-27T14:10:04Z</time>
      </trkpt>
      <trkpt lat="43.447287" lon="-5.016490">
        <ele>88.560</ele>
        <time>2022-08-27T14:10:06Z</time>
      </trkpt>
      <trkpt lat="43.447267" lon="-5.016418">
        <ele>88.427</ele>
        <time>2022-08-27T14:10:07Z</time>
      </trkpt>
      <trkpt lat="43.447249" lon="-5.016343">
        <ele>88.423</ele>
        <time>2022-08-27T14:10:08Z</time>
      </trkpt>
      <trkpt lat="43.447231" lon="-5.016268">
        <ele>88.383</ele>
        <time>2022-08-27T14:10:09Z</time>
      </trkpt>
      <trkpt lat="43.447194" lon="-5.016123">
        <ele>88.211</ele>
        <time>2022-08-27T14:10:11Z</time>
      </trkpt>
      <trkpt lat="43.447157" lon="-5.015973">
        <ele>88.009</ele>
        <time>2022-08-27T14:10:13Z</time>
      </trkpt>
      <trkpt lat="43.447137" lon="-5.015901">
        <ele>87.913</ele>
        <time>2022-08-27T14:10:14Z</time>
      </trkpt>
      <trkpt lat="43.447100" lon="-5.015753">
        <ele>87.533</ele>
        <time>2022-08-27T14:10:16Z</time>
      </trkpt>
      <trkpt lat="43.447068" lon="-5.015603">
        <ele>87.024</ele>
        <time>2022-08-27T14:10:18Z</time>
      </trkpt>
      <trkpt lat="43.447055" lon="-5.015528">
        <ele>87.052</ele>
        <time>2022-08-27T14:10:19Z</time>
      </trkpt>
      <trkpt lat="43.447025" lon="-5.015385">
        <ele>86.922</ele>
        <time>2022-08-27T14:10:21Z</time>
      </trkpt>
      <trkpt lat="43.446993" lon="-5.015243">
        <ele>86.858</ele>
        <time>2022-08-27T14:10:23Z</time>
      </trkpt>
      <trkpt lat="43.446955" lon="-5.015095">
        <ele>86.882</ele>
        <time>2022-08-27T14:10:25Z</time>
      </trkpt>
      <trkpt lat="43.446937" lon="-5.015020">
        <ele>86.869</ele>
        <time>2022-08-27T14:10:26Z</time>
      </trkpt>
      <trkpt lat="43.446917" lon="-5.014943">
        <ele>86.966</ele>
        <time>2022-08-27T14:10:27Z</time>
      </trkpt>
      <trkpt lat="43.446879" lon="-5.014785">
        <ele>86.997</ele>
        <time>2022-08-27T14:10:29Z</time>
      </trkpt>
      <trkpt lat="43.446861" lon="-5.014705">
        <ele>86.923</ele>
        <time>2022-08-27T14:10:30Z</time>
      </trkpt>
      <trkpt lat="43.446823" lon="-5.014542">
        <ele>86.725</ele>
        <time>2022-08-27T14:10:32Z</time>
      </trkpt>
      <trkpt lat="43.446806" lon="-5.014455">
        <ele>86.709</ele>
        <time>2022-08-27T14:10:33Z</time>
      </trkpt>
      <trkpt lat="43.446789" lon="-5.014372">
        <ele>86.540</ele>
        <time>2022-08-27T14:10:34Z</time>
      </trkpt>
      <trkpt lat="43.446772" lon="-5.014292">
        <ele>86.360</ele>
        <time>2022-08-27T14:10:35Z</time>
      </trkpt>
      <trkpt lat="43.446740" lon="-5.014130">
        <ele>85.881</ele>
        <time>2022-08-27T14:10:37Z</time>
      </trkpt>
      <trkpt lat="43.446723" lon="-5.014050">
        <ele>85.169</ele>
        <time>2022-08-27T14:10:38Z</time>
      </trkpt>
      <trkpt lat="43.446708" lon="-5.013973">
        <ele>84.929</ele>
        <time>2022-08-27T14:10:39Z</time>
      </trkpt>
      <trkpt lat="43.446675" lon="-5.013821">
        <ele>84.485</ele>
        <time>2022-08-27T14:10:41Z</time>
      </trkpt>
      <trkpt lat="43.446645" lon="-5.013674">
        <ele>84.079</ele>
        <time>2022-08-27T14:10:43Z</time>
      </trkpt>
      <trkpt lat="43.446630" lon="-5.013601">
        <ele>83.966</ele>
        <time>2022-08-27T14:10:44Z</time>
      </trkpt>
      <trkpt lat="43.446613" lon="-5.013529">
        <ele>83.993</ele>
        <time>2022-08-27T14:10:45Z</time>
      </trkpt>
      <trkpt lat="43.446576" lon="-5.013386">
        <ele>83.949</ele>
        <time>2022-08-27T14:10:47Z</time>
      </trkpt>
      <trkpt lat="43.446546" lon="-5.013241">
        <ele>83.902</ele>
        <time>2022-08-27T14:10:49Z</time>
      </trkpt>
      <trkpt lat="43.446531" lon="-5.013168">
        <ele>83.822</ele>
        <time>2022-08-27T14:10:50Z</time>
      </trkpt>
      <trkpt lat="43.446499" lon="-5.013023">
        <ele>83.509</ele>
        <time>2022-08-27T14:10:52Z</time>
      </trkpt>
      <trkpt lat="43.446482" lon="-5.012950">
        <ele>83.535</ele>
        <time>2022-08-27T14:10:53Z</time>
      </trkpt>
      <trkpt lat="43.446455" lon="-5.012797">
        <ele>83.625</ele>
        <time>2022-08-27T14:10:55Z</time>
      </trkpt>
      <trkpt lat="43.446423" lon="-5.012654">
        <ele>83.616</ele>
        <time>2022-08-27T14:10:57Z</time>
      </trkpt>
      <trkpt lat="43.446406" lon="-5.012584">
        <ele>83.484</ele>
        <time>2022-08-27T14:10:58Z</time>
      </trkpt>
      <trkpt lat="43.446374" lon="-5.012442">
        <ele>82.834</ele>
        <time>2022-08-27T14:11:00Z</time>
      </trkpt>
      <trkpt lat="43.446342" lon="-5.012304">
        <ele>82.760</ele>
        <time>2022-08-27T14:11:02Z</time>
      </trkpt>
      <trkpt lat="43.446310" lon="-5.012171">
        <ele>82.584</ele>
        <time>2022-08-27T14:11:04Z</time>
      </trkpt>
      <trkpt lat="43.446297" lon="-5.012104">
        <ele>82.381</ele>
        <time>2022-08-27T14:11:05Z</time>
      </trkpt>
      <trkpt lat="43.446285" lon="-5.012037">
        <ele>82.178</ele>
        <time>2022-08-27T14:11:06Z</time>
      </trkpt>
      <trkpt lat="43.446258" lon="-5.011899">
        <ele>82.018</ele>
        <time>2022-08-27T14:11:08Z</time>
      </trkpt>
      <trkpt lat="43.446245" lon="-5.011829">
        <ele>82.098</ele>
        <time>2022-08-27T14:11:09Z</time>
      </trkpt>
      <trkpt lat="43.446218" lon="-5.011691">
        <ele>82.017</ele>
        <time>2022-08-27T14:11:11Z</time>
      </trkpt>
      <trkpt lat="43.446203" lon="-5.011623">
        <ele>82.009</ele>
        <time>2022-08-27T14:11:12Z</time>
      </trkpt>
      <trkpt lat="43.446176" lon="-5.011488">
        <ele>82.132</ele>
        <time>2022-08-27T14:11:14Z</time>
      </trkpt>
      <trkpt lat="43.446164" lon="-5.011421">
        <ele>82.192</ele>
        <time>2022-08-27T14:11:15Z</time>
      </trkpt>
      <trkpt lat="43.446134" lon="-5.011286">
        <ele>82.233</ele>
        <time>2022-08-27T14:11:17Z</time>
      </trkpt>
      <trkpt lat="43.446102" lon="-5.011158">
        <ele>82.341</ele>
        <time>2022-08-27T14:11:19Z</time>
      </trkpt>
      <trkpt lat="43.446079" lon="-5.011030">
        <ele>82.941</ele>
        <time>2022-08-27T14:11:21Z</time>
      </trkpt>
      <trkpt lat="43.446067" lon="-5.010962">
        <ele>83.387</ele>
        <time>2022-08-27T14:11:22Z</time>
      </trkpt>
      <trkpt lat="43.446054" lon="-5.010894">
        <ele>83.761</ele>
        <time>2022-08-27T14:11:23Z</time>
      </trkpt>
      <trkpt lat="43.446041" lon="-5.010826">
        <ele>84.188</ele>
        <time>2022-08-27T14:11:24Z</time>
      </trkpt>
      <trkpt lat="43.446026" lon="-5.010759">
        <ele>84.565</ele>
        <time>2022-08-27T14:11:25Z</time>
      </trkpt>
      <trkpt lat="43.445998" lon="-5.010619">
        <ele>84.897</ele>
        <time>2022-08-27T14:11:27Z</time>
      </trkpt>
      <trkpt lat="43.445985" lon="-5.010551">
        <ele>85.123</ele>
        <time>2022-08-27T14:11:28Z</time>
      </trkpt>
      <trkpt lat="43.445962" lon="-5.010428">
        <ele>85.425</ele>
        <time>2022-08-27T14:11:30Z</time>
      </trkpt>
      <trkpt lat="43.445940" lon="-5.010308">
        <ele>86.109</ele>
        <time>2022-08-27T14:11:32Z</time>
      </trkpt>
      <trkpt lat="43.445918" lon="-5.010190">
        <ele>86.720</ele>
        <time>2022-08-27T14:11:34Z</time>
      </trkpt>
      <trkpt lat="43.445896" lon="-5.010077">
        <ele>86.930</ele>
        <time>2022-08-27T14:11:36Z</time>
      </trkpt>
      <trkpt lat="43.445881" lon="-5.009970">
        <ele>87.331</ele>
        <time>2022-08-27T14:11:38Z</time>
      </trkpt>
      <trkpt lat="43.445868" lon="-5.009872">
        <ele>89.099</ele>
        <time>2022-08-27T14:11:40Z</time>
      </trkpt>
      <trkpt lat="43.445846" lon="-5.009770">
        <ele>90.239</ele>
        <time>2022-08-27T14:11:42Z</time>
      </trkpt>
      <trkpt lat="43.445814" lon="-5.009675">
        <ele>90.265</ele>
        <time>2022-08-27T14:11:44Z</time>
      </trkpt>
      <trkpt lat="43.445784" lon="-5.009582">
        <ele>90.299</ele>
        <time>2022-08-27T14:11:46Z</time>
      </trkpt>
      <trkpt lat="43.445756" lon="-5.009487">
        <ele>89.266</ele>
        <time>2022-08-27T14:11:48Z</time>
      </trkpt>
      <trkpt lat="43.445736" lon="-5.009384">
        <ele>88.623</ele>
        <time>2022-08-27T14:11:50Z</time>
      </trkpt>
      <trkpt lat="43.445718" lon="-5.009282">
        <ele>88.357</ele>
        <time>2022-08-27T14:11:52Z</time>
      </trkpt>
      <trkpt lat="43.445695" lon="-5.009179">
        <ele>88.100</ele>
        <time>2022-08-27T14:11:54Z</time>
      </trkpt>
      <trkpt lat="43.445673" lon="-5.009072">
        <ele>87.920</ele>
        <time>2022-08-27T14:11:56Z</time>
      </trkpt>
      <trkpt lat="43.445653" lon="-5.008960">
        <ele>87.609</ele>
        <time>2022-08-27T14:11:58Z</time>
      </trkpt>
      <trkpt lat="43.445625" lon="-5.008847">
        <ele>87.536</ele>
        <time>2022-08-27T14:12:00Z</time>
      </trkpt>
      <trkpt lat="43.445603" lon="-5.008734">
        <ele>87.666</ele>
        <time>2022-08-27T14:12:02Z</time>
      </trkpt>
      <trkpt lat="43.445581" lon="-5.008622">
        <ele>87.847</ele>
        <time>2022-08-27T14:12:04Z</time>
      </trkpt>
      <trkpt lat="43.445559" lon="-5.008517">
        <ele>88.665</ele>
        <time>2022-08-27T14:12:06Z</time>
      </trkpt>
      <trkpt lat="43.445541" lon="-5.008414">
        <ele>89.175</ele>
        <time>2022-08-27T14:12:08Z</time>
      </trkpt>
      <trkpt lat="43.445519" lon="-5.008311">
        <ele>89.921</ele>
        <time>2022-08-27T14:12:10Z</time>
      </trkpt>
      <trkpt lat="43.445497" lon="-5.008211">
        <ele>90.795</ele>
        <time>2022-08-27T14:12:12Z</time>
      </trkpt>
      <trkpt lat="43.445480" lon="-5.008108">
        <ele>91.772</ele>
        <time>2022-08-27T14:12:13Z</time>
      </trkpt>
      <trkpt lat="43.445447" lon="-5.008000">
        <ele>92.799</ele>
        <time>2022-08-27T14:12:16Z</time>
      </trkpt>
      <trkpt lat="43.445429" lon="-5.007912">
        <ele>93.092</ele>
        <time>2022-08-27T14:12:17Z</time>
      </trkpt>
      <trkpt lat="43.445414" lon="-5.007839">
        <ele>93.073</ele>
        <time>2022-08-27T14:12:19Z</time>
      </trkpt>
      <trkpt lat="43.445389" lon="-5.007742">
        <ele>92.620</ele>
        <time>2022-08-27T14:12:22Z</time>
      </trkpt>
      <trkpt lat="43.445367" lon="-5.007635">
        <ele>91.409</ele>
        <time>2022-08-27T14:12:24Z</time>
      </trkpt>
      <trkpt lat="43.445342" lon="-5.007537">
        <ele>90.840</ele>
        <time>2022-08-27T14:12:26Z</time>
      </trkpt>
      <trkpt lat="43.445322" lon="-5.007440">
        <ele>90.820</ele>
        <time>2022-08-27T14:12:28Z</time>
      </trkpt>
      <trkpt lat="43.445307" lon="-5.007348">
        <ele>90.831</ele>
        <time>2022-08-27T14:12:30Z</time>
      </trkpt>
      <trkpt lat="43.445289" lon="-5.007251">
        <ele>90.879</ele>
        <time>2022-08-27T14:12:32Z</time>
      </trkpt>
      <trkpt lat="43.445267" lon="-5.007151">
        <ele>90.869</ele>
        <time>2022-08-27T14:12:34Z</time>
      </trkpt>
      <trkpt lat="43.445244" lon="-5.007051">
        <ele>90.815</ele>
        <time>2022-08-27T14:12:36Z</time>
      </trkpt>
      <trkpt lat="43.445224" lon="-5.006951">
        <ele>91.439</ele>
        <time>2022-08-27T14:12:38Z</time>
      </trkpt>
      <trkpt lat="43.445204" lon="-5.006843">
        <ele>92.296</ele>
        <time>2022-08-27T14:12:40Z</time>
      </trkpt>
      <trkpt lat="43.445179" lon="-5.006738">
        <ele>93.123</ele>
        <time>2022-08-27T14:12:42Z</time>
      </trkpt>
      <trkpt lat="43.445161" lon="-5.006626">
        <ele>93.534</ele>
        <time>2022-08-27T14:12:44Z</time>
      </trkpt>
      <trkpt lat="43.445138" lon="-5.006523">
        <ele>94.055</ele>
        <time>2022-08-27T14:12:46Z</time>
      </trkpt>
      <trkpt lat="43.445120" lon="-5.006423">
        <ele>94.810</ele>
        <time>2022-08-27T14:12:48Z</time>
      </trkpt>
      <trkpt lat="43.445093" lon="-5.006326">
        <ele>96.909</ele>
        <time>2022-08-27T14:12:50Z</time>
      </trkpt>
      <trkpt lat="43.445066" lon="-5.006224">
        <ele>97.684</ele>
        <time>2022-08-27T14:12:52Z</time>
      </trkpt>
      <trkpt lat="43.445041" lon="-5.006121">
        <ele>97.894</ele>
        <time>2022-08-27T14:12:54Z</time>
      </trkpt>
      <trkpt lat="43.445019" lon="-5.006018">
        <ele>97.875</ele>
        <time>2022-08-27T14:12:56Z</time>
      </trkpt>
      <trkpt lat="43.444991" lon="-5.005915">
        <ele>97.423</ele>
        <time>2022-08-27T14:12:58Z</time>
      </trkpt>
      <trkpt lat="43.444958" lon="-5.005817">
        <ele>97.213</ele>
        <time>2022-08-27T14:13:00Z</time>
      </trkpt>
      <trkpt lat="43.444925" lon="-5.005712">
        <ele>97.219</ele>
        <time>2022-08-27T14:13:02Z</time>
      </trkpt>
      <trkpt lat="43.444883" lon="-5.005609">
        <ele>97.343</ele>
        <time>2022-08-27T14:13:04Z</time>
      </trkpt>
      <trkpt lat="43.444836" lon="-5.005512">
        <ele>97.480</ele>
        <time>2022-08-27T14:13:06Z</time>
      </trkpt>
      <trkpt lat="43.444786" lon="-5.005410">
        <ele>97.597</ele>
        <time>2022-08-27T14:13:08Z</time>
      </trkpt>
      <trkpt lat="43.444733" lon="-5.005308">
        <ele>97.518</ele>
        <time>2022-08-27T14:13:10Z</time>
      </trkpt>
      <trkpt lat="43.444678" lon="-5.005210">
        <ele>97.398</ele>
        <time>2022-08-27T14:13:12Z</time>
      </trkpt>
      <trkpt lat="43.444618" lon="-5.005108">
        <ele>96.917</ele>
        <time>2022-08-27T14:13:14Z</time>
      </trkpt>
      <trkpt lat="43.444561" lon="-5.005005">
        <ele>96.409</ele>
        <time>2022-08-27T14:13:16Z</time>
      </trkpt>
      <trkpt lat="43.444511" lon="-5.004903">
        <ele>95.872</ele>
        <time>2022-08-27T14:13:18Z</time>
      </trkpt>
      <trkpt lat="43.444459" lon="-5.004798">
        <ele>95.252</ele>
        <time>2022-08-27T14:13:20Z</time>
      </trkpt>
      <trkpt lat="43.444416" lon="-5.004691">
        <ele>94.843</ele>
        <time>2022-08-27T14:13:22Z</time>
      </trkpt>
      <trkpt lat="43.444371" lon="-5.004581">
        <ele>94.811</ele>
        <time>2022-08-27T14:13:24Z</time>
      </trkpt>
      <trkpt lat="43.444353" lon="-5.004524">
        <ele>94.991</ele>
        <time>2022-08-27T14:13:25Z</time>
      </trkpt>
      <trkpt lat="43.444316" lon="-5.004412">
        <ele>95.267</ele>
        <time>2022-08-27T14:13:27Z</time>
      </trkpt>
      <trkpt lat="43.444279" lon="-5.004297">
        <ele>95.271</ele>
        <time>2022-08-27T14:13:29Z</time>
      </trkpt>
      <trkpt lat="43.444264" lon="-5.004237">
        <ele>95.268</ele>
        <time>2022-08-27T14:13:30Z</time>
      </trkpt>
      <trkpt lat="43.444231" lon="-5.004119">
        <ele>95.295</ele>
        <time>2022-08-27T14:13:32Z</time>
      </trkpt>
      <trkpt lat="43.444218" lon="-5.004057">
        <ele>95.246</ele>
        <time>2022-08-27T14:13:33Z</time>
      </trkpt>
      <trkpt lat="43.444205" lon="-5.003992">
        <ele>95.388</ele>
        <time>2022-08-27T14:13:34Z</time>
      </trkpt>
      <trkpt lat="43.444177" lon="-5.003865">
        <ele>95.516</ele>
        <time>2022-08-27T14:13:36Z</time>
      </trkpt>
      <trkpt lat="43.444152" lon="-5.003742">
        <ele>95.709</ele>
        <time>2022-08-27T14:13:38Z</time>
      </trkpt>
      <trkpt lat="43.444140" lon="-5.003680">
        <ele>95.835</ele>
        <time>2022-08-27T14:13:39Z</time>
      </trkpt>
      <trkpt lat="43.444115" lon="-5.003565">
        <ele>96.045</ele>
        <time>2022-08-27T14:13:41Z</time>
      </trkpt>
      <trkpt lat="43.444090" lon="-5.003450">
        <ele>96.036</ele>
        <time>2022-08-27T14:13:43Z</time>
      </trkpt>
      <trkpt lat="43.444067" lon="-5.003342">
        <ele>96.024</ele>
        <time>2022-08-27T14:13:45Z</time>
      </trkpt>
      <trkpt lat="43.444047" lon="-5.003235">
        <ele>96.214</ele>
        <time>2022-08-27T14:13:47Z</time>
      </trkpt>
      <trkpt lat="43.444025" lon="-5.003127">
        <ele>96.350</ele>
        <time>2022-08-27T14:13:49Z</time>
      </trkpt>
      <trkpt lat="43.444000" lon="-5.003017">
        <ele>96.474</ele>
        <time>2022-08-27T14:13:51Z</time>
      </trkpt>
      <trkpt lat="43.443978" lon="-5.002912">
        <ele>96.621</ele>
        <time>2022-08-27T14:13:53Z</time>
      </trkpt>
      <trkpt lat="43.443958" lon="-5.002812">
        <ele>96.618</ele>
        <time>2022-08-27T14:13:55Z</time>
      </trkpt>
      <trkpt lat="43.443945" lon="-5.002705">
        <ele>96.558</ele>
        <time>2022-08-27T14:13:57Z</time>
      </trkpt>
      <trkpt lat="43.443928" lon="-5.002610">
        <ele>96.652</ele>
        <time>2022-08-27T14:13:59Z</time>
      </trkpt>
      <trkpt lat="43.443910" lon="-5.002517">
        <ele>96.617</ele>
        <time>2022-08-27T14:14:01Z</time>
      </trkpt>
      <trkpt lat="43.443888" lon="-5.002422">
        <ele>97.109</ele>
        <time>2022-08-27T14:14:03Z</time>
      </trkpt>
      <trkpt lat="43.443866" lon="-5.002325">
        <ele>97.296</ele>
        <time>2022-08-27T14:14:05Z</time>
      </trkpt>
      <trkpt lat="43.443844" lon="-5.002230">
        <ele>97.276</ele>
        <time>2022-08-27T14:14:07Z</time>
      </trkpt>
      <trkpt lat="43.443819" lon="-5.002128">
        <ele>97.237</ele>
        <time>2022-08-27T14:14:09Z</time>
      </trkpt>
      <trkpt lat="43.443802" lon="-5.002023">
        <ele>97.775</ele>
        <time>2022-08-27T14:14:11Z</time>
      </trkpt>
      <trkpt lat="43.443779" lon="-5.001920">
        <ele>98.145</ele>
        <time>2022-08-27T14:14:13Z</time>
      </trkpt>
      <trkpt lat="43.443759" lon="-5.001830">
        <ele>98.311</ele>
        <time>2022-08-27T14:14:15Z</time>
      </trkpt>
      <trkpt lat="43.443744" lon="-5.001735">
        <ele>98.685</ele>
        <time>2022-08-27T14:14:17Z</time>
      </trkpt>
      <trkpt lat="43.443729" lon="-5.001638">
        <ele>99.422</ele>
        <time>2022-08-27T14:14:19Z</time>
      </trkpt>
      <trkpt lat="43.443712" lon="-5.001531">
        <ele>99.639</ele>
        <time>2022-08-27T14:14:21Z</time>
      </trkpt>
      <trkpt lat="43.443695" lon="-5.001428">
        <ele>99.733</ele>
        <time>2022-08-27T14:14:23Z</time>
      </trkpt>
      <trkpt lat="43.443663" lon="-5.001313">
        <ele>99.823</ele>
        <time>2022-08-27T14:14:25Z</time>
      </trkpt>
      <trkpt lat="43.443631" lon="-5.001191">
        <ele>99.215</ele>
        <time>2022-08-27T14:14:27Z</time>
      </trkpt>
      <trkpt lat="43.443608" lon="-5.001073">
        <ele>98.809</ele>
        <time>2022-08-27T14:14:29Z</time>
      </trkpt>
      <trkpt lat="43.443585" lon="-5.000965">
        <ele>98.814</ele>
        <time>2022-08-27T14:14:31Z</time>
      </trkpt>
      <trkpt lat="43.443568" lon="-5.000860">
        <ele>98.834</ele>
        <time>2022-08-27T14:14:33Z</time>
      </trkpt>
      <trkpt lat="43.443558" lon="-5.000758">
        <ele>98.915</ele>
        <time>2022-08-27T14:14:35Z</time>
      </trkpt>
      <trkpt lat="43.443531" lon="-5.000660">
        <ele>98.893</ele>
        <time>2022-08-27T14:14:37Z</time>
      </trkpt>
      <trkpt lat="43.443508" lon="-5.000552">
        <ele>98.693</ele>
        <time>2022-08-27T14:14:39Z</time>
      </trkpt>
      <trkpt lat="43.443478" lon="-5.000434">
        <ele>97.989</ele>
        <time>2022-08-27T14:14:41Z</time>
      </trkpt>
      <trkpt lat="43.443465" lon="-5.000371">
        <ele>97.713</ele>
        <time>2022-08-27T14:14:42Z</time>
      </trkpt>
      <trkpt lat="43.443453" lon="-5.000306">
        <ele>97.590</ele>
        <time>2022-08-27T14:14:43Z</time>
      </trkpt>
      <trkpt lat="43.443426" lon="-5.000176">
        <ele>97.267</ele>
        <time>2022-08-27T14:14:45Z</time>
      </trkpt>
      <trkpt lat="43.443413" lon="-5.000109">
        <ele>96.991</ele>
        <time>2022-08-27T14:14:46Z</time>
      </trkpt>
      <trkpt lat="43.443383" lon="-4.999976">
        <ele>96.681</ele>
        <time>2022-08-27T14:14:48Z</time>
      </trkpt>
      <trkpt lat="43.443366" lon="-4.999911">
        <ele>96.619</ele>
        <time>2022-08-27T14:14:49Z</time>
      </trkpt>
      <trkpt lat="43.443353" lon="-4.999843">
        <ele>96.609</ele>
        <time>2022-08-27T14:14:50Z</time>
      </trkpt>
      <trkpt lat="43.443323" lon="-4.999706">
        <ele>96.690</ele>
        <time>2022-08-27T14:14:52Z</time>
      </trkpt>
      <trkpt lat="43.443293" lon="-4.999568">
        <ele>96.640</ele>
        <time>2022-08-27T14:14:54Z</time>
      </trkpt>
      <trkpt lat="43.443280" lon="-4.999493">
        <ele>96.591</ele>
        <time>2022-08-27T14:14:55Z</time>
      </trkpt>
      <trkpt lat="43.443257" lon="-4.999353">
        <ele>96.379</ele>
        <time>2022-08-27T14:14:57Z</time>
      </trkpt>
      <trkpt lat="43.443234" lon="-4.999220">
        <ele>96.119</ele>
        <time>2022-08-27T14:14:59Z</time>
      </trkpt>
      <trkpt lat="43.443221" lon="-4.999150">
        <ele>95.965</ele>
        <time>2022-08-27T14:15:00Z</time>
      </trkpt>
      <trkpt lat="43.443194" lon="-4.999010">
        <ele>95.899</ele>
        <time>2022-08-27T14:15:02Z</time>
      </trkpt>
      <trkpt lat="43.443166" lon="-4.998878">
        <ele>95.866</ele>
        <time>2022-08-27T14:15:04Z</time>
      </trkpt>
      <trkpt lat="43.443143" lon="-4.998755">
        <ele>95.863</ele>
        <time>2022-08-27T14:15:06Z</time>
      </trkpt>
      <trkpt lat="43.443128" lon="-4.998695">
        <ele>96.051</ele>
        <time>2022-08-27T14:15:07Z</time>
      </trkpt>
      <trkpt lat="43.443105" lon="-4.998580">
        <ele>96.801</ele>
        <time>2022-08-27T14:15:09Z</time>
      </trkpt>
      <trkpt lat="43.443078" lon="-4.998467">
        <ele>97.311</ele>
        <time>2022-08-27T14:15:11Z</time>
      </trkpt>
      <trkpt lat="43.443053" lon="-4.998354">
        <ele>97.809</ele>
        <time>2022-08-27T14:15:13Z</time>
      </trkpt>
      <trkpt lat="43.443031" lon="-4.998252">
        <ele>98.696</ele>
        <time>2022-08-27T14:15:15Z</time>
      </trkpt>
      <trkpt lat="43.443011" lon="-4.998147">
        <ele>98.966</ele>
        <time>2022-08-27T14:15:17Z</time>
      </trkpt>
      <trkpt lat="43.442978" lon="-4.998054">
        <ele>99.097</ele>
        <time>2022-08-27T14:15:19Z</time>
      </trkpt>
      <trkpt lat="43.442948" lon="-4.997964">
        <ele>99.245</ele>
        <time>2022-08-27T14:15:21Z</time>
      </trkpt>
      <trkpt lat="43.442916" lon="-4.997874">
        <ele>99.585</ele>
        <time>2022-08-27T14:15:23Z</time>
      </trkpt>
      <trkpt lat="43.442879" lon="-4.997779">
        <ele>99.871</ele>
        <time>2022-08-27T14:15:25Z</time>
      </trkpt>
      <trkpt lat="43.442841" lon="-4.997694">
        <ele>100.625</ele>
        <time>2022-08-27T14:15:27Z</time>
      </trkpt>
      <trkpt lat="43.442804" lon="-4.997617">
        <ele>101.152</ele>
        <time>2022-08-27T14:15:29Z</time>
      </trkpt>
      <trkpt lat="43.442772" lon="-4.997547">
        <ele>101.799</ele>
        <time>2022-08-27T14:15:31Z</time>
      </trkpt>
      <trkpt lat="43.442742" lon="-4.997472">
        <ele>102.252</ele>
        <time>2022-08-27T14:15:33Z</time>
      </trkpt>
      <trkpt lat="43.442702" lon="-4.997390">
        <ele>102.753</ele>
        <time>2022-08-27T14:15:35Z</time>
      </trkpt>
      <trkpt lat="43.442659" lon="-4.997323">
        <ele>103.008</ele>
        <time>2022-08-27T14:15:37Z</time>
      </trkpt>
      <trkpt lat="43.442622" lon="-4.997273">
        <ele>104.109</ele>
        <time>2022-08-27T14:15:39Z</time>
      </trkpt>
      <trkpt lat="43.442589" lon="-4.997230">
        <ele>104.136</ele>
        <time>2022-08-27T14:15:41Z</time>
      </trkpt>
      <trkpt lat="43.442539" lon="-4.997170">
        <ele>104.266</ele>
        <time>2022-08-27T14:15:44Z</time>
      </trkpt>
      <trkpt lat="43.442504" lon="-4.997130">
        <ele>104.217</ele>
        <time>2022-08-27T14:15:46Z</time>
      </trkpt>
      <trkpt lat="43.442474" lon="-4.997077">
        <ele>104.225</ele>
        <time>2022-08-27T14:15:48Z</time>
      </trkpt>
      <trkpt lat="43.442439" lon="-4.997030">
        <ele>104.165</ele>
        <time>2022-08-27T14:15:50Z</time>
      </trkpt>
      <trkpt lat="43.442397" lon="-4.996992">
        <ele>104.171</ele>
        <time>2022-08-27T14:15:52Z</time>
      </trkpt>
      <trkpt lat="43.442360" lon="-4.996950">
        <ele>103.755</ele>
        <time>2022-08-27T14:15:54Z</time>
      </trkpt>
      <trkpt lat="43.442327" lon="-4.996905">
        <ele>103.782</ele>
        <time>2022-08-27T14:15:56Z</time>
      </trkpt>
      <trkpt lat="43.442290" lon="-4.996857">
        <ele>103.589</ele>
        <time>2022-08-27T14:15:58Z</time>
      </trkpt>
      <trkpt lat="43.442250" lon="-4.996810">
        <ele>103.345</ele>
        <time>2022-08-27T14:16:00Z</time>
      </trkpt>
      <trkpt lat="43.442212" lon="-4.996762">
        <ele>103.347</ele>
        <time>2022-08-27T14:16:02Z</time>
      </trkpt>
      <trkpt lat="43.442170" lon="-4.996719">
        <ele>103.311</ele>
        <time>2022-08-27T14:16:04Z</time>
      </trkpt>
      <trkpt lat="43.442128" lon="-4.996672">
        <ele>103.509</ele>
        <time>2022-08-27T14:16:06Z</time>
      </trkpt>
      <trkpt lat="43.442090" lon="-4.996620">
        <ele>103.875</ele>
        <time>2022-08-27T14:16:08Z</time>
      </trkpt>
      <trkpt lat="43.442048" lon="-4.996565">
        <ele>103.845</ele>
        <time>2022-08-27T14:16:10Z</time>
      </trkpt>
      <trkpt lat="43.442010" lon="-4.996513">
        <ele>104.376</ele>
        <time>2022-08-27T14:16:12Z</time>
      </trkpt>
      <trkpt lat="43.441970" lon="-4.996465">
        <ele>104.894</ele>
        <time>2022-08-27T14:16:14Z</time>
      </trkpt>
      <trkpt lat="43.441927" lon="-4.996417">
        <ele>105.584</ele>
        <time>2022-08-27T14:16:16Z</time>
      </trkpt>
      <trkpt lat="43.441884" lon="-4.996370">
        <ele>105.790</ele>
        <time>2022-08-27T14:16:18Z</time>
      </trkpt>
      <trkpt lat="43.441842" lon="-4.996322">
        <ele>105.824</ele>
        <time>2022-08-27T14:16:20Z</time>
      </trkpt>
      <trkpt lat="43.441800" lon="-4.996274">
        <ele>105.891</ele>
        <time>2022-08-27T14:16:22Z</time>
      </trkpt>
      <trkpt lat="43.441758" lon="-4.996221">
        <ele>106.038</ele>
        <time>2022-08-27T14:16:24Z</time>
      </trkpt>
      <trkpt lat="43.441713" lon="-4.996173">
        <ele>106.085</ele>
        <time>2022-08-27T14:16:26Z</time>
      </trkpt>
      <trkpt lat="43.441670" lon="-4.996120">
        <ele>106.289</ele>
        <time>2022-08-27T14:16:28Z</time>
      </trkpt>
      <trkpt lat="43.441628" lon="-4.996058">
        <ele>106.517</ele>
        <time>2022-08-27T14:16:30Z</time>
      </trkpt>
      <trkpt lat="43.441583" lon="-4.995996">
        <ele>107.209</ele>
        <time>2022-08-27T14:16:32Z</time>
      </trkpt>
      <trkpt lat="43.441545" lon="-4.995939">
        <ele>108.279</ele>
        <time>2022-08-27T14:16:34Z</time>
      </trkpt>
      <trkpt lat="43.441508" lon="-4.995872">
        <ele>109.229</ele>
        <time>2022-08-27T14:16:36Z</time>
      </trkpt>
      <trkpt lat="43.441468" lon="-4.995809">
        <ele>110.360</ele>
        <time>2022-08-27T14:16:38Z</time>
      </trkpt>
      <trkpt lat="43.441435" lon="-4.995739">
        <ele>111.458</ele>
        <time>2022-08-27T14:16:40Z</time>
      </trkpt>
      <trkpt lat="43.441402" lon="-4.995667">
        <ele>112.298</ele>
        <time>2022-08-27T14:16:42Z</time>
      </trkpt>
      <trkpt lat="43.441374" lon="-4.995597">
        <ele>112.734</ele>
        <time>2022-08-27T14:16:44Z</time>
      </trkpt>
      <trkpt lat="43.441347" lon="-4.995525">
        <ele>112.938</ele>
        <time>2022-08-27T14:16:46Z</time>
      </trkpt>
      <trkpt lat="43.441320" lon="-4.995455">
        <ele>113.225</ele>
        <time>2022-08-27T14:16:48Z</time>
      </trkpt>
      <trkpt lat="43.441297" lon="-4.995383">
        <ele>113.312</ele>
        <time>2022-08-27T14:16:50Z</time>
      </trkpt>
      <trkpt lat="43.441279" lon="-4.995311">
        <ele>113.321</ele>
        <time>2022-08-27T14:16:52Z</time>
      </trkpt>
      <trkpt lat="43.441264" lon="-4.995244">
        <ele>113.341</ele>
        <time>2022-08-27T14:16:54Z</time>
      </trkpt>
      <trkpt lat="43.441249" lon="-4.995171">
        <ele>113.305</ele>
        <time>2022-08-27T14:16:56Z</time>
      </trkpt>
      <trkpt lat="43.441234" lon="-4.995108">
        <ele>113.409</ele>
        <time>2022-08-27T14:16:58Z</time>
      </trkpt>
      <trkpt lat="43.441217" lon="-4.995045">
        <ele>113.433</ele>
        <time>2022-08-27T14:17:00Z</time>
      </trkpt>
      <trkpt lat="43.441207" lon="-4.994982">
        <ele>113.533</ele>
        <time>2022-08-27T14:17:02Z</time>
      </trkpt>
      <trkpt lat="43.441199" lon="-4.994912">
        <ele>114.084</ele>
        <time>2022-08-27T14:17:04Z</time>
      </trkpt>
      <trkpt lat="43.441192" lon="-4.994837">
        <ele>114.012</ele>
        <time>2022-08-27T14:17:06Z</time>
      </trkpt>
      <trkpt lat="43.441187" lon="-4.994762">
        <ele>114.042</ele>
        <time>2022-08-27T14:17:08Z</time>
      </trkpt>
      <trkpt lat="43.441180" lon="-4.994692">
        <ele>114.228</ele>
        <time>2022-08-27T14:17:09Z</time>
      </trkpt>
      <trkpt lat="43.441173" lon="-4.994619">
        <ele>114.282</ele>
        <time>2022-08-27T14:17:12Z</time>
      </trkpt>
      <trkpt lat="43.441170" lon="-4.994546">
        <ele>114.679</ele>
        <time>2022-08-27T14:17:14Z</time>
      </trkpt>
      <trkpt lat="43.441165" lon="-4.994474">
        <ele>114.986</ele>
        <time>2022-08-27T14:17:16Z</time>
      </trkpt>
      <trkpt lat="43.441160" lon="-4.994401">
        <ele>115.441</ele>
        <time>2022-08-27T14:17:18Z</time>
      </trkpt>
      <trkpt lat="43.441153" lon="-4.994331">
        <ele>115.981</ele>
        <time>2022-08-27T14:17:20Z</time>
      </trkpt>
      <trkpt lat="43.441146" lon="-4.994256">
        <ele>116.209</ele>
        <time>2022-08-27T14:17:22Z</time>
      </trkpt>
      <trkpt lat="43.441136" lon="-4.994183">
        <ele>116.409</ele>
        <time>2022-08-27T14:17:24Z</time>
      </trkpt>
      <trkpt lat="43.441131" lon="-4.994115">
        <ele>116.645</ele>
        <time>2022-08-27T14:17:26Z</time>
      </trkpt>
      <trkpt lat="43.441124" lon="-4.994047">
        <ele>117.165</ele>
        <time>2022-08-27T14:17:28Z</time>
      </trkpt>
      <trkpt lat="43.441119" lon="-4.993982">
        <ele>117.336</ele>
        <time>2022-08-27T14:17:30Z</time>
      </trkpt>
      <trkpt lat="43.441117" lon="-4.993910">
        <ele>117.494</ele>
        <time>2022-08-27T14:17:32Z</time>
      </trkpt>
      <trkpt lat="43.441109" lon="-4.993815">
        <ele>118.034</ele>
        <time>2022-08-27T14:17:34Z</time>
      </trkpt>
      <trkpt lat="43.441099" lon="-4.993720">
        <ele>119.350</ele>
        <time>2022-08-27T14:17:36Z</time>
      </trkpt>
      <trkpt lat="43.441094" lon="-4.993645">
        <ele>119.674</ele>
        <time>2022-08-27T14:17:38Z</time>
      </trkpt>
      <trkpt lat="43.441087" lon="-4.993572">
        <ele>119.781</ele>
        <time>2022-08-27T14:17:40Z</time>
      </trkpt>
      <trkpt lat="43.441082" lon="-4.993499">
        <ele>119.938</ele>
        <time>2022-08-27T14:17:42Z</time>
      </trkpt>
      <trkpt lat="43.441080" lon="-4.993426">
        <ele>120.126</ele>
        <time>2022-08-27T14:17:44Z</time>
      </trkpt>
      <trkpt lat="43.441070" lon="-4.993356">
        <ele>120.647</ele>
        <time>2022-08-27T14:17:46Z</time>
      </trkpt>
      <trkpt lat="43.441063" lon="-4.993291">
        <ele>120.611</ele>
        <time>2022-08-27T14:17:48Z</time>
      </trkpt>
      <trkpt lat="43.441056" lon="-4.993224">
        <ele>120.609</ele>
        <time>2022-08-27T14:17:50Z</time>
      </trkpt>
      <trkpt lat="43.441051" lon="-4.993156">
        <ele>120.693</ele>
        <time>2022-08-27T14:17:52Z</time>
      </trkpt>
      <trkpt lat="43.441046" lon="-4.993083">
        <ele>120.663</ele>
        <time>2022-08-27T14:17:54Z</time>
      </trkpt>
      <trkpt lat="43.441039" lon="-4.993010">
        <ele>120.644</ele>
        <time>2022-08-27T14:17:56Z</time>
      </trkpt>
      <trkpt lat="43.441036" lon="-4.992937">
        <ele>120.782</ele>
        <time>2022-08-27T14:17:58Z</time>
      </trkpt>
      <trkpt lat="43.441033" lon="-4.992867">
        <ele>121.312</ele>
        <time>2022-08-27T14:18:00Z</time>
      </trkpt>
      <trkpt lat="43.441031" lon="-4.992792">
        <ele>121.798</ele>
        <time>2022-08-27T14:18:02Z</time>
      </trkpt>
      <trkpt lat="43.441023" lon="-4.992717">
        <ele>122.542</ele>
        <time>2022-08-27T14:18:04Z</time>
      </trkpt>
      <trkpt lat="43.441011" lon="-4.992642">
        <ele>122.779</ele>
        <time>2022-08-27T14:18:06Z</time>
      </trkpt>
      <trkpt lat="43.441004" lon="-4.992564">
        <ele>123.076</ele>
        <time>2022-08-27T14:18:08Z</time>
      </trkpt>
      <trkpt lat="43.441001" lon="-4.992486">
        <ele>123.266</ele>
        <time>2022-08-27T14:18:10Z</time>
      </trkpt>
      <trkpt lat="43.441001" lon="-4.992409">
        <ele>123.429</ele>
        <time>2022-08-27T14:18:12Z</time>
      </trkpt>
      <trkpt lat="43.440996" lon="-4.992332">
        <ele>123.621</ele>
        <time>2022-08-27T14:18:14Z</time>
      </trkpt>
      <trkpt lat="43.440991" lon="-4.992257">
        <ele>123.909</ele>
        <time>2022-08-27T14:18:16Z</time>
      </trkpt>
      <trkpt lat="43.440996" lon="-4.992179">
        <ele>124.147</ele>
        <time>2022-08-27T14:18:18Z</time>
      </trkpt>
      <trkpt lat="43.441003" lon="-4.992092">
        <ele>124.117</ele>
        <time>2022-08-27T14:18:20Z</time>
      </trkpt>
      <trkpt lat="43.441015" lon="-4.991997">
        <ele>124.118</ele>
        <time>2022-08-27T14:18:22Z</time>
      </trkpt>
      <trkpt lat="43.441023" lon="-4.991897">
        <ele>124.756</ele>
        <time>2022-08-27T14:18:24Z</time>
      </trkpt>
      <trkpt lat="43.441033" lon="-4.991787">
        <ele>125.076</ele>
        <time>2022-08-27T14:18:26Z</time>
      </trkpt>
      <trkpt lat="43.441045" lon="-4.991670">
        <ele>125.122</ele>
        <time>2022-08-27T14:18:28Z</time>
      </trkpt>
      <trkpt lat="43.441057" lon="-4.991543">
        <ele>125.136</ele>
        <time>2022-08-27T14:18:30Z</time>
      </trkpt>
      <trkpt lat="43.441065" lon="-4.991475">
        <ele>124.993</ele>
        <time>2022-08-27T14:18:31Z</time>
      </trkpt>
      <trkpt lat="43.441077" lon="-4.991323">
        <ele>124.390</ele>
        <time>2022-08-27T14:18:33Z</time>
      </trkpt>
      <trkpt lat="43.441082" lon="-4.991241">
        <ele>124.189</ele>
        <time>2022-08-27T14:18:34Z</time>
      </trkpt>
      <trkpt lat="43.441095" lon="-4.991064">
        <ele>123.106</ele>
        <time>2022-08-27T14:18:36Z</time>
      </trkpt>
      <trkpt lat="43.441098" lon="-4.990971">
        <ele>122.926</ele>
        <time>2022-08-27T14:18:37Z</time>
      </trkpt>
      <trkpt lat="43.441105" lon="-4.990879">
        <ele>122.709</ele>
        <time>2022-08-27T14:18:38Z</time>
      </trkpt>
      <trkpt lat="43.441118" lon="-4.990689">
        <ele>122.469</ele>
        <time>2022-08-27T14:18:40Z</time>
      </trkpt>
      <trkpt lat="43.441135" lon="-4.990496">
        <ele>120.879</ele>
        <time>2022-08-27T14:18:42Z</time>
      </trkpt>
      <trkpt lat="43.441150" lon="-4.990284">
        <ele>119.440</ele>
        <time>2022-08-27T14:18:44Z</time>
      </trkpt>
      <trkpt lat="43.441165" lon="-4.990069">
        <ele>118.588</ele>
        <time>2022-08-27T14:18:46Z</time>
      </trkpt>
      <trkpt lat="43.441182" lon="-4.989854">
        <ele>117.518</ele>
        <time>2022-08-27T14:18:48Z</time>
      </trkpt>
      <trkpt lat="43.441194" lon="-4.989742">
        <ele>116.854</ele>
        <time>2022-08-27T14:18:49Z</time>
      </trkpt>
      <trkpt lat="43.441206" lon="-4.989630">
        <ele>116.138</ele>
        <time>2022-08-27T14:18:50Z</time>
      </trkpt>
      <trkpt lat="43.441219" lon="-4.989517">
        <ele>115.555</ele>
        <time>2022-08-27T14:18:51Z</time>
      </trkpt>
      <trkpt lat="43.441252" lon="-4.989282">
        <ele>113.932</ele>
        <time>2022-08-27T14:18:53Z</time>
      </trkpt>
      <trkpt lat="43.441270" lon="-4.989167">
        <ele>113.256</ele>
        <time>2022-08-27T14:18:54Z</time>
      </trkpt>
      <trkpt lat="43.441290" lon="-4.989047">
        <ele>112.259</ele>
        <time>2022-08-27T14:18:55Z</time>
      </trkpt>
      <trkpt lat="43.441312" lon="-4.988924">
        <ele>111.214</ele>
        <time>2022-08-27T14:18:56Z</time>
      </trkpt>
      <trkpt lat="43.441365" lon="-4.988672">
        <ele>109.809</ele>
        <time>2022-08-27T14:18:58Z</time>
      </trkpt>
      <trkpt lat="43.441417" lon="-4.988417">
        <ele>108.436</ele>
        <time>2022-08-27T14:19:00Z</time>
      </trkpt>
      <trkpt lat="43.441444" lon="-4.988289">
        <ele>107.746</ele>
        <time>2022-08-27T14:19:01Z</time>
      </trkpt>
      <trkpt lat="43.441467" lon="-4.988162">
        <ele>107.017</ele>
        <time>2022-08-27T14:19:02Z</time>
      </trkpt>
      <trkpt lat="43.441494" lon="-4.988040">
        <ele>106.485</ele>
        <time>2022-08-27T14:19:03Z</time>
      </trkpt>
      <trkpt lat="43.441547" lon="-4.987790">
        <ele>105.845</ele>
        <time>2022-08-27T14:19:05Z</time>
      </trkpt>
      <trkpt lat="43.441602" lon="-4.987532">
        <ele>105.741</ele>
        <time>2022-08-27T14:19:07Z</time>
      </trkpt>
      <trkpt lat="43.441632" lon="-4.987402">
        <ele>105.545</ele>
        <time>2022-08-27T14:19:08Z</time>
      </trkpt>
      <trkpt lat="43.441684" lon="-4.987134">
        <ele>105.292</ele>
        <time>2022-08-27T14:19:10Z</time>
      </trkpt>
      <trkpt lat="43.441707" lon="-4.986856">
        <ele>103.599</ele>
        <time>2022-08-27T14:19:12Z</time>
      </trkpt>
      <trkpt lat="43.441702" lon="-4.986714">
        <ele>102.549</ele>
        <time>2022-08-27T14:19:13Z</time>
      </trkpt>
      <trkpt lat="43.441687" lon="-4.986574">
        <ele>101.602</ele>
        <time>2022-08-27T14:19:14Z</time>
      </trkpt>
      <trkpt lat="43.441635" lon="-4.986299">
        <ele>100.022</ele>
        <time>2022-08-27T14:19:16Z</time>
      </trkpt>
      <trkpt lat="43.441547" lon="-4.986052">
        <ele>98.309</ele>
        <time>2022-08-27T14:19:18Z</time>
      </trkpt>
      <trkpt lat="43.441502" lon="-4.985927">
        <ele>98.155</ele>
        <time>2022-08-27T14:19:19Z</time>
      </trkpt>
      <trkpt lat="43.441459" lon="-4.985800">
        <ele>97.965</ele>
        <time>2022-08-27T14:19:20Z</time>
      </trkpt>
      <trkpt lat="43.441374" lon="-4.985553">
        <ele>97.956</ele>
        <time>2022-08-27T14:19:22Z</time>
      </trkpt>
      <trkpt lat="43.441327" lon="-4.985436">
        <ele>97.914</ele>
        <time>2022-08-27T14:19:23Z</time>
      </trkpt>
      <trkpt lat="43.441280" lon="-4.985329">
        <ele>97.924</ele>
        <time>2022-08-27T14:19:24Z</time>
      </trkpt>
      <trkpt lat="43.441180" lon="-4.985141">
        <ele>97.570</ele>
        <time>2022-08-27T14:19:26Z</time>
      </trkpt>
      <trkpt lat="43.441128" lon="-4.985046">
        <ele>97.544</ele>
        <time>2022-08-27T14:19:27Z</time>
      </trkpt>
      <trkpt lat="43.441035" lon="-4.984849">
        <ele>97.511</ele>
        <time>2022-08-27T14:19:29Z</time>
      </trkpt>
      <trkpt lat="43.440940" lon="-4.984666">
        <ele>97.528</ele>
        <time>2022-08-27T14:19:31Z</time>
      </trkpt>
      <trkpt lat="43.440893" lon="-4.984583">
        <ele>97.868</ele>
        <time>2022-08-27T14:19:32Z</time>
      </trkpt>
      <trkpt lat="43.440846" lon="-4.984511">
        <ele>98.142</ele>
        <time>2022-08-27T14:19:33Z</time>
      </trkpt>
      <trkpt lat="43.440763" lon="-4.984371">
        <ele>98.526</ele>
        <time>2022-08-27T14:19:35Z</time>
      </trkpt>
      <trkpt lat="43.440683" lon="-4.984231">
        <ele>98.609</ele>
        <time>2022-08-27T14:19:37Z</time>
      </trkpt>
      <trkpt lat="43.440606" lon="-4.984088">
        <ele>99.287</ele>
        <time>2022-08-27T14:19:39Z</time>
      </trkpt>
      <trkpt lat="43.440568" lon="-4.984016">
        <ele>99.647</ele>
        <time>2022-08-27T14:19:40Z</time>
      </trkpt>
      <trkpt lat="43.440493" lon="-4.983884">
        <ele>100.588</ele>
        <time>2022-08-27T14:19:42Z</time>
      </trkpt>
      <trkpt lat="43.440456" lon="-4.983822">
        <ele>100.746</ele>
        <time>2022-08-27T14:19:43Z</time>
      </trkpt>
      <trkpt lat="43.440388" lon="-4.983700">
        <ele>100.716</ele>
        <time>2022-08-27T14:19:45Z</time>
      </trkpt>
      <trkpt lat="43.440355" lon="-4.983640">
        <ele>100.822</ele>
        <time>2022-08-27T14:19:46Z</time>
      </trkpt>
      <trkpt lat="43.440293" lon="-4.983528">
        <ele>100.716</ele>
        <time>2022-08-27T14:19:48Z</time>
      </trkpt>
      <trkpt lat="43.440260" lon="-4.983478">
        <ele>100.753</ele>
        <time>2022-08-27T14:19:49Z</time>
      </trkpt>
      <trkpt lat="43.440197" lon="-4.983371">
        <ele>100.520</ele>
        <time>2022-08-27T14:19:51Z</time>
      </trkpt>
      <trkpt lat="43.440167" lon="-4.983313">
        <ele>100.217</ele>
        <time>2022-08-27T14:19:52Z</time>
      </trkpt>
      <trkpt lat="43.440112" lon="-4.983203">
        <ele>100.087</ele>
        <time>2022-08-27T14:19:54Z</time>
      </trkpt>
      <trkpt lat="43.440055" lon="-4.983100">
        <ele>99.615</ele>
        <time>2022-08-27T14:19:56Z</time>
      </trkpt>
      <trkpt lat="43.439993" lon="-4.982995">
        <ele>98.109</ele>
        <time>2022-08-27T14:19:58Z</time>
      </trkpt>
      <trkpt lat="43.439963" lon="-4.982943">
        <ele>97.912</ele>
        <time>2022-08-27T14:19:59Z</time>
      </trkpt>
      <trkpt lat="43.439898" lon="-4.982841">
        <ele>97.892</ele>
        <time>2022-08-27T14:20:01Z</time>
      </trkpt>
      <trkpt lat="43.439868" lon="-4.982788">
        <ele>97.853</ele>
        <time>2022-08-27T14:20:02Z</time>
      </trkpt>
      <trkpt lat="43.439840" lon="-4.982738">
        <ele>97.881</ele>
        <time>2022-08-27T14:20:03Z</time>
      </trkpt>
      <trkpt lat="43.439783" lon="-4.982641">
        <ele>98.421</ele>
        <time>2022-08-27T14:20:05Z</time>
      </trkpt>
      <trkpt lat="43.439728" lon="-4.982549">
        <ele>98.727</ele>
        <time>2022-08-27T14:20:07Z</time>
      </trkpt>
      <trkpt lat="43.439700" lon="-4.982499">
        <ele>98.731</ele>
        <time>2022-08-27T14:20:08Z</time>
      </trkpt>
      <trkpt lat="43.439675" lon="-4.982447">
        <ele>98.728</ele>
        <time>2022-08-27T14:20:09Z</time>
      </trkpt>
      <trkpt lat="43.439648" lon="-4.982395">
        <ele>98.795</ele>
        <time>2022-08-27T14:20:10Z</time>
      </trkpt>
      <trkpt lat="43.439595" lon="-4.982293">
        <ele>98.716</ele>
        <time>2022-08-27T14:20:12Z</time>
      </trkpt>
      <trkpt lat="43.439538" lon="-4.982191">
        <ele>98.776</ele>
        <time>2022-08-27T14:20:14Z</time>
      </trkpt>
      <trkpt lat="43.439485" lon="-4.982094">
        <ele>98.813</ele>
        <time>2022-08-27T14:20:16Z</time>
      </trkpt>
      <trkpt lat="43.439437" lon="-4.982002">
        <ele>99.209</ele>
        <time>2022-08-27T14:20:18Z</time>
      </trkpt>
      <trkpt lat="43.439387" lon="-4.981912">
        <ele>99.742</ele>
        <time>2022-08-27T14:20:20Z</time>
      </trkpt>
      <trkpt lat="43.439340" lon="-4.981825">
        <ele>100.112</ele>
        <time>2022-08-27T14:20:22Z</time>
      </trkpt>
      <trkpt lat="43.439292" lon="-4.981743">
        <ele>100.113</ele>
        <time>2022-08-27T14:20:24Z</time>
      </trkpt>
      <trkpt lat="43.439245" lon="-4.981663">
        <ele>100.241</ele>
        <time>2022-08-27T14:20:26Z</time>
      </trkpt>
      <trkpt lat="43.439198" lon="-4.981580">
        <ele>100.261</ele>
        <time>2022-08-27T14:20:27Z</time>
      </trkpt>
      <trkpt lat="43.439150" lon="-4.981498">
        <ele>100.447</ele>
        <time>2022-08-27T14:20:30Z</time>
      </trkpt>
      <trkpt lat="43.439107" lon="-4.981421">
        <ele>100.771</ele>
        <time>2022-08-27T14:20:32Z</time>
      </trkpt>
      <trkpt lat="43.439062" lon="-4.981341">
        <ele>101.098</ele>
        <time>2022-08-27T14:20:34Z</time>
      </trkpt>
      <trkpt lat="43.439015" lon="-4.981259">
        <ele>101.495</ele>
        <time>2022-08-27T14:20:36Z</time>
      </trkpt>
      <trkpt lat="43.438967" lon="-4.981179">
        <ele>101.744</ele>
        <time>2022-08-27T14:20:38Z</time>
      </trkpt>
      <trkpt lat="43.438919" lon="-4.981094">
        <ele>101.905</ele>
        <time>2022-08-27T14:20:40Z</time>
      </trkpt>
      <trkpt lat="43.438869" lon="-4.981011">
        <ele>102.415</ele>
        <time>2022-08-27T14:20:42Z</time>
      </trkpt>
      <trkpt lat="43.438826" lon="-4.980928">
        <ele>102.709</ele>
        <time>2022-08-27T14:20:44Z</time>
      </trkpt>
      <trkpt lat="43.438788" lon="-4.980846">
        <ele>103.095</ele>
        <time>2022-08-27T14:20:46Z</time>
      </trkpt>
      <trkpt lat="43.438743" lon="-4.980759">
        <ele>103.195</ele>
        <time>2022-08-27T14:20:48Z</time>
      </trkpt>
      <trkpt lat="43.438695" lon="-4.980669">
        <ele>103.126</ele>
        <time>2022-08-27T14:20:50Z</time>
      </trkpt>
      <trkpt lat="43.438645" lon="-4.980576">
        <ele>102.914</ele>
        <time>2022-08-27T14:20:52Z</time>
      </trkpt>
      <trkpt lat="43.438600" lon="-4.980481">
        <ele>102.734</ele>
        <time>2022-08-27T14:20:54Z</time>
      </trkpt>
      <trkpt lat="43.438555" lon="-4.980376">
        <ele>102.550</ele>
        <time>2022-08-27T14:20:56Z</time>
      </trkpt>
      <trkpt lat="43.438517" lon="-4.980269">
        <ele>102.224</ele>
        <time>2022-08-27T14:20:58Z</time>
      </trkpt>
      <trkpt lat="43.438499" lon="-4.980211">
        <ele>101.911</ele>
        <time>2022-08-27T14:20:59Z</time>
      </trkpt>
      <trkpt lat="43.438482" lon="-4.980149">
        <ele>101.738</ele>
        <time>2022-08-27T14:21:00Z</time>
      </trkpt>
      <trkpt lat="43.438445" lon="-4.980037">
        <ele>101.739</ele>
        <time>2022-08-27T14:21:02Z</time>
      </trkpt>
      <trkpt lat="43.438413" lon="-4.979919">
        <ele>102.201</ele>
        <time>2022-08-27T14:21:04Z</time>
      </trkpt>
      <trkpt lat="43.438398" lon="-4.979859">
        <ele>102.521</ele>
        <time>2022-08-27T14:21:05Z</time>
      </trkpt>
      <trkpt lat="43.438386" lon="-4.979797">
        <ele>102.909</ele>
        <time>2022-08-27T14:21:06Z</time>
      </trkpt>
      <trkpt lat="43.438376" lon="-4.979735">
        <ele>103.194</ele>
        <time>2022-08-27T14:21:07Z</time>
      </trkpt>
      <trkpt lat="43.438353" lon="-4.979617">
        <ele>103.364</ele>
        <time>2022-08-27T14:21:09Z</time>
      </trkpt>
      <trkpt lat="43.438336" lon="-4.979499">
        <ele>103.345</ele>
        <time>2022-08-27T14:21:11Z</time>
      </trkpt>
      <trkpt lat="43.438323" lon="-4.979379">
        <ele>103.473</ele>
        <time>2022-08-27T14:21:13Z</time>
      </trkpt>
      <trkpt lat="43.438310" lon="-4.979264">
        <ele>103.553</ele>
        <time>2022-08-27T14:21:15Z</time>
      </trkpt>
      <trkpt lat="43.438302" lon="-4.979151">
        <ele>103.649</ele>
        <time>2022-08-27T14:21:17Z</time>
      </trkpt>
      <trkpt lat="43.438290" lon="-4.979041">
        <ele>103.863</ele>
        <time>2022-08-27T14:21:19Z</time>
      </trkpt>
      <trkpt lat="43.438290" lon="-4.978926">
        <ele>103.960</ele>
        <time>2022-08-27T14:21:21Z</time>
      </trkpt>
      <trkpt lat="43.438292" lon="-4.978816">
        <ele>103.917</ele>
        <time>2022-08-27T14:21:23Z</time>
      </trkpt>
      <trkpt lat="43.438295" lon="-4.978708">
        <ele>103.874</ele>
        <time>2022-08-27T14:21:25Z</time>
      </trkpt>
      <trkpt lat="43.438298" lon="-4.978598">
        <ele>103.456</ele>
        <time>2022-08-27T14:21:27Z</time>
      </trkpt>
      <trkpt lat="43.438303" lon="-4.978495">
        <ele>103.421</ele>
        <time>2022-08-27T14:21:29Z</time>
      </trkpt>
      <trkpt lat="43.438306" lon="-4.978392">
        <ele>103.409</ele>
        <time>2022-08-27T14:21:31Z</time>
      </trkpt>
      <trkpt lat="43.438314" lon="-4.978280">
        <ele>103.088</ele>
        <time>2022-08-27T14:21:33Z</time>
      </trkpt>
      <trkpt lat="43.438322" lon="-4.978170">
        <ele>102.828</ele>
        <time>2022-08-27T14:21:35Z</time>
      </trkpt>
      <trkpt lat="43.438332" lon="-4.978053">
        <ele>102.599</ele>
        <time>2022-08-27T14:21:37Z</time>
      </trkpt>
      <trkpt lat="43.438342" lon="-4.977938">
        <ele>102.427</ele>
        <time>2022-08-27T14:21:39Z</time>
      </trkpt>
      <trkpt lat="43.438354" lon="-4.977828">
        <ele>102.457</ele>
        <time>2022-08-27T14:21:41Z</time>
      </trkpt>
      <trkpt lat="43.438364" lon="-4.977721">
        <ele>102.363</ele>
        <time>2022-08-27T14:21:43Z</time>
      </trkpt>
      <trkpt lat="43.438374" lon="-4.977611">
        <ele>102.177</ele>
        <time>2022-08-27T14:21:45Z</time>
      </trkpt>
      <trkpt lat="43.438379" lon="-4.977499">
        <ele>102.024</ele>
        <time>2022-08-27T14:21:47Z</time>
      </trkpt>
      <trkpt lat="43.438389" lon="-4.977391">
        <ele>102.021</ele>
        <time>2022-08-27T14:21:49Z</time>
      </trkpt>
      <trkpt lat="43.438397" lon="-4.977284">
        <ele>102.065</ele>
        <time>2022-08-27T14:21:51Z</time>
      </trkpt>
      <trkpt lat="43.438407" lon="-4.977172">
        <ele>102.268</ele>
        <time>2022-08-27T14:21:53Z</time>
      </trkpt>
      <trkpt lat="43.438417" lon="-4.977062">
        <ele>102.314</ele>
        <time>2022-08-27T14:21:55Z</time>
      </trkpt>
      <trkpt lat="43.438429" lon="-4.976949">
        <ele>102.409</ele>
        <time>2022-08-27T14:21:57Z</time>
      </trkpt>
      <trkpt lat="43.438441" lon="-4.976831">
        <ele>102.647</ele>
        <time>2022-08-27T14:21:59Z</time>
      </trkpt>
      <trkpt lat="43.438453" lon="-4.976713">
        <ele>103.057</ele>
        <time>2022-08-27T14:22:01Z</time>
      </trkpt>
      <trkpt lat="43.438461" lon="-4.976591">
        <ele>103.438</ele>
        <time>2022-08-27T14:22:03Z</time>
      </trkpt>
      <trkpt lat="43.438468" lon="-4.976471">
        <ele>103.776</ele>
        <time>2022-08-27T14:22:05Z</time>
      </trkpt>
      <trkpt lat="43.438475" lon="-4.976353">
        <ele>104.436</ele>
        <time>2022-08-27T14:22:07Z</time>
      </trkpt>
      <trkpt lat="43.438485" lon="-4.976231">
        <ele>104.722</ele>
        <time>2022-08-27T14:22:09Z</time>
      </trkpt>
      <trkpt lat="43.438495" lon="-4.976108">
        <ele>104.786</ele>
        <time>2022-08-27T14:22:11Z</time>
      </trkpt>
      <trkpt lat="43.438508" lon="-4.975988">
        <ele>104.683</ele>
        <time>2022-08-27T14:22:13Z</time>
      </trkpt>
      <trkpt lat="43.438516" lon="-4.975926">
        <ele>104.460</ele>
        <time>2022-08-27T14:22:14Z</time>
      </trkpt>
      <trkpt lat="43.438533" lon="-4.975806">
        <ele>104.311</ele>
        <time>2022-08-27T14:22:16Z</time>
      </trkpt>
      <trkpt lat="43.438548" lon="-4.975683">
        <ele>104.221</ele>
        <time>2022-08-27T14:22:18Z</time>
      </trkpt>
      <trkpt lat="43.438561" lon="-4.975560">
        <ele>104.203</ele>
        <time>2022-08-27T14:22:20Z</time>
      </trkpt>
      <trkpt lat="43.438573" lon="-4.975442">
        <ele>104.309</ele>
        <time>2022-08-27T14:22:22Z</time>
      </trkpt>
      <trkpt lat="43.438581" lon="-4.975380">
        <ele>104.372</ele>
        <time>2022-08-27T14:22:23Z</time>
      </trkpt>
      <trkpt lat="43.438596" lon="-4.975265">
        <ele>104.762</ele>
        <time>2022-08-27T14:22:25Z</time>
      </trkpt>
      <trkpt lat="43.438611" lon="-4.975153">
        <ele>105.463</ele>
        <time>2022-08-27T14:22:27Z</time>
      </trkpt>
      <trkpt lat="43.438621" lon="-4.975041">
        <ele>105.641</ele>
        <time>2022-08-27T14:22:29Z</time>
      </trkpt>
      <trkpt lat="43.438629" lon="-4.974924">
        <ele>105.981</ele>
        <time>2022-08-27T14:22:31Z</time>
      </trkpt>
      <trkpt lat="43.438634" lon="-4.974807">
        <ele>106.267</ele>
        <time>2022-08-27T14:22:33Z</time>
      </trkpt>
      <trkpt lat="43.438639" lon="-4.974690">
        <ele>106.221</ele>
        <time>2022-08-27T14:22:35Z</time>
      </trkpt>
      <trkpt lat="43.438651" lon="-4.974572">
        <ele>106.158</ele>
        <time>2022-08-27T14:22:37Z</time>
      </trkpt>
      <trkpt lat="43.438658" lon="-4.974452">
        <ele>105.865</ele>
        <time>2022-08-27T14:22:39Z</time>
      </trkpt>
      <trkpt lat="43.438666" lon="-4.974335">
        <ele>105.845</ele>
        <time>2022-08-27T14:22:41Z</time>
      </trkpt>
      <trkpt lat="43.438676" lon="-4.974223">
        <ele>105.847</ele>
        <time>2022-08-27T14:22:43Z</time>
      </trkpt>
      <trkpt lat="43.438689" lon="-4.974110">
        <ele>105.911</ele>
        <time>2022-08-27T14:22:45Z</time>
      </trkpt>
      <trkpt lat="43.438696" lon="-4.974007">
        <ele>106.309</ele>
        <time>2022-08-27T14:22:47Z</time>
      </trkpt>
      <trkpt lat="43.438703" lon="-4.973900">
        <ele>106.355</ele>
        <time>2022-08-27T14:22:48Z</time>
      </trkpt>
      <trkpt lat="43.438716" lon="-4.973782">
        <ele>106.355</ele>
        <time>2022-08-27T14:22:51Z</time>
      </trkpt>
      <trkpt lat="43.438726" lon="-4.973652">
        <ele>106.446</ele>
        <time>2022-08-27T14:22:53Z</time>
      </trkpt>
      <trkpt lat="43.438734" lon="-4.973517">
        <ele>106.714</ele>
        <time>2022-08-27T14:22:55Z</time>
      </trkpt>
      <trkpt lat="43.438739" lon="-4.973455">
        <ele>106.864</ele>
        <time>2022-08-27T14:22:56Z</time>
      </trkpt>
      <trkpt lat="43.438746" lon="-4.973357">
        <ele>106.940</ele>
        <time>2022-08-27T14:22:58Z</time>
      </trkpt>
      <trkpt lat="43.438756" lon="-4.973254">
        <ele>107.094</ele>
        <time>2022-08-27T14:23:00Z</time>
      </trkpt>
      <trkpt lat="43.438766" lon="-4.973139">
        <ele>107.171</ele>
        <time>2022-08-27T14:23:02Z</time>
      </trkpt>
      <trkpt lat="43.438771" lon="-4.973026">
        <ele>107.218</ele>
        <time>2022-08-27T14:23:04Z</time>
      </trkpt>
      <trkpt lat="43.438776" lon="-4.972911">
        <ele>107.646</ele>
        <time>2022-08-27T14:23:06Z</time>
      </trkpt>
      <trkpt lat="43.438784" lon="-4.972804">
        <ele>107.788</ele>
        <time>2022-08-27T14:23:08Z</time>
      </trkpt>
      <trkpt lat="43.438791" lon="-4.972711">
        <ele>107.716</ele>
        <time>2022-08-27T14:23:10Z</time>
      </trkpt>
      <trkpt lat="43.438801" lon="-4.972619">
        <ele>107.509</ele>
        <time>2022-08-27T14:23:12Z</time>
      </trkpt>
      <trkpt lat="43.438811" lon="-4.972537">
        <ele>107.435</ele>
        <time>2022-08-27T14:23:14Z</time>
      </trkpt>
      <trkpt lat="43.438818" lon="-4.972460">
        <ele>107.415</ele>
        <time>2022-08-27T14:23:16Z</time>
      </trkpt>
      <trkpt lat="43.438825" lon="-4.972382">
        <ele>107.496</ele>
        <time>2022-08-27T14:23:18Z</time>
      </trkpt>
      <trkpt lat="43.438832" lon="-4.972299">
        <ele>107.484</ele>
        <time>2022-08-27T14:23:20Z</time>
      </trkpt>
      <trkpt lat="43.438840" lon="-4.972216">
        <ele>107.454</ele>
        <time>2022-08-27T14:23:22Z</time>
      </trkpt>
      <trkpt lat="43.438848" lon="-4.972126">
        <ele>107.410</ele>
        <time>2022-08-27T14:23:24Z</time>
      </trkpt>
      <trkpt lat="43.438856" lon="-4.972036">
        <ele>107.514</ele>
        <time>2022-08-27T14:23:26Z</time>
      </trkpt>
      <trkpt lat="43.438868" lon="-4.971939">
        <ele>107.591</ele>
        <time>2022-08-27T14:23:28Z</time>
      </trkpt>
      <trkpt lat="43.438875" lon="-4.971846">
        <ele>107.638</ele>
        <time>2022-08-27T14:23:30Z</time>
      </trkpt>
      <trkpt lat="43.438882" lon="-4.971751">
        <ele>108.433</ele>
        <time>2022-08-27T14:23:32Z</time>
      </trkpt>
      <trkpt lat="43.438889" lon="-4.971653">
        <ele>108.923</ele>
        <time>2022-08-27T14:23:34Z</time>
      </trkpt>
      <trkpt lat="43.438896" lon="-4.971555">
        <ele>109.115</ele>
        <time>2022-08-27T14:23:36Z</time>
      </trkpt>
      <trkpt lat="43.438906" lon="-4.971458">
        <ele>109.209</ele>
        <time>2022-08-27T14:23:38Z</time>
      </trkpt>
      <trkpt lat="43.438918" lon="-4.971360">
        <ele>109.314</ele>
        <time>2022-08-27T14:23:40Z</time>
      </trkpt>
      <trkpt lat="43.438926" lon="-4.971263">
        <ele>109.584</ele>
        <time>2022-08-27T14:23:42Z</time>
      </trkpt>
      <trkpt lat="43.438934" lon="-4.971165">
        <ele>109.695</ele>
        <time>2022-08-27T14:23:44Z</time>
      </trkpt>
      <trkpt lat="43.438947" lon="-4.971063">
        <ele>109.743</ele>
        <time>2022-08-27T14:23:46Z</time>
      </trkpt>
      <trkpt lat="43.438954" lon="-4.970965">
        <ele>109.753</ele>
        <time>2022-08-27T14:23:48Z</time>
      </trkpt>
      <trkpt lat="43.438964" lon="-4.970860">
        <ele>109.929</ele>
        <time>2022-08-27T14:23:50Z</time>
      </trkpt>
      <trkpt lat="43.438976" lon="-4.970752">
        <ele>109.973</ele>
        <time>2022-08-27T14:23:52Z</time>
      </trkpt>
      <trkpt lat="43.438986" lon="-4.970644">
        <ele>110.040</ele>
        <time>2022-08-27T14:23:54Z</time>
      </trkpt>
      <trkpt lat="43.438996" lon="-4.970534">
        <ele>110.017</ele>
        <time>2022-08-27T14:23:56Z</time>
      </trkpt>
      <trkpt lat="43.439006" lon="-4.970421">
        <ele>110.351</ele>
        <time>2022-08-27T14:23:58Z</time>
      </trkpt>
      <trkpt lat="43.439016" lon="-4.970304">
        <ele>110.301</ele>
        <time>2022-08-27T14:24:00Z</time>
      </trkpt>
      <trkpt lat="43.439028" lon="-4.970184">
        <ele>110.111</ele>
        <time>2022-08-27T14:24:02Z</time>
      </trkpt>
      <trkpt lat="43.439036" lon="-4.970062">
        <ele>110.109</ele>
        <time>2022-08-27T14:24:04Z</time>
      </trkpt>
      <trkpt lat="43.439049" lon="-4.969940">
        <ele>110.266</ele>
        <time>2022-08-27T14:24:06Z</time>
      </trkpt>
      <trkpt lat="43.439059" lon="-4.969825">
        <ele>110.336</ele>
        <time>2022-08-27T14:24:08Z</time>
      </trkpt>
      <trkpt lat="43.439067" lon="-4.969698">
        <ele>110.497</ele>
        <time>2022-08-27T14:24:10Z</time>
      </trkpt>
      <trkpt lat="43.439075" lon="-4.969575">
        <ele>110.575</ele>
        <time>2022-08-27T14:24:12Z</time>
      </trkpt>
      <trkpt lat="43.439082" lon="-4.969513">
        <ele>110.625</ele>
        <time>2022-08-27T14:24:13Z</time>
      </trkpt>
      <trkpt lat="43.439092" lon="-4.969393">
        <ele>110.991</ele>
        <time>2022-08-27T14:24:15Z</time>
      </trkpt>
      <trkpt lat="43.439105" lon="-4.969273">
        <ele>110.885</ele>
        <time>2022-08-27T14:24:17Z</time>
      </trkpt>
      <trkpt lat="43.439118" lon="-4.969141">
        <ele>110.762</ele>
        <time>2022-08-27T14:24:19Z</time>
      </trkpt>
      <trkpt lat="43.439121" lon="-4.969021">
        <ele>110.549</ele>
        <time>2022-08-27T14:24:21Z</time>
      </trkpt>
      <trkpt lat="43.439128" lon="-4.968904">
        <ele>109.957</ele>
        <time>2022-08-27T14:24:23Z</time>
      </trkpt>
      <trkpt lat="43.439138" lon="-4.968784">
        <ele>109.700</ele>
        <time>2022-08-27T14:24:25Z</time>
      </trkpt>
      <trkpt lat="43.439146" lon="-4.968661">
        <ele>109.720</ele>
        <time>2022-08-27T14:24:27Z</time>
      </trkpt>
      <trkpt lat="43.439153" lon="-4.968598">
        <ele>109.709</ele>
        <time>2022-08-27T14:24:28Z</time>
      </trkpt>
      <trkpt lat="43.439163" lon="-4.968470">
        <ele>109.836</ele>
        <time>2022-08-27T14:24:30Z</time>
      </trkpt>
      <trkpt lat="43.439171" lon="-4.968337">
        <ele>109.956</ele>
        <time>2022-08-27T14:24:32Z</time>
      </trkpt>
      <trkpt lat="43.439178" lon="-4.968269">
        <ele>110.017</ele>
        <time>2022-08-27T14:24:33Z</time>
      </trkpt>
      <trkpt lat="43.439181" lon="-4.968201">
        <ele>110.075</ele>
        <time>2022-08-27T14:24:34Z</time>
      </trkpt>
      <trkpt lat="43.439193" lon="-4.968061">
        <ele>110.195</ele>
        <time>2022-08-27T14:24:36Z</time>
      </trkpt>
      <trkpt lat="43.439206" lon="-4.967921">
        <ele>110.271</ele>
        <time>2022-08-27T14:24:38Z</time>
      </trkpt>
      <trkpt lat="43.439211" lon="-4.967853">
        <ele>110.245</ele>
        <time>2022-08-27T14:24:39Z</time>
      </trkpt>
      <trkpt lat="43.439216" lon="-4.967785">
        <ele>110.212</ele>
        <time>2022-08-27T14:24:40Z</time>
      </trkpt>
      <trkpt lat="43.439221" lon="-4.967717">
        <ele>110.359</ele>
        <time>2022-08-27T14:24:41Z</time>
      </trkpt>
      <trkpt lat="43.439228" lon="-4.967645">
        <ele>110.437</ele>
        <time>2022-08-27T14:24:42Z</time>
      </trkpt>
      <trkpt lat="43.439238" lon="-4.967507">
        <ele>110.549</ele>
        <time>2022-08-27T14:24:44Z</time>
      </trkpt>
      <trkpt lat="43.439245" lon="-4.967435">
        <ele>110.513</ele>
        <time>2022-08-27T14:24:45Z</time>
      </trkpt>
      <trkpt lat="43.439252" lon="-4.967363">
        <ele>110.409</ele>
        <time>2022-08-27T14:24:46Z</time>
      </trkpt>
      <trkpt lat="43.439265" lon="-4.967225">
        <ele>110.324</ele>
        <time>2022-08-27T14:24:48Z</time>
      </trkpt>
      <trkpt lat="43.439270" lon="-4.967153">
        <ele>110.184</ele>
        <time>2022-08-27T14:24:49Z</time>
      </trkpt>
      <trkpt lat="43.439283" lon="-4.967011">
        <ele>109.885</ele>
        <time>2022-08-27T14:24:51Z</time>
      </trkpt>
      <trkpt lat="43.439293" lon="-4.966858">
        <ele>109.783</ele>
        <time>2022-08-27T14:24:53Z</time>
      </trkpt>
      <trkpt lat="43.439305" lon="-4.966706">
        <ele>109.623</ele>
        <time>2022-08-27T14:24:55Z</time>
      </trkpt>
      <trkpt lat="43.439317" lon="-4.966559">
        <ele>109.689</ele>
        <time>2022-08-27T14:24:57Z</time>
      </trkpt>
      <trkpt lat="43.439322" lon="-4.966489">
        <ele>109.433</ele>
        <time>2022-08-27T14:24:58Z</time>
      </trkpt>
      <trkpt lat="43.439337" lon="-4.966349">
        <ele>109.540</ele>
        <time>2022-08-27T14:25:00Z</time>
      </trkpt>
      <trkpt lat="43.439350" lon="-4.966217">
        <ele>109.537</ele>
        <time>2022-08-27T14:25:02Z</time>
      </trkpt>
      <trkpt lat="43.439357" lon="-4.966150">
        <ele>109.568</ele>
        <time>2022-08-27T14:25:03Z</time>
      </trkpt>
      <trkpt lat="43.439365" lon="-4.966087">
        <ele>109.542</ele>
        <time>2022-08-27T14:25:04Z</time>
      </trkpt>
      <trkpt lat="43.439372" lon="-4.966022">
        <ele>109.326</ele>
        <time>2022-08-27T14:25:05Z</time>
      </trkpt>
      <trkpt lat="43.439379" lon="-4.965959">
        <ele>109.209</ele>
        <time>2022-08-27T14:25:06Z</time>
      </trkpt>
      <trkpt lat="43.439389" lon="-4.965821">
        <ele>109.217</ele>
        <time>2022-08-27T14:25:08Z</time>
      </trkpt>
      <trkpt lat="43.439402" lon="-4.965681">
        <ele>109.277</ele>
        <time>2022-08-27T14:25:09Z</time>
      </trkpt>
      <trkpt lat="43.439414" lon="-4.965589">
        <ele>109.318</ele>
        <time>2022-08-27T14:25:12Z</time>
      </trkpt>
      <trkpt lat="43.439424" lon="-4.965491">
        <ele>109.316</ele>
        <time>2022-08-27T14:25:14Z</time>
      </trkpt>
      <trkpt lat="43.439427" lon="-4.965403">
        <ele>109.486</ele>
        <time>2022-08-27T14:25:16Z</time>
      </trkpt>
      <trkpt lat="43.439435" lon="-4.965315">
        <ele>109.412</ele>
        <time>2022-08-27T14:25:18Z</time>
      </trkpt>
      <trkpt lat="43.439438" lon="-4.965225">
        <ele>109.446</ele>
        <time>2022-08-27T14:25:19Z</time>
      </trkpt>
      <trkpt lat="43.439451" lon="-4.965143">
        <ele>109.733</ele>
        <time>2022-08-27T14:25:21Z</time>
      </trkpt>
      <trkpt lat="43.439461" lon="-4.965068">
        <ele>110.380</ele>
        <time>2022-08-27T14:25:24Z</time>
      </trkpt>
      <trkpt lat="43.439466" lon="-4.964993">
        <ele>110.534</ele>
        <time>2022-08-27T14:25:25Z</time>
      </trkpt>
      <trkpt lat="43.439474" lon="-4.964915">
        <ele>110.655</ele>
        <time>2022-08-27T14:25:27Z</time>
      </trkpt>
      <trkpt lat="43.439481" lon="-4.964838">
        <ele>110.810</ele>
        <time>2022-08-27T14:25:29Z</time>
      </trkpt>
      <trkpt lat="43.439489" lon="-4.964763">
        <ele>111.309</ele>
        <time>2022-08-27T14:25:32Z</time>
      </trkpt>
      <trkpt lat="43.439497" lon="-4.964690">
        <ele>111.894</ele>
        <time>2022-08-27T14:25:34Z</time>
      </trkpt>
      <trkpt lat="43.439504" lon="-4.964613">
        <ele>112.194</ele>
        <time>2022-08-27T14:25:35Z</time>
      </trkpt>
      <trkpt lat="43.439512" lon="-4.964545">
        <ele>112.565</ele>
        <time>2022-08-27T14:25:37Z</time>
      </trkpt>
      <trkpt lat="43.439520" lon="-4.964482">
        <ele>112.813</ele>
        <time>2022-08-27T14:25:40Z</time>
      </trkpt>
      <trkpt lat="43.439525" lon="-4.964417">
        <ele>113.193</ele>
        <time>2022-08-27T14:25:42Z</time>
      </trkpt>
      <trkpt lat="43.439535" lon="-4.964355">
        <ele>113.419</ele>
        <time>2022-08-27T14:25:44Z</time>
      </trkpt>
      <trkpt lat="43.439548" lon="-4.964287">
        <ele>113.853</ele>
        <time>2022-08-27T14:25:46Z</time>
      </trkpt>
      <trkpt lat="43.439563" lon="-4.964210">
        <ele>114.540</ele>
        <time>2022-08-27T14:25:48Z</time>
      </trkpt>
      <trkpt lat="43.439571" lon="-4.964120">
        <ele>114.957</ele>
        <time>2022-08-27T14:25:50Z</time>
      </trkpt>
      <trkpt lat="43.439589" lon="-4.964030">
        <ele>114.941</ele>
        <time>2022-08-27T14:25:52Z</time>
      </trkpt>
      <trkpt lat="43.439612" lon="-4.963947">
        <ele>114.981</ele>
        <time>2022-08-27T14:25:54Z</time>
      </trkpt>
      <trkpt lat="43.439634" lon="-4.963864">
        <ele>114.909</ele>
        <time>2022-08-27T14:25:56Z</time>
      </trkpt>
      <trkpt lat="43.439654" lon="-4.963781">
        <ele>115.209</ele>
        <time>2022-08-27T14:25:58Z</time>
      </trkpt>
      <trkpt lat="43.439674" lon="-4.963696">
        <ele>115.645</ele>
        <time>2022-08-27T14:26:00Z</time>
      </trkpt>
      <trkpt lat="43.439696" lon="-4.963608">
        <ele>115.975</ele>
        <time>2022-08-27T14:26:02Z</time>
      </trkpt>
      <trkpt lat="43.439731" lon="-4.963516">
        <ele>115.996</ele>
        <time>2022-08-27T14:26:04Z</time>
      </trkpt>
      <trkpt lat="43.439764" lon="-4.963421">
        <ele>116.194</ele>
        <time>2022-08-27T14:26:06Z</time>
      </trkpt>
      <trkpt lat="43.439797" lon="-4.963316">
        <ele>116.424</ele>
        <time>2022-08-27T14:26:08Z</time>
      </trkpt>
      <trkpt lat="43.439827" lon="-4.963203">
        <ele>116.750</ele>
        <time>2022-08-27T14:26:10Z</time>
      </trkpt>
      <trkpt lat="43.439864" lon="-4.963085">
        <ele>116.794</ele>
        <time>2022-08-27T14:26:12Z</time>
      </trkpt>
      <trkpt lat="43.439904" lon="-4.962970">
        <ele>116.541</ele>
        <time>2022-08-27T14:26:14Z</time>
      </trkpt>
      <trkpt lat="43.439922" lon="-4.962912">
        <ele>116.348</ele>
        <time>2022-08-27T14:26:15Z</time>
      </trkpt>
      <trkpt lat="43.439969" lon="-4.962790">
        <ele>115.792</ele>
        <time>2022-08-27T14:26:17Z</time>
      </trkpt>
      <trkpt lat="43.439992" lon="-4.962723">
        <ele>115.773</ele>
        <time>2022-08-27T14:26:18Z</time>
      </trkpt>
      <trkpt lat="43.440040" lon="-4.962596">
        <ele>115.820</ele>
        <time>2022-08-27T14:26:20Z</time>
      </trkpt>
      <trkpt lat="43.440085" lon="-4.962468">
        <ele>115.809</ele>
        <time>2022-08-27T14:26:22Z</time>
      </trkpt>
      <trkpt lat="43.440112" lon="-4.962401">
        <ele>115.850</ele>
        <time>2022-08-27T14:26:23Z</time>
      </trkpt>
      <trkpt lat="43.440135" lon="-4.962333">
        <ele>115.560</ele>
        <time>2022-08-27T14:26:24Z</time>
      </trkpt>
      <trkpt lat="43.440185" lon="-4.962195">
        <ele>115.141</ele>
        <time>2022-08-27T14:26:26Z</time>
      </trkpt>
      <trkpt lat="43.440237" lon="-4.962050">
        <ele>114.589</ele>
        <time>2022-08-27T14:26:28Z</time>
      </trkpt>
      <trkpt lat="43.440287" lon="-4.961902">
        <ele>113.989</ele>
        <time>2022-08-27T14:26:30Z</time>
      </trkpt>
      <trkpt lat="43.440315" lon="-4.961830">
        <ele>113.665</ele>
        <time>2022-08-27T14:26:31Z</time>
      </trkpt>
      <trkpt lat="43.440367" lon="-4.961675">
        <ele>113.159</ele>
        <time>2022-08-27T14:26:33Z</time>
      </trkpt>
      <trkpt lat="43.440389" lon="-4.961597">
        <ele>113.086</ele>
        <time>2022-08-27T14:26:34Z</time>
      </trkpt>
      <trkpt lat="43.440432" lon="-4.961434">
        <ele>112.533</ele>
        <time>2022-08-27T14:26:36Z</time>
      </trkpt>
      <trkpt lat="43.440449" lon="-4.961351">
        <ele>112.419</ele>
        <time>2022-08-27T14:26:37Z</time>
      </trkpt>
      <trkpt lat="43.440479" lon="-4.961189">
        <ele>112.009</ele>
        <time>2022-08-27T14:26:39Z</time>
      </trkpt>
      <trkpt lat="43.440502" lon="-4.961019">
        <ele>111.719</ele>
        <time>2022-08-27T14:26:41Z</time>
      </trkpt>
      <trkpt lat="43.440510" lon="-4.960931">
        <ele>111.509</ele>
        <time>2022-08-27T14:26:42Z</time>
      </trkpt>
      <trkpt lat="43.440515" lon="-4.960844">
        <ele>111.552</ele>
        <time>2022-08-27T14:26:43Z</time>
      </trkpt>
      <trkpt lat="43.440517" lon="-4.960672">
        <ele>111.292</ele>
        <time>2022-08-27T14:26:45Z</time>
      </trkpt>
      <trkpt lat="43.440512" lon="-4.960585">
        <ele>111.293</ele>
        <time>2022-08-27T14:26:46Z</time>
      </trkpt>
      <trkpt lat="43.440509" lon="-4.960503">
        <ele>111.091</ele>
        <time>2022-08-27T14:26:47Z</time>
      </trkpt>
      <trkpt lat="43.440494" lon="-4.960336">
        <ele>110.831</ele>
        <time>2022-08-27T14:26:49Z</time>
      </trkpt>
      <trkpt lat="43.440472" lon="-4.960163">
        <ele>110.387</ele>
        <time>2022-08-27T14:26:51Z</time>
      </trkpt>
      <trkpt lat="43.440459" lon="-4.960076">
        <ele>110.251</ele>
        <time>2022-08-27T14:26:52Z</time>
      </trkpt>
      <trkpt lat="43.440431" lon="-4.959896">
        <ele>110.088</ele>
        <time>2022-08-27T14:26:54Z</time>
      </trkpt>
      <trkpt lat="43.440393" lon="-4.959733">
        <ele>110.195</ele>
        <time>2022-08-27T14:26:56Z</time>
      </trkpt>
      <trkpt lat="43.440371" lon="-4.959653">
        <ele>110.455</ele>
        <time>2022-08-27T14:26:57Z</time>
      </trkpt>
      <trkpt lat="43.440349" lon="-4.959581">
        <ele>110.407</ele>
        <time>2022-08-27T14:26:58Z</time>
      </trkpt>
      <trkpt lat="43.440327" lon="-4.959506">
        <ele>110.917</ele>
        <time>2022-08-27T14:26:59Z</time>
      </trkpt>
      <trkpt lat="43.440279" lon="-4.959363">
        <ele>110.909</ele>
        <time>2022-08-27T14:27:01Z</time>
      </trkpt>
      <trkpt lat="43.440254" lon="-4.959291">
        <ele>110.936</ele>
        <time>2022-08-27T14:27:02Z</time>
      </trkpt>
      <trkpt lat="43.440229" lon="-4.959218">
        <ele>110.986</ele>
        <time>2022-08-27T14:27:03Z</time>
      </trkpt>
      <trkpt lat="43.440204" lon="-4.959145">
        <ele>110.787</ele>
        <time>2022-08-27T14:27:04Z</time>
      </trkpt>
      <trkpt lat="43.440156" lon="-4.958995">
        <ele>110.625</ele>
        <time>2022-08-27T14:27:06Z</time>
      </trkpt>
      <trkpt lat="43.440108" lon="-4.958848">
        <ele>110.715</ele>
        <time>2022-08-27T14:27:08Z</time>
      </trkpt>
      <trkpt lat="43.440081" lon="-4.958778">
        <ele>110.841</ele>
        <time>2022-08-27T14:27:09Z</time>
      </trkpt>
      <trkpt lat="43.440028" lon="-4.958631">
        <ele>111.075</ele>
        <time>2022-08-27T14:27:11Z</time>
      </trkpt>
      <trkpt lat="43.439981" lon="-4.958483">
        <ele>112.142</ele>
        <time>2022-08-27T14:27:13Z</time>
      </trkpt>
      <trkpt lat="43.439964" lon="-4.958415">
        <ele>113.279</ele>
        <time>2022-08-27T14:27:14Z</time>
      </trkpt>
      <trkpt lat="43.439927" lon="-4.958275">
        <ele>114.296</ele>
        <time>2022-08-27T14:27:16Z</time>
      </trkpt>
      <trkpt lat="43.439902" lon="-4.958207">
        <ele>114.231</ele>
        <time>2022-08-27T14:27:17Z</time>
      </trkpt>
      <trkpt lat="43.439865" lon="-4.958057">
        <ele>114.324</ele>
        <time>2022-08-27T14:27:19Z</time>
      </trkpt>
      <trkpt lat="43.439843" lon="-4.957980">
        <ele>115.009</ele>
        <time>2022-08-27T14:27:20Z</time>
      </trkpt>
      <trkpt lat="43.439788" lon="-4.957835">
        <ele>115.950</ele>
        <time>2022-08-27T14:27:22Z</time>
      </trkpt>
      <trkpt lat="43.439741" lon="-4.957692">
        <ele>115.910</ele>
        <time>2022-08-27T14:27:24Z</time>
      </trkpt>
      <trkpt lat="43.439708" lon="-4.957542">
        <ele>115.051</ele>
        <time>2022-08-27T14:27:26Z</time>
      </trkpt>
      <trkpt lat="43.439681" lon="-4.957389">
        <ele>113.879</ele>
        <time>2022-08-27T14:27:28Z</time>
      </trkpt>
      <trkpt lat="43.439658" lon="-4.957237">
        <ele>113.489</ele>
        <time>2022-08-27T14:27:30Z</time>
      </trkpt>
      <trkpt lat="43.439650" lon="-4.957160">
        <ele>113.465</ele>
        <time>2022-08-27T14:27:31Z</time>
      </trkpt>
      <trkpt lat="43.439633" lon="-4.957013">
        <ele>113.459</ele>
        <time>2022-08-27T14:27:33Z</time>
      </trkpt>
      <trkpt lat="43.439616" lon="-4.956865">
        <ele>113.216</ele>
        <time>2022-08-27T14:27:35Z</time>
      </trkpt>
      <trkpt lat="43.439598" lon="-4.956713">
        <ele>113.153</ele>
        <time>2022-08-27T14:27:37Z</time>
      </trkpt>
      <trkpt lat="43.439591" lon="-4.956638">
        <ele>112.944</ele>
        <time>2022-08-27T14:27:38Z</time>
      </trkpt>
      <trkpt lat="43.439574" lon="-4.956493">
        <ele>113.005</ele>
        <time>2022-08-27T14:27:40Z</time>
      </trkpt>
      <trkpt lat="43.439564" lon="-4.956421">
        <ele>112.915</ele>
        <time>2022-08-27T14:27:41Z</time>
      </trkpt>
      <trkpt lat="43.439556" lon="-4.956358">
        <ele>112.909</ele>
        <time>2022-08-27T14:27:42Z</time>
      </trkpt>
      <trkpt lat="43.439541" lon="-4.956233">
        <ele>112.935</ele>
        <time>2022-08-27T14:27:44Z</time>
      </trkpt>
      <trkpt lat="43.439528" lon="-4.956125">
        <ele>112.825</ele>
        <time>2022-08-27T14:27:46Z</time>
      </trkpt>
      <trkpt lat="43.439516" lon="-4.956013">
        <ele>112.746</ele>
        <time>2022-08-27T14:27:48Z</time>
      </trkpt>
      <trkpt lat="43.439504" lon="-4.955905">
        <ele>112.854</ele>
        <time>2022-08-27T14:27:50Z</time>
      </trkpt>
      <trkpt lat="43.439496" lon="-4.955782">
        <ele>112.834</ele>
        <time>2022-08-27T14:27:52Z</time>
      </trkpt>
      <trkpt lat="43.439483" lon="-4.955675">
        <ele>113.110</ele>
        <time>2022-08-27T14:27:54Z</time>
      </trkpt>
      <trkpt lat="43.439466" lon="-4.955585">
        <ele>113.244</ele>
        <time>2022-08-27T14:27:56Z</time>
      </trkpt>
      <trkpt lat="43.439449" lon="-4.955485">
        <ele>113.441</ele>
        <time>2022-08-27T14:27:58Z</time>
      </trkpt>
      <trkpt lat="43.439434" lon="-4.955382">
        <ele>113.988</ele>
        <time>2022-08-27T14:28:00Z</time>
      </trkpt>
      <trkpt lat="43.439424" lon="-4.955289">
        <ele>114.453</ele>
        <time>2022-08-27T14:28:02Z</time>
      </trkpt>
      <trkpt lat="43.439411" lon="-4.955202">
        <ele>114.404</ele>
        <time>2022-08-27T14:28:04Z</time>
      </trkpt>
      <trkpt lat="43.439403" lon="-4.955109">
        <ele>114.514</ele>
        <time>2022-08-27T14:28:06Z</time>
      </trkpt>
      <trkpt lat="43.439391" lon="-4.955009">
        <ele>114.509</ele>
        <time>2022-08-27T14:28:08Z</time>
      </trkpt>
      <trkpt lat="43.439378" lon="-4.954906">
        <ele>114.586</ele>
        <time>2022-08-27T14:28:10Z</time>
      </trkpt>
      <trkpt lat="43.439365" lon="-4.954798">
        <ele>114.426</ele>
        <time>2022-08-27T14:28:12Z</time>
      </trkpt>
      <trkpt lat="43.439352" lon="-4.954686">
        <ele>114.117</ele>
        <time>2022-08-27T14:28:14Z</time>
      </trkpt>
      <trkpt lat="43.439339" lon="-4.954571">
        <ele>113.895</ele>
        <time>2022-08-27T14:28:16Z</time>
      </trkpt>
      <trkpt lat="43.439322" lon="-4.954463">
        <ele>113.515</ele>
        <time>2022-08-27T14:28:18Z</time>
      </trkpt>
      <trkpt lat="43.439315" lon="-4.954401">
        <ele>113.551</ele>
        <time>2022-08-27T14:28:19Z</time>
      </trkpt>
      <trkpt lat="43.439298" lon="-4.954278">
        <ele>112.685</ele>
        <time>2022-08-27T14:28:21Z</time>
      </trkpt>
      <trkpt lat="43.439281" lon="-4.954156">
        <ele>112.312</ele>
        <time>2022-08-27T14:28:23Z</time>
      </trkpt>
      <trkpt lat="43.439263" lon="-4.954034">
        <ele>112.089</ele>
        <time>2022-08-27T14:28:25Z</time>
      </trkpt>
      <trkpt lat="43.439245" lon="-4.953912">
        <ele>111.986</ele>
        <time>2022-08-27T14:28:26Z</time>
      </trkpt>
      <trkpt lat="43.439235" lon="-4.953849">
        <ele>111.960</ele>
        <time>2022-08-27T14:28:28Z</time>
      </trkpt>
      <trkpt lat="43.439227" lon="-4.953787">
        <ele>111.926</ele>
        <time>2022-08-27T14:28:29Z</time>
      </trkpt>
      <trkpt lat="43.439220" lon="-4.953724">
        <ele>111.909</ele>
        <time>2022-08-27T14:28:30Z</time>
      </trkpt>
      <trkpt lat="43.439207" lon="-4.953599">
        <ele>111.939</ele>
        <time>2022-08-27T14:28:32Z</time>
      </trkpt>
      <trkpt lat="43.439192" lon="-4.953476">
        <ele>111.499</ele>
        <time>2022-08-27T14:28:34Z</time>
      </trkpt>
      <trkpt lat="43.439175" lon="-4.953349">
        <ele>111.080</ele>
        <time>2022-08-27T14:28:36Z</time>
      </trkpt>
      <trkpt lat="43.439160" lon="-4.953214">
        <ele>110.968</ele>
        <time>2022-08-27T14:28:38Z</time>
      </trkpt>
      <trkpt lat="43.439150" lon="-4.953151">
        <ele>110.928</ele>
        <time>2022-08-27T14:28:39Z</time>
      </trkpt>
      <trkpt lat="43.439132" lon="-4.953024">
        <ele>111.084</ele>
        <time>2022-08-27T14:28:41Z</time>
      </trkpt>
      <trkpt lat="43.439114" lon="-4.952896">
        <ele>111.058</ele>
        <time>2022-08-27T14:28:43Z</time>
      </trkpt>
      <trkpt lat="43.439107" lon="-4.952828">
        <ele>111.065</ele>
        <time>2022-08-27T14:28:44Z</time>
      </trkpt>
      <trkpt lat="43.439092" lon="-4.952688">
        <ele>111.122</ele>
        <time>2022-08-27T14:28:46Z</time>
      </trkpt>
      <trkpt lat="43.439075" lon="-4.952548">
        <ele>111.447</ele>
        <time>2022-08-27T14:28:48Z</time>
      </trkpt>
      <trkpt lat="43.439058" lon="-4.952413">
        <ele>111.929</ele>
        <time>2022-08-27T14:28:50Z</time>
      </trkpt>
      <trkpt lat="43.439048" lon="-4.952346">
        <ele>111.921</ele>
        <time>2022-08-27T14:28:51Z</time>
      </trkpt>
      <trkpt lat="43.439026" lon="-4.952228">
        <ele>111.909</ele>
        <time>2022-08-27T14:28:53Z</time>
      </trkpt>
      <trkpt lat="43.439018" lon="-4.952166">
        <ele>111.935</ele>
        <time>2022-08-27T14:28:54Z</time>
      </trkpt>
      <trkpt lat="43.439008" lon="-4.952104">
        <ele>111.995</ele>
        <time>2022-08-27T14:28:55Z</time>
      </trkpt>
      <trkpt lat="43.438986" lon="-4.951984">
        <ele>112.126</ele>
        <time>2022-08-27T14:28:57Z</time>
      </trkpt>
      <trkpt lat="43.438969" lon="-4.951924">
        <ele>112.064</ele>
        <time>2022-08-27T14:28:58Z</time>
      </trkpt>
      <trkpt lat="43.438946" lon="-4.951797">
        <ele>112.174</ele>
        <time>2022-08-27T14:29:00Z</time>
      </trkpt>
      <trkpt lat="43.438919" lon="-4.951669">
        <ele>112.220</ele>
        <time>2022-08-27T14:29:02Z</time>
      </trkpt>
      <trkpt lat="43.438907" lon="-4.951604">
        <ele>112.694</ele>
        <time>2022-08-27T14:29:03Z</time>
      </trkpt>
      <trkpt lat="43.438887" lon="-4.951479">
        <ele>113.571</ele>
        <time>2022-08-27T14:29:05Z</time>
      </trkpt>
      <trkpt lat="43.438867" lon="-4.951361">
        <ele>114.068</ele>
        <time>2022-08-27T14:29:07Z</time>
      </trkpt>
      <trkpt lat="43.438852" lon="-4.951244">
        <ele>115.011</ele>
        <time>2022-08-27T14:29:09Z</time>
      </trkpt>
      <trkpt lat="43.438837" lon="-4.951134">
        <ele>115.321</ele>
        <time>2022-08-27T14:29:11Z</time>
      </trkpt>
      <trkpt lat="43.438829" lon="-4.951026">
        <ele>115.403</ele>
        <time>2022-08-27T14:29:13Z</time>
      </trkpt>
      <trkpt lat="43.438816" lon="-4.950916">
        <ele>115.509</ele>
        <time>2022-08-27T14:29:15Z</time>
      </trkpt>
      <trkpt lat="43.438801" lon="-4.950811">
        <ele>115.452</ele>
        <time>2022-08-27T14:29:17Z</time>
      </trkpt>
      <trkpt lat="43.438781" lon="-4.950711">
        <ele>115.452</ele>
        <time>2022-08-27T14:29:19Z</time>
      </trkpt>
      <trkpt lat="43.438769" lon="-4.950611">
        <ele>115.413</ele>
        <time>2022-08-27T14:29:21Z</time>
      </trkpt>
      <trkpt lat="43.438756" lon="-4.950511">
        <ele>115.651</ele>
        <time>2022-08-27T14:29:23Z</time>
      </trkpt>
      <trkpt lat="43.438741" lon="-4.950411">
        <ele>115.791</ele>
        <time>2022-08-27T14:29:25Z</time>
      </trkpt>
      <trkpt lat="43.438726" lon="-4.950308">
        <ele>115.767</ele>
        <time>2022-08-27T14:29:27Z</time>
      </trkpt>
      <trkpt lat="43.438713" lon="-4.950201">
        <ele>116.161</ele>
        <time>2022-08-27T14:29:29Z</time>
      </trkpt>
      <trkpt lat="43.438701" lon="-4.950096">
        <ele>116.968</ele>
        <time>2022-08-27T14:29:31Z</time>
      </trkpt>
      <trkpt lat="43.438689" lon="-4.949993">
        <ele>117.275</ele>
        <time>2022-08-27T14:29:33Z</time>
      </trkpt>
      <trkpt lat="43.438682" lon="-4.949893">
        <ele>117.477</ele>
        <time>2022-08-27T14:29:35Z</time>
      </trkpt>
      <trkpt lat="43.438677" lon="-4.949795">
        <ele>117.461</ele>
        <time>2022-08-27T14:29:37Z</time>
      </trkpt>
      <trkpt lat="43.438670" lon="-4.949698">
        <ele>117.527</ele>
        <time>2022-08-27T14:29:39Z</time>
      </trkpt>
      <trkpt lat="43.438657" lon="-4.949600">
        <ele>117.509</ele>
        <time>2022-08-27T14:29:41Z</time>
      </trkpt>
      <trkpt lat="43.438640" lon="-4.949505">
        <ele>117.788</ele>
        <time>2022-08-27T14:29:43Z</time>
      </trkpt>
      <trkpt lat="43.438630" lon="-4.949415">
        <ele>117.758</ele>
        <time>2022-08-27T14:29:45Z</time>
      </trkpt>
      <trkpt lat="43.438615" lon="-4.949323">
        <ele>117.729</ele>
        <time>2022-08-27T14:29:47Z</time>
      </trkpt>
      <trkpt lat="43.438607" lon="-4.949236">
        <ele>117.717</ele>
        <time>2022-08-27T14:29:49Z</time>
      </trkpt>
      <trkpt lat="43.438594" lon="-4.949154">
        <ele>117.777</ele>
        <time>2022-08-27T14:29:51Z</time>
      </trkpt>
      <trkpt lat="43.438586" lon="-4.949056">
        <ele>117.493</ele>
        <time>2022-08-27T14:29:53Z</time>
      </trkpt>
      <trkpt lat="43.438576" lon="-4.948958">
        <ele>117.457</ele>
        <time>2022-08-27T14:29:55Z</time>
      </trkpt>
      <trkpt lat="43.438563" lon="-4.948863">
        <ele>117.434</ele>
        <time>2022-08-27T14:29:57Z</time>
      </trkpt>
      <trkpt lat="43.438556" lon="-4.948781">
        <ele>117.831</ele>
        <time>2022-08-27T14:29:59Z</time>
      </trkpt>
      <trkpt lat="43.438544" lon="-4.948696">
        <ele>118.177</ele>
        <time>2022-08-27T14:30:01Z</time>
      </trkpt>
      <trkpt lat="43.438532" lon="-4.948609">
        <ele>118.961</ele>
        <time>2022-08-27T14:30:03Z</time>
      </trkpt>
      <trkpt lat="43.438519" lon="-4.948522">
        <ele>119.127</ele>
        <time>2022-08-27T14:30:05Z</time>
      </trkpt>
      <trkpt lat="43.438506" lon="-4.948427">
        <ele>119.509</ele>
        <time>2022-08-27T14:30:07Z</time>
      </trkpt>
      <trkpt lat="43.438489" lon="-4.948335">
        <ele>119.828</ele>
        <time>2022-08-27T14:30:09Z</time>
      </trkpt>
      <trkpt lat="43.438477" lon="-4.948238">
        <ele>120.088</ele>
        <time>2022-08-27T14:30:11Z</time>
      </trkpt>
      <trkpt lat="43.438465" lon="-4.948140">
        <ele>120.279</ele>
        <time>2022-08-27T14:30:13Z</time>
      </trkpt>
      <trkpt lat="43.438453" lon="-4.948047">
        <ele>120.217</ele>
        <time>2022-08-27T14:30:15Z</time>
      </trkpt>
      <trkpt lat="43.438443" lon="-4.947954">
        <ele>120.367</ele>
        <time>2022-08-27T14:30:17Z</time>
      </trkpt>
      <trkpt lat="43.438431" lon="-4.947867">
        <ele>120.543</ele>
        <time>2022-08-27T14:30:19Z</time>
      </trkpt>
      <trkpt lat="43.438414" lon="-4.947789">
        <ele>120.897</ele>
        <time>2022-08-27T14:30:21Z</time>
      </trkpt>
      <trkpt lat="43.438409" lon="-4.947697">
        <ele>121.174</ele>
        <time>2022-08-27T14:30:23Z</time>
      </trkpt>
      <trkpt lat="43.438402" lon="-4.947610">
        <ele>121.431</ele>
        <time>2022-08-27T14:30:25Z</time>
      </trkpt>
      <trkpt lat="43.438392" lon="-4.947517">
        <ele>121.416</ele>
        <time>2022-08-27T14:30:27Z</time>
      </trkpt>
      <trkpt lat="43.438374" lon="-4.947414">
        <ele>121.476</ele>
        <time>2022-08-27T14:30:29Z</time>
      </trkpt>
      <trkpt lat="43.438356" lon="-4.947302">
        <ele>121.313</ele>
        <time>2022-08-27T14:30:31Z</time>
      </trkpt>
      <trkpt lat="43.438338" lon="-4.947190">
        <ele>121.209</ele>
        <time>2022-08-27T14:30:33Z</time>
      </trkpt>
      <trkpt lat="43.438320" lon="-4.947067">
        <ele>121.262</ele>
        <time>2022-08-27T14:30:35Z</time>
      </trkpt>
      <trkpt lat="43.438305" lon="-4.946999">
        <ele>121.552</ele>
        <time>2022-08-27T14:30:36Z</time>
      </trkpt>
      <trkpt lat="43.438280" lon="-4.946854">
        <ele>122.123</ele>
        <time>2022-08-27T14:30:38Z</time>
      </trkpt>
      <trkpt lat="43.438253" lon="-4.946699">
        <ele>122.191</ele>
        <time>2022-08-27T14:30:40Z</time>
      </trkpt>
      <trkpt lat="43.438233" lon="-4.946612">
        <ele>121.771</ele>
        <time>2022-08-27T14:30:41Z</time>
      </trkpt>
      <trkpt lat="43.438211" lon="-4.946515">
        <ele>121.417</ele>
        <time>2022-08-27T14:30:42Z</time>
      </trkpt>
      <trkpt lat="43.438174" lon="-4.946332">
        <ele>120.351</ele>
        <time>2022-08-27T14:30:44Z</time>
      </trkpt>
      <trkpt lat="43.438159" lon="-4.946229">
        <ele>119.638</ele>
        <time>2022-08-27T14:30:45Z</time>
      </trkpt>
      <trkpt lat="43.438139" lon="-4.946117">
        <ele>119.295</ele>
        <time>2022-08-27T14:30:46Z</time>
      </trkpt>
      <trkpt lat="43.438104" lon="-4.945910">
        <ele>118.591</ele>
        <time>2022-08-27T14:30:48Z</time>
      </trkpt>
      <trkpt lat="43.438069" lon="-4.945695">
        <ele>118.081</ele>
        <time>2022-08-27T14:30:50Z</time>
      </trkpt>
      <trkpt lat="43.438049" lon="-4.945593">
        <ele>117.919</ele>
        <time>2022-08-27T14:30:51Z</time>
      </trkpt>
      <trkpt lat="43.438007" lon="-4.945401">
        <ele>117.609</ele>
        <time>2022-08-27T14:30:53Z</time>
      </trkpt>
      <trkpt lat="43.437989" lon="-4.945314">
        <ele>117.170</ele>
        <time>2022-08-27T14:30:54Z</time>
      </trkpt>
      <trkpt lat="43.437949" lon="-4.945131">
        <ele>115.960</ele>
        <time>2022-08-27T14:30:56Z</time>
      </trkpt>
      <trkpt lat="43.437931" lon="-4.945038">
        <ele>115.421</ele>
        <time>2022-08-27T14:30:57Z</time>
      </trkpt>
      <trkpt lat="43.437908" lon="-4.944950">
        <ele>114.949</ele>
        <time>2022-08-27T14:30:58Z</time>
      </trkpt>
      <trkpt lat="43.437860" lon="-4.944765">
        <ele>113.779</ele>
        <time>2022-08-27T14:31:00Z</time>
      </trkpt>
      <trkpt lat="43.437830" lon="-4.944673">
        <ele>113.195</ele>
        <time>2022-08-27T14:31:01Z</time>
      </trkpt>
      <trkpt lat="43.437795" lon="-4.944583">
        <ele>112.789</ele>
        <time>2022-08-27T14:31:02Z</time>
      </trkpt>
      <trkpt lat="43.437710" lon="-4.944415">
        <ele>111.736</ele>
        <time>2022-08-27T14:31:04Z</time>
      </trkpt>
      <trkpt lat="43.437613" lon="-4.944263">
        <ele>111.253</ele>
        <time>2022-08-27T14:31:06Z</time>
      </trkpt>
      <trkpt lat="43.437560" lon="-4.944195">
        <ele>110.992</ele>
        <time>2022-08-27T14:31:07Z</time>
      </trkpt>
      <trkpt lat="43.437443" lon="-4.944068">
        <ele>109.973</ele>
        <time>2022-08-27T14:31:09Z</time>
      </trkpt>
      <trkpt lat="43.437383" lon="-4.944005">
        <ele>109.720</ele>
        <time>2022-08-27T14:31:10Z</time>
      </trkpt>
      <trkpt lat="43.437323" lon="-4.943942">
        <ele>109.409</ele>
        <time>2022-08-27T14:31:11Z</time>
      </trkpt>
      <trkpt lat="43.437200" lon="-4.943820">
        <ele>108.710</ele>
        <time>2022-08-27T14:31:13Z</time>
      </trkpt>
      <trkpt lat="43.437070" lon="-4.943718">
        <ele>108.340</ele>
        <time>2022-08-27T14:31:15Z</time>
      </trkpt>
      <trkpt lat="43.436945" lon="-4.943626">
        <ele>106.871</ele>
        <time>2022-08-27T14:31:17Z</time>
      </trkpt>
      <trkpt lat="43.436818" lon="-4.943543">
        <ele>104.759</ele>
        <time>2022-08-27T14:31:19Z</time>
      </trkpt>
      <trkpt lat="43.436756" lon="-4.943500">
        <ele>103.729</ele>
        <time>2022-08-27T14:31:20Z</time>
      </trkpt>
      <trkpt lat="43.436693" lon="-4.943455">
        <ele>102.755</ele>
        <time>2022-08-27T14:31:21Z</time>
      </trkpt>
      <trkpt lat="43.436563" lon="-4.943368">
        <ele>101.279</ele>
        <time>2022-08-27T14:31:23Z</time>
      </trkpt>
      <trkpt lat="43.436503" lon="-4.943318">
        <ele>100.636</ele>
        <time>2022-08-27T14:31:24Z</time>
      </trkpt>
      <trkpt lat="43.436388" lon="-4.943205">
        <ele>99.693</ele>
        <time>2022-08-27T14:31:26Z</time>
      </trkpt>
      <trkpt lat="43.436276" lon="-4.943082">
        <ele>99.197</ele>
        <time>2022-08-27T14:31:28Z</time>
      </trkpt>
      <trkpt lat="43.436224" lon="-4.943009">
        <ele>98.923</ele>
        <time>2022-08-27T14:31:29Z</time>
      </trkpt>
      <trkpt lat="43.436116" lon="-4.942867">
        <ele>98.025</ele>
        <time>2022-08-27T14:31:31Z</time>
      </trkpt>
      <trkpt lat="43.436064" lon="-4.942794">
        <ele>97.509</ele>
        <time>2022-08-27T14:31:32Z</time>
      </trkpt>
      <trkpt lat="43.435961" lon="-4.942652">
        <ele>97.420</ele>
        <time>2022-08-27T14:31:34Z</time>
      </trkpt>
      <trkpt lat="43.435879" lon="-4.942479">
        <ele>98.380</ele>
        <time>2022-08-27T14:31:36Z</time>
      </trkpt>
      <trkpt lat="43.435809" lon="-4.942294">
        <ele>99.251</ele>
        <time>2022-08-27T14:31:38Z</time>
      </trkpt>
      <trkpt lat="43.435776" lon="-4.942207">
        <ele>99.419</ele>
        <time>2022-08-27T14:31:39Z</time>
      </trkpt>
      <trkpt lat="43.435738" lon="-4.942124">
        <ele>99.599</ele>
        <time>2022-08-27T14:31:40Z</time>
      </trkpt>
      <trkpt lat="43.435700" lon="-4.942047">
        <ele>99.525</ele>
        <time>2022-08-27T14:31:41Z</time>
      </trkpt>
      <trkpt lat="43.435663" lon="-4.941969">
        <ele>99.439</ele>
        <time>2022-08-27T14:31:42Z</time>
      </trkpt>
      <trkpt lat="43.435598" lon="-4.941817">
        <ele>98.926</ele>
        <time>2022-08-27T14:31:44Z</time>
      </trkpt>
      <trkpt lat="43.435566" lon="-4.941740">
        <ele>99.023</ele>
        <time>2022-08-27T14:31:45Z</time>
      </trkpt>
      <trkpt lat="43.435538" lon="-4.941662">
        <ele>99.053</ele>
        <time>2022-08-27T14:31:46Z</time>
      </trkpt>
      <trkpt lat="43.435490" lon="-4.941510">
        <ele>99.704</ele>
        <time>2022-08-27T14:31:48Z</time>
      </trkpt>
      <trkpt lat="43.435467" lon="-4.941438">
        <ele>100.414</ele>
        <time>2022-08-27T14:31:49Z</time>
      </trkpt>
      <trkpt lat="43.435445" lon="-4.941303">
        <ele>102.409</ele>
        <time>2022-08-27T14:31:51Z</time>
      </trkpt>
      <trkpt lat="43.435438" lon="-4.941231">
        <ele>103.176</ele>
        <time>2022-08-27T14:31:52Z</time>
      </trkpt>
      <trkpt lat="43.435435" lon="-4.941081">
        <ele>103.346</ele>
        <time>2022-08-27T14:31:54Z</time>
      </trkpt>
      <trkpt lat="43.435443" lon="-4.940936">
        <ele>103.647</ele>
        <time>2022-08-27T14:31:56Z</time>
      </trkpt>
      <trkpt lat="43.435465" lon="-4.940801">
        <ele>104.085</ele>
        <time>2022-08-27T14:31:58Z</time>
      </trkpt>
      <trkpt lat="43.435478" lon="-4.940736">
        <ele>104.135</ele>
        <time>2022-08-27T14:31:59Z</time>
      </trkpt>
      <trkpt lat="43.435498" lon="-4.940673">
        <ele>104.351</ele>
        <time>2022-08-27T14:32:00Z</time>
      </trkpt>
      <trkpt lat="43.435516" lon="-4.940610">
        <ele>104.525</ele>
        <time>2022-08-27T14:32:01Z</time>
      </trkpt>
      <trkpt lat="43.435534" lon="-4.940550">
        <ele>104.552</ele>
        <time>2022-08-27T14:32:02Z</time>
      </trkpt>
      <trkpt lat="43.435556" lon="-4.940488">
        <ele>104.519</ele>
        <time>2022-08-27T14:32:03Z</time>
      </trkpt>
      <trkpt lat="43.435603" lon="-4.940378">
        <ele>104.389</ele>
        <time>2022-08-27T14:32:05Z</time>
      </trkpt>
      <trkpt lat="43.435631" lon="-4.940323">
        <ele>103.806</ele>
        <time>2022-08-27T14:32:06Z</time>
      </trkpt>
      <trkpt lat="43.435658" lon="-4.940266">
        <ele>103.526</ele>
        <time>2022-08-27T14:32:07Z</time>
      </trkpt>
      <trkpt lat="43.435710" lon="-4.940151">
        <ele>103.409</ele>
        <time>2022-08-27T14:32:09Z</time>
      </trkpt>
      <trkpt lat="43.435760" lon="-4.940039">
        <ele>103.269</ele>
        <time>2022-08-27T14:32:11Z</time>
      </trkpt>
      <trkpt lat="43.435788" lon="-4.939981">
        <ele>103.049</ele>
        <time>2022-08-27T14:32:12Z</time>
      </trkpt>
      <trkpt lat="43.435840" lon="-4.939873">
        <ele>102.980</ele>
        <time>2022-08-27T14:32:14Z</time>
      </trkpt>
      <trkpt lat="43.435868" lon="-4.939818">
        <ele>102.748</ele>
        <time>2022-08-27T14:32:15Z</time>
      </trkpt>
      <trkpt lat="43.435895" lon="-4.939765">
        <ele>102.758</ele>
        <time>2022-08-27T14:32:16Z</time>
      </trkpt>
      <trkpt lat="43.435953" lon="-4.939652">
        <ele>102.984</ele>
        <time>2022-08-27T14:32:18Z</time>
      </trkpt>
      <trkpt lat="43.435980" lon="-4.939600">
        <ele>103.018</ele>
        <time>2022-08-27T14:32:19Z</time>
      </trkpt>
      <trkpt lat="43.436028" lon="-4.939492">
        <ele>103.925</ele>
        <time>2022-08-27T14:32:21Z</time>
      </trkpt>
      <trkpt lat="43.436071" lon="-4.939385">
        <ele>104.272</ele>
        <time>2022-08-27T14:32:23Z</time>
      </trkpt>
      <trkpt lat="43.436098" lon="-4.939332">
        <ele>104.235</ele>
        <time>2022-08-27T14:32:24Z</time>
      </trkpt>
      <trkpt lat="43.436141" lon="-4.939224">
        <ele>104.486</ele>
        <time>2022-08-27T14:32:26Z</time>
      </trkpt>
      <trkpt lat="43.436158" lon="-4.939166">
        <ele>104.514</ele>
        <time>2022-08-27T14:32:27Z</time>
      </trkpt>
      <trkpt lat="43.436175" lon="-4.939108">
        <ele>104.709</ele>
        <time>2022-08-27T14:32:28Z</time>
      </trkpt>
      <trkpt lat="43.436213" lon="-4.939000">
        <ele>104.954</ele>
        <time>2022-08-27T14:32:30Z</time>
      </trkpt>
      <trkpt lat="43.436250" lon="-4.938893">
        <ele>104.974</ele>
        <time>2022-08-27T14:32:32Z</time>
      </trkpt>
      <trkpt lat="43.436293" lon="-4.938788">
        <ele>104.775</ele>
        <time>2022-08-27T14:32:34Z</time>
      </trkpt>
      <trkpt lat="43.436318" lon="-4.938735">
        <ele>104.233</ele>
        <time>2022-08-27T14:32:35Z</time>
      </trkpt>
      <trkpt lat="43.436368" lon="-4.938632">
        <ele>103.273</ele>
        <time>2022-08-27T14:32:37Z</time>
      </trkpt>
      <trkpt lat="43.436418" lon="-4.938530">
        <ele>102.299</ele>
        <time>2022-08-27T14:32:39Z</time>
      </trkpt>
      <trkpt lat="43.436461" lon="-4.938432">
        <ele>102.113</ele>
        <time>2022-08-27T14:32:41Z</time>
      </trkpt>
      <trkpt lat="43.436504" lon="-4.938335">
        <ele>102.190</ele>
        <time>2022-08-27T14:32:43Z</time>
      </trkpt>
      <trkpt lat="43.436546" lon="-4.938237">
        <ele>102.137</ele>
        <time>2022-08-27T14:32:45Z</time>
      </trkpt>
      <trkpt lat="43.436589" lon="-4.938135">
        <ele>102.129</ele>
        <time>2022-08-27T14:32:47Z</time>
      </trkpt>
      <trkpt lat="43.436631" lon="-4.938025">
        <ele>102.200</ele>
        <time>2022-08-27T14:32:49Z</time>
      </trkpt>
      <trkpt lat="43.436673" lon="-4.937915">
        <ele>102.620</ele>
        <time>2022-08-27T14:32:51Z</time>
      </trkpt>
      <trkpt lat="43.436698" lon="-4.937862">
        <ele>102.809</ele>
        <time>2022-08-27T14:32:52Z</time>
      </trkpt>
      <trkpt lat="43.436725" lon="-4.937809">
        <ele>103.053</ele>
        <time>2022-08-27T14:32:53Z</time>
      </trkpt>
      <trkpt lat="43.436745" lon="-4.937751">
        <ele>103.313</ele>
        <time>2022-08-27T14:32:54Z</time>
      </trkpt>
      <trkpt lat="43.436780" lon="-4.937639">
        <ele>103.824</ele>
        <time>2022-08-27T14:32:56Z</time>
      </trkpt>
      <trkpt lat="43.436820" lon="-4.937526">
        <ele>104.112</ele>
        <time>2022-08-27T14:32:58Z</time>
      </trkpt>
      <trkpt lat="43.436860" lon="-4.937416">
        <ele>104.152</ele>
        <time>2022-08-27T14:33:00Z</time>
      </trkpt>
      <trkpt lat="43.436898" lon="-4.937311">
        <ele>104.058</ele>
        <time>2022-08-27T14:33:02Z</time>
      </trkpt>
      <trkpt lat="43.436941" lon="-4.937206">
        <ele>103.832</ele>
        <time>2022-08-27T14:33:04Z</time>
      </trkpt>
      <trkpt lat="43.436981" lon="-4.937096">
        <ele>103.859</ele>
        <time>2022-08-27T14:33:06Z</time>
      </trkpt>
      <trkpt lat="43.437021" lon="-4.936984">
        <ele>103.826</ele>
        <time>2022-08-27T14:33:08Z</time>
      </trkpt>
      <trkpt lat="43.437041" lon="-4.936927">
        <ele>103.816</ele>
        <time>2022-08-27T14:33:09Z</time>
      </trkpt>
      <trkpt lat="43.437076" lon="-4.936817">
        <ele>103.876</ele>
        <time>2022-08-27T14:33:11Z</time>
      </trkpt>
      <trkpt lat="43.437111" lon="-4.936704">
        <ele>103.713</ele>
        <time>2022-08-27T14:33:13Z</time>
      </trkpt>
      <trkpt lat="43.437148" lon="-4.936587">
        <ele>103.109</ele>
        <time>2022-08-27T14:33:15Z</time>
      </trkpt>
      <trkpt lat="43.437170" lon="-4.936532">
        <ele>102.832</ele>
        <time>2022-08-27T14:33:16Z</time>
      </trkpt>
      <trkpt lat="43.437203" lon="-4.936415">
        <ele>102.882</ele>
        <time>2022-08-27T14:33:18Z</time>
      </trkpt>
      <trkpt lat="43.437246" lon="-4.936295">
        <ele>102.823</ele>
        <time>2022-08-27T14:33:20Z</time>
      </trkpt>
      <trkpt lat="43.437269" lon="-4.936233">
        <ele>102.811</ele>
        <time>2022-08-27T14:33:21Z</time>
      </trkpt>
      <trkpt lat="43.437289" lon="-4.936171">
        <ele>103.071</ele>
        <time>2022-08-27T14:33:22Z</time>
      </trkpt>
      <trkpt lat="43.437326" lon="-4.936054">
        <ele>103.997</ele>
        <time>2022-08-27T14:33:24Z</time>
      </trkpt>
      <trkpt lat="43.437371" lon="-4.935937">
        <ele>104.261</ele>
        <time>2022-08-27T14:33:26Z</time>
      </trkpt>
      <trkpt lat="43.437393" lon="-4.935879">
        <ele>104.448</ele>
        <time>2022-08-27T14:33:27Z</time>
      </trkpt>
      <trkpt lat="43.437438" lon="-4.935772">
        <ele>104.935</ele>
        <time>2022-08-27T14:33:29Z</time>
      </trkpt>
      <trkpt lat="43.437488" lon="-4.935679">
        <ele>105.258</ele>
        <time>2022-08-27T14:33:31Z</time>
      </trkpt>
      <trkpt lat="43.437538" lon="-4.935589">
        <ele>105.352</ele>
        <time>2022-08-27T14:33:33Z</time>
      </trkpt>
      <trkpt lat="43.437585" lon="-4.935501">
        <ele>105.317</ele>
        <time>2022-08-27T14:33:35Z</time>
      </trkpt>
      <trkpt lat="43.437632" lon="-4.935414">
        <ele>105.409</ele>
        <time>2022-08-27T14:33:37Z</time>
      </trkpt>
      <trkpt lat="43.437675" lon="-4.935322">
        <ele>105.566</ele>
        <time>2022-08-27T14:33:39Z</time>
      </trkpt>
      <trkpt lat="43.437710" lon="-4.935237">
        <ele>105.986</ele>
        <time>2022-08-27T14:33:41Z</time>
      </trkpt>
      <trkpt lat="43.437743" lon="-4.935165">
        <ele>106.177</ele>
        <time>2022-08-27T14:33:43Z</time>
      </trkpt>
      <trkpt lat="43.437776" lon="-4.935098">
        <ele>106.555</ele>
        <time>2022-08-27T14:33:45Z</time>
      </trkpt>
      <trkpt lat="43.437803" lon="-4.935030">
        <ele>106.835</ele>
        <time>2022-08-27T14:33:47Z</time>
      </trkpt>
      <trkpt lat="43.437820" lon="-4.934960">
        <ele>107.951</ele>
        <time>2022-08-27T14:33:49Z</time>
      </trkpt>
      <trkpt lat="43.437830" lon="-4.934890">
        <ele>108.925</ele>
        <time>2022-08-27T14:33:51Z</time>
      </trkpt>
      <trkpt lat="43.437847" lon="-4.934823">
        <ele>110.592</ele>
        <time>2022-08-27T14:33:53Z</time>
      </trkpt>
      <trkpt lat="43.437862" lon="-4.934748">
        <ele>112.629</ele>
        <time>2022-08-27T14:33:55Z</time>
      </trkpt>
      <trkpt lat="43.437885" lon="-4.934685">
        <ele>114.248</ele>
        <time>2022-08-27T14:33:57Z</time>
      </trkpt>
      <trkpt lat="43.437908" lon="-4.934613">
        <ele>116.461</ele>
        <time>2022-08-27T14:33:59Z</time>
      </trkpt>
      <trkpt lat="43.437923" lon="-4.934535">
        <ele>118.617</ele>
        <time>2022-08-27T14:34:01Z</time>
      </trkpt>
      <trkpt lat="43.437946" lon="-4.934468">
        <ele>119.809</ele>
        <time>2022-08-27T14:34:03Z</time>
      </trkpt>
      <trkpt lat="43.437963" lon="-4.934390">
        <ele>120.885</ele>
        <time>2022-08-27T14:34:05Z</time>
      </trkpt>
      <trkpt lat="43.437983" lon="-4.934302">
        <ele>122.295</ele>
        <time>2022-08-27T14:34:07Z</time>
      </trkpt>
      <trkpt lat="43.438005" lon="-4.934214">
        <ele>123.836</ele>
        <time>2022-08-27T14:34:09Z</time>
      </trkpt>
      <trkpt lat="43.438027" lon="-4.934127">
        <ele>123.954</ele>
        <time>2022-08-27T14:34:11Z</time>
      </trkpt>
      <trkpt lat="43.438040" lon="-4.934050">
        <ele>124.174</ele>
        <time>2022-08-27T14:34:13Z</time>
      </trkpt>
      <trkpt lat="43.438053" lon="-4.933977">
        <ele>124.690</ele>
        <time>2022-08-27T14:34:15Z</time>
      </trkpt>
      <trkpt lat="43.438065" lon="-4.933899">
        <ele>124.954</ele>
        <time>2022-08-27T14:34:17Z</time>
      </trkpt>
      <trkpt lat="43.438077" lon="-4.933816">
        <ele>124.821</ele>
        <time>2022-08-27T14:34:19Z</time>
      </trkpt>
      <trkpt lat="43.438089" lon="-4.933739">
        <ele>124.838</ele>
        <time>2022-08-27T14:34:21Z</time>
      </trkpt>
      <trkpt lat="43.438096" lon="-4.933662">
        <ele>124.274</ele>
        <time>2022-08-27T14:34:23Z</time>
      </trkpt>
      <trkpt lat="43.438101" lon="-4.933589">
        <ele>123.256</ele>
        <time>2022-08-27T14:34:25Z</time>
      </trkpt>
      <trkpt lat="43.438106" lon="-4.933521">
        <ele>122.021</ele>
        <time>2022-08-27T14:34:27Z</time>
      </trkpt>
      <trkpt lat="43.438116" lon="-4.933439">
        <ele>120.409</ele>
        <time>2022-08-27T14:34:29Z</time>
      </trkpt>
      <trkpt lat="43.438131" lon="-4.933361">
        <ele>119.418</ele>
        <time>2022-08-27T14:34:31Z</time>
      </trkpt>
      <trkpt lat="43.438144" lon="-4.933274">
        <ele>119.488</ele>
        <time>2022-08-27T14:34:33Z</time>
      </trkpt>
      <trkpt lat="43.438151" lon="-4.933192">
        <ele>119.429</ele>
        <time>2022-08-27T14:34:35Z</time>
      </trkpt>
      <trkpt lat="43.438164" lon="-4.933114">
        <ele>120.697</ele>
        <time>2022-08-27T14:34:37Z</time>
      </trkpt>
      <trkpt lat="43.438174" lon="-4.933021">
        <ele>120.777</ele>
        <time>2022-08-27T14:34:39Z</time>
      </trkpt>
      <trkpt lat="43.438184" lon="-4.932941">
        <ele>121.323</ele>
        <time>2022-08-27T14:34:41Z</time>
      </trkpt>
      <trkpt lat="43.438192" lon="-4.932868">
        <ele>121.497</ele>
        <time>2022-08-27T14:34:43Z</time>
      </trkpt>
      <trkpt lat="43.438199" lon="-4.932793">
        <ele>121.454</ele>
        <time>2022-08-27T14:34:45Z</time>
      </trkpt>
      <trkpt lat="43.438214" lon="-4.932718">
        <ele>121.471</ele>
        <time>2022-08-27T14:34:47Z</time>
      </trkpt>
      <trkpt lat="43.438221" lon="-4.932643">
        <ele>121.269</ele>
        <time>2022-08-27T14:34:49Z</time>
      </trkpt>
      <trkpt lat="43.438229" lon="-4.932575">
        <ele>120.504</ele>
        <time>2022-08-27T14:34:51Z</time>
      </trkpt>
      <trkpt lat="43.438239" lon="-4.932507">
        <ele>119.924</ele>
        <time>2022-08-27T14:34:53Z</time>
      </trkpt>
      <trkpt lat="43.438252" lon="-4.932432">
        <ele>119.609</ele>
        <time>2022-08-27T14:34:55Z</time>
      </trkpt>
      <trkpt lat="43.438260" lon="-4.932354">
        <ele>119.417</ele>
        <time>2022-08-27T14:34:57Z</time>
      </trkpt>
      <trkpt lat="43.438272" lon="-4.932272">
        <ele>119.337</ele>
        <time>2022-08-27T14:34:59Z</time>
      </trkpt>
      <trkpt lat="43.438284" lon="-4.932195">
        <ele>119.378</ele>
        <time>2022-08-27T14:35:01Z</time>
      </trkpt>
      <trkpt lat="43.438296" lon="-4.932117">
        <ele>119.116</ele>
        <time>2022-08-27T14:35:03Z</time>
      </trkpt>
      <trkpt lat="43.438318" lon="-4.932030">
        <ele>119.066</ele>
        <time>2022-08-27T14:35:05Z</time>
      </trkpt>
      <trkpt lat="43.438330" lon="-4.931947">
        <ele>119.022</ele>
        <time>2022-08-27T14:35:07Z</time>
      </trkpt>
      <trkpt lat="43.438343" lon="-4.931867">
        <ele>119.346</ele>
        <time>2022-08-27T14:35:09Z</time>
      </trkpt>
      <trkpt lat="43.438361" lon="-4.931779">
        <ele>119.413</ele>
        <time>2022-08-27T14:35:11Z</time>
      </trkpt>
      <trkpt lat="43.438374" lon="-4.931694">
        <ele>119.520</ele>
        <time>2022-08-27T14:35:13Z</time>
      </trkpt>
      <trkpt lat="43.438392" lon="-4.931606">
        <ele>119.856</ele>
        <time>2022-08-27T14:35:15Z</time>
      </trkpt>
      <trkpt lat="43.438410" lon="-4.931518">
        <ele>120.459</ele>
        <time>2022-08-27T14:35:17Z</time>
      </trkpt>
      <trkpt lat="43.438420" lon="-4.931431">
        <ele>121.314</ele>
        <time>2022-08-27T14:35:19Z</time>
      </trkpt>
      <trkpt lat="43.438427" lon="-4.931339">
        <ele>122.009</ele>
        <time>2022-08-27T14:35:21Z</time>
      </trkpt>
      <trkpt lat="43.438439" lon="-4.931226">
        <ele>122.186</ele>
        <time>2022-08-27T14:35:23Z</time>
      </trkpt>
      <trkpt lat="43.438459" lon="-4.931113">
        <ele>121.566</ele>
        <time>2022-08-27T14:35:25Z</time>
      </trkpt>
      <trkpt lat="43.438479" lon="-4.930990">
        <ele>120.727</ele>
        <time>2022-08-27T14:35:27Z</time>
      </trkpt>
      <trkpt lat="43.438491" lon="-4.930923">
        <ele>120.645</ele>
        <time>2022-08-27T14:35:28Z</time>
      </trkpt>
      <trkpt lat="43.438509" lon="-4.930786">
        <ele>120.575</ele>
        <time>2022-08-27T14:35:30Z</time>
      </trkpt>
      <trkpt lat="43.438537" lon="-4.930649">
        <ele>120.021</ele>
        <time>2022-08-27T14:35:32Z</time>
      </trkpt>
      <trkpt lat="43.438557" lon="-4.930502">
        <ele>119.815</ele>
        <time>2022-08-27T14:35:34Z</time>
      </trkpt>
      <trkpt lat="43.438567" lon="-4.930427">
        <ele>119.562</ele>
        <time>2022-08-27T14:35:35Z</time>
      </trkpt>
      <trkpt lat="43.438589" lon="-4.930280">
        <ele>118.929</ele>
        <time>2022-08-27T14:35:37Z</time>
      </trkpt>
      <trkpt lat="43.438611" lon="-4.930132">
        <ele>118.668</ele>
        <time>2022-08-27T14:35:39Z</time>
      </trkpt>
      <trkpt lat="43.438626" lon="-4.930054">
        <ele>118.242</ele>
        <time>2022-08-27T14:35:40Z</time>
      </trkpt>
      <trkpt lat="43.438658" lon="-4.929887">
        <ele>117.726</ele>
        <time>2022-08-27T14:35:42Z</time>
      </trkpt>
      <trkpt lat="43.438668" lon="-4.929809">
        <ele>117.709</ele>
        <time>2022-08-27T14:35:43Z</time>
      </trkpt>
      <trkpt lat="43.438680" lon="-4.929731">
        <ele>117.517</ele>
        <time>2022-08-27T14:35:44Z</time>
      </trkpt>
      <trkpt lat="43.438708" lon="-4.929556">
        <ele>116.917</ele>
        <time>2022-08-27T14:35:46Z</time>
      </trkpt>
      <trkpt lat="43.438736" lon="-4.929376">
        <ele>115.968</ele>
        <time>2022-08-27T14:35:48Z</time>
      </trkpt>
      <trkpt lat="43.438751" lon="-4.929279">
        <ele>115.516</ele>
        <time>2022-08-27T14:35:49Z</time>
      </trkpt>
      <trkpt lat="43.438781" lon="-4.929082">
        <ele>114.676</ele>
        <time>2022-08-27T14:35:51Z</time>
      </trkpt>
      <trkpt lat="43.438813" lon="-4.928880">
        <ele>114.182</ele>
        <time>2022-08-27T14:35:53Z</time>
      </trkpt>
      <trkpt lat="43.438828" lon="-4.928773">
        <ele>113.816</ele>
        <time>2022-08-27T14:35:54Z</time>
      </trkpt>
      <trkpt lat="43.438845" lon="-4.928668">
        <ele>113.583</ele>
        <time>2022-08-27T14:35:55Z</time>
      </trkpt>
      <trkpt lat="43.438875" lon="-4.928461">
        <ele>113.490</ele>
        <time>2022-08-27T14:35:57Z</time>
      </trkpt>
      <trkpt lat="43.438908" lon="-4.928259">
        <ele>112.757</ele>
        <time>2022-08-27T14:35:59Z</time>
      </trkpt>
      <trkpt lat="43.438940" lon="-4.928051">
        <ele>112.700</ele>
        <time>2022-08-27T14:36:01Z</time>
      </trkpt>
      <trkpt lat="43.438977" lon="-4.927841">
        <ele>113.420</ele>
        <time>2022-08-27T14:36:03Z</time>
      </trkpt>
      <trkpt lat="43.439014" lon="-4.927624">
        <ele>113.409</ele>
        <time>2022-08-27T14:36:05Z</time>
      </trkpt>
      <trkpt lat="43.439039" lon="-4.927521">
        <ele>113.226</ele>
        <time>2022-08-27T14:36:06Z</time>
      </trkpt>
      <trkpt lat="43.439112" lon="-4.927324">
        <ele>112.786</ele>
        <time>2022-08-27T14:36:08Z</time>
      </trkpt>
      <trkpt lat="43.439162" lon="-4.927232">
        <ele>112.587</ele>
        <time>2022-08-27T14:36:09Z</time>
      </trkpt>
      <trkpt lat="43.439279" lon="-4.927084">
        <ele>111.915</ele>
        <time>2022-08-27T14:36:11Z</time>
      </trkpt>
      <trkpt lat="43.439344" lon="-4.927022">
        <ele>111.715</ele>
        <time>2022-08-27T14:36:12Z</time>
      </trkpt>
      <trkpt lat="43.439401" lon="-4.926964">
        <ele>111.611</ele>
        <time>2022-08-27T14:36:13Z</time>
      </trkpt>
      <trkpt lat="43.439544" lon="-4.926872">
        <ele>111.355</ele>
        <time>2022-08-27T14:36:15Z</time>
      </trkpt>
      <trkpt lat="43.439617" lon="-4.926812">
        <ele>111.152</ele>
        <time>2022-08-27T14:36:16Z</time>
      </trkpt>
      <trkpt lat="43.439690" lon="-4.926759">
        <ele>110.729</ele>
        <time>2022-08-27T14:36:17Z</time>
      </trkpt>
      <trkpt lat="43.439835" lon="-4.926651">
        <ele>110.439</ele>
        <time>2022-08-27T14:36:19Z</time>
      </trkpt>
      <trkpt lat="43.439980" lon="-4.926543">
        <ele>109.801</ele>
        <time>2022-08-27T14:36:21Z</time>
      </trkpt>
      <trkpt lat="43.440048" lon="-4.926485">
        <ele>109.621</ele>
        <time>2022-08-27T14:36:22Z</time>
      </trkpt>
      <trkpt lat="43.440190" lon="-4.926378">
        <ele>108.809</ele>
        <time>2022-08-27T14:36:24Z</time>
      </trkpt>
      <trkpt lat="43.440330" lon="-4.926276">
        <ele>108.294</ele>
        <time>2022-08-27T14:36:26Z</time>
      </trkpt>
      <trkpt lat="43.440465" lon="-4.926174">
        <ele>108.044</ele>
        <time>2022-08-27T14:36:28Z</time>
      </trkpt>
      <trkpt lat="43.440587" lon="-4.926037">
        <ele>107.315</ele>
        <time>2022-08-27T14:36:30Z</time>
      </trkpt>
      <trkpt lat="43.440637" lon="-4.925957">
        <ele>106.853</ele>
        <time>2022-08-27T14:36:31Z</time>
      </trkpt>
      <trkpt lat="43.440720" lon="-4.925787">
        <ele>106.143</ele>
        <time>2022-08-27T14:36:33Z</time>
      </trkpt>
      <trkpt lat="43.440760" lon="-4.925705">
        <ele>105.459</ele>
        <time>2022-08-27T14:36:34Z</time>
      </trkpt>
      <trkpt lat="43.440825" lon="-4.925532">
        <ele>104.233</ele>
        <time>2022-08-27T14:36:36Z</time>
      </trkpt>
      <trkpt lat="43.440882" lon="-4.925354">
        <ele>103.290</ele>
        <time>2022-08-27T14:36:38Z</time>
      </trkpt>
      <trkpt lat="43.440925" lon="-4.925172">
        <ele>102.227</ele>
        <time>2022-08-27T14:36:40Z</time>
      </trkpt>
      <trkpt lat="43.440960" lon="-4.924994">
        <ele>101.718</ele>
        <time>2022-08-27T14:36:42Z</time>
      </trkpt>
      <trkpt lat="43.440983" lon="-4.924811">
        <ele>101.398</ele>
        <time>2022-08-27T14:36:44Z</time>
      </trkpt>
      <trkpt lat="43.440998" lon="-4.924716">
        <ele>101.117</ele>
        <time>2022-08-27T14:36:45Z</time>
      </trkpt>
      <trkpt lat="43.441011" lon="-4.924626">
        <ele>101.009</ele>
        <time>2022-08-27T14:36:46Z</time>
      </trkpt>
      <trkpt lat="43.441024" lon="-4.924538">
        <ele>101.072</ele>
        <time>2022-08-27T14:36:47Z</time>
      </trkpt>
      <trkpt lat="43.441041" lon="-4.924366">
        <ele>101.012</ele>
        <time>2022-08-27T14:36:49Z</time>
      </trkpt>
      <trkpt lat="43.441049" lon="-4.924284">
        <ele>101.043</ele>
        <time>2022-08-27T14:36:50Z</time>
      </trkpt>
      <trkpt lat="43.441081" lon="-4.924131">
        <ele>101.041</ele>
        <time>2022-08-27T14:36:52Z</time>
      </trkpt>
      <trkpt lat="43.441129" lon="-4.923979">
        <ele>101.111</ele>
        <time>2022-08-27T14:36:54Z</time>
      </trkpt>
      <trkpt lat="43.441187" lon="-4.923836">
        <ele>102.037</ele>
        <time>2022-08-27T14:36:56Z</time>
      </trkpt>
      <trkpt lat="43.441220" lon="-4.923771">
        <ele>102.151</ele>
        <time>2022-08-27T14:36:57Z</time>
      </trkpt>
      <trkpt lat="43.441297" lon="-4.923658">
        <ele>102.428</ele>
        <time>2022-08-27T14:36:59Z</time>
      </trkpt>
      <trkpt lat="43.441334" lon="-4.923601">
        <ele>102.935</ele>
        <time>2022-08-27T14:37:00Z</time>
      </trkpt>
      <trkpt lat="43.441404" lon="-4.923494">
        <ele>104.133</ele>
        <time>2022-08-27T14:37:02Z</time>
      </trkpt>
      <trkpt lat="43.441441" lon="-4.923446">
        <ele>104.623</ele>
        <time>2022-08-27T14:37:03Z</time>
      </trkpt>
      <trkpt lat="43.441518" lon="-4.923353">
        <ele>105.215</ele>
        <time>2022-08-27T14:37:05Z</time>
      </trkpt>
      <trkpt lat="43.441556" lon="-4.923305">
        <ele>105.509</ele>
        <time>2022-08-27T14:37:06Z</time>
      </trkpt>
      <trkpt lat="43.441641" lon="-4.923218">
        <ele>105.974</ele>
        <time>2022-08-27T14:37:08Z</time>
      </trkpt>
      <trkpt lat="43.441683" lon="-4.923175">
        <ele>105.954</ele>
        <time>2022-08-27T14:37:09Z</time>
      </trkpt>
      <trkpt lat="43.441761" lon="-4.923083">
        <ele>105.745</ele>
        <time>2022-08-27T14:37:11Z</time>
      </trkpt>
      <trkpt lat="43.441839" lon="-4.922996">
        <ele>104.963</ele>
        <time>2022-08-27T14:37:13Z</time>
      </trkpt>
      <trkpt lat="43.441877" lon="-4.922954">
        <ele>104.053</ele>
        <time>2022-08-27T14:37:14Z</time>
      </trkpt>
      <trkpt lat="43.441952" lon="-4.922857">
        <ele>101.699</ele>
        <time>2022-08-27T14:37:16Z</time>
      </trkpt>
      <trkpt lat="43.442025" lon="-4.922747">
        <ele>99.433</ele>
        <time>2022-08-27T14:37:18Z</time>
      </trkpt>
      <trkpt lat="43.442063" lon="-4.922694">
        <ele>98.930</ele>
        <time>2022-08-27T14:37:19Z</time>
      </trkpt>
      <trkpt lat="43.442133" lon="-4.922581">
        <ele>98.287</ele>
        <time>2022-08-27T14:37:21Z</time>
      </trkpt>
      <trkpt lat="43.442170" lon="-4.922523">
        <ele>97.536</ele>
        <time>2022-08-27T14:37:22Z</time>
      </trkpt>
      <trkpt lat="43.442237" lon="-4.922410">
        <ele>97.017</ele>
        <time>2022-08-27T14:37:24Z</time>
      </trkpt>
      <trkpt lat="43.442307" lon="-4.922285">
        <ele>96.318</ele>
        <time>2022-08-27T14:37:26Z</time>
      </trkpt>
      <trkpt lat="43.442340" lon="-4.922223">
        <ele>96.309</ele>
        <time>2022-08-27T14:37:27Z</time>
      </trkpt>
      <trkpt lat="43.442372" lon="-4.922161">
        <ele>96.684</ele>
        <time>2022-08-27T14:37:28Z</time>
      </trkpt>
      <trkpt lat="43.442435" lon="-4.922038">
        <ele>96.784</ele>
        <time>2022-08-27T14:37:30Z</time>
      </trkpt>
      <trkpt lat="43.442500" lon="-4.921915">
        <ele>97.325</ele>
        <time>2022-08-27T14:37:32Z</time>
      </trkpt>
      <trkpt lat="43.442528" lon="-4.921850">
        <ele>97.693</ele>
        <time>2022-08-27T14:37:33Z</time>
      </trkpt>
      <trkpt lat="43.442546" lon="-4.921783">
        <ele>97.933</ele>
        <time>2022-08-27T14:37:34Z</time>
      </trkpt>
      <trkpt lat="43.442583" lon="-4.921640">
        <ele>98.059</ele>
        <time>2022-08-27T14:37:36Z</time>
      </trkpt>
      <trkpt lat="43.442608" lon="-4.921492">
        <ele>98.053</ele>
        <time>2022-08-27T14:37:38Z</time>
      </trkpt>
      <trkpt lat="43.442621" lon="-4.921342">
        <ele>98.170</ele>
        <time>2022-08-27T14:37:40Z</time>
      </trkpt>
      <trkpt lat="43.442629" lon="-4.921189">
        <ele>98.267</ele>
        <time>2022-08-27T14:37:42Z</time>
      </trkpt>
      <trkpt lat="43.442632" lon="-4.921114">
        <ele>98.265</ele>
        <time>2022-08-27T14:37:43Z</time>
      </trkpt>
      <trkpt lat="43.442642" lon="-4.921037">
        <ele>98.368</ele>
        <time>2022-08-27T14:37:44Z</time>
      </trkpt>
      <trkpt lat="43.442657" lon="-4.920870">
        <ele>98.614</ele>
        <time>2022-08-27T14:37:45Z</time>
      </trkpt>
      <trkpt lat="43.442665" lon="-4.920785">
        <ele>98.609</ele>
        <time>2022-08-27T14:37:47Z</time>
      </trkpt>
      <trkpt lat="43.442673" lon="-4.920697">
        <ele>98.137</ele>
        <time>2022-08-27T14:37:48Z</time>
      </trkpt>
      <trkpt lat="43.442683" lon="-4.920609">
        <ele>97.767</ele>
        <time>2022-08-27T14:37:49Z</time>
      </trkpt>
      <trkpt lat="43.442698" lon="-4.920432">
        <ele>97.168</ele>
        <time>2022-08-27T14:37:51Z</time>
      </trkpt>
      <trkpt lat="43.442706" lon="-4.920340">
        <ele>96.646</ele>
        <time>2022-08-27T14:37:52Z</time>
      </trkpt>
      <trkpt lat="43.442718" lon="-4.920157">
        <ele>95.516</ele>
        <time>2022-08-27T14:37:54Z</time>
      </trkpt>
      <trkpt lat="43.442728" lon="-4.920067">
        <ele>94.932</ele>
        <time>2022-08-27T14:37:55Z</time>
      </trkpt>
      <trkpt lat="43.442746" lon="-4.919882">
        <ele>94.336</ele>
        <time>2022-08-27T14:37:57Z</time>
      </trkpt>
      <trkpt lat="43.442759" lon="-4.919789">
        <ele>93.943</ele>
        <time>2022-08-27T14:37:58Z</time>
      </trkpt>
      <trkpt lat="43.442769" lon="-4.919694">
        <ele>93.660</ele>
        <time>2022-08-27T14:37:59Z</time>
      </trkpt>
      <trkpt lat="43.442782" lon="-4.919516">
        <ele>93.086</ele>
        <time>2022-08-27T14:38:01Z</time>
      </trkpt>
      <trkpt lat="43.442792" lon="-4.919346">
        <ele>92.960</ele>
        <time>2022-08-27T14:38:03Z</time>
      </trkpt>
      <trkpt lat="43.442795" lon="-4.919186">
        <ele>93.026</ele>
        <time>2022-08-27T14:38:05Z</time>
      </trkpt>
      <trkpt lat="43.442797" lon="-4.919111">
        <ele>93.209</ele>
        <time>2022-08-27T14:38:06Z</time>
      </trkpt>
      <trkpt lat="43.442792" lon="-4.918961">
        <ele>93.799</ele>
        <time>2022-08-27T14:38:08Z</time>
      </trkpt>
      <trkpt lat="43.442792" lon="-4.918809">
        <ele>94.089</ele>
        <time>2022-08-27T14:38:10Z</time>
      </trkpt>
      <trkpt lat="43.442792" lon="-4.918734">
        <ele>94.230</ele>
        <time>2022-08-27T14:38:11Z</time>
      </trkpt>
      <trkpt lat="43.442794" lon="-4.918659">
        <ele>94.278</ele>
        <time>2022-08-27T14:38:12Z</time>
      </trkpt>
      <trkpt lat="43.442792" lon="-4.918511">
        <ele>94.228</ele>
        <time>2022-08-27T14:38:14Z</time>
      </trkpt>
      <trkpt lat="43.442789" lon="-4.918358">
        <ele>94.234</ele>
        <time>2022-08-27T14:38:16Z</time>
      </trkpt>
      <trkpt lat="43.442784" lon="-4.918276">
        <ele>94.268</ele>
        <time>2022-08-27T14:38:17Z</time>
      </trkpt>
      <trkpt lat="43.442769" lon="-4.918189">
        <ele>94.075</ele>
        <time>2022-08-27T14:38:18Z</time>
      </trkpt>
      <trkpt lat="43.442724" lon="-4.918009">
        <ele>93.472</ele>
        <time>2022-08-27T14:38:20Z</time>
      </trkpt>
      <trkpt lat="43.442697" lon="-4.917919">
        <ele>93.089</ele>
        <time>2022-08-27T14:38:21Z</time>
      </trkpt>
      <trkpt lat="43.442665" lon="-4.917829">
        <ele>92.806</ele>
        <time>2022-08-27T14:38:22Z</time>
      </trkpt>
      <trkpt lat="43.442595" lon="-4.917631">
        <ele>91.326</ele>
        <time>2022-08-27T14:38:24Z</time>
      </trkpt>
      <trkpt lat="43.442517" lon="-4.917431">
        <ele>89.709</ele>
        <time>2022-08-27T14:38:26Z</time>
      </trkpt>
      <trkpt lat="43.442437" lon="-4.917221">
        <ele>88.329</ele>
        <time>2022-08-27T14:38:28Z</time>
      </trkpt>
      <trkpt lat="43.442364" lon="-4.917001">
        <ele>86.729</ele>
        <time>2022-08-27T14:38:30Z</time>
      </trkpt>
      <trkpt lat="43.442334" lon="-4.916886">
        <ele>86.250</ele>
        <time>2022-08-27T14:38:31Z</time>
      </trkpt>
      <trkpt lat="43.442312" lon="-4.916766">
        <ele>85.898</ele>
        <time>2022-08-27T14:38:32Z</time>
      </trkpt>
      <trkpt lat="43.442287" lon="-4.916523">
        <ele>85.058</ele>
        <time>2022-08-27T14:38:34Z</time>
      </trkpt>
      <trkpt lat="43.442282" lon="-4.916285">
        <ele>83.944</ele>
        <time>2022-08-27T14:38:36Z</time>
      </trkpt>
      <trkpt lat="43.442285" lon="-4.916162">
        <ele>83.338</ele>
        <time>2022-08-27T14:38:37Z</time>
      </trkpt>
      <trkpt lat="43.442283" lon="-4.915922">
        <ele>82.675</ele>
        <time>2022-08-27T14:38:39Z</time>
      </trkpt>
      <trkpt lat="43.442280" lon="-4.915807">
        <ele>82.242</ele>
        <time>2022-08-27T14:38:40Z</time>
      </trkpt>
      <trkpt lat="43.442278" lon="-4.915694">
        <ele>81.988</ele>
        <time>2022-08-27T14:38:41Z</time>
      </trkpt>
      <trkpt lat="43.442278" lon="-4.915586">
        <ele>81.724</ele>
        <time>2022-08-27T14:38:42Z</time>
      </trkpt>
      <trkpt lat="43.442276" lon="-4.915379">
        <ele>81.226</ele>
        <time>2022-08-27T14:38:44Z</time>
      </trkpt>
      <trkpt lat="43.442276" lon="-4.915277">
        <ele>81.209</ele>
        <time>2022-08-27T14:38:45Z</time>
      </trkpt>
      <trkpt lat="43.442274" lon="-4.915179">
        <ele>81.169</ele>
        <time>2022-08-27T14:38:46Z</time>
      </trkpt>
      <trkpt lat="43.442272" lon="-4.914982">
        <ele>81.269</ele>
        <time>2022-08-27T14:38:48Z</time>
      </trkpt>
      <trkpt lat="43.442267" lon="-4.914790">
        <ele>80.970</ele>
        <time>2022-08-27T14:38:50Z</time>
      </trkpt>
      <trkpt lat="43.442264" lon="-4.914695">
        <ele>80.738</ele>
        <time>2022-08-27T14:38:51Z</time>
      </trkpt>
      <trkpt lat="43.442264" lon="-4.914597">
        <ele>80.668</ele>
        <time>2022-08-27T14:38:52Z</time>
      </trkpt>
      <trkpt lat="43.442261" lon="-4.914405">
        <ele>80.574</ele>
        <time>2022-08-27T14:38:54Z</time>
      </trkpt>
      <trkpt lat="43.442261" lon="-4.914310">
        <ele>80.468</ele>
        <time>2022-08-27T14:38:55Z</time>
      </trkpt>
      <trkpt lat="43.442261" lon="-4.914120">
        <ele>80.235</ele>
        <time>2022-08-27T14:38:57Z</time>
      </trkpt>
      <trkpt lat="43.442261" lon="-4.914025">
        <ele>80.142</ele>
        <time>2022-08-27T14:38:58Z</time>
      </trkpt>
      <trkpt lat="43.442259" lon="-4.913932">
        <ele>80.178</ele>
        <time>2022-08-27T14:38:59Z</time>
      </trkpt>
      <trkpt lat="43.442251" lon="-4.913745">
        <ele>79.433</ele>
        <time>2022-08-27T14:39:01Z</time>
      </trkpt>
      <trkpt lat="43.442251" lon="-4.913652">
        <ele>78.926</ele>
        <time>2022-08-27T14:39:02Z</time>
      </trkpt>
      <trkpt lat="43.442246" lon="-4.913462">
        <ele>77.909</ele>
        <time>2022-08-27T14:39:04Z</time>
      </trkpt>
      <trkpt lat="43.442241" lon="-4.913274">
        <ele>77.798</ele>
        <time>2022-08-27T14:39:06Z</time>
      </trkpt>
      <trkpt lat="43.442244" lon="-4.913184">
        <ele>78.038</ele>
        <time>2022-08-27T14:39:07Z</time>
      </trkpt>
      <trkpt lat="43.442247" lon="-4.913006">
        <ele>78.249</ele>
        <time>2022-08-27T14:39:09Z</time>
      </trkpt>
      <trkpt lat="43.442244" lon="-4.912833">
        <ele>78.397</ele>
        <time>2022-08-27T14:39:11Z</time>
      </trkpt>
      <trkpt lat="43.442242" lon="-4.912750">
        <ele>78.347</ele>
        <time>2022-08-27T14:39:12Z</time>
      </trkpt>
      <trkpt lat="43.442240" lon="-4.912587">
        <ele>78.393</ele>
        <time>2022-08-27T14:39:14Z</time>
      </trkpt>
      <trkpt lat="43.442237" lon="-4.912437">
        <ele>78.187</ele>
        <time>2022-08-27T14:39:16Z</time>
      </trkpt>
      <trkpt lat="43.442234" lon="-4.912292">
        <ele>77.924</ele>
        <time>2022-08-27T14:39:18Z</time>
      </trkpt>
      <trkpt lat="43.442232" lon="-4.912217">
        <ele>77.911</ele>
        <time>2022-08-27T14:39:19Z</time>
      </trkpt>
      <trkpt lat="43.442232" lon="-4.912064">
        <ele>78.031</ele>
        <time>2022-08-27T14:39:21Z</time>
      </trkpt>
      <trkpt lat="43.442225" lon="-4.911984">
        <ele>78.061</ele>
        <time>2022-08-27T14:39:22Z</time>
      </trkpt>
      <trkpt lat="43.442220" lon="-4.911819">
        <ele>77.707</ele>
        <time>2022-08-27T14:39:24Z</time>
      </trkpt>
      <trkpt lat="43.442215" lon="-4.911647">
        <ele>77.409</ele>
        <time>2022-08-27T14:39:26Z</time>
      </trkpt>
      <trkpt lat="43.442215" lon="-4.911477">
        <ele>77.424</ele>
        <time>2022-08-27T14:39:28Z</time>
      </trkpt>
      <trkpt lat="43.442218" lon="-4.911305">
        <ele>77.794</ele>
        <time>2022-08-27T14:39:30Z</time>
      </trkpt>
      <trkpt lat="43.442218" lon="-4.911220">
        <ele>77.955</ele>
        <time>2022-08-27T14:39:31Z</time>
      </trkpt>
      <trkpt lat="43.442220" lon="-4.911137">
        <ele>78.383</ele>
        <time>2022-08-27T14:39:32Z</time>
      </trkpt>
      <trkpt lat="43.442218" lon="-4.910985">
        <ele>78.853</ele>
        <time>2022-08-27T14:39:34Z</time>
      </trkpt>
      <trkpt lat="43.442215" lon="-4.910840">
        <ele>79.029</ele>
        <time>2022-08-27T14:39:36Z</time>
      </trkpt>
      <trkpt lat="43.442212" lon="-4.910775">
        <ele>79.013</ele>
        <time>2022-08-27T14:39:37Z</time>
      </trkpt>
      <trkpt lat="43.442212" lon="-4.910643">
        <ele>79.010</ele>
        <time>2022-08-27T14:39:39Z</time>
      </trkpt>
      <trkpt lat="43.442207" lon="-4.910526">
        <ele>79.047</ele>
        <time>2022-08-27T14:39:41Z</time>
      </trkpt>
      <trkpt lat="43.442204" lon="-4.910411">
        <ele>78.932</ele>
        <time>2022-08-27T14:39:43Z</time>
      </trkpt>
      <trkpt lat="43.442206" lon="-4.910293">
        <ele>78.592</ele>
        <time>2022-08-27T14:39:45Z</time>
      </trkpt>
      <trkpt lat="43.442201" lon="-4.910175">
        <ele>78.511</ele>
        <time>2022-08-27T14:39:47Z</time>
      </trkpt>
      <trkpt lat="43.442196" lon="-4.910055">
        <ele>78.609</ele>
        <time>2022-08-27T14:39:49Z</time>
      </trkpt>
      <trkpt lat="43.442194" lon="-4.909937">
        <ele>78.644</ele>
        <time>2022-08-27T14:39:51Z</time>
      </trkpt>
      <trkpt lat="43.442186" lon="-4.909815">
        <ele>77.814</ele>
        <time>2022-08-27T14:39:53Z</time>
      </trkpt>
      <trkpt lat="43.442178" lon="-4.909695">
        <ele>77.355</ele>
        <time>2022-08-27T14:39:55Z</time>
      </trkpt>
      <trkpt lat="43.442171" lon="-4.909583">
        <ele>76.623</ele>
        <time>2022-08-27T14:39:57Z</time>
      </trkpt>
      <trkpt lat="43.442173" lon="-4.909471">
        <ele>76.163</ele>
        <time>2022-08-27T14:39:59Z</time>
      </trkpt>
      <trkpt lat="43.442166" lon="-4.909359">
        <ele>75.719</ele>
        <time>2022-08-27T14:40:01Z</time>
      </trkpt>
      <trkpt lat="43.442169" lon="-4.909244">
        <ele>75.773</ele>
        <time>2022-08-27T14:40:03Z</time>
      </trkpt>
      <trkpt lat="43.442164" lon="-4.909131">
        <ele>75.790</ele>
        <time>2022-08-27T14:40:05Z</time>
      </trkpt>
      <trkpt lat="43.442164" lon="-4.909014">
        <ele>75.797</ele>
        <time>2022-08-27T14:40:06Z</time>
      </trkpt>
      <trkpt lat="43.442164" lon="-4.908902">
        <ele>75.913</ele>
        <time>2022-08-27T14:40:09Z</time>
      </trkpt>
      <trkpt lat="43.442166" lon="-4.908787">
        <ele>75.843</ele>
        <time>2022-08-27T14:40:11Z</time>
      </trkpt>
      <trkpt lat="43.442171" lon="-4.908669">
        <ele>75.807</ele>
        <time>2022-08-27T14:40:13Z</time>
      </trkpt>
      <trkpt lat="43.442178" lon="-4.908552">
        <ele>75.809</ele>
        <time>2022-08-27T14:40:15Z</time>
      </trkpt>
      <trkpt lat="43.442178" lon="-4.908442">
        <ele>76.012</ele>
        <time>2022-08-27T14:40:17Z</time>
      </trkpt>
      <trkpt lat="43.442178" lon="-4.908320">
        <ele>76.172</ele>
        <time>2022-08-27T14:40:19Z</time>
      </trkpt>
      <trkpt lat="43.442175" lon="-4.908200">
        <ele>76.383</ele>
        <time>2022-08-27T14:40:21Z</time>
      </trkpt>
      <trkpt lat="43.442172" lon="-4.908083">
        <ele>76.381</ele>
        <time>2022-08-27T14:40:23Z</time>
      </trkpt>
      <trkpt lat="43.442169" lon="-4.907968">
        <ele>76.221</ele>
        <time>2022-08-27T14:40:25Z</time>
      </trkpt>
      <trkpt lat="43.442162" lon="-4.907855">
        <ele>75.947</ele>
        <time>2022-08-27T14:40:27Z</time>
      </trkpt>
      <trkpt lat="43.442164" lon="-4.907735">
        <ele>75.721</ele>
        <time>2022-08-27T14:40:29Z</time>
      </trkpt>
      <trkpt lat="43.442166" lon="-4.907623">
        <ele>75.698</ele>
        <time>2022-08-27T14:40:31Z</time>
      </trkpt>
      <trkpt lat="43.442164" lon="-4.907511">
        <ele>75.635</ele>
        <time>2022-08-27T14:40:33Z</time>
      </trkpt>
      <trkpt lat="43.442164" lon="-4.907401">
        <ele>76.136</ele>
        <time>2022-08-27T14:40:35Z</time>
      </trkpt>
      <trkpt lat="43.442166" lon="-4.907296">
        <ele>76.817</ele>
        <time>2022-08-27T14:40:37Z</time>
      </trkpt>
      <trkpt lat="43.442159" lon="-4.907191">
        <ele>77.518</ele>
        <time>2022-08-27T14:40:39Z</time>
      </trkpt>
      <trkpt lat="43.442157" lon="-4.907088">
        <ele>78.009</ele>
        <time>2022-08-27T14:40:41Z</time>
      </trkpt>
      <trkpt lat="43.442154" lon="-4.906986">
        <ele>78.664</ele>
        <time>2022-08-27T14:40:43Z</time>
      </trkpt>
      <trkpt lat="43.442156" lon="-4.906883">
        <ele>78.874</ele>
        <time>2022-08-27T14:40:45Z</time>
      </trkpt>
      <trkpt lat="43.442158" lon="-4.906773">
        <ele>78.885</ele>
        <time>2022-08-27T14:40:47Z</time>
      </trkpt>
      <trkpt lat="43.442158" lon="-4.906663">
        <ele>79.173</ele>
        <time>2022-08-27T14:40:49Z</time>
      </trkpt>
      <trkpt lat="43.442155" lon="-4.906558">
        <ele>79.653</ele>
        <time>2022-08-27T14:40:51Z</time>
      </trkpt>
      <trkpt lat="43.442153" lon="-4.906458">
        <ele>80.019</ele>
        <time>2022-08-27T14:40:53Z</time>
      </trkpt>
      <trkpt lat="43.442153" lon="-4.906355">
        <ele>80.153</ele>
        <time>2022-08-27T14:40:55Z</time>
      </trkpt>
      <trkpt lat="43.442151" lon="-4.906248">
        <ele>80.490</ele>
        <time>2022-08-27T14:40:57Z</time>
      </trkpt>
      <trkpt lat="43.442146" lon="-4.906141">
        <ele>80.417</ele>
        <time>2022-08-27T14:40:59Z</time>
      </trkpt>
      <trkpt lat="43.442143" lon="-4.906039">
        <ele>80.456</ele>
        <time>2022-08-27T14:41:01Z</time>
      </trkpt>
      <trkpt lat="43.442140" lon="-4.905937">
        <ele>80.159</ele>
        <time>2022-08-27T14:41:03Z</time>
      </trkpt>
      <trkpt lat="43.442140" lon="-4.905837">
        <ele>80.114</ele>
        <time>2022-08-27T14:41:05Z</time>
      </trkpt>
      <trkpt lat="43.442140" lon="-4.905735">
        <ele>80.109</ele>
        <time>2022-08-27T14:41:07Z</time>
      </trkpt>
      <trkpt lat="43.442142" lon="-4.905648">
        <ele>80.136</ele>
        <time>2022-08-27T14:41:09Z</time>
      </trkpt>
      <trkpt lat="43.442144" lon="-4.905565">
        <ele>80.826</ele>
        <time>2022-08-27T14:41:11Z</time>
      </trkpt>
      <trkpt lat="43.442151" lon="-4.905462">
        <ele>81.827</ele>
        <time>2022-08-27T14:41:13Z</time>
      </trkpt>
      <trkpt lat="43.442151" lon="-4.905355">
        <ele>82.925</ele>
        <time>2022-08-27T14:41:15Z</time>
      </trkpt>
      <trkpt lat="43.442149" lon="-4.905263">
        <ele>83.625</ele>
        <time>2022-08-27T14:41:17Z</time>
      </trkpt>
      <trkpt lat="43.442149" lon="-4.905166">
        <ele>83.811</ele>
        <time>2022-08-27T14:41:19Z</time>
      </trkpt>
      <trkpt lat="43.442144" lon="-4.905081">
        <ele>84.095</ele>
        <time>2022-08-27T14:41:21Z</time>
      </trkpt>
      <trkpt lat="43.442136" lon="-4.904986">
        <ele>84.092</ele>
        <time>2022-08-27T14:41:23Z</time>
      </trkpt>
      <trkpt lat="43.442133" lon="-4.904888">
        <ele>84.279</ele>
        <time>2022-08-27T14:41:25Z</time>
      </trkpt>
      <trkpt lat="43.442131" lon="-4.904790">
        <ele>84.289</ele>
        <time>2022-08-27T14:41:27Z</time>
      </trkpt>
      <trkpt lat="43.442133" lon="-4.904678">
        <ele>84.106</ele>
        <time>2022-08-27T14:41:29Z</time>
      </trkpt>
      <trkpt lat="43.442131" lon="-4.904563">
        <ele>84.026</ele>
        <time>2022-08-27T14:41:31Z</time>
      </trkpt>
      <trkpt lat="43.442131" lon="-4.904450">
        <ele>84.109</ele>
        <time>2022-08-27T14:41:33Z</time>
      </trkpt>
      <trkpt lat="43.442133" lon="-4.904333">
        <ele>84.669</ele>
        <time>2022-08-27T14:41:35Z</time>
      </trkpt>
      <trkpt lat="43.442130" lon="-4.904215">
        <ele>85.189</ele>
        <time>2022-08-27T14:41:37Z</time>
      </trkpt>
      <trkpt lat="43.442125" lon="-4.904152">
        <ele>85.660</ele>
        <time>2022-08-27T14:41:38Z</time>
      </trkpt>
      <trkpt lat="43.442123" lon="-4.904030">
        <ele>86.288</ele>
        <time>2022-08-27T14:41:40Z</time>
      </trkpt>
      <trkpt lat="43.442121" lon="-4.903907">
        <ele>86.478</ele>
        <time>2022-08-27T14:41:42Z</time>
      </trkpt>
      <trkpt lat="43.442126" lon="-4.903795">
        <ele>86.614</ele>
        <time>2022-08-27T14:41:44Z</time>
      </trkpt>
      <trkpt lat="43.442123" lon="-4.903673">
        <ele>86.988</ele>
        <time>2022-08-27T14:41:46Z</time>
      </trkpt>
      <trkpt lat="43.442118" lon="-4.903553">
        <ele>87.845</ele>
        <time>2022-08-27T14:41:48Z</time>
      </trkpt>
      <trkpt lat="43.442115" lon="-4.903433">
        <ele>87.812</ele>
        <time>2022-08-27T14:41:50Z</time>
      </trkpt>
      <trkpt lat="43.442115" lon="-4.903305">
        <ele>87.176</ele>
        <time>2022-08-27T14:41:52Z</time>
      </trkpt>
      <trkpt lat="43.442117" lon="-4.903178">
        <ele>86.490</ele>
        <time>2022-08-27T14:41:54Z</time>
      </trkpt>
      <trkpt lat="43.442119" lon="-4.903113">
        <ele>86.319</ele>
        <time>2022-08-27T14:41:55Z</time>
      </trkpt>
      <trkpt lat="43.442116" lon="-4.902985">
        <ele>86.109</ele>
        <time>2022-08-27T14:41:57Z</time>
      </trkpt>
      <trkpt lat="43.442116" lon="-4.902857">
        <ele>85.598</ele>
        <time>2022-08-27T14:41:59Z</time>
      </trkpt>
      <trkpt lat="43.442109" lon="-4.902732">
        <ele>84.598</ele>
        <time>2022-08-27T14:42:01Z</time>
      </trkpt>
      <trkpt lat="43.442109" lon="-4.902604">
        <ele>84.169</ele>
        <time>2022-08-27T14:42:03Z</time>
      </trkpt>
      <trkpt lat="43.442112" lon="-4.902537">
        <ele>84.127</ele>
        <time>2022-08-27T14:42:04Z</time>
      </trkpt>
      <trkpt lat="43.442114" lon="-4.902409">
        <ele>83.747</ele>
        <time>2022-08-27T14:42:06Z</time>
      </trkpt>
      <trkpt lat="43.442111" lon="-4.902346">
        <ele>83.623</ele>
        <time>2022-08-27T14:42:07Z</time>
      </trkpt>
      <trkpt lat="43.442106" lon="-4.902221">
        <ele>83.467</ele>
        <time>2022-08-27T14:42:09Z</time>
      </trkpt>
      <trkpt lat="43.442101" lon="-4.902089">
        <ele>82.754</ele>
        <time>2022-08-27T14:42:11Z</time>
      </trkpt>
      <trkpt lat="43.442098" lon="-4.902026">
        <ele>82.671</ele>
        <time>2022-08-27T14:42:12Z</time>
      </trkpt>
      <trkpt lat="43.442091" lon="-4.901898">
        <ele>82.595</ele>
        <time>2022-08-27T14:42:14Z</time>
      </trkpt>
      <trkpt lat="43.442084" lon="-4.901778">
        <ele>82.549</ele>
        <time>2022-08-27T14:42:16Z</time>
      </trkpt>
      <trkpt lat="43.442077" lon="-4.901663">
        <ele>82.723</ele>
        <time>2022-08-27T14:42:18Z</time>
      </trkpt>
      <trkpt lat="43.442075" lon="-4.901548">
        <ele>82.709</ele>
        <time>2022-08-27T14:42:20Z</time>
      </trkpt>
      <trkpt lat="43.442077" lon="-4.901430">
        <ele>82.910</ele>
        <time>2022-08-27T14:42:22Z</time>
      </trkpt>
      <trkpt lat="43.442077" lon="-4.901325">
        <ele>83.010</ele>
        <time>2022-08-27T14:42:24Z</time>
      </trkpt>
      <trkpt lat="43.442077" lon="-4.901220">
        <ele>83.161</ele>
        <time>2022-08-27T14:42:26Z</time>
      </trkpt>
      <trkpt lat="43.442077" lon="-4.901115">
        <ele>83.139</ele>
        <time>2022-08-27T14:42:28Z</time>
      </trkpt>
      <trkpt lat="43.442079" lon="-4.901012">
        <ele>83.559</ele>
        <time>2022-08-27T14:42:30Z</time>
      </trkpt>
      <trkpt lat="43.442081" lon="-4.900909">
        <ele>84.165</ele>
        <time>2022-08-27T14:42:31Z</time>
      </trkpt>
      <trkpt lat="43.442083" lon="-4.900812">
        <ele>84.589</ele>
        <time>2022-08-27T14:42:34Z</time>
      </trkpt>
      <trkpt lat="43.442088" lon="-4.900719">
        <ele>85.086</ele>
        <time>2022-08-27T14:42:36Z</time>
      </trkpt>
      <trkpt lat="43.442091" lon="-4.900627">
        <ele>85.983</ele>
        <time>2022-08-27T14:42:38Z</time>
      </trkpt>
      <trkpt lat="43.442104" lon="-4.900530">
        <ele>86.498</ele>
        <time>2022-08-27T14:42:40Z</time>
      </trkpt>
      <trkpt lat="43.442097" lon="-4.900422">
        <ele>86.615</ele>
        <time>2022-08-27T14:42:42Z</time>
      </trkpt>
      <trkpt lat="43.442090" lon="-4.900322">
        <ele>86.226</ele>
        <time>2022-08-27T14:42:44Z</time>
      </trkpt>
      <trkpt lat="43.442083" lon="-4.900225">
        <ele>85.609</ele>
        <time>2022-08-27T14:42:46Z</time>
      </trkpt>
      <trkpt lat="43.442075" lon="-4.900130">
        <ele>85.170</ele>
        <time>2022-08-27T14:42:48Z</time>
      </trkpt>
      <trkpt lat="43.442068" lon="-4.900030">
        <ele>85.170</ele>
        <time>2022-08-27T14:42:50Z</time>
      </trkpt>
      <trkpt lat="43.442063" lon="-4.899932">
        <ele>85.391</ele>
        <time>2022-08-27T14:42:52Z</time>
      </trkpt>
      <trkpt lat="43.442050" lon="-4.899837">
        <ele>85.889</ele>
        <time>2022-08-27T14:42:54Z</time>
      </trkpt>
      <trkpt lat="43.442042" lon="-4.899732">
        <ele>86.149</ele>
        <time>2022-08-27T14:42:56Z</time>
      </trkpt>
      <trkpt lat="43.442034" lon="-4.899625">
        <ele>86.175</ele>
        <time>2022-08-27T14:42:58Z</time>
      </trkpt>
      <trkpt lat="43.442027" lon="-4.899507">
        <ele>86.069</ele>
        <time>2022-08-27T14:43:00Z</time>
      </trkpt>
      <trkpt lat="43.442024" lon="-4.899444">
        <ele>85.976</ele>
        <time>2022-08-27T14:43:01Z</time>
      </trkpt>
      <trkpt lat="43.442021" lon="-4.899381">
        <ele>85.933</ele>
        <time>2022-08-27T14:43:02Z</time>
      </trkpt>
      <trkpt lat="43.442014" lon="-4.899266">
        <ele>86.377</ele>
        <time>2022-08-27T14:43:04Z</time>
      </trkpt>
      <trkpt lat="43.442004" lon="-4.899164">
        <ele>86.361</ele>
        <time>2022-08-27T14:43:06Z</time>
      </trkpt>
      <trkpt lat="43.441992" lon="-4.899069">
        <ele>86.327</ele>
        <time>2022-08-27T14:43:08Z</time>
      </trkpt>
      <trkpt lat="43.441982" lon="-4.898977">
        <ele>85.809</ele>
        <time>2022-08-27T14:43:10Z</time>
      </trkpt>
      <trkpt lat="43.441975" lon="-4.898884">
        <ele>85.278</ele>
        <time>2022-08-27T14:43:12Z</time>
      </trkpt>
      <trkpt lat="43.441967" lon="-4.898786">
        <ele>85.078</ele>
        <time>2022-08-27T14:43:14Z</time>
      </trkpt>
      <trkpt lat="43.441959" lon="-4.898684">
        <ele>84.869</ele>
        <time>2022-08-27T14:43:16Z</time>
      </trkpt>
      <trkpt lat="43.441952" lon="-4.898581">
        <ele>84.677</ele>
        <time>2022-08-27T14:43:18Z</time>
      </trkpt>
      <trkpt lat="43.441942" lon="-4.898471">
        <ele>84.127</ele>
        <time>2022-08-27T14:43:20Z</time>
      </trkpt>
      <trkpt lat="43.441942" lon="-4.898351">
        <ele>83.853</ele>
        <time>2022-08-27T14:43:22Z</time>
      </trkpt>
      <trkpt lat="43.441944" lon="-4.898288">
        <ele>83.847</ele>
        <time>2022-08-27T14:43:23Z</time>
      </trkpt>
      <trkpt lat="43.441949" lon="-4.898225">
        <ele>83.844</ele>
        <time>2022-08-27T14:43:24Z</time>
      </trkpt>
      <trkpt lat="43.441956" lon="-4.898158">
        <ele>83.871</ele>
        <time>2022-08-27T14:43:25Z</time>
      </trkpt>
      <trkpt lat="43.441966" lon="-4.898021">
        <ele>84.597</ele>
        <time>2022-08-27T14:43:26Z</time>
      </trkpt>
      <trkpt lat="43.441966" lon="-4.897844">
        <ele>85.423</ele>
        <time>2022-08-27T14:43:28Z</time>
      </trkpt>
      <trkpt lat="43.441976" lon="-4.897757">
        <ele>85.525</ele>
        <time>2022-08-27T14:43:30Z</time>
      </trkpt>
      <trkpt lat="43.441991" lon="-4.897580">
        <ele>85.109</ele>
        <time>2022-08-27T14:43:32Z</time>
      </trkpt>
      <trkpt lat="43.441994" lon="-4.897405">
        <ele>83.290</ele>
        <time>2022-08-27T14:43:34Z</time>
      </trkpt>
      <trkpt lat="43.441999" lon="-4.897223">
        <ele>81.420</ele>
        <time>2022-08-27T14:43:36Z</time>
      </trkpt>
      <trkpt lat="43.441999" lon="-4.897128">
        <ele>80.841</ele>
        <time>2022-08-27T14:43:37Z</time>
      </trkpt>
      <trkpt lat="43.442001" lon="-4.897036">
        <ele>80.419</ele>
        <time>2022-08-27T14:43:38Z</time>
      </trkpt>
      <trkpt lat="43.442009" lon="-4.896853">
        <ele>79.759</ele>
        <time>2022-08-27T14:43:40Z</time>
      </trkpt>
      <trkpt lat="43.442017" lon="-4.896681">
        <ele>79.455</ele>
        <time>2022-08-27T14:43:42Z</time>
      </trkpt>
      <trkpt lat="43.442020" lon="-4.896596">
        <ele>79.499</ele>
        <time>2022-08-27T14:43:43Z</time>
      </trkpt>
      <trkpt lat="43.442027" lon="-4.896438">
        <ele>79.456</ele>
        <time>2022-08-27T14:43:45Z</time>
      </trkpt>
      <trkpt lat="43.442032" lon="-4.896358">
        <ele>79.453</ele>
        <time>2022-08-27T14:43:46Z</time>
      </trkpt>
      <trkpt lat="43.442034" lon="-4.896211">
        <ele>79.733</ele>
        <time>2022-08-27T14:43:48Z</time>
      </trkpt>
      <trkpt lat="43.442036" lon="-4.896068">
        <ele>80.023</ele>
        <time>2022-08-27T14:43:49Z</time>
      </trkpt>
      <trkpt lat="43.442034" lon="-4.895998">
        <ele>80.115</ele>
        <time>2022-08-27T14:43:51Z</time>
      </trkpt>
      <trkpt lat="43.442032" lon="-4.895935">
        <ele>80.109</ele>
        <time>2022-08-27T14:43:52Z</time>
      </trkpt>
      <trkpt lat="43.442035" lon="-4.895808">
        <ele>80.174</ele>
        <time>2022-08-27T14:43:54Z</time>
      </trkpt>
      <trkpt lat="43.442037" lon="-4.895743">
        <ele>80.164</ele>
        <time>2022-08-27T14:43:55Z</time>
      </trkpt>
      <trkpt lat="43.442035" lon="-4.895615">
        <ele>80.025</ele>
        <time>2022-08-27T14:43:57Z</time>
      </trkpt>
      <trkpt lat="43.442032" lon="-4.895485">
        <ele>80.113</ele>
        <time>2022-08-27T14:43:59Z</time>
      </trkpt>
      <trkpt lat="43.442030" lon="-4.895420">
        <ele>80.253</ele>
        <time>2022-08-27T14:44:00Z</time>
      </trkpt>
      <trkpt lat="43.442027" lon="-4.895353">
        <ele>80.329</ele>
        <time>2022-08-27T14:44:01Z</time>
      </trkpt>
      <trkpt lat="43.442025" lon="-4.895226">
        <ele>80.373</ele>
        <time>2022-08-27T14:44:03Z</time>
      </trkpt>
      <trkpt lat="43.442023" lon="-4.895094">
        <ele>80.110</ele>
        <time>2022-08-27T14:44:05Z</time>
      </trkpt>
      <trkpt lat="43.442021" lon="-4.894966">
        <ele>79.957</ele>
        <time>2022-08-27T14:44:07Z</time>
      </trkpt>
      <trkpt lat="43.442019" lon="-4.894846">
        <ele>79.966</ele>
        <time>2022-08-27T14:44:09Z</time>
      </trkpt>
      <trkpt lat="43.442016" lon="-4.894728">
        <ele>80.029</ele>
        <time>2022-08-27T14:44:11Z</time>
      </trkpt>
      <trkpt lat="43.442016" lon="-4.894611">
        <ele>80.221</ele>
        <time>2022-08-27T14:44:13Z</time>
      </trkpt>
      <trkpt lat="43.442013" lon="-4.894488">
        <ele>80.309</ele>
        <time>2022-08-27T14:44:15Z</time>
      </trkpt>
      <trkpt lat="43.442013" lon="-4.894381">
        <ele>80.777</ele>
        <time>2022-08-27T14:44:17Z</time>
      </trkpt>
      <trkpt lat="43.442020" lon="-4.894286">
        <ele>81.327</ele>
        <time>2022-08-27T14:44:19Z</time>
      </trkpt>
      <trkpt lat="43.442015" lon="-4.894173">
        <ele>81.718</ele>
        <time>2022-08-27T14:44:21Z</time>
      </trkpt>
      <trkpt lat="43.442017" lon="-4.894056">
        <ele>82.116</ele>
        <time>2022-08-27T14:44:23Z</time>
      </trkpt>
      <trkpt lat="43.442015" lon="-4.893943">
        <ele>82.136</ele>
        <time>2022-08-27T14:44:25Z</time>
      </trkpt>
      <trkpt lat="43.442010" lon="-4.893828">
        <ele>82.282</ele>
        <time>2022-08-27T14:44:27Z</time>
      </trkpt>
      <trkpt lat="43.442008" lon="-4.893720">
        <ele>82.346</ele>
        <time>2022-08-27T14:44:29Z</time>
      </trkpt>
      <trkpt lat="43.442006" lon="-4.893607">
        <ele>83.613</ele>
        <time>2022-08-27T14:44:31Z</time>
      </trkpt>
      <trkpt lat="43.442004" lon="-4.893499">
        <ele>84.380</ele>
        <time>2022-08-27T14:44:33Z</time>
      </trkpt>
      <trkpt lat="43.442009" lon="-4.893386">
        <ele>84.737</ele>
        <time>2022-08-27T14:44:35Z</time>
      </trkpt>
      <trkpt lat="43.442012" lon="-4.893269">
        <ele>85.149</ele>
        <time>2022-08-27T14:44:37Z</time>
      </trkpt>
      <trkpt lat="43.442022" lon="-4.893152">
        <ele>85.513</ele>
        <time>2022-08-27T14:44:39Z</time>
      </trkpt>
      <trkpt lat="43.442027" lon="-4.893089">
        <ele>86.009</ele>
        <time>2022-08-27T14:44:40Z</time>
      </trkpt>
      <trkpt lat="43.442037" lon="-4.892956">
        <ele>86.114</ele>
        <time>2022-08-27T14:44:42Z</time>
      </trkpt>
      <trkpt lat="43.442042" lon="-4.892886">
        <ele>86.274</ele>
        <time>2022-08-27T14:44:43Z</time>
      </trkpt>
      <trkpt lat="43.442049" lon="-4.892744">
        <ele>86.115</ele>
        <time>2022-08-27T14:44:45Z</time>
      </trkpt>
      <trkpt lat="43.442052" lon="-4.892672">
        <ele>86.063</ele>
        <time>2022-08-27T14:44:46Z</time>
      </trkpt>
      <trkpt lat="43.442055" lon="-4.892599">
        <ele>85.933</ele>
        <time>2022-08-27T14:44:47Z</time>
      </trkpt>
      <trkpt lat="43.442063" lon="-4.892452">
        <ele>85.989</ele>
        <time>2022-08-27T14:44:49Z</time>
      </trkpt>
      <trkpt lat="43.442066" lon="-4.892379">
        <ele>85.873</ele>
        <time>2022-08-27T14:44:50Z</time>
      </trkpt>
      <trkpt lat="43.442073" lon="-4.892224">
        <ele>84.840</ele>
        <time>2022-08-27T14:44:52Z</time>
      </trkpt>
      <trkpt lat="43.442076" lon="-4.892147">
        <ele>84.657</ele>
        <time>2022-08-27T14:44:53Z</time>
      </trkpt>
      <trkpt lat="43.442088" lon="-4.891990">
        <ele>84.665</ele>
        <time>2022-08-27T14:44:55Z</time>
      </trkpt>
      <trkpt lat="43.442095" lon="-4.891832">
        <ele>84.368</ele>
        <time>2022-08-27T14:44:57Z</time>
      </trkpt>
      <trkpt lat="43.442100" lon="-4.891674">
        <ele>84.114</ele>
        <time>2022-08-27T14:44:59Z</time>
      </trkpt>
      <trkpt lat="43.442103" lon="-4.891601">
        <ele>83.709</ele>
        <time>2022-08-27T14:45:00Z</time>
      </trkpt>
      <trkpt lat="43.442110" lon="-4.891461">
        <ele>82.847</ele>
        <time>2022-08-27T14:45:01Z</time>
      </trkpt>
      <trkpt lat="43.442113" lon="-4.891389">
        <ele>82.417</ele>
        <time>2022-08-27T14:45:03Z</time>
      </trkpt>
      <trkpt lat="43.442118" lon="-4.891317">
        <ele>82.288</ele>
        <time>2022-08-27T14:45:04Z</time>
      </trkpt>
      <trkpt lat="43.442118" lon="-4.891249">
        <ele>81.926</ele>
        <time>2022-08-27T14:45:05Z</time>
      </trkpt>
      <trkpt lat="43.442121" lon="-4.891111">
        <ele>81.496</ele>
        <time>2022-08-27T14:45:07Z</time>
      </trkpt>
      <trkpt lat="43.442131" lon="-4.890964">
        <ele>80.772</ele>
        <time>2022-08-27T14:45:09Z</time>
      </trkpt>
      <trkpt lat="43.442139" lon="-4.890814">
        <ele>79.646</ele>
        <time>2022-08-27T14:45:11Z</time>
      </trkpt>
      <trkpt lat="43.442144" lon="-4.890657">
        <ele>78.363</ele>
        <time>2022-08-27T14:45:13Z</time>
      </trkpt>
      <trkpt lat="43.442152" lon="-4.890500">
        <ele>78.080</ele>
        <time>2022-08-27T14:45:15Z</time>
      </trkpt>
      <trkpt lat="43.442159" lon="-4.890340">
        <ele>77.767</ele>
        <time>2022-08-27T14:45:17Z</time>
      </trkpt>
      <trkpt lat="43.442162" lon="-4.890260">
        <ele>77.681</ele>
        <time>2022-08-27T14:45:18Z</time>
      </trkpt>
      <trkpt lat="43.442169" lon="-4.890103">
        <ele>77.519</ele>
        <time>2022-08-27T14:45:20Z</time>
      </trkpt>
      <trkpt lat="43.442177" lon="-4.890023">
        <ele>77.509</ele>
        <time>2022-08-27T14:45:21Z</time>
      </trkpt>
      <trkpt lat="43.442185" lon="-4.889941">
        <ele>77.967</ele>
        <time>2022-08-27T14:45:22Z</time>
      </trkpt>
      <trkpt lat="43.442190" lon="-4.889859">
        <ele>78.027</ele>
        <time>2022-08-27T14:45:23Z</time>
      </trkpt>
      <trkpt lat="43.442202" lon="-4.889691">
        <ele>78.128</ele>
        <time>2022-08-27T14:45:25Z</time>
      </trkpt>
      <trkpt lat="43.442207" lon="-4.889608">
        <ele>78.356</ele>
        <time>2022-08-27T14:45:26Z</time>
      </trkpt>
      <trkpt lat="43.442217" lon="-4.889438">
        <ele>78.196</ele>
        <time>2022-08-27T14:45:28Z</time>
      </trkpt>
      <trkpt lat="43.442222" lon="-4.889356">
        <ele>78.142</ele>
        <time>2022-08-27T14:45:29Z</time>
      </trkpt>
      <trkpt lat="43.442225" lon="-4.889276">
        <ele>78.176</ele>
        <time>2022-08-27T14:45:30Z</time>
      </trkpt>
      <trkpt lat="43.442228" lon="-4.889198">
        <ele>78.083</ele>
        <time>2022-08-27T14:45:31Z</time>
      </trkpt>
      <trkpt lat="43.442231" lon="-4.889118">
        <ele>78.010</ele>
        <time>2022-08-27T14:45:32Z</time>
      </trkpt>
      <trkpt lat="43.442234" lon="-4.889043">
        <ele>77.886</ele>
        <time>2022-08-27T14:45:33Z</time>
      </trkpt>
      <trkpt lat="43.442246" lon="-4.888891">
        <ele>77.560</ele>
        <time>2022-08-27T14:45:35Z</time>
      </trkpt>
      <trkpt lat="43.442251" lon="-4.888813">
        <ele>77.526</ele>
        <time>2022-08-27T14:45:36Z</time>
      </trkpt>
      <trkpt lat="43.442258" lon="-4.888656">
        <ele>77.409</ele>
        <time>2022-08-27T14:45:38Z</time>
      </trkpt>
      <trkpt lat="43.442266" lon="-4.888494">
        <ele>76.819</ele>
        <time>2022-08-27T14:45:40Z</time>
      </trkpt>
      <trkpt lat="43.442266" lon="-4.888412">
        <ele>76.389</ele>
        <time>2022-08-27T14:45:41Z</time>
      </trkpt>
      <trkpt lat="43.442271" lon="-4.888250">
        <ele>75.660</ele>
        <time>2022-08-27T14:45:43Z</time>
      </trkpt>
      <trkpt lat="43.442273" lon="-4.888172">
        <ele>75.348</ele>
        <time>2022-08-27T14:45:44Z</time>
      </trkpt>
      <trkpt lat="43.442278" lon="-4.888009">
        <ele>75.028</ele>
        <time>2022-08-27T14:45:46Z</time>
      </trkpt>
      <trkpt lat="43.442283" lon="-4.887927">
        <ele>75.064</ele>
        <time>2022-08-27T14:45:47Z</time>
      </trkpt>
      <trkpt lat="43.442296" lon="-4.887760">
        <ele>75.128</ele>
        <time>2022-08-27T14:45:49Z</time>
      </trkpt>
      <trkpt lat="43.442308" lon="-4.887680">
        <ele>75.265</ele>
        <time>2022-08-27T14:45:50Z</time>
      </trkpt>
      <trkpt lat="43.442311" lon="-4.887595">
        <ele>75.242</ele>
        <time>2022-08-27T14:45:51Z</time>
      </trkpt>
      <trkpt lat="43.442316" lon="-4.887503">
        <ele>75.398</ele>
        <time>2022-08-27T14:45:52Z</time>
      </trkpt>
      <trkpt lat="43.442318" lon="-4.887416">
        <ele>75.315</ele>
        <time>2022-08-27T14:45:53Z</time>
      </trkpt>
      <trkpt lat="43.442330" lon="-4.887249">
        <ele>74.826</ele>
        <time>2022-08-27T14:45:55Z</time>
      </trkpt>
      <trkpt lat="43.442340" lon="-4.887082">
        <ele>74.509</ele>
        <time>2022-08-27T14:45:57Z</time>
      </trkpt>
      <trkpt lat="43.442338" lon="-4.886907">
        <ele>74.490</ele>
        <time>2022-08-27T14:45:59Z</time>
      </trkpt>
      <trkpt lat="43.442321" lon="-4.886739">
        <ele>73.870</ele>
        <time>2022-08-27T14:46:00Z</time>
      </trkpt>
      <trkpt lat="43.442308" lon="-4.886666">
        <ele>72.561</ele>
        <time>2022-08-27T14:46:02Z</time>
      </trkpt>
      <trkpt lat="43.442341" lon="-4.886511">
        <ele>71.039</ele>
        <time>2022-08-27T14:46:03Z</time>
      </trkpt>
      <trkpt lat="43.442343" lon="-4.886436">
        <ele>70.789</ele>
        <time>2022-08-27T14:46:04Z</time>
      </trkpt>
      <trkpt lat="43.442346" lon="-4.886363">
        <ele>69.975</ele>
        <time>2022-08-27T14:46:06Z</time>
      </trkpt>
      <trkpt lat="43.442354" lon="-4.886225">
        <ele>69.979</ele>
        <time>2022-08-27T14:46:07Z</time>
      </trkpt>
      <trkpt lat="43.442356" lon="-4.886152">
        <ele>70.096</ele>
        <time>2022-08-27T14:46:09Z</time>
      </trkpt>
      <trkpt lat="43.442356" lon="-4.886004">
        <ele>70.153</ele>
        <time>2022-08-27T14:46:10Z</time>
      </trkpt>
      <trkpt lat="43.442364" lon="-4.885937">
        <ele>70.161</ele>
        <time>2022-08-27T14:46:12Z</time>
      </trkpt>
      <trkpt lat="43.442376" lon="-4.885802">
        <ele>70.221</ele>
        <time>2022-08-27T14:46:14Z</time>
      </trkpt>
      <trkpt lat="43.442384" lon="-4.885695">
        <ele>70.113</ele>
        <time>2022-08-27T14:46:16Z</time>
      </trkpt>
      <trkpt lat="43.442407" lon="-4.885627">
        <ele>68.309</ele>
        <time>2022-08-27T14:47:15Z</time>
      </trkpt>
      <trkpt lat="43.442415" lon="-4.885522">
        <ele>68.367</ele>
        <time>2022-08-27T14:47:18Z</time>
      </trkpt>
      <trkpt lat="43.442417" lon="-4.885425">
        <ele>68.377</ele>
        <time>2022-08-27T14:47:20Z</time>
      </trkpt>
      <trkpt lat="43.442420" lon="-4.885343">
        <ele>68.328</ele>
        <time>2022-08-27T14:47:22Z</time>
      </trkpt>
      <trkpt lat="43.442425" lon="-4.885258">
        <ele>68.346</ele>
        <time>2022-08-27T14:47:24Z</time>
      </trkpt>
      <trkpt lat="43.442427" lon="-4.885170">
        <ele>68.346</ele>
        <time>2022-08-27T14:47:26Z</time>
      </trkpt>
      <trkpt lat="43.442435" lon="-4.885082">
        <ele>68.282</ele>
        <time>2022-08-27T14:47:28Z</time>
      </trkpt>
      <trkpt lat="43.442445" lon="-4.884975">
        <ele>68.256</ele>
        <time>2022-08-27T14:47:30Z</time>
      </trkpt>
      <trkpt lat="43.442453" lon="-4.884858">
        <ele>68.293</ele>
        <time>2022-08-27T14:47:32Z</time>
      </trkpt>
      <trkpt lat="43.442456" lon="-4.884740">
        <ele>68.440</ele>
        <time>2022-08-27T14:47:34Z</time>
      </trkpt>
      <trkpt lat="43.442459" lon="-4.884625">
        <ele>68.692</ele>
        <time>2022-08-27T14:47:36Z</time>
      </trkpt>
      <trkpt lat="43.442471" lon="-4.884512">
        <ele>68.873</ele>
        <time>2022-08-27T14:47:37Z</time>
      </trkpt>
      <trkpt lat="43.442478" lon="-4.884395">
        <ele>69.020</ele>
        <time>2022-08-27T14:47:40Z</time>
      </trkpt>
      <trkpt lat="43.442490" lon="-4.884278">
        <ele>69.409</ele>
        <time>2022-08-27T14:47:42Z</time>
      </trkpt>
      <trkpt lat="43.442497" lon="-4.884213">
        <ele>69.560</ele>
        <time>2022-08-27T14:47:43Z</time>
      </trkpt>
      <trkpt lat="43.442502" lon="-4.884150">
        <ele>69.540</ele>
        <time>2022-08-27T14:47:44Z</time>
      </trkpt>
      <trkpt lat="43.442512" lon="-4.884028">
        <ele>69.581</ele>
        <time>2022-08-27T14:47:46Z</time>
      </trkpt>
      <trkpt lat="43.442515" lon="-4.883963">
        <ele>69.269</ele>
        <time>2022-08-27T14:47:47Z</time>
      </trkpt>
      <trkpt lat="43.442517" lon="-4.883893">
        <ele>69.149</ele>
        <time>2022-08-27T14:47:48Z</time>
      </trkpt>
      <trkpt lat="43.442520" lon="-4.883743">
        <ele>68.715</ele>
        <time>2022-08-27T14:47:50Z</time>
      </trkpt>
      <trkpt lat="43.442523" lon="-4.883665">
        <ele>68.649</ele>
        <time>2022-08-27T14:47:51Z</time>
      </trkpt>
      <trkpt lat="43.442526" lon="-4.883588">
        <ele>68.486</ele>
        <time>2022-08-27T14:47:52Z</time>
      </trkpt>
      <trkpt lat="43.442526" lon="-4.883506">
        <ele>68.333</ele>
        <time>2022-08-27T14:47:53Z</time>
      </trkpt>
      <trkpt lat="43.442534" lon="-4.883343">
        <ele>68.053</ele>
        <time>2022-08-27T14:47:55Z</time>
      </trkpt>
      <trkpt lat="43.442539" lon="-4.883261">
        <ele>68.004</ele>
        <time>2022-08-27T14:47:56Z</time>
      </trkpt>
      <trkpt lat="43.442546" lon="-4.883184">
        <ele>68.214</ele>
        <time>2022-08-27T14:47:57Z</time>
      </trkpt>
      <trkpt lat="43.442558" lon="-4.883031">
        <ele>68.309</ele>
        <time>2022-08-27T14:47:59Z</time>
      </trkpt>
      <trkpt lat="43.442575" lon="-4.882878">
        <ele>68.096</ele>
        <time>2022-08-27T14:48:01Z</time>
      </trkpt>
      <trkpt lat="43.442585" lon="-4.882800">
        <ele>67.656</ele>
        <time>2022-08-27T14:48:02Z</time>
      </trkpt>
      <trkpt lat="43.442597" lon="-4.882720">
        <ele>67.327</ele>
        <time>2022-08-27T14:48:03Z</time>
      </trkpt>
      <trkpt lat="43.442614" lon="-4.882640">
        <ele>67.155</ele>
        <time>2022-08-27T14:48:04Z</time>
      </trkpt>
      <trkpt lat="43.442636" lon="-4.882558">
        <ele>66.965</ele>
        <time>2022-08-27T14:48:05Z</time>
      </trkpt>
      <trkpt lat="43.442678" lon="-4.882391">
        <ele>66.061</ele>
        <time>2022-08-27T14:48:07Z</time>
      </trkpt>
      <trkpt lat="43.442705" lon="-4.882304">
        <ele>65.795</ele>
        <time>2022-08-27T14:48:08Z</time>
      </trkpt>
      <trkpt lat="43.442762" lon="-4.882127">
        <ele>65.062</ele>
        <time>2022-08-27T14:48:10Z</time>
      </trkpt>
      <trkpt lat="43.442792" lon="-4.882037">
        <ele>64.659</ele>
        <time>2022-08-27T14:48:11Z</time>
      </trkpt>
      <trkpt lat="43.442822" lon="-4.881945">
        <ele>64.491</ele>
        <time>2022-08-27T14:48:12Z</time>
      </trkpt>
      <trkpt lat="43.442882" lon="-4.881760">
        <ele>63.981</ele>
        <time>2022-08-27T14:48:14Z</time>
      </trkpt>
      <trkpt lat="43.442904" lon="-4.881660">
        <ele>63.819</ele>
        <time>2022-08-27T14:48:15Z</time>
      </trkpt>
      <trkpt lat="43.442929" lon="-4.881573">
        <ele>63.809</ele>
        <time>2022-08-27T14:48:16Z</time>
      </trkpt>
      <trkpt lat="43.442976" lon="-4.881405">
        <ele>63.620</ele>
        <time>2022-08-27T14:48:18Z</time>
      </trkpt>
      <trkpt lat="43.443004" lon="-4.881228">
        <ele>63.580</ele>
        <time>2022-08-27T14:48:20Z</time>
      </trkpt>
      <trkpt lat="43.443024" lon="-4.881061">
        <ele>62.881</ele>
        <time>2022-08-27T14:48:22Z</time>
      </trkpt>
      <trkpt lat="43.443026" lon="-4.880979">
        <ele>62.389</ele>
        <time>2022-08-27T14:48:23Z</time>
      </trkpt>
      <trkpt lat="43.443018" lon="-4.880892">
        <ele>61.569</ele>
        <time>2022-08-27T14:48:24Z</time>
      </trkpt>
      <trkpt lat="43.442981" lon="-4.880719">
        <ele>60.535</ele>
        <time>2022-08-27T14:48:26Z</time>
      </trkpt>
      <trkpt lat="43.442959" lon="-4.880641">
        <ele>60.299</ele>
        <time>2022-08-27T14:48:27Z</time>
      </trkpt>
      <trkpt lat="43.442936" lon="-4.880561">
        <ele>59.976</ele>
        <time>2022-08-27T14:48:28Z</time>
      </trkpt>
      <trkpt lat="43.442891" lon="-4.880406">
        <ele>59.633</ele>
        <time>2022-08-27T14:48:30Z</time>
      </trkpt>
      <trkpt lat="43.442868" lon="-4.880333">
        <ele>59.462</ele>
        <time>2022-08-27T14:48:31Z</time>
      </trkpt>
      <trkpt lat="43.442821" lon="-4.880185">
        <ele>59.183</ele>
        <time>2022-08-27T14:48:33Z</time>
      </trkpt>
      <trkpt lat="43.442774" lon="-4.880025">
        <ele>58.711</ele>
        <time>2022-08-27T14:48:35Z</time>
      </trkpt>
      <trkpt lat="43.442734" lon="-4.879875">
        <ele>58.909</ele>
        <time>2022-08-27T14:48:37Z</time>
      </trkpt>
      <trkpt lat="43.442694" lon="-4.879730">
        <ele>59.537</ele>
        <time>2022-08-27T14:48:39Z</time>
      </trkpt>
      <trkpt lat="43.442654" lon="-4.879588">
        <ele>59.877</ele>
        <time>2022-08-27T14:48:41Z</time>
      </trkpt>
      <trkpt lat="43.442614" lon="-4.879445">
        <ele>60.028</ele>
        <time>2022-08-27T14:48:43Z</time>
      </trkpt>
      <trkpt lat="43.442576" lon="-4.879310">
        <ele>60.236</ele>
        <time>2022-08-27T14:48:45Z</time>
      </trkpt>
      <trkpt lat="43.442543" lon="-4.879165">
        <ele>60.536</ele>
        <time>2022-08-27T14:48:46Z</time>
      </trkpt>
      <trkpt lat="43.442526" lon="-4.879092">
        <ele>60.542</ele>
        <time>2022-08-27T14:48:47Z</time>
      </trkpt>
      <trkpt lat="43.442489" lon="-4.878952">
        <ele>60.186</ele>
        <time>2022-08-27T14:48:49Z</time>
      </trkpt>
      <trkpt lat="43.442464" lon="-4.878894">
        <ele>59.853</ele>
        <time>2022-08-27T14:48:50Z</time>
      </trkpt>
      <trkpt lat="43.442436" lon="-4.878812">
        <ele>59.210</ele>
        <time>2022-08-27T14:48:52Z</time>
      </trkpt>
      <trkpt lat="43.442408" lon="-4.878762">
        <ele>57.045</ele>
        <time>2022-08-27T14:49:52Z</time>
      </trkpt>
      <trkpt lat="43.442380" lon="-4.878700">
        <ele>57.047</ele>
        <time>2022-08-27T14:49:55Z</time>
      </trkpt>
      <trkpt lat="43.442357" lon="-4.878642">
        <ele>57.011</ele>
        <time>2022-08-27T14:49:58Z</time>
      </trkpt>
      <trkpt lat="43.442357" lon="-4.878484">
        <ele>57.009</ele>
        <time>2022-08-27T14:50:22Z</time>
      </trkpt>
      <trkpt lat="43.442345" lon="-4.878417">
        <ele>54.525</ele>
        <time>2022-08-27T14:50:24Z</time>
      </trkpt>
      <trkpt lat="43.442323" lon="-4.878332">
        <ele>54.555</ele>
        <time>2022-08-27T14:50:26Z</time>
      </trkpt>
      <trkpt lat="43.442288" lon="-4.878225">
        <ele>54.546</ele>
        <time>2022-08-27T14:50:28Z</time>
      </trkpt>
      <trkpt lat="43.442260" lon="-4.878122">
        <ele>56.874</ele>
        <time>2022-08-27T14:50:30Z</time>
      </trkpt>
      <trkpt lat="43.442233" lon="-4.878022">
        <ele>57.084</ele>
        <time>2022-08-27T14:50:32Z</time>
      </trkpt>
      <trkpt lat="43.442206" lon="-4.877930">
        <ele>57.360</ele>
        <time>2022-08-27T14:50:34Z</time>
      </trkpt>
      <trkpt lat="43.442183" lon="-4.877843">
        <ele>57.734</ele>
        <time>2022-08-27T14:50:36Z</time>
      </trkpt>
      <trkpt lat="43.442160" lon="-4.877760">
        <ele>57.871</ele>
        <time>2022-08-27T14:50:38Z</time>
      </trkpt>
      <trkpt lat="43.442128" lon="-4.877672">
        <ele>57.818</ele>
        <time>2022-08-27T14:50:40Z</time>
      </trkpt>
      <trkpt lat="43.442098" lon="-4.877569">
        <ele>58.111</ele>
        <time>2022-08-27T14:50:42Z</time>
      </trkpt>
      <trkpt lat="43.442075" lon="-4.877481">
        <ele>58.521</ele>
        <time>2022-08-27T14:50:44Z</time>
      </trkpt>
      <trkpt lat="43.442080" lon="-4.877398">
        <ele>59.003</ele>
        <time>2022-08-27T14:50:46Z</time>
      </trkpt>
      <trkpt lat="43.442062" lon="-4.877306">
        <ele>59.609</ele>
        <time>2022-08-27T14:50:48Z</time>
      </trkpt>
      <trkpt lat="43.442022" lon="-4.877203">
        <ele>59.792</ele>
        <time>2022-08-27T14:50:50Z</time>
      </trkpt>
      <trkpt lat="43.441987" lon="-4.877108">
        <ele>59.892</ele>
        <time>2022-08-27T14:50:52Z</time>
      </trkpt>
      <trkpt lat="43.441995" lon="-4.877046">
        <ele>59.843</ele>
        <time>2022-08-27T14:50:54Z</time>
      </trkpt>
      <trkpt lat="43.442035" lon="-4.877006">
        <ele>59.841</ele>
        <time>2022-08-27T14:50:56Z</time>
      </trkpt>
      <trkpt lat="43.442080" lon="-4.876969">
        <ele>59.811</ele>
        <time>2022-08-27T14:50:58Z</time>
      </trkpt>
      <trkpt lat="43.442130" lon="-4.876946">
        <ele>59.887</ele>
        <time>2022-08-27T14:51:00Z</time>
      </trkpt>
      <trkpt lat="43.442163" lon="-4.876888">
        <ele>59.641</ele>
        <time>2022-08-27T14:51:03Z</time>
      </trkpt>
      <trkpt lat="43.442170" lon="-4.876823">
        <ele>58.878</ele>
        <time>2022-08-27T14:51:05Z</time>
      </trkpt>
      <trkpt lat="43.442177" lon="-4.876758">
        <ele>57.795</ele>
        <time>2022-08-27T14:51:07Z</time>
      </trkpt>
      <trkpt lat="43.442189" lon="-4.876680">
        <ele>55.711</ele>
        <time>2022-08-27T14:51:10Z</time>
      </trkpt>
      <trkpt lat="43.442241" lon="-4.876638">
        <ele>54.421</ele>
        <time>2022-08-27T14:51:13Z</time>
      </trkpt>
      <trkpt lat="43.442251" lon="-4.876566">
        <ele>53.703</ele>
        <time>2022-08-27T14:51:17Z</time>
      </trkpt>
      <trkpt lat="43.442276" lon="-4.876508">
        <ele>52.409</ele>
        <time>2022-08-27T14:51:20Z</time>
      </trkpt>
      <trkpt lat="43.442214" lon="-4.876438">
        <ele>49.662</ele>
        <time>2022-08-27T14:52:28Z</time>
      </trkpt>
      <trkpt lat="43.442129" lon="-4.876365">
        <ele>48.582</ele>
        <time>2022-08-27T14:52:51Z</time>
      </trkpt>
      <trkpt lat="43.442112" lon="-4.876445">
        <ele>47.673</ele>
        <time>2022-08-27T14:52:54Z</time>
      </trkpt>
      <trkpt lat="43.442130" lon="-4.876530">
        <ele>47.161</ele>
        <time>2022-08-27T14:52:57Z</time>
      </trkpt>
      <trkpt lat="43.442158" lon="-4.876595">
        <ele>47.151</ele>
        <time>2022-08-27T14:53:00Z</time>
      </trkpt>
      <trkpt lat="43.442170" lon="-4.876675">
        <ele>47.137</ele>
        <time>2022-08-27T14:53:03Z</time>
      </trkpt>
      <trkpt lat="43.442178" lon="-4.876765">
        <ele>47.421</ele>
        <time>2022-08-27T14:53:06Z</time>
      </trkpt>
      <trkpt lat="43.442178" lon="-4.876848">
        <ele>47.188</ele>
        <time>2022-08-27T14:53:09Z</time>
      </trkpt>
      <trkpt lat="43.442168" lon="-4.876926">
        <ele>47.165</ele>
        <time>2022-08-27T14:53:13Z</time>
      </trkpt>
      <trkpt lat="43.442163" lon="-4.877009">
        <ele>47.218</ele>
        <time>2022-08-27T14:53:19Z</time>
      </trkpt>
      <trkpt lat="43.442193" lon="-4.877081">
        <ele>47.698</ele>
        <time>2022-08-27T14:53:25Z</time>
      </trkpt>
      <trkpt lat="43.442210" lon="-4.877139">
        <ele>48.417</ele>
        <time>2022-08-27T14:53:28Z</time>
      </trkpt>
      <trkpt lat="43.442233" lon="-4.877207">
        <ele>48.909</ele>
        <time>2022-08-27T14:53:31Z</time>
      </trkpt>
      <trkpt lat="43.442251" lon="-4.877265">
        <ele>49.412</ele>
        <time>2022-08-27T14:53:34Z</time>
      </trkpt>
      <trkpt lat="43.442256" lon="-4.877338">
        <ele>50.022</ele>
        <time>2022-08-27T14:53:37Z</time>
      </trkpt>
      <trkpt lat="43.442268" lon="-4.877408">
        <ele>50.143</ele>
        <time>2022-08-27T14:53:40Z</time>
      </trkpt>
      <trkpt lat="43.442265" lon="-4.877316">
        <ele>51.121</ele>
        <time>2022-08-27T14:53:49Z</time>
      </trkpt>
      <trkpt lat="43.442250" lon="-4.877243">
        <ele>52.111</ele>
        <time>2022-08-27T14:53:51Z</time>
      </trkpt>
      <trkpt lat="43.442225" lon="-4.877178">
        <ele>52.397</ele>
        <time>2022-08-27T14:53:53Z</time>
      </trkpt>
      <trkpt lat="43.442207" lon="-4.877120">
        <ele>52.471</ele>
        <time>2022-08-27T14:53:55Z</time>
      </trkpt>
      <trkpt lat="43.442180" lon="-4.877038">
        <ele>52.818</ele>
        <time>2022-08-27T14:53:58Z</time>
      </trkpt>
      <trkpt lat="43.442160" lon="-4.876970">
        <ele>53.265</ele>
        <time>2022-08-27T14:54:01Z</time>
      </trkpt>
      <trkpt lat="43.442163" lon="-4.876900">
        <ele>54.511</ele>
        <time>2022-08-27T14:54:04Z</time>
      </trkpt>
      <trkpt lat="43.442168" lon="-4.876832">
        <ele>54.521</ele>
        <time>2022-08-27T14:54:07Z</time>
      </trkpt>
      <trkpt lat="43.442163" lon="-4.876769">
        <ele>54.503</ele>
        <time>2022-08-27T14:54:10Z</time>
      </trkpt>
      <trkpt lat="43.442180" lon="-4.876709">
        <ele>54.609</ele>
        <time>2022-08-27T14:54:13Z</time>
      </trkpt>
      <trkpt lat="43.442223" lon="-4.876679">
        <ele>54.612</ele>
        <time>2022-08-27T14:54:16Z</time>
      </trkpt>
      <trkpt lat="43.442268" lon="-4.876661">
        <ele>54.672</ele>
        <time>2022-08-27T14:54:19Z</time>
      </trkpt>
      <trkpt lat="43.442318" lon="-4.876643">
        <ele>54.323</ele>
        <time>2022-08-27T14:54:23Z</time>
      </trkpt>
      <trkpt lat="43.442340" lon="-4.876506">
        <ele>53.921</ele>
        <time>2022-08-27T14:54:38Z</time>
      </trkpt>
      <trkpt lat="43.442405" lon="-4.876378">
        <ele>55.891</ele>
        <time>2022-08-27T14:55:23Z</time>
      </trkpt>
      <trkpt lat="43.442452" lon="-4.876378">
        <ele>55.837</ele>
        <time>2022-08-27T14:55:47Z</time>
      </trkpt>
      <trkpt lat="43.442499" lon="-4.876383">
        <ele>55.891</ele>
        <time>2022-08-27T14:55:52Z</time>
      </trkpt>
      <trkpt lat="43.442561" lon="-4.876388">
        <ele>55.818</ele>
        <time>2022-08-27T14:56:00Z</time>
      </trkpt>
      <trkpt lat="43.442629" lon="-4.876355">
        <ele>53.955</ele>
        <time>2022-08-27T14:56:07Z</time>
      </trkpt>
      <trkpt lat="43.442654" lon="-4.876293">
        <ele>50.934</ele>
        <time>2022-08-27T14:56:12Z</time>
      </trkpt>
      <trkpt lat="43.442666" lon="-4.876233">
        <ele>48.055</ele>
        <time>2022-08-27T14:56:16Z</time>
      </trkpt>
      <trkpt lat="43.442689" lon="-4.876178">
        <ele>47.010</ele>
        <time>2022-08-27T14:56:20Z</time>
      </trkpt>
      <trkpt lat="43.442734" lon="-4.876113">
        <ele>45.909</ele>
        <time>2022-08-27T14:56:26Z</time>
      </trkpt>
      <trkpt lat="43.441912" lon="-4.877016">
        <ele>54.744</ele>
        <time>2022-08-27T16:08:50Z</time>
      </trkpt>
      <trkpt lat="43.441890" lon="-4.876933">
        <ele>55.084</ele>
        <time>2022-08-27T16:08:53Z</time>
      </trkpt>
      <trkpt lat="43.441867" lon="-4.876845">
        <ele>55.125</ele>
        <time>2022-08-27T16:08:55Z</time>
      </trkpt>
      <trkpt lat="43.441849" lon="-4.876778">
        <ele>55.383</ele>
        <time>2022-08-27T16:08:58Z</time>
      </trkpt>
      <trkpt lat="43.441837" lon="-4.876708">
        <ele>57.183</ele>
        <time>2022-08-27T16:09:00Z</time>
      </trkpt>
      <trkpt lat="43.441820" lon="-4.876640">
        <ele>57.189</ele>
        <time>2022-08-27T16:09:02Z</time>
      </trkpt>
      <trkpt lat="43.441803" lon="-4.876568">
        <ele>57.063</ele>
        <time>2022-08-27T16:09:04Z</time>
      </trkpt>
      <trkpt lat="43.441785" lon="-4.876493">
        <ele>56.350</ele>
        <time>2022-08-27T16:09:06Z</time>
      </trkpt>
      <trkpt lat="43.441760" lon="-4.876420">
        <ele>55.367</ele>
        <time>2022-08-27T16:09:08Z</time>
      </trkpt>
      <trkpt lat="43.441732" lon="-4.876348">
        <ele>55.338</ele>
        <time>2022-08-27T16:09:10Z</time>
      </trkpt>
      <trkpt lat="43.441707" lon="-4.876271">
        <ele>55.370</ele>
        <time>2022-08-27T16:09:12Z</time>
      </trkpt>
      <trkpt lat="43.441682" lon="-4.876201">
        <ele>55.517</ele>
        <time>2022-08-27T16:09:14Z</time>
      </trkpt>
      <trkpt lat="43.441662" lon="-4.876133">
        <ele>55.809</ele>
        <time>2022-08-27T16:09:16Z</time>
      </trkpt>
      <trkpt lat="43.441640" lon="-4.876063">
        <ele>55.874</ele>
        <time>2022-08-27T16:09:18Z</time>
      </trkpt>
      <trkpt lat="43.441618" lon="-4.875991">
        <ele>55.854</ele>
        <time>2022-08-27T16:09:20Z</time>
      </trkpt>
      <trkpt lat="43.441600" lon="-4.875926">
        <ele>55.625</ele>
        <time>2022-08-27T16:09:22Z</time>
      </trkpt>
      <trkpt lat="43.441575" lon="-4.875839">
        <ele>55.583</ele>
        <time>2022-08-27T16:09:25Z</time>
      </trkpt>
      <trkpt lat="43.441558" lon="-4.875774">
        <ele>55.343</ele>
        <time>2022-08-27T16:09:27Z</time>
      </trkpt>
      <trkpt lat="43.441535" lon="-4.875717">
        <ele>54.989</ele>
        <time>2022-08-27T16:09:29Z</time>
      </trkpt>
      <trkpt lat="43.441522" lon="-4.875657">
        <ele>54.723</ele>
        <time>2022-08-27T16:09:31Z</time>
      </trkpt>
      <trkpt lat="43.441504" lon="-4.875595">
        <ele>54.690</ele>
        <time>2022-08-27T16:09:33Z</time>
      </trkpt>
      <trkpt lat="43.441484" lon="-4.875535">
        <ele>54.597</ele>
        <time>2022-08-27T16:09:35Z</time>
      </trkpt>
      <trkpt lat="43.441461" lon="-4.875450">
        <ele>54.394</ele>
        <time>2022-08-27T16:09:38Z</time>
      </trkpt>
      <trkpt lat="43.441434" lon="-4.875385">
        <ele>54.157</ele>
        <time>2022-08-27T16:09:40Z</time>
      </trkpt>
      <trkpt lat="43.441409" lon="-4.875325">
        <ele>54.122</ele>
        <time>2022-08-27T16:09:42Z</time>
      </trkpt>
      <trkpt lat="43.441389" lon="-4.875262">
        <ele>54.109</ele>
        <time>2022-08-27T16:09:44Z</time>
      </trkpt>
      <trkpt lat="43.441369" lon="-4.875197">
        <ele>54.270</ele>
        <time>2022-08-27T16:09:46Z</time>
      </trkpt>
      <trkpt lat="43.441342" lon="-4.875135">
        <ele>54.580</ele>
        <time>2022-08-27T16:09:48Z</time>
      </trkpt>
      <trkpt lat="43.441320" lon="-4.875072">
        <ele>54.761</ele>
        <time>2022-08-27T16:09:50Z</time>
      </trkpt>
      <trkpt lat="43.441298" lon="-4.875012">
        <ele>55.249</ele>
        <time>2022-08-27T16:09:52Z</time>
      </trkpt>
      <trkpt lat="43.441283" lon="-4.874944">
        <ele>55.539</ele>
        <time>2022-08-27T16:09:54Z</time>
      </trkpt>
      <trkpt lat="43.441273" lon="-4.874874">
        <ele>55.875</ele>
        <time>2022-08-27T16:09:56Z</time>
      </trkpt>
      <trkpt lat="43.441266" lon="-4.874799">
        <ele>55.899</ele>
        <time>2022-08-27T16:09:58Z</time>
      </trkpt>
      <trkpt lat="43.441261" lon="-4.874721">
        <ele>55.916</ele>
        <time>2022-08-27T16:10:00Z</time>
      </trkpt>
      <trkpt lat="43.441256" lon="-4.874643">
        <ele>55.933</ele>
        <time>2022-08-27T16:10:02Z</time>
      </trkpt>
      <trkpt lat="43.441258" lon="-4.874571">
        <ele>56.132</ele>
        <time>2022-08-27T16:10:04Z</time>
      </trkpt>
      <trkpt lat="43.441266" lon="-4.874509">
        <ele>56.692</ele>
        <time>2022-08-27T16:10:06Z</time>
      </trkpt>
      <trkpt lat="43.441279" lon="-4.874419">
        <ele>57.411</ele>
        <time>2022-08-27T16:10:09Z</time>
      </trkpt>
      <trkpt lat="43.441274" lon="-4.874352">
        <ele>58.409</ele>
        <time>2022-08-27T16:10:11Z</time>
      </trkpt>
      <trkpt lat="43.441269" lon="-4.874279">
        <ele>59.454</ele>
        <time>2022-08-27T16:10:13Z</time>
      </trkpt>
      <trkpt lat="43.441264" lon="-4.874196">
        <ele>60.244</ele>
        <time>2022-08-27T16:10:15Z</time>
      </trkpt>
      <trkpt lat="43.441272" lon="-4.874104">
        <ele>60.785</ele>
        <time>2022-08-27T16:10:17Z</time>
      </trkpt>
      <trkpt lat="43.441272" lon="-4.874011">
        <ele>61.263</ele>
        <time>2022-08-27T16:10:19Z</time>
      </trkpt>
      <trkpt lat="43.441274" lon="-4.873916">
        <ele>61.713</ele>
        <time>2022-08-27T16:10:21Z</time>
      </trkpt>
      <trkpt lat="43.441274" lon="-4.873816">
        <ele>62.139</ele>
        <time>2022-08-27T16:10:23Z</time>
      </trkpt>
      <trkpt lat="43.441274" lon="-4.873713">
        <ele>62.113</ele>
        <time>2022-08-27T16:10:25Z</time>
      </trkpt>
      <trkpt lat="43.441267" lon="-4.873600">
        <ele>62.160</ele>
        <time>2022-08-27T16:10:27Z</time>
      </trkpt>
      <trkpt lat="43.441250" lon="-4.873473">
        <ele>62.167</ele>
        <time>2022-08-27T16:10:29Z</time>
      </trkpt>
      <trkpt lat="43.441225" lon="-4.873345">
        <ele>61.789</ele>
        <time>2022-08-27T16:10:31Z</time>
      </trkpt>
      <trkpt lat="43.441192" lon="-4.873230">
        <ele>60.806</ele>
        <time>2022-08-27T16:10:33Z</time>
      </trkpt>
      <trkpt lat="43.441169" lon="-4.873168">
        <ele>60.226</ele>
        <time>2022-08-27T16:10:34Z</time>
      </trkpt>
      <trkpt lat="43.441124" lon="-4.873045">
        <ele>59.109</ele>
        <time>2022-08-27T16:10:36Z</time>
      </trkpt>
      <trkpt lat="43.441092" lon="-4.872983">
        <ele>58.679</ele>
        <time>2022-08-27T16:10:37Z</time>
      </trkpt>
      <trkpt lat="43.441055" lon="-4.872923">
        <ele>58.629</ele>
        <time>2022-08-27T16:10:38Z</time>
      </trkpt>
      <trkpt lat="43.441012" lon="-4.872866">
        <ele>58.440</ele>
        <time>2022-08-27T16:10:39Z</time>
      </trkpt>
      <trkpt lat="43.440967" lon="-4.872811">
        <ele>58.368</ele>
        <time>2022-08-27T16:10:40Z</time>
      </trkpt>
      <trkpt lat="43.440870" lon="-4.872704">
        <ele>58.128</ele>
        <time>2022-08-27T16:10:42Z</time>
      </trkpt>
      <trkpt lat="43.440758" lon="-4.872612">
        <ele>57.874</ele>
        <time>2022-08-27T16:10:44Z</time>
      </trkpt>
      <trkpt lat="43.440698" lon="-4.872560">
        <ele>57.558</ele>
        <time>2022-08-27T16:10:45Z</time>
      </trkpt>
      <trkpt lat="43.440636" lon="-4.872498">
        <ele>57.095</ele>
        <time>2022-08-27T16:10:46Z</time>
      </trkpt>
      <trkpt lat="43.440498" lon="-4.872370">
        <ele>56.952</ele>
        <time>2022-08-27T16:10:48Z</time>
      </trkpt>
      <trkpt lat="43.440353" lon="-4.872237">
        <ele>56.866</ele>
        <time>2022-08-27T16:10:50Z</time>
      </trkpt>
      <trkpt lat="43.440206" lon="-4.872105">
        <ele>56.429</ele>
        <time>2022-08-27T16:10:52Z</time>
      </trkpt>
      <trkpt lat="43.440136" lon="-4.872042">
        <ele>56.221</ele>
        <time>2022-08-27T16:10:53Z</time>
      </trkpt>
      <trkpt lat="43.440068" lon="-4.871980">
        <ele>56.209</ele>
        <time>2022-08-27T16:10:54Z</time>
      </trkpt>
      <trkpt lat="43.440001" lon="-4.871915">
        <ele>56.297</ele>
        <time>2022-08-27T16:10:55Z</time>
      </trkpt>
      <trkpt lat="43.439876" lon="-4.871793">
        <ele>56.957</ele>
        <time>2022-08-27T16:10:57Z</time>
      </trkpt>
      <trkpt lat="43.439753" lon="-4.871680">
        <ele>57.778</ele>
        <time>2022-08-27T16:10:59Z</time>
      </trkpt>
      <trkpt lat="43.439691" lon="-4.871623">
        <ele>58.036</ele>
        <time>2022-08-27T16:11:00Z</time>
      </trkpt>
      <trkpt lat="43.439631" lon="-4.871571">
        <ele>58.446</ele>
        <time>2022-08-27T16:11:01Z</time>
      </trkpt>
      <trkpt lat="43.439511" lon="-4.871478">
        <ele>58.852</ele>
        <time>2022-08-27T16:11:03Z</time>
      </trkpt>
      <trkpt lat="43.439454" lon="-4.871433">
        <ele>58.946</ele>
        <time>2022-08-27T16:11:04Z</time>
      </trkpt>
      <trkpt lat="43.439344" lon="-4.871368">
        <ele>58.843</ele>
        <time>2022-08-27T16:11:06Z</time>
      </trkpt>
      <trkpt lat="43.439229" lon="-4.871301">
        <ele>58.790</ele>
        <time>2022-08-27T16:11:08Z</time>
      </trkpt>
      <trkpt lat="43.439114" lon="-4.871241">
        <ele>58.135</ele>
        <time>2022-08-27T16:11:10Z</time>
      </trkpt>
      <trkpt lat="43.439061" lon="-4.871208">
        <ele>57.986</ele>
        <time>2022-08-27T16:11:11Z</time>
      </trkpt>
      <trkpt lat="43.439004" lon="-4.871175">
        <ele>57.914</ele>
        <time>2022-08-27T16:11:12Z</time>
      </trkpt>
      <trkpt lat="43.438896" lon="-4.871117">
        <ele>58.209</ele>
        <time>2022-08-27T16:11:14Z</time>
      </trkpt>
      <trkpt lat="43.438784" lon="-4.871059">
        <ele>58.534</ele>
        <time>2022-08-27T16:11:16Z</time>
      </trkpt>
      <trkpt lat="43.438727" lon="-4.871032">
        <ele>58.554</ele>
        <time>2022-08-27T16:11:17Z</time>
      </trkpt>
      <trkpt lat="43.438675" lon="-4.871009">
        <ele>58.595</ele>
        <time>2022-08-27T16:11:18Z</time>
      </trkpt>
      <trkpt lat="43.438572" lon="-4.870952">
        <ele>58.563</ele>
        <time>2022-08-27T16:11:20Z</time>
      </trkpt>
      <trkpt lat="43.438474" lon="-4.870907">
        <ele>58.583</ele>
        <time>2022-08-27T16:11:22Z</time>
      </trkpt>
      <trkpt lat="43.438421" lon="-4.870879">
        <ele>58.679</ele>
        <time>2022-08-27T16:11:23Z</time>
      </trkpt>
      <trkpt lat="43.438359" lon="-4.870846">
        <ele>58.853</ele>
        <time>2022-08-27T16:11:24Z</time>
      </trkpt>
      <trkpt lat="43.438296" lon="-4.870813">
        <ele>58.970</ele>
        <time>2022-08-27T16:11:25Z</time>
      </trkpt>
      <trkpt lat="43.438236" lon="-4.870776">
        <ele>58.927</ele>
        <time>2022-08-27T16:11:26Z</time>
      </trkpt>
      <trkpt lat="43.438109" lon="-4.870713">
        <ele>58.953</ele>
        <time>2022-08-27T16:11:28Z</time>
      </trkpt>
      <trkpt lat="43.438037" lon="-4.870680">
        <ele>58.704</ele>
        <time>2022-08-27T16:11:29Z</time>
      </trkpt>
      <trkpt lat="43.437967" lon="-4.870642">
        <ele>58.614</ele>
        <time>2022-08-27T16:11:30Z</time>
      </trkpt>
      <trkpt lat="43.437844" lon="-4.870597">
        <ele>58.209</ele>
        <time>2022-08-27T16:11:32Z</time>
      </trkpt>
      <trkpt lat="43.437787" lon="-4.870587">
        <ele>58.166</ele>
        <time>2022-08-27T16:11:33Z</time>
      </trkpt>
      <trkpt lat="43.437729" lon="-4.870565">
        <ele>58.016</ele>
        <time>2022-08-27T16:11:34Z</time>
      </trkpt>
      <trkpt lat="43.437667" lon="-4.870548">
        <ele>57.877</ele>
        <time>2022-08-27T16:11:35Z</time>
      </trkpt>
      <trkpt lat="43.437532" lon="-4.870518">
        <ele>57.655</ele>
        <time>2022-08-27T16:11:37Z</time>
      </trkpt>
      <trkpt lat="43.437394" lon="-4.870520">
        <ele>57.355</ele>
        <time>2022-08-27T16:11:39Z</time>
      </trkpt>
      <trkpt lat="43.437326" lon="-4.870535">
        <ele>57.141</ele>
        <time>2022-08-27T16:11:40Z</time>
      </trkpt>
      <trkpt lat="43.437194" lon="-4.870572">
        <ele>56.695</ele>
        <time>2022-08-27T16:11:42Z</time>
      </trkpt>
      <trkpt lat="43.437086" lon="-4.870634">
        <ele>56.182</ele>
        <time>2022-08-27T16:11:44Z</time>
      </trkpt>
      <trkpt lat="43.437039" lon="-4.870676">
        <ele>55.549</ele>
        <time>2022-08-27T16:11:45Z</time>
      </trkpt>
      <trkpt lat="43.436992" lon="-4.870716">
        <ele>54.946</ele>
        <time>2022-08-27T16:11:46Z</time>
      </trkpt>
      <trkpt lat="43.436950" lon="-4.870756">
        <ele>54.488</ele>
        <time>2022-08-27T16:11:47Z</time>
      </trkpt>
      <trkpt lat="43.436872" lon="-4.870831">
        <ele>54.016</ele>
        <time>2022-08-27T16:11:49Z</time>
      </trkpt>
      <trkpt lat="43.436832" lon="-4.870873">
        <ele>53.909</ele>
        <time>2022-08-27T16:11:50Z</time>
      </trkpt>
      <trkpt lat="43.436794" lon="-4.870915">
        <ele>53.855</ele>
        <time>2022-08-27T16:11:51Z</time>
      </trkpt>
      <trkpt lat="43.436761" lon="-4.870958">
        <ele>53.745</ele>
        <time>2022-08-27T16:11:52Z</time>
      </trkpt>
      <trkpt lat="43.436704" lon="-4.871050">
        <ele>53.546</ele>
        <time>2022-08-27T16:11:54Z</time>
      </trkpt>
      <trkpt lat="43.436652" lon="-4.871138">
        <ele>53.394</ele>
        <time>2022-08-27T16:11:56Z</time>
      </trkpt>
      <trkpt lat="43.436619" lon="-4.871231">
        <ele>53.144</ele>
        <time>2022-08-27T16:11:58Z</time>
      </trkpt>
      <trkpt lat="43.436582" lon="-4.871321">
        <ele>52.980</ele>
        <time>2022-08-27T16:12:00Z</time>
      </trkpt>
      <trkpt lat="43.436547" lon="-4.871406">
        <ele>52.914</ele>
        <time>2022-08-27T16:12:02Z</time>
      </trkpt>
      <trkpt lat="43.436522" lon="-4.871481">
        <ele>52.981</ele>
        <time>2022-08-27T16:12:04Z</time>
      </trkpt>
      <trkpt lat="43.436505" lon="-4.871553">
        <ele>53.068</ele>
        <time>2022-08-27T16:12:06Z</time>
      </trkpt>
      <trkpt lat="43.436482" lon="-4.871631">
        <ele>53.079</ele>
        <time>2022-08-27T16:12:08Z</time>
      </trkpt>
      <trkpt lat="43.436440" lon="-4.871706">
        <ele>53.305</ele>
        <time>2022-08-27T16:12:10Z</time>
      </trkpt>
      <trkpt lat="43.436408" lon="-4.871778">
        <ele>53.525</ele>
        <time>2022-08-27T16:12:12Z</time>
      </trkpt>
      <trkpt lat="43.436363" lon="-4.871836">
        <ele>53.609</ele>
        <time>2022-08-27T16:12:14Z</time>
      </trkpt>
      <trkpt lat="43.436318" lon="-4.871901">
        <ele>54.498</ele>
        <time>2022-08-27T16:12:16Z</time>
      </trkpt>
      <trkpt lat="43.436276" lon="-4.871981">
        <ele>55.058</ele>
        <time>2022-08-27T16:12:18Z</time>
      </trkpt>
      <trkpt lat="43.436236" lon="-4.872056">
        <ele>55.639</ele>
        <time>2022-08-27T16:12:20Z</time>
      </trkpt>
      <trkpt lat="43.436193" lon="-4.872123">
        <ele>56.457</ele>
        <time>2022-08-27T16:12:22Z</time>
      </trkpt>
      <trkpt lat="43.436145" lon="-4.872186">
        <ele>57.527</ele>
        <time>2022-08-27T16:12:24Z</time>
      </trkpt>
      <trkpt lat="43.436098" lon="-4.872224">
        <ele>58.143</ele>
        <time>2022-08-27T16:12:26Z</time>
      </trkpt>
      <trkpt lat="43.436041" lon="-4.872272">
        <ele>58.797</ele>
        <time>2022-08-27T16:12:28Z</time>
      </trkpt>
      <trkpt lat="43.435983" lon="-4.872319">
        <ele>59.524</ele>
        <time>2022-08-27T16:12:30Z</time>
      </trkpt>
      <trkpt lat="43.435928" lon="-4.872367">
        <ele>60.051</ele>
        <time>2022-08-27T16:12:32Z</time>
      </trkpt>
      <trkpt lat="43.435881" lon="-4.872415">
        <ele>60.516</ele>
        <time>2022-08-27T16:12:34Z</time>
      </trkpt>
      <trkpt lat="43.435846" lon="-4.872480">
        <ele>61.076</ele>
        <time>2022-08-27T16:12:36Z</time>
      </trkpt>
      <trkpt lat="43.435808" lon="-4.872550">
        <ele>61.113</ele>
        <time>2022-08-27T16:12:38Z</time>
      </trkpt>
      <trkpt lat="43.435786" lon="-4.872622">
        <ele>61.109</ele>
        <time>2022-08-27T16:12:40Z</time>
      </trkpt>
      <trkpt lat="43.435774" lon="-4.872689">
        <ele>61.092</ele>
        <time>2022-08-27T16:12:42Z</time>
      </trkpt>
      <trkpt lat="43.435767" lon="-4.872759">
        <ele>60.512</ele>
        <time>2022-08-27T16:12:44Z</time>
      </trkpt>
      <trkpt lat="43.435754" lon="-4.872831">
        <ele>59.893</ele>
        <time>2022-08-27T16:12:46Z</time>
      </trkpt>
      <trkpt lat="43.435739" lon="-4.872896">
        <ele>59.481</ele>
        <time>2022-08-27T16:12:48Z</time>
      </trkpt>
      <trkpt lat="43.435717" lon="-4.872968">
        <ele>59.381</ele>
        <time>2022-08-27T16:12:50Z</time>
      </trkpt>
      <trkpt lat="43.435694" lon="-4.873030">
        <ele>59.387</ele>
        <time>2022-08-27T16:12:52Z</time>
      </trkpt>
      <trkpt lat="43.435667" lon="-4.873090">
        <ele>59.391</ele>
        <time>2022-08-27T16:12:54Z</time>
      </trkpt>
      <trkpt lat="43.435629" lon="-4.873133">
        <ele>59.468</ele>
        <time>2022-08-27T16:12:56Z</time>
      </trkpt>
      <trkpt lat="43.435587" lon="-4.873163">
        <ele>60.335</ele>
        <time>2022-08-27T16:12:58Z</time>
      </trkpt>
      <trkpt lat="43.435542" lon="-4.873186">
        <ele>61.246</ele>
        <time>2022-08-27T16:13:00Z</time>
      </trkpt>
      <trkpt lat="43.435497" lon="-4.873204">
        <ele>62.388</ele>
        <time>2022-08-27T16:13:02Z</time>
      </trkpt>
      <trkpt lat="43.435450" lon="-4.873219">
        <ele>63.516</ele>
        <time>2022-08-27T16:13:04Z</time>
      </trkpt>
      <trkpt lat="43.435393" lon="-4.873221">
        <ele>65.109</ele>
        <time>2022-08-27T16:13:06Z</time>
      </trkpt>
      <trkpt lat="43.435333" lon="-4.873229">
        <ele>67.255</ele>
        <time>2022-08-27T16:13:08Z</time>
      </trkpt>
      <trkpt lat="43.435275" lon="-4.873237">
        <ele>68.345</ele>
        <time>2022-08-27T16:13:10Z</time>
      </trkpt>
      <trkpt lat="43.435222" lon="-4.873237">
        <ele>69.436</ele>
        <time>2022-08-27T16:13:12Z</time>
      </trkpt>
      <trkpt lat="43.435177" lon="-4.873210">
        <ele>70.354</ele>
        <time>2022-08-27T16:13:14Z</time>
      </trkpt>
      <trkpt lat="43.435129" lon="-4.873173">
        <ele>70.354</ele>
        <time>2022-08-27T16:13:16Z</time>
      </trkpt>
      <trkpt lat="43.435081" lon="-4.873131">
        <ele>70.310</ele>
        <time>2022-08-27T16:13:18Z</time>
      </trkpt>
      <trkpt lat="43.435039" lon="-4.873076">
        <ele>70.294</ele>
        <time>2022-08-27T16:13:20Z</time>
      </trkpt>
      <trkpt lat="43.434994" lon="-4.873016">
        <ele>70.271</ele>
        <time>2022-08-27T16:13:22Z</time>
      </trkpt>
      <trkpt lat="43.434954" lon="-4.872954">
        <ele>70.298</ele>
        <time>2022-08-27T16:13:24Z</time>
      </trkpt>
      <trkpt lat="43.434917" lon="-4.872899">
        <ele>70.317</ele>
        <time>2022-08-27T16:13:26Z</time>
      </trkpt>
      <trkpt lat="43.434882" lon="-4.872841">
        <ele>70.787</ele>
        <time>2022-08-27T16:13:28Z</time>
      </trkpt>
      <trkpt lat="43.434844" lon="-4.872789">
        <ele>71.215</ele>
        <time>2022-08-27T16:13:30Z</time>
      </trkpt>
      <trkpt lat="43.434809" lon="-4.872746">
        <ele>71.409</ele>
        <time>2022-08-27T16:13:32Z</time>
      </trkpt>
      <trkpt lat="43.434772" lon="-4.872673">
        <ele>72.392</ele>
        <time>2022-08-27T16:13:35Z</time>
      </trkpt>
      <trkpt lat="43.434747" lon="-4.872620">
        <ele>73.952</ele>
        <time>2022-08-27T16:13:37Z</time>
      </trkpt>
      <trkpt lat="43.434720" lon="-4.872537">
        <ele>74.593</ele>
        <time>2022-08-27T16:13:40Z</time>
      </trkpt>
      <trkpt lat="43.434702" lon="-4.872469">
        <ele>75.151</ele>
        <time>2022-08-27T16:13:42Z</time>
      </trkpt>
      <trkpt lat="43.434689" lon="-4.872394">
        <ele>75.651</ele>
        <time>2022-08-27T16:13:44Z</time>
      </trkpt>
      <trkpt lat="43.434676" lon="-4.872316">
        <ele>76.617</ele>
        <time>2022-08-27T16:13:46Z</time>
      </trkpt>
      <trkpt lat="43.434671" lon="-4.872241">
        <ele>77.091</ele>
        <time>2022-08-27T16:13:48Z</time>
      </trkpt>
      <trkpt lat="43.434653" lon="-4.872164">
        <ele>77.828</ele>
        <time>2022-08-27T16:13:50Z</time>
      </trkpt>
      <trkpt lat="43.434630" lon="-4.872092">
        <ele>78.315</ele>
        <time>2022-08-27T16:13:52Z</time>
      </trkpt>
      <trkpt lat="43.434605" lon="-4.872024">
        <ele>79.238</ele>
        <time>2022-08-27T16:13:54Z</time>
      </trkpt>
      <trkpt lat="43.434577" lon="-4.871954">
        <ele>79.470</ele>
        <time>2022-08-27T16:13:56Z</time>
      </trkpt>
      <trkpt lat="43.434544" lon="-4.871897">
        <ele>79.417</ele>
        <time>2022-08-27T16:13:58Z</time>
      </trkpt>
      <trkpt lat="43.434506" lon="-4.871830">
        <ele>79.409</ele>
        <time>2022-08-27T16:14:00Z</time>
      </trkpt>
      <trkpt lat="43.434463" lon="-4.871768">
        <ele>79.454</ele>
        <time>2022-08-27T16:14:02Z</time>
      </trkpt>
      <trkpt lat="43.434416" lon="-4.871716">
        <ele>79.434</ele>
        <time>2022-08-27T16:14:04Z</time>
      </trkpt>
      <trkpt lat="43.434371" lon="-4.871678">
        <ele>80.125</ele>
        <time>2022-08-27T16:14:06Z</time>
      </trkpt>
      <trkpt lat="43.434329" lon="-4.871631">
        <ele>80.843</ele>
        <time>2022-08-27T16:14:08Z</time>
      </trkpt>
      <trkpt lat="43.434291" lon="-4.871573">
        <ele>81.533</ele>
        <time>2022-08-27T16:14:10Z</time>
      </trkpt>
      <trkpt lat="43.434253" lon="-4.871515">
        <ele>81.869</ele>
        <time>2022-08-27T16:14:12Z</time>
      </trkpt>
      <trkpt lat="43.434225" lon="-4.871452">
        <ele>81.943</ele>
        <time>2022-08-27T16:14:14Z</time>
      </trkpt>
      <trkpt lat="43.434205" lon="-4.871389">
        <ele>81.970</ele>
        <time>2022-08-27T16:14:16Z</time>
      </trkpt>
      <trkpt lat="43.434185" lon="-4.871324">
        <ele>82.157</ele>
        <time>2022-08-27T16:14:18Z</time>
      </trkpt>
      <trkpt lat="43.434168" lon="-4.871266">
        <ele>82.224</ele>
        <time>2022-08-27T16:14:20Z</time>
      </trkpt>
      <trkpt lat="43.434160" lon="-4.871199">
        <ele>82.204</ele>
        <time>2022-08-27T16:14:22Z</time>
      </trkpt>
      <trkpt lat="43.434150" lon="-4.871127">
        <ele>82.014</ele>
        <time>2022-08-27T16:14:24Z</time>
      </trkpt>
      <trkpt lat="43.434133" lon="-4.871055">
        <ele>82.009</ele>
        <time>2022-08-27T16:14:26Z</time>
      </trkpt>
      <trkpt lat="43.434118" lon="-4.870978">
        <ele>81.863</ele>
        <time>2022-08-27T16:14:28Z</time>
      </trkpt>
      <trkpt lat="43.434103" lon="-4.870901">
        <ele>81.573</ele>
        <time>2022-08-27T16:14:30Z</time>
      </trkpt>
      <trkpt lat="43.434093" lon="-4.870823">
        <ele>81.154</ele>
        <time>2022-08-27T16:14:32Z</time>
      </trkpt>
      <trkpt lat="43.434081" lon="-4.870750">
        <ele>81.052</ele>
        <time>2022-08-27T16:14:34Z</time>
      </trkpt>
      <trkpt lat="43.434071" lon="-4.870680">
        <ele>81.052</ele>
        <time>2022-08-27T16:14:36Z</time>
      </trkpt>
      <trkpt lat="43.434058" lon="-4.870607">
        <ele>81.178</ele>
        <time>2022-08-27T16:14:38Z</time>
      </trkpt>
      <trkpt lat="43.434045" lon="-4.870530">
        <ele>81.422</ele>
        <time>2022-08-27T16:14:40Z</time>
      </trkpt>
      <trkpt lat="43.434032" lon="-4.870453">
        <ele>81.719</ele>
        <time>2022-08-27T16:14:42Z</time>
      </trkpt>
      <trkpt lat="43.434017" lon="-4.870378">
        <ele>82.336</ele>
        <time>2022-08-27T16:14:44Z</time>
      </trkpt>
      <trkpt lat="43.433995" lon="-4.870306">
        <ele>83.199</ele>
        <time>2022-08-27T16:14:46Z</time>
      </trkpt>
      <trkpt lat="43.433968" lon="-4.870231">
        <ele>83.907</ele>
        <time>2022-08-27T16:14:48Z</time>
      </trkpt>
      <trkpt lat="43.433935" lon="-4.870158">
        <ele>84.727</ele>
        <time>2022-08-27T16:14:50Z</time>
      </trkpt>
      <trkpt lat="43.433897" lon="-4.870091">
        <ele>85.109</ele>
        <time>2022-08-27T16:14:52Z</time>
      </trkpt>
      <trkpt lat="43.433849" lon="-4.870036">
        <ele>85.790</ele>
        <time>2022-08-27T16:14:54Z</time>
      </trkpt>
      <trkpt lat="43.433801" lon="-4.869996">
        <ele>86.010</ele>
        <time>2022-08-27T16:14:56Z</time>
      </trkpt>
      <trkpt lat="43.433751" lon="-4.869961">
        <ele>86.431</ele>
        <time>2022-08-27T16:14:58Z</time>
      </trkpt>
      <trkpt lat="43.433698" lon="-4.869931">
        <ele>86.789</ele>
        <time>2022-08-27T16:15:00Z</time>
      </trkpt>
      <trkpt lat="43.433640" lon="-4.869916">
        <ele>86.819</ele>
        <time>2022-08-27T16:15:02Z</time>
      </trkpt>
      <trkpt lat="43.433582" lon="-4.869918">
        <ele>86.885</ele>
        <time>2022-08-27T16:15:04Z</time>
      </trkpt>
      <trkpt lat="43.433527" lon="-4.869928">
        <ele>86.789</ele>
        <time>2022-08-27T16:15:06Z</time>
      </trkpt>
      <trkpt lat="43.433467" lon="-4.869945">
        <ele>86.556</ele>
        <time>2022-08-27T16:15:08Z</time>
      </trkpt>
      <trkpt lat="43.433407" lon="-4.869972">
        <ele>86.233</ele>
        <time>2022-08-27T16:15:10Z</time>
      </trkpt>
      <trkpt lat="43.433350" lon="-4.870000">
        <ele>85.891</ele>
        <time>2022-08-27T16:15:12Z</time>
      </trkpt>
      <trkpt lat="43.433298" lon="-4.870033">
        <ele>85.481</ele>
        <time>2022-08-27T16:15:14Z</time>
      </trkpt>
      <trkpt lat="43.433246" lon="-4.870068">
        <ele>85.319</ele>
        <time>2022-08-27T16:15:16Z</time>
      </trkpt>
      <trkpt lat="43.433196" lon="-4.870108">
        <ele>85.009</ele>
        <time>2022-08-27T16:15:18Z</time>
      </trkpt>
      <trkpt lat="43.433148" lon="-4.870148">
        <ele>84.970</ele>
        <time>2022-08-27T16:15:20Z</time>
      </trkpt>
      <trkpt lat="43.433101" lon="-4.870196">
        <ele>84.980</ele>
        <time>2022-08-27T16:15:22Z</time>
      </trkpt>
      <trkpt lat="43.433063" lon="-4.870248">
        <ele>84.831</ele>
        <time>2022-08-27T16:15:24Z</time>
      </trkpt>
      <trkpt lat="43.433028" lon="-4.870301">
        <ele>84.829</ele>
        <time>2022-08-27T16:15:26Z</time>
      </trkpt>
      <trkpt lat="43.432990" lon="-4.870358">
        <ele>84.869</ele>
        <time>2022-08-27T16:15:28Z</time>
      </trkpt>
      <trkpt lat="43.432950" lon="-4.870415">
        <ele>84.925</ele>
        <time>2022-08-27T16:15:30Z</time>
      </trkpt>
      <trkpt lat="43.432907" lon="-4.870468">
        <ele>84.959</ele>
        <time>2022-08-27T16:15:32Z</time>
      </trkpt>
      <trkpt lat="43.432865" lon="-4.870523">
        <ele>85.956</ele>
        <time>2022-08-27T16:15:34Z</time>
      </trkpt>
      <trkpt lat="43.432825" lon="-4.870570">
        <ele>86.543</ele>
        <time>2022-08-27T16:15:36Z</time>
      </trkpt>
      <trkpt lat="43.432785" lon="-4.870620">
        <ele>87.117</ele>
        <time>2022-08-27T16:15:38Z</time>
      </trkpt>
      <trkpt lat="43.432748" lon="-4.870673">
        <ele>87.487</ele>
        <time>2022-08-27T16:15:40Z</time>
      </trkpt>
      <trkpt lat="43.432716" lon="-4.870725">
        <ele>87.815</ele>
        <time>2022-08-27T16:15:42Z</time>
      </trkpt>
      <trkpt lat="43.432678" lon="-4.870768">
        <ele>87.909</ele>
        <time>2022-08-27T16:15:44Z</time>
      </trkpt>
      <trkpt lat="43.432645" lon="-4.870823">
        <ele>87.982</ele>
        <time>2022-08-27T16:15:46Z</time>
      </trkpt>
      <trkpt lat="43.432610" lon="-4.870871">
        <ele>87.942</ele>
        <time>2022-08-27T16:15:48Z</time>
      </trkpt>
      <trkpt lat="43.432567" lon="-4.870921">
        <ele>87.623</ele>
        <time>2022-08-27T16:15:50Z</time>
      </trkpt>
      <trkpt lat="43.432527" lon="-4.870971">
        <ele>87.631</ele>
        <time>2022-08-27T16:15:52Z</time>
      </trkpt>
      <trkpt lat="43.432485" lon="-4.871009">
        <ele>87.641</ele>
        <time>2022-08-27T16:15:54Z</time>
      </trkpt>
      <trkpt lat="43.432448" lon="-4.871059">
        <ele>88.297</ele>
        <time>2022-08-27T16:15:56Z</time>
      </trkpt>
      <trkpt lat="43.432411" lon="-4.871114">
        <ele>88.841</ele>
        <time>2022-08-27T16:15:58Z</time>
      </trkpt>
      <trkpt lat="43.432378" lon="-4.871179">
        <ele>88.918</ele>
        <time>2022-08-27T16:16:00Z</time>
      </trkpt>
      <trkpt lat="43.432348" lon="-4.871234">
        <ele>89.655</ele>
        <time>2022-08-27T16:16:02Z</time>
      </trkpt>
      <trkpt lat="43.432318" lon="-4.871282">
        <ele>89.929</ele>
        <time>2022-08-27T16:16:04Z</time>
      </trkpt>
      <trkpt lat="43.432283" lon="-4.871342">
        <ele>90.000</ele>
        <time>2022-08-27T16:16:06Z</time>
      </trkpt>
      <trkpt lat="43.432250" lon="-4.871390">
        <ele>90.020</ele>
        <time>2022-08-27T16:16:08Z</time>
      </trkpt>
      <trkpt lat="43.432218" lon="-4.871445">
        <ele>90.009</ele>
        <time>2022-08-27T16:16:10Z</time>
      </trkpt>
      <trkpt lat="43.432181" lon="-4.871500">
        <ele>90.083</ele>
        <time>2022-08-27T16:16:12Z</time>
      </trkpt>
      <trkpt lat="43.432148" lon="-4.871562">
        <ele>90.083</ele>
        <time>2022-08-27T16:16:14Z</time>
      </trkpt>
      <trkpt lat="43.432116" lon="-4.871627">
        <ele>90.254</ele>
        <time>2022-08-27T16:16:16Z</time>
      </trkpt>
      <trkpt lat="43.432084" lon="-4.871684">
        <ele>90.482</ele>
        <time>2022-08-27T16:16:18Z</time>
      </trkpt>
      <trkpt lat="43.432051" lon="-4.871741">
        <ele>91.012</ele>
        <time>2022-08-27T16:16:20Z</time>
      </trkpt>
      <trkpt lat="43.432013" lon="-4.871798">
        <ele>91.528</ele>
        <time>2022-08-27T16:16:22Z</time>
      </trkpt>
      <trkpt lat="43.431975" lon="-4.871855">
        <ele>92.132</ele>
        <time>2022-08-27T16:16:24Z</time>
      </trkpt>
      <trkpt lat="43.431943" lon="-4.871908">
        <ele>92.699</ele>
        <time>2022-08-27T16:16:26Z</time>
      </trkpt>
      <trkpt lat="43.431915" lon="-4.871960">
        <ele>93.296</ele>
        <time>2022-08-27T16:16:28Z</time>
      </trkpt>
      <trkpt lat="43.431885" lon="-4.872012">
        <ele>93.765</ele>
        <time>2022-08-27T16:16:30Z</time>
      </trkpt>
      <trkpt lat="43.431857" lon="-4.872064">
        <ele>94.368</ele>
        <time>2022-08-27T16:16:32Z</time>
      </trkpt>
      <trkpt lat="43.431830" lon="-4.872116">
        <ele>94.914</ele>
        <time>2022-08-27T16:16:34Z</time>
      </trkpt>
      <trkpt lat="43.431795" lon="-4.872168">
        <ele>95.209</ele>
        <time>2022-08-27T16:16:36Z</time>
      </trkpt>
      <trkpt lat="43.431762" lon="-4.872220">
        <ele>95.737</ele>
        <time>2022-08-27T16:16:38Z</time>
      </trkpt>
      <trkpt lat="43.431727" lon="-4.872270">
        <ele>96.227</ele>
        <time>2022-08-27T16:16:40Z</time>
      </trkpt>
      <trkpt lat="43.431685" lon="-4.872318">
        <ele>96.268</ele>
        <time>2022-08-27T16:16:42Z</time>
      </trkpt>
      <trkpt lat="43.431640" lon="-4.872363">
        <ele>96.336</ele>
        <time>2022-08-27T16:16:43Z</time>
      </trkpt>
      <trkpt lat="43.431597" lon="-4.872403">
        <ele>96.366</ele>
        <time>2022-08-27T16:16:46Z</time>
      </trkpt>
      <trkpt lat="43.431552" lon="-4.872445">
        <ele>96.542</ele>
        <time>2022-08-27T16:16:48Z</time>
      </trkpt>
      <trkpt lat="43.431502" lon="-4.872475">
        <ele>97.436</ele>
        <time>2022-08-27T16:16:50Z</time>
      </trkpt>
      <trkpt lat="43.431452" lon="-4.872493">
        <ele>97.983</ele>
        <time>2022-08-27T16:16:52Z</time>
      </trkpt>
      <trkpt lat="43.431405" lon="-4.872516">
        <ele>98.040</ele>
        <time>2022-08-27T16:16:54Z</time>
      </trkpt>
      <trkpt lat="43.431352" lon="-4.872539">
        <ele>98.168</ele>
        <time>2022-08-27T16:16:56Z</time>
      </trkpt>
      <trkpt lat="43.431300" lon="-4.872549">
        <ele>98.142</ele>
        <time>2022-08-27T16:16:58Z</time>
      </trkpt>
      <trkpt lat="43.431247" lon="-4.872547">
        <ele>98.226</ele>
        <time>2022-08-27T16:17:00Z</time>
      </trkpt>
      <trkpt lat="43.431202" lon="-4.872549">
        <ele>98.209</ele>
        <time>2022-08-27T16:17:02Z</time>
      </trkpt>
      <trkpt lat="43.431154" lon="-4.872557">
        <ele>98.457</ele>
        <time>2022-08-27T16:17:04Z</time>
      </trkpt>
      <trkpt lat="43.431101" lon="-4.872565">
        <ele>98.997</ele>
        <time>2022-08-27T16:17:06Z</time>
      </trkpt>
      <trkpt lat="43.431044" lon="-4.872578">
        <ele>99.688</ele>
        <time>2022-08-27T16:17:08Z</time>
      </trkpt>
      <trkpt lat="43.430987" lon="-4.872581">
        <ele>100.636</ele>
        <time>2022-08-27T16:17:10Z</time>
      </trkpt>
      <trkpt lat="43.430927" lon="-4.872588">
        <ele>101.596</ele>
        <time>2022-08-27T16:17:12Z</time>
      </trkpt>
      <trkpt lat="43.430865" lon="-4.872590">
        <ele>101.592</ele>
        <time>2022-08-27T16:17:14Z</time>
      </trkpt>
      <trkpt lat="43.430808" lon="-4.872573">
        <ele>101.586</ele>
        <time>2022-08-27T16:17:16Z</time>
      </trkpt>
      <trkpt lat="43.430751" lon="-4.872545">
        <ele>101.393</ele>
        <time>2022-08-27T16:17:18Z</time>
      </trkpt>
      <trkpt lat="43.430693" lon="-4.872498">
        <ele>100.750</ele>
        <time>2022-08-27T16:17:20Z</time>
      </trkpt>
      <trkpt lat="43.430640" lon="-4.872438">
        <ele>99.978</ele>
        <time>2022-08-27T16:17:22Z</time>
      </trkpt>
      <trkpt lat="43.430592" lon="-4.872366">
        <ele>99.533</ele>
        <time>2022-08-27T16:17:24Z</time>
      </trkpt>
      <trkpt lat="43.430554" lon="-4.872284">
        <ele>98.926</ele>
        <time>2022-08-27T16:17:26Z</time>
      </trkpt>
      <trkpt lat="43.430516" lon="-4.872192">
        <ele>98.409</ele>
        <time>2022-08-27T16:17:28Z</time>
      </trkpt>
      <trkpt lat="43.430471" lon="-4.872090">
        <ele>97.838</ele>
        <time>2022-08-27T16:17:30Z</time>
      </trkpt>
      <trkpt lat="43.430423" lon="-4.871977">
        <ele>97.588</ele>
        <time>2022-08-27T16:17:32Z</time>
      </trkpt>
      <trkpt lat="43.430373" lon="-4.871852">
        <ele>97.199</ele>
        <time>2022-08-27T16:17:34Z</time>
      </trkpt>
      <trkpt lat="43.430346" lon="-4.871784">
        <ele>96.847</ele>
        <time>2022-08-27T16:17:35Z</time>
      </trkpt>
      <trkpt lat="43.430318" lon="-4.871714">
        <ele>96.417</ele>
        <time>2022-08-27T16:17:36Z</time>
      </trkpt>
      <trkpt lat="43.430290" lon="-4.871639">
        <ele>96.033</ele>
        <time>2022-08-27T16:17:37Z</time>
      </trkpt>
      <trkpt lat="43.430227" lon="-4.871479">
        <ele>95.667</ele>
        <time>2022-08-27T16:17:39Z</time>
      </trkpt>
      <trkpt lat="43.430194" lon="-4.871394">
        <ele>95.334</ele>
        <time>2022-08-27T16:17:40Z</time>
      </trkpt>
      <trkpt lat="43.430161" lon="-4.871304">
        <ele>94.951</ele>
        <time>2022-08-27T16:17:41Z</time>
      </trkpt>
      <trkpt lat="43.430088" lon="-4.871119">
        <ele>94.047</ele>
        <time>2022-08-27T16:17:43Z</time>
      </trkpt>
      <trkpt lat="43.430050" lon="-4.871024">
        <ele>93.729</ele>
        <time>2022-08-27T16:17:44Z</time>
      </trkpt>
      <trkpt lat="43.429970" lon="-4.870832">
        <ele>92.921</ele>
        <time>2022-08-27T16:17:46Z</time>
      </trkpt>
      <trkpt lat="43.429932" lon="-4.870735">
        <ele>92.509</ele>
        <time>2022-08-27T16:17:47Z</time>
      </trkpt>
      <trkpt lat="43.429894" lon="-4.870638">
        <ele>92.125</ele>
        <time>2022-08-27T16:17:48Z</time>
      </trkpt>
      <trkpt lat="43.429821" lon="-4.870445">
        <ele>91.275</ele>
        <time>2022-08-27T16:17:50Z</time>
      </trkpt>
      <trkpt lat="43.429781" lon="-4.870348">
        <ele>90.896</ele>
        <time>2022-08-27T16:17:51Z</time>
      </trkpt>
      <trkpt lat="43.429701" lon="-4.870155">
        <ele>90.734</ele>
        <time>2022-08-27T16:17:53Z</time>
      </trkpt>
      <trkpt lat="43.429623" lon="-4.869963">
        <ele>90.784</ele>
        <time>2022-08-27T16:17:55Z</time>
      </trkpt>
      <trkpt lat="43.429550" lon="-4.869780">
        <ele>90.580</ele>
        <time>2022-08-27T16:17:57Z</time>
      </trkpt>
      <trkpt lat="43.429477" lon="-4.869607">
        <ele>90.334</ele>
        <time>2022-08-27T16:17:59Z</time>
      </trkpt>
      <trkpt lat="43.429444" lon="-4.869522">
        <ele>90.121</ele>
        <time>2022-08-27T16:18:00Z</time>
      </trkpt>
      <trkpt lat="43.429411" lon="-4.869439">
        <ele>89.618</ele>
        <time>2022-08-27T16:18:01Z</time>
      </trkpt>
      <trkpt lat="43.429348" lon="-4.869274">
        <ele>88.945</ele>
        <time>2022-08-27T16:18:03Z</time>
      </trkpt>
      <trkpt lat="43.429278" lon="-4.869117">
        <ele>88.247</ele>
        <time>2022-08-27T16:18:05Z</time>
      </trkpt>
      <trkpt lat="43.429210" lon="-4.868964">
        <ele>87.911</ele>
        <time>2022-08-27T16:18:07Z</time>
      </trkpt>
      <trkpt lat="43.429177" lon="-4.868887">
        <ele>87.809</ele>
        <time>2022-08-27T16:18:08Z</time>
      </trkpt>
      <trkpt lat="43.429144" lon="-4.868812">
        <ele>87.615</ele>
        <time>2022-08-27T16:18:09Z</time>
      </trkpt>
      <trkpt lat="43.429111" lon="-4.868739">
        <ele>87.355</ele>
        <time>2022-08-27T16:18:10Z</time>
      </trkpt>
      <trkpt lat="43.429053" lon="-4.868597">
        <ele>87.046</ele>
        <time>2022-08-27T16:18:12Z</time>
      </trkpt>
      <trkpt lat="43.429025" lon="-4.868525">
        <ele>86.614</ele>
        <time>2022-08-27T16:18:13Z</time>
      </trkpt>
      <trkpt lat="43.428997" lon="-4.868457">
        <ele>86.244</ele>
        <time>2022-08-27T16:18:14Z</time>
      </trkpt>
      <trkpt lat="43.428939" lon="-4.868325">
        <ele>85.920</ele>
        <time>2022-08-27T16:18:16Z</time>
      </trkpt>
      <trkpt lat="43.428912" lon="-4.868257">
        <ele>85.864</ele>
        <time>2022-08-27T16:18:17Z</time>
      </trkpt>
      <trkpt lat="43.428884" lon="-4.868190">
        <ele>85.741</ele>
        <time>2022-08-27T16:18:18Z</time>
      </trkpt>
      <trkpt lat="43.428852" lon="-4.868122">
        <ele>85.658</ele>
        <time>2022-08-27T16:18:19Z</time>
      </trkpt>
      <trkpt lat="43.428792" lon="-4.867989">
        <ele>85.161</ele>
        <time>2022-08-27T16:18:21Z</time>
      </trkpt>
      <trkpt lat="43.428762" lon="-4.867924">
        <ele>84.621</ele>
        <time>2022-08-27T16:18:22Z</time>
      </trkpt>
      <trkpt lat="43.428732" lon="-4.867857">
        <ele>84.113</ele>
        <time>2022-08-27T16:18:23Z</time>
      </trkpt>
      <trkpt lat="43.428664" lon="-4.867709">
        <ele>83.709</ele>
        <time>2022-08-27T16:18:25Z</time>
      </trkpt>
      <trkpt lat="43.428632" lon="-4.867629">
        <ele>83.627</ele>
        <time>2022-08-27T16:18:26Z</time>
      </trkpt>
      <trkpt lat="43.428599" lon="-4.867547">
        <ele>83.557</ele>
        <time>2022-08-27T16:18:27Z</time>
      </trkpt>
      <trkpt lat="43.428532" lon="-4.867377">
        <ele>83.488</ele>
        <time>2022-08-27T16:18:29Z</time>
      </trkpt>
      <trkpt lat="43.428495" lon="-4.867287">
        <ele>82.686</ele>
        <time>2022-08-27T16:18:30Z</time>
      </trkpt>
      <trkpt lat="43.428462" lon="-4.867199">
        <ele>82.416</ele>
        <time>2022-08-27T16:18:31Z</time>
      </trkpt>
      <trkpt lat="43.428392" lon="-4.867016">
        <ele>81.722</ele>
        <time>2022-08-27T16:18:33Z</time>
      </trkpt>
      <trkpt lat="43.428324" lon="-4.866833">
        <ele>80.946</ele>
        <time>2022-08-27T16:18:35Z</time>
      </trkpt>
      <trkpt lat="43.428291" lon="-4.866741">
        <ele>80.773</ele>
        <time>2022-08-27T16:18:36Z</time>
      </trkpt>
      <trkpt lat="43.428261" lon="-4.866649">
        <ele>80.570</ele>
        <time>2022-08-27T16:18:37Z</time>
      </trkpt>
      <trkpt lat="43.428234" lon="-4.866554">
        <ele>80.187</ele>
        <time>2022-08-27T16:18:38Z</time>
      </trkpt>
      <trkpt lat="43.428207" lon="-4.866462">
        <ele>79.642</ele>
        <time>2022-08-27T16:18:39Z</time>
      </trkpt>
      <trkpt lat="43.428140" lon="-4.866280">
        <ele>78.726</ele>
        <time>2022-08-27T16:18:41Z</time>
      </trkpt>
      <trkpt lat="43.428073" lon="-4.866105">
        <ele>78.209</ele>
        <time>2022-08-27T16:18:43Z</time>
      </trkpt>
      <trkpt lat="43.428008" lon="-4.865933">
        <ele>77.869</ele>
        <time>2022-08-27T16:18:45Z</time>
      </trkpt>
      <trkpt lat="43.427975" lon="-4.865848">
        <ele>77.839</ele>
        <time>2022-08-27T16:18:46Z</time>
      </trkpt>
      <trkpt lat="43.427910" lon="-4.865681">
        <ele>77.970</ele>
        <time>2022-08-27T16:18:48Z</time>
      </trkpt>
      <trkpt lat="43.427877" lon="-4.865596">
        <ele>78.118</ele>
        <time>2022-08-27T16:18:49Z</time>
      </trkpt>
      <trkpt lat="43.427844" lon="-4.865511">
        <ele>78.288</ele>
        <time>2022-08-27T16:18:50Z</time>
      </trkpt>
      <trkpt lat="43.427779" lon="-4.865339">
        <ele>78.194</ele>
        <time>2022-08-27T16:18:52Z</time>
      </trkpt>
      <trkpt lat="43.427712" lon="-4.865169">
        <ele>77.958</ele>
        <time>2022-08-27T16:18:54Z</time>
      </trkpt>
      <trkpt lat="43.427679" lon="-4.865084">
        <ele>77.875</ele>
        <time>2022-08-27T16:18:55Z</time>
      </trkpt>
      <trkpt lat="43.427612" lon="-4.864912">
        <ele>77.662</ele>
        <time>2022-08-27T16:18:57Z</time>
      </trkpt>
      <trkpt lat="43.427544" lon="-4.864740">
        <ele>77.357</ele>
        <time>2022-08-27T16:18:59Z</time>
      </trkpt>
      <trkpt lat="43.427512" lon="-4.864657">
        <ele>77.100</ele>
        <time>2022-08-27T16:19:00Z</time>
      </trkpt>
      <trkpt lat="43.427480" lon="-4.864572">
        <ele>76.920</ele>
        <time>2022-08-27T16:19:01Z</time>
      </trkpt>
      <trkpt lat="43.427412" lon="-4.864409">
        <ele>76.709</ele>
        <time>2022-08-27T16:19:03Z</time>
      </trkpt>
      <trkpt lat="43.427379" lon="-4.864331">
        <ele>76.716</ele>
        <time>2022-08-27T16:19:04Z</time>
      </trkpt>
      <trkpt lat="43.427319" lon="-4.864178">
        <ele>76.886</ele>
        <time>2022-08-27T16:19:06Z</time>
      </trkpt>
      <trkpt lat="43.427292" lon="-4.864101">
        <ele>76.967</ele>
        <time>2022-08-27T16:19:07Z</time>
      </trkpt>
      <trkpt lat="43.427235" lon="-4.863953">
        <ele>76.995</ele>
        <time>2022-08-27T16:19:09Z</time>
      </trkpt>
      <trkpt lat="43.427207" lon="-4.863878">
        <ele>76.915</ele>
        <time>2022-08-27T16:19:10Z</time>
      </trkpt>
      <trkpt lat="43.427180" lon="-4.863805">
        <ele>76.871</ele>
        <time>2022-08-27T16:19:11Z</time>
      </trkpt>
      <trkpt lat="43.427152" lon="-4.863732">
        <ele>76.815</ele>
        <time>2022-08-27T16:19:12Z</time>
      </trkpt>
      <trkpt lat="43.427097" lon="-4.863585">
        <ele>76.532</ele>
        <time>2022-08-27T16:19:14Z</time>
      </trkpt>
      <trkpt lat="43.427042" lon="-4.863445">
        <ele>76.319</ele>
        <time>2022-08-27T16:19:16Z</time>
      </trkpt>
      <trkpt lat="43.427015" lon="-4.863377">
        <ele>76.393</ele>
        <time>2022-08-27T16:19:17Z</time>
      </trkpt>
      <trkpt lat="43.426965" lon="-4.863247">
        <ele>76.365</ele>
        <time>2022-08-27T16:19:19Z</time>
      </trkpt>
      <trkpt lat="43.426940" lon="-4.863185">
        <ele>76.121</ele>
        <time>2022-08-27T16:19:20Z</time>
      </trkpt>
      <trkpt lat="43.426890" lon="-4.863065">
        <ele>75.709</ele>
        <time>2022-08-27T16:19:22Z</time>
      </trkpt>
      <trkpt lat="43.426868" lon="-4.863008">
        <ele>75.680</ele>
        <time>2022-08-27T16:19:23Z</time>
      </trkpt>
      <trkpt lat="43.426830" lon="-4.862895">
        <ele>75.350</ele>
        <time>2022-08-27T16:19:25Z</time>
      </trkpt>
      <trkpt lat="43.426788" lon="-4.862800">
        <ele>75.231</ele>
        <time>2022-08-27T16:19:27Z</time>
      </trkpt>
      <trkpt lat="43.426743" lon="-4.862740">
        <ele>75.299</ele>
        <time>2022-08-27T16:19:29Z</time>
      </trkpt>
      <trkpt lat="43.426710" lon="-4.862792">
        <ele>76.659</ele>
        <time>2022-08-27T16:20:57Z</time>
      </trkpt>
      <trkpt lat="43.426682" lon="-4.862840">
        <ele>76.655</ele>
        <time>2022-08-27T16:21:00Z</time>
      </trkpt>
      <trkpt lat="43.426580" lon="-4.862930">
        <ele>76.619</ele>
        <time>2022-08-27T16:22:04Z</time>
      </trkpt>
      <trkpt lat="43.426763" lon="-4.862668">
        <ele>84.566</ele>
        <time>2022-08-27T16:44:13Z</time>
      </trkpt>
      <trkpt lat="43.426823" lon="-4.862700">
        <ele>84.623</ele>
        <time>2022-08-27T16:44:16Z</time>
      </trkpt>
      <trkpt lat="43.426885" lon="-4.862723">
        <ele>87.691</ele>
        <time>2022-08-27T16:44:18Z</time>
      </trkpt>
      <trkpt lat="43.426947" lon="-4.862710">
        <ele>86.881</ele>
        <time>2022-08-27T16:44:20Z</time>
      </trkpt>
      <trkpt lat="43.427022" lon="-4.862692">
        <ele>86.819</ele>
        <time>2022-08-27T16:44:22Z</time>
      </trkpt>
      <trkpt lat="43.427104" lon="-4.862685">
        <ele>86.409</ele>
        <time>2022-08-27T16:44:24Z</time>
      </trkpt>
      <trkpt lat="43.427176" lon="-4.862682">
        <ele>86.150</ele>
        <time>2022-08-27T16:44:26Z</time>
      </trkpt>
      <trkpt lat="43.427246" lon="-4.862665">
        <ele>85.640</ele>
        <time>2022-08-27T16:44:28Z</time>
      </trkpt>
      <trkpt lat="43.427323" lon="-4.862653">
        <ele>84.971</ele>
        <time>2022-08-27T16:44:30Z</time>
      </trkpt>
      <trkpt lat="43.427398" lon="-4.862643">
        <ele>84.389</ele>
        <time>2022-08-27T16:44:32Z</time>
      </trkpt>
      <trkpt lat="43.427470" lon="-4.862631">
        <ele>83.879</ele>
        <time>2022-08-27T16:44:34Z</time>
      </trkpt>
      <trkpt lat="43.427537" lon="-4.862629">
        <ele>83.335</ele>
        <time>2022-08-27T16:44:36Z</time>
      </trkpt>
      <trkpt lat="43.427604" lon="-4.862612">
        <ele>82.989</ele>
        <time>2022-08-27T16:44:38Z</time>
      </trkpt>
      <trkpt lat="43.427667" lon="-4.862600">
        <ele>82.616</ele>
        <time>2022-08-27T16:44:40Z</time>
      </trkpt>
      <trkpt lat="43.427730" lon="-4.862588">
        <ele>82.313</ele>
        <time>2022-08-27T16:44:42Z</time>
      </trkpt>
      <trkpt lat="43.427795" lon="-4.862573">
        <ele>82.396</ele>
        <time>2022-08-27T16:44:44Z</time>
      </trkpt>
      <trkpt lat="43.427865" lon="-4.862560">
        <ele>82.331</ele>
        <time>2022-08-27T16:44:46Z</time>
      </trkpt>
      <trkpt lat="43.427932" lon="-4.862543">
        <ele>82.324</ele>
        <time>2022-08-27T16:44:48Z</time>
      </trkpt>
      <trkpt lat="43.427997" lon="-4.862531">
        <ele>82.609</ele>
        <time>2022-08-27T16:44:50Z</time>
      </trkpt>
      <trkpt lat="43.428070" lon="-4.862523">
        <ele>82.890</ele>
        <time>2022-08-27T16:44:52Z</time>
      </trkpt>
      <trkpt lat="43.428145" lon="-4.862503">
        <ele>82.960</ele>
        <time>2022-08-27T16:44:54Z</time>
      </trkpt>
      <trkpt lat="43.428217" lon="-4.862488">
        <ele>82.921</ele>
        <time>2022-08-27T16:44:56Z</time>
      </trkpt>
      <trkpt lat="43.428292" lon="-4.862476">
        <ele>82.739</ele>
        <time>2022-08-27T16:44:58Z</time>
      </trkpt>
      <trkpt lat="43.428362" lon="-4.862464">
        <ele>82.579</ele>
        <time>2022-08-27T16:45:00Z</time>
      </trkpt>
      <trkpt lat="43.428432" lon="-4.862454">
        <ele>82.155</ele>
        <time>2022-08-27T16:45:02Z</time>
      </trkpt>
      <trkpt lat="43.428504" lon="-4.862444">
        <ele>81.999</ele>
        <time>2022-08-27T16:45:04Z</time>
      </trkpt>
      <trkpt lat="43.428581" lon="-4.862437">
        <ele>81.886</ele>
        <time>2022-08-27T16:45:06Z</time>
      </trkpt>
      <trkpt lat="43.428659" lon="-4.862425">
        <ele>81.843</ele>
        <time>2022-08-27T16:45:08Z</time>
      </trkpt>
      <trkpt lat="43.428737" lon="-4.862408">
        <ele>81.811</ele>
        <time>2022-08-27T16:45:10Z</time>
      </trkpt>
      <trkpt lat="43.428815" lon="-4.862398">
        <ele>81.921</ele>
        <time>2022-08-27T16:45:12Z</time>
      </trkpt>
      <trkpt lat="43.428897" lon="-4.862381">
        <ele>82.003</ele>
        <time>2022-08-27T16:45:14Z</time>
      </trkpt>
      <trkpt lat="43.428977" lon="-4.862358">
        <ele>82.109</ele>
        <time>2022-08-27T16:45:16Z</time>
      </trkpt>
      <trkpt lat="43.429059" lon="-4.862331">
        <ele>82.212</ele>
        <time>2022-08-27T16:45:18Z</time>
      </trkpt>
      <trkpt lat="43.429137" lon="-4.862296">
        <ele>82.292</ele>
        <time>2022-08-27T16:45:20Z</time>
      </trkpt>
      <trkpt lat="43.429222" lon="-4.862266">
        <ele>82.273</ele>
        <time>2022-08-27T16:45:22Z</time>
      </trkpt>
      <trkpt lat="43.429269" lon="-4.862249">
        <ele>82.161</ele>
        <time>2022-08-27T16:45:23Z</time>
      </trkpt>
      <trkpt lat="43.429359" lon="-4.862214">
        <ele>82.091</ele>
        <time>2022-08-27T16:45:25Z</time>
      </trkpt>
      <trkpt lat="43.429402" lon="-4.862196">
        <ele>81.937</ele>
        <time>2022-08-27T16:45:26Z</time>
      </trkpt>
      <trkpt lat="43.429484" lon="-4.862164">
        <ele>81.841</ele>
        <time>2022-08-27T16:45:28Z</time>
      </trkpt>
      <trkpt lat="43.429566" lon="-4.862139">
        <ele>81.878</ele>
        <time>2022-08-27T16:45:30Z</time>
      </trkpt>
      <trkpt lat="43.429651" lon="-4.862116">
        <ele>81.835</ele>
        <time>2022-08-27T16:45:32Z</time>
      </trkpt>
      <trkpt lat="43.429739" lon="-4.862086">
        <ele>81.965</ele>
        <time>2022-08-27T16:45:34Z</time>
      </trkpt>
      <trkpt lat="43.429834" lon="-4.862053">
        <ele>82.068</ele>
        <time>2022-08-27T16:45:36Z</time>
      </trkpt>
      <trkpt lat="43.429882" lon="-4.862040">
        <ele>82.014</ele>
        <time>2022-08-27T16:45:37Z</time>
      </trkpt>
      <trkpt lat="43.429932" lon="-4.862028">
        <ele>82.009</ele>
        <time>2022-08-27T16:45:38Z</time>
      </trkpt>
      <trkpt lat="43.430032" lon="-4.862000">
        <ele>82.017</ele>
        <time>2022-08-27T16:45:40Z</time>
      </trkpt>
      <trkpt lat="43.430079" lon="-4.861987">
        <ele>82.017</ele>
        <time>2022-08-27T16:45:41Z</time>
      </trkpt>
      <trkpt lat="43.430127" lon="-4.861975">
        <ele>82.068</ele>
        <time>2022-08-27T16:45:42Z</time>
      </trkpt>
      <trkpt lat="43.430175" lon="-4.861958">
        <ele>82.036</ele>
        <time>2022-08-27T16:45:43Z</time>
      </trkpt>
      <trkpt lat="43.430228" lon="-4.861943">
        <ele>82.316</ele>
        <time>2022-08-27T16:45:44Z</time>
      </trkpt>
      <trkpt lat="43.430336" lon="-4.861906">
        <ele>83.362</ele>
        <time>2022-08-27T16:45:46Z</time>
      </trkpt>
      <trkpt lat="43.430386" lon="-4.861884">
        <ele>83.546</ele>
        <time>2022-08-27T16:45:47Z</time>
      </trkpt>
      <trkpt lat="43.430469" lon="-4.861844">
        <ele>84.393</ele>
        <time>2022-08-27T16:45:49Z</time>
      </trkpt>
      <trkpt lat="43.430551" lon="-4.861824">
        <ele>85.120</ele>
        <time>2022-08-27T16:45:51Z</time>
      </trkpt>
      <trkpt lat="43.430626" lon="-4.861804">
        <ele>86.136</ele>
        <time>2022-08-27T16:45:53Z</time>
      </trkpt>
      <trkpt lat="43.430691" lon="-4.861779">
        <ele>86.917</ele>
        <time>2022-08-27T16:45:55Z</time>
      </trkpt>
      <trkpt lat="43.430751" lon="-4.861749">
        <ele>87.218</ele>
        <time>2022-08-27T16:45:57Z</time>
      </trkpt>
      <trkpt lat="43.430818" lon="-4.861714">
        <ele>87.309</ele>
        <time>2022-08-27T16:45:59Z</time>
      </trkpt>
      <trkpt lat="43.430896" lon="-4.861687">
        <ele>87.434</ele>
        <time>2022-08-27T16:46:01Z</time>
      </trkpt>
      <trkpt lat="43.430969" lon="-4.861664">
        <ele>87.744</ele>
        <time>2022-08-27T16:46:03Z</time>
      </trkpt>
      <trkpt lat="43.431039" lon="-4.861637">
        <ele>88.565</ele>
        <time>2022-08-27T16:46:05Z</time>
      </trkpt>
      <trkpt lat="43.431106" lon="-4.861610">
        <ele>89.323</ele>
        <time>2022-08-27T16:46:07Z</time>
      </trkpt>
      <trkpt lat="43.431164" lon="-4.861587">
        <ele>90.253</ele>
        <time>2022-08-27T16:46:09Z</time>
      </trkpt>
      <trkpt lat="43.431211" lon="-4.861564">
        <ele>90.549</ele>
        <time>2022-08-27T16:46:11Z</time>
      </trkpt>
      <trkpt lat="43.431258" lon="-4.861552">
        <ele>91.353</ele>
        <time>2022-08-27T16:46:13Z</time>
      </trkpt>
      <trkpt lat="43.431308" lon="-4.861527">
        <ele>91.520</ele>
        <time>2022-08-27T16:46:15Z</time>
      </trkpt>
      <trkpt lat="43.431358" lon="-4.861500">
        <ele>92.247</ele>
        <time>2022-08-27T16:46:17Z</time>
      </trkpt>
      <trkpt lat="43.431408" lon="-4.861467">
        <ele>92.751</ele>
        <time>2022-08-27T16:46:19Z</time>
      </trkpt>
      <trkpt lat="43.431450" lon="-4.861422">
        <ele>92.901</ele>
        <time>2022-08-27T16:46:21Z</time>
      </trkpt>
      <trkpt lat="43.431487" lon="-4.861369">
        <ele>93.011</ele>
        <time>2022-08-27T16:46:23Z</time>
      </trkpt>
      <trkpt lat="43.431517" lon="-4.861311">
        <ele>93.409</ele>
        <time>2022-08-27T16:46:25Z</time>
      </trkpt>
      <trkpt lat="43.431544" lon="-4.861243">
        <ele>93.886</ele>
        <time>2022-08-27T16:46:27Z</time>
      </trkpt>
      <trkpt lat="43.431571" lon="-4.861171">
        <ele>94.066</ele>
        <time>2022-08-27T16:46:29Z</time>
      </trkpt>
      <trkpt lat="43.431589" lon="-4.861096">
        <ele>94.477</ele>
        <time>2022-08-27T16:46:31Z</time>
      </trkpt>
      <trkpt lat="43.431601" lon="-4.861016">
        <ele>94.815</ele>
        <time>2022-08-27T16:46:33Z</time>
      </trkpt>
      <trkpt lat="43.431601" lon="-4.860941">
        <ele>94.885</ele>
        <time>2022-08-27T16:46:35Z</time>
      </trkpt>
      <trkpt lat="43.431604" lon="-4.860859">
        <ele>94.881</ele>
        <time>2022-08-27T16:46:37Z</time>
      </trkpt>
      <trkpt lat="43.431599" lon="-4.860777">
        <ele>94.855</ele>
        <time>2022-08-27T16:46:39Z</time>
      </trkpt>
      <trkpt lat="43.431591" lon="-4.860704">
        <ele>94.852</ele>
        <time>2022-08-27T16:46:41Z</time>
      </trkpt>
      <trkpt lat="43.431571" lon="-4.860642">
        <ele>94.999</ele>
        <time>2022-08-27T16:46:43Z</time>
      </trkpt>
      <trkpt lat="43.431524" lon="-4.860590">
        <ele>95.696</ele>
        <time>2022-08-27T16:46:45Z</time>
      </trkpt>
      <trkpt lat="43.431469" lon="-4.860552">
        <ele>96.431</ele>
        <time>2022-08-27T16:46:47Z</time>
      </trkpt>
      <trkpt lat="43.431411" lon="-4.860509">
        <ele>96.724</ele>
        <time>2022-08-27T16:46:49Z</time>
      </trkpt>
      <trkpt lat="43.431376" lon="-4.860436">
        <ele>96.709</ele>
        <time>2022-08-27T16:46:51Z</time>
      </trkpt>
      <trkpt lat="43.431366" lon="-4.860344">
        <ele>97.080</ele>
        <time>2022-08-27T16:46:53Z</time>
      </trkpt>
      <trkpt lat="43.431379" lon="-4.860259">
        <ele>97.470</ele>
        <time>2022-08-27T16:46:55Z</time>
      </trkpt>
      <trkpt lat="43.431431" lon="-4.860191">
        <ele>97.871</ele>
        <time>2022-08-27T16:46:57Z</time>
      </trkpt>
      <trkpt lat="43.431484" lon="-4.860136">
        <ele>98.539</ele>
        <time>2022-08-27T16:46:59Z</time>
      </trkpt>
      <trkpt lat="43.431527" lon="-4.860078">
        <ele>98.899</ele>
        <time>2022-08-27T16:47:01Z</time>
      </trkpt>
      <trkpt lat="43.431562" lon="-4.860005">
        <ele>99.345</ele>
        <time>2022-08-27T16:47:03Z</time>
      </trkpt>
      <trkpt lat="43.431587" lon="-4.859920">
        <ele>99.689</ele>
        <time>2022-08-27T16:47:05Z</time>
      </trkpt>
      <trkpt lat="43.431612" lon="-4.859837">
        <ele>99.686</ele>
        <time>2022-08-27T16:47:07Z</time>
      </trkpt>
      <trkpt lat="43.431645" lon="-4.859762">
        <ele>99.623</ele>
        <time>2022-08-27T16:47:09Z</time>
      </trkpt>
      <trkpt lat="43.431678" lon="-4.859697">
        <ele>99.369</ele>
        <time>2022-08-27T16:47:11Z</time>
      </trkpt>
      <trkpt lat="43.431720" lon="-4.859639">
        <ele>98.704</ele>
        <time>2022-08-27T16:47:13Z</time>
      </trkpt>
      <trkpt lat="43.431762" lon="-4.859592">
        <ele>98.724</ele>
        <time>2022-08-27T16:47:15Z</time>
      </trkpt>
      <trkpt lat="43.431810" lon="-4.859550">
        <ele>98.609</ele>
        <time>2022-08-27T16:47:17Z</time>
      </trkpt>
      <trkpt lat="43.431865" lon="-4.859517">
        <ele>98.457</ele>
        <time>2022-08-27T16:47:19Z</time>
      </trkpt>
      <trkpt lat="43.431928" lon="-4.859495">
        <ele>98.287</ele>
        <time>2022-08-27T16:47:21Z</time>
      </trkpt>
      <trkpt lat="43.431991" lon="-4.859478">
        <ele>97.768</ele>
        <time>2022-08-27T16:47:23Z</time>
      </trkpt>
      <trkpt lat="43.432058" lon="-4.859471">
        <ele>97.426</ele>
        <time>2022-08-27T16:47:25Z</time>
      </trkpt>
      <trkpt lat="43.432133" lon="-4.859473">
        <ele>97.216</ele>
        <time>2022-08-27T16:47:27Z</time>
      </trkpt>
      <trkpt lat="43.432211" lon="-4.859480">
        <ele>96.412</ele>
        <time>2022-08-27T16:47:29Z</time>
      </trkpt>
      <trkpt lat="43.432298" lon="-4.859492">
        <ele>95.756</ele>
        <time>2022-08-27T16:47:31Z</time>
      </trkpt>
      <trkpt lat="43.432390" lon="-4.859502">
        <ele>95.233</ele>
        <time>2022-08-27T16:47:33Z</time>
      </trkpt>
      <trkpt lat="43.432482" lon="-4.859505">
        <ele>94.830</ele>
        <time>2022-08-27T16:47:35Z</time>
      </trkpt>
      <trkpt lat="43.432577" lon="-4.859485">
        <ele>94.365</ele>
        <time>2022-08-27T16:47:37Z</time>
      </trkpt>
      <trkpt lat="43.432625" lon="-4.859467">
        <ele>94.368</ele>
        <time>2022-08-27T16:47:38Z</time>
      </trkpt>
      <trkpt lat="43.432733" lon="-4.859409">
        <ele>94.214</ele>
        <time>2022-08-27T16:47:40Z</time>
      </trkpt>
      <trkpt lat="43.432838" lon="-4.859321">
        <ele>93.709</ele>
        <time>2022-08-27T16:47:42Z</time>
      </trkpt>
      <trkpt lat="43.432888" lon="-4.859268">
        <ele>93.667</ele>
        <time>2022-08-27T16:47:43Z</time>
      </trkpt>
      <trkpt lat="43.432978" lon="-4.859150">
        <ele>93.467</ele>
        <time>2022-08-27T16:47:45Z</time>
      </trkpt>
      <trkpt lat="43.433076" lon="-4.859022">
        <ele>92.888</ele>
        <time>2022-08-27T16:47:47Z</time>
      </trkpt>
      <trkpt lat="43.433126" lon="-4.858957">
        <ele>92.766</ele>
        <time>2022-08-27T16:47:48Z</time>
      </trkpt>
      <trkpt lat="43.433224" lon="-4.858825">
        <ele>92.336</ele>
        <time>2022-08-27T16:47:50Z</time>
      </trkpt>
      <trkpt lat="43.433272" lon="-4.858752">
        <ele>91.882</ele>
        <time>2022-08-27T16:47:51Z</time>
      </trkpt>
      <trkpt lat="43.433377" lon="-4.858607">
        <ele>91.386</ele>
        <time>2022-08-27T16:47:53Z</time>
      </trkpt>
      <trkpt lat="43.433432" lon="-4.858535">
        <ele>91.063</ele>
        <time>2022-08-27T16:47:54Z</time>
      </trkpt>
      <trkpt lat="43.433484" lon="-4.858463">
        <ele>90.430</ele>
        <time>2022-08-27T16:47:55Z</time>
      </trkpt>
      <trkpt lat="43.433591" lon="-4.858313">
        <ele>88.985</ele>
        <time>2022-08-27T16:47:57Z</time>
      </trkpt>
      <trkpt lat="43.433714" lon="-4.858158">
        <ele>87.889</ele>
        <time>2022-08-27T16:47:59Z</time>
      </trkpt>
      <trkpt lat="43.433771" lon="-4.858088">
        <ele>87.117</ele>
        <time>2022-08-27T16:48:00Z</time>
      </trkpt>
      <trkpt lat="43.433824" lon="-4.858006">
        <ele>86.209</ele>
        <time>2022-08-27T16:48:01Z</time>
      </trkpt>
      <trkpt lat="43.433922" lon="-4.857821">
        <ele>84.619</ele>
        <time>2022-08-27T16:48:03Z</time>
      </trkpt>
      <trkpt lat="43.433955" lon="-4.857708">
        <ele>84.299</ele>
        <time>2022-08-27T16:48:04Z</time>
      </trkpt>
      <trkpt lat="43.433973" lon="-4.857586">
        <ele>84.070</ele>
        <time>2022-08-27T16:48:05Z</time>
      </trkpt>
      <trkpt lat="43.434005" lon="-4.857334">
        <ele>83.468</ele>
        <time>2022-08-27T16:48:07Z</time>
      </trkpt>
      <trkpt lat="43.434025" lon="-4.857209">
        <ele>83.398</ele>
        <time>2022-08-27T16:48:08Z</time>
      </trkpt>
      <trkpt lat="43.434068" lon="-4.856974">
        <ele>83.214</ele>
        <time>2022-08-27T16:48:10Z</time>
      </trkpt>
      <trkpt lat="43.434090" lon="-4.856862">
        <ele>83.458</ele>
        <time>2022-08-27T16:48:11Z</time>
      </trkpt>
      <trkpt lat="43.434137" lon="-4.856647">
        <ele>83.885</ele>
        <time>2022-08-27T16:48:13Z</time>
      </trkpt>
      <trkpt lat="43.434175" lon="-4.856447">
        <ele>84.012</ele>
        <time>2022-08-27T16:48:15Z</time>
      </trkpt>
      <trkpt lat="43.434180" lon="-4.856355">
        <ele>84.276</ele>
        <time>2022-08-27T16:48:16Z</time>
      </trkpt>
      <trkpt lat="43.434190" lon="-4.856190">
        <ele>84.990</ele>
        <time>2022-08-27T16:48:18Z</time>
      </trkpt>
      <trkpt lat="43.434185" lon="-4.856047">
        <ele>85.219</ele>
        <time>2022-08-27T16:48:20Z</time>
      </trkpt>
      <trkpt lat="43.434173" lon="-4.855912">
        <ele>86.009</ele>
        <time>2022-08-27T16:48:22Z</time>
      </trkpt>
      <trkpt lat="43.434155" lon="-4.855789">
        <ele>86.218</ele>
        <time>2022-08-27T16:48:24Z</time>
      </trkpt>
      <trkpt lat="43.434133" lon="-4.855686">
        <ele>86.768</ele>
        <time>2022-08-27T16:48:26Z</time>
      </trkpt>
      <trkpt lat="43.434106" lon="-4.855586">
        <ele>87.119</ele>
        <time>2022-08-27T16:48:28Z</time>
      </trkpt>
      <trkpt lat="43.434074" lon="-4.855489">
        <ele>88.717</ele>
        <time>2022-08-27T16:48:30Z</time>
      </trkpt>
      <trkpt lat="43.434047" lon="-4.855381">
        <ele>89.837</ele>
        <time>2022-08-27T16:48:32Z</time>
      </trkpt>
      <trkpt lat="43.434037" lon="-4.855263">
        <ele>91.693</ele>
        <time>2022-08-27T16:48:34Z</time>
      </trkpt>
      <trkpt lat="43.434027" lon="-4.855160">
        <ele>92.717</ele>
        <time>2022-08-27T16:48:36Z</time>
      </trkpt>
      <trkpt lat="43.434029" lon="-4.855038">
        <ele>93.594</ele>
        <time>2022-08-27T16:48:38Z</time>
      </trkpt>
      <trkpt lat="43.434036" lon="-4.854906">
        <ele>93.941</ele>
        <time>2022-08-27T16:48:40Z</time>
      </trkpt>
      <trkpt lat="43.434054" lon="-4.854766">
        <ele>94.212</ele>
        <time>2022-08-27T16:48:42Z</time>
      </trkpt>
      <trkpt lat="43.434074" lon="-4.854613">
        <ele>93.932</ele>
        <time>2022-08-27T16:48:44Z</time>
      </trkpt>
      <trkpt lat="43.434084" lon="-4.854535">
        <ele>93.405</ele>
        <time>2022-08-27T16:48:45Z</time>
      </trkpt>
      <trkpt lat="43.434104" lon="-4.854382">
        <ele>92.309</ele>
        <time>2022-08-27T16:48:47Z</time>
      </trkpt>
      <trkpt lat="43.434117" lon="-4.854222">
        <ele>91.422</ele>
        <time>2022-08-27T16:48:49Z</time>
      </trkpt>
      <trkpt lat="43.434135" lon="-4.854067">
        <ele>90.522</ele>
        <time>2022-08-27T16:48:51Z</time>
      </trkpt>
      <trkpt lat="43.434147" lon="-4.853990">
        <ele>89.823</ele>
        <time>2022-08-27T16:48:52Z</time>
      </trkpt>
      <trkpt lat="43.434159" lon="-4.853915">
        <ele>89.281</ele>
        <time>2022-08-27T16:48:53Z</time>
      </trkpt>
      <trkpt lat="43.434196" lon="-4.853758">
        <ele>88.281</ele>
        <time>2022-08-27T16:48:55Z</time>
      </trkpt>
      <trkpt lat="43.434223" lon="-4.853683">
        <ele>87.867</ele>
        <time>2022-08-27T16:48:56Z</time>
      </trkpt>
      <trkpt lat="43.434298" lon="-4.853541">
        <ele>87.071</ele>
        <time>2022-08-27T16:48:58Z</time>
      </trkpt>
      <trkpt lat="43.434348" lon="-4.853484">
        <ele>86.438</ele>
        <time>2022-08-27T16:48:59Z</time>
      </trkpt>
      <trkpt lat="43.434456" lon="-4.853394">
        <ele>86.055</ele>
        <time>2022-08-27T16:49:01Z</time>
      </trkpt>
      <trkpt lat="43.434508" lon="-4.853349">
        <ele>85.548</ele>
        <time>2022-08-27T16:49:02Z</time>
      </trkpt>
      <trkpt lat="43.434563" lon="-4.853304">
        <ele>85.361</ele>
        <time>2022-08-27T16:49:03Z</time>
      </trkpt>
      <trkpt lat="43.434673" lon="-4.853212">
        <ele>85.317</ele>
        <time>2022-08-27T16:49:05Z</time>
      </trkpt>
      <trkpt lat="43.434718" lon="-4.853159">
        <ele>85.109</ele>
        <time>2022-08-27T16:49:06Z</time>
      </trkpt>
      <trkpt lat="43.434785" lon="-4.853027">
        <ele>84.645</ele>
        <time>2022-08-27T16:49:08Z</time>
      </trkpt>
      <trkpt lat="43.434822" lon="-4.852875">
        <ele>83.875</ele>
        <time>2022-08-27T16:49:10Z</time>
      </trkpt>
      <trkpt lat="43.434837" lon="-4.852712">
        <ele>83.876</ele>
        <time>2022-08-27T16:49:12Z</time>
      </trkpt>
      <trkpt lat="43.434842" lon="-4.852545">
        <ele>84.414</ele>
        <time>2022-08-27T16:49:14Z</time>
      </trkpt>
      <trkpt lat="43.434844" lon="-4.852378">
        <ele>84.424</ele>
        <time>2022-08-27T16:49:16Z</time>
      </trkpt>
      <trkpt lat="43.434844" lon="-4.852293">
        <ele>84.460</ele>
        <time>2022-08-27T16:49:17Z</time>
      </trkpt>
      <trkpt lat="43.434842" lon="-4.852121">
        <ele>84.064</ele>
        <time>2022-08-27T16:49:19Z</time>
      </trkpt>
      <trkpt lat="43.434845" lon="-4.852036">
        <ele>83.851</ele>
        <time>2022-08-27T16:49:20Z</time>
      </trkpt>
      <trkpt lat="43.434850" lon="-4.851861">
        <ele>83.538</ele>
        <time>2022-08-27T16:49:22Z</time>
      </trkpt>
      <trkpt lat="43.434845" lon="-4.851774">
        <ele>83.538</ele>
        <time>2022-08-27T16:49:23Z</time>
      </trkpt>
      <trkpt lat="43.434847" lon="-4.851687">
        <ele>83.570</ele>
        <time>2022-08-27T16:49:24Z</time>
      </trkpt>
      <trkpt lat="43.434849" lon="-4.851512">
        <ele>82.817</ele>
        <time>2022-08-27T16:49:26Z</time>
      </trkpt>
      <trkpt lat="43.434856" lon="-4.851422">
        <ele>82.209</ele>
        <time>2022-08-27T16:49:27Z</time>
      </trkpt>
      <trkpt lat="43.434864" lon="-4.851330">
        <ele>82.054</ele>
        <time>2022-08-27T16:49:28Z</time>
      </trkpt>
      <trkpt lat="43.434874" lon="-4.851143">
        <ele>82.014</ele>
        <time>2022-08-27T16:49:30Z</time>
      </trkpt>
      <trkpt lat="43.434879" lon="-4.851046">
        <ele>81.815</ele>
        <time>2022-08-27T16:49:31Z</time>
      </trkpt>
      <trkpt lat="43.434884" lon="-4.850834">
        <ele>81.733</ele>
        <time>2022-08-27T16:49:33Z</time>
      </trkpt>
      <trkpt lat="43.434889" lon="-4.850621">
        <ele>81.393</ele>
        <time>2022-08-27T16:49:35Z</time>
      </trkpt>
      <trkpt lat="43.434894" lon="-4.850399">
        <ele>80.689</ele>
        <time>2022-08-27T16:49:37Z</time>
      </trkpt>
      <trkpt lat="43.434897" lon="-4.850289">
        <ele>80.213</ele>
        <time>2022-08-27T16:49:38Z</time>
      </trkpt>
      <trkpt lat="43.434899" lon="-4.850174">
        <ele>79.920</ele>
        <time>2022-08-27T16:49:39Z</time>
      </trkpt>
      <trkpt lat="43.434901" lon="-4.850062">
        <ele>79.787</ele>
        <time>2022-08-27T16:49:40Z</time>
      </trkpt>
      <trkpt lat="43.434906" lon="-4.849839">
        <ele>79.171</ele>
        <time>2022-08-27T16:49:42Z</time>
      </trkpt>
      <trkpt lat="43.434909" lon="-4.849731">
        <ele>78.941</ele>
        <time>2022-08-27T16:49:43Z</time>
      </trkpt>
      <trkpt lat="43.434914" lon="-4.849518">
        <ele>78.715</ele>
        <time>2022-08-27T16:49:45Z</time>
      </trkpt>
      <trkpt lat="43.434917" lon="-4.849313">
        <ele>78.709</ele>
        <time>2022-08-27T16:49:47Z</time>
      </trkpt>
      <trkpt lat="43.434920" lon="-4.849215">
        <ele>78.738</ele>
        <time>2022-08-27T16:49:48Z</time>
      </trkpt>
      <trkpt lat="43.434925" lon="-4.849030">
        <ele>78.598</ele>
        <time>2022-08-27T16:49:50Z</time>
      </trkpt>
      <trkpt lat="43.434930" lon="-4.848847">
        <ele>78.469</ele>
        <time>2022-08-27T16:49:52Z</time>
      </trkpt>
      <trkpt lat="43.434928" lon="-4.848757">
        <ele>78.417</ele>
        <time>2022-08-27T16:49:53Z</time>
      </trkpt>
      <trkpt lat="43.434941" lon="-4.848580">
        <ele>78.577</ele>
        <time>2022-08-27T16:49:55Z</time>
      </trkpt>
      <trkpt lat="43.434944" lon="-4.848490">
        <ele>78.783</ele>
        <time>2022-08-27T16:49:56Z</time>
      </trkpt>
      <trkpt lat="43.434957" lon="-4.848308">
        <ele>78.827</ele>
        <time>2022-08-27T16:49:58Z</time>
      </trkpt>
      <trkpt lat="43.434965" lon="-4.848128">
        <ele>79.154</ele>
        <time>2022-08-27T16:50:00Z</time>
      </trkpt>
      <trkpt lat="43.434968" lon="-4.848043">
        <ele>79.161</ele>
        <time>2022-08-27T16:50:01Z</time>
      </trkpt>
      <trkpt lat="43.434975" lon="-4.847956">
        <ele>79.113</ele>
        <time>2022-08-27T16:50:02Z</time>
      </trkpt>
      <trkpt lat="43.434983" lon="-4.847868">
        <ele>78.943</ele>
        <time>2022-08-27T16:50:03Z</time>
      </trkpt>
      <trkpt lat="43.435010" lon="-4.847686">
        <ele>78.107</ele>
        <time>2022-08-27T16:50:05Z</time>
      </trkpt>
      <trkpt lat="43.435025" lon="-4.847593">
        <ele>77.409</ele>
        <time>2022-08-27T16:50:06Z</time>
      </trkpt>
      <trkpt lat="43.435043" lon="-4.847498">
        <ele>76.862</ele>
        <time>2022-08-27T16:50:07Z</time>
      </trkpt>
      <trkpt lat="43.435078" lon="-4.847300">
        <ele>75.182</ele>
        <time>2022-08-27T16:50:09Z</time>
      </trkpt>
      <trkpt lat="43.435113" lon="-4.847098">
        <ele>74.243</ele>
        <time>2022-08-27T16:50:11Z</time>
      </trkpt>
      <trkpt lat="43.435131" lon="-4.847000">
        <ele>73.781</ele>
        <time>2022-08-27T16:50:12Z</time>
      </trkpt>
      <trkpt lat="43.435164" lon="-4.846800">
        <ele>73.061</ele>
        <time>2022-08-27T16:50:14Z</time>
      </trkpt>
      <trkpt lat="43.435181" lon="-4.846702">
        <ele>72.747</ele>
        <time>2022-08-27T16:50:15Z</time>
      </trkpt>
      <trkpt lat="43.435196" lon="-4.846605">
        <ele>72.551</ele>
        <time>2022-08-27T16:50:16Z</time>
      </trkpt>
      <trkpt lat="43.435214" lon="-4.846507">
        <ele>72.348</ele>
        <time>2022-08-27T16:50:17Z</time>
      </trkpt>
      <trkpt lat="43.435249" lon="-4.846305">
        <ele>71.865</ele>
        <time>2022-08-27T16:50:19Z</time>
      </trkpt>
      <trkpt lat="43.435289" lon="-4.846102">
        <ele>71.655</ele>
        <time>2022-08-27T16:50:21Z</time>
      </trkpt>
      <trkpt lat="43.435322" lon="-4.845899">
        <ele>71.607</ele>
        <time>2022-08-27T16:50:23Z</time>
      </trkpt>
      <trkpt lat="43.435339" lon="-4.845799">
        <ele>71.617</ele>
        <time>2022-08-27T16:50:24Z</time>
      </trkpt>
      <trkpt lat="43.435376" lon="-4.845607">
        <ele>71.709</ele>
        <time>2022-08-27T16:50:26Z</time>
      </trkpt>
      <trkpt lat="43.435418" lon="-4.845432">
        <ele>71.656</ele>
        <time>2022-08-27T16:50:28Z</time>
      </trkpt>
      <trkpt lat="43.435436" lon="-4.845344">
        <ele>71.616</ele>
        <time>2022-08-27T16:50:29Z</time>
      </trkpt>
      <trkpt lat="43.435454" lon="-4.845252">
        <ele>71.787</ele>
        <time>2022-08-27T16:50:30Z</time>
      </trkpt>
      <trkpt lat="43.435487" lon="-4.845070">
        <ele>71.835</ele>
        <time>2022-08-27T16:50:32Z</time>
      </trkpt>
      <trkpt lat="43.435504" lon="-4.844980">
        <ele>71.785</ele>
        <time>2022-08-27T16:50:33Z</time>
      </trkpt>
      <trkpt lat="43.435542" lon="-4.844792">
        <ele>71.361</ele>
        <time>2022-08-27T16:50:35Z</time>
      </trkpt>
      <trkpt lat="43.435559" lon="-4.844695">
        <ele>70.975</ele>
        <time>2022-08-27T16:50:36Z</time>
      </trkpt>
      <trkpt lat="43.435599" lon="-4.844502">
        <ele>69.922</ele>
        <time>2022-08-27T16:50:38Z</time>
      </trkpt>
      <trkpt lat="43.435636" lon="-4.844302">
        <ele>68.719</ele>
        <time>2022-08-27T16:50:40Z</time>
      </trkpt>
      <trkpt lat="43.435663" lon="-4.844202">
        <ele>68.119</ele>
        <time>2022-08-27T16:50:41Z</time>
      </trkpt>
      <trkpt lat="43.435713" lon="-4.844000">
        <ele>67.309</ele>
        <time>2022-08-27T16:50:43Z</time>
      </trkpt>
      <trkpt lat="43.435766" lon="-4.843798">
        <ele>67.019</ele>
        <time>2022-08-27T16:50:45Z</time>
      </trkpt>
      <trkpt lat="43.435791" lon="-4.843693">
        <ele>66.909</ele>
        <time>2022-08-27T16:50:46Z</time>
      </trkpt>
      <trkpt lat="43.435841" lon="-4.843481">
        <ele>66.512</ele>
        <time>2022-08-27T16:50:48Z</time>
      </trkpt>
      <trkpt lat="43.435866" lon="-4.843374">
        <ele>66.092</ele>
        <time>2022-08-27T16:50:49Z</time>
      </trkpt>
      <trkpt lat="43.435893" lon="-4.843266">
        <ele>65.533</ele>
        <time>2022-08-27T16:50:50Z</time>
      </trkpt>
      <trkpt lat="43.435923" lon="-4.843158">
        <ele>65.111</ele>
        <time>2022-08-27T16:50:51Z</time>
      </trkpt>
      <trkpt lat="43.435978" lon="-4.842940">
        <ele>63.781</ele>
        <time>2022-08-27T16:50:53Z</time>
      </trkpt>
      <trkpt lat="43.436035" lon="-4.842715">
        <ele>62.357</ele>
        <time>2022-08-27T16:50:55Z</time>
      </trkpt>
      <trkpt lat="43.436088" lon="-4.842487">
        <ele>60.841</ele>
        <time>2022-08-27T16:50:57Z</time>
      </trkpt>
      <trkpt lat="43.436111" lon="-4.842375">
        <ele>60.038</ele>
        <time>2022-08-27T16:50:58Z</time>
      </trkpt>
      <trkpt lat="43.436138" lon="-4.842267">
        <ele>59.355</ele>
        <time>2022-08-27T16:50:59Z</time>
      </trkpt>
      <trkpt lat="43.436188" lon="-4.842039">
        <ele>58.455</ele>
        <time>2022-08-27T16:51:01Z</time>
      </trkpt>
      <trkpt lat="43.436238" lon="-4.841816">
        <ele>57.707</ele>
        <time>2022-08-27T16:51:03Z</time>
      </trkpt>
      <trkpt lat="43.436288" lon="-4.841601">
        <ele>57.217</ele>
        <time>2022-08-27T16:51:05Z</time>
      </trkpt>
      <trkpt lat="43.436313" lon="-4.841494">
        <ele>56.909</ele>
        <time>2022-08-27T16:51:06Z</time>
      </trkpt>
      <trkpt lat="43.436336" lon="-4.841387">
        <ele>56.676</ele>
        <time>2022-08-27T16:51:07Z</time>
      </trkpt>
      <trkpt lat="43.436384" lon="-4.841179">
        <ele>55.886</ele>
        <time>2022-08-27T16:51:09Z</time>
      </trkpt>
      <trkpt lat="43.436407" lon="-4.841074">
        <ele>55.367</ele>
        <time>2022-08-27T16:51:10Z</time>
      </trkpt>
      <trkpt lat="43.436430" lon="-4.840967">
        <ele>54.855</ele>
        <time>2022-08-27T16:51:11Z</time>
      </trkpt>
      <trkpt lat="43.436452" lon="-4.840862">
        <ele>54.555</ele>
        <time>2022-08-27T16:51:12Z</time>
      </trkpt>
      <trkpt lat="43.436499" lon="-4.840652">
        <ele>54.171</ele>
        <time>2022-08-27T16:51:14Z</time>
      </trkpt>
      <trkpt lat="43.436549" lon="-4.840450">
        <ele>53.445</ele>
        <time>2022-08-27T16:51:16Z</time>
      </trkpt>
      <trkpt lat="43.436597" lon="-4.840247">
        <ele>53.052</ele>
        <time>2022-08-27T16:51:18Z</time>
      </trkpt>
      <trkpt lat="43.436620" lon="-4.840150">
        <ele>53.069</ele>
        <time>2022-08-27T16:51:19Z</time>
      </trkpt>
      <trkpt lat="43.436645" lon="-4.840055">
        <ele>52.947</ele>
        <time>2022-08-27T16:51:20Z</time>
      </trkpt>
      <trkpt lat="43.436693" lon="-4.839868">
        <ele>52.629</ele>
        <time>2022-08-27T16:51:22Z</time>
      </trkpt>
      <trkpt lat="43.436741" lon="-4.839685">
        <ele>52.621</ele>
        <time>2022-08-27T16:51:24Z</time>
      </trkpt>
      <trkpt lat="43.436756" lon="-4.839592">
        <ele>52.609</ele>
        <time>2022-08-27T16:51:25Z</time>
      </trkpt>
      <trkpt lat="43.436746" lon="-4.839414">
        <ele>52.635</ele>
        <time>2022-08-27T16:51:27Z</time>
      </trkpt>
      <trkpt lat="43.436674" lon="-4.839261">
        <ele>53.195</ele>
        <time>2022-08-27T16:51:29Z</time>
      </trkpt>
      <trkpt lat="43.436591" lon="-4.839111">
        <ele>53.686</ele>
        <time>2022-08-27T16:51:31Z</time>
      </trkpt>
      <trkpt lat="43.436508" lon="-4.838966">
        <ele>54.484</ele>
        <time>2022-08-27T16:51:33Z</time>
      </trkpt>
      <trkpt lat="43.436470" lon="-4.838894">
        <ele>54.654</ele>
        <time>2022-08-27T16:51:34Z</time>
      </trkpt>
      <trkpt lat="43.436395" lon="-4.838757">
        <ele>55.140</ele>
        <time>2022-08-27T16:51:36Z</time>
      </trkpt>
      <trkpt lat="43.436360" lon="-4.838689">
        <ele>55.234</ele>
        <time>2022-08-27T16:51:37Z</time>
      </trkpt>
      <trkpt lat="43.436287" lon="-4.838559">
        <ele>55.221</ele>
        <time>2022-08-27T16:51:39Z</time>
      </trkpt>
      <trkpt lat="43.436215" lon="-4.838432">
        <ele>55.298</ele>
        <time>2022-08-27T16:51:41Z</time>
      </trkpt>
      <trkpt lat="43.436180" lon="-4.838367">
        <ele>55.141</ele>
        <time>2022-08-27T16:51:42Z</time>
      </trkpt>
      <trkpt lat="43.436143" lon="-4.838300">
        <ele>55.181</ele>
        <time>2022-08-27T16:51:43Z</time>
      </trkpt>
      <trkpt lat="43.436071" lon="-4.838165">
        <ele>55.109</ele>
        <time>2022-08-27T16:51:45Z</time>
      </trkpt>
      <trkpt lat="43.436036" lon="-4.838102">
        <ele>55.109</ele>
        <time>2022-08-27T16:51:46Z</time>
      </trkpt>
      <trkpt lat="43.436001" lon="-4.838037">
        <ele>55.155</ele>
        <time>2022-08-27T16:51:47Z</time>
      </trkpt>
      <trkpt lat="43.435938" lon="-4.837910">
        <ele>55.145</ele>
        <time>2022-08-27T16:51:49Z</time>
      </trkpt>
      <trkpt lat="43.435908" lon="-4.837848">
        <ele>55.016</ele>
        <time>2022-08-27T16:51:50Z</time>
      </trkpt>
      <trkpt lat="43.435838" lon="-4.837718">
        <ele>54.984</ele>
        <time>2022-08-27T16:51:52Z</time>
      </trkpt>
      <trkpt lat="43.435763" lon="-4.837595">
        <ele>54.924</ele>
        <time>2022-08-27T16:51:54Z</time>
      </trkpt>
      <trkpt lat="43.435685" lon="-4.837475">
        <ele>54.920</ele>
        <time>2022-08-27T16:51:56Z</time>
      </trkpt>
      <trkpt lat="43.435612" lon="-4.837365">
        <ele>54.834</ele>
        <time>2022-08-27T16:51:58Z</time>
      </trkpt>
      <trkpt lat="43.435577" lon="-4.837315">
        <ele>54.761</ele>
        <time>2022-08-27T16:51:59Z</time>
      </trkpt>
      <trkpt lat="43.435505" lon="-4.837215">
        <ele>54.838</ele>
        <time>2022-08-27T16:52:01Z</time>
      </trkpt>
      <trkpt lat="43.435472" lon="-4.837168">
        <ele>54.753</ele>
        <time>2022-08-27T16:52:02Z</time>
      </trkpt>
      <trkpt lat="43.435397" lon="-4.837086">
        <ele>54.604</ele>
        <time>2022-08-27T16:52:04Z</time>
      </trkpt>
      <trkpt lat="43.435325" lon="-4.837008">
        <ele>54.414</ele>
        <time>2022-08-27T16:52:06Z</time>
      </trkpt>
      <trkpt lat="43.435248" lon="-4.836943">
        <ele>54.209</ele>
        <time>2022-08-27T16:52:08Z</time>
      </trkpt>
      <trkpt lat="43.435171" lon="-4.836895">
        <ele>54.276</ele>
        <time>2022-08-27T16:52:10Z</time>
      </trkpt>
      <trkpt lat="43.435094" lon="-4.836845">
        <ele>53.776</ele>
        <time>2022-08-27T16:52:11Z</time>
      </trkpt>
      <trkpt lat="43.435054" lon="-4.836813">
        <ele>53.117</ele>
        <time>2022-08-27T16:52:13Z</time>
      </trkpt>
      <trkpt lat="43.434974" lon="-4.836763">
        <ele>51.915</ele>
        <time>2022-08-27T16:52:15Z</time>
      </trkpt>
      <trkpt lat="43.434896" lon="-4.836711">
        <ele>50.725</ele>
        <time>2022-08-27T16:52:17Z</time>
      </trkpt>
      <trkpt lat="43.434819" lon="-4.836654">
        <ele>49.041</ele>
        <time>2022-08-27T16:52:19Z</time>
      </trkpt>
      <trkpt lat="43.434741" lon="-4.836592">
        <ele>47.965</ele>
        <time>2022-08-27T16:52:21Z</time>
      </trkpt>
      <trkpt lat="43.434699" lon="-4.836564">
        <ele>47.482</ele>
        <time>2022-08-27T16:52:22Z</time>
      </trkpt>
      <trkpt lat="43.434612" lon="-4.836501">
        <ele>47.489</ele>
        <time>2022-08-27T16:52:24Z</time>
      </trkpt>
      <trkpt lat="43.434569" lon="-4.836481">
        <ele>47.563</ele>
        <time>2022-08-27T16:52:25Z</time>
      </trkpt>
      <trkpt lat="43.434487" lon="-4.836449">
        <ele>47.644</ele>
        <time>2022-08-27T16:52:27Z</time>
      </trkpt>
      <trkpt lat="43.434400" lon="-4.836424">
        <ele>47.918</ele>
        <time>2022-08-27T16:52:29Z</time>
      </trkpt>
      <trkpt lat="43.434355" lon="-4.836429">
        <ele>47.909</ele>
        <time>2022-08-27T16:52:30Z</time>
      </trkpt>
      <trkpt lat="43.434268" lon="-4.836452">
        <ele>48.657</ele>
        <time>2022-08-27T16:52:32Z</time>
      </trkpt>
      <trkpt lat="43.434191" lon="-4.836497">
        <ele>49.437</ele>
        <time>2022-08-27T16:52:34Z</time>
      </trkpt>
      <trkpt lat="43.434124" lon="-4.836559">
        <ele>50.348</ele>
        <time>2022-08-27T16:52:36Z</time>
      </trkpt>
      <trkpt lat="43.434069" lon="-4.836639">
        <ele>51.176</ele>
        <time>2022-08-27T16:52:38Z</time>
      </trkpt>
      <trkpt lat="43.434022" lon="-4.836727">
        <ele>51.726</ele>
        <time>2022-08-27T16:52:40Z</time>
      </trkpt>
      <trkpt lat="43.433980" lon="-4.836824">
        <ele>52.352</ele>
        <time>2022-08-27T16:52:42Z</time>
      </trkpt>
      <trkpt lat="43.433935" lon="-4.836926">
        <ele>53.266</ele>
        <time>2022-08-27T16:52:44Z</time>
      </trkpt>
      <trkpt lat="43.433883" lon="-4.837028">
        <ele>54.143</ele>
        <time>2022-08-27T16:52:46Z</time>
      </trkpt>
      <trkpt lat="43.433826" lon="-4.837135">
        <ele>54.450</ele>
        <time>2022-08-27T16:52:48Z</time>
      </trkpt>
      <trkpt lat="43.433798" lon="-4.837185">
        <ele>54.562</ele>
        <time>2022-08-27T16:52:49Z</time>
      </trkpt>
      <trkpt lat="43.433735" lon="-4.837282">
        <ele>54.883</ele>
        <time>2022-08-27T16:52:51Z</time>
      </trkpt>
      <trkpt lat="43.433707" lon="-4.837332">
        <ele>54.911</ele>
        <time>2022-08-27T16:52:52Z</time>
      </trkpt>
      <trkpt lat="43.433629" lon="-4.837404">
        <ele>55.209</ele>
        <time>2022-08-27T16:52:54Z</time>
      </trkpt>
      <trkpt lat="43.433519" lon="-4.837407">
        <ele>55.617</ele>
        <time>2022-08-27T16:52:56Z</time>
      </trkpt>
      <trkpt lat="43.433421" lon="-4.837335">
        <ele>55.617</ele>
        <time>2022-08-27T16:52:58Z</time>
      </trkpt>
      <trkpt lat="43.433373" lon="-4.837297">
        <ele>53.888</ele>
        <time>2022-08-27T16:52:59Z</time>
      </trkpt>
      <trkpt lat="43.433328" lon="-4.837255">
        <ele>53.636</ele>
        <time>2022-08-27T16:53:00Z</time>
      </trkpt>
      <trkpt lat="43.433268" lon="-4.837157">
        <ele>52.536</ele>
        <time>2022-08-27T16:53:02Z</time>
      </trkpt>
      <trkpt lat="43.433221" lon="-4.837034">
        <ele>51.242</ele>
        <time>2022-08-27T16:53:04Z</time>
      </trkpt>
      <trkpt lat="43.433199" lon="-4.836967">
        <ele>50.586</ele>
        <time>2022-08-27T16:53:05Z</time>
      </trkpt>
      <trkpt lat="43.433157" lon="-4.836832">
        <ele>50.163</ele>
        <time>2022-08-27T16:53:07Z</time>
      </trkpt>
      <trkpt lat="43.433137" lon="-4.836767">
        <ele>50.160</ele>
        <time>2022-08-27T16:53:08Z</time>
      </trkpt>
      <trkpt lat="43.433104" lon="-4.836645">
        <ele>50.342</ele>
        <time>2022-08-27T16:53:10Z</time>
      </trkpt>
      <trkpt lat="43.433077" lon="-4.836508">
        <ele>50.422</ele>
        <time>2022-08-27T16:53:12Z</time>
      </trkpt>
      <trkpt lat="43.433065" lon="-4.836435">
        <ele>50.414</ele>
        <time>2022-08-27T16:53:13Z</time>
      </trkpt>
      <trkpt lat="43.433038" lon="-4.836305">
        <ele>50.409</ele>
        <time>2022-08-27T16:53:15Z</time>
      </trkpt>
      <trkpt lat="43.433025" lon="-4.836165">
        <ele>50.445</ele>
        <time>2022-08-27T16:53:17Z</time>
      </trkpt>
      <trkpt lat="43.433008" lon="-4.836023">
        <ele>50.865</ele>
        <time>2022-08-27T16:53:19Z</time>
      </trkpt>
      <trkpt lat="43.432996" lon="-4.835875">
        <ele>51.156</ele>
        <time>2022-08-27T16:53:21Z</time>
      </trkpt>
      <trkpt lat="43.432993" lon="-4.835727">
        <ele>51.364</ele>
        <time>2022-08-27T16:53:23Z</time>
      </trkpt>
      <trkpt lat="43.432993" lon="-4.835574">
        <ele>51.064</ele>
        <time>2022-08-27T16:53:25Z</time>
      </trkpt>
      <trkpt lat="43.432998" lon="-4.835426">
        <ele>50.690</ele>
        <time>2022-08-27T16:53:27Z</time>
      </trkpt>
      <trkpt lat="43.433016" lon="-4.835356">
        <ele>50.584</ele>
        <time>2022-08-27T16:53:28Z</time>
      </trkpt>
      <trkpt lat="43.433039" lon="-4.835291">
        <ele>50.391</ele>
        <time>2022-08-27T16:53:29Z</time>
      </trkpt>
      <trkpt lat="43.433099" lon="-4.835169">
        <ele>50.368</ele>
        <time>2022-08-27T16:53:31Z</time>
      </trkpt>
      <trkpt lat="43.433127" lon="-4.835109">
        <ele>50.358</ele>
        <time>2022-08-27T16:53:32Z</time>
      </trkpt>
      <trkpt lat="43.433145" lon="-4.835046">
        <ele>50.452</ele>
        <time>2022-08-27T16:53:33Z</time>
      </trkpt>
      <trkpt lat="43.433163" lon="-4.834984">
        <ele>50.517</ele>
        <time>2022-08-27T16:53:34Z</time>
      </trkpt>
      <trkpt lat="43.433203" lon="-4.834867">
        <ele>50.909</ele>
        <time>2022-08-27T16:53:36Z</time>
      </trkpt>
      <trkpt lat="43.433221" lon="-4.834810">
        <ele>50.946</ele>
        <time>2022-08-27T16:53:37Z</time>
      </trkpt>
      <trkpt lat="43.433261" lon="-4.834698">
        <ele>51.156</ele>
        <time>2022-08-27T16:53:39Z</time>
      </trkpt>
      <trkpt lat="43.433301" lon="-4.834588">
        <ele>51.427</ele>
        <time>2022-08-27T16:53:41Z</time>
      </trkpt>
      <trkpt lat="43.433339" lon="-4.834486">
        <ele>51.735</ele>
        <time>2022-08-27T16:53:43Z</time>
      </trkpt>
      <trkpt lat="43.433392" lon="-4.834393">
        <ele>51.895</ele>
        <time>2022-08-27T16:53:45Z</time>
      </trkpt>
      <trkpt lat="43.433424" lon="-4.834348">
        <ele>51.811</ele>
        <time>2022-08-27T16:53:46Z</time>
      </trkpt>
      <trkpt lat="43.433482" lon="-4.834260">
        <ele>51.775</ele>
        <time>2022-08-27T16:53:48Z</time>
      </trkpt>
      <trkpt lat="43.433522" lon="-4.834155">
        <ele>51.232</ele>
        <time>2022-08-27T16:53:50Z</time>
      </trkpt>
      <trkpt lat="43.433540" lon="-4.834040">
        <ele>50.319</ele>
        <time>2022-08-27T16:53:52Z</time>
      </trkpt>
      <trkpt lat="43.433542" lon="-4.833933">
        <ele>49.514</ele>
        <time>2022-08-27T16:53:54Z</time>
      </trkpt>
      <trkpt lat="43.433514" lon="-4.833820">
        <ele>48.754</ele>
        <time>2022-08-27T16:53:56Z</time>
      </trkpt>
      <trkpt lat="43.433491" lon="-4.833707">
        <ele>48.409</ele>
        <time>2022-08-27T16:53:58Z</time>
      </trkpt>
      <trkpt lat="43.433481" lon="-4.833597">
        <ele>48.309</ele>
        <time>2022-08-27T16:54:00Z</time>
      </trkpt>
      <trkpt lat="43.433503" lon="-4.833502">
        <ele>48.372</ele>
        <time>2022-08-27T16:54:02Z</time>
      </trkpt>
      <trkpt lat="43.433533" lon="-4.833412">
        <ele>49.092</ele>
        <time>2022-08-27T16:54:04Z</time>
      </trkpt>
      <trkpt lat="43.433556" lon="-4.833322">
        <ele>49.763</ele>
        <time>2022-08-27T16:54:06Z</time>
      </trkpt>
      <trkpt lat="43.433568" lon="-4.833214">
        <ele>49.971</ele>
        <time>2022-08-27T16:54:08Z</time>
      </trkpt>
      <trkpt lat="43.433573" lon="-4.833107">
        <ele>49.981</ele>
        <time>2022-08-27T16:54:10Z</time>
      </trkpt>
      <trkpt lat="43.433561" lon="-4.833000">
        <ele>49.147</ele>
        <time>2022-08-27T16:54:12Z</time>
      </trkpt>
      <trkpt lat="43.433546" lon="-4.832888">
        <ele>48.351</ele>
        <time>2022-08-27T16:54:14Z</time>
      </trkpt>
      <trkpt lat="43.433533" lon="-4.832780">
        <ele>47.728</ele>
        <time>2022-08-27T16:54:16Z</time>
      </trkpt>
      <trkpt lat="43.433513" lon="-4.832695">
        <ele>47.355</ele>
        <time>2022-08-27T16:54:18Z</time>
      </trkpt>
      <trkpt lat="43.433480" lon="-4.832597">
        <ele>47.445</ele>
        <time>2022-08-27T16:54:20Z</time>
      </trkpt>
      <trkpt lat="43.433463" lon="-4.832492">
        <ele>47.447</ele>
        <time>2022-08-27T16:54:22Z</time>
      </trkpt>
      <trkpt lat="43.433450" lon="-4.832380">
        <ele>47.811</ele>
        <time>2022-08-27T16:54:24Z</time>
      </trkpt>
      <trkpt lat="43.433438" lon="-4.832272">
        <ele>48.409</ele>
        <time>2022-08-27T16:54:26Z</time>
      </trkpt>
      <trkpt lat="43.433440" lon="-4.832159">
        <ele>48.915</ele>
        <time>2022-08-27T16:54:28Z</time>
      </trkpt>
      <trkpt lat="43.433467" lon="-4.832051">
        <ele>49.555</ele>
        <time>2022-08-27T16:54:30Z</time>
      </trkpt>
      <trkpt lat="43.433494" lon="-4.831941">
        <ele>49.786</ele>
        <time>2022-08-27T16:54:32Z</time>
      </trkpt>
      <trkpt lat="43.433506" lon="-4.831824">
        <ele>49.924</ele>
        <time>2022-08-27T16:54:34Z</time>
      </trkpt>
      <trkpt lat="43.433511" lon="-4.831709">
        <ele>49.944</ele>
        <time>2022-08-27T16:54:36Z</time>
      </trkpt>
      <trkpt lat="43.433521" lon="-4.831594">
        <ele>49.770</ele>
        <time>2022-08-27T16:54:38Z</time>
      </trkpt>
      <trkpt lat="43.433529" lon="-4.831482">
        <ele>49.564</ele>
        <time>2022-08-27T16:54:40Z</time>
      </trkpt>
      <trkpt lat="43.433532" lon="-4.831385">
        <ele>49.561</ele>
        <time>2022-08-27T16:54:42Z</time>
      </trkpt>
      <trkpt lat="43.433537" lon="-4.831292">
        <ele>49.618</ele>
        <time>2022-08-27T16:54:44Z</time>
      </trkpt>
      <trkpt lat="43.433542" lon="-4.831184">
        <ele>50.449</ele>
        <time>2022-08-27T16:54:46Z</time>
      </trkpt>
      <trkpt lat="43.433540" lon="-4.831067">
        <ele>51.502</ele>
        <time>2022-08-27T16:54:48Z</time>
      </trkpt>
      <trkpt lat="43.433537" lon="-4.830959">
        <ele>52.322</ele>
        <time>2022-08-27T16:54:50Z</time>
      </trkpt>
      <trkpt lat="43.433520" lon="-4.830846">
        <ele>52.709</ele>
        <time>2022-08-27T16:54:52Z</time>
      </trkpt>
      <trkpt lat="43.433510" lon="-4.830746">
        <ele>52.845</ele>
        <time>2022-08-27T16:54:54Z</time>
      </trkpt>
      <trkpt lat="43.433497" lon="-4.830649">
        <ele>52.885</ele>
        <time>2022-08-27T16:54:56Z</time>
      </trkpt>
      <trkpt lat="43.433472" lon="-4.830562">
        <ele>52.676</ele>
        <time>2022-08-27T16:54:58Z</time>
      </trkpt>
      <trkpt lat="43.433442" lon="-4.830479">
        <ele>52.684</ele>
        <time>2022-08-27T16:55:00Z</time>
      </trkpt>
      <trkpt lat="43.433412" lon="-4.830412">
        <ele>52.754</ele>
        <time>2022-08-27T16:55:02Z</time>
      </trkpt>
      <trkpt lat="43.433374" lon="-4.830359">
        <ele>53.740</ele>
        <time>2022-08-27T16:55:04Z</time>
      </trkpt>
      <trkpt lat="43.433332" lon="-4.830316">
        <ele>55.114</ele>
        <time>2022-08-27T16:55:06Z</time>
      </trkpt>
      <trkpt lat="43.433290" lon="-4.830248">
        <ele>56.391</ele>
        <time>2022-08-27T16:55:09Z</time>
      </trkpt>
      <trkpt lat="43.433235" lon="-4.830200">
        <ele>57.248</ele>
        <time>2022-08-27T16:55:11Z</time>
      </trkpt>
      <trkpt lat="43.433200" lon="-4.830153">
        <ele>57.454</ele>
        <time>2022-08-27T16:55:13Z</time>
      </trkpt>
      <trkpt lat="43.433163" lon="-4.830108">
        <ele>57.556</ele>
        <time>2022-08-27T16:55:17Z</time>
      </trkpt>
      <trkpt lat="43.433126" lon="-4.830043">
        <ele>57.411</ele>
        <time>2022-08-27T16:55:22Z</time>
      </trkpt>
      <trkpt lat="43.433158" lon="-4.830098">
        <ele>57.209</ele>
        <time>2022-08-27T16:55:29Z</time>
      </trkpt>
      <trkpt lat="43.433195" lon="-4.830140">
        <ele>57.196</ele>
        <time>2022-08-27T16:55:31Z</time>
      </trkpt>
      <trkpt lat="43.433238" lon="-4.830185">
        <ele>56.636</ele>
        <time>2022-08-27T16:55:33Z</time>
      </trkpt>
      <trkpt lat="43.433290" lon="-4.830235">
        <ele>54.617</ele>
        <time>2022-08-27T16:55:35Z</time>
      </trkpt>
      <trkpt lat="43.433342" lon="-4.830292">
        <ele>53.395</ele>
        <time>2022-08-27T16:55:37Z</time>
      </trkpt>
      <trkpt lat="43.433404" lon="-4.830339">
        <ele>51.925</ele>
        <time>2022-08-27T16:55:39Z</time>
      </trkpt>
      <trkpt lat="43.433466" lon="-4.830326">
        <ele>51.841</ele>
        <time>2022-08-27T16:55:41Z</time>
      </trkpt>
      <trkpt lat="43.433523" lon="-4.830261">
        <ele>51.715</ele>
        <time>2022-08-27T16:55:43Z</time>
      </trkpt>
      <trkpt lat="43.433581" lon="-4.830189">
        <ele>51.522</ele>
        <time>2022-08-27T16:55:45Z</time>
      </trkpt>
      <trkpt lat="43.433634" lon="-4.830132">
        <ele>50.659</ele>
        <time>2022-08-27T16:55:47Z</time>
      </trkpt>
      <trkpt lat="43.433676" lon="-4.830069">
        <ele>50.017</ele>
        <time>2022-08-27T16:55:49Z</time>
      </trkpt>
      <trkpt lat="43.433703" lon="-4.829984">
        <ele>49.687</ele>
        <time>2022-08-27T16:55:50Z</time>
      </trkpt>
      <trkpt lat="43.433730" lon="-4.829889">
        <ele>49.115</ele>
        <time>2022-08-27T16:55:53Z</time>
      </trkpt>
      <trkpt lat="43.433748" lon="-4.829797">
        <ele>48.909</ele>
        <time>2022-08-27T16:55:55Z</time>
      </trkpt>
      <trkpt lat="43.433771" lon="-4.829715">
        <ele>48.972</ele>
        <time>2022-08-27T16:55:57Z</time>
      </trkpt>
      <trkpt lat="43.433798" lon="-4.829632">
        <ele>49.032</ele>
        <time>2022-08-27T16:55:59Z</time>
      </trkpt>
      <trkpt lat="43.433821" lon="-4.829549">
        <ele>49.443</ele>
        <time>2022-08-27T16:56:01Z</time>
      </trkpt>
      <trkpt lat="43.433859" lon="-4.829464">
        <ele>50.021</ele>
        <time>2022-08-27T16:56:03Z</time>
      </trkpt>
      <trkpt lat="43.433909" lon="-4.829377">
        <ele>50.571</ele>
        <time>2022-08-27T16:56:05Z</time>
      </trkpt>
      <trkpt lat="43.433951" lon="-4.829287">
        <ele>51.727</ele>
        <time>2022-08-27T16:56:07Z</time>
      </trkpt>
      <trkpt lat="43.433994" lon="-4.829197">
        <ele>53.771</ele>
        <time>2022-08-27T16:56:09Z</time>
      </trkpt>
      <trkpt lat="43.434037" lon="-4.829112">
        <ele>54.818</ele>
        <time>2022-08-27T16:56:11Z</time>
      </trkpt>
      <trkpt lat="43.434079" lon="-4.829024">
        <ele>55.235</ele>
        <time>2022-08-27T16:56:13Z</time>
      </trkpt>
      <trkpt lat="43.434114" lon="-4.828937">
        <ele>55.672</ele>
        <time>2022-08-27T16:56:15Z</time>
      </trkpt>
      <trkpt lat="43.434146" lon="-4.828850">
        <ele>56.513</ele>
        <time>2022-08-27T16:56:17Z</time>
      </trkpt>
      <trkpt lat="43.434193" lon="-4.828775">
        <ele>56.814</ele>
        <time>2022-08-27T16:56:19Z</time>
      </trkpt>
      <trkpt lat="43.434233" lon="-4.828707">
        <ele>56.909</ele>
        <time>2022-08-27T16:56:21Z</time>
      </trkpt>
      <trkpt lat="43.434268" lon="-4.828637">
        <ele>57.338</ele>
        <time>2022-08-27T16:56:23Z</time>
      </trkpt>
      <trkpt lat="43.434300" lon="-4.828569">
        <ele>57.958</ele>
        <time>2022-08-27T16:56:25Z</time>
      </trkpt>
      <trkpt lat="43.434328" lon="-4.828497">
        <ele>58.059</ele>
        <time>2022-08-27T16:56:27Z</time>
      </trkpt>
      <trkpt lat="43.434355" lon="-4.828425">
        <ele>58.057</ele>
        <time>2022-08-27T16:56:29Z</time>
      </trkpt>
      <trkpt lat="43.434382" lon="-4.828363">
        <ele>58.087</ele>
        <time>2022-08-27T16:56:31Z</time>
      </trkpt>
      <trkpt lat="43.434405" lon="-4.828295">
        <ele>57.923</ele>
        <time>2022-08-27T16:56:33Z</time>
      </trkpt>
      <trkpt lat="43.434427" lon="-4.828225">
        <ele>57.527</ele>
        <time>2022-08-27T16:56:35Z</time>
      </trkpt>
      <trkpt lat="43.434449" lon="-4.828153">
        <ele>57.554</ele>
        <time>2022-08-27T16:56:37Z</time>
      </trkpt>
      <trkpt lat="43.434454" lon="-4.828075">
        <ele>57.571</ele>
        <time>2022-08-27T16:56:39Z</time>
      </trkpt>
      <trkpt lat="43.434459" lon="-4.828002">
        <ele>57.885</ele>
        <time>2022-08-27T16:56:41Z</time>
      </trkpt>
      <trkpt lat="43.434466" lon="-4.827924">
        <ele>58.889</ele>
        <time>2022-08-27T16:56:43Z</time>
      </trkpt>
      <trkpt lat="43.434471" lon="-4.827836">
        <ele>59.517</ele>
        <time>2022-08-27T16:56:45Z</time>
      </trkpt>
      <trkpt lat="43.434481" lon="-4.827741">
        <ele>59.609</ele>
        <time>2022-08-27T16:56:47Z</time>
      </trkpt>
      <trkpt lat="43.434493" lon="-4.827653">
        <ele>59.769</ele>
        <time>2022-08-27T16:56:49Z</time>
      </trkpt>
      <trkpt lat="43.434501" lon="-4.827551">
        <ele>59.949</ele>
        <time>2022-08-27T16:56:51Z</time>
      </trkpt>
      <trkpt lat="43.434509" lon="-4.827433">
        <ele>60.040</ele>
        <time>2022-08-27T16:56:53Z</time>
      </trkpt>
      <trkpt lat="43.434522" lon="-4.827315">
        <ele>60.698</ele>
        <time>2022-08-27T16:56:55Z</time>
      </trkpt>
      <trkpt lat="43.434542" lon="-4.827190">
        <ele>60.668</ele>
        <time>2022-08-27T16:56:57Z</time>
      </trkpt>
      <trkpt lat="43.434547" lon="-4.827122">
        <ele>60.674</ele>
        <time>2022-08-27T16:56:58Z</time>
      </trkpt>
      <trkpt lat="43.434569" lon="-4.826989">
        <ele>60.088</ele>
        <time>2022-08-27T16:57:00Z</time>
      </trkpt>
      <trkpt lat="43.434582" lon="-4.826854">
        <ele>59.655</ele>
        <time>2022-08-27T16:57:02Z</time>
      </trkpt>
      <trkpt lat="43.434587" lon="-4.826722">
        <ele>59.352</ele>
        <time>2022-08-27T16:57:04Z</time>
      </trkpt>
      <trkpt lat="43.434600" lon="-4.826570">
        <ele>59.024</ele>
        <time>2022-08-27T16:57:06Z</time>
      </trkpt>
      <trkpt lat="43.434610" lon="-4.826490">
        <ele>58.604</ele>
        <time>2022-08-27T16:57:07Z</time>
      </trkpt>
      <trkpt lat="43.434625" lon="-4.826413">
        <ele>58.114</ele>
        <time>2022-08-27T16:57:08Z</time>
      </trkpt>
      <trkpt lat="43.434643" lon="-4.826340">
        <ele>57.409</ele>
        <time>2022-08-27T16:57:09Z</time>
      </trkpt>
      <trkpt lat="43.434703" lon="-4.826207">
        <ele>56.173</ele>
        <time>2022-08-27T16:57:11Z</time>
      </trkpt>
      <trkpt lat="43.434780" lon="-4.826072">
        <ele>54.893</ele>
        <time>2022-08-27T16:57:13Z</time>
      </trkpt>
      <trkpt lat="43.434810" lon="-4.826005">
        <ele>54.494</ele>
        <time>2022-08-27T16:57:14Z</time>
      </trkpt>
      <trkpt lat="43.434837" lon="-4.825933">
        <ele>54.252</ele>
        <time>2022-08-27T16:57:15Z</time>
      </trkpt>
      <trkpt lat="43.434870" lon="-4.825786">
        <ele>53.532</ele>
        <time>2022-08-27T16:57:17Z</time>
      </trkpt>
      <trkpt lat="43.434887" lon="-4.825644">
        <ele>53.288</ele>
        <time>2022-08-27T16:57:19Z</time>
      </trkpt>
      <trkpt lat="43.434892" lon="-4.825571">
        <ele>53.192</ele>
        <time>2022-08-27T16:57:20Z</time>
      </trkpt>
      <trkpt lat="43.434905" lon="-4.825429">
        <ele>53.099</ele>
        <time>2022-08-27T16:57:22Z</time>
      </trkpt>
      <trkpt lat="43.434910" lon="-4.825289">
        <ele>53.096</ele>
        <time>2022-08-27T16:57:24Z</time>
      </trkpt>
      <trkpt lat="43.434913" lon="-4.825147">
        <ele>53.459</ele>
        <time>2022-08-27T16:57:26Z</time>
      </trkpt>
      <trkpt lat="43.434911" lon="-4.825082">
        <ele>53.803</ele>
        <time>2022-08-27T16:57:27Z</time>
      </trkpt>
      <trkpt lat="43.434901" lon="-4.824974">
        <ele>54.123</ele>
        <time>2022-08-27T16:57:29Z</time>
      </trkpt>
      <trkpt lat="43.434889" lon="-4.824891">
        <ele>54.409</ele>
        <time>2022-08-27T16:57:31Z</time>
      </trkpt>
      <trkpt lat="43.434879" lon="-4.824804">
        <ele>55.086</ele>
        <time>2022-08-27T16:57:33Z</time>
      </trkpt>
      <trkpt lat="43.434874" lon="-4.824717">
        <ele>56.436</ele>
        <time>2022-08-27T16:57:35Z</time>
      </trkpt>
      <trkpt lat="43.434909" lon="-4.824660">
        <ele>57.687</ele>
        <time>2022-08-27T16:57:37Z</time>
      </trkpt>
      <trkpt lat="43.434951" lon="-4.824637">
        <ele>59.255</ele>
        <time>2022-08-27T16:57:40Z</time>
      </trkpt>
      <trkpt lat="43.434929" lon="-4.824700">
        <ele>60.255</ele>
        <time>2022-08-27T16:57:44Z</time>
      </trkpt>
      <trkpt lat="43.434882" lon="-4.824707">
        <ele>60.211</ele>
        <time>2022-08-27T16:57:46Z</time>
      </trkpt>
      <trkpt lat="43.434839" lon="-4.824660">
        <ele>60.725</ele>
        <time>2022-08-27T16:57:49Z</time>
      </trkpt>
      <trkpt lat="43.434799" lon="-4.824587">
        <ele>60.872</ele>
        <time>2022-08-27T16:57:52Z</time>
      </trkpt>
      <trkpt lat="43.434774" lon="-4.824534">
        <ele>60.839</ele>
        <time>2022-08-27T16:57:54Z</time>
      </trkpt>
      <trkpt lat="43.434744" lon="-4.824479">
        <ele>60.818</ele>
        <time>2022-08-27T16:57:56Z</time>
      </trkpt>
      <trkpt lat="43.434707" lon="-4.824424">
        <ele>60.698</ele>
        <time>2022-08-27T16:57:58Z</time>
      </trkpt>
      <trkpt lat="43.434677" lon="-4.824352">
        <ele>60.317</ele>
        <time>2022-08-27T16:58:00Z</time>
      </trkpt>
      <trkpt lat="43.434649" lon="-4.824282">
        <ele>59.909</ele>
        <time>2022-08-27T16:58:02Z</time>
      </trkpt>
      <trkpt lat="43.434616" lon="-4.824212">
        <ele>59.962</ele>
        <time>2022-08-27T16:58:04Z</time>
      </trkpt>
      <trkpt lat="43.434584" lon="-4.824140">
        <ele>60.082</ele>
        <time>2022-08-27T16:58:06Z</time>
      </trkpt>
      <trkpt lat="43.434576" lon="-4.824050">
        <ele>60.713</ele>
        <time>2022-08-27T16:58:08Z</time>
      </trkpt>
      <trkpt lat="43.434568" lon="-4.823953">
        <ele>61.921</ele>
        <time>2022-08-27T16:58:10Z</time>
      </trkpt>
      <trkpt lat="43.434531" lon="-4.823861">
        <ele>63.361</ele>
        <time>2022-08-27T16:58:12Z</time>
      </trkpt>
      <trkpt lat="43.434499" lon="-4.823774">
        <ele>64.177</ele>
        <time>2022-08-27T16:58:14Z</time>
      </trkpt>
      <trkpt lat="43.434469" lon="-4.823691">
        <ele>64.921</ele>
        <time>2022-08-27T16:58:16Z</time>
      </trkpt>
      <trkpt lat="43.434441" lon="-4.823621">
        <ele>64.998</ele>
        <time>2022-08-27T16:58:18Z</time>
      </trkpt>
      <trkpt lat="43.434423" lon="-4.823551">
        <ele>65.085</ele>
        <time>2022-08-27T16:58:20Z</time>
      </trkpt>
      <trkpt lat="43.434406" lon="-4.823478">
        <ele>65.069</ele>
        <time>2022-08-27T16:58:22Z</time>
      </trkpt>
      <trkpt lat="43.434374" lon="-4.823408">
        <ele>64.904</ele>
        <time>2022-08-27T16:58:24Z</time>
      </trkpt>
      <trkpt lat="43.434364" lon="-4.823326">
        <ele>64.724</ele>
        <time>2022-08-27T16:58:26Z</time>
      </trkpt>
      <trkpt lat="43.434342" lon="-4.823248">
        <ele>64.309</ele>
        <time>2022-08-27T16:58:28Z</time>
      </trkpt>
      <trkpt lat="43.434325" lon="-4.823171">
        <ele>64.347</ele>
        <time>2022-08-27T16:58:30Z</time>
      </trkpt>
      <trkpt lat="43.434320" lon="-4.823089">
        <ele>64.387</ele>
        <time>2022-08-27T16:58:32Z</time>
      </trkpt>
      <trkpt lat="43.434312" lon="-4.823016">
        <ele>64.618</ele>
        <time>2022-08-27T16:58:34Z</time>
      </trkpt>
      <trkpt lat="43.434294" lon="-4.822946">
        <ele>64.796</ele>
        <time>2022-08-27T16:58:36Z</time>
      </trkpt>
      <trkpt lat="43.434276" lon="-4.822866">
        <ele>64.746</ele>
        <time>2022-08-27T16:58:38Z</time>
      </trkpt>
      <trkpt lat="43.434263" lon="-4.822783">
        <ele>64.562</ele>
        <time>2022-08-27T16:58:40Z</time>
      </trkpt>
      <trkpt lat="43.434255" lon="-4.822698">
        <ele>64.496</ele>
        <time>2022-08-27T16:58:42Z</time>
      </trkpt>
      <trkpt lat="43.434257" lon="-4.822606">
        <ele>64.253</ele>
        <time>2022-08-27T16:58:44Z</time>
      </trkpt>
      <trkpt lat="43.434257" lon="-4.822514">
        <ele>64.080</ele>
        <time>2022-08-27T16:58:46Z</time>
      </trkpt>
      <trkpt lat="43.434262" lon="-4.822427">
        <ele>63.282</ele>
        <time>2022-08-27T16:58:48Z</time>
      </trkpt>
      <trkpt lat="43.434270" lon="-4.822329">
        <ele>62.943</ele>
        <time>2022-08-27T16:58:50Z</time>
      </trkpt>
      <trkpt lat="43.434275" lon="-4.822234">
        <ele>62.717</ele>
        <time>2022-08-27T16:58:52Z</time>
      </trkpt>
      <trkpt lat="43.434285" lon="-4.822151">
        <ele>62.609</ele>
        <time>2022-08-27T16:58:54Z</time>
      </trkpt>
      <trkpt lat="43.434295" lon="-4.822068">
        <ele>62.729</ele>
        <time>2022-08-27T16:58:56Z</time>
      </trkpt>
      <trkpt lat="43.434317" lon="-4.821973">
        <ele>62.889</ele>
        <time>2022-08-27T16:58:58Z</time>
      </trkpt>
      <trkpt lat="43.434327" lon="-4.821885">
        <ele>62.810</ele>
        <time>2022-08-27T16:59:00Z</time>
      </trkpt>
      <trkpt lat="43.434352" lon="-4.821803">
        <ele>62.618</ele>
        <time>2022-08-27T16:59:02Z</time>
      </trkpt>
      <trkpt lat="43.434367" lon="-4.821715">
        <ele>62.488</ele>
        <time>2022-08-27T16:59:04Z</time>
      </trkpt>
      <trkpt lat="43.434380" lon="-4.821630">
        <ele>62.034</ele>
        <time>2022-08-27T16:59:06Z</time>
      </trkpt>
      <trkpt lat="43.434395" lon="-4.821553">
        <ele>61.698</ele>
        <time>2022-08-27T16:59:08Z</time>
      </trkpt>
      <trkpt lat="43.434408" lon="-4.821476">
        <ele>61.285</ele>
        <time>2022-08-27T16:59:10Z</time>
      </trkpt>
      <trkpt lat="43.434420" lon="-4.821393">
        <ele>61.252</ele>
        <time>2022-08-27T16:59:12Z</time>
      </trkpt>
      <trkpt lat="43.434435" lon="-4.821313">
        <ele>61.082</ele>
        <time>2022-08-27T16:59:14Z</time>
      </trkpt>
      <trkpt lat="43.434455" lon="-4.821231">
        <ele>61.043</ele>
        <time>2022-08-27T16:59:16Z</time>
      </trkpt>
      <trkpt lat="43.434463" lon="-4.821149">
        <ele>61.017</ele>
        <time>2022-08-27T16:59:18Z</time>
      </trkpt>
      <trkpt lat="43.434473" lon="-4.821061">
        <ele>61.209</ele>
        <time>2022-08-27T16:59:20Z</time>
      </trkpt>
      <trkpt lat="43.434488" lon="-4.820976">
        <ele>61.519</ele>
        <time>2022-08-27T16:59:22Z</time>
      </trkpt>
      <trkpt lat="43.434505" lon="-4.820894">
        <ele>62.189</ele>
        <time>2022-08-27T16:59:24Z</time>
      </trkpt>
      <trkpt lat="43.434523" lon="-4.820809">
        <ele>62.540</ele>
        <time>2022-08-27T16:59:26Z</time>
      </trkpt>
      <trkpt lat="43.434541" lon="-4.820712">
        <ele>63.078</ele>
        <time>2022-08-27T16:59:28Z</time>
      </trkpt>
      <trkpt lat="43.434561" lon="-4.820625">
        <ele>63.178</ele>
        <time>2022-08-27T16:59:30Z</time>
      </trkpt>
      <trkpt lat="43.434578" lon="-4.820535">
        <ele>63.144</ele>
        <time>2022-08-27T16:59:32Z</time>
      </trkpt>
      <trkpt lat="43.434593" lon="-4.820445">
        <ele>63.048</ele>
        <time>2022-08-27T16:59:34Z</time>
      </trkpt>
      <trkpt lat="43.434605" lon="-4.820353">
        <ele>62.955</ele>
        <time>2022-08-27T16:59:36Z</time>
      </trkpt>
      <trkpt lat="43.434613" lon="-4.820270">
        <ele>62.822</ele>
        <time>2022-08-27T16:59:38Z</time>
      </trkpt>
      <trkpt lat="43.434625" lon="-4.820192">
        <ele>62.856</ele>
        <time>2022-08-27T16:59:40Z</time>
      </trkpt>
      <trkpt lat="43.434637" lon="-4.820112">
        <ele>62.759</ele>
        <time>2022-08-27T16:59:42Z</time>
      </trkpt>
      <trkpt lat="43.434654" lon="-4.820034">
        <ele>62.814</ele>
        <time>2022-08-27T16:59:44Z</time>
      </trkpt>
      <trkpt lat="43.434674" lon="-4.819952">
        <ele>62.809</ele>
        <time>2022-08-27T16:59:46Z</time>
      </trkpt>
      <trkpt lat="43.434694" lon="-4.819857">
        <ele>62.996</ele>
        <time>2022-08-27T16:59:48Z</time>
      </trkpt>
      <trkpt lat="43.434717" lon="-4.819769">
        <ele>63.846</ele>
        <time>2022-08-27T16:59:50Z</time>
      </trkpt>
      <trkpt lat="43.434735" lon="-4.819686">
        <ele>64.537</ele>
        <time>2022-08-27T16:59:52Z</time>
      </trkpt>
      <trkpt lat="43.434745" lon="-4.819603">
        <ele>65.095</ele>
        <time>2022-08-27T16:59:54Z</time>
      </trkpt>
      <trkpt lat="43.434755" lon="-4.819515">
        <ele>65.895</ele>
        <time>2022-08-27T16:59:56Z</time>
      </trkpt>
      <trkpt lat="43.434758" lon="-4.819415">
        <ele>66.541</ele>
        <time>2022-08-27T16:59:58Z</time>
      </trkpt>
      <trkpt lat="43.434756" lon="-4.819317">
        <ele>66.655</ele>
        <time>2022-08-27T17:00:00Z</time>
      </trkpt>
      <trkpt lat="43.434751" lon="-4.819209">
        <ele>66.962</ele>
        <time>2022-08-27T17:00:02Z</time>
      </trkpt>
      <trkpt lat="43.434736" lon="-4.819102">
        <ele>67.459</ele>
        <time>2022-08-27T17:00:04Z</time>
      </trkpt>
      <trkpt lat="43.434726" lon="-4.819000">
        <ele>67.476</ele>
        <time>2022-08-27T17:00:06Z</time>
      </trkpt>
      <trkpt lat="43.434716" lon="-4.818912">
        <ele>67.190</ele>
        <time>2022-08-27T17:00:08Z</time>
      </trkpt>
      <trkpt lat="43.434706" lon="-4.818824">
        <ele>66.519</ele>
        <time>2022-08-27T17:00:10Z</time>
      </trkpt>
      <trkpt lat="43.434694" lon="-4.818727">
        <ele>65.909</ele>
        <time>2022-08-27T17:00:12Z</time>
      </trkpt>
      <trkpt lat="43.434674" lon="-4.818635">
        <ele>65.098</ele>
        <time>2022-08-27T17:00:14Z</time>
      </trkpt>
      <trkpt lat="43.434646" lon="-4.818562">
        <ele>65.058</ele>
        <time>2022-08-27T17:00:16Z</time>
      </trkpt>
      <trkpt lat="43.434623" lon="-4.818480">
        <ele>64.929</ele>
        <time>2022-08-27T17:00:18Z</time>
      </trkpt>
      <trkpt lat="43.434603" lon="-4.818387">
        <ele>64.827</ele>
        <time>2022-08-27T17:00:20Z</time>
      </trkpt>
      <trkpt lat="43.434585" lon="-4.818295">
        <ele>64.847</ele>
        <time>2022-08-27T17:00:22Z</time>
      </trkpt>
      <trkpt lat="43.434568" lon="-4.818203">
        <ele>64.653</ele>
        <time>2022-08-27T17:00:24Z</time>
      </trkpt>
      <trkpt lat="43.434558" lon="-4.818113">
        <ele>64.287</ele>
        <time>2022-08-27T17:00:26Z</time>
      </trkpt>
      <trkpt lat="43.434545" lon="-4.818021">
        <ele>64.174</ele>
        <time>2022-08-27T17:00:28Z</time>
      </trkpt>
      <trkpt lat="43.434533" lon="-4.817933">
        <ele>63.831</ele>
        <time>2022-08-27T17:00:30Z</time>
      </trkpt>
      <trkpt lat="43.434525" lon="-4.817845">
        <ele>63.423</ele>
        <time>2022-08-27T17:00:32Z</time>
      </trkpt>
      <trkpt lat="43.434525" lon="-4.817753">
        <ele>63.483</ele>
        <time>2022-08-27T17:00:34Z</time>
      </trkpt>
      <trkpt lat="43.434522" lon="-4.817655">
        <ele>63.111</ele>
        <time>2022-08-27T17:00:36Z</time>
      </trkpt>
      <trkpt lat="43.434532" lon="-4.817558">
        <ele>62.209</ele>
        <time>2022-08-27T17:00:38Z</time>
      </trkpt>
      <trkpt lat="43.434540" lon="-4.817461">
        <ele>62.033</ele>
        <time>2022-08-27T17:00:40Z</time>
      </trkpt>
      <trkpt lat="43.434545" lon="-4.817366">
        <ele>61.553</ele>
        <time>2022-08-27T17:00:42Z</time>
      </trkpt>
      <trkpt lat="43.434543" lon="-4.817268">
        <ele>60.964</ele>
        <time>2022-08-27T17:00:44Z</time>
      </trkpt>
      <trkpt lat="43.434548" lon="-4.817165">
        <ele>60.572</ele>
        <time>2022-08-27T17:00:46Z</time>
      </trkpt>
      <trkpt lat="43.434556" lon="-4.817043">
        <ele>59.932</ele>
        <time>2022-08-27T17:00:48Z</time>
      </trkpt>
      <trkpt lat="43.434553" lon="-4.816975">
        <ele>59.298</ele>
        <time>2022-08-27T17:00:49Z</time>
      </trkpt>
      <trkpt lat="43.434550" lon="-4.816900">
        <ele>58.962</ele>
        <time>2022-08-27T17:00:50Z</time>
      </trkpt>
      <trkpt lat="43.434543" lon="-4.816825">
        <ele>58.859</ele>
        <time>2022-08-27T17:00:51Z</time>
      </trkpt>
      <trkpt lat="43.434516" lon="-4.816665">
        <ele>58.226</ele>
        <time>2022-08-27T17:00:53Z</time>
      </trkpt>
      <trkpt lat="43.434496" lon="-4.816583">
        <ele>57.853</ele>
        <time>2022-08-27T17:00:54Z</time>
      </trkpt>
      <trkpt lat="43.434443" lon="-4.816420">
        <ele>57.204</ele>
        <time>2022-08-27T17:00:56Z</time>
      </trkpt>
      <trkpt lat="43.434411" lon="-4.816347">
        <ele>56.914</ele>
        <time>2022-08-27T17:00:57Z</time>
      </trkpt>
      <trkpt lat="43.434344" lon="-4.816209">
        <ele>56.409</ele>
        <time>2022-08-27T17:00:59Z</time>
      </trkpt>
      <trkpt lat="43.434307" lon="-4.816142">
        <ele>56.486</ele>
        <time>2022-08-27T17:01:00Z</time>
      </trkpt>
      <trkpt lat="43.434234" lon="-4.816005">
        <ele>56.286</ele>
        <time>2022-08-27T17:01:02Z</time>
      </trkpt>
      <trkpt lat="43.434164" lon="-4.815872">
        <ele>56.397</ele>
        <time>2022-08-27T17:01:04Z</time>
      </trkpt>
      <trkpt lat="43.434101" lon="-4.815737">
        <ele>56.345</ele>
        <time>2022-08-27T17:01:06Z</time>
      </trkpt>
      <trkpt lat="43.434076" lon="-4.815665">
        <ele>56.325</ele>
        <time>2022-08-27T17:01:07Z</time>
      </trkpt>
      <trkpt lat="43.434054" lon="-4.815593">
        <ele>56.161</ele>
        <time>2022-08-27T17:01:08Z</time>
      </trkpt>
      <trkpt lat="43.434037" lon="-4.815516">
        <ele>55.825</ele>
        <time>2022-08-27T17:01:09Z</time>
      </trkpt>
      <trkpt lat="43.434010" lon="-4.815363">
        <ele>54.992</ele>
        <time>2022-08-27T17:01:11Z</time>
      </trkpt>
      <trkpt lat="43.433997" lon="-4.815215">
        <ele>54.229</ele>
        <time>2022-08-27T17:01:13Z</time>
      </trkpt>
      <trkpt lat="43.433994" lon="-4.815138">
        <ele>53.856</ele>
        <time>2022-08-27T17:01:14Z</time>
      </trkpt>
      <trkpt lat="43.433992" lon="-4.815063">
        <ele>53.359</ele>
        <time>2022-08-27T17:01:15Z</time>
      </trkpt>
      <trkpt lat="43.433997" lon="-4.814991">
        <ele>52.914</ele>
        <time>2022-08-27T17:01:16Z</time>
      </trkpt>
      <trkpt lat="43.434009" lon="-4.814848">
        <ele>52.609</ele>
        <time>2022-08-27T17:01:18Z</time>
      </trkpt>
      <trkpt lat="43.434022" lon="-4.814706">
        <ele>52.226</ele>
        <time>2022-08-27T17:01:20Z</time>
      </trkpt>
      <trkpt lat="43.434030" lon="-4.814571">
        <ele>52.156</ele>
        <time>2022-08-27T17:01:22Z</time>
      </trkpt>
      <trkpt lat="43.434032" lon="-4.814508">
        <ele>52.157</ele>
        <time>2022-08-27T17:01:23Z</time>
      </trkpt>
      <trkpt lat="43.434039" lon="-4.814386">
        <ele>52.235</ele>
        <time>2022-08-27T17:01:25Z</time>
      </trkpt>
      <trkpt lat="43.434051" lon="-4.814268">
        <ele>52.685</ele>
        <time>2022-08-27T17:01:27Z</time>
      </trkpt>
      <trkpt lat="43.434039" lon="-4.814151">
        <ele>53.091</ele>
        <time>2022-08-27T17:01:29Z</time>
      </trkpt>
      <trkpt lat="43.434004" lon="-4.814061">
        <ele>53.375</ele>
        <time>2022-08-27T17:01:31Z</time>
      </trkpt>
      <trkpt lat="43.433954" lon="-4.813993">
        <ele>54.142</ele>
        <time>2022-08-27T17:01:33Z</time>
      </trkpt>
      <trkpt lat="43.433902" lon="-4.813928">
        <ele>54.589</ele>
        <time>2022-08-27T17:01:35Z</time>
      </trkpt>
      <trkpt lat="43.433854" lon="-4.813853">
        <ele>55.432</ele>
        <time>2022-08-27T17:01:37Z</time>
      </trkpt>
      <trkpt lat="43.433799" lon="-4.813770">
        <ele>56.492</ele>
        <time>2022-08-27T17:01:39Z</time>
      </trkpt>
      <trkpt lat="43.433744" lon="-4.813685">
        <ele>57.011</ele>
        <time>2022-08-27T17:01:41Z</time>
      </trkpt>
      <trkpt lat="43.433697" lon="-4.813603">
        <ele>57.809</ele>
        <time>2022-08-27T17:01:43Z</time>
      </trkpt>
      <trkpt lat="43.433655" lon="-4.813511">
        <ele>58.274</ele>
        <time>2022-08-27T17:01:45Z</time>
      </trkpt>
      <trkpt lat="43.433613" lon="-4.813416">
        <ele>58.384</ele>
        <time>2022-08-27T17:01:47Z</time>
      </trkpt>
      <trkpt lat="43.433561" lon="-4.813329">
        <ele>58.435</ele>
        <time>2022-08-27T17:01:49Z</time>
      </trkpt>
      <trkpt lat="43.433521" lon="-4.813246">
        <ele>58.833</ele>
        <time>2022-08-27T17:01:51Z</time>
      </trkpt>
      <trkpt lat="43.433484" lon="-4.813154">
        <ele>58.853</ele>
        <time>2022-08-27T17:01:53Z</time>
      </trkpt>
      <trkpt lat="43.433457" lon="-4.813067">
        <ele>58.899</ele>
        <time>2022-08-27T17:01:55Z</time>
      </trkpt>
      <trkpt lat="43.433439" lon="-4.812969">
        <ele>58.333</ele>
        <time>2022-08-27T17:01:57Z</time>
      </trkpt>
      <trkpt lat="43.433419" lon="-4.812874">
        <ele>57.870</ele>
        <time>2022-08-27T17:01:59Z</time>
      </trkpt>
      <trkpt lat="43.433402" lon="-4.812782">
        <ele>57.767</ele>
        <time>2022-08-27T17:02:01Z</time>
      </trkpt>
      <trkpt lat="43.433382" lon="-4.812690">
        <ele>57.742</ele>
        <time>2022-08-27T17:02:03Z</time>
      </trkpt>
      <trkpt lat="43.433364" lon="-4.812593">
        <ele>57.822</ele>
        <time>2022-08-27T17:02:05Z</time>
      </trkpt>
      <trkpt lat="43.433339" lon="-4.812500">
        <ele>58.014</ele>
        <time>2022-08-27T17:02:07Z</time>
      </trkpt>
      <trkpt lat="43.433309" lon="-4.812408">
        <ele>58.209</ele>
        <time>2022-08-27T17:02:08Z</time>
      </trkpt>
      <trkpt lat="43.433274" lon="-4.812323">
        <ele>58.365</ele>
        <time>2022-08-27T17:02:11Z</time>
      </trkpt>
      <trkpt lat="43.433241" lon="-4.812248">
        <ele>58.715</ele>
        <time>2022-08-27T17:02:13Z</time>
      </trkpt>
      <trkpt lat="43.433208" lon="-4.812183">
        <ele>59.336</ele>
        <time>2022-08-27T17:02:15Z</time>
      </trkpt>
      <trkpt lat="43.433176" lon="-4.812111">
        <ele>59.324</ele>
        <time>2022-08-27T17:02:17Z</time>
      </trkpt>
      <trkpt lat="43.433148" lon="-4.812041">
        <ele>59.654</ele>
        <time>2022-08-27T17:02:19Z</time>
      </trkpt>
      <trkpt lat="43.433118" lon="-4.811966">
        <ele>59.880</ele>
        <time>2022-08-27T17:02:21Z</time>
      </trkpt>
      <trkpt lat="43.433085" lon="-4.811886">
        <ele>59.814</ele>
        <time>2022-08-27T17:02:23Z</time>
      </trkpt>
      <trkpt lat="43.433048" lon="-4.811803">
        <ele>59.891</ele>
        <time>2022-08-27T17:02:25Z</time>
      </trkpt>
      <trkpt lat="43.433015" lon="-4.811718">
        <ele>59.748</ele>
        <time>2022-08-27T17:02:27Z</time>
      </trkpt>
      <trkpt lat="43.432987" lon="-4.811643">
        <ele>59.465</ele>
        <time>2022-08-27T17:02:29Z</time>
      </trkpt>
      <trkpt lat="43.432954" lon="-4.811576">
        <ele>58.868</ele>
        <time>2022-08-27T17:02:31Z</time>
      </trkpt>
      <trkpt lat="43.432921" lon="-4.811519">
        <ele>58.014</ele>
        <time>2022-08-27T17:02:33Z</time>
      </trkpt>
      <trkpt lat="43.432879" lon="-4.811467">
        <ele>57.909</ele>
        <time>2022-08-27T17:02:35Z</time>
      </trkpt>
      <trkpt lat="43.432837" lon="-4.811420">
        <ele>58.047</ele>
        <time>2022-08-27T17:02:37Z</time>
      </trkpt>
      <trkpt lat="43.432797" lon="-4.811378">
        <ele>58.047</ele>
        <time>2022-08-27T17:02:39Z</time>
      </trkpt>
      <trkpt lat="43.432739" lon="-4.811336">
        <ele>58.268</ele>
        <time>2022-08-27T17:02:42Z</time>
      </trkpt>
      <trkpt lat="43.432682" lon="-4.811308">
        <ele>58.566</ele>
        <time>2022-08-27T17:02:45Z</time>
      </trkpt>
      <trkpt lat="43.432635" lon="-4.811293">
        <ele>58.856</ele>
        <time>2022-08-27T17:02:47Z</time>
      </trkpt>
      <trkpt lat="43.432587" lon="-4.811280">
        <ele>59.652</ele>
        <time>2022-08-27T17:02:49Z</time>
      </trkpt>
      <trkpt lat="43.432527" lon="-4.811260">
        <ele>60.956</ele>
        <time>2022-08-27T17:02:52Z</time>
      </trkpt>
      <trkpt lat="43.432472" lon="-4.811233">
        <ele>62.893</ele>
        <time>2022-08-27T17:02:55Z</time>
      </trkpt>
      <trkpt lat="43.432427" lon="-4.811226">
        <ele>63.550</ele>
        <time>2022-08-27T17:02:58Z</time>
      </trkpt>
      <trkpt lat="43.432375" lon="-4.811196">
        <ele>64.463</ele>
        <time>2022-08-27T17:03:01Z</time>
      </trkpt>
      <trkpt lat="43.432325" lon="-4.811169">
        <ele>65.544</ele>
        <time>2022-08-27T17:03:04Z</time>
      </trkpt>
      <trkpt lat="43.432272" lon="-4.811127">
        <ele>66.318</ele>
        <time>2022-08-27T17:03:07Z</time>
      </trkpt>
      <trkpt lat="43.432222" lon="-4.811090">
        <ele>67.209</ele>
        <time>2022-08-27T17:03:10Z</time>
      </trkpt>
      <trkpt lat="43.432182" lon="-4.811033">
        <ele>68.337</ele>
        <time>2022-08-27T17:03:13Z</time>
      </trkpt>
      <trkpt lat="43.432139" lon="-4.810981">
        <ele>69.447</ele>
        <time>2022-08-27T17:03:16Z</time>
      </trkpt>
      <trkpt lat="43.432082" lon="-4.810946">
        <ele>70.228</ele>
        <time>2022-08-27T17:03:19Z</time>
      </trkpt>
      <trkpt lat="43.432039" lon="-4.810924">
        <ele>70.266</ele>
        <time>2022-08-27T17:03:21Z</time>
      </trkpt>
      <trkpt lat="43.431991" lon="-4.810901">
        <ele>70.266</ele>
        <time>2022-08-27T17:03:23Z</time>
      </trkpt>
      <trkpt lat="43.431941" lon="-4.810866">
        <ele>70.152</ele>
        <time>2022-08-27T17:03:25Z</time>
      </trkpt>
      <trkpt lat="43.431886" lon="-4.810833">
        <ele>70.086</ele>
        <time>2022-08-27T17:03:27Z</time>
      </trkpt>
      <trkpt lat="43.431836" lon="-4.810805">
        <ele>70.073</ele>
        <time>2022-08-27T17:03:29Z</time>
      </trkpt>
      <trkpt lat="43.431788" lon="-4.810777">
        <ele>70.040</ele>
        <time>2022-08-27T17:03:31Z</time>
      </trkpt>
      <trkpt lat="43.431726" lon="-4.810749">
        <ele>70.055</ele>
        <time>2022-08-27T17:03:33Z</time>
      </trkpt>
      <trkpt lat="43.431643" lon="-4.810704">
        <ele>70.007</ele>
        <time>2022-08-27T17:03:35Z</time>
      </trkpt>
      <trkpt lat="43.431588" lon="-4.810677">
        <ele>69.917</ele>
        <time>2022-08-27T17:03:36Z</time>
      </trkpt>
      <trkpt lat="43.431463" lon="-4.810609">
        <ele>69.109</ele>
        <time>2022-08-27T17:03:38Z</time>
      </trkpt>
      <trkpt lat="43.431321" lon="-4.810531">
        <ele>68.036</ele>
        <time>2022-08-27T17:03:40Z</time>
      </trkpt>
      <trkpt lat="43.431183" lon="-4.810446">
        <ele>67.316</ele>
        <time>2022-08-27T17:03:42Z</time>
      </trkpt>
      <trkpt lat="43.431113" lon="-4.810396">
        <ele>67.117</ele>
        <time>2022-08-27T17:03:43Z</time>
      </trkpt>
      <trkpt lat="43.430976" lon="-4.810289">
        <ele>66.155</ele>
        <time>2022-08-27T17:03:45Z</time>
      </trkpt>
      <trkpt lat="43.430913" lon="-4.810236">
        <ele>65.575</ele>
        <time>2022-08-27T17:03:46Z</time>
      </trkpt>
      <trkpt lat="43.430856" lon="-4.810183">
        <ele>65.151</ele>
        <time>2022-08-27T17:03:47Z</time>
      </trkpt>
      <trkpt lat="43.430804" lon="-4.810123">
        <ele>64.655</ele>
        <time>2022-08-27T17:03:48Z</time>
      </trkpt>
      <trkpt lat="43.430701" lon="-4.810000">
        <ele>64.072</ele>
        <time>2022-08-27T17:03:50Z</time>
      </trkpt>
      <trkpt lat="43.430609" lon="-4.809885">
        <ele>63.899</ele>
        <time>2022-08-27T17:03:52Z</time>
      </trkpt>
      <trkpt lat="43.430522" lon="-4.809778">
        <ele>63.562</ele>
        <time>2022-08-27T17:03:54Z</time>
      </trkpt>
      <trkpt lat="43.430430" lon="-4.809690">
        <ele>63.483</ele>
        <time>2022-08-27T17:03:56Z</time>
      </trkpt>
      <trkpt lat="43.430342" lon="-4.809620">
        <ele>63.311</ele>
        <time>2022-08-27T17:03:58Z</time>
      </trkpt>
      <trkpt lat="43.430302" lon="-4.809592">
        <ele>63.309</ele>
        <time>2022-08-27T17:03:59Z</time>
      </trkpt>
      <trkpt lat="43.430239" lon="-4.809550">
        <ele>63.387</ele>
        <time>2022-08-27T17:04:01Z</time>
      </trkpt>
      <trkpt lat="43.430191" lon="-4.809532">
        <ele>63.357</ele>
        <time>2022-08-27T17:04:03Z</time>
      </trkpt>
      <trkpt lat="43.430134" lon="-4.809525">
        <ele>63.298</ele>
        <time>2022-08-27T17:04:07Z</time>
      </trkpt>
      <trkpt lat="43.430079" lon="-4.809512">
        <ele>62.986</ele>
        <time>2022-08-27T17:04:10Z</time>
      </trkpt>
      <trkpt lat="43.430032" lon="-4.809509">
        <ele>62.796</ele>
        <time>2022-08-27T17:04:12Z</time>
      </trkpt>
      <trkpt lat="43.429980" lon="-4.809501">
        <ele>62.622</ele>
        <time>2022-08-27T17:04:15Z</time>
      </trkpt>
      <trkpt lat="43.429932" lon="-4.809516">
        <ele>62.686</ele>
        <time>2022-08-27T17:04:17Z</time>
      </trkpt>
      <trkpt lat="43.429875" lon="-4.809546">
        <ele>62.553</ele>
        <time>2022-08-27T17:04:19Z</time>
      </trkpt>
      <trkpt lat="43.429812" lon="-4.809578">
        <ele>61.970</ele>
        <time>2022-08-27T17:04:21Z</time>
      </trkpt>
      <trkpt lat="43.429749" lon="-4.809611">
        <ele>61.739</ele>
        <time>2022-08-27T17:04:23Z</time>
      </trkpt>
      <trkpt lat="43.429682" lon="-4.809631">
        <ele>62.101</ele>
        <time>2022-08-27T17:04:24Z</time>
      </trkpt>
      <trkpt lat="43.429622" lon="-4.809629">
        <ele>62.721</ele>
        <time>2022-08-27T17:04:26Z</time>
      </trkpt>
      <trkpt lat="43.429560" lon="-4.809654">
        <ele>63.109</ele>
        <time>2022-08-27T17:04:28Z</time>
      </trkpt>
      <trkpt lat="43.429407" lon="-4.809626">
        <ele>63.924</ele>
        <time>2022-08-27T17:04:31Z</time>
      </trkpt>
      <trkpt lat="43.429352" lon="-4.809616">
        <ele>73.964</ele>
        <time>2022-08-27T17:04:32Z</time>
      </trkpt>
      <trkpt lat="43.429302" lon="-4.809623">
        <ele>90.785</ele>
        <time>2022-08-27T17:04:34Z</time>
      </trkpt>
      <trkpt lat="43.429274" lon="-4.809555">
        <ele>80.423</ele>
        <time>2022-08-27T17:04:55Z</time>
      </trkpt>
      <trkpt lat="43.429274" lon="-4.809453">
        <ele>78.453</ele>
        <time>2022-08-27T17:04:59Z</time>
      </trkpt>
      <trkpt lat="43.429274" lon="-4.809375">
        <ele>76.429</ele>
        <time>2022-08-27T17:05:01Z</time>
      </trkpt>
      <trkpt lat="43.429262" lon="-4.809292">
        <ele>73.183</ele>
        <time>2022-08-27T17:05:03Z</time>
      </trkpt>
      <trkpt lat="43.429247" lon="-4.809200">
        <ele>73.130</ele>
        <time>2022-08-27T17:05:05Z</time>
      </trkpt>
      <trkpt lat="43.429240" lon="-4.809113">
        <ele>64.677</ele>
        <time>2022-08-27T17:05:07Z</time>
      </trkpt>
      <trkpt lat="43.429232" lon="-4.809018">
        <ele>63.593</ele>
        <time>2022-08-27T17:05:08Z</time>
      </trkpt>
      <trkpt lat="43.429240" lon="-4.808903">
        <ele>62.365</ele>
        <time>2022-08-27T17:05:10Z</time>
      </trkpt>
      <trkpt lat="43.429253" lon="-4.808795">
        <ele>61.621</ele>
        <time>2022-08-27T17:05:13Z</time>
      </trkpt>
      <trkpt lat="43.429271" lon="-4.808683">
        <ele>61.409</ele>
        <time>2022-08-27T17:05:15Z</time>
      </trkpt>
      <trkpt lat="43.429291" lon="-4.808585">
        <ele>61.310</ele>
        <time>2022-08-27T17:05:17Z</time>
      </trkpt>
      <trkpt lat="43.429311" lon="-4.808492">
        <ele>60.870</ele>
        <time>2022-08-27T17:05:19Z</time>
      </trkpt>
      <trkpt lat="43.429319" lon="-4.808395">
        <ele>60.461</ele>
        <time>2022-08-27T17:05:21Z</time>
      </trkpt>
      <trkpt lat="43.429329" lon="-4.808303">
        <ele>60.019</ele>
        <time>2022-08-27T17:05:23Z</time>
      </trkpt>
      <trkpt lat="43.429342" lon="-4.808215">
        <ele>59.129</ele>
        <time>2022-08-27T17:05:25Z</time>
      </trkpt>
      <trkpt lat="43.429347" lon="-4.808130">
        <ele>58.535</ele>
        <time>2022-08-27T17:05:27Z</time>
      </trkpt>
      <trkpt lat="43.429344" lon="-4.808032">
        <ele>58.319</ele>
        <time>2022-08-27T17:05:29Z</time>
      </trkpt>
      <trkpt lat="43.429344" lon="-4.807920">
        <ele>58.036</ele>
        <time>2022-08-27T17:05:31Z</time>
      </trkpt>
      <trkpt lat="43.429339" lon="-4.807812">
        <ele>57.853</ele>
        <time>2022-08-27T17:05:33Z</time>
      </trkpt>
      <trkpt lat="43.429341" lon="-4.807705">
        <ele>57.468</ele>
        <time>2022-08-27T17:05:35Z</time>
      </trkpt>
      <trkpt lat="43.429346" lon="-4.807592">
        <ele>57.342</ele>
        <time>2022-08-27T17:05:37Z</time>
      </trkpt>
      <trkpt lat="43.429331" lon="-4.807472">
        <ele>57.126</ele>
        <time>2022-08-27T17:05:39Z</time>
      </trkpt>
      <trkpt lat="43.429303" lon="-4.807357">
        <ele>57.009</ele>
        <time>2022-08-27T17:05:41Z</time>
      </trkpt>
      <trkpt lat="43.429248" lon="-4.807264">
        <ele>57.097</ele>
        <time>2022-08-27T17:05:43Z</time>
      </trkpt>
      <trkpt lat="43.429216" lon="-4.807216">
        <ele>56.967</ele>
        <time>2022-08-27T17:05:44Z</time>
      </trkpt>
      <trkpt lat="43.429166" lon="-4.807104">
        <ele>57.068</ele>
        <time>2022-08-27T17:05:46Z</time>
      </trkpt>
      <trkpt lat="43.429131" lon="-4.806979">
        <ele>57.386</ele>
        <time>2022-08-27T17:05:48Z</time>
      </trkpt>
      <trkpt lat="43.429106" lon="-4.806854">
        <ele>57.736</ele>
        <time>2022-08-27T17:05:50Z</time>
      </trkpt>
      <trkpt lat="43.429101" lon="-4.806792">
        <ele>58.182</ele>
        <time>2022-08-27T17:05:51Z</time>
      </trkpt>
      <trkpt lat="43.429069" lon="-4.806674">
        <ele>58.336</ele>
        <time>2022-08-27T17:05:53Z</time>
      </trkpt>
      <trkpt lat="43.429031" lon="-4.806544">
        <ele>58.493</ele>
        <time>2022-08-27T17:05:55Z</time>
      </trkpt>
      <trkpt lat="43.429001" lon="-4.806422">
        <ele>58.470</ele>
        <time>2022-08-27T17:05:57Z</time>
      </trkpt>
      <trkpt lat="43.428983" lon="-4.806364">
        <ele>58.434</ele>
        <time>2022-08-27T17:05:58Z</time>
      </trkpt>
      <trkpt lat="43.428955" lon="-4.806254">
        <ele>58.555</ele>
        <time>2022-08-27T17:06:00Z</time>
      </trkpt>
      <trkpt lat="43.428932" lon="-4.806149">
        <ele>58.610</ele>
        <time>2022-08-27T17:06:02Z</time>
      </trkpt>
      <trkpt lat="43.428904" lon="-4.806037">
        <ele>58.609</ele>
        <time>2022-08-27T17:06:04Z</time>
      </trkpt>
      <trkpt lat="43.428861" lon="-4.805934">
        <ele>58.584</ele>
        <time>2022-08-27T17:06:05Z</time>
      </trkpt>
      <trkpt lat="43.428816" lon="-4.805839">
        <ele>58.284</ele>
        <time>2022-08-27T17:06:08Z</time>
      </trkpt>
      <trkpt lat="43.428766" lon="-4.805747">
        <ele>57.945</ele>
        <time>2022-08-27T17:06:10Z</time>
      </trkpt>
      <trkpt lat="43.428708" lon="-4.805655">
        <ele>57.963</ele>
        <time>2022-08-27T17:06:12Z</time>
      </trkpt>
      <trkpt lat="43.428645" lon="-4.805588">
        <ele>57.913</ele>
        <time>2022-08-27T17:06:14Z</time>
      </trkpt>
      <trkpt lat="43.428578" lon="-4.805561">
        <ele>58.559</ele>
        <time>2022-08-27T17:06:16Z</time>
      </trkpt>
      <trkpt lat="43.428508" lon="-4.805556">
        <ele>59.423</ele>
        <time>2022-08-27T17:06:18Z</time>
      </trkpt>
      <trkpt lat="43.428448" lon="-4.805521">
        <ele>60.160</ele>
        <time>2022-08-27T17:06:20Z</time>
      </trkpt>
      <trkpt lat="43.428396" lon="-4.805476">
        <ele>61.157</ele>
        <time>2022-08-27T17:06:22Z</time>
      </trkpt>
      <trkpt lat="43.428358" lon="-4.805433">
        <ele>61.729</ele>
        <time>2022-08-27T17:06:24Z</time>
      </trkpt>
      <trkpt lat="43.428310" lon="-4.805363">
        <ele>61.900</ele>
        <time>2022-08-27T17:06:27Z</time>
      </trkpt>
      <trkpt lat="43.428263" lon="-4.805316">
        <ele>62.220</ele>
        <time>2022-08-27T17:06:29Z</time>
      </trkpt>
      <trkpt lat="43.428216" lon="-4.805274">
        <ele>62.209</ele>
        <time>2022-08-27T17:06:31Z</time>
      </trkpt>
      <trkpt lat="43.428174" lon="-4.805222">
        <ele>62.273</ele>
        <time>2022-08-27T17:06:33Z</time>
      </trkpt>
      <trkpt lat="43.428134" lon="-4.805172">
        <ele>62.083</ele>
        <time>2022-08-27T17:06:35Z</time>
      </trkpt>
      <trkpt lat="43.428096" lon="-4.805130">
        <ele>61.484</ele>
        <time>2022-08-27T17:06:37Z</time>
      </trkpt>
      <trkpt lat="43.428056" lon="-4.805090">
        <ele>61.332</ele>
        <time>2022-08-27T17:06:39Z</time>
      </trkpt>
      <trkpt lat="43.428004" lon="-4.805048">
        <ele>61.382</ele>
        <time>2022-08-27T17:06:41Z</time>
      </trkpt>
      <trkpt lat="43.427967" lon="-4.804981">
        <ele>61.338</ele>
        <time>2022-08-27T17:06:43Z</time>
      </trkpt>
      <trkpt lat="43.427937" lon="-4.804888">
        <ele>61.652</ele>
        <time>2022-08-27T17:06:45Z</time>
      </trkpt>
      <trkpt lat="43.427909" lon="-4.804793">
        <ele>61.989</ele>
        <time>2022-08-27T17:06:47Z</time>
      </trkpt>
      <trkpt lat="43.427881" lon="-4.804708">
        <ele>62.326</ele>
        <time>2022-08-27T17:06:49Z</time>
      </trkpt>
      <trkpt lat="43.427841" lon="-4.804640">
        <ele>62.579</ele>
        <time>2022-08-27T17:06:51Z</time>
      </trkpt>
      <trkpt lat="43.427804" lon="-4.804595">
        <ele>62.705</ele>
        <time>2022-08-27T17:06:53Z</time>
      </trkpt>
      <trkpt lat="43.427784" lon="-4.804522">
        <ele>62.925</ele>
        <time>2022-08-27T17:06:56Z</time>
      </trkpt>
      <trkpt lat="43.427839" lon="-4.804555">
        <ele>63.709</ele>
        <time>2022-08-27T17:06:59Z</time>
      </trkpt>
      <trkpt lat="43.427862" lon="-4.804630">
        <ele>64.148</ele>
        <time>2022-08-27T17:07:01Z</time>
      </trkpt>
      <trkpt lat="43.427889" lon="-4.804713">
        <ele>64.538</ele>
        <time>2022-08-27T17:07:03Z</time>
      </trkpt>
      <trkpt lat="43.427917" lon="-4.804790">
        <ele>64.739</ele>
        <time>2022-08-27T17:07:05Z</time>
      </trkpt>
      <trkpt lat="43.427950" lon="-4.804865">
        <ele>64.667</ele>
        <time>2022-08-27T17:07:07Z</time>
      </trkpt>
      <trkpt lat="43.427975" lon="-4.804940">
        <ele>64.557</ele>
        <time>2022-08-27T17:07:09Z</time>
      </trkpt>
      <trkpt lat="43.428007" lon="-4.804995">
        <ele>64.123</ele>
        <time>2022-08-27T17:07:11Z</time>
      </trkpt>
      <trkpt lat="43.428069" lon="-4.804965">
        <ele>63.737</ele>
        <time>2022-08-27T17:07:14Z</time>
      </trkpt>
      <trkpt lat="43.428119" lon="-4.804900">
        <ele>63.694</ele>
        <time>2022-08-27T17:07:16Z</time>
      </trkpt>
      <trkpt lat="43.428162" lon="-4.804833">
        <ele>63.511</ele>
        <time>2022-08-27T17:07:18Z</time>
      </trkpt>
      <trkpt lat="43.428210" lon="-4.804771">
        <ele>63.567</ele>
        <time>2022-08-27T17:07:20Z</time>
      </trkpt>
      <trkpt lat="43.428240" lon="-4.804703">
        <ele>63.781</ele>
        <time>2022-08-27T17:07:22Z</time>
      </trkpt>
      <trkpt lat="43.428275" lon="-4.804653">
        <ele>63.619</ele>
        <time>2022-08-27T17:07:24Z</time>
      </trkpt>
      <trkpt lat="43.428312" lon="-4.804610">
        <ele>63.609</ele>
        <time>2022-08-27T17:07:26Z</time>
      </trkpt>
      <trkpt lat="43.428359" lon="-4.804570">
        <ele>63.537</ele>
        <time>2022-08-27T17:07:28Z</time>
      </trkpt>
      <trkpt lat="43.428402" lon="-4.804532">
        <ele>63.517</ele>
        <time>2022-08-27T17:07:30Z</time>
      </trkpt>
      <trkpt lat="43.428440" lon="-4.804475">
        <ele>63.568</ele>
        <time>2022-08-27T17:07:32Z</time>
      </trkpt>
      <trkpt lat="43.428485" lon="-4.804410">
        <ele>63.746</ele>
        <time>2022-08-27T17:07:35Z</time>
      </trkpt>
      <trkpt lat="43.428522" lon="-4.804357">
        <ele>63.886</ele>
        <time>2022-08-27T17:07:37Z</time>
      </trkpt>
      <trkpt lat="43.428552" lon="-4.804299">
        <ele>63.982</ele>
        <time>2022-08-27T17:07:39Z</time>
      </trkpt>
      <trkpt lat="43.428572" lon="-4.804232">
        <ele>64.086</ele>
        <time>2022-08-27T17:07:41Z</time>
      </trkpt>
      <trkpt lat="43.428595" lon="-4.804157">
        <ele>64.193</ele>
        <time>2022-08-27T17:07:43Z</time>
      </trkpt>
      <trkpt lat="43.428612" lon="-4.804067">
        <ele>64.310</ele>
        <time>2022-08-27T17:07:45Z</time>
      </trkpt>
      <trkpt lat="43.428635" lon="-4.803967">
        <ele>64.519</ele>
        <time>2022-08-27T17:07:47Z</time>
      </trkpt>
      <trkpt lat="43.428665" lon="-4.803862">
        <ele>64.709</ele>
        <time>2022-08-27T17:07:49Z</time>
      </trkpt>
      <trkpt lat="43.428675" lon="-4.803754">
        <ele>64.619</ele>
        <time>2022-08-27T17:07:51Z</time>
      </trkpt>
      <trkpt lat="43.428677" lon="-4.803637">
        <ele>64.009</ele>
        <time>2022-08-27T17:07:53Z</time>
      </trkpt>
      <trkpt lat="43.428687" lon="-4.803534">
        <ele>64.072</ele>
        <time>2022-08-27T17:07:55Z</time>
      </trkpt>
      <trkpt lat="43.428694" lon="-4.803427">
        <ele>64.112</ele>
        <time>2022-08-27T17:07:57Z</time>
      </trkpt>
      <trkpt lat="43.428692" lon="-4.803322">
        <ele>64.343</ele>
        <time>2022-08-27T17:07:59Z</time>
      </trkpt>
      <trkpt lat="43.428689" lon="-4.803219">
        <ele>64.461</ele>
        <time>2022-08-27T17:08:01Z</time>
      </trkpt>
      <trkpt lat="43.428694" lon="-4.803111">
        <ele>64.531</ele>
        <time>2022-08-27T17:08:03Z</time>
      </trkpt>
      <trkpt lat="43.428706" lon="-4.803008">
        <ele>64.637</ele>
        <time>2022-08-27T17:08:05Z</time>
      </trkpt>
      <trkpt lat="43.428724" lon="-4.802913">
        <ele>64.691</ele>
        <time>2022-08-27T17:08:07Z</time>
      </trkpt>
      <trkpt lat="43.428754" lon="-4.802838">
        <ele>64.818</ele>
        <time>2022-08-27T17:08:09Z</time>
      </trkpt>
      <trkpt lat="43.428781" lon="-4.802768">
        <ele>65.165</ele>
        <time>2022-08-27T17:08:11Z</time>
      </trkpt>
      <trkpt lat="43.428808" lon="-4.802703">
        <ele>65.878</ele>
        <time>2022-08-27T17:08:13Z</time>
      </trkpt>
      <trkpt lat="43.428841" lon="-4.802641">
        <ele>66.533</ele>
        <time>2022-08-27T17:08:15Z</time>
      </trkpt>
      <trkpt lat="43.428871" lon="-4.802579">
        <ele>67.226</ele>
        <time>2022-08-27T17:08:17Z</time>
      </trkpt>
      <trkpt lat="43.428901" lon="-4.802524">
        <ele>68.209</ele>
        <time>2022-08-27T17:08:19Z</time>
      </trkpt>
      <trkpt lat="43.428934" lon="-4.802477">
        <ele>69.618</ele>
        <time>2022-08-27T17:08:20Z</time>
      </trkpt>
      <trkpt lat="43.428986" lon="-4.802422">
        <ele>70.918</ele>
        <time>2022-08-27T17:08:24Z</time>
      </trkpt>
      <trkpt lat="43.429024" lon="-4.802382">
        <ele>71.799</ele>
        <time>2022-08-27T17:08:26Z</time>
      </trkpt>
      <trkpt lat="43.429064" lon="-4.802345">
        <ele>72.537</ele>
        <time>2022-08-27T17:08:28Z</time>
      </trkpt>
      <trkpt lat="43.429111" lon="-4.802303">
        <ele>72.567</ele>
        <time>2022-08-27T17:08:31Z</time>
      </trkpt>
      <trkpt lat="43.429149" lon="-4.802253">
        <ele>72.553</ele>
        <time>2022-08-27T17:08:34Z</time>
      </trkpt>
      <trkpt lat="43.429202" lon="-4.802210">
        <ele>72.697</ele>
        <time>2022-08-27T17:08:37Z</time>
      </trkpt>
      <trkpt lat="43.429250" lon="-4.802192">
        <ele>72.644</ele>
        <time>2022-08-27T17:08:40Z</time>
      </trkpt>
      <trkpt lat="43.429310" lon="-4.802174">
        <ele>72.661</ele>
        <time>2022-08-27T17:08:43Z</time>
      </trkpt>
      <trkpt lat="43.429357" lon="-4.802156">
        <ele>72.975</ele>
        <time>2022-08-27T17:08:46Z</time>
      </trkpt>
      <trkpt lat="43.429407" lon="-4.802138">
        <ele>73.428</ele>
        <time>2022-08-27T17:08:49Z</time>
      </trkpt>
      <trkpt lat="43.429462" lon="-4.802135">
        <ele>74.420</ele>
        <time>2022-08-27T17:08:52Z</time>
      </trkpt>
      <trkpt lat="43.429507" lon="-4.802083">
        <ele>75.109</ele>
        <time>2022-08-27T17:08:55Z</time>
      </trkpt>
      <trkpt lat="43.429527" lon="-4.802001">
        <ele>76.428</ele>
        <time>2022-08-27T17:08:58Z</time>
      </trkpt>
      <trkpt lat="43.429545" lon="-4.801943">
        <ele>77.098</ele>
        <time>2022-08-27T17:09:01Z</time>
      </trkpt>
      <trkpt lat="43.429558" lon="-4.801876">
        <ele>77.569</ele>
        <time>2022-08-27T17:09:04Z</time>
      </trkpt>
      <trkpt lat="43.429581" lon="-4.801801">
        <ele>78.157</ele>
        <time>2022-08-27T17:09:07Z</time>
      </trkpt>
      <trkpt lat="43.429599" lon="-4.801729">
        <ele>78.657</ele>
        <time>2022-08-27T17:09:10Z</time>
      </trkpt>
      <trkpt lat="43.429617" lon="-4.801659">
        <ele>78.713</ele>
        <time>2022-08-27T17:09:13Z</time>
      </trkpt>
      <trkpt lat="43.429640" lon="-4.801591">
        <ele>79.787</ele>
        <time>2022-08-27T17:09:16Z</time>
      </trkpt>
      <trkpt lat="43.429653" lon="-4.801511">
        <ele>80.164</ele>
        <time>2022-08-27T17:09:19Z</time>
      </trkpt>
      <trkpt lat="43.429675" lon="-4.801446">
        <ele>80.241</ele>
        <time>2022-08-27T17:09:22Z</time>
      </trkpt>
      <trkpt lat="43.429713" lon="-4.801398">
        <ele>80.445</ele>
        <time>2022-08-27T17:09:25Z</time>
      </trkpt>
      <trkpt lat="43.429748" lon="-4.801345">
        <ele>81.047</ele>
        <time>2022-08-27T17:09:28Z</time>
      </trkpt>
      <trkpt lat="43.429798" lon="-4.801295">
        <ele>81.211</ele>
        <time>2022-08-27T17:09:31Z</time>
      </trkpt>
      <trkpt lat="43.429836" lon="-4.801258">
        <ele>81.209</ele>
        <time>2022-08-27T17:09:33Z</time>
      </trkpt>
      <trkpt lat="43.429873" lon="-4.801221">
        <ele>81.275</ele>
        <time>2022-08-27T17:09:35Z</time>
      </trkpt>
      <trkpt lat="43.429921" lon="-4.801178">
        <ele>81.135</ele>
        <time>2022-08-27T17:09:37Z</time>
      </trkpt>
      <trkpt lat="43.429983" lon="-4.801123">
        <ele>81.016</ele>
        <time>2022-08-27T17:09:39Z</time>
      </trkpt>
      <trkpt lat="43.430043" lon="-4.801070">
        <ele>80.564</ele>
        <time>2022-08-27T17:09:41Z</time>
      </trkpt>
      <trkpt lat="43.430096" lon="-4.801023">
        <ele>80.524</ele>
        <time>2022-08-27T17:09:43Z</time>
      </trkpt>
      <trkpt lat="43.430131" lon="-4.800983">
        <ele>80.550</ele>
        <time>2022-08-27T17:09:45Z</time>
      </trkpt>
      <trkpt lat="43.430183" lon="-4.800938">
        <ele>81.284</ele>
        <time>2022-08-27T17:09:48Z</time>
      </trkpt>
      <trkpt lat="43.430230" lon="-4.800905">
        <ele>81.591</ele>
        <time>2022-08-27T17:09:51Z</time>
      </trkpt>
      <trkpt lat="43.430277" lon="-4.800863">
        <ele>82.018</ele>
        <time>2022-08-27T17:09:54Z</time>
      </trkpt>
      <trkpt lat="43.430324" lon="-4.800805">
        <ele>82.349</ele>
        <time>2022-08-27T17:09:57Z</time>
      </trkpt>
      <trkpt lat="43.430367" lon="-4.800763">
        <ele>82.502</ele>
        <time>2022-08-27T17:09:59Z</time>
      </trkpt>
      <trkpt lat="43.430407" lon="-4.800716">
        <ele>82.922</ele>
        <time>2022-08-27T17:10:01Z</time>
      </trkpt>
      <trkpt lat="43.430444" lon="-4.800674">
        <ele>83.109</ele>
        <time>2022-08-27T17:10:03Z</time>
      </trkpt>
      <trkpt lat="43.430467" lon="-4.800591">
        <ele>83.725</ele>
        <time>2022-08-27T17:10:06Z</time>
      </trkpt>
      <trkpt lat="43.430469" lon="-4.800519">
        <ele>84.355</ele>
        <time>2022-08-27T17:10:08Z</time>
      </trkpt>
      <trkpt lat="43.430476" lon="-4.800436">
        <ele>84.546</ele>
        <time>2022-08-27T17:10:10Z</time>
      </trkpt>
      <trkpt lat="43.430506" lon="-4.800353">
        <ele>84.684</ele>
        <time>2022-08-27T17:10:12Z</time>
      </trkpt>
      <trkpt lat="43.430563" lon="-4.800283">
        <ele>84.674</ele>
        <time>2022-08-27T17:10:14Z</time>
      </trkpt>
      <trkpt lat="43.430621" lon="-4.800208">
        <ele>84.830</ele>
        <time>2022-08-27T17:10:16Z</time>
      </trkpt>
      <trkpt lat="43.430676" lon="-4.800133">
        <ele>84.944</ele>
        <time>2022-08-27T17:10:18Z</time>
      </trkpt>
      <trkpt lat="43.430719" lon="-4.800065">
        <ele>84.971</ele>
        <time>2022-08-27T17:10:20Z</time>
      </trkpt>
      <trkpt lat="43.430754" lon="-4.800008">
        <ele>84.988</ele>
        <time>2022-08-27T17:10:22Z</time>
      </trkpt>
      <trkpt lat="43.430781" lon="-4.799955">
        <ele>84.961</ele>
        <time>2022-08-27T17:10:24Z</time>
      </trkpt>
      <trkpt lat="43.430804" lon="-4.799888">
        <ele>84.821</ele>
        <time>2022-08-27T17:10:26Z</time>
      </trkpt>
      <trkpt lat="43.430814" lon="-4.799826">
        <ele>84.813</ele>
        <time>2022-08-27T17:10:28Z</time>
      </trkpt>
      <trkpt lat="43.430824" lon="-4.799758">
        <ele>84.509</ele>
        <time>2022-08-27T17:10:31Z</time>
      </trkpt>
      <trkpt lat="43.430846" lon="-4.799690">
        <ele>86.057</ele>
        <time>2022-08-27T17:18:17Z</time>
      </trkpt>
      <trkpt lat="43.430874" lon="-4.799613">
        <ele>86.027</ele>
        <time>2022-08-27T17:18:19Z</time>
      </trkpt>
      <trkpt lat="43.430889" lon="-4.799521">
        <ele>86.088</ele>
        <time>2022-08-27T17:18:21Z</time>
      </trkpt>
      <trkpt lat="43.430897" lon="-4.799428">
        <ele>86.016</ele>
        <time>2022-08-27T17:18:23Z</time>
      </trkpt>
      <trkpt lat="43.430900" lon="-4.799341">
        <ele>81.966</ele>
        <time>2022-08-27T17:18:25Z</time>
      </trkpt>
      <trkpt lat="43.430900" lon="-4.799269">
        <ele>80.342</ele>
        <time>2022-08-27T17:18:27Z</time>
      </trkpt>
      <trkpt lat="43.430912" lon="-4.799166">
        <ele>78.916</ele>
        <time>2022-08-27T17:18:29Z</time>
      </trkpt>
      <trkpt lat="43.430925" lon="-4.799091">
        <ele>78.343</ele>
        <time>2022-08-27T17:18:30Z</time>
      </trkpt>
      <trkpt lat="43.430960" lon="-4.798939">
        <ele>75.740</ele>
        <time>2022-08-27T17:18:32Z</time>
      </trkpt>
      <trkpt lat="43.431002" lon="-4.798819">
        <ele>74.197</ele>
        <time>2022-08-27T17:18:34Z</time>
      </trkpt>
      <trkpt lat="43.431025" lon="-4.798766">
        <ele>73.423</ele>
        <time>2022-08-27T17:18:35Z</time>
      </trkpt>
      <trkpt lat="43.431063" lon="-4.798666">
        <ele>71.725</ele>
        <time>2022-08-27T17:18:37Z</time>
      </trkpt>
      <trkpt lat="43.431085" lon="-4.798591">
        <ele>70.609</ele>
        <time>2022-08-27T17:18:39Z</time>
      </trkpt>
      <trkpt lat="43.431110" lon="-4.798491">
        <ele>69.870</ele>
        <time>2022-08-27T17:18:41Z</time>
      </trkpt>
      <trkpt lat="43.431133" lon="-4.798381">
        <ele>68.730</ele>
        <time>2022-08-27T17:18:43Z</time>
      </trkpt>
      <trkpt lat="43.431145" lon="-4.798244">
        <ele>68.171</ele>
        <time>2022-08-27T17:18:45Z</time>
      </trkpt>
      <trkpt lat="43.431148" lon="-4.798159">
        <ele>67.879</ele>
        <time>2022-08-27T17:18:46Z</time>
      </trkpt>
      <trkpt lat="43.431153" lon="-4.797972">
        <ele>66.149</ele>
        <time>2022-08-27T17:18:48Z</time>
      </trkpt>
      <trkpt lat="43.431158" lon="-4.797880">
        <ele>65.665</ele>
        <time>2022-08-27T17:18:49Z</time>
      </trkpt>
      <trkpt lat="43.431176" lon="-4.797707">
        <ele>65.439</ele>
        <time>2022-08-27T17:18:51Z</time>
      </trkpt>
      <trkpt lat="43.431193" lon="-4.797622">
        <ele>65.456</ele>
        <time>2022-08-27T17:18:52Z</time>
      </trkpt>
      <trkpt lat="43.431220" lon="-4.797459">
        <ele>65.133</ele>
        <time>2022-08-27T17:18:54Z</time>
      </trkpt>
      <trkpt lat="43.431232" lon="-4.797374">
        <ele>64.816</ele>
        <time>2022-08-27T17:18:55Z</time>
      </trkpt>
      <trkpt lat="43.431247" lon="-4.797211">
        <ele>64.876</ele>
        <time>2022-08-27T17:18:57Z</time>
      </trkpt>
      <trkpt lat="43.431252" lon="-4.797129">
        <ele>64.913</ele>
        <time>2022-08-27T17:18:58Z</time>
      </trkpt>
      <trkpt lat="43.431257" lon="-4.797049">
        <ele>64.909</ele>
        <time>2022-08-27T17:18:59Z</time>
      </trkpt>
      <trkpt lat="43.431260" lon="-4.796909">
        <ele>64.742</ele>
        <time>2022-08-27T17:19:01Z</time>
      </trkpt>
      <trkpt lat="43.431257" lon="-4.796842">
        <ele>64.642</ele>
        <time>2022-08-27T17:19:02Z</time>
      </trkpt>
      <trkpt lat="43.431249" lon="-4.796715">
        <ele>64.323</ele>
        <time>2022-08-27T17:19:04Z</time>
      </trkpt>
      <trkpt lat="43.431229" lon="-4.796597">
        <ele>64.091</ele>
        <time>2022-08-27T17:19:06Z</time>
      </trkpt>
      <trkpt lat="43.431197" lon="-4.796494">
        <ele>64.181</ele>
        <time>2022-08-27T17:19:08Z</time>
      </trkpt>
      <trkpt lat="43.431155" lon="-4.796411">
        <ele>64.187</ele>
        <time>2022-08-27T17:19:10Z</time>
      </trkpt>
      <trkpt lat="43.431105" lon="-4.796341">
        <ele>64.151</ele>
        <time>2022-08-27T17:19:12Z</time>
      </trkpt>
      <trkpt lat="43.431057" lon="-4.796263">
        <ele>64.178</ele>
        <time>2022-08-27T17:19:13Z</time>
      </trkpt>
      <trkpt lat="43.431010" lon="-4.796176">
        <ele>64.235</ele>
        <time>2022-08-27T17:19:16Z</time>
      </trkpt>
      <trkpt lat="43.430960" lon="-4.796109">
        <ele>64.525</ele>
        <time>2022-08-27T17:19:18Z</time>
      </trkpt>
      <trkpt lat="43.430908" lon="-4.796036">
        <ele>64.626</ele>
        <time>2022-08-27T17:19:20Z</time>
      </trkpt>
      <trkpt lat="43.430843" lon="-4.795986">
        <ele>64.608</ele>
        <time>2022-08-27T17:19:22Z</time>
      </trkpt>
      <trkpt lat="43.430776" lon="-4.795941">
        <ele>64.509</ele>
        <time>2022-08-27T17:19:24Z</time>
      </trkpt>
      <trkpt lat="43.430698" lon="-4.795901">
        <ele>64.423</ele>
        <time>2022-08-27T17:19:26Z</time>
      </trkpt>
      <trkpt lat="43.430620" lon="-4.795864">
        <ele>64.173</ele>
        <time>2022-08-27T17:19:28Z</time>
      </trkpt>
      <trkpt lat="43.430542" lon="-4.795829">
        <ele>63.924</ele>
        <time>2022-08-27T17:19:30Z</time>
      </trkpt>
      <trkpt lat="43.430462" lon="-4.795797">
        <ele>63.782</ele>
        <time>2022-08-27T17:19:32Z</time>
      </trkpt>
      <trkpt lat="43.430392" lon="-4.795760">
        <ele>63.782</ele>
        <time>2022-08-27T17:19:34Z</time>
      </trkpt>
      <trkpt lat="43.430327" lon="-4.795732">
        <ele>64.028</ele>
        <time>2022-08-27T17:19:36Z</time>
      </trkpt>
      <trkpt lat="43.430270" lon="-4.795700">
        <ele>64.482</ele>
        <time>2022-08-27T17:19:38Z</time>
      </trkpt>
      <trkpt lat="43.430222" lon="-4.795673">
        <ele>65.229</ele>
        <time>2022-08-27T17:19:40Z</time>
      </trkpt>
      <trkpt lat="43.430167" lon="-4.795653">
        <ele>65.976</ele>
        <time>2022-08-27T17:19:42Z</time>
      </trkpt>
      <trkpt lat="43.430115" lon="-4.795643">
        <ele>66.196</ele>
        <time>2022-08-27T17:19:44Z</time>
      </trkpt>
      <trkpt lat="43.430067" lon="-4.795641">
        <ele>66.631</ele>
        <time>2022-08-27T17:19:46Z</time>
      </trkpt>
      <trkpt lat="43.430009" lon="-4.795604">
        <ele>67.624</ele>
        <time>2022-08-27T17:19:49Z</time>
      </trkpt>
      <trkpt lat="43.429979" lon="-4.795554">
        <ele>68.909</ele>
        <time>2022-08-27T17:19:52Z</time>
      </trkpt>
      <trkpt lat="43.429986" lon="-4.795467">
        <ele>69.910</ele>
        <time>2022-08-27T17:19:55Z</time>
      </trkpt>
      <trkpt lat="43.430011" lon="-4.795372">
        <ele>70.480</ele>
        <time>2022-08-27T17:19:57Z</time>
      </trkpt>
      <trkpt lat="43.430034" lon="-4.795315">
        <ele>70.471</ele>
        <time>2022-08-27T17:19:58Z</time>
      </trkpt>
      <trkpt lat="43.430101" lon="-4.795200">
        <ele>70.519</ele>
        <time>2022-08-27T17:20:00Z</time>
      </trkpt>
      <trkpt lat="43.430139" lon="-4.795142">
        <ele>69.869</ele>
        <time>2022-08-27T17:20:01Z</time>
      </trkpt>
      <trkpt lat="43.430172" lon="-4.795074">
        <ele>69.275</ele>
        <time>2022-08-27T17:20:02Z</time>
      </trkpt>
      <trkpt lat="43.430215" lon="-4.794921">
        <ele>67.369</ele>
        <time>2022-08-27T17:20:04Z</time>
      </trkpt>
      <trkpt lat="43.430218" lon="-4.794761">
        <ele>66.016</ele>
        <time>2022-08-27T17:20:06Z</time>
      </trkpt>
      <trkpt lat="43.430186" lon="-4.794629">
        <ele>65.613</ele>
        <time>2022-08-27T17:20:08Z</time>
      </trkpt>
      <trkpt lat="43.430164" lon="-4.794504">
        <ele>65.773</ele>
        <time>2022-08-27T17:20:10Z</time>
      </trkpt>
      <trkpt lat="43.430162" lon="-4.794384">
        <ele>66.085</ele>
        <time>2022-08-27T17:20:12Z</time>
      </trkpt>
      <trkpt lat="43.430174" lon="-4.794267">
        <ele>66.413</ele>
        <time>2022-08-27T17:20:14Z</time>
      </trkpt>
      <trkpt lat="43.430179" lon="-4.794162">
        <ele>66.709</ele>
        <time>2022-08-27T17:20:16Z</time>
      </trkpt>
      <trkpt lat="43.430164" lon="-4.794072">
        <ele>67.198</ele>
        <time>2022-08-27T17:20:18Z</time>
      </trkpt>
      <trkpt lat="43.430146" lon="-4.793989">
        <ele>67.618</ele>
        <time>2022-08-27T17:20:20Z</time>
      </trkpt>
      <trkpt lat="43.430133" lon="-4.793906">
        <ele>68.669</ele>
        <time>2022-08-27T17:20:22Z</time>
      </trkpt>
      <trkpt lat="43.430125" lon="-4.793823">
        <ele>69.187</ele>
        <time>2022-08-27T17:20:24Z</time>
      </trkpt>
      <trkpt lat="43.430118" lon="-4.793743">
        <ele>69.797</ele>
        <time>2022-08-27T17:20:26Z</time>
      </trkpt>
      <trkpt lat="43.430118" lon="-4.793668">
        <ele>70.653</ele>
        <time>2022-08-27T17:20:28Z</time>
      </trkpt>
      <trkpt lat="43.430118" lon="-4.793590">
        <ele>70.937</ele>
        <time>2022-08-27T17:20:30Z</time>
      </trkpt>
      <trkpt lat="43.430123" lon="-4.793513">
        <ele>71.774</ele>
        <time>2022-08-27T17:20:32Z</time>
      </trkpt>
      <trkpt lat="43.430130" lon="-4.793441">
        <ele>71.911</ele>
        <time>2022-08-27T17:20:34Z</time>
      </trkpt>
      <trkpt lat="43.430137" lon="-4.793374">
        <ele>72.046</ele>
        <time>2022-08-27T17:20:36Z</time>
      </trkpt>
      <trkpt lat="43.430150" lon="-4.793299">
        <ele>72.188</ele>
        <time>2022-08-27T17:20:38Z</time>
      </trkpt>
      <trkpt lat="43.430167" lon="-4.793216">
        <ele>72.116</ele>
        <time>2022-08-27T17:20:40Z</time>
      </trkpt>
      <trkpt lat="43.430174" lon="-4.793138">
        <ele>72.109</ele>
        <time>2022-08-27T17:20:42Z</time>
      </trkpt>
      <trkpt lat="43.430179" lon="-4.793053">
        <ele>72.165</ele>
        <time>2022-08-27T17:20:44Z</time>
      </trkpt>
      <trkpt lat="43.430176" lon="-4.792970">
        <ele>72.175</ele>
        <time>2022-08-27T17:20:46Z</time>
      </trkpt>
      <trkpt lat="43.430174" lon="-4.792887">
        <ele>72.166</ele>
        <time>2022-08-27T17:20:48Z</time>
      </trkpt>
      <trkpt lat="43.430171" lon="-4.792795">
        <ele>71.734</ele>
        <time>2022-08-27T17:20:50Z</time>
      </trkpt>
      <trkpt lat="43.430189" lon="-4.792713">
        <ele>70.994</ele>
        <time>2022-08-27T17:20:52Z</time>
      </trkpt>
      <trkpt lat="43.430231" lon="-4.792666">
        <ele>69.880</ele>
        <time>2022-08-27T17:20:54Z</time>
      </trkpt>
      <trkpt lat="43.430249" lon="-4.792596">
        <ele>69.014</ele>
        <time>2022-08-27T17:20:56Z</time>
      </trkpt>
      <trkpt lat="43.430244" lon="-4.792494">
        <ele>66.991</ele>
        <time>2022-08-27T17:20:58Z</time>
      </trkpt>
      <trkpt lat="43.430229" lon="-4.792387">
        <ele>66.018</ele>
        <time>2022-08-27T17:21:00Z</time>
      </trkpt>
      <trkpt lat="43.430219" lon="-4.792280">
        <ele>65.719</ele>
        <time>2022-08-27T17:21:02Z</time>
      </trkpt>
      <trkpt lat="43.430216" lon="-4.792202">
        <ele>65.709</ele>
        <time>2022-08-27T17:21:04Z</time>
      </trkpt>
      <trkpt lat="43.430209" lon="-4.792125">
        <ele>66.819</ele>
        <time>2022-08-27T17:21:07Z</time>
      </trkpt>
      <trkpt lat="43.430206" lon="-4.792055">
        <ele>67.509</ele>
        <time>2022-08-27T17:21:10Z</time>
      </trkpt>
      <trkpt lat="43.430188" lon="-4.791992">
        <ele>68.782</ele>
        <time>2022-08-27T17:21:13Z</time>
      </trkpt>
      <trkpt lat="43.430160" lon="-4.791924">
        <ele>69.132</ele>
        <time>2022-08-27T17:21:16Z</time>
      </trkpt>
      <trkpt lat="43.430128" lon="-4.791864">
        <ele>69.453</ele>
        <time>2022-08-27T17:21:20Z</time>
      </trkpt>
      <trkpt lat="43.430105" lon="-4.791806">
        <ele>70.051</ele>
        <time>2022-08-27T17:21:23Z</time>
      </trkpt>
      <trkpt lat="43.430088" lon="-4.791744">
        <ele>71.011</ele>
        <time>2022-08-27T17:21:26Z</time>
      </trkpt>
      <trkpt lat="43.430083" lon="-4.791666">
        <ele>72.257</ele>
        <time>2022-08-27T17:21:30Z</time>
      </trkpt>
      <trkpt lat="43.430095" lon="-4.791593">
        <ele>73.511</ele>
        <time>2022-08-27T17:21:34Z</time>
      </trkpt>
      <trkpt lat="43.430080" lon="-4.791516">
        <ele>74.688</ele>
        <time>2022-08-27T17:21:38Z</time>
      </trkpt>
      <trkpt lat="43.430068" lon="-4.791454">
        <ele>75.295</ele>
        <time>2022-08-27T17:21:41Z</time>
      </trkpt>
      <trkpt lat="43.430056" lon="-4.791381">
        <ele>75.938</ele>
        <time>2022-08-27T17:21:44Z</time>
      </trkpt>
      <trkpt lat="43.430051" lon="-4.791308">
        <ele>76.670</ele>
        <time>2022-08-27T17:21:47Z</time>
      </trkpt>
      <trkpt lat="43.430041" lon="-4.791241">
        <ele>78.117</ele>
        <time>2022-08-27T17:21:51Z</time>
      </trkpt>
      <trkpt lat="43.430036" lon="-4.791166">
        <ele>78.809</ele>
        <time>2022-08-27T17:21:54Z</time>
      </trkpt>
      <trkpt lat="43.430023" lon="-4.791076">
        <ele>79.254</ele>
        <time>2022-08-27T17:21:57Z</time>
      </trkpt>
      <trkpt lat="43.430015" lon="-4.791011">
        <ele>79.534</ele>
        <time>2022-08-27T17:21:59Z</time>
      </trkpt>
      <trkpt lat="43.430007" lon="-4.790943">
        <ele>79.625</ele>
        <time>2022-08-27T17:22:01Z</time>
      </trkpt>
      <trkpt lat="43.429995" lon="-4.790873">
        <ele>79.683</ele>
        <time>2022-08-27T17:22:03Z</time>
      </trkpt>
      <trkpt lat="43.429983" lon="-4.790800">
        <ele>79.743</ele>
        <time>2022-08-27T17:22:05Z</time>
      </trkpt>
      <trkpt lat="43.429970" lon="-4.790730">
        <ele>79.739</ele>
        <time>2022-08-27T17:22:07Z</time>
      </trkpt>
      <trkpt lat="43.429957" lon="-4.790663">
        <ele>79.723</ele>
        <time>2022-08-27T17:22:09Z</time>
      </trkpt>
      <trkpt lat="43.429942" lon="-4.790588">
        <ele>79.640</ele>
        <time>2022-08-27T17:22:11Z</time>
      </trkpt>
      <trkpt lat="43.429924" lon="-4.790513">
        <ele>79.627</ele>
        <time>2022-08-27T17:22:13Z</time>
      </trkpt>
      <trkpt lat="43.429907" lon="-4.790438">
        <ele>79.624</ele>
        <time>2022-08-27T17:22:15Z</time>
      </trkpt>
      <trkpt lat="43.429879" lon="-4.790370">
        <ele>79.604</ele>
        <time>2022-08-27T17:22:17Z</time>
      </trkpt>
      <trkpt lat="43.429852" lon="-4.790293">
        <ele>79.314</ele>
        <time>2022-08-27T17:22:19Z</time>
      </trkpt>
      <trkpt lat="43.429817" lon="-4.790216">
        <ele>79.009</ele>
        <time>2022-08-27T17:22:21Z</time>
      </trkpt>
      <trkpt lat="43.429779" lon="-4.790141">
        <ele>78.993</ele>
        <time>2022-08-27T17:22:23Z</time>
      </trkpt>
      <trkpt lat="43.429742" lon="-4.790064">
        <ele>78.933</ele>
        <time>2022-08-27T17:22:25Z</time>
      </trkpt>
      <trkpt lat="43.429712" lon="-4.789982">
        <ele>78.914</ele>
        <time>2022-08-27T17:22:27Z</time>
      </trkpt>
      <trkpt lat="43.429685" lon="-4.789892">
        <ele>78.922</ele>
        <time>2022-08-27T17:22:29Z</time>
      </trkpt>
      <trkpt lat="43.429670" lon="-4.789817">
        <ele>79.072</ele>
        <time>2022-08-27T17:22:31Z</time>
      </trkpt>
      <trkpt lat="43.429660" lon="-4.789739">
        <ele>79.238</ele>
        <time>2022-08-27T17:22:33Z</time>
      </trkpt>
      <trkpt lat="43.429650" lon="-4.789647">
        <ele>79.992</ele>
        <time>2022-08-27T17:22:35Z</time>
      </trkpt>
      <trkpt lat="43.429645" lon="-4.789562">
        <ele>80.119</ele>
        <time>2022-08-27T17:22:37Z</time>
      </trkpt>
      <trkpt lat="43.429648" lon="-4.789485">
        <ele>80.126</ele>
        <time>2022-08-27T17:22:39Z</time>
      </trkpt>
      <trkpt lat="43.429641" lon="-4.789398">
        <ele>80.231</ele>
        <time>2022-08-27T17:22:41Z</time>
      </trkpt>
      <trkpt lat="43.429641" lon="-4.789300">
        <ele>80.061</ele>
        <time>2022-08-27T17:22:43Z</time>
      </trkpt>
      <trkpt lat="43.429648" lon="-4.789182">
        <ele>79.807</ele>
        <time>2022-08-27T17:22:45Z</time>
      </trkpt>
      <trkpt lat="43.429625" lon="-4.789060">
        <ele>78.809</ele>
        <time>2022-08-27T17:22:47Z</time>
      </trkpt>
      <trkpt lat="43.429573" lon="-4.788953">
        <ele>78.354</ele>
        <time>2022-08-27T17:22:49Z</time>
      </trkpt>
      <trkpt lat="43.429545" lon="-4.788903">
        <ele>78.334</ele>
        <time>2022-08-27T17:22:50Z</time>
      </trkpt>
      <trkpt lat="43.429488" lon="-4.788795">
        <ele>78.135</ele>
        <time>2022-08-27T17:22:52Z</time>
      </trkpt>
      <trkpt lat="43.429433" lon="-4.788682">
        <ele>78.153</ele>
        <time>2022-08-27T17:22:54Z</time>
      </trkpt>
      <trkpt lat="43.429408" lon="-4.788624">
        <ele>78.043</ele>
        <time>2022-08-27T17:22:55Z</time>
      </trkpt>
      <trkpt lat="43.429363" lon="-4.788499">
        <ele>78.019</ele>
        <time>2022-08-27T17:22:57Z</time>
      </trkpt>
      <trkpt lat="43.429320" lon="-4.788372">
        <ele>78.313</ele>
        <time>2022-08-27T17:22:59Z</time>
      </trkpt>
      <trkpt lat="43.429298" lon="-4.788304">
        <ele>78.470</ele>
        <time>2022-08-27T17:23:00Z</time>
      </trkpt>
      <trkpt lat="43.429280" lon="-4.788231">
        <ele>78.467</ele>
        <time>2022-08-27T17:23:01Z</time>
      </trkpt>
      <trkpt lat="43.429252" lon="-4.788099">
        <ele>78.318</ele>
        <time>2022-08-27T17:23:03Z</time>
      </trkpt>
      <trkpt lat="43.429244" lon="-4.787982">
        <ele>77.998</ele>
        <time>2022-08-27T17:23:05Z</time>
      </trkpt>
      <trkpt lat="43.429244" lon="-4.787912">
        <ele>77.517</ele>
        <time>2022-08-27T17:23:06Z</time>
      </trkpt>
      <trkpt lat="43.429251" lon="-4.787825">
        <ele>78.209</ele>
        <time>2022-08-27T17:23:18Z</time>
      </trkpt>
      <trkpt lat="43.429219" lon="-4.787763">
        <ele>74.792</ele>
        <time>2022-08-27T17:27:40Z</time>
      </trkpt>
      <trkpt lat="43.429194" lon="-4.787683">
        <ele>74.722</ele>
        <time>2022-08-27T17:27:41Z</time>
      </trkpt>
      <trkpt lat="43.429161" lon="-4.787581">
        <ele>74.743</ele>
        <time>2022-08-27T17:27:44Z</time>
      </trkpt>
      <trkpt lat="43.429134" lon="-4.787526">
        <ele>74.741</ele>
        <time>2022-08-27T17:27:45Z</time>
      </trkpt>
      <trkpt lat="43.429096" lon="-4.787478">
        <ele>74.721</ele>
        <time>2022-08-27T17:27:46Z</time>
      </trkpt>
      <trkpt lat="43.429054" lon="-4.787431">
        <ele>76.277</ele>
        <time>2022-08-27T17:27:47Z</time>
      </trkpt>
      <trkpt lat="43.428951" lon="-4.787333">
        <ele>75.951</ele>
        <time>2022-08-27T17:27:49Z</time>
      </trkpt>
      <trkpt lat="43.428896" lon="-4.787293">
        <ele>75.488</ele>
        <time>2022-08-27T17:27:50Z</time>
      </trkpt>
      <trkpt lat="43.428836" lon="-4.787250">
        <ele>74.875</ele>
        <time>2022-08-27T17:27:51Z</time>
      </trkpt>
      <trkpt lat="43.428776" lon="-4.787210">
        <ele>74.226</ele>
        <time>2022-08-27T17:27:52Z</time>
      </trkpt>
      <trkpt lat="43.428664" lon="-4.787130">
        <ele>73.547</ele>
        <time>2022-08-27T17:27:54Z</time>
      </trkpt>
      <trkpt lat="43.428564" lon="-4.787057">
        <ele>73.211</ele>
        <time>2022-08-27T17:27:56Z</time>
      </trkpt>
      <trkpt lat="43.428517" lon="-4.787015">
        <ele>73.309</ele>
        <time>2022-08-27T17:27:57Z</time>
      </trkpt>
      <trkpt lat="43.428472" lon="-4.786975">
        <ele>73.393</ele>
        <time>2022-08-27T17:27:58Z</time>
      </trkpt>
      <trkpt lat="43.428389" lon="-4.786885">
        <ele>74.123</ele>
        <time>2022-08-27T17:28:00Z</time>
      </trkpt>
      <trkpt lat="43.428327" lon="-4.786797">
        <ele>74.394</ele>
        <time>2022-08-27T17:28:02Z</time>
      </trkpt>
      <trkpt lat="43.428284" lon="-4.786692">
        <ele>74.332</ele>
        <time>2022-08-27T17:28:04Z</time>
      </trkpt>
      <trkpt lat="43.428241" lon="-4.786589">
        <ele>74.362</ele>
        <time>2022-08-27T17:28:06Z</time>
      </trkpt>
      <trkpt lat="43.428196" lon="-4.786506">
        <ele>74.388</ele>
        <time>2022-08-27T17:28:08Z</time>
      </trkpt>
      <trkpt lat="43.428139" lon="-4.786453">
        <ele>74.372</ele>
        <time>2022-08-27T17:28:10Z</time>
      </trkpt>
      <trkpt lat="43.428076" lon="-4.786448">
        <ele>74.499</ele>
        <time>2022-08-27T17:28:12Z</time>
      </trkpt>
      <trkpt lat="43.428024" lon="-4.786515">
        <ele>74.336</ele>
        <time>2022-08-27T17:29:12Z</time>
      </trkpt>
      <trkpt lat="43.427966" lon="-4.786573">
        <ele>74.382</ele>
        <time>2022-08-27T17:29:14Z</time>
      </trkpt>
      <trkpt lat="43.427928" lon="-4.786616">
        <ele>74.343</ele>
        <time>2022-08-27T17:29:15Z</time>
      </trkpt>
      <trkpt lat="43.427821" lon="-4.786691">
        <ele>74.317</ele>
        <time>2022-08-27T17:29:17Z</time>
      </trkpt>
      <trkpt lat="43.427703" lon="-4.786749">
        <ele>75.809</ele>
        <time>2022-08-27T17:29:19Z</time>
      </trkpt>
      <trkpt lat="43.427646" lon="-4.786782">
        <ele>75.769</ele>
        <time>2022-08-27T17:29:20Z</time>
      </trkpt>
      <trkpt lat="43.427548" lon="-4.786857">
        <ele>75.339</ele>
        <time>2022-08-27T17:29:22Z</time>
      </trkpt>
      <trkpt lat="43.427473" lon="-4.786907">
        <ele>75.550</ele>
        <time>2022-08-27T17:29:24Z</time>
      </trkpt>
      <trkpt lat="43.427398" lon="-4.786944">
        <ele>76.068</ele>
        <time>2022-08-27T17:29:26Z</time>
      </trkpt>
      <trkpt lat="43.427301" lon="-4.786974">
        <ele>75.918</ele>
        <time>2022-08-27T17:29:28Z</time>
      </trkpt>
      <trkpt lat="43.427248" lon="-4.786989">
        <ele>76.114</ele>
        <time>2022-08-27T17:29:29Z</time>
      </trkpt>
      <trkpt lat="43.427150" lon="-4.787019">
        <ele>76.098</ele>
        <time>2022-08-27T17:29:31Z</time>
      </trkpt>
      <trkpt lat="43.427062" lon="-4.787062">
        <ele>76.095</ele>
        <time>2022-08-27T17:29:33Z</time>
      </trkpt>
      <trkpt lat="43.427025" lon="-4.787099">
        <ele>76.092</ele>
        <time>2022-08-27T17:29:34Z</time>
      </trkpt>
      <trkpt lat="43.426958" lon="-4.787222">
        <ele>75.441</ele>
        <time>2022-08-27T17:29:36Z</time>
      </trkpt>
      <trkpt lat="43.426928" lon="-4.787285">
        <ele>74.981</ele>
        <time>2022-08-27T17:29:37Z</time>
      </trkpt>
      <trkpt lat="43.426846" lon="-4.787407">
        <ele>74.109</ele>
        <time>2022-08-27T17:29:39Z</time>
      </trkpt>
      <trkpt lat="43.426806" lon="-4.787462">
        <ele>73.909</ele>
        <time>2022-08-27T17:29:40Z</time>
      </trkpt>
      <trkpt lat="43.426724" lon="-4.787582">
        <ele>73.375</ele>
        <time>2022-08-27T17:29:42Z</time>
      </trkpt>
      <trkpt lat="43.426657" lon="-4.787697">
        <ele>71.785</ele>
        <time>2022-08-27T17:29:44Z</time>
      </trkpt>
      <trkpt lat="43.426644" lon="-4.787757">
        <ele>71.336</ele>
        <time>2022-08-27T17:29:45Z</time>
      </trkpt>
      <trkpt lat="43.426619" lon="-4.787834">
        <ele>70.784</ele>
        <time>2022-08-27T17:29:47Z</time>
      </trkpt>
      <trkpt lat="43.426574" lon="-4.787814">
        <ele>70.224</ele>
        <time>2022-08-27T17:29:49Z</time>
      </trkpt>
      <trkpt lat="43.426569" lon="-4.787702">
        <ele>69.090</ele>
        <time>2022-08-27T17:29:51Z</time>
      </trkpt>
      <trkpt lat="43.426589" lon="-4.787564">
        <ele>67.114</ele>
        <time>2022-08-27T17:29:53Z</time>
      </trkpt>
      <trkpt lat="43.426597" lon="-4.787392">
        <ele>65.261</ele>
        <time>2022-08-27T17:29:55Z</time>
      </trkpt>
      <trkpt lat="43.426572" lon="-4.787200">
        <ele>63.868</ele>
        <time>2022-08-27T17:29:57Z</time>
      </trkpt>
      <trkpt lat="43.426545" lon="-4.787010">
        <ele>61.851</ele>
        <time>2022-08-27T17:29:59Z</time>
      </trkpt>
      <trkpt lat="43.426528" lon="-4.786917">
        <ele>61.501</ele>
        <time>2022-08-27T17:30:00Z</time>
      </trkpt>
      <trkpt lat="43.426468" lon="-4.786774">
        <ele>61.111</ele>
        <time>2022-08-27T17:30:02Z</time>
      </trkpt>
      <trkpt lat="43.426431" lon="-4.786734">
        <ele>60.909</ele>
        <time>2022-08-27T17:30:03Z</time>
      </trkpt>
      <trkpt lat="43.426366" lon="-4.786689">
        <ele>60.226</ele>
        <time>2022-08-27T17:30:05Z</time>
      </trkpt>
      <trkpt lat="43.426304" lon="-4.786662">
        <ele>60.076</ele>
        <time>2022-08-27T17:30:07Z</time>
      </trkpt>
      <trkpt lat="43.426244" lon="-4.786650">
        <ele>60.047</ele>
        <time>2022-08-27T17:30:09Z</time>
      </trkpt>
      <trkpt lat="43.426169" lon="-4.786662">
        <ele>59.985</ele>
        <time>2022-08-27T17:30:11Z</time>
      </trkpt>
      <trkpt lat="43.426081" lon="-4.786675">
        <ele>59.925</ele>
        <time>2022-08-27T17:30:13Z</time>
      </trkpt>
      <trkpt lat="43.426033" lon="-4.786670">
        <ele>59.971</ele>
        <time>2022-08-27T17:30:14Z</time>
      </trkpt>
      <trkpt lat="43.425953" lon="-4.786643">
        <ele>60.095</ele>
        <time>2022-08-27T17:30:16Z</time>
      </trkpt>
      <trkpt lat="43.425901" lon="-4.786606">
        <ele>61.172</ele>
        <time>2022-08-27T17:30:18Z</time>
      </trkpt>
      <trkpt lat="43.425861" lon="-4.786568">
        <ele>61.939</ele>
        <time>2022-08-27T17:30:20Z</time>
      </trkpt>
      <trkpt lat="43.425819" lon="-4.786520">
        <ele>63.589</ele>
        <time>2022-08-27T17:30:23Z</time>
      </trkpt>
      <trkpt lat="43.425779" lon="-4.786487">
        <ele>63.906</ele>
        <time>2022-08-27T17:30:25Z</time>
      </trkpt>
      <trkpt lat="43.425722" lon="-4.786450">
        <ele>65.126</ele>
        <time>2022-08-27T17:30:27Z</time>
      </trkpt>
      <trkpt lat="43.425655" lon="-4.786432">
        <ele>66.909</ele>
        <time>2022-08-27T17:30:29Z</time>
      </trkpt>
      <trkpt lat="43.425588" lon="-4.786437">
        <ele>68.179</ele>
        <time>2022-08-27T17:30:31Z</time>
      </trkpt>
      <trkpt lat="43.425535" lon="-4.786469">
        <ele>68.119</ele>
        <time>2022-08-27T17:30:32Z</time>
      </trkpt>
      <trkpt lat="43.425490" lon="-4.786511">
        <ele>68.190</ele>
        <time>2022-08-27T17:30:35Z</time>
      </trkpt>
      <trkpt lat="43.425450" lon="-4.786543">
        <ele>67.888</ele>
        <time>2022-08-27T17:30:38Z</time>
      </trkpt>
      <trkpt lat="43.425397" lon="-4.786563">
        <ele>66.568</ele>
        <time>2022-08-27T17:30:42Z</time>
      </trkpt>
      <trkpt lat="43.425344" lon="-4.786588">
        <ele>64.714</ele>
        <time>2022-08-27T17:30:46Z</time>
      </trkpt>
      <trkpt lat="43.425302" lon="-4.786555">
        <ele>62.798</ele>
        <time>2022-08-27T17:30:49Z</time>
      </trkpt>
      <trkpt lat="43.425245" lon="-4.786540">
        <ele>61.695</ele>
        <time>2022-08-27T17:30:52Z</time>
      </trkpt>
      <trkpt lat="43.425200" lon="-4.786498">
        <ele>61.022</ele>
        <time>2022-08-27T17:30:54Z</time>
      </trkpt>
      <trkpt lat="43.425143" lon="-4.786443">
        <ele>60.495</ele>
        <time>2022-08-27T17:30:56Z</time>
      </trkpt>
      <trkpt lat="43.425088" lon="-4.786375">
        <ele>59.549</ele>
        <time>2022-08-27T17:30:58Z</time>
      </trkpt>
      <trkpt lat="43.425046" lon="-4.786307">
        <ele>59.423</ele>
        <time>2022-08-27T17:31:00Z</time>
      </trkpt>
      <trkpt lat="43.425004" lon="-4.786257">
        <ele>58.409</ele>
        <time>2022-08-27T17:31:02Z</time>
      </trkpt>
      <trkpt lat="43.424979" lon="-4.786179">
        <ele>56.860</ele>
        <time>2022-08-27T17:31:04Z</time>
      </trkpt>
      <trkpt lat="43.424952" lon="-4.786086">
        <ele>56.620</ele>
        <time>2022-08-27T17:31:06Z</time>
      </trkpt>
      <trkpt lat="43.424909" lon="-4.786046">
        <ele>56.671</ele>
        <time>2022-08-27T17:31:08Z</time>
      </trkpt>
      <trkpt lat="43.424861" lon="-4.786038">
        <ele>56.679</ele>
        <time>2022-08-27T17:31:10Z</time>
      </trkpt>
      <trkpt lat="43.424808" lon="-4.786045">
        <ele>57.389</ele>
        <time>2022-08-27T17:31:12Z</time>
      </trkpt>
      <trkpt lat="43.424753" lon="-4.786052">
        <ele>58.335</ele>
        <time>2022-08-27T17:31:14Z</time>
      </trkpt>
      <trkpt lat="43.424690" lon="-4.786065">
        <ele>59.439</ele>
        <time>2022-08-27T17:31:16Z</time>
      </trkpt>
      <trkpt lat="43.424623" lon="-4.786065">
        <ele>60.176</ele>
        <time>2022-08-27T17:31:18Z</time>
      </trkpt>
      <trkpt lat="43.424571" lon="-4.786058">
        <ele>60.553</ele>
        <time>2022-08-27T17:31:20Z</time>
      </trkpt>
      <trkpt lat="43.424524" lon="-4.786035">
        <ele>60.585</ele>
        <time>2022-08-27T17:31:23Z</time>
      </trkpt>
      <trkpt lat="43.424482" lon="-4.785962">
        <ele>56.989</ele>
        <time>2022-08-27T17:31:57Z</time>
      </trkpt>
      <trkpt lat="43.424424" lon="-4.785955">
        <ele>56.917</ele>
        <time>2022-08-27T17:31:59Z</time>
      </trkpt>
      <trkpt lat="43.424359" lon="-4.785948">
        <ele>56.909</ele>
        <time>2022-08-27T17:32:02Z</time>
      </trkpt>
      <trkpt lat="43.424314" lon="-4.785945">
        <ele>56.959</ele>
        <time>2022-08-27T17:32:04Z</time>
      </trkpt>
      <trkpt lat="43.424267" lon="-4.785937">
        <ele>56.919</ele>
        <time>2022-08-27T17:32:06Z</time>
      </trkpt>
      <trkpt lat="43.424214" lon="-4.785929">
        <ele>57.710</ele>
        <time>2022-08-27T17:32:10Z</time>
      </trkpt>
      <trkpt lat="43.424156" lon="-4.785934">
        <ele>57.748</ele>
        <time>2022-08-27T17:32:12Z</time>
      </trkpt>
      <trkpt lat="43.424109" lon="-4.785981">
        <ele>57.778</ele>
        <time>2022-08-27T17:32:16Z</time>
      </trkpt>
      <trkpt lat="43.424057" lon="-4.786001">
        <ele>58.044</ele>
        <time>2022-08-27T17:32:18Z</time>
      </trkpt>
      <trkpt lat="43.424022" lon="-4.785956">
        <ele>58.038</ele>
        <time>2022-08-27T17:32:22Z</time>
      </trkpt>
      <trkpt lat="43.423987" lon="-4.785903">
        <ele>57.815</ele>
        <time>2022-08-27T17:32:29Z</time>
      </trkpt>
      <trkpt lat="43.423972" lon="-4.785826">
        <ele>58.012</ele>
        <time>2022-08-27T17:32:31Z</time>
      </trkpt>
      <trkpt lat="43.423979" lon="-4.785739">
        <ele>58.059</ele>
        <time>2022-08-27T17:32:33Z</time>
      </trkpt>
      <trkpt lat="43.423994" lon="-4.785652">
        <ele>57.803</ele>
        <time>2022-08-27T17:32:35Z</time>
      </trkpt>
      <trkpt lat="43.424021" lon="-4.785587">
        <ele>57.823</ele>
        <time>2022-08-27T17:32:36Z</time>
      </trkpt>
      <trkpt lat="43.424049" lon="-4.785505">
        <ele>61.809</ele>
        <time>2022-08-27T17:32:40Z</time>
      </trkpt>
      <trkpt lat="43.424067" lon="-4.785447">
        <ele>63.686</ele>
        <time>2022-08-27T17:32:42Z</time>
      </trkpt>
      <trkpt lat="43.424094" lon="-4.785360">
        <ele>65.136</ele>
        <time>2022-08-27T17:32:45Z</time>
      </trkpt>
      <trkpt lat="43.424107" lon="-4.785283">
        <ele>65.577</ele>
        <time>2022-08-27T17:32:47Z</time>
      </trkpt>
      <trkpt lat="43.424122" lon="-4.785215">
        <ele>66.115</ele>
        <time>2022-08-27T17:32:49Z</time>
      </trkpt>
      <trkpt lat="43.424127" lon="-4.785142">
        <ele>66.615</ele>
        <time>2022-08-27T17:32:51Z</time>
      </trkpt>
      <trkpt lat="43.424137" lon="-4.785070">
        <ele>66.771</ele>
        <time>2022-08-27T17:32:53Z</time>
      </trkpt>
      <trkpt lat="43.424154" lon="-4.785000">
        <ele>66.775</ele>
        <time>2022-08-27T17:32:55Z</time>
      </trkpt>
      <trkpt lat="43.424169" lon="-4.784930">
        <ele>66.682</ele>
        <time>2022-08-27T17:32:57Z</time>
      </trkpt>
      <trkpt lat="43.424182" lon="-4.784857">
        <ele>66.289</ele>
        <time>2022-08-27T17:32:59Z</time>
      </trkpt>
      <trkpt lat="43.424189" lon="-4.784785">
        <ele>65.782</ele>
        <time>2022-08-27T17:33:01Z</time>
      </trkpt>
      <trkpt lat="43.424202" lon="-4.784718">
        <ele>65.743</ele>
        <time>2022-08-27T17:33:03Z</time>
      </trkpt>
      <trkpt lat="43.424210" lon="-4.784650">
        <ele>65.717</ele>
        <time>2022-08-27T17:33:05Z</time>
      </trkpt>
      <trkpt lat="43.424218" lon="-4.784582">
        <ele>65.809</ele>
        <time>2022-08-27T17:33:07Z</time>
      </trkpt>
      <trkpt lat="43.424216" lon="-4.784512">
        <ele>66.359</ele>
        <time>2022-08-27T17:33:09Z</time>
      </trkpt>
      <trkpt lat="43.424214" lon="-4.784424">
        <ele>67.129</ele>
        <time>2022-08-27T17:33:12Z</time>
      </trkpt>
      <trkpt lat="43.424211" lon="-4.784361">
        <ele>67.580</ele>
        <time>2022-08-27T17:33:14Z</time>
      </trkpt>
      <trkpt lat="43.424208" lon="-4.784298">
        <ele>68.378</ele>
        <time>2022-08-27T17:33:16Z</time>
      </trkpt>
      <trkpt lat="43.424208" lon="-4.784230">
        <ele>69.258</ele>
        <time>2022-08-27T17:33:18Z</time>
      </trkpt>
      <trkpt lat="43.424206" lon="-4.784158">
        <ele>69.624</ele>
        <time>2022-08-27T17:33:20Z</time>
      </trkpt>
      <trkpt lat="43.424203" lon="-4.784070">
        <ele>69.648</ele>
        <time>2022-08-27T17:33:23Z</time>
      </trkpt>
      <trkpt lat="43.424200" lon="-4.784003">
        <ele>69.775</ele>
        <time>2022-08-27T17:33:26Z</time>
      </trkpt>
      <trkpt lat="43.424207" lon="-4.783936">
        <ele>69.852</ele>
        <time>2022-08-27T17:33:29Z</time>
      </trkpt>
      <trkpt lat="43.424212" lon="-4.783868">
        <ele>69.882</ele>
        <time>2022-08-27T17:33:33Z</time>
      </trkpt>
      <trkpt lat="43.424202" lon="-4.783803">
        <ele>70.143</ele>
        <time>2022-08-27T17:33:36Z</time>
      </trkpt>
      <trkpt lat="43.424195" lon="-4.783735">
        <ele>70.917</ele>
        <time>2022-08-27T17:33:39Z</time>
      </trkpt>
      <trkpt lat="43.424210" lon="-4.783665">
        <ele>71.609</ele>
        <time>2022-08-27T17:33:43Z</time>
      </trkpt>
      <trkpt lat="43.424218" lon="-4.783592">
        <ele>72.589</ele>
        <time>2022-08-27T17:33:46Z</time>
      </trkpt>
      <trkpt lat="43.424225" lon="-4.783510">
        <ele>73.629</ele>
        <time>2022-08-27T17:33:49Z</time>
      </trkpt>
      <trkpt lat="43.424237" lon="-4.783445">
        <ele>73.910</ele>
        <time>2022-08-27T17:33:51Z</time>
      </trkpt>
      <trkpt lat="43.424247" lon="-4.783380">
        <ele>74.098</ele>
        <time>2022-08-27T17:33:53Z</time>
      </trkpt>
      <trkpt lat="43.424254" lon="-4.783313">
        <ele>74.018</ele>
        <time>2022-08-27T17:33:55Z</time>
      </trkpt>
      <trkpt lat="43.424251" lon="-4.783240">
        <ele>73.754</ele>
        <time>2022-08-27T17:33:57Z</time>
      </trkpt>
      <trkpt lat="43.424258" lon="-4.783162">
        <ele>72.468</ele>
        <time>2022-08-27T17:33:59Z</time>
      </trkpt>
      <trkpt lat="43.424261" lon="-4.783074">
        <ele>71.775</ele>
        <time>2022-08-27T17:34:01Z</time>
      </trkpt>
      <trkpt lat="43.424266" lon="-4.782987">
        <ele>71.012</ele>
        <time>2022-08-27T17:34:03Z</time>
      </trkpt>
      <trkpt lat="43.424273" lon="-4.782895">
        <ele>70.251</ele>
        <time>2022-08-27T17:34:05Z</time>
      </trkpt>
      <trkpt lat="43.424276" lon="-4.782800">
        <ele>70.101</ele>
        <time>2022-08-27T17:34:07Z</time>
      </trkpt>
      <trkpt lat="43.424283" lon="-4.782698">
        <ele>70.111</ele>
        <time>2022-08-27T17:34:09Z</time>
      </trkpt>
      <trkpt lat="43.424288" lon="-4.782593">
        <ele>69.909</ele>
        <time>2022-08-27T17:34:11Z</time>
      </trkpt>
      <trkpt lat="43.424291" lon="-4.782483">
        <ele>69.986</ele>
        <time>2022-08-27T17:34:13Z</time>
      </trkpt>
      <trkpt lat="43.424299" lon="-4.782363">
        <ele>70.056</ele>
        <time>2022-08-27T17:34:15Z</time>
      </trkpt>
      <trkpt lat="43.424304" lon="-4.782241">
        <ele>70.637</ele>
        <time>2022-08-27T17:34:17Z</time>
      </trkpt>
      <trkpt lat="43.424312" lon="-4.782113">
        <ele>71.095</ele>
        <time>2022-08-27T17:34:19Z</time>
      </trkpt>
      <trkpt lat="43.424317" lon="-4.781991">
        <ele>70.935</ele>
        <time>2022-08-27T17:34:21Z</time>
      </trkpt>
      <trkpt lat="43.424319" lon="-4.781928">
        <ele>70.761</ele>
        <time>2022-08-27T17:34:22Z</time>
      </trkpt>
      <trkpt lat="43.424324" lon="-4.781808">
        <ele>70.515</ele>
        <time>2022-08-27T17:34:24Z</time>
      </trkpt>
      <trkpt lat="43.424327" lon="-4.781690">
        <ele>70.162</ele>
        <time>2022-08-27T17:34:26Z</time>
      </trkpt>
      <trkpt lat="43.424334" lon="-4.781563">
        <ele>69.799</ele>
        <time>2022-08-27T17:34:28Z</time>
      </trkpt>
      <trkpt lat="43.424337" lon="-4.781500">
        <ele>69.438</ele>
        <time>2022-08-27T17:34:29Z</time>
      </trkpt>
      <trkpt lat="43.424342" lon="-4.781435">
        <ele>68.870</ele>
        <time>2022-08-27T17:34:30Z</time>
      </trkpt>
      <trkpt lat="43.424355" lon="-4.781308">
        <ele>67.817</ele>
        <time>2022-08-27T17:34:32Z</time>
      </trkpt>
      <trkpt lat="43.424363" lon="-4.781175">
        <ele>67.409</ele>
        <time>2022-08-27T17:34:34Z</time>
      </trkpt>
      <trkpt lat="43.424370" lon="-4.781107">
        <ele>66.944</ele>
        <time>2022-08-27T17:34:35Z</time>
      </trkpt>
      <trkpt lat="43.424377" lon="-4.781037">
        <ele>66.514</ele>
        <time>2022-08-27T17:34:36Z</time>
      </trkpt>
      <trkpt lat="43.424389" lon="-4.780892">
        <ele>66.015</ele>
        <time>2022-08-27T17:34:38Z</time>
      </trkpt>
      <trkpt lat="43.424396" lon="-4.780749">
        <ele>65.743</ele>
        <time>2022-08-27T17:34:40Z</time>
      </trkpt>
      <trkpt lat="43.424404" lon="-4.780607">
        <ele>65.753</ele>
        <time>2022-08-27T17:34:42Z</time>
      </trkpt>
      <trkpt lat="43.424409" lon="-4.780537">
        <ele>65.749</ele>
        <time>2022-08-27T17:34:43Z</time>
      </trkpt>
      <trkpt lat="43.424416" lon="-4.780465">
        <ele>65.733</ele>
        <time>2022-08-27T17:34:44Z</time>
      </trkpt>
      <trkpt lat="43.424428" lon="-4.780323">
        <ele>65.720</ele>
        <time>2022-08-27T17:34:46Z</time>
      </trkpt>
      <trkpt lat="43.424435" lon="-4.780255">
        <ele>65.747</ele>
        <time>2022-08-27T17:34:47Z</time>
      </trkpt>
      <trkpt lat="43.424440" lon="-4.780188">
        <ele>65.734</ele>
        <time>2022-08-27T17:34:48Z</time>
      </trkpt>
      <trkpt lat="43.424445" lon="-4.780125">
        <ele>65.655</ele>
        <time>2022-08-27T17:34:49Z</time>
      </trkpt>
      <trkpt lat="43.424450" lon="-4.779995">
        <ele>65.510</ele>
        <time>2022-08-27T17:34:51Z</time>
      </trkpt>
      <trkpt lat="43.424452" lon="-4.779932">
        <ele>65.409</ele>
        <time>2022-08-27T17:34:52Z</time>
      </trkpt>
      <trkpt lat="43.424460" lon="-4.779794">
        <ele>65.244</ele>
        <time>2022-08-27T17:34:54Z</time>
      </trkpt>
      <trkpt lat="43.424465" lon="-4.779726">
        <ele>65.264</ele>
        <time>2022-08-27T17:34:55Z</time>
      </trkpt>
      <trkpt lat="43.424472" lon="-4.779591">
        <ele>65.495</ele>
        <time>2022-08-27T17:34:57Z</time>
      </trkpt>
      <trkpt lat="43.424475" lon="-4.779523">
        <ele>65.523</ele>
        <time>2022-08-27T17:34:58Z</time>
      </trkpt>
      <trkpt lat="43.424485" lon="-4.779381">
        <ele>65.613</ele>
        <time>2022-08-27T17:35:00Z</time>
      </trkpt>
      <trkpt lat="43.424487" lon="-4.779311">
        <ele>65.679</ele>
        <time>2022-08-27T17:35:01Z</time>
      </trkpt>
      <trkpt lat="43.424495" lon="-4.779171">
        <ele>65.483</ele>
        <time>2022-08-27T17:35:03Z</time>
      </trkpt>
      <trkpt lat="43.424498" lon="-4.779099">
        <ele>65.440</ele>
        <time>2022-08-27T17:35:04Z</time>
      </trkpt>
      <trkpt lat="43.424513" lon="-4.778951">
        <ele>65.657</ele>
        <time>2022-08-27T17:35:06Z</time>
      </trkpt>
      <trkpt lat="43.424523" lon="-4.778801">
        <ele>65.734</ele>
        <time>2022-08-27T17:35:08Z</time>
      </trkpt>
      <trkpt lat="43.424531" lon="-4.778651">
        <ele>65.555</ele>
        <time>2022-08-27T17:35:10Z</time>
      </trkpt>
      <trkpt lat="43.424543" lon="-4.778508">
        <ele>65.010</ele>
        <time>2022-08-27T17:35:12Z</time>
      </trkpt>
      <trkpt lat="43.424556" lon="-4.778363">
        <ele>64.909</ele>
        <time>2022-08-27T17:35:14Z</time>
      </trkpt>
      <trkpt lat="43.424564" lon="-4.778218">
        <ele>64.974</ele>
        <time>2022-08-27T17:35:16Z</time>
      </trkpt>
      <trkpt lat="43.424571" lon="-4.778153">
        <ele>65.284</ele>
        <time>2022-08-27T17:35:17Z</time>
      </trkpt>
      <trkpt lat="43.424574" lon="-4.778085">
        <ele>65.615</ele>
        <time>2022-08-27T17:35:18Z</time>
      </trkpt>
      <trkpt lat="43.424577" lon="-4.777948">
        <ele>66.113</ele>
        <time>2022-08-27T17:35:20Z</time>
      </trkpt>
      <trkpt lat="43.424582" lon="-4.777880">
        <ele>66.363</ele>
        <time>2022-08-27T17:35:21Z</time>
      </trkpt>
      <trkpt lat="43.424585" lon="-4.777812">
        <ele>66.449</ele>
        <time>2022-08-27T17:35:22Z</time>
      </trkpt>
      <trkpt lat="43.424588" lon="-4.777674">
        <ele>66.753</ele>
        <time>2022-08-27T17:35:24Z</time>
      </trkpt>
      <trkpt lat="43.424593" lon="-4.777604">
        <ele>66.780</ele>
        <time>2022-08-27T17:35:25Z</time>
      </trkpt>
      <trkpt lat="43.424595" lon="-4.777536">
        <ele>66.767</ele>
        <time>2022-08-27T17:35:26Z</time>
      </trkpt>
      <trkpt lat="43.424598" lon="-4.777466">
        <ele>66.724</ele>
        <time>2022-08-27T17:35:27Z</time>
      </trkpt>
      <trkpt lat="43.424598" lon="-4.777333">
        <ele>66.804</ele>
        <time>2022-08-27T17:35:29Z</time>
      </trkpt>
      <trkpt lat="43.424595" lon="-4.777200">
        <ele>67.314</ele>
        <time>2022-08-27T17:35:31Z</time>
      </trkpt>
      <trkpt lat="43.424593" lon="-4.777132">
        <ele>67.609</ele>
        <time>2022-08-27T17:35:32Z</time>
      </trkpt>
      <trkpt lat="43.424588" lon="-4.776989">
        <ele>68.133</ele>
        <time>2022-08-27T17:35:34Z</time>
      </trkpt>
      <trkpt lat="43.424585" lon="-4.776919">
        <ele>68.233</ele>
        <time>2022-08-27T17:35:35Z</time>
      </trkpt>
      <trkpt lat="43.424582" lon="-4.776849">
        <ele>68.224</ele>
        <time>2022-08-27T17:35:36Z</time>
      </trkpt>
      <trkpt lat="43.424575" lon="-4.776782">
        <ele>68.232</ele>
        <time>2022-08-27T17:35:37Z</time>
      </trkpt>
      <trkpt lat="43.424568" lon="-4.776714">
        <ele>68.242</ele>
        <time>2022-08-27T17:35:38Z</time>
      </trkpt>
      <trkpt lat="43.424560" lon="-4.776574">
        <ele>68.688</ele>
        <time>2022-08-27T17:35:40Z</time>
      </trkpt>
      <trkpt lat="43.424553" lon="-4.776436">
        <ele>68.852</ele>
        <time>2022-08-27T17:35:42Z</time>
      </trkpt>
      <trkpt lat="43.424546" lon="-4.776299">
        <ele>68.899</ele>
        <time>2022-08-27T17:35:44Z</time>
      </trkpt>
      <trkpt lat="43.424543" lon="-4.776231">
        <ele>68.796</ele>
        <time>2022-08-27T17:35:45Z</time>
      </trkpt>
      <trkpt lat="43.424541" lon="-4.776166">
        <ele>68.627</ele>
        <time>2022-08-27T17:35:46Z</time>
      </trkpt>
      <trkpt lat="43.424538" lon="-4.776034">
        <ele>68.568</ele>
        <time>2022-08-27T17:35:48Z</time>
      </trkpt>
      <trkpt lat="43.424536" lon="-4.775967">
        <ele>68.514</ele>
        <time>2022-08-27T17:35:49Z</time>
      </trkpt>
      <trkpt lat="43.424533" lon="-4.775835">
        <ele>68.509</ele>
        <time>2022-08-27T17:35:51Z</time>
      </trkpt>
      <trkpt lat="43.424528" lon="-4.775705">
        <ele>68.543</ele>
        <time>2022-08-27T17:35:53Z</time>
      </trkpt>
      <trkpt lat="43.424525" lon="-4.775642">
        <ele>68.563</ele>
        <time>2022-08-27T17:35:54Z</time>
      </trkpt>
      <trkpt lat="43.424517" lon="-4.775514">
        <ele>68.674</ele>
        <time>2022-08-27T17:35:56Z</time>
      </trkpt>
      <trkpt lat="43.424512" lon="-4.775382">
        <ele>69.142</ele>
        <time>2022-08-27T17:35:58Z</time>
      </trkpt>
      <trkpt lat="43.424509" lon="-4.775317">
        <ele>69.492</ele>
        <time>2022-08-27T17:35:59Z</time>
      </trkpt>
      <trkpt lat="43.424497" lon="-4.775189">
        <ele>69.788</ele>
        <time>2022-08-27T17:36:01Z</time>
      </trkpt>
      <trkpt lat="43.424494" lon="-4.775121">
        <ele>69.932</ele>
        <time>2022-08-27T17:36:02Z</time>
      </trkpt>
      <trkpt lat="43.424489" lon="-4.775053">
        <ele>70.219</ele>
        <time>2022-08-27T17:36:03Z</time>
      </trkpt>
      <trkpt lat="43.424482" lon="-4.774916">
        <ele>70.936</ele>
        <time>2022-08-27T17:36:05Z</time>
      </trkpt>
      <trkpt lat="43.424480" lon="-4.774849">
        <ele>71.027</ele>
        <time>2022-08-27T17:36:06Z</time>
      </trkpt>
      <trkpt lat="43.424478" lon="-4.774784">
        <ele>71.068</ele>
        <time>2022-08-27T17:36:07Z</time>
      </trkpt>
      <trkpt lat="43.424476" lon="-4.774651">
        <ele>71.014</ele>
        <time>2022-08-27T17:36:09Z</time>
      </trkpt>
      <trkpt lat="43.424476" lon="-4.774584">
        <ele>70.809</ele>
        <time>2022-08-27T17:36:10Z</time>
      </trkpt>
      <trkpt lat="43.424478" lon="-4.774457">
        <ele>70.753</ele>
        <time>2022-08-27T17:36:12Z</time>
      </trkpt>
      <trkpt lat="43.424485" lon="-4.774390">
        <ele>70.763</ele>
        <time>2022-08-27T17:36:13Z</time>
      </trkpt>
      <trkpt lat="43.424493" lon="-4.774325">
        <ele>70.764</ele>
        <time>2022-08-27T17:36:14Z</time>
      </trkpt>
      <trkpt lat="43.424513" lon="-4.774195">
        <ele>70.692</ele>
        <time>2022-08-27T17:36:16Z</time>
      </trkpt>
      <trkpt lat="43.424518" lon="-4.774130">
        <ele>70.592</ele>
        <time>2022-08-27T17:36:17Z</time>
      </trkpt>
      <trkpt lat="43.424503" lon="-4.773990">
        <ele>69.948</ele>
        <time>2022-08-27T17:36:19Z</time>
      </trkpt>
      <trkpt lat="43.424473" lon="-4.773857">
        <ele>69.852</ele>
        <time>2022-08-27T17:36:21Z</time>
      </trkpt>
      <trkpt lat="43.424466" lon="-4.773789">
        <ele>69.779</ele>
        <time>2022-08-27T17:36:22Z</time>
      </trkpt>
      <trkpt lat="43.424468" lon="-4.773642">
        <ele>69.586</ele>
        <time>2022-08-27T17:36:24Z</time>
      </trkpt>
      <trkpt lat="43.424470" lon="-4.773569">
        <ele>69.528</ele>
        <time>2022-08-27T17:36:25Z</time>
      </trkpt>
      <trkpt lat="43.424465" lon="-4.773499">
        <ele>69.589</ele>
        <time>2022-08-27T17:36:26Z</time>
      </trkpt>
      <trkpt lat="43.424445" lon="-4.773362">
        <ele>69.517</ele>
        <time>2022-08-27T17:36:28Z</time>
      </trkpt>
      <trkpt lat="43.424435" lon="-4.773295">
        <ele>69.509</ele>
        <time>2022-08-27T17:36:29Z</time>
      </trkpt>
      <trkpt lat="43.424423" lon="-4.773223">
        <ele>69.513</ele>
        <time>2022-08-27T17:36:30Z</time>
      </trkpt>
      <trkpt lat="43.424415" lon="-4.773148">
        <ele>69.553</ele>
        <time>2022-08-27T17:36:31Z</time>
      </trkpt>
      <trkpt lat="43.424407" lon="-4.772993">
        <ele>69.414</ele>
        <time>2022-08-27T17:36:33Z</time>
      </trkpt>
      <trkpt lat="43.424404" lon="-4.772836">
        <ele>69.092</ele>
        <time>2022-08-27T17:36:35Z</time>
      </trkpt>
      <trkpt lat="43.424401" lon="-4.772761">
        <ele>69.052</ele>
        <time>2022-08-27T17:36:36Z</time>
      </trkpt>
      <trkpt lat="43.424403" lon="-4.772686">
        <ele>68.758</ele>
        <time>2022-08-27T17:36:37Z</time>
      </trkpt>
      <trkpt lat="43.424400" lon="-4.772611">
        <ele>68.492</ele>
        <time>2022-08-27T17:36:38Z</time>
      </trkpt>
      <trkpt lat="43.424395" lon="-4.772469">
        <ele>68.079</ele>
        <time>2022-08-27T17:36:40Z</time>
      </trkpt>
      <trkpt lat="43.424388" lon="-4.772404">
        <ele>68.096</ele>
        <time>2022-08-27T17:36:41Z</time>
      </trkpt>
      <trkpt lat="43.424368" lon="-4.772341">
        <ele>68.029</ele>
        <time>2022-08-27T17:36:42Z</time>
      </trkpt>
      <trkpt lat="43.424366" lon="-4.772204">
        <ele>68.300</ele>
        <time>2022-08-27T17:36:44Z</time>
      </trkpt>
      <trkpt lat="43.424363" lon="-4.772057">
        <ele>68.420</ele>
        <time>2022-08-27T17:36:46Z</time>
      </trkpt>
      <trkpt lat="43.424361" lon="-4.771985">
        <ele>68.509</ele>
        <time>2022-08-27T17:36:47Z</time>
      </trkpt>
      <trkpt lat="43.424358" lon="-4.771842">
        <ele>68.643</ele>
        <time>2022-08-27T17:36:49Z</time>
      </trkpt>
      <trkpt lat="43.424350" lon="-4.771704">
        <ele>69.013</ele>
        <time>2022-08-27T17:36:51Z</time>
      </trkpt>
      <trkpt lat="43.424347" lon="-4.771636">
        <ele>69.044</ele>
        <time>2022-08-27T17:36:52Z</time>
      </trkpt>
      <trkpt lat="43.424344" lon="-4.771566">
        <ele>69.042</ele>
        <time>2022-08-27T17:36:53Z</time>
      </trkpt>
      <trkpt lat="43.424334" lon="-4.771429">
        <ele>69.142</ele>
        <time>2022-08-27T17:36:55Z</time>
      </trkpt>
      <trkpt lat="43.424326" lon="-4.771364">
        <ele>69.118</ele>
        <time>2022-08-27T17:36:56Z</time>
      </trkpt>
      <trkpt lat="43.424309" lon="-4.771234">
        <ele>69.042</ele>
        <time>2022-08-27T17:36:58Z</time>
      </trkpt>
      <trkpt lat="43.424287" lon="-4.771102">
        <ele>69.059</ele>
        <time>2022-08-27T17:37:00Z</time>
      </trkpt>
      <trkpt lat="43.424264" lon="-4.770979">
        <ele>68.716</ele>
        <time>2022-08-27T17:37:02Z</time>
      </trkpt>
      <trkpt lat="43.424249" lon="-4.770917">
        <ele>68.568</ele>
        <time>2022-08-27T17:37:03Z</time>
      </trkpt>
      <trkpt lat="43.424221" lon="-4.770797">
        <ele>67.842</ele>
        <time>2022-08-27T17:37:05Z</time>
      </trkpt>
      <trkpt lat="43.424189" lon="-4.770677">
        <ele>67.426</ele>
        <time>2022-08-27T17:37:07Z</time>
      </trkpt>
      <trkpt lat="43.424157" lon="-4.770557">
        <ele>67.209</ele>
        <time>2022-08-27T17:37:09Z</time>
      </trkpt>
      <trkpt lat="43.424142" lon="-4.770495">
        <ele>67.147</ele>
        <time>2022-08-27T17:37:10Z</time>
      </trkpt>
      <trkpt lat="43.424112" lon="-4.770378">
        <ele>67.067</ele>
        <time>2022-08-27T17:37:12Z</time>
      </trkpt>
      <trkpt lat="43.424095" lon="-4.770320">
        <ele>66.878</ele>
        <time>2022-08-27T17:37:13Z</time>
      </trkpt>
      <trkpt lat="43.424082" lon="-4.770260">
        <ele>66.596</ele>
        <time>2022-08-27T17:37:14Z</time>
      </trkpt>
      <trkpt lat="43.424052" lon="-4.770142">
        <ele>66.156</ele>
        <time>2022-08-27T17:37:16Z</time>
      </trkpt>
      <trkpt lat="43.424024" lon="-4.770034">
        <ele>66.232</ele>
        <time>2022-08-27T17:37:18Z</time>
      </trkpt>
      <trkpt lat="43.424002" lon="-4.769917">
        <ele>66.256</ele>
        <time>2022-08-27T17:37:20Z</time>
      </trkpt>
      <trkpt lat="43.423974" lon="-4.769810">
        <ele>67.273</ele>
        <time>2022-08-27T17:37:22Z</time>
      </trkpt>
      <trkpt lat="43.423947" lon="-4.769697">
        <ele>68.190</ele>
        <time>2022-08-27T17:37:24Z</time>
      </trkpt>
      <trkpt lat="43.423934" lon="-4.769589">
        <ele>69.431</ele>
        <time>2022-08-27T17:37:26Z</time>
      </trkpt>
      <trkpt lat="43.423921" lon="-4.769486">
        <ele>70.961</ele>
        <time>2022-08-27T17:37:28Z</time>
      </trkpt>
      <trkpt lat="43.423893" lon="-4.769381">
        <ele>71.907</ele>
        <time>2022-08-27T17:37:30Z</time>
      </trkpt>
      <trkpt lat="43.423871" lon="-4.769269">
        <ele>72.709</ele>
        <time>2022-08-27T17:37:32Z</time>
      </trkpt>
      <trkpt lat="43.423851" lon="-4.769156">
        <ele>73.654</ele>
        <time>2022-08-27T17:37:34Z</time>
      </trkpt>
      <trkpt lat="43.423824" lon="-4.769038">
        <ele>74.484</ele>
        <time>2022-08-27T17:37:36Z</time>
      </trkpt>
      <trkpt lat="43.423792" lon="-4.768923">
        <ele>74.745</ele>
        <time>2022-08-27T17:37:38Z</time>
      </trkpt>
      <trkpt lat="43.423765" lon="-4.768816">
        <ele>74.943</ele>
        <time>2022-08-27T17:37:40Z</time>
      </trkpt>
      <trkpt lat="43.423735" lon="-4.768708">
        <ele>74.993</ele>
        <time>2022-08-27T17:37:42Z</time>
      </trkpt>
      <trkpt lat="43.423708" lon="-4.768600">
        <ele>74.969</ele>
        <time>2022-08-27T17:37:44Z</time>
      </trkpt>
      <trkpt lat="43.423675" lon="-4.768497">
        <ele>74.873</ele>
        <time>2022-08-27T17:37:46Z</time>
      </trkpt>
      <trkpt lat="43.423643" lon="-4.768395">
        <ele>74.440</ele>
        <time>2022-08-27T17:37:48Z</time>
      </trkpt>
      <trkpt lat="43.423618" lon="-4.768290">
        <ele>73.837</ele>
        <time>2022-08-27T17:37:50Z</time>
      </trkpt>
      <trkpt lat="43.423591" lon="-4.768188">
        <ele>73.839</ele>
        <time>2022-08-27T17:37:52Z</time>
      </trkpt>
      <trkpt lat="43.423568" lon="-4.768086">
        <ele>73.701</ele>
        <time>2022-08-27T17:37:54Z</time>
      </trkpt>
      <trkpt lat="43.423545" lon="-4.767983">
        <ele>73.621</ele>
        <time>2022-08-27T17:37:56Z</time>
      </trkpt>
      <trkpt lat="43.423520" lon="-4.767880">
        <ele>73.509</ele>
        <time>2022-08-27T17:37:58Z</time>
      </trkpt>
      <trkpt lat="43.423493" lon="-4.767782">
        <ele>73.044</ele>
        <time>2022-08-27T17:38:00Z</time>
      </trkpt>
      <trkpt lat="43.423466" lon="-4.767682">
        <ele>73.034</ele>
        <time>2022-08-27T17:38:02Z</time>
      </trkpt>
      <trkpt lat="43.423444" lon="-4.767575">
        <ele>72.735</ele>
        <time>2022-08-27T17:38:04Z</time>
      </trkpt>
      <trkpt lat="43.423421" lon="-4.767475">
        <ele>72.783</ele>
        <time>2022-08-27T17:38:06Z</time>
      </trkpt>
      <trkpt lat="43.423396" lon="-4.767375">
        <ele>72.693</ele>
        <time>2022-08-27T17:38:08Z</time>
      </trkpt>
      <trkpt lat="43.423379" lon="-4.767280">
        <ele>71.659</ele>
        <time>2022-08-27T17:38:10Z</time>
      </trkpt>
      <trkpt lat="43.423367" lon="-4.767192">
        <ele>71.023</ele>
        <time>2022-08-27T17:38:12Z</time>
      </trkpt>
      <trkpt lat="43.423357" lon="-4.767087">
        <ele>71.070</ele>
        <time>2022-08-27T17:38:14Z</time>
      </trkpt>
      <trkpt lat="43.423334" lon="-4.766977">
        <ele>71.097</ele>
        <time>2022-08-27T17:38:16Z</time>
      </trkpt>
      <trkpt lat="43.423311" lon="-4.766867">
        <ele>71.763</ele>
        <time>2022-08-27T17:38:18Z</time>
      </trkpt>
      <trkpt lat="43.423288" lon="-4.766765">
        <ele>71.844</ele>
        <time>2022-08-27T17:38:20Z</time>
      </trkpt>
      <trkpt lat="43.423266" lon="-4.766667">
        <ele>71.818</ele>
        <time>2022-08-27T17:38:22Z</time>
      </trkpt>
      <trkpt lat="43.423244" lon="-4.766565">
        <ele>71.709</ele>
        <time>2022-08-27T17:38:24Z</time>
      </trkpt>
      <trkpt lat="43.423221" lon="-4.766452">
        <ele>71.667</ele>
        <time>2022-08-27T17:38:26Z</time>
      </trkpt>
      <trkpt lat="43.423199" lon="-4.766344">
        <ele>70.857</ele>
        <time>2022-08-27T17:38:28Z</time>
      </trkpt>
      <trkpt lat="43.423172" lon="-4.766244">
        <ele>69.798</ele>
        <time>2022-08-27T17:38:30Z</time>
      </trkpt>
      <trkpt lat="43.423152" lon="-4.766146">
        <ele>69.166</ele>
        <time>2022-08-27T17:38:32Z</time>
      </trkpt>
      <trkpt lat="43.423134" lon="-4.766054">
        <ele>69.186</ele>
        <time>2022-08-27T17:38:34Z</time>
      </trkpt>
      <trkpt lat="43.423116" lon="-4.765964">
        <ele>68.762</ele>
        <time>2022-08-27T17:38:36Z</time>
      </trkpt>
      <trkpt lat="43.423101" lon="-4.765877">
        <ele>68.066</ele>
        <time>2022-08-27T17:38:38Z</time>
      </trkpt>
      <trkpt lat="43.423088" lon="-4.765790">
        <ele>67.463</ele>
        <time>2022-08-27T17:38:40Z</time>
      </trkpt>
      <trkpt lat="43.423075" lon="-4.765708">
        <ele>67.460</ele>
        <time>2022-08-27T17:38:42Z</time>
      </trkpt>
      <trkpt lat="43.423068" lon="-4.765623">
        <ele>67.441</ele>
        <time>2022-08-27T17:38:44Z</time>
      </trkpt>
      <trkpt lat="43.423058" lon="-4.765533">
        <ele>68.181</ele>
        <time>2022-08-27T17:38:46Z</time>
      </trkpt>
      <trkpt lat="43.423048" lon="-4.765436">
        <ele>68.509</ele>
        <time>2022-08-27T17:38:48Z</time>
      </trkpt>
      <trkpt lat="43.423033" lon="-4.765336">
        <ele>69.009</ele>
        <time>2022-08-27T17:38:50Z</time>
      </trkpt>
      <trkpt lat="43.423025" lon="-4.765233">
        <ele>69.315</ele>
        <time>2022-08-27T17:38:52Z</time>
      </trkpt>
      <trkpt lat="43.423018" lon="-4.765133">
        <ele>69.445</ele>
        <time>2022-08-27T17:38:54Z</time>
      </trkpt>
      <trkpt lat="43.423008" lon="-4.765041">
        <ele>69.966</ele>
        <time>2022-08-27T17:38:56Z</time>
      </trkpt>
      <trkpt lat="43.422995" lon="-4.764953">
        <ele>70.844</ele>
        <time>2022-08-27T17:38:58Z</time>
      </trkpt>
      <trkpt lat="43.422983" lon="-4.764843">
        <ele>72.714</ele>
        <time>2022-08-27T17:39:00Z</time>
      </trkpt>
      <trkpt lat="43.422968" lon="-4.764736">
        <ele>74.620</ele>
        <time>2022-08-27T17:39:02Z</time>
      </trkpt>
      <trkpt lat="43.422958" lon="-4.764621">
        <ele>75.584</ele>
        <time>2022-08-27T17:39:04Z</time>
      </trkpt>
      <trkpt lat="43.422943" lon="-4.764504">
        <ele>76.631</ele>
        <time>2022-08-27T17:39:06Z</time>
      </trkpt>
      <trkpt lat="43.422935" lon="-4.764396">
        <ele>76.958</ele>
        <time>2022-08-27T17:39:08Z</time>
      </trkpt>
      <trkpt lat="43.422932" lon="-4.764288">
        <ele>77.572</ele>
        <time>2022-08-27T17:39:10Z</time>
      </trkpt>
      <trkpt lat="43.422925" lon="-4.764176">
        <ele>78.613</ele>
        <time>2022-08-27T17:39:12Z</time>
      </trkpt>
      <trkpt lat="43.422917" lon="-4.764059">
        <ele>78.814</ele>
        <time>2022-08-27T17:39:14Z</time>
      </trkpt>
      <trkpt lat="43.422914" lon="-4.763952">
        <ele>78.809</ele>
        <time>2022-08-27T17:39:16Z</time>
      </trkpt>
      <trkpt lat="43.422906" lon="-4.763845">
        <ele>78.928</ele>
        <time>2022-08-27T17:39:18Z</time>
      </trkpt>
      <trkpt lat="43.422906" lon="-4.763732">
        <ele>78.948</ele>
        <time>2022-08-27T17:39:20Z</time>
      </trkpt>
      <trkpt lat="43.422901" lon="-4.763619">
        <ele>78.979</ele>
        <time>2022-08-27T17:39:22Z</time>
      </trkpt>
      <trkpt lat="43.422901" lon="-4.763507">
        <ele>79.017</ele>
        <time>2022-08-27T17:39:24Z</time>
      </trkpt>
      <trkpt lat="43.422891" lon="-4.763389">
        <ele>79.087</ele>
        <time>2022-08-27T17:39:26Z</time>
      </trkpt>
      <trkpt lat="43.422881" lon="-4.763279">
        <ele>78.633</ele>
        <time>2022-08-27T17:39:28Z</time>
      </trkpt>
      <trkpt lat="43.422866" lon="-4.763171">
        <ele>78.627</ele>
        <time>2022-08-27T17:39:30Z</time>
      </trkpt>
      <trkpt lat="43.422849" lon="-4.763061">
        <ele>79.414</ele>
        <time>2022-08-27T17:39:32Z</time>
      </trkpt>
      <trkpt lat="43.422839" lon="-4.762948">
        <ele>80.511</ele>
        <time>2022-08-27T17:39:34Z</time>
      </trkpt>
      <trkpt lat="43.422831" lon="-4.762833">
        <ele>82.151</ele>
        <time>2022-08-27T17:39:36Z</time>
      </trkpt>
      <trkpt lat="43.422818" lon="-4.762725">
        <ele>82.901</ele>
        <time>2022-08-27T17:39:38Z</time>
      </trkpt>
      <trkpt lat="43.422801" lon="-4.762613">
        <ele>83.111</ele>
        <time>2022-08-27T17:39:40Z</time>
      </trkpt>
      <trkpt lat="43.422774" lon="-4.762496">
        <ele>83.209</ele>
        <time>2022-08-27T17:39:42Z</time>
      </trkpt>
      <trkpt lat="43.422751" lon="-4.762379">
        <ele>83.156</ele>
        <time>2022-08-27T17:39:44Z</time>
      </trkpt>
      <trkpt lat="43.422716" lon="-4.762261">
        <ele>83.166</ele>
        <time>2022-08-27T17:39:46Z</time>
      </trkpt>
      <trkpt lat="43.422679" lon="-4.762148">
        <ele>81.127</ele>
        <time>2022-08-27T17:39:48Z</time>
      </trkpt>
      <trkpt lat="43.422644" lon="-4.762026">
        <ele>80.325</ele>
        <time>2022-08-27T17:39:50Z</time>
      </trkpt>
      <trkpt lat="43.422612" lon="-4.761909">
        <ele>79.675</ele>
        <time>2022-08-27T17:39:52Z</time>
      </trkpt>
      <trkpt lat="43.422579" lon="-4.761796">
        <ele>79.231</ele>
        <time>2022-08-27T17:39:54Z</time>
      </trkpt>
      <trkpt lat="43.422529" lon="-4.761689">
        <ele>79.215</ele>
        <time>2022-08-27T17:39:56Z</time>
      </trkpt>
      <trkpt lat="43.422479" lon="-4.761574">
        <ele>80.552</ele>
        <time>2022-08-27T17:39:58Z</time>
      </trkpt>
      <trkpt lat="43.422437" lon="-4.761462">
        <ele>81.269</ele>
        <time>2022-08-27T17:40:00Z</time>
      </trkpt>
      <trkpt lat="43.422402" lon="-4.761347">
        <ele>81.481</ele>
        <time>2022-08-27T17:40:02Z</time>
      </trkpt>
      <trkpt lat="43.422380" lon="-4.761287">
        <ele>81.461</ele>
        <time>2022-08-27T17:40:03Z</time>
      </trkpt>
      <trkpt lat="43.422360" lon="-4.761227">
        <ele>81.417</ele>
        <time>2022-08-27T17:40:04Z</time>
      </trkpt>
      <trkpt lat="43.422323" lon="-4.761114">
        <ele>80.709</ele>
        <time>2022-08-27T17:40:06Z</time>
      </trkpt>
      <trkpt lat="43.422308" lon="-4.761052">
        <ele>80.269</ele>
        <time>2022-08-27T17:40:07Z</time>
      </trkpt>
      <trkpt lat="43.422271" lon="-4.760942">
        <ele>79.249</ele>
        <time>2022-08-27T17:40:09Z</time>
      </trkpt>
      <trkpt lat="43.422251" lon="-4.760824">
        <ele>78.220</ele>
        <time>2022-08-27T17:40:11Z</time>
      </trkpt>
      <trkpt lat="43.422238" lon="-4.760761">
        <ele>77.818</ele>
        <time>2022-08-27T17:40:12Z</time>
      </trkpt>
      <trkpt lat="43.422218" lon="-4.760704">
        <ele>77.168</ele>
        <time>2022-08-27T17:40:13Z</time>
      </trkpt>
      <trkpt lat="43.422185" lon="-4.760594">
        <ele>76.624</ele>
        <time>2022-08-27T17:40:15Z</time>
      </trkpt>
      <trkpt lat="43.422175" lon="-4.760532">
        <ele>76.628</ele>
        <time>2022-08-27T17:40:16Z</time>
      </trkpt>
      <trkpt lat="43.422163" lon="-4.760467">
        <ele>76.265</ele>
        <time>2022-08-27T17:40:17Z</time>
      </trkpt>
      <trkpt lat="43.422128" lon="-4.760327">
        <ele>75.582</ele>
        <time>2022-08-27T17:40:19Z</time>
      </trkpt>
      <trkpt lat="43.422105" lon="-4.760260">
        <ele>74.763</ele>
        <time>2022-08-27T17:40:20Z</time>
      </trkpt>
      <trkpt lat="43.422063" lon="-4.760127">
        <ele>73.344</ele>
        <time>2022-08-27T17:40:22Z</time>
      </trkpt>
      <trkpt lat="43.422028" lon="-4.760000">
        <ele>73.018</ele>
        <time>2022-08-27T17:40:24Z</time>
      </trkpt>
      <trkpt lat="43.421990" lon="-4.759882">
        <ele>73.109</ele>
        <time>2022-08-27T17:40:26Z</time>
      </trkpt>
      <trkpt lat="43.421952" lon="-4.759765">
        <ele>73.367</ele>
        <time>2022-08-27T17:40:28Z</time>
      </trkpt>
      <trkpt lat="43.421912" lon="-4.759655">
        <ele>73.337</ele>
        <time>2022-08-27T17:40:30Z</time>
      </trkpt>
      <trkpt lat="43.421879" lon="-4.759557">
        <ele>73.558</ele>
        <time>2022-08-27T17:40:32Z</time>
      </trkpt>
      <trkpt lat="43.421851" lon="-4.759454">
        <ele>73.516</ele>
        <time>2022-08-27T17:40:34Z</time>
      </trkpt>
      <trkpt lat="43.421809" lon="-4.759346">
        <ele>74.566</ele>
        <time>2022-08-27T17:40:36Z</time>
      </trkpt>
      <trkpt lat="43.421771" lon="-4.759246">
        <ele>75.892</ele>
        <time>2022-08-27T17:40:38Z</time>
      </trkpt>
      <trkpt lat="43.421738" lon="-4.759136">
        <ele>76.416</ele>
        <time>2022-08-27T17:40:40Z</time>
      </trkpt>
      <trkpt lat="43.421718" lon="-4.759079">
        <ele>77.483</ele>
        <time>2022-08-27T17:40:41Z</time>
      </trkpt>
      <trkpt lat="43.421673" lon="-4.758966">
        <ele>78.430</ele>
        <time>2022-08-27T17:40:43Z</time>
      </trkpt>
      <trkpt lat="43.421630" lon="-4.758849">
        <ele>80.347</ele>
        <time>2022-08-27T17:40:45Z</time>
      </trkpt>
      <trkpt lat="43.421590" lon="-4.758752">
        <ele>80.829</ele>
        <time>2022-08-27T17:40:47Z</time>
      </trkpt>
      <trkpt lat="43.421550" lon="-4.758664">
        <ele>80.721</ele>
        <time>2022-08-27T17:40:49Z</time>
      </trkpt>
      <trkpt lat="43.421510" lon="-4.758609">
        <ele>80.309</ele>
        <time>2022-08-27T17:40:51Z</time>
      </trkpt>
      <trkpt lat="43.421468" lon="-4.758586">
        <ele>79.275</ele>
        <time>2022-08-27T17:40:53Z</time>
      </trkpt>
      <trkpt lat="43.421423" lon="-4.758594">
        <ele>79.055</ele>
        <time>2022-08-27T17:40:55Z</time>
      </trkpt>
      <trkpt lat="43.421380" lon="-4.758616">
        <ele>78.556</ele>
        <time>2022-08-27T17:40:57Z</time>
      </trkpt>
      <trkpt lat="43.421318" lon="-4.758604">
        <ele>76.764</ele>
        <time>2022-08-27T17:41:00Z</time>
      </trkpt>
      <trkpt lat="43.421250" lon="-4.758621">
        <ele>74.984</ele>
        <time>2022-08-27T17:41:03Z</time>
      </trkpt>
      <trkpt lat="43.421198" lon="-4.758659">
        <ele>73.680</ele>
        <time>2022-08-27T17:41:05Z</time>
      </trkpt>
      <trkpt lat="43.421175" lon="-4.758714">
        <ele>72.644</ele>
        <time>2022-08-27T17:41:07Z</time>
      </trkpt>
      <trkpt lat="43.421122" lon="-4.758736">
        <ele>71.541</ele>
        <time>2022-08-27T17:41:10Z</time>
      </trkpt>
      <trkpt lat="43.421074" lon="-4.758763">
        <ele>71.038</ele>
        <time>2022-08-27T17:41:13Z</time>
      </trkpt>
      <trkpt lat="43.421051" lon="-4.758838">
        <ele>70.914</ele>
        <time>2022-08-27T17:41:17Z</time>
      </trkpt>
      <trkpt lat="43.421069" lon="-4.758895">
        <ele>71.054</ele>
        <time>2022-08-27T17:41:19Z</time>
      </trkpt>
      <trkpt lat="43.421099" lon="-4.758948">
        <ele>71.009</ele>
        <time>2022-08-27T17:41:21Z</time>
      </trkpt>
      <trkpt lat="43.421136" lon="-4.759018">
        <ele>71.409</ele>
        <time>2022-08-27T17:41:24Z</time>
      </trkpt>
      <trkpt lat="43.421169" lon="-4.759071">
        <ele>71.622</ele>
        <time>2022-08-27T17:41:27Z</time>
      </trkpt>
      <trkpt lat="43.421086" lon="-4.759083">
        <ele>73.042</ele>
        <time>2022-08-27T17:46:56Z</time>
      </trkpt>
      <trkpt lat="43.421083" lon="-4.758995">
        <ele>73.073</ele>
        <time>2022-08-27T17:47:26Z</time>
      </trkpt>
      <trkpt lat="43.421058" lon="-4.758923">
        <ele>73.051</ele>
        <time>2022-08-27T17:47:30Z</time>
      </trkpt>
      <trkpt lat="43.421030" lon="-4.758865">
        <ele>73.071</ele>
        <time>2022-08-27T17:47:34Z</time>
      </trkpt>
      <trkpt lat="43.421010" lon="-4.758787">
        <ele>70.587</ele>
        <time>2022-08-27T17:47:38Z</time>
      </trkpt>
      <trkpt lat="43.420997" lon="-4.758727">
        <ele>70.581</ele>
        <time>2022-08-27T17:47:41Z</time>
      </trkpt>
      <trkpt lat="43.420964" lon="-4.758657">
        <ele>69.568</ele>
        <time>2022-08-27T17:47:44Z</time>
      </trkpt>
      <trkpt lat="43.420926" lon="-4.758590">
        <ele>69.625</ele>
        <time>2022-08-27T17:47:46Z</time>
      </trkpt>
      <trkpt lat="43.420896" lon="-4.758507">
        <ele>69.794</ele>
        <time>2022-08-27T17:47:48Z</time>
      </trkpt>
      <trkpt lat="43.420863" lon="-4.758424">
        <ele>69.557</ele>
        <time>2022-08-27T17:47:50Z</time>
      </trkpt>
      <trkpt lat="43.420825" lon="-4.758331">
        <ele>69.322</ele>
        <time>2022-08-27T17:47:52Z</time>
      </trkpt>
      <trkpt lat="43.420780" lon="-4.758233">
        <ele>67.909</ele>
        <time>2022-08-27T17:47:54Z</time>
      </trkpt>
      <trkpt lat="43.420740" lon="-4.758138">
        <ele>66.710</ele>
        <time>2022-08-27T17:47:56Z</time>
      </trkpt>
      <trkpt lat="43.420692" lon="-4.758045">
        <ele>66.310</ele>
        <time>2022-08-27T17:47:58Z</time>
      </trkpt>
      <trkpt lat="43.420642" lon="-4.757948">
        <ele>66.251</ele>
        <time>2022-08-27T17:48:00Z</time>
      </trkpt>
      <trkpt lat="43.420592" lon="-4.757851">
        <ele>65.969</ele>
        <time>2022-08-27T17:48:02Z</time>
      </trkpt>
      <trkpt lat="43.420537" lon="-4.757753">
        <ele>65.969</ele>
        <time>2022-08-27T17:48:04Z</time>
      </trkpt>
      <trkpt lat="43.420482" lon="-4.757655">
        <ele>66.095</ele>
        <time>2022-08-27T17:48:06Z</time>
      </trkpt>
      <trkpt lat="43.420435" lon="-4.757548">
        <ele>66.429</ele>
        <time>2022-08-27T17:48:08Z</time>
      </trkpt>
      <trkpt lat="43.420405" lon="-4.757495">
        <ele>66.426</ele>
        <time>2022-08-27T17:48:09Z</time>
      </trkpt>
      <trkpt lat="43.420350" lon="-4.757388">
        <ele>66.443</ele>
        <time>2022-08-27T17:48:11Z</time>
      </trkpt>
      <trkpt lat="43.420323" lon="-4.757336">
        <ele>66.498</ele>
        <time>2022-08-27T17:48:12Z</time>
      </trkpt>
      <trkpt lat="43.420275" lon="-4.757223">
        <ele>66.415</ele>
        <time>2022-08-27T17:48:14Z</time>
      </trkpt>
      <trkpt lat="43.420253" lon="-4.757168">
        <ele>66.426</ele>
        <time>2022-08-27T17:48:15Z</time>
      </trkpt>
      <trkpt lat="43.420215" lon="-4.757065">
        <ele>66.809</ele>
        <time>2022-08-27T17:48:17Z</time>
      </trkpt>
      <trkpt lat="43.420177" lon="-4.756985">
        <ele>67.360</ele>
        <time>2022-08-27T17:48:19Z</time>
      </trkpt>
      <trkpt lat="43.420129" lon="-4.756910">
        <ele>67.810</ele>
        <time>2022-08-27T17:48:21Z</time>
      </trkpt>
      <trkpt lat="43.420066" lon="-4.756838">
        <ele>68.441</ele>
        <time>2022-08-27T17:48:23Z</time>
      </trkpt>
      <trkpt lat="43.420018" lon="-4.756758">
        <ele>68.969</ele>
        <time>2022-08-27T17:48:25Z</time>
      </trkpt>
      <trkpt lat="43.419963" lon="-4.756671">
        <ele>68.969</ele>
        <time>2022-08-27T17:48:27Z</time>
      </trkpt>
      <trkpt lat="43.419911" lon="-4.756596">
        <ele>68.645</ele>
        <time>2022-08-27T17:48:29Z</time>
      </trkpt>
      <trkpt lat="43.419881" lon="-4.756491">
        <ele>68.369</ele>
        <time>2022-08-27T17:48:31Z</time>
      </trkpt>
      <trkpt lat="43.419888" lon="-4.756414">
        <ele>67.356</ele>
        <time>2022-08-27T17:48:33Z</time>
      </trkpt>
      <trkpt lat="43.419936" lon="-4.756431">
        <ele>66.913</ele>
        <time>2022-08-27T17:48:36Z</time>
      </trkpt>
      <trkpt lat="43.419991" lon="-4.756386">
        <ele>66.382</ele>
        <time>2022-08-27T17:48:44Z</time>
      </trkpt>
      <trkpt lat="43.420049" lon="-4.756353">
        <ele>66.343</ele>
        <time>2022-08-27T17:48:47Z</time>
      </trkpt>
      <trkpt lat="43.420074" lon="-4.756296">
        <ele>66.817</ele>
        <time>2022-08-27T17:48:49Z</time>
      </trkpt>
      <trkpt lat="43.420099" lon="-4.756226">
        <ele>67.809</ele>
        <time>2022-08-27T17:48:51Z</time>
      </trkpt>
      <trkpt lat="43.420119" lon="-4.756163">
        <ele>68.649</ele>
        <time>2022-08-27T17:48:53Z</time>
      </trkpt>
      <trkpt lat="43.420142" lon="-4.756101">
        <ele>69.069</ele>
        <time>2022-08-27T17:48:55Z</time>
      </trkpt>
      <trkpt lat="43.420165" lon="-4.756044">
        <ele>69.020</ele>
        <time>2022-08-27T17:48:57Z</time>
      </trkpt>
      <trkpt lat="43.420210" lon="-4.756006">
        <ele>69.068</ele>
        <time>2022-08-27T17:48:59Z</time>
      </trkpt>
      <trkpt lat="43.420223" lon="-4.755919">
        <ele>68.968</ele>
        <time>2022-08-27T17:49:02Z</time>
      </trkpt>
      <trkpt lat="43.420230" lon="-4.755829">
        <ele>68.284</ele>
        <time>2022-08-27T17:49:04Z</time>
      </trkpt>
      <trkpt lat="43.420212" lon="-4.755742">
        <ele>67.528</ele>
        <time>2022-08-27T17:49:05Z</time>
      </trkpt>
      <trkpt lat="43.420154" lon="-4.755705">
        <ele>66.535</ele>
        <time>2022-08-27T17:49:08Z</time>
      </trkpt>
      <trkpt lat="43.420122" lon="-4.755655">
        <ele>65.752</ele>
        <time>2022-08-27T17:49:11Z</time>
      </trkpt>
      <trkpt lat="43.420155" lon="-4.755595">
        <ele>65.693</ele>
        <time>2022-08-27T17:49:15Z</time>
      </trkpt>
      <trkpt lat="43.420198" lon="-4.755533">
        <ele>65.665</ele>
        <time>2022-08-27T17:49:18Z</time>
      </trkpt>
      <trkpt lat="43.420245" lon="-4.755465">
        <ele>65.721</ele>
        <time>2022-08-27T17:49:20Z</time>
      </trkpt>
      <trkpt lat="43.420313" lon="-4.755373">
        <ele>65.609</ele>
        <time>2022-08-27T17:49:22Z</time>
      </trkpt>
      <trkpt lat="43.420351" lon="-4.755265">
        <ele>65.720</ele>
        <time>2022-08-27T17:49:24Z</time>
      </trkpt>
      <trkpt lat="43.420378" lon="-4.755185">
        <ele>64.210</ele>
        <time>2022-08-27T17:49:26Z</time>
      </trkpt>
      <trkpt lat="43.420393" lon="-4.755120">
        <ele>63.891</ele>
        <time>2022-08-27T17:49:28Z</time>
      </trkpt>
      <trkpt lat="43.420413" lon="-4.755043">
        <ele>63.899</ele>
        <time>2022-08-27T17:49:31Z</time>
      </trkpt>
      <trkpt lat="43.420445" lon="-4.754988">
        <ele>63.939</ele>
        <time>2022-08-27T17:49:34Z</time>
      </trkpt>
      <trkpt lat="43.420413" lon="-4.754900">
        <ele>66.495</ele>
        <time>2022-08-27T17:49:49Z</time>
      </trkpt>
      <trkpt lat="43.420361" lon="-4.754893">
        <ele>66.479</ele>
        <time>2022-08-27T17:49:51Z</time>
      </trkpt>
      <trkpt lat="43.420303" lon="-4.754873">
        <ele>66.436</ele>
        <time>2022-08-27T17:49:53Z</time>
      </trkpt>
      <trkpt lat="43.420236" lon="-4.754870">
        <ele>66.433</ele>
        <time>2022-08-27T17:49:55Z</time>
      </trkpt>
      <trkpt lat="43.420174" lon="-4.754873">
        <ele>66.479</ele>
        <time>2022-08-27T17:49:57Z</time>
      </trkpt>
      <trkpt lat="43.420119" lon="-4.754870">
        <ele>67.605</ele>
        <time>2022-08-27T17:49:59Z</time>
      </trkpt>
      <trkpt lat="43.420074" lon="-4.754877">
        <ele>67.625</ele>
        <time>2022-08-27T17:50:01Z</time>
      </trkpt>
      <trkpt lat="43.420026" lon="-4.754890">
        <ele>67.609</ele>
        <time>2022-08-27T17:50:03Z</time>
      </trkpt>
      <trkpt lat="43.419979" lon="-4.754872">
        <ele>67.378</ele>
        <time>2022-08-27T17:50:05Z</time>
      </trkpt>
      <trkpt lat="43.419927" lon="-4.754824">
        <ele>66.848</ele>
        <time>2022-08-27T17:50:07Z</time>
      </trkpt>
      <trkpt lat="43.419882" lon="-4.754751">
        <ele>66.039</ele>
        <time>2022-08-27T17:50:09Z</time>
      </trkpt>
      <trkpt lat="43.419829" lon="-4.754686">
        <ele>63.897</ele>
        <time>2022-08-27T17:50:11Z</time>
      </trkpt>
      <trkpt lat="43.419779" lon="-4.754618">
        <ele>62.317</ele>
        <time>2022-08-27T17:50:13Z</time>
      </trkpt>
      <trkpt lat="43.419732" lon="-4.754555">
        <ele>60.953</ele>
        <time>2022-08-27T17:50:15Z</time>
      </trkpt>
      <trkpt lat="43.419699" lon="-4.754502">
        <ele>60.087</ele>
        <time>2022-08-27T17:50:17Z</time>
      </trkpt>
      <trkpt lat="43.419676" lon="-4.754434">
        <ele>59.364</ele>
        <time>2022-08-27T17:50:20Z</time>
      </trkpt>
      <trkpt lat="43.419549" lon="-4.754307">
        <ele>53.061</ele>
        <time>2022-08-27T17:50:42Z</time>
      </trkpt>
      <trkpt lat="43.419517" lon="-4.754252">
        <ele>48.022</ele>
        <time>2022-08-27T17:51:46Z</time>
      </trkpt>
      <trkpt lat="43.419517" lon="-4.754180">
        <ele>48.062</ele>
        <time>2022-08-27T17:51:49Z</time>
      </trkpt>
      <trkpt lat="43.419530" lon="-4.754102">
        <ele>48.008</ele>
        <time>2022-08-27T17:51:52Z</time>
      </trkpt>
      <trkpt lat="43.419560" lon="-4.754034">
        <ele>48.009</ele>
        <time>2022-08-27T17:51:54Z</time>
      </trkpt>
      <trkpt lat="43.419580" lon="-4.753969">
        <ele>48.013</ele>
        <time>2022-08-27T17:51:56Z</time>
      </trkpt>
      <trkpt lat="43.419622" lon="-4.753901">
        <ele>48.163</ele>
        <time>2022-08-27T17:51:59Z</time>
      </trkpt>
      <trkpt lat="43.419657" lon="-4.753853">
        <ele>48.194</ele>
        <time>2022-08-27T17:52:01Z</time>
      </trkpt>
      <trkpt lat="43.419675" lon="-4.753781">
        <ele>48.232</ele>
        <time>2022-08-27T17:52:03Z</time>
      </trkpt>
      <trkpt lat="43.419687" lon="-4.753696">
        <ele>47.522</ele>
        <time>2022-08-27T17:52:05Z</time>
      </trkpt>
      <trkpt lat="43.419705" lon="-4.753611">
        <ele>46.868</ele>
        <time>2022-08-27T17:52:07Z</time>
      </trkpt>
      <trkpt lat="43.419738" lon="-4.753534">
        <ele>45.912</ele>
        <time>2022-08-27T17:52:09Z</time>
      </trkpt>
      <trkpt lat="43.419783" lon="-4.753456">
        <ele>45.359</ele>
        <time>2022-08-27T17:52:11Z</time>
      </trkpt>
      <trkpt lat="43.419811" lon="-4.753373">
        <ele>45.016</ele>
        <time>2022-08-27T17:52:13Z</time>
      </trkpt>
      <trkpt lat="43.419828" lon="-4.753288">
        <ele>44.931</ele>
        <time>2022-08-27T17:52:15Z</time>
      </trkpt>
      <trkpt lat="43.419830" lon="-4.753198">
        <ele>45.061</ele>
        <time>2022-08-27T17:52:17Z</time>
      </trkpt>
      <trkpt lat="43.419833" lon="-4.753110">
        <ele>45.007</ele>
        <time>2022-08-27T17:52:19Z</time>
      </trkpt>
      <trkpt lat="43.419841" lon="-4.753030">
        <ele>45.409</ele>
        <time>2022-08-27T17:52:21Z</time>
      </trkpt>
      <trkpt lat="43.419829" lon="-4.752958">
        <ele>45.834</ele>
        <time>2022-08-27T17:52:23Z</time>
      </trkpt>
      <trkpt lat="43.419809" lon="-4.752895">
        <ele>46.374</ele>
        <time>2022-08-27T17:52:25Z</time>
      </trkpt>
      <trkpt lat="43.419764" lon="-4.752835">
        <ele>47.615</ele>
        <time>2022-08-27T17:52:28Z</time>
      </trkpt>
      <trkpt lat="43.419716" lon="-4.752775">
        <ele>50.223</ele>
        <time>2022-08-27T17:52:32Z</time>
      </trkpt>
      <trkpt lat="43.419668" lon="-4.752750">
        <ele>52.043</ele>
        <time>2022-08-27T17:52:34Z</time>
      </trkpt>
      <trkpt lat="43.419621" lon="-4.752713">
        <ele>53.479</ele>
        <time>2022-08-27T17:52:36Z</time>
      </trkpt>
      <trkpt lat="43.419573" lon="-4.752651">
        <ele>54.823</ele>
        <time>2022-08-27T17:52:38Z</time>
      </trkpt>
      <trkpt lat="43.419545" lon="-4.752588">
        <ele>56.240</ele>
        <time>2022-08-27T17:52:41Z</time>
      </trkpt>
      <trkpt lat="43.419553" lon="-4.752525">
        <ele>58.347</ele>
        <time>2022-08-27T17:52:44Z</time>
      </trkpt>
      <trkpt lat="43.419571" lon="-4.752465">
        <ele>59.481</ele>
        <time>2022-08-27T17:52:46Z</time>
      </trkpt>
      <trkpt lat="43.419596" lon="-4.752403">
        <ele>60.261</ele>
        <time>2022-08-27T17:52:48Z</time>
      </trkpt>
      <trkpt lat="43.419626" lon="-4.752330">
        <ele>61.417</ele>
        <time>2022-08-27T17:52:51Z</time>
      </trkpt>
      <trkpt lat="43.419643" lon="-4.752260">
        <ele>62.009</ele>
        <time>2022-08-27T17:52:54Z</time>
      </trkpt>
      <trkpt lat="43.419660" lon="-4.752192">
        <ele>62.869</ele>
        <time>2022-08-27T17:52:57Z</time>
      </trkpt>
      <trkpt lat="43.419673" lon="-4.752117">
        <ele>64.119</ele>
        <time>2022-08-27T17:53:01Z</time>
      </trkpt>
      <trkpt lat="43.419683" lon="-4.752034">
        <ele>65.450</ele>
        <time>2022-08-27T17:53:04Z</time>
      </trkpt>
      <trkpt lat="43.419711" lon="-4.751972">
        <ele>66.898</ele>
        <time>2022-08-27T17:53:06Z</time>
      </trkpt>
      <trkpt lat="43.419741" lon="-4.751904">
        <ele>67.888</ele>
        <time>2022-08-27T17:53:08Z</time>
      </trkpt>
      <trkpt lat="43.419784" lon="-4.751829">
        <ele>68.454</ele>
        <time>2022-08-27T17:53:10Z</time>
      </trkpt>
      <trkpt lat="43.419824" lon="-4.751749">
        <ele>68.828</ele>
        <time>2022-08-27T17:53:12Z</time>
      </trkpt>
      <trkpt lat="43.419872" lon="-4.751687">
        <ele>68.915</ele>
        <time>2022-08-27T17:53:14Z</time>
      </trkpt>
      <trkpt lat="43.419912" lon="-4.751642">
        <ele>68.972</ele>
        <time>2022-08-27T17:53:16Z</time>
      </trkpt>
      <trkpt lat="43.419952" lon="-4.751599">
        <ele>69.997</ele>
        <time>2022-08-27T17:53:18Z</time>
      </trkpt>
      <trkpt lat="43.419992" lon="-4.751554">
        <ele>70.523</ele>
        <time>2022-08-27T17:53:20Z</time>
      </trkpt>
      <trkpt lat="43.420037" lon="-4.751516">
        <ele>71.425</ele>
        <time>2022-08-27T17:53:22Z</time>
      </trkpt>
      <trkpt lat="43.420077" lon="-4.751439">
        <ele>72.509</ele>
        <time>2022-08-27T17:53:25Z</time>
      </trkpt>
      <trkpt lat="43.420077" lon="-4.751354">
        <ele>72.830</ele>
        <time>2022-08-27T17:53:27Z</time>
      </trkpt>
      <trkpt lat="43.420037" lon="-4.751289">
        <ele>74.340</ele>
        <time>2022-08-27T17:53:30Z</time>
      </trkpt>
      <trkpt lat="43.420030" lon="-4.751204">
        <ele>76.411</ele>
        <time>2022-08-27T17:53:33Z</time>
      </trkpt>
      <trkpt lat="43.420028" lon="-4.751126">
        <ele>76.889</ele>
        <time>2022-08-27T17:53:35Z</time>
      </trkpt>
      <trkpt lat="43.420016" lon="-4.751046">
        <ele>77.389</ele>
        <time>2022-08-27T17:53:37Z</time>
      </trkpt>
      <trkpt lat="43.420018" lon="-4.750964">
        <ele>77.985</ele>
        <time>2022-08-27T17:53:39Z</time>
      </trkpt>
      <trkpt lat="43.420023" lon="-4.750899">
        <ele>78.589</ele>
        <time>2022-08-27T17:53:41Z</time>
      </trkpt>
      <trkpt lat="43.420035" lon="-4.750829">
        <ele>78.746</ele>
        <time>2022-08-27T17:53:43Z</time>
      </trkpt>
      <trkpt lat="43.420033" lon="-4.750757">
        <ele>78.943</ele>
        <time>2022-08-27T17:53:45Z</time>
      </trkpt>
      <trkpt lat="43.420021" lon="-4.750689">
        <ele>79.474</ele>
        <time>2022-08-27T17:53:47Z</time>
      </trkpt>
      <trkpt lat="43.420003" lon="-4.750621">
        <ele>79.756</ele>
        <time>2022-08-27T17:53:49Z</time>
      </trkpt>
      <trkpt lat="43.420006" lon="-4.750533">
        <ele>80.521</ele>
        <time>2022-08-27T17:53:51Z</time>
      </trkpt>
      <trkpt lat="43.420023" lon="-4.750440">
        <ele>81.309</ele>
        <time>2022-08-27T17:53:53Z</time>
      </trkpt>
      <trkpt lat="43.420041" lon="-4.750348">
        <ele>81.878</ele>
        <time>2022-08-27T17:53:55Z</time>
      </trkpt>
      <trkpt lat="43.420046" lon="-4.750250">
        <ele>81.858</ele>
        <time>2022-08-27T17:53:57Z</time>
      </trkpt>
      <trkpt lat="43.420048" lon="-4.750150">
        <ele>82.099</ele>
        <time>2022-08-27T17:53:59Z</time>
      </trkpt>
      <trkpt lat="43.420061" lon="-4.750043">
        <ele>82.087</ele>
        <time>2022-08-27T17:54:01Z</time>
      </trkpt>
      <trkpt lat="43.420061" lon="-4.749926">
        <ele>82.267</ele>
        <time>2022-08-27T17:54:03Z</time>
      </trkpt>
      <trkpt lat="43.420054" lon="-4.749809">
        <ele>82.433</ele>
        <time>2022-08-27T17:54:05Z</time>
      </trkpt>
      <trkpt lat="43.420052" lon="-4.749699">
        <ele>82.717</ele>
        <time>2022-08-27T17:54:07Z</time>
      </trkpt>
      <trkpt lat="43.420054" lon="-4.749591">
        <ele>82.844</ele>
        <time>2022-08-27T17:54:09Z</time>
      </trkpt>
      <trkpt lat="43.420052" lon="-4.749483">
        <ele>83.151</ele>
        <time>2022-08-27T17:54:11Z</time>
      </trkpt>
      <trkpt lat="43.420047" lon="-4.749378">
        <ele>83.228</ele>
        <time>2022-08-27T17:54:13Z</time>
      </trkpt>
      <trkpt lat="43.420047" lon="-4.749265">
        <ele>83.189</ele>
        <time>2022-08-27T17:54:15Z</time>
      </trkpt>
      <trkpt lat="43.420050" lon="-4.749163">
        <ele>82.617</ele>
        <time>2022-08-27T17:54:17Z</time>
      </trkpt>
      <trkpt lat="43.420048" lon="-4.749063">
        <ele>81.709</ele>
        <time>2022-08-27T17:54:19Z</time>
      </trkpt>
      <trkpt lat="43.420048" lon="-4.748968">
        <ele>81.263</ele>
        <time>2022-08-27T17:54:21Z</time>
      </trkpt>
      <trkpt lat="43.420051" lon="-4.748880">
        <ele>80.023</ele>
        <time>2022-08-27T17:54:23Z</time>
      </trkpt>
      <trkpt lat="43.420049" lon="-4.748803">
        <ele>78.464</ele>
        <time>2022-08-27T17:54:25Z</time>
      </trkpt>
      <trkpt lat="43.420051" lon="-4.748736">
        <ele>77.232</ele>
        <time>2022-08-27T17:54:27Z</time>
      </trkpt>
      <trkpt lat="43.420033" lon="-4.748676">
        <ele>75.292</ele>
        <time>2022-08-27T17:54:29Z</time>
      </trkpt>
      <trkpt lat="43.419978" lon="-4.748651">
        <ele>72.868</ele>
        <time>2022-08-27T17:54:32Z</time>
      </trkpt>
      <trkpt lat="43.419933" lon="-4.748656">
        <ele>71.322</ele>
        <time>2022-08-27T17:54:34Z</time>
      </trkpt>
      <trkpt lat="43.419856" lon="-4.748643">
        <ele>68.919</ele>
        <time>2022-08-27T17:54:37Z</time>
      </trkpt>
      <trkpt lat="43.419784" lon="-4.748631">
        <ele>67.316</ele>
        <time>2022-08-27T17:54:39Z</time>
      </trkpt>
      <trkpt lat="43.419719" lon="-4.748636">
        <ele>66.719</ele>
        <time>2022-08-27T17:54:41Z</time>
      </trkpt>
      <trkpt lat="43.419656" lon="-4.748638">
        <ele>65.409</ele>
        <time>2022-08-27T17:54:43Z</time>
      </trkpt>
      <trkpt lat="43.419589" lon="-4.748635">
        <ele>65.119</ele>
        <time>2022-08-27T17:54:45Z</time>
      </trkpt>
      <trkpt lat="43.419531" lon="-4.748638">
        <ele>64.709</ele>
        <time>2022-08-27T17:54:47Z</time>
      </trkpt>
      <trkpt lat="43.419471" lon="-4.748648">
        <ele>63.422</ele>
        <time>2022-08-27T17:54:50Z</time>
      </trkpt>
      <trkpt lat="43.419426" lon="-4.748618">
        <ele>62.032</ele>
        <time>2022-08-27T17:54:54Z</time>
      </trkpt>
      <trkpt lat="43.419398" lon="-4.748550">
        <ele>61.523</ele>
        <time>2022-08-27T17:54:58Z</time>
      </trkpt>
      <trkpt lat="43.419386" lon="-4.748477">
        <ele>61.581</ele>
        <time>2022-08-27T17:55:00Z</time>
      </trkpt>
      <trkpt lat="43.419364" lon="-4.748409">
        <ele>61.461</ele>
        <time>2022-08-27T17:55:02Z</time>
      </trkpt>
      <trkpt lat="43.419346" lon="-4.748336">
        <ele>61.187</ele>
        <time>2022-08-27T17:55:04Z</time>
      </trkpt>
      <trkpt lat="43.419343" lon="-4.748266">
        <ele>60.411</ele>
        <time>2022-08-27T17:55:06Z</time>
      </trkpt>
      <trkpt lat="43.419328" lon="-4.748188">
        <ele>59.568</ele>
        <time>2022-08-27T17:55:09Z</time>
      </trkpt>
      <trkpt lat="43.419330" lon="-4.748115">
        <ele>58.715</ele>
        <time>2022-08-27T17:55:12Z</time>
      </trkpt>
      <trkpt lat="43.419378" lon="-4.748077">
        <ele>57.311</ele>
        <time>2022-08-27T17:55:15Z</time>
      </trkpt>
      <trkpt lat="43.419383" lon="-4.748155">
        <ele>56.321</ele>
        <time>2022-08-27T17:55:18Z</time>
      </trkpt>
      <trkpt lat="43.419376" lon="-4.748220">
        <ele>55.403</ele>
        <time>2022-08-27T17:55:20Z</time>
      </trkpt>
      <trkpt lat="43.419383" lon="-4.748283">
        <ele>54.809</ele>
        <time>2022-08-27T17:55:22Z</time>
      </trkpt>
      <trkpt lat="43.419400" lon="-4.748348">
        <ele>54.852</ele>
        <time>2022-08-27T17:55:24Z</time>
      </trkpt>
      <trkpt lat="43.419415" lon="-4.748430">
        <ele>54.832</ele>
        <time>2022-08-27T17:55:27Z</time>
      </trkpt>
      <trkpt lat="43.419417" lon="-4.748503">
        <ele>54.883</ele>
        <time>2022-08-27T17:55:30Z</time>
      </trkpt>
      <trkpt lat="43.419387" lon="-4.748578">
        <ele>55.431</ele>
        <time>2022-08-27T17:55:33Z</time>
      </trkpt>
      <trkpt lat="43.419320" lon="-4.748600">
        <ele>55.951</ele>
        <time>2022-08-27T17:55:36Z</time>
      </trkpt>
      <trkpt lat="43.419263" lon="-4.748597">
        <ele>55.927</ele>
        <time>2022-08-27T17:55:38Z</time>
      </trkpt>
      <trkpt lat="43.419226" lon="-4.748640">
        <ele>56.151</ele>
        <time>2022-08-27T17:55:40Z</time>
      </trkpt>
      <trkpt lat="43.419188" lon="-4.748697">
        <ele>58.098</ele>
        <time>2022-08-27T17:55:43Z</time>
      </trkpt>
      <trkpt lat="43.419141" lon="-4.748675">
        <ele>58.945</ele>
        <time>2022-08-27T17:55:45Z</time>
      </trkpt>
      <trkpt lat="43.419108" lon="-4.748623">
        <ele>59.941</ele>
        <time>2022-08-27T17:55:47Z</time>
      </trkpt>
      <trkpt lat="43.419075" lon="-4.748573">
        <ele>60.581</ele>
        <time>2022-08-27T17:55:49Z</time>
      </trkpt>
      <trkpt lat="43.419028" lon="-4.748545">
        <ele>61.109</ele>
        <time>2022-08-27T17:55:52Z</time>
      </trkpt>
      <trkpt lat="43.418976" lon="-4.748547">
        <ele>61.609</ele>
        <time>2022-08-27T17:55:55Z</time>
      </trkpt>
      <trkpt lat="43.418919" lon="-4.748542">
        <ele>63.015</ele>
        <time>2022-08-27T17:55:59Z</time>
      </trkpt>
      <trkpt lat="43.418876" lon="-4.748487">
        <ele>64.335</ele>
        <time>2022-08-27T17:56:03Z</time>
      </trkpt>
      <trkpt lat="43.418829" lon="-4.748430">
        <ele>65.776</ele>
        <time>2022-08-27T17:56:06Z</time>
      </trkpt>
      <trkpt lat="43.418787" lon="-4.748373">
        <ele>66.264</ele>
        <time>2022-08-27T17:56:09Z</time>
      </trkpt>
      <trkpt lat="43.418749" lon="-4.748303">
        <ele>66.634</ele>
        <time>2022-08-27T17:56:12Z</time>
      </trkpt>
      <trkpt lat="43.418724" lon="-4.748231">
        <ele>66.830</ele>
        <time>2022-08-27T17:56:15Z</time>
      </trkpt>
      <trkpt lat="43.418706" lon="-4.748169">
        <ele>66.894</ele>
        <time>2022-08-27T17:56:17Z</time>
      </trkpt>
      <trkpt lat="43.418686" lon="-4.748104">
        <ele>66.891</ele>
        <time>2022-08-27T17:56:19Z</time>
      </trkpt>
      <trkpt lat="43.418663" lon="-4.748042">
        <ele>66.858</ele>
        <time>2022-08-27T17:56:21Z</time>
      </trkpt>
      <trkpt lat="43.418638" lon="-4.747980">
        <ele>66.861</ele>
        <time>2022-08-27T17:56:23Z</time>
      </trkpt>
      <trkpt lat="43.418611" lon="-4.747913">
        <ele>66.921</ele>
        <time>2022-08-27T17:56:25Z</time>
      </trkpt>
      <trkpt lat="43.418579" lon="-4.747841">
        <ele>67.613</ele>
        <time>2022-08-27T17:56:27Z</time>
      </trkpt>
      <trkpt lat="43.418556" lon="-4.747783">
        <ele>68.809</ele>
        <time>2022-08-27T17:56:29Z</time>
      </trkpt>
      <trkpt lat="43.418524" lon="-4.747710">
        <ele>68.837</ele>
        <time>2022-08-27T17:56:32Z</time>
      </trkpt>
      <trkpt lat="43.418479" lon="-4.747672">
        <ele>68.617</ele>
        <time>2022-08-27T17:56:35Z</time>
      </trkpt>
      <trkpt lat="43.418442" lon="-4.747624">
        <ele>67.838</ele>
        <time>2022-08-27T17:56:37Z</time>
      </trkpt>
      <trkpt lat="43.418404" lon="-4.747549">
        <ele>67.386</ele>
        <time>2022-08-27T17:56:39Z</time>
      </trkpt>
      <trkpt lat="43.418374" lon="-4.747454">
        <ele>66.486</ele>
        <time>2022-08-27T17:56:41Z</time>
      </trkpt>
      <trkpt lat="43.418347" lon="-4.747346">
        <ele>66.352</ele>
        <time>2022-08-27T17:56:43Z</time>
      </trkpt>
      <trkpt lat="43.418334" lon="-4.747284">
        <ele>65.556</ele>
        <time>2022-08-27T17:56:44Z</time>
      </trkpt>
      <trkpt lat="43.418321" lon="-4.747222">
        <ele>64.893</ele>
        <time>2022-08-27T17:56:45Z</time>
      </trkpt>
      <trkpt lat="43.418293" lon="-4.747094">
        <ele>63.880</ele>
        <time>2022-08-27T17:56:47Z</time>
      </trkpt>
      <trkpt lat="43.418280" lon="-4.747029">
        <ele>63.024</ele>
        <time>2022-08-27T17:56:48Z</time>
      </trkpt>
      <trkpt lat="43.418257" lon="-4.746904">
        <ele>62.704</ele>
        <time>2022-08-27T17:56:50Z</time>
      </trkpt>
      <trkpt lat="43.418245" lon="-4.746842">
        <ele>62.714</ele>
        <time>2022-08-27T17:56:51Z</time>
      </trkpt>
      <trkpt lat="43.418218" lon="-4.746724">
        <ele>62.409</ele>
        <time>2022-08-27T17:56:53Z</time>
      </trkpt>
      <trkpt lat="43.418195" lon="-4.746609">
        <ele>62.263</ele>
        <time>2022-08-27T17:56:55Z</time>
      </trkpt>
      <trkpt lat="43.418165" lon="-4.746501">
        <ele>62.113</ele>
        <time>2022-08-27T17:56:57Z</time>
      </trkpt>
      <trkpt lat="43.418132" lon="-4.746393">
        <ele>61.964</ele>
        <time>2022-08-27T17:56:59Z</time>
      </trkpt>
      <trkpt lat="43.418094" lon="-4.746301">
        <ele>61.992</ele>
        <time>2022-08-27T17:57:01Z</time>
      </trkpt>
      <trkpt lat="43.418056" lon="-4.746216">
        <ele>61.992</ele>
        <time>2022-08-27T17:57:03Z</time>
      </trkpt>
      <trkpt lat="43.418013" lon="-4.746136">
        <ele>62.278</ele>
        <time>2022-08-27T17:57:05Z</time>
      </trkpt>
      <trkpt lat="43.417965" lon="-4.746064">
        <ele>62.882</ele>
        <time>2022-08-27T17:57:07Z</time>
      </trkpt>
      <trkpt lat="43.417917" lon="-4.746007">
        <ele>63.659</ele>
        <time>2022-08-27T17:57:09Z</time>
      </trkpt>
      <trkpt lat="43.417867" lon="-4.745950">
        <ele>64.216</ele>
        <time>2022-08-27T17:57:11Z</time>
      </trkpt>
      <trkpt lat="43.417819" lon="-4.745897">
        <ele>64.561</ele>
        <time>2022-08-27T17:57:13Z</time>
      </trkpt>
      <trkpt lat="43.417771" lon="-4.745844">
        <ele>64.621</ele>
        <time>2022-08-27T17:57:15Z</time>
      </trkpt>
      <trkpt lat="43.417724" lon="-4.745796">
        <ele>64.713</ele>
        <time>2022-08-27T17:57:17Z</time>
      </trkpt>
      <trkpt lat="43.417677" lon="-4.745746">
        <ele>65.309</ele>
        <time>2022-08-27T17:57:19Z</time>
      </trkpt>
      <trkpt lat="43.417632" lon="-4.745686">
        <ele>65.827</ele>
        <time>2022-08-27T17:57:21Z</time>
      </trkpt>
      <trkpt lat="43.417584" lon="-4.745624">
        <ele>66.687</ele>
        <time>2022-08-27T17:57:23Z</time>
      </trkpt>
      <trkpt lat="43.417534" lon="-4.745554">
        <ele>67.558</ele>
        <time>2022-08-27T17:57:25Z</time>
      </trkpt>
      <trkpt lat="43.417489" lon="-4.745474">
        <ele>67.616</ele>
        <time>2022-08-27T17:57:27Z</time>
      </trkpt>
      <trkpt lat="43.417446" lon="-4.745381">
        <ele>67.766</ele>
        <time>2022-08-27T17:57:29Z</time>
      </trkpt>
      <trkpt lat="43.417416" lon="-4.745331">
        <ele>67.512</ele>
        <time>2022-08-27T17:57:30Z</time>
      </trkpt>
      <trkpt lat="43.417384" lon="-4.745283">
        <ele>67.346</ele>
        <time>2022-08-27T17:57:31Z</time>
      </trkpt>
      <trkpt lat="43.417316" lon="-4.745193">
        <ele>67.163</ele>
        <time>2022-08-27T17:57:33Z</time>
      </trkpt>
      <trkpt lat="43.417278" lon="-4.745153">
        <ele>66.940</ele>
        <time>2022-08-27T17:57:34Z</time>
      </trkpt>
      <trkpt lat="43.417241" lon="-4.745115">
        <ele>66.732</ele>
        <time>2022-08-27T17:57:35Z</time>
      </trkpt>
      <trkpt lat="43.417204" lon="-4.745078">
        <ele>66.292</ele>
        <time>2022-08-27T17:57:36Z</time>
      </trkpt>
      <trkpt lat="43.417132" lon="-4.745033">
        <ele>65.111</ele>
        <time>2022-08-27T17:57:38Z</time>
      </trkpt>
      <trkpt lat="43.417052" lon="-4.745006">
        <ele>64.009</ele>
        <time>2022-08-27T17:57:40Z</time>
      </trkpt>
      <trkpt lat="43.417002" lon="-4.745006">
        <ele>63.194</ele>
        <time>2022-08-27T17:57:41Z</time>
      </trkpt>
      <trkpt lat="43.416957" lon="-4.745016">
        <ele>61.924</ele>
        <time>2022-08-27T17:57:42Z</time>
      </trkpt>
      <trkpt lat="43.416870" lon="-4.745048">
        <ele>60.955</ele>
        <time>2022-08-27T17:57:44Z</time>
      </trkpt>
      <trkpt lat="43.416778" lon="-4.745068">
        <ele>59.143</ele>
        <time>2022-08-27T17:57:46Z</time>
      </trkpt>
      <trkpt lat="43.416690" lon="-4.745058">
        <ele>57.613</ele>
        <time>2022-08-27T17:57:48Z</time>
      </trkpt>
      <trkpt lat="43.416602" lon="-4.745051">
        <ele>56.029</ele>
        <time>2022-08-27T17:57:50Z</time>
      </trkpt>
      <trkpt lat="43.416522" lon="-4.745033">
        <ele>54.723</ele>
        <time>2022-08-27T17:57:52Z</time>
      </trkpt>
      <trkpt lat="43.416440" lon="-4.744986">
        <ele>52.420</ele>
        <time>2022-08-27T17:57:54Z</time>
      </trkpt>
      <trkpt lat="43.416360" lon="-4.744938">
        <ele>51.647</ele>
        <time>2022-08-27T17:57:56Z</time>
      </trkpt>
      <trkpt lat="43.416283" lon="-4.744895">
        <ele>50.912</ele>
        <time>2022-08-27T17:57:58Z</time>
      </trkpt>
      <trkpt lat="43.416208" lon="-4.744865">
        <ele>50.632</ele>
        <time>2022-08-27T17:58:00Z</time>
      </trkpt>
      <trkpt lat="43.416133" lon="-4.744857">
        <ele>50.205</ele>
        <time>2022-08-27T17:58:02Z</time>
      </trkpt>
      <trkpt lat="43.416075" lon="-4.744879">
        <ele>50.109</ele>
        <time>2022-08-27T17:58:04Z</time>
      </trkpt>
      <trkpt lat="43.416022" lon="-4.744916">
        <ele>50.272</ele>
        <time>2022-08-27T17:58:07Z</time>
      </trkpt>
      <trkpt lat="43.415970" lon="-4.744958">
        <ele>50.952</ele>
        <time>2022-08-27T17:58:10Z</time>
      </trkpt>
      <trkpt lat="43.415937" lon="-4.745010">
        <ele>50.983</ele>
        <time>2022-08-27T17:58:12Z</time>
      </trkpt>
      <trkpt lat="43.415897" lon="-4.745070">
        <ele>51.081</ele>
        <time>2022-08-27T17:58:14Z</time>
      </trkpt>
      <trkpt lat="43.415859" lon="-4.745130">
        <ele>51.241</ele>
        <time>2022-08-27T17:58:16Z</time>
      </trkpt>
      <trkpt lat="43.415827" lon="-4.745182">
        <ele>51.647</ele>
        <time>2022-08-27T17:58:18Z</time>
      </trkpt>
      <trkpt lat="43.415792" lon="-4.745237">
        <ele>52.051</ele>
        <time>2022-08-27T17:58:20Z</time>
      </trkpt>
      <trkpt lat="43.415762" lon="-4.745294">
        <ele>52.628</ele>
        <time>2022-08-27T17:58:22Z</time>
      </trkpt>
      <trkpt lat="43.415727" lon="-4.745341">
        <ele>53.145</ele>
        <time>2022-08-27T17:58:24Z</time>
      </trkpt>
      <trkpt lat="43.415657" lon="-4.745329">
        <ele>53.361</ele>
        <time>2022-08-27T17:58:27Z</time>
      </trkpt>
      <trkpt lat="43.415595" lon="-4.745304">
        <ele>53.421</ele>
        <time>2022-08-27T17:58:29Z</time>
      </trkpt>
      <trkpt lat="43.415535" lon="-4.745262">
        <ele>53.613</ele>
        <time>2022-08-27T17:58:31Z</time>
      </trkpt>
      <trkpt lat="43.415478" lon="-4.745210">
        <ele>53.709</ele>
        <time>2022-08-27T17:58:33Z</time>
      </trkpt>
      <trkpt lat="43.415433" lon="-4.745157">
        <ele>53.987</ele>
        <time>2022-08-27T17:58:35Z</time>
      </trkpt>
      <trkpt lat="43.415388" lon="-4.745087">
        <ele>53.947</ele>
        <time>2022-08-27T17:58:37Z</time>
      </trkpt>
      <trkpt lat="43.415350" lon="-4.745010">
        <ele>54.198</ele>
        <time>2022-08-27T17:58:39Z</time>
      </trkpt>
      <trkpt lat="43.415320" lon="-4.744930">
        <ele>54.656</ele>
        <time>2022-08-27T17:58:41Z</time>
      </trkpt>
      <trkpt lat="43.415288" lon="-4.744847">
        <ele>55.176</ele>
        <time>2022-08-27T17:58:43Z</time>
      </trkpt>
      <trkpt lat="43.415256" lon="-4.744767">
        <ele>55.222</ele>
        <time>2022-08-27T17:58:45Z</time>
      </trkpt>
      <trkpt lat="43.415223" lon="-4.744695">
        <ele>55.326</ele>
        <time>2022-08-27T17:58:47Z</time>
      </trkpt>
      <trkpt lat="43.415190" lon="-4.744632">
        <ele>55.313</ele>
        <time>2022-08-27T17:58:49Z</time>
      </trkpt>
      <trkpt lat="43.415157" lon="-4.744574">
        <ele>55.750</ele>
        <time>2022-08-27T17:58:51Z</time>
      </trkpt>
      <trkpt lat="43.415119" lon="-4.744527">
        <ele>56.658</ele>
        <time>2022-08-27T17:58:53Z</time>
      </trkpt>
      <trkpt lat="43.415067" lon="-4.744495">
        <ele>57.852</ele>
        <time>2022-08-27T17:58:55Z</time>
      </trkpt>
      <trkpt lat="43.415015" lon="-4.744468">
        <ele>58.717</ele>
        <time>2022-08-27T17:58:57Z</time>
      </trkpt>
      <trkpt lat="43.414962" lon="-4.744456">
        <ele>59.209</ele>
        <time>2022-08-27T17:58:59Z</time>
      </trkpt>
      <trkpt lat="43.414914" lon="-4.744449">
        <ele>59.756</ele>
        <time>2022-08-27T17:59:01Z</time>
      </trkpt>
      <trkpt lat="43.414869" lon="-4.744466">
        <ele>59.996</ele>
        <time>2022-08-27T17:59:03Z</time>
      </trkpt>
      <trkpt lat="43.414811" lon="-4.744491">
        <ele>60.917</ele>
        <time>2022-08-27T17:59:05Z</time>
      </trkpt>
      <trkpt lat="43.414753" lon="-4.744496">
        <ele>61.155</ele>
        <time>2022-08-27T17:59:07Z</time>
      </trkpt>
      <trkpt lat="43.414700" lon="-4.744494">
        <ele>61.115</ele>
        <time>2022-08-27T17:59:09Z</time>
      </trkpt>
      <trkpt lat="43.414642" lon="-4.744481">
        <ele>61.491</ele>
        <time>2022-08-27T17:59:11Z</time>
      </trkpt>
      <trkpt lat="43.414592" lon="-4.744458">
        <ele>61.525</ele>
        <time>2022-08-27T17:59:13Z</time>
      </trkpt>
      <trkpt lat="43.414545" lon="-4.744426">
        <ele>61.882</ele>
        <time>2022-08-27T17:59:15Z</time>
      </trkpt>
      <trkpt lat="43.414500" lon="-4.744396">
        <ele>62.099</ele>
        <time>2022-08-27T17:59:17Z</time>
      </trkpt>
      <trkpt lat="43.414453" lon="-4.744373">
        <ele>62.091</ele>
        <time>2022-08-27T17:59:19Z</time>
      </trkpt>
      <trkpt lat="43.414401" lon="-4.744350">
        <ele>62.081</ele>
        <time>2022-08-27T17:59:21Z</time>
      </trkpt>
      <trkpt lat="43.414338" lon="-4.744337">
        <ele>62.019</ele>
        <time>2022-08-27T17:59:23Z</time>
      </trkpt>
      <trkpt lat="43.414270" lon="-4.744337">
        <ele>62.109</ele>
        <time>2022-08-27T17:59:25Z</time>
      </trkpt>
      <trkpt lat="43.414202" lon="-4.744344">
        <ele>62.080</ele>
        <time>2022-08-27T17:59:27Z</time>
      </trkpt>
      <trkpt lat="43.414132" lon="-4.744354">
        <ele>62.020</ele>
        <time>2022-08-27T17:59:29Z</time>
      </trkpt>
      <trkpt lat="43.414065" lon="-4.744369">
        <ele>61.921</ele>
        <time>2022-08-27T17:59:31Z</time>
      </trkpt>
      <trkpt lat="43.413998" lon="-4.744392">
        <ele>61.259</ele>
        <time>2022-08-27T17:59:33Z</time>
      </trkpt>
      <trkpt lat="43.413931" lon="-4.744417">
        <ele>60.639</ele>
        <time>2022-08-27T17:59:35Z</time>
      </trkpt>
      <trkpt lat="43.413859" lon="-4.744429">
        <ele>60.525</ele>
        <time>2022-08-27T17:59:37Z</time>
      </trkpt>
      <trkpt lat="43.413786" lon="-4.744431">
        <ele>60.479</ele>
        <time>2022-08-27T17:59:39Z</time>
      </trkpt>
      <trkpt lat="43.413714" lon="-4.744419">
        <ele>60.236</ele>
        <time>2022-08-27T17:59:41Z</time>
      </trkpt>
      <trkpt lat="43.413646" lon="-4.744399">
        <ele>60.393</ele>
        <time>2022-08-27T17:59:43Z</time>
      </trkpt>
      <trkpt lat="43.413579" lon="-4.744371">
        <ele>60.218</ele>
        <time>2022-08-27T17:59:45Z</time>
      </trkpt>
      <trkpt lat="43.413512" lon="-4.744338">
        <ele>60.198</ele>
        <time>2022-08-27T17:59:47Z</time>
      </trkpt>
      <trkpt lat="43.413449" lon="-4.744305">
        <ele>60.217</ele>
        <time>2022-08-27T17:59:49Z</time>
      </trkpt>
      <trkpt lat="43.413384" lon="-4.744280">
        <ele>60.209</ele>
        <time>2022-08-27T17:59:51Z</time>
      </trkpt>
      <trkpt lat="43.413312" lon="-4.744267">
        <ele>60.572</ele>
        <time>2022-08-27T17:59:53Z</time>
      </trkpt>
      <trkpt lat="43.413242" lon="-4.744265">
        <ele>60.912</ele>
        <time>2022-08-27T17:59:55Z</time>
      </trkpt>
      <trkpt lat="43.413172" lon="-4.744275">
        <ele>61.423</ele>
        <time>2022-08-27T17:59:57Z</time>
      </trkpt>
      <trkpt lat="43.413102" lon="-4.744282">
        <ele>61.731</ele>
        <time>2022-08-27T17:59:59Z</time>
      </trkpt>
      <trkpt lat="43.413039" lon="-4.744290">
        <ele>62.121</ele>
        <time>2022-08-27T18:00:01Z</time>
      </trkpt>
      <trkpt lat="43.412977" lon="-4.744300">
        <ele>62.117</ele>
        <time>2022-08-27T18:00:03Z</time>
      </trkpt>
      <trkpt lat="43.412920" lon="-4.744302">
        <ele>62.251</ele>
        <time>2022-08-27T18:00:05Z</time>
      </trkpt>
      <trkpt lat="43.412858" lon="-4.744304">
        <ele>62.288</ele>
        <time>2022-08-27T18:00:07Z</time>
      </trkpt>
      <trkpt lat="43.412803" lon="-4.744297">
        <ele>62.295</ele>
        <time>2022-08-27T18:00:09Z</time>
      </trkpt>
      <trkpt lat="43.412755" lon="-4.744264">
        <ele>62.827</ele>
        <time>2022-08-27T18:00:11Z</time>
      </trkpt>
      <trkpt lat="43.412728" lon="-4.744206">
        <ele>64.268</ele>
        <time>2022-08-27T18:00:13Z</time>
      </trkpt>
      <trkpt lat="43.412715" lon="-4.744128">
        <ele>65.114</ele>
        <time>2022-08-27T18:00:15Z</time>
      </trkpt>
      <trkpt lat="43.412702" lon="-4.744050">
        <ele>65.409</ele>
        <time>2022-08-27T18:00:17Z</time>
      </trkpt>
      <trkpt lat="43.412690" lon="-4.743975">
        <ele>65.423</ele>
        <time>2022-08-27T18:00:19Z</time>
      </trkpt>
      <trkpt lat="43.412675" lon="-4.743900">
        <ele>65.463</ele>
        <time>2022-08-27T18:00:21Z</time>
      </trkpt>
      <trkpt lat="43.412655" lon="-4.743827">
        <ele>65.684</ele>
        <time>2022-08-27T18:00:23Z</time>
      </trkpt>
      <trkpt lat="43.412632" lon="-4.743754">
        <ele>65.762</ele>
        <time>2022-08-27T18:00:25Z</time>
      </trkpt>
      <trkpt lat="43.412604" lon="-4.743687">
        <ele>65.982</ele>
        <time>2022-08-27T18:00:27Z</time>
      </trkpt>
      <trkpt lat="43.412569" lon="-4.743627">
        <ele>66.078</ele>
        <time>2022-08-27T18:00:29Z</time>
      </trkpt>
      <trkpt lat="43.412534" lon="-4.743567">
        <ele>66.412</ele>
        <time>2022-08-27T18:00:31Z</time>
      </trkpt>
      <trkpt lat="43.412497" lon="-4.743517">
        <ele>66.849</ele>
        <time>2022-08-27T18:00:33Z</time>
      </trkpt>
      <trkpt lat="43.412464" lon="-4.743467">
        <ele>67.046</ele>
        <time>2022-08-27T18:00:35Z</time>
      </trkpt>
      <trkpt lat="43.412429" lon="-4.743415">
        <ele>67.441</ele>
        <time>2022-08-27T18:00:37Z</time>
      </trkpt>
      <trkpt lat="43.412399" lon="-4.743365">
        <ele>67.981</ele>
        <time>2022-08-27T18:00:39Z</time>
      </trkpt>
      <trkpt lat="43.412371" lon="-4.743283">
        <ele>68.809</ele>
        <time>2022-08-27T18:00:42Z</time>
      </trkpt>
      <trkpt lat="43.412349" lon="-4.743226">
        <ele>69.409</ele>
        <time>2022-08-27T18:00:44Z</time>
      </trkpt>
      <trkpt lat="43.412327" lon="-4.743168">
        <ele>70.295</ele>
        <time>2022-08-27T18:00:46Z</time>
      </trkpt>
      <trkpt lat="43.412310" lon="-4.743078">
        <ele>70.515</ele>
        <time>2022-08-27T18:00:49Z</time>
      </trkpt>
      <trkpt lat="43.412297" lon="-4.743013">
        <ele>71.276</ele>
        <time>2022-08-27T18:00:51Z</time>
      </trkpt>
      <trkpt lat="43.412289" lon="-4.742950">
        <ele>71.434</ele>
        <time>2022-08-27T18:00:53Z</time>
      </trkpt>
      <trkpt lat="43.412282" lon="-4.742877">
        <ele>71.784</ele>
        <time>2022-08-27T18:00:55Z</time>
      </trkpt>
      <trkpt lat="43.412270" lon="-4.742810">
        <ele>71.940</ele>
        <time>2022-08-27T18:00:57Z</time>
      </trkpt>
      <trkpt lat="43.412263" lon="-4.742737">
        <ele>71.934</ele>
        <time>2022-08-27T18:00:59Z</time>
      </trkpt>
      <trkpt lat="43.412253" lon="-4.742665">
        <ele>71.961</ele>
        <time>2022-08-27T18:01:01Z</time>
      </trkpt>
      <trkpt lat="43.412248" lon="-4.742592">
        <ele>72.158</ele>
        <time>2022-08-27T18:01:03Z</time>
      </trkpt>
      <trkpt lat="43.412241" lon="-4.742517">
        <ele>72.248</ele>
        <time>2022-08-27T18:01:05Z</time>
      </trkpt>
      <trkpt lat="43.412238" lon="-4.742444">
        <ele>72.861</ele>
        <time>2022-08-27T18:01:07Z</time>
      </trkpt>
      <trkpt lat="43.412231" lon="-4.742376">
        <ele>73.417</ele>
        <time>2022-08-27T18:01:09Z</time>
      </trkpt>
      <trkpt lat="43.412228" lon="-4.742308">
        <ele>73.709</ele>
        <time>2022-08-27T18:01:11Z</time>
      </trkpt>
      <trkpt lat="43.412223" lon="-4.742236">
        <ele>74.125</ele>
        <time>2022-08-27T18:01:13Z</time>
      </trkpt>
      <trkpt lat="43.412221" lon="-4.742166">
        <ele>74.175</ele>
        <time>2022-08-27T18:01:15Z</time>
      </trkpt>
      <trkpt lat="43.412214" lon="-4.742099">
        <ele>74.556</ele>
        <time>2022-08-27T18:01:17Z</time>
      </trkpt>
      <trkpt lat="43.412211" lon="-4.742031">
        <ele>74.764</ele>
        <time>2022-08-27T18:01:19Z</time>
      </trkpt>
      <trkpt lat="43.412206" lon="-4.741963">
        <ele>75.114</ele>
        <time>2022-08-27T18:01:21Z</time>
      </trkpt>
      <trkpt lat="43.412203" lon="-4.741893">
        <ele>75.830</ele>
        <time>2022-08-27T18:01:23Z</time>
      </trkpt>
      <trkpt lat="43.412201" lon="-4.741823">
        <ele>76.174</ele>
        <time>2022-08-27T18:01:25Z</time>
      </trkpt>
      <trkpt lat="43.412194" lon="-4.741755">
        <ele>76.111</ele>
        <time>2022-08-27T18:01:27Z</time>
      </trkpt>
      <trkpt lat="43.412194" lon="-4.741683">
        <ele>76.128</ele>
        <time>2022-08-27T18:01:29Z</time>
      </trkpt>
      <trkpt lat="43.412192" lon="-4.741608">
        <ele>75.983</ele>
        <time>2022-08-27T18:01:31Z</time>
      </trkpt>
      <trkpt lat="43.412190" lon="-4.741536">
        <ele>75.425</ele>
        <time>2022-08-27T18:01:33Z</time>
      </trkpt>
      <trkpt lat="43.412190" lon="-4.741463">
        <ele>75.417</ele>
        <time>2022-08-27T18:01:35Z</time>
      </trkpt>
      <trkpt lat="43.412193" lon="-4.741388">
        <ele>75.409</ele>
        <time>2022-08-27T18:01:37Z</time>
      </trkpt>
      <trkpt lat="43.412200" lon="-4.741318">
        <ele>75.469</ele>
        <time>2022-08-27T18:01:39Z</time>
      </trkpt>
      <trkpt lat="43.412212" lon="-4.741250">
        <ele>75.589</ele>
        <time>2022-08-27T18:01:41Z</time>
      </trkpt>
      <trkpt lat="43.412227" lon="-4.741182">
        <ele>76.030</ele>
        <time>2022-08-27T18:01:43Z</time>
      </trkpt>
      <trkpt lat="43.412245" lon="-4.741119">
        <ele>76.318</ele>
        <time>2022-08-27T18:01:45Z</time>
      </trkpt>
      <trkpt lat="43.412262" lon="-4.741057">
        <ele>77.448</ele>
        <time>2022-08-27T18:01:47Z</time>
      </trkpt>
      <trkpt lat="43.412277" lon="-4.740992">
        <ele>78.224</ele>
        <time>2022-08-27T18:01:49Z</time>
      </trkpt>
      <trkpt lat="43.412290" lon="-4.740924">
        <ele>79.168</ele>
        <time>2022-08-27T18:01:51Z</time>
      </trkpt>
      <trkpt lat="43.412298" lon="-4.740851">
        <ele>79.945</ele>
        <time>2022-08-27T18:01:53Z</time>
      </trkpt>
      <trkpt lat="43.412303" lon="-4.740779">
        <ele>80.842</ele>
        <time>2022-08-27T18:01:55Z</time>
      </trkpt>
      <trkpt lat="43.412305" lon="-4.740707">
        <ele>81.073</ele>
        <time>2022-08-27T18:01:57Z</time>
      </trkpt>
      <trkpt lat="43.412312" lon="-4.740637">
        <ele>81.285</ele>
        <time>2022-08-27T18:01:59Z</time>
      </trkpt>
      <trkpt lat="43.412314" lon="-4.740564">
        <ele>81.413</ele>
        <time>2022-08-27T18:02:01Z</time>
      </trkpt>
      <trkpt lat="43.412319" lon="-4.740486">
        <ele>81.509</ele>
        <time>2022-08-27T18:02:03Z</time>
      </trkpt>
      <trkpt lat="43.412324" lon="-4.740409">
        <ele>82.788</ele>
        <time>2022-08-27T18:02:05Z</time>
      </trkpt>
      <trkpt lat="43.412336" lon="-4.740337">
        <ele>83.428</ele>
        <time>2022-08-27T18:02:07Z</time>
      </trkpt>
      <trkpt lat="43.412339" lon="-4.740254">
        <ele>83.949</ele>
        <time>2022-08-27T18:02:09Z</time>
      </trkpt>
      <trkpt lat="43.412336" lon="-4.740186">
        <ele>84.267</ele>
        <time>2022-08-27T18:02:11Z</time>
      </trkpt>
      <trkpt lat="43.412373" lon="-4.740118">
        <ele>84.287</ele>
        <time>2022-08-27T18:02:12Z</time>
      </trkpt>
      <trkpt lat="43.412355" lon="-4.740035">
        <ele>84.383</ele>
        <time>2022-08-27T18:02:14Z</time>
      </trkpt>
      <trkpt lat="43.412320" lon="-4.739933">
        <ele>104.547</ele>
        <time>2022-08-27T18:02:17Z</time>
      </trkpt>
      <trkpt lat="43.412283" lon="-4.739806">
        <ele>104.874</ele>
        <time>2022-08-27T18:02:19Z</time>
      </trkpt>
      <trkpt lat="43.412265" lon="-4.739749">
        <ele>101.911</ele>
        <time>2022-08-27T18:02:20Z</time>
      </trkpt>
      <trkpt lat="43.412223" lon="-4.739637">
        <ele>91.558</ele>
        <time>2022-08-27T18:02:22Z</time>
      </trkpt>
      <trkpt lat="43.412173" lon="-4.739540">
        <ele>87.852</ele>
        <time>2022-08-27T18:02:24Z</time>
      </trkpt>
      <trkpt lat="43.412110" lon="-4.739452">
        <ele>85.817</ele>
        <time>2022-08-27T18:02:25Z</time>
      </trkpt>
      <trkpt lat="43.412075" lon="-4.739409">
        <ele>85.309</ele>
        <time>2022-08-27T18:02:26Z</time>
      </trkpt>
      <trkpt lat="43.412010" lon="-4.739322">
        <ele>84.676</ele>
        <time>2022-08-27T18:02:29Z</time>
      </trkpt>
      <trkpt lat="43.411943" lon="-4.739239">
        <ele>84.116</ele>
        <time>2022-08-27T18:02:31Z</time>
      </trkpt>
      <trkpt lat="43.411906" lon="-4.739202">
        <ele>84.027</ele>
        <time>2022-08-27T18:02:32Z</time>
      </trkpt>
      <trkpt lat="43.411823" lon="-4.739130">
        <ele>83.885</ele>
        <time>2022-08-27T18:02:34Z</time>
      </trkpt>
      <trkpt lat="43.411771" lon="-4.739095">
        <ele>83.765</ele>
        <time>2022-08-27T18:02:35Z</time>
      </trkpt>
      <trkpt lat="43.411656" lon="-4.739035">
        <ele>83.511</ele>
        <time>2022-08-27T18:02:37Z</time>
      </trkpt>
      <trkpt lat="43.411518" lon="-4.738973">
        <ele>82.255</ele>
        <time>2022-08-27T18:02:39Z</time>
      </trkpt>
      <trkpt lat="43.411455" lon="-4.738921">
        <ele>81.872</ele>
        <time>2022-08-27T18:02:40Z</time>
      </trkpt>
      <trkpt lat="43.411400" lon="-4.738856">
        <ele>81.359</ele>
        <time>2022-08-27T18:02:41Z</time>
      </trkpt>
      <trkpt lat="43.411352" lon="-4.738766">
        <ele>80.652</ele>
        <time>2022-08-27T18:02:42Z</time>
      </trkpt>
      <trkpt lat="43.411270" lon="-4.738563">
        <ele>78.453</ele>
        <time>2022-08-27T18:02:43Z</time>
      </trkpt>
      <trkpt lat="43.411245" lon="-4.738456">
        <ele>77.508</ele>
        <time>2022-08-27T18:02:45Z</time>
      </trkpt>
      <trkpt lat="43.411225" lon="-4.738353">
        <ele>77.009</ele>
        <time>2022-08-27T18:02:46Z</time>
      </trkpt>
      <trkpt lat="43.411205" lon="-4.738251">
        <ele>76.886</ele>
        <time>2022-08-27T18:02:47Z</time>
      </trkpt>
      <trkpt lat="43.411173" lon="-4.738051">
        <ele>77.186</ele>
        <time>2022-08-27T18:02:49Z</time>
      </trkpt>
      <trkpt lat="43.411166" lon="-4.737859">
        <ele>77.747</ele>
        <time>2022-08-27T18:02:51Z</time>
      </trkpt>
      <trkpt lat="43.411166" lon="-4.737767">
        <ele>78.065</ele>
        <time>2022-08-27T18:02:52Z</time>
      </trkpt>
      <trkpt lat="43.411171" lon="-4.737610">
        <ele>78.065</ele>
        <time>2022-08-27T18:02:54Z</time>
      </trkpt>
      <trkpt lat="43.411171" lon="-4.737542">
        <ele>78.221</ele>
        <time>2022-08-27T18:02:55Z</time>
      </trkpt>
      <trkpt lat="43.411181" lon="-4.737474">
        <ele>78.215</ele>
        <time>2022-08-27T18:02:56Z</time>
      </trkpt>
      <trkpt lat="43.411188" lon="-4.737409">
        <ele>78.732</ele>
        <time>2022-08-27T18:02:57Z</time>
      </trkpt>
      <trkpt lat="43.411191" lon="-4.737342">
        <ele>79.219</ele>
        <time>2022-08-27T18:02:58Z</time>
      </trkpt>
      <trkpt lat="43.411194" lon="-4.737207">
        <ele>80.845</ele>
        <time>2022-08-27T18:03:00Z</time>
      </trkpt>
      <trkpt lat="43.411191" lon="-4.737080">
        <ele>82.147</ele>
        <time>2022-08-27T18:03:02Z</time>
      </trkpt>
      <trkpt lat="43.411183" lon="-4.736955">
        <ele>83.111</ele>
        <time>2022-08-27T18:03:04Z</time>
      </trkpt>
      <trkpt lat="43.411191" lon="-4.736825">
        <ele>83.609</ele>
        <time>2022-08-27T18:03:06Z</time>
      </trkpt>
      <trkpt lat="43.411216" lon="-4.736712">
        <ele>84.855</ele>
        <time>2022-08-27T18:03:08Z</time>
      </trkpt>
      <trkpt lat="43.411258" lon="-4.736622">
        <ele>85.925</ele>
        <time>2022-08-27T18:03:10Z</time>
      </trkpt>
      <trkpt lat="43.411298" lon="-4.736542">
        <ele>87.196</ele>
        <time>2022-08-27T18:03:12Z</time>
      </trkpt>
      <trkpt lat="43.411336" lon="-4.736482">
        <ele>87.574</ele>
        <time>2022-08-27T18:03:14Z</time>
      </trkpt>
      <trkpt lat="43.411363" lon="-4.736417">
        <ele>87.644</ele>
        <time>2022-08-27T18:03:16Z</time>
      </trkpt>
      <trkpt lat="43.411390" lon="-4.736347">
        <ele>87.740</ele>
        <time>2022-08-27T18:03:18Z</time>
      </trkpt>
      <trkpt lat="43.411420" lon="-4.736274">
        <ele>87.744</ele>
        <time>2022-08-27T18:03:20Z</time>
      </trkpt>
      <trkpt lat="43.411447" lon="-4.736191">
        <ele>87.931</ele>
        <time>2022-08-27T18:03:22Z</time>
      </trkpt>
      <trkpt lat="43.411480" lon="-4.736086">
        <ele>88.248</ele>
        <time>2022-08-27T18:03:24Z</time>
      </trkpt>
      <trkpt lat="43.411535" lon="-4.735961">
        <ele>88.237</ele>
        <time>2022-08-27T18:03:26Z</time>
      </trkpt>
      <trkpt lat="43.411570" lon="-4.735904">
        <ele>88.249</ele>
        <time>2022-08-27T18:03:27Z</time>
      </trkpt>
      <trkpt lat="43.411650" lon="-4.735806">
        <ele>87.513</ele>
        <time>2022-08-27T18:03:29Z</time>
      </trkpt>
      <trkpt lat="43.411720" lon="-4.735684">
        <ele>85.209</ele>
        <time>2022-08-27T18:03:31Z</time>
      </trkpt>
      <trkpt lat="43.411773" lon="-4.735547">
        <ele>84.244</ele>
        <time>2022-08-27T18:03:33Z</time>
      </trkpt>
      <trkpt lat="43.411806" lon="-4.735415">
        <ele>82.994</ele>
        <time>2022-08-27T18:03:35Z</time>
      </trkpt>
      <trkpt lat="43.411826" lon="-4.735282">
        <ele>81.925</ele>
        <time>2022-08-27T18:03:37Z</time>
      </trkpt>
      <trkpt lat="43.411843" lon="-4.735215">
        <ele>81.643</ele>
        <time>2022-08-27T18:03:38Z</time>
      </trkpt>
      <trkpt lat="43.411883" lon="-4.735083">
        <ele>81.383</ele>
        <time>2022-08-27T18:03:40Z</time>
      </trkpt>
      <trkpt lat="43.411900" lon="-4.735016">
        <ele>81.319</ele>
        <time>2022-08-27T18:03:41Z</time>
      </trkpt>
      <trkpt lat="43.411917" lon="-4.734881">
        <ele>80.953</ele>
        <time>2022-08-27T18:03:43Z</time>
      </trkpt>
      <trkpt lat="43.411895" lon="-4.734768">
        <ele>80.320</ele>
        <time>2022-08-27T18:03:45Z</time>
      </trkpt>
      <trkpt lat="43.411867" lon="-4.734655">
        <ele>80.147</ele>
        <time>2022-08-27T18:03:47Z</time>
      </trkpt>
      <trkpt lat="43.411850" lon="-4.734592">
        <ele>80.127</ele>
        <time>2022-08-27T18:03:48Z</time>
      </trkpt>
      <trkpt lat="43.411840" lon="-4.734464">
        <ele>80.368</ele>
        <time>2022-08-27T18:03:50Z</time>
      </trkpt>
      <trkpt lat="43.411835" lon="-4.734352">
        <ele>80.714</ele>
        <time>2022-08-27T18:03:52Z</time>
      </trkpt>
      <trkpt lat="43.411857" lon="-4.734235">
        <ele>81.309</ele>
        <time>2022-08-27T18:03:54Z</time>
      </trkpt>
      <trkpt lat="43.411892" lon="-4.734113">
        <ele>81.723</ele>
        <time>2022-08-27T18:03:56Z</time>
      </trkpt>
      <trkpt lat="43.411902" lon="-4.733993">
        <ele>82.393</ele>
        <time>2022-08-27T18:03:58Z</time>
      </trkpt>
      <trkpt lat="43.411894" lon="-4.733891">
        <ele>82.714</ele>
        <time>2022-08-27T18:04:00Z</time>
      </trkpt>
      <trkpt lat="43.411886" lon="-4.733808">
        <ele>83.212</ele>
        <time>2022-08-27T18:04:02Z</time>
      </trkpt>
      <trkpt lat="43.411888" lon="-4.733726">
        <ele>83.912</ele>
        <time>2022-08-27T18:04:04Z</time>
      </trkpt>
      <trkpt lat="43.411898" lon="-4.733628">
        <ele>84.578</ele>
        <time>2022-08-27T18:04:06Z</time>
      </trkpt>
      <trkpt lat="43.411920" lon="-4.733538">
        <ele>85.342</ele>
        <time>2022-08-27T18:04:08Z</time>
      </trkpt>
      <trkpt lat="43.411943" lon="-4.733468">
        <ele>86.739</ele>
        <time>2022-08-27T18:04:10Z</time>
      </trkpt>
      <trkpt lat="43.411978" lon="-4.733390">
        <ele>89.566</ele>
        <time>2022-08-27T18:04:13Z</time>
      </trkpt>
      <trkpt lat="43.412010" lon="-4.733330">
        <ele>91.047</ele>
        <time>2022-08-27T18:04:16Z</time>
      </trkpt>
      <trkpt lat="43.412045" lon="-4.731855">
        <ele>87.329</ele>
        <time>2022-08-27T18:06:32Z</time>
      </trkpt>
      <trkpt lat="43.412057" lon="-4.731790">
        <ele>87.521</ele>
        <time>2022-08-27T18:06:34Z</time>
      </trkpt>
      <trkpt lat="43.412069" lon="-4.731715">
        <ele>87.509</ele>
        <time>2022-08-27T18:06:36Z</time>
      </trkpt>
      <trkpt lat="43.412086" lon="-4.731638">
        <ele>87.565</ele>
        <time>2022-08-27T18:06:38Z</time>
      </trkpt>
      <trkpt lat="43.412103" lon="-4.731560">
        <ele>87.275</ele>
        <time>2022-08-27T18:06:40Z</time>
      </trkpt>
      <trkpt lat="43.412125" lon="-4.731482">
        <ele>86.376</ele>
        <time>2022-08-27T18:06:42Z</time>
      </trkpt>
      <trkpt lat="43.412153" lon="-4.731405">
        <ele>86.234</ele>
        <time>2022-08-27T18:06:44Z</time>
      </trkpt>
      <trkpt lat="43.412173" lon="-4.731328">
        <ele>86.194</ele>
        <time>2022-08-27T18:06:46Z</time>
      </trkpt>
      <trkpt lat="43.412195" lon="-4.731248">
        <ele>86.560</ele>
        <time>2022-08-27T18:06:48Z</time>
      </trkpt>
      <trkpt lat="43.412225" lon="-4.731176">
        <ele>87.184</ele>
        <time>2022-08-27T18:06:50Z</time>
      </trkpt>
      <trkpt lat="43.412248" lon="-4.731123">
        <ele>87.231</ele>
        <time>2022-08-27T18:06:52Z</time>
      </trkpt>
      <trkpt lat="43.412268" lon="-4.731061">
        <ele>87.658</ele>
        <time>2022-08-27T18:06:54Z</time>
      </trkpt>
      <trkpt lat="43.412276" lon="-4.730991">
        <ele>87.824</ele>
        <time>2022-08-27T18:06:56Z</time>
      </trkpt>
      <trkpt lat="43.412298" lon="-4.730908">
        <ele>88.304</ele>
        <time>2022-08-27T18:06:59Z</time>
      </trkpt>
      <trkpt lat="43.412300" lon="-4.730843">
        <ele>89.114</ele>
        <time>2022-08-27T18:07:01Z</time>
      </trkpt>
      <trkpt lat="43.412292" lon="-4.730766">
        <ele>89.409</ele>
        <time>2022-08-27T18:07:03Z</time>
      </trkpt>
      <trkpt lat="43.412284" lon="-4.730693">
        <ele>90.293</ele>
        <time>2022-08-27T18:07:05Z</time>
      </trkpt>
      <trkpt lat="43.412272" lon="-4.730623">
        <ele>90.543</ele>
        <time>2022-08-27T18:07:07Z</time>
      </trkpt>
      <trkpt lat="43.412259" lon="-4.730545">
        <ele>90.654</ele>
        <time>2022-08-27T18:07:09Z</time>
      </trkpt>
      <trkpt lat="43.412269" lon="-4.730467">
        <ele>90.622</ele>
        <time>2022-08-27T18:07:11Z</time>
      </trkpt>
      <trkpt lat="43.412292" lon="-4.730380">
        <ele>90.642</ele>
        <time>2022-08-27T18:07:13Z</time>
      </trkpt>
      <trkpt lat="43.412304" lon="-4.730287">
        <ele>90.868</ele>
        <time>2022-08-27T18:07:15Z</time>
      </trkpt>
      <trkpt lat="43.412322" lon="-4.730197">
        <ele>91.242</ele>
        <time>2022-08-27T18:07:17Z</time>
      </trkpt>
      <trkpt lat="43.412340" lon="-4.730115">
        <ele>91.379</ele>
        <time>2022-08-27T18:07:19Z</time>
      </trkpt>
      <trkpt lat="43.412363" lon="-4.730035">
        <ele>91.366</ele>
        <time>2022-08-27T18:07:21Z</time>
      </trkpt>
      <trkpt lat="43.412380" lon="-4.729952">
        <ele>91.343</ele>
        <time>2022-08-27T18:07:23Z</time>
      </trkpt>
      <trkpt lat="43.412393" lon="-4.729864">
        <ele>91.364</ele>
        <time>2022-08-27T18:07:25Z</time>
      </trkpt>
      <trkpt lat="43.412413" lon="-4.729772">
        <ele>91.210</ele>
        <time>2022-08-27T18:07:27Z</time>
      </trkpt>
      <trkpt lat="43.412435" lon="-4.729667">
        <ele>91.309</ele>
        <time>2022-08-27T18:07:29Z</time>
      </trkpt>
      <trkpt lat="43.412458" lon="-4.729555">
        <ele>91.325</ele>
        <time>2022-08-27T18:07:31Z</time>
      </trkpt>
      <trkpt lat="43.412476" lon="-4.729448">
        <ele>91.885</ele>
        <time>2022-08-27T18:07:33Z</time>
      </trkpt>
      <trkpt lat="43.412498" lon="-4.729335">
        <ele>92.326</ele>
        <time>2022-08-27T18:07:35Z</time>
      </trkpt>
      <trkpt lat="43.412525" lon="-4.729218">
        <ele>92.664</ele>
        <time>2022-08-27T18:07:37Z</time>
      </trkpt>
      <trkpt lat="43.412562" lon="-4.729115">
        <ele>93.354</ele>
        <time>2022-08-27T18:07:39Z</time>
      </trkpt>
      <trkpt lat="43.412605" lon="-4.729023">
        <ele>94.440</ele>
        <time>2022-08-27T18:07:41Z</time>
      </trkpt>
      <trkpt lat="43.412658" lon="-4.728940">
        <ele>95.794</ele>
        <time>2022-08-27T18:07:43Z</time>
      </trkpt>
      <trkpt lat="43.412705" lon="-4.728852">
        <ele>96.251</ele>
        <time>2022-08-27T18:07:45Z</time>
      </trkpt>
      <trkpt lat="43.412752" lon="-4.728782">
        <ele>96.268</ele>
        <time>2022-08-27T18:07:47Z</time>
      </trkpt>
      <trkpt lat="43.412794" lon="-4.728705">
        <ele>95.213</ele>
        <time>2022-08-27T18:07:49Z</time>
      </trkpt>
      <trkpt lat="43.412831" lon="-4.728608">
        <ele>94.243</ele>
        <time>2022-08-27T18:07:51Z</time>
      </trkpt>
      <trkpt lat="43.412883" lon="-4.728511">
        <ele>93.507</ele>
        <time>2022-08-27T18:07:53Z</time>
      </trkpt>
      <trkpt lat="43.412933" lon="-4.728424">
        <ele>93.109</ele>
        <time>2022-08-27T18:07:55Z</time>
      </trkpt>
      <trkpt lat="43.412981" lon="-4.728341">
        <ele>92.522</ele>
        <time>2022-08-27T18:07:57Z</time>
      </trkpt>
      <trkpt lat="43.413024" lon="-4.728251">
        <ele>91.762</ele>
        <time>2022-08-27T18:07:59Z</time>
      </trkpt>
      <trkpt lat="43.413054" lon="-4.728154">
        <ele>91.643</ele>
        <time>2022-08-27T18:08:01Z</time>
      </trkpt>
      <trkpt lat="43.413077" lon="-4.728057">
        <ele>91.611</ele>
        <time>2022-08-27T18:08:03Z</time>
      </trkpt>
      <trkpt lat="43.413097" lon="-4.727959">
        <ele>91.741</ele>
        <time>2022-08-27T18:08:05Z</time>
      </trkpt>
      <trkpt lat="43.413110" lon="-4.727854">
        <ele>92.327</ele>
        <time>2022-08-27T18:08:07Z</time>
      </trkpt>
      <trkpt lat="43.413125" lon="-4.727752">
        <ele>93.171</ele>
        <time>2022-08-27T18:08:09Z</time>
      </trkpt>
      <trkpt lat="43.413145" lon="-4.727647">
        <ele>93.898</ele>
        <time>2022-08-27T18:08:11Z</time>
      </trkpt>
      <trkpt lat="43.413163" lon="-4.727542">
        <ele>94.045</ele>
        <time>2022-08-27T18:08:13Z</time>
      </trkpt>
      <trkpt lat="43.413180" lon="-4.727437">
        <ele>94.123</ele>
        <time>2022-08-27T18:08:15Z</time>
      </trkpt>
      <trkpt lat="43.413188" lon="-4.727334">
        <ele>94.083</ele>
        <time>2022-08-27T18:08:17Z</time>
      </trkpt>
      <trkpt lat="43.413188" lon="-4.727236">
        <ele>93.811</ele>
        <time>2022-08-27T18:08:19Z</time>
      </trkpt>
      <trkpt lat="43.413180" lon="-4.727153">
        <ele>93.709</ele>
        <time>2022-08-27T18:08:21Z</time>
      </trkpt>
      <trkpt lat="43.413167" lon="-4.727086">
        <ele>93.723</ele>
        <time>2022-08-27T18:08:23Z</time>
      </trkpt>
      <trkpt lat="43.413144" lon="-4.727006">
        <ele>94.153</ele>
        <time>2022-08-27T18:08:25Z</time>
      </trkpt>
      <trkpt lat="43.413112" lon="-4.726941">
        <ele>95.544</ele>
        <time>2022-08-27T18:08:28Z</time>
      </trkpt>
      <trkpt lat="43.413079" lon="-4.726876">
        <ele>96.322</ele>
        <time>2022-08-27T18:08:30Z</time>
      </trkpt>
      <trkpt lat="43.413067" lon="-4.726816">
        <ele>97.992</ele>
        <time>2022-08-27T18:08:32Z</time>
      </trkpt>
      <trkpt lat="43.413045" lon="-4.726751">
        <ele>98.368</ele>
        <time>2022-08-27T18:08:34Z</time>
      </trkpt>
      <trkpt lat="43.413023" lon="-4.726681">
        <ele>98.342</ele>
        <time>2022-08-27T18:08:36Z</time>
      </trkpt>
      <trkpt lat="43.412998" lon="-4.726599">
        <ele>98.339</ele>
        <time>2022-08-27T18:08:38Z</time>
      </trkpt>
      <trkpt lat="43.412981" lon="-4.726531">
        <ele>98.196</ele>
        <time>2022-08-27T18:08:40Z</time>
      </trkpt>
      <trkpt lat="43.412961" lon="-4.726461">
        <ele>97.713</ele>
        <time>2022-08-27T18:08:42Z</time>
      </trkpt>
      <trkpt lat="43.412938" lon="-4.726406">
        <ele>97.743</ele>
        <time>2022-08-27T18:08:44Z</time>
      </trkpt>
      <trkpt lat="43.412910" lon="-4.726339">
        <ele>97.707</ele>
        <time>2022-08-27T18:08:47Z</time>
      </trkpt>
      <trkpt lat="43.412885" lon="-4.726259">
        <ele>99.309</ele>
        <time>2022-08-27T18:08:50Z</time>
      </trkpt>
      <trkpt lat="43.412868" lon="-4.726186">
        <ele>100.222</ele>
        <time>2022-08-27T18:08:53Z</time>
      </trkpt>
      <trkpt lat="43.412838" lon="-4.726113">
        <ele>101.392</ele>
        <time>2022-08-27T18:08:56Z</time>
      </trkpt>
      <trkpt lat="43.412813" lon="-4.726056">
        <ele>102.843</ele>
        <time>2022-08-27T18:08:59Z</time>
      </trkpt>
      <trkpt lat="43.412781" lon="-4.725989">
        <ele>104.321</ele>
        <time>2022-08-27T18:09:02Z</time>
      </trkpt>
      <trkpt lat="43.412748" lon="-4.725927">
        <ele>104.731</ele>
        <time>2022-08-27T18:09:05Z</time>
      </trkpt>
      <trkpt lat="43.412721" lon="-4.725870">
        <ele>104.967</ele>
        <time>2022-08-27T18:09:08Z</time>
      </trkpt>
      <trkpt lat="43.412681" lon="-4.725807">
        <ele>105.351</ele>
        <time>2022-08-27T18:09:11Z</time>
      </trkpt>
      <trkpt lat="43.412649" lon="-4.725739">
        <ele>105.418</ele>
        <time>2022-08-27T18:09:14Z</time>
      </trkpt>
      <trkpt lat="43.412619" lon="-4.725692">
        <ele>105.925</ele>
        <time>2022-08-27T18:09:16Z</time>
      </trkpt>
      <trkpt lat="43.412616" lon="-4.725607">
        <ele>106.321</ele>
        <time>2022-08-27T18:09:19Z</time>
      </trkpt>
      <trkpt lat="43.412633" lon="-4.725532">
        <ele>108.441</ele>
        <time>2022-08-27T18:09:22Z</time>
      </trkpt>
      <trkpt lat="43.412666" lon="-4.725454">
        <ele>111.105</ele>
        <time>2022-08-27T18:09:25Z</time>
      </trkpt>
      <trkpt lat="43.412671" lon="-4.725371">
        <ele>113.209</ele>
        <time>2022-08-27T18:09:28Z</time>
      </trkpt>
      <trkpt lat="43.412666" lon="-4.725309">
        <ele>114.523</ele>
        <time>2022-08-27T18:09:30Z</time>
      </trkpt>
      <trkpt lat="43.412674" lon="-4.725222">
        <ele>115.973</ele>
        <time>2022-08-27T18:09:33Z</time>
      </trkpt>
      <trkpt lat="43.412677" lon="-4.725147">
        <ele>116.764</ele>
        <time>2022-08-27T18:09:36Z</time>
      </trkpt>
      <trkpt lat="43.412674" lon="-4.725069">
        <ele>117.592</ele>
        <time>2022-08-27T18:09:39Z</time>
      </trkpt>
      <trkpt lat="43.412669" lon="-4.724991">
        <ele>118.092</ele>
        <time>2022-08-27T18:09:42Z</time>
      </trkpt>
      <trkpt lat="43.412666" lon="-4.724909">
        <ele>118.528</ele>
        <time>2022-08-27T18:09:45Z</time>
      </trkpt>
      <trkpt lat="43.412663" lon="-4.724837">
        <ele>119.362</ele>
        <time>2022-08-27T18:09:48Z</time>
      </trkpt>
      <trkpt lat="43.412643" lon="-4.724775">
        <ele>120.629</ele>
        <time>2022-08-27T18:09:51Z</time>
      </trkpt>
      <trkpt lat="43.412631" lon="-4.724693">
        <ele>122.826</ele>
        <time>2022-08-27T18:09:54Z</time>
      </trkpt>
      <trkpt lat="43.412611" lon="-4.724606">
        <ele>124.571</ele>
        <time>2022-08-27T18:09:57Z</time>
      </trkpt>
      <trkpt lat="43.412601" lon="-4.724511">
        <ele>125.541</ele>
        <time>2022-08-27T18:10:00Z</time>
      </trkpt>
      <trkpt lat="43.412589" lon="-4.724438">
        <ele>126.615</ele>
        <time>2022-08-27T18:10:03Z</time>
      </trkpt>
      <trkpt lat="43.412577" lon="-4.724360">
        <ele>127.409</ele>
        <time>2022-08-27T18:10:06Z</time>
      </trkpt>
      <trkpt lat="43.412557" lon="-4.724278">
        <ele>127.948</ele>
        <time>2022-08-27T18:10:09Z</time>
      </trkpt>
      <trkpt lat="43.412540" lon="-4.724200">
        <ele>128.038</ele>
        <time>2022-08-27T18:10:12Z</time>
      </trkpt>
      <trkpt lat="43.412537" lon="-4.724123">
        <ele>128.279</ele>
        <time>2022-08-27T18:10:15Z</time>
      </trkpt>
      <trkpt lat="43.412550" lon="-4.724041">
        <ele>128.427</ele>
        <time>2022-08-27T18:10:18Z</time>
      </trkpt>
      <trkpt lat="43.412565" lon="-4.723976">
        <ele>128.877</ele>
        <time>2022-08-27T18:10:21Z</time>
      </trkpt>
      <trkpt lat="43.412592" lon="-4.723913">
        <ele>129.123</ele>
        <time>2022-08-27T18:10:24Z</time>
      </trkpt>
      <trkpt lat="43.412580" lon="-4.723843">
        <ele>129.677</ele>
        <time>2022-08-27T18:10:27Z</time>
      </trkpt>
      <trkpt lat="43.412573" lon="-4.723776">
        <ele>129.674</ele>
        <time>2022-08-27T18:10:30Z</time>
      </trkpt>
      <trkpt lat="43.412576" lon="-4.723709">
        <ele>129.641</ele>
        <time>2022-08-27T18:10:33Z</time>
      </trkpt>
      <trkpt lat="43.412571" lon="-4.723641">
        <ele>129.596</ele>
        <time>2022-08-27T18:10:36Z</time>
      </trkpt>
      <trkpt lat="43.412581" lon="-4.723576">
        <ele>129.531</ele>
        <time>2022-08-27T18:10:39Z</time>
      </trkpt>
      <trkpt lat="43.412584" lon="-4.723504">
        <ele>129.524</ele>
        <time>2022-08-27T18:10:42Z</time>
      </trkpt>
      <trkpt lat="43.412581" lon="-4.723439">
        <ele>129.509</ele>
        <time>2022-08-27T18:10:45Z</time>
      </trkpt>
      <trkpt lat="43.412576" lon="-4.723374">
        <ele>130.040</ele>
        <time>2022-08-27T18:10:48Z</time>
      </trkpt>
      <trkpt lat="43.412564" lon="-4.723289">
        <ele>130.420</ele>
        <time>2022-08-27T18:10:51Z</time>
      </trkpt>
      <trkpt lat="43.412536" lon="-4.723231">
        <ele>130.591</ele>
        <time>2022-08-27T18:10:53Z</time>
      </trkpt>
      <trkpt lat="43.412514" lon="-4.723158">
        <ele>130.989</ele>
        <time>2022-08-27T18:10:56Z</time>
      </trkpt>
      <trkpt lat="43.412501" lon="-4.723091">
        <ele>130.989</ele>
        <time>2022-08-27T18:10:59Z</time>
      </trkpt>
      <trkpt lat="43.412498" lon="-4.723024">
        <ele>130.935</ele>
        <time>2022-08-27T18:11:02Z</time>
      </trkpt>
      <trkpt lat="43.412498" lon="-4.722956">
        <ele>130.339</ele>
        <time>2022-08-27T18:11:05Z</time>
      </trkpt>
      <trkpt lat="43.412486" lon="-4.722874">
        <ele>130.376</ele>
        <time>2022-08-27T18:11:09Z</time>
      </trkpt>
      <trkpt lat="43.412486" lon="-4.722794">
        <ele>130.373</ele>
        <time>2022-08-27T18:11:12Z</time>
      </trkpt>
      <trkpt lat="43.412461" lon="-4.722736">
        <ele>130.553</ele>
        <time>2022-08-27T18:11:15Z</time>
      </trkpt>
      <trkpt lat="43.412453" lon="-4.722664">
        <ele>131.804</ele>
        <time>2022-08-27T18:11:18Z</time>
      </trkpt>
      <trkpt lat="43.412421" lon="-4.722606">
        <ele>132.314</ele>
        <time>2022-08-27T18:11:21Z</time>
      </trkpt>
      <trkpt lat="43.412378" lon="-4.722556">
        <ele>132.709</ele>
        <time>2022-08-27T18:11:24Z</time>
      </trkpt>
      <trkpt lat="43.412331" lon="-4.722503">
        <ele>133.536</ele>
        <time>2022-08-27T18:11:28Z</time>
      </trkpt>
      <trkpt lat="43.412294" lon="-4.722440">
        <ele>134.536</ele>
        <time>2022-08-27T18:11:31Z</time>
      </trkpt>
      <trkpt lat="43.412262" lon="-4.722375">
        <ele>135.737</ele>
        <time>2022-08-27T18:11:34Z</time>
      </trkpt>
      <trkpt lat="43.412245" lon="-4.722298">
        <ele>136.695</ele>
        <time>2022-08-27T18:11:37Z</time>
      </trkpt>
      <trkpt lat="43.412233" lon="-4.722230">
        <ele>136.975</ele>
        <time>2022-08-27T18:11:40Z</time>
      </trkpt>
      <trkpt lat="43.412210" lon="-4.722165">
        <ele>137.061</ele>
        <time>2022-08-27T18:11:43Z</time>
      </trkpt>
      <trkpt lat="43.412200" lon="-4.722093">
        <ele>137.025</ele>
        <time>2022-08-27T18:11:46Z</time>
      </trkpt>
      <trkpt lat="43.412168" lon="-4.722011">
        <ele>137.232</ele>
        <time>2022-08-27T18:11:49Z</time>
      </trkpt>
      <trkpt lat="43.412146" lon="-4.721946">
        <ele>137.339</ele>
        <time>2022-08-27T18:11:51Z</time>
      </trkpt>
      <trkpt lat="43.412111" lon="-4.721893">
        <ele>137.684</ele>
        <time>2022-08-27T18:11:53Z</time>
      </trkpt>
      <trkpt lat="43.412058" lon="-4.721858">
        <ele>139.107</ele>
        <time>2022-08-27T18:11:56Z</time>
      </trkpt>
      <trkpt lat="43.412013" lon="-4.721828">
        <ele>140.717</ele>
        <time>2022-08-27T18:11:59Z</time>
      </trkpt>
      <trkpt lat="43.411953" lon="-4.721820">
        <ele>144.009</ele>
        <time>2022-08-27T18:12:04Z</time>
      </trkpt>
      <trkpt lat="43.411906" lon="-4.721820">
        <ele>145.959</ele>
        <time>2022-08-27T18:12:07Z</time>
      </trkpt>
      <trkpt lat="43.411856" lon="-4.721842">
        <ele>147.299</ele>
        <time>2022-08-27T18:12:10Z</time>
      </trkpt>
      <trkpt lat="43.411808" lon="-4.721869">
        <ele>148.170</ele>
        <time>2022-08-27T18:12:13Z</time>
      </trkpt>
      <trkpt lat="43.411763" lon="-4.721901">
        <ele>151.058</ele>
        <time>2022-08-27T18:12:16Z</time>
      </trkpt>
      <trkpt lat="43.411706" lon="-4.721914">
        <ele>153.488</ele>
        <time>2022-08-27T18:12:20Z</time>
      </trkpt>
      <trkpt lat="43.411661" lon="-4.721936">
        <ele>154.314</ele>
        <time>2022-08-27T18:12:23Z</time>
      </trkpt>
      <trkpt lat="43.411614" lon="-4.721964">
        <ele>155.398</ele>
        <time>2022-08-27T18:12:27Z</time>
      </trkpt>
      <trkpt lat="43.411557" lon="-4.721969">
        <ele>155.535</ele>
        <time>2022-08-27T18:12:30Z</time>
      </trkpt>
      <trkpt lat="43.411509" lon="-4.721954">
        <ele>155.612</ele>
        <time>2022-08-27T18:12:33Z</time>
      </trkpt>
      <trkpt lat="43.411449" lon="-4.721921">
        <ele>156.371</ele>
        <time>2022-08-27T18:12:36Z</time>
      </trkpt>
      <trkpt lat="43.411404" lon="-4.721874">
        <ele>156.941</ele>
        <time>2022-08-27T18:12:39Z</time>
      </trkpt>
      <trkpt lat="43.411364" lon="-4.721819">
        <ele>157.215</ele>
        <time>2022-08-27T18:12:42Z</time>
      </trkpt>
      <trkpt lat="43.411341" lon="-4.721757">
        <ele>157.309</ele>
        <time>2022-08-27T18:12:45Z</time>
      </trkpt>
      <trkpt lat="43.411343" lon="-4.721687">
        <ele>157.348</ele>
        <time>2022-08-27T18:12:48Z</time>
      </trkpt>
      <trkpt lat="43.411336" lon="-4.721614">
        <ele>157.258</ele>
        <time>2022-08-27T18:12:51Z</time>
      </trkpt>
      <trkpt lat="43.411344" lon="-4.721536">
        <ele>156.639</ele>
        <time>2022-08-27T18:12:54Z</time>
      </trkpt>
      <trkpt lat="43.411349" lon="-4.721458">
        <ele>155.167</ele>
        <time>2022-08-27T18:12:57Z</time>
      </trkpt>
      <trkpt lat="43.411356" lon="-4.721375">
        <ele>154.517</ele>
        <time>2022-08-27T18:13:00Z</time>
      </trkpt>
      <trkpt lat="43.411361" lon="-4.721303">
        <ele>154.233</ele>
        <time>2022-08-27T18:13:03Z</time>
      </trkpt>
      <trkpt lat="43.411354" lon="-4.721226">
        <ele>154.147</ele>
        <time>2022-08-27T18:13:06Z</time>
      </trkpt>
      <trkpt lat="43.411327" lon="-4.721144">
        <ele>154.154</ele>
        <time>2022-08-27T18:13:09Z</time>
      </trkpt>
      <trkpt lat="43.411305" lon="-4.721061">
        <ele>154.551</ele>
        <time>2022-08-27T18:13:12Z</time>
      </trkpt>
      <trkpt lat="43.411288" lon="-4.720996">
        <ele>155.186</ele>
        <time>2022-08-27T18:13:15Z</time>
      </trkpt>
      <trkpt lat="43.411280" lon="-4.720929">
        <ele>155.860</ele>
        <time>2022-08-27T18:13:18Z</time>
      </trkpt>
      <trkpt lat="43.411277" lon="-4.720847">
        <ele>156.426</ele>
        <time>2022-08-27T18:13:21Z</time>
      </trkpt>
      <trkpt lat="43.411292" lon="-4.720767">
        <ele>157.509</ele>
        <time>2022-08-27T18:13:24Z</time>
      </trkpt>
      <trkpt lat="43.411294" lon="-4.720689">
        <ele>158.129</ele>
        <time>2022-08-27T18:13:27Z</time>
      </trkpt>
      <trkpt lat="43.411299" lon="-4.720609">
        <ele>158.139</ele>
        <time>2022-08-27T18:13:30Z</time>
      </trkpt>
      <trkpt lat="43.411284" lon="-4.720549">
        <ele>158.220</ele>
        <time>2022-08-27T18:13:33Z</time>
      </trkpt>
      <trkpt lat="43.411319" lon="-4.720477">
        <ele>158.558</ele>
        <time>2022-08-27T18:13:39Z</time>
      </trkpt>
      <trkpt lat="43.411287" lon="-4.720415">
        <ele>158.448</ele>
        <time>2022-08-27T18:18:11Z</time>
      </trkpt>
      <trkpt lat="43.411285" lon="-4.720333">
        <ele>158.484</ele>
        <time>2022-08-27T18:18:16Z</time>
      </trkpt>
      <trkpt lat="43.411243" lon="-4.720295">
        <ele>158.418</ele>
        <time>2022-08-27T18:18:19Z</time>
      </trkpt>
      <trkpt lat="43.411206" lon="-4.720243">
        <ele>158.425</ele>
        <time>2022-08-27T18:18:22Z</time>
      </trkpt>
      <trkpt lat="43.411174" lon="-4.720181">
        <ele>158.432</ele>
        <time>2022-08-27T18:18:25Z</time>
      </trkpt>
      <trkpt lat="43.411161" lon="-4.720118">
        <ele>162.725</ele>
        <time>2022-08-27T18:18:29Z</time>
      </trkpt>
      <trkpt lat="43.411123" lon="-4.720050">
        <ele>162.626</ele>
        <time>2022-08-27T18:18:33Z</time>
      </trkpt>
      <trkpt lat="43.411086" lon="-4.719985">
        <ele>162.408</ele>
        <time>2022-08-27T18:18:36Z</time>
      </trkpt>
      <trkpt lat="43.411049" lon="-4.719925">
        <ele>162.409</ele>
        <time>2022-08-27T18:18:39Z</time>
      </trkpt>
      <trkpt lat="43.411014" lon="-4.719860">
        <ele>162.763</ele>
        <time>2022-08-27T18:18:42Z</time>
      </trkpt>
      <trkpt lat="43.410982" lon="-4.719793">
        <ele>162.893</ele>
        <time>2022-08-27T18:18:45Z</time>
      </trkpt>
      <trkpt lat="43.410950" lon="-4.719721">
        <ele>163.164</ele>
        <time>2022-08-27T18:18:48Z</time>
      </trkpt>
      <trkpt lat="43.410917" lon="-4.719653">
        <ele>163.572</ele>
        <time>2022-08-27T18:18:51Z</time>
      </trkpt>
      <trkpt lat="43.410885" lon="-4.719580">
        <ele>163.692</ele>
        <time>2022-08-27T18:18:54Z</time>
      </trkpt>
      <trkpt lat="43.410852" lon="-4.719500">
        <ele>163.678</ele>
        <time>2022-08-27T18:18:57Z</time>
      </trkpt>
      <trkpt lat="43.410830" lon="-4.719415">
        <ele>163.942</ele>
        <time>2022-08-27T18:19:00Z</time>
      </trkpt>
      <trkpt lat="43.410807" lon="-4.719332">
        <ele>164.159</ele>
        <time>2022-08-27T18:19:03Z</time>
      </trkpt>
      <trkpt lat="43.410779" lon="-4.719262">
        <ele>164.796</ele>
        <time>2022-08-27T18:19:06Z</time>
      </trkpt>
      <trkpt lat="43.410761" lon="-4.719205">
        <ele>165.369</ele>
        <time>2022-08-27T18:19:08Z</time>
      </trkpt>
      <trkpt lat="43.410736" lon="-4.719122">
        <ele>166.304</ele>
        <time>2022-08-27T18:19:11Z</time>
      </trkpt>
      <trkpt lat="43.410713" lon="-4.719035">
        <ele>166.324</ele>
        <time>2022-08-27T18:19:14Z</time>
      </trkpt>
      <trkpt lat="43.410685" lon="-4.718955">
        <ele>166.409</ele>
        <time>2022-08-27T18:19:17Z</time>
      </trkpt>
      <trkpt lat="43.410657" lon="-4.718878">
        <ele>166.317</ele>
        <time>2022-08-27T18:19:20Z</time>
      </trkpt>
      <trkpt lat="43.410630" lon="-4.718795">
        <ele>166.157</ele>
        <time>2022-08-27T18:19:23Z</time>
      </trkpt>
      <trkpt lat="43.410587" lon="-4.718730">
        <ele>166.128</ele>
        <time>2022-08-27T18:19:26Z</time>
      </trkpt>
      <trkpt lat="43.410537" lon="-4.718677">
        <ele>166.196</ele>
        <time>2022-08-27T18:19:29Z</time>
      </trkpt>
      <trkpt lat="43.410479" lon="-4.718645">
        <ele>166.476</ele>
        <time>2022-08-27T18:19:32Z</time>
      </trkpt>
      <trkpt lat="43.410419" lon="-4.718610">
        <ele>167.242</ele>
        <time>2022-08-27T18:19:35Z</time>
      </trkpt>
      <trkpt lat="43.410364" lon="-4.718563">
        <ele>167.436</ele>
        <time>2022-08-27T18:19:38Z</time>
      </trkpt>
      <trkpt lat="43.410319" lon="-4.718505">
        <ele>167.793</ele>
        <time>2022-08-27T18:19:41Z</time>
      </trkpt>
      <trkpt lat="43.410294" lon="-4.718453">
        <ele>167.820</ele>
        <time>2022-08-27T18:19:43Z</time>
      </trkpt>
      <trkpt lat="43.410272" lon="-4.718396">
        <ele>167.993</ele>
        <time>2022-08-27T18:19:45Z</time>
      </trkpt>
      <trkpt lat="43.410262" lon="-4.718333">
        <ele>168.065</ele>
        <time>2022-08-27T18:19:47Z</time>
      </trkpt>
      <trkpt lat="43.410250" lon="-4.718273">
        <ele>168.121</ele>
        <time>2022-08-27T18:19:49Z</time>
      </trkpt>
      <trkpt lat="43.410243" lon="-4.718185">
        <ele>169.409</ele>
        <time>2022-08-27T18:19:52Z</time>
      </trkpt>
      <trkpt lat="43.410248" lon="-4.718113">
        <ele>170.730</ele>
        <time>2022-08-27T18:19:55Z</time>
      </trkpt>
      <trkpt lat="43.410263" lon="-4.718040">
        <ele>171.870</ele>
        <time>2022-08-27T18:19:58Z</time>
      </trkpt>
      <trkpt lat="43.410266" lon="-4.717955">
        <ele>172.751</ele>
        <time>2022-08-27T18:20:01Z</time>
      </trkpt>
      <trkpt lat="43.410258" lon="-4.717868">
        <ele>174.119</ele>
        <time>2022-08-27T18:20:04Z</time>
      </trkpt>
      <trkpt lat="43.410261" lon="-4.717783">
        <ele>175.699</ele>
        <time>2022-08-27T18:20:07Z</time>
      </trkpt>
      <trkpt lat="43.410253" lon="-4.717718">
        <ele>175.725</ele>
        <time>2022-08-27T18:20:09Z</time>
      </trkpt>
      <trkpt lat="43.410236" lon="-4.717658">
        <ele>175.849</ele>
        <time>2022-08-27T18:20:11Z</time>
      </trkpt>
      <trkpt lat="43.410194" lon="-4.717581">
        <ele>176.086</ele>
        <time>2022-08-27T18:20:14Z</time>
      </trkpt>
      <trkpt lat="43.410171" lon="-4.717521">
        <ele>177.023</ele>
        <time>2022-08-27T18:20:16Z</time>
      </trkpt>
      <trkpt lat="43.410151" lon="-4.717433">
        <ele>178.178</ele>
        <time>2022-08-27T18:20:19Z</time>
      </trkpt>
      <trkpt lat="43.410133" lon="-4.717345">
        <ele>179.633</ele>
        <time>2022-08-27T18:20:22Z</time>
      </trkpt>
      <trkpt lat="43.410120" lon="-4.717285">
        <ele>180.226</ele>
        <time>2022-08-27T18:20:24Z</time>
      </trkpt>
      <trkpt lat="43.410107" lon="-4.717218">
        <ele>180.709</ele>
        <time>2022-08-27T18:20:26Z</time>
      </trkpt>
      <trkpt lat="43.410092" lon="-4.717158">
        <ele>181.058</ele>
        <time>2022-08-27T18:20:28Z</time>
      </trkpt>
      <trkpt lat="43.410077" lon="-4.717098">
        <ele>181.398</ele>
        <time>2022-08-27T18:20:30Z</time>
      </trkpt>
      <trkpt lat="43.410062" lon="-4.717033">
        <ele>181.639</ele>
        <time>2022-08-27T18:20:32Z</time>
      </trkpt>
      <trkpt lat="43.410045" lon="-4.716966">
        <ele>181.887</ele>
        <time>2022-08-27T18:20:34Z</time>
      </trkpt>
      <trkpt lat="43.410033" lon="-4.716901">
        <ele>181.937</ele>
        <time>2022-08-27T18:20:36Z</time>
      </trkpt>
      <trkpt lat="43.410021" lon="-4.716833">
        <ele>182.323</ele>
        <time>2022-08-27T18:20:38Z</time>
      </trkpt>
      <trkpt lat="43.410008" lon="-4.716766">
        <ele>182.447</ele>
        <time>2022-08-27T18:20:40Z</time>
      </trkpt>
      <trkpt lat="43.409993" lon="-4.716676">
        <ele>182.514</ele>
        <time>2022-08-27T18:20:43Z</time>
      </trkpt>
      <trkpt lat="43.409991" lon="-4.716589">
        <ele>183.431</ele>
        <time>2022-08-27T18:20:46Z</time>
      </trkpt>
      <trkpt lat="43.409976" lon="-4.716511">
        <ele>183.892</ele>
        <time>2022-08-27T18:20:49Z</time>
      </trkpt>
      <trkpt lat="43.409958" lon="-4.716426">
        <ele>184.373</ele>
        <time>2022-08-27T18:20:52Z</time>
      </trkpt>
      <trkpt lat="43.409945" lon="-4.716343">
        <ele>185.320</ele>
        <time>2022-08-27T18:20:56Z</time>
      </trkpt>
      <trkpt lat="43.409932" lon="-4.716263">
        <ele>185.309</ele>
        <time>2022-08-27T18:20:59Z</time>
      </trkpt>
      <trkpt lat="43.409914" lon="-4.716180">
        <ele>185.330</ele>
        <time>2022-08-27T18:21:02Z</time>
      </trkpt>
      <trkpt lat="43.409894" lon="-4.716097">
        <ele>185.250</ele>
        <time>2022-08-27T18:21:05Z</time>
      </trkpt>
      <trkpt lat="43.409874" lon="-4.716020">
        <ele>185.031</ele>
        <time>2022-08-27T18:21:08Z</time>
      </trkpt>
      <trkpt lat="43.409857" lon="-4.715942">
        <ele>184.949</ele>
        <time>2022-08-27T18:21:11Z</time>
      </trkpt>
      <trkpt lat="43.409835" lon="-4.715857">
        <ele>184.719</ele>
        <time>2022-08-27T18:21:14Z</time>
      </trkpt>
      <trkpt lat="43.409817" lon="-4.715774">
        <ele>184.695</ele>
        <time>2022-08-27T18:21:17Z</time>
      </trkpt>
      <trkpt lat="43.409804" lon="-4.715694">
        <ele>184.649</ele>
        <time>2022-08-27T18:21:20Z</time>
      </trkpt>
      <trkpt lat="43.409784" lon="-4.715609">
        <ele>184.786</ele>
        <time>2022-08-27T18:21:23Z</time>
      </trkpt>
      <trkpt lat="43.409771" lon="-4.715547">
        <ele>184.843</ele>
        <time>2022-08-27T18:21:25Z</time>
      </trkpt>
      <trkpt lat="43.409759" lon="-4.715485">
        <ele>185.125</ele>
        <time>2022-08-27T18:21:27Z</time>
      </trkpt>
      <trkpt lat="43.409759" lon="-4.715415">
        <ele>185.526</ele>
        <time>2022-08-27T18:21:29Z</time>
      </trkpt>
      <trkpt lat="43.409747" lon="-4.715348">
        <ele>186.008</ele>
        <time>2022-08-27T18:21:31Z</time>
      </trkpt>
      <trkpt lat="43.409739" lon="-4.715280">
        <ele>186.309</ele>
        <time>2022-08-27T18:21:33Z</time>
      </trkpt>
      <trkpt lat="43.409729" lon="-4.715190">
        <ele>186.443</ele>
        <time>2022-08-27T18:21:36Z</time>
      </trkpt>
      <trkpt lat="43.409722" lon="-4.715128">
        <ele>186.483</ele>
        <time>2022-08-27T18:21:38Z</time>
      </trkpt>
      <trkpt lat="43.409704" lon="-4.715040">
        <ele>186.444</ele>
        <time>2022-08-27T18:21:40Z</time>
      </trkpt>
      <trkpt lat="43.409699" lon="-4.714957">
        <ele>186.472</ele>
        <time>2022-08-27T18:21:44Z</time>
      </trkpt>
      <trkpt lat="43.409689" lon="-4.714885">
        <ele>186.552</ele>
        <time>2022-08-27T18:21:47Z</time>
      </trkpt>
      <trkpt lat="43.409671" lon="-4.714808">
        <ele>187.018</ele>
        <time>2022-08-27T18:21:51Z</time>
      </trkpt>
      <trkpt lat="43.409664" lon="-4.714740">
        <ele>187.222</ele>
        <time>2022-08-27T18:21:54Z</time>
      </trkpt>
      <trkpt lat="43.409661" lon="-4.714655">
        <ele>187.229</ele>
        <time>2022-08-27T18:21:58Z</time>
      </trkpt>
      <trkpt lat="43.409668" lon="-4.714583">
        <ele>187.436</ele>
        <time>2022-08-27T18:22:01Z</time>
      </trkpt>
      <trkpt lat="43.409656" lon="-4.714516">
        <ele>187.828</ele>
        <time>2022-08-27T18:22:05Z</time>
      </trkpt>
      <trkpt lat="43.409688" lon="-4.714421">
        <ele>188.189</ele>
        <time>2022-08-27T18:22:13Z</time>
      </trkpt>
      <trkpt lat="43.409676" lon="-4.714349">
        <ele>189.417</ele>
        <time>2022-08-27T18:22:17Z</time>
      </trkpt>
      <trkpt lat="43.409694" lon="-4.714289">
        <ele>190.509</ele>
        <time>2022-08-27T18:22:21Z</time>
      </trkpt>
      <trkpt lat="43.409776" lon="-4.714376">
        <ele>192.613</ele>
        <time>2022-08-27T18:22:49Z</time>
      </trkpt>
      <trkpt lat="43.409734" lon="-4.714351">
        <ele>191.893</ele>
        <time>2022-08-27T18:23:24Z</time>
      </trkpt>
      <trkpt lat="43.409704" lon="-4.714266">
        <ele>191.884</ele>
        <time>2022-08-27T18:23:31Z</time>
      </trkpt>
      <trkpt lat="43.409686" lon="-4.714151">
        <ele>191.872</ele>
        <time>2022-08-27T18:23:43Z</time>
      </trkpt>
      <trkpt lat="43.409706" lon="-4.714068">
        <ele>191.872</ele>
        <time>2022-08-27T18:23:46Z</time>
      </trkpt>
      <trkpt lat="43.409718" lon="-4.713991">
        <ele>192.168</ele>
        <time>2022-08-27T18:23:49Z</time>
      </trkpt>
      <trkpt lat="43.409718" lon="-4.713908">
        <ele>192.222</ele>
        <time>2022-08-27T18:23:52Z</time>
      </trkpt>
      <trkpt lat="43.409726" lon="-4.713825">
        <ele>192.269</ele>
        <time>2022-08-27T18:23:56Z</time>
      </trkpt>
      <trkpt lat="43.409714" lon="-4.713637">
        <ele>194.046</ele>
        <time>2022-08-27T18:25:11Z</time>
      </trkpt>
      <trkpt lat="43.409721" lon="-4.713567">
        <ele>194.084</ele>
        <time>2022-08-27T18:25:16Z</time>
      </trkpt>
      <trkpt lat="43.409733" lon="-4.713507">
        <ele>194.007</ele>
        <time>2022-08-27T18:25:20Z</time>
      </trkpt>
      <trkpt lat="43.409756" lon="-4.713434">
        <ele>194.017</ele>
        <time>2022-08-27T18:25:24Z</time>
      </trkpt>
      <trkpt lat="43.409769" lon="-4.713362">
        <ele>194.709</ele>
        <time>2022-08-27T18:25:28Z</time>
      </trkpt>
      <trkpt lat="43.409772" lon="-4.713295">
        <ele>194.749</ele>
        <time>2022-08-27T18:25:31Z</time>
      </trkpt>
      <trkpt lat="43.409772" lon="-4.713228">
        <ele>194.719</ele>
        <time>2022-08-27T18:25:34Z</time>
      </trkpt>
      <trkpt lat="43.409775" lon="-4.713161">
        <ele>194.730</ele>
        <time>2022-08-27T18:25:37Z</time>
      </trkpt>
      <trkpt lat="43.409783" lon="-4.713081">
        <ele>194.568</ele>
        <time>2022-08-27T18:25:40Z</time>
      </trkpt>
      <trkpt lat="43.409800" lon="-4.713003">
        <ele>192.998</ele>
        <time>2022-08-27T18:25:43Z</time>
      </trkpt>
      <trkpt lat="43.409822" lon="-4.712946">
        <ele>191.264</ele>
        <time>2022-08-27T18:25:46Z</time>
      </trkpt>
      <trkpt lat="43.409830" lon="-4.712873">
        <ele>190.028</ele>
        <time>2022-08-27T18:25:50Z</time>
      </trkpt>
      <trkpt lat="43.409857" lon="-4.712803">
        <ele>188.565</ele>
        <time>2022-08-27T18:25:56Z</time>
      </trkpt>
      <trkpt lat="43.409880" lon="-4.712680">
        <ele>187.632</ele>
        <time>2022-08-27T18:26:05Z</time>
      </trkpt>
      <trkpt lat="43.409888" lon="-4.712593">
        <ele>187.576</ele>
        <time>2022-08-27T18:26:07Z</time>
      </trkpt>
      <trkpt lat="43.409895" lon="-4.712500">
        <ele>187.190</ele>
        <time>2022-08-27T18:26:09Z</time>
      </trkpt>
      <trkpt lat="43.409907" lon="-4.712408">
        <ele>187.019</ele>
        <time>2022-08-27T18:26:11Z</time>
      </trkpt>
      <trkpt lat="43.409925" lon="-4.712320">
        <ele>185.809</ele>
        <time>2022-08-27T18:26:13Z</time>
      </trkpt>
      <trkpt lat="43.409947" lon="-4.712258">
        <ele>185.958</ele>
        <time>2022-08-27T18:26:15Z</time>
      </trkpt>
      <trkpt lat="43.409965" lon="-4.712193">
        <ele>185.968</ele>
        <time>2022-08-27T18:26:18Z</time>
      </trkpt>
      <trkpt lat="43.409987" lon="-4.712128">
        <ele>186.129</ele>
        <time>2022-08-27T18:26:21Z</time>
      </trkpt>
      <trkpt lat="43.409999" lon="-4.712046">
        <ele>186.987</ele>
        <time>2022-08-27T18:26:24Z</time>
      </trkpt>
      <trkpt lat="43.410016" lon="-4.711963">
        <ele>187.047</ele>
        <time>2022-08-27T18:26:27Z</time>
      </trkpt>
      <trkpt lat="43.410036" lon="-4.711895">
        <ele>187.033</ele>
        <time>2022-08-27T18:26:30Z</time>
      </trkpt>
      <trkpt lat="43.410028" lon="-4.711817">
        <ele>186.387</ele>
        <time>2022-08-27T18:26:54Z</time>
      </trkpt>
      <trkpt lat="43.410033" lon="-4.711892">
        <ele>190.914</ele>
        <time>2022-08-27T18:32:18Z</time>
      </trkpt>
      <trkpt lat="43.410015" lon="-4.712024">
        <ele>183.011</ele>
        <time>2022-08-27T18:34:51Z</time>
      </trkpt>
      <trkpt lat="43.410052" lon="-4.711976">
        <ele>183.033</ele>
        <time>2022-08-27T18:36:04Z</time>
      </trkpt>
      <trkpt lat="43.410089" lon="-4.711934">
        <ele>187.223</ele>
        <time>2022-08-27T18:39:16Z</time>
      </trkpt>
      <trkpt lat="43.410016" lon="-4.712047">
        <ele>187.215</ele>
        <time>2022-08-27T18:40:47Z</time>
      </trkpt>
      <trkpt lat="43.410006" lon="-4.712117">
        <ele>187.209</ele>
        <time>2022-08-27T18:40:52Z</time>
      </trkpt>
      <trkpt lat="43.409984" lon="-4.712187">
        <ele>186.784</ele>
        <time>2022-08-27T18:40:56Z</time>
      </trkpt>
      <trkpt lat="43.409936" lon="-4.712342">
        <ele>186.794</ele>
        <time>2022-08-27T18:41:13Z</time>
      </trkpt>
      <trkpt lat="43.409909" lon="-4.712440">
        <ele>189.095</ele>
        <time>2022-08-27T18:41:15Z</time>
      </trkpt>
      <trkpt lat="43.409892" lon="-4.712545">
        <ele>189.223</ele>
        <time>2022-08-27T18:41:17Z</time>
      </trkpt>
      <trkpt lat="43.409879" lon="-4.712652">
        <ele>189.233</ele>
        <time>2022-08-27T18:41:19Z</time>
      </trkpt>
      <trkpt lat="43.409867" lon="-4.712762">
        <ele>186.759</ele>
        <time>2022-08-27T18:41:21Z</time>
      </trkpt>
      <trkpt lat="43.409854" lon="-4.712865">
        <ele>186.073</ele>
        <time>2022-08-27T18:41:23Z</time>
      </trkpt>
      <trkpt lat="43.409836" lon="-4.712977">
        <ele>185.830</ele>
        <time>2022-08-27T18:41:25Z</time>
      </trkpt>
      <trkpt lat="43.409821" lon="-4.713092">
        <ele>185.877</ele>
        <time>2022-08-27T18:41:27Z</time>
      </trkpt>
      <trkpt lat="43.409806" lon="-4.713189">
        <ele>186.163</ele>
        <time>2022-08-27T18:41:29Z</time>
      </trkpt>
      <trkpt lat="43.409803" lon="-4.713256">
        <ele>186.344</ele>
        <time>2022-08-27T18:41:31Z</time>
      </trkpt>
      <trkpt lat="43.409796" lon="-4.713338">
        <ele>186.718</ele>
        <time>2022-08-27T18:41:34Z</time>
      </trkpt>
      <trkpt lat="43.409791" lon="-4.713445">
        <ele>187.709</ele>
        <time>2022-08-27T18:41:44Z</time>
      </trkpt>
      <trkpt lat="43.409774" lon="-4.713517">
        <ele>188.077</ele>
        <time>2022-08-27T18:41:47Z</time>
      </trkpt>
      <trkpt lat="43.409762" lon="-4.713580">
        <ele>188.097</ele>
        <time>2022-08-27T18:41:49Z</time>
      </trkpt>
      <trkpt lat="43.409747" lon="-4.713648">
        <ele>188.058</ele>
        <time>2022-08-27T18:41:51Z</time>
      </trkpt>
      <trkpt lat="43.409735" lon="-4.713708">
        <ele>189.746</ele>
        <time>2022-08-27T18:41:53Z</time>
      </trkpt>
      <trkpt lat="43.409722" lon="-4.713771">
        <ele>192.386</ele>
        <time>2022-08-27T18:41:55Z</time>
      </trkpt>
      <trkpt lat="43.409725" lon="-4.713839">
        <ele>193.212</ele>
        <time>2022-08-27T18:41:57Z</time>
      </trkpt>
      <trkpt lat="43.409713" lon="-4.713911">
        <ele>194.656</ele>
        <time>2022-08-27T18:42:01Z</time>
      </trkpt>
      <trkpt lat="43.409713" lon="-4.713983">
        <ele>195.353</ele>
        <time>2022-08-27T18:42:04Z</time>
      </trkpt>
      <trkpt lat="43.409720" lon="-4.714073">
        <ele>195.910</ele>
        <time>2022-08-27T18:42:07Z</time>
      </trkpt>
      <trkpt lat="43.409715" lon="-4.714153">
        <ele>196.387</ele>
        <time>2022-08-27T18:42:09Z</time>
      </trkpt>
      <trkpt lat="43.409710" lon="-4.714226">
        <ele>196.342</ele>
        <time>2022-08-27T18:42:11Z</time>
      </trkpt>
      <trkpt lat="43.409703" lon="-4.714288">
        <ele>196.326</ele>
        <time>2022-08-27T18:42:13Z</time>
      </trkpt>
      <trkpt lat="43.409698" lon="-4.714376">
        <ele>195.409</ele>
        <time>2022-08-27T18:42:16Z</time>
      </trkpt>
      <trkpt lat="43.409688" lon="-4.714444">
        <ele>194.589</ele>
        <time>2022-08-27T18:42:19Z</time>
      </trkpt>
      <trkpt lat="43.409681" lon="-4.714511">
        <ele>193.919</ele>
        <time>2022-08-27T18:42:22Z</time>
      </trkpt>
      <trkpt lat="43.409693" lon="-4.714584">
        <ele>194.280</ele>
        <time>2022-08-27T18:42:26Z</time>
      </trkpt>
      <trkpt lat="43.409690" lon="-4.714657">
        <ele>194.668</ele>
        <time>2022-08-27T18:42:32Z</time>
      </trkpt>
      <trkpt lat="43.409625" lon="-4.714655">
        <ele>195.038</ele>
        <time>2022-08-27T18:43:02Z</time>
      </trkpt>
      <trkpt lat="43.409570" lon="-4.714647">
        <ele>195.074</ele>
        <time>2022-08-27T18:43:04Z</time>
      </trkpt>
      <trkpt lat="43.409493" lon="-4.714627">
        <ele>195.058</ele>
        <time>2022-08-27T18:43:06Z</time>
      </trkpt>
      <trkpt lat="43.409408" lon="-4.714657">
        <ele>195.025</ele>
        <time>2022-08-27T18:43:08Z</time>
      </trkpt>
      <trkpt lat="43.409323" lon="-4.714762">
        <ele>194.132</ele>
        <time>2022-08-27T18:43:10Z</time>
      </trkpt>
      <trkpt lat="43.409256" lon="-4.714927">
        <ele>193.831</ele>
        <time>2022-08-27T18:43:12Z</time>
      </trkpt>
      <trkpt lat="43.409226" lon="-4.715022">
        <ele>193.361</ele>
        <time>2022-08-27T18:43:13Z</time>
      </trkpt>
      <trkpt lat="43.409163" lon="-4.715202">
        <ele>191.407</ele>
        <time>2022-08-27T18:43:15Z</time>
      </trkpt>
      <trkpt lat="43.409130" lon="-4.715295">
        <ele>190.809</ele>
        <time>2022-08-27T18:43:16Z</time>
      </trkpt>
      <trkpt lat="43.409048" lon="-4.715492">
        <ele>189.794</ele>
        <time>2022-08-27T18:43:18Z</time>
      </trkpt>
      <trkpt lat="43.408961" lon="-4.715699">
        <ele>187.724</ele>
        <time>2022-08-27T18:43:20Z</time>
      </trkpt>
      <trkpt lat="43.408886" lon="-4.715906">
        <ele>185.915</ele>
        <time>2022-08-27T18:43:22Z</time>
      </trkpt>
      <trkpt lat="43.408856" lon="-4.716006">
        <ele>185.113</ele>
        <time>2022-08-27T18:43:23Z</time>
      </trkpt>
      <trkpt lat="43.408801" lon="-4.716213">
        <ele>183.343</ele>
        <time>2022-08-27T18:43:25Z</time>
      </trkpt>
      <trkpt lat="43.408763" lon="-4.716443">
        <ele>181.369</ele>
        <time>2022-08-27T18:43:27Z</time>
      </trkpt>
      <trkpt lat="43.408756" lon="-4.716563">
        <ele>180.333</ele>
        <time>2022-08-27T18:43:28Z</time>
      </trkpt>
      <trkpt lat="43.408734" lon="-4.716801">
        <ele>177.710</ele>
        <time>2022-08-27T18:43:30Z</time>
      </trkpt>
      <trkpt lat="43.408716" lon="-4.716928">
        <ele>175.747</ele>
        <time>2022-08-27T18:43:31Z</time>
      </trkpt>
      <trkpt lat="43.408646" lon="-4.717175">
        <ele>171.262</ele>
        <time>2022-08-27T18:43:33Z</time>
      </trkpt>
      <trkpt lat="43.408606" lon="-4.717288">
        <ele>169.683</ele>
        <time>2022-08-27T18:43:34Z</time>
      </trkpt>
      <trkpt lat="43.408559" lon="-4.717403">
        <ele>167.911</ele>
        <time>2022-08-27T18:43:35Z</time>
      </trkpt>
      <trkpt lat="43.408512" lon="-4.717521">
        <ele>166.109</ele>
        <time>2022-08-27T18:43:36Z</time>
      </trkpt>
      <trkpt lat="43.408435" lon="-4.717774">
        <ele>161.957</ele>
        <time>2022-08-27T18:43:38Z</time>
      </trkpt>
      <trkpt lat="43.408400" lon="-4.718029">
        <ele>158.717</ele>
        <time>2022-08-27T18:43:40Z</time>
      </trkpt>
      <trkpt lat="43.408322" lon="-4.718246">
        <ele>157.268</ele>
        <time>2022-08-27T18:43:42Z</time>
      </trkpt>
      <trkpt lat="43.408265" lon="-4.718344">
        <ele>156.836</ele>
        <time>2022-08-27T18:43:43Z</time>
      </trkpt>
      <trkpt lat="43.408132" lon="-4.718532">
        <ele>155.116</ele>
        <time>2022-08-27T18:43:45Z</time>
      </trkpt>
      <trkpt lat="43.407994" lon="-4.718725">
        <ele>153.672</ele>
        <time>2022-08-27T18:43:47Z</time>
      </trkpt>
      <trkpt lat="43.407864" lon="-4.718927">
        <ele>152.426</ele>
        <time>2022-08-27T18:43:49Z</time>
      </trkpt>
      <trkpt lat="43.407771" lon="-4.719174">
        <ele>150.453</ele>
        <time>2022-08-27T18:43:51Z</time>
      </trkpt>
      <trkpt lat="43.407704" lon="-4.719447">
        <ele>147.870</ele>
        <time>2022-08-27T18:43:53Z</time>
      </trkpt>
      <trkpt lat="43.407614" lon="-4.719727">
        <ele>145.979</ele>
        <time>2022-08-27T18:43:55Z</time>
      </trkpt>
      <trkpt lat="43.407564" lon="-4.719859">
        <ele>145.305</ele>
        <time>2022-08-27T18:43:56Z</time>
      </trkpt>
      <trkpt lat="43.407452" lon="-4.720112">
        <ele>143.925</ele>
        <time>2022-08-27T18:43:58Z</time>
      </trkpt>
      <trkpt lat="43.407394" lon="-4.720240">
        <ele>143.209</ele>
        <time>2022-08-27T18:43:59Z</time>
      </trkpt>
      <trkpt lat="43.407269" lon="-4.720502">
        <ele>141.788</ele>
        <time>2022-08-27T18:44:01Z</time>
      </trkpt>
      <trkpt lat="43.407144" lon="-4.720777">
        <ele>140.378</ele>
        <time>2022-08-27T18:44:03Z</time>
      </trkpt>
      <trkpt lat="43.407081" lon="-4.720907">
        <ele>138.989</ele>
        <time>2022-08-27T18:44:04Z</time>
      </trkpt>
      <trkpt lat="43.407013" lon="-4.721034">
        <ele>138.897</ele>
        <time>2022-08-27T18:44:05Z</time>
      </trkpt>
      <trkpt lat="43.406953" lon="-4.721166">
        <ele>138.557</ele>
        <time>2022-08-27T18:44:06Z</time>
      </trkpt>
      <trkpt lat="43.406843" lon="-4.721419">
        <ele>137.883</ele>
        <time>2022-08-27T18:44:08Z</time>
      </trkpt>
      <trkpt lat="43.406790" lon="-4.721546">
        <ele>137.127</ele>
        <time>2022-08-27T18:44:09Z</time>
      </trkpt>
      <trkpt lat="43.406737" lon="-4.721671">
        <ele>136.234</ele>
        <time>2022-08-27T18:44:10Z</time>
      </trkpt>
      <trkpt lat="43.406629" lon="-4.721919">
        <ele>133.951</ele>
        <time>2022-08-27T18:44:12Z</time>
      </trkpt>
      <trkpt lat="43.406522" lon="-4.722147">
        <ele>132.846</ele>
        <time>2022-08-27T18:44:13Z</time>
      </trkpt>
      <trkpt lat="43.406470" lon="-4.722260">
        <ele>132.588</ele>
        <time>2022-08-27T18:44:15Z</time>
      </trkpt>
      <trkpt lat="43.406418" lon="-4.722377">
        <ele>132.316</ele>
        <time>2022-08-27T18:44:16Z</time>
      </trkpt>
      <trkpt lat="43.406316" lon="-4.722619">
        <ele>131.609</ele>
        <time>2022-08-27T18:44:18Z</time>
      </trkpt>
      <trkpt lat="43.406271" lon="-4.722749">
        <ele>131.135</ele>
        <time>2022-08-27T18:44:19Z</time>
      </trkpt>
      <trkpt lat="43.406191" lon="-4.723014">
        <ele>129.435</ele>
        <time>2022-08-27T18:44:21Z</time>
      </trkpt>
      <trkpt lat="43.406106" lon="-4.723284">
        <ele>128.486</ele>
        <time>2022-08-27T18:44:23Z</time>
      </trkpt>
      <trkpt lat="43.406064" lon="-4.723416">
        <ele>128.074</ele>
        <time>2022-08-27T18:44:24Z</time>
      </trkpt>
      <trkpt lat="43.405977" lon="-4.723666">
        <ele>126.644</ele>
        <time>2022-08-27T18:44:26Z</time>
      </trkpt>
      <trkpt lat="43.405937" lon="-4.723784">
        <ele>126.380</ele>
        <time>2022-08-27T18:44:27Z</time>
      </trkpt>
      <trkpt lat="43.405897" lon="-4.723896">
        <ele>125.784</ele>
        <time>2022-08-27T18:44:28Z</time>
      </trkpt>
      <trkpt lat="43.405824" lon="-4.724103">
        <ele>125.031</ele>
        <time>2022-08-27T18:44:30Z</time>
      </trkpt>
      <trkpt lat="43.405759" lon="-4.724306">
        <ele>124.368</ele>
        <time>2022-08-27T18:44:32Z</time>
      </trkpt>
      <trkpt lat="43.405699" lon="-4.724504">
        <ele>123.475</ele>
        <time>2022-08-27T18:44:34Z</time>
      </trkpt>
      <trkpt lat="43.405652" lon="-4.724681">
        <ele>122.628</ele>
        <time>2022-08-27T18:44:36Z</time>
      </trkpt>
      <trkpt lat="43.405634" lon="-4.724759">
        <ele>122.420</ele>
        <time>2022-08-27T18:44:37Z</time>
      </trkpt>
      <trkpt lat="43.405617" lon="-4.724832">
        <ele>122.209</ele>
        <time>2022-08-27T18:44:38Z</time>
      </trkpt>
      <trkpt lat="43.405602" lon="-4.724897">
        <ele>122.138</ele>
        <time>2022-08-27T18:44:39Z</time>
      </trkpt>
      <trkpt lat="43.405579" lon="-4.725012">
        <ele>122.068</ele>
        <time>2022-08-27T18:44:41Z</time>
      </trkpt>
      <trkpt lat="43.405556" lon="-4.725122">
        <ele>122.029</ele>
        <time>2022-08-27T18:44:43Z</time>
      </trkpt>
      <trkpt lat="43.405531" lon="-4.725212">
        <ele>122.047</ele>
        <time>2022-08-27T18:44:45Z</time>
      </trkpt>
      <trkpt lat="43.405501" lon="-4.725274">
        <ele>121.947</ele>
        <time>2022-08-27T18:44:47Z</time>
      </trkpt>
      <trkpt lat="43.405456" lon="-4.725341">
        <ele>121.623</ele>
        <time>2022-08-27T18:44:50Z</time>
      </trkpt>
      <trkpt lat="43.405408" lon="-4.725286">
        <ele>121.627</ele>
        <time>2022-08-27T18:44:53Z</time>
      </trkpt>
      <trkpt lat="43.405400" lon="-4.725221">
        <ele>121.634</ele>
        <time>2022-08-27T18:44:55Z</time>
      </trkpt>
      <trkpt lat="43.405398" lon="-4.725134">
        <ele>121.521</ele>
        <time>2022-08-27T18:44:58Z</time>
      </trkpt>
      <trkpt lat="43.405395" lon="-4.725061">
        <ele>121.488</ele>
        <time>2022-08-27T18:45:01Z</time>
      </trkpt>
      <trkpt lat="43.405407" lon="-4.724949">
        <ele>120.324</ele>
        <time>2022-08-27T18:45:49Z</time>
      </trkpt>
      <trkpt lat="43.405404" lon="-4.724854">
        <ele>120.326</ele>
        <time>2022-08-27T18:45:52Z</time>
      </trkpt>
      <trkpt lat="43.405376" lon="-4.724801">
        <ele>120.309</ele>
        <time>2022-08-27T18:45:54Z</time>
      </trkpt>
      <trkpt lat="43.405299" lon="-4.724839">
        <ele>120.329</ele>
        <time>2022-08-27T18:45:56Z</time>
      </trkpt>
      <trkpt lat="43.405216" lon="-4.724884">
        <ele>121.859</ele>
        <time>2022-08-27T18:45:58Z</time>
      </trkpt>
      <trkpt lat="43.405118" lon="-4.724922">
        <ele>121.810</ele>
        <time>2022-08-27T18:45:59Z</time>
      </trkpt>
      <trkpt lat="43.405065" lon="-4.724939">
        <ele>121.898</ele>
        <time>2022-08-27T18:46:01Z</time>
      </trkpt>
      <trkpt lat="43.404960" lon="-4.724971">
        <ele>121.518</ele>
        <time>2022-08-27T18:46:03Z</time>
      </trkpt>
      <trkpt lat="43.404913" lon="-4.724986">
        <ele>121.244</ele>
        <time>2022-08-27T18:46:04Z</time>
      </trkpt>
      <trkpt lat="43.404823" lon="-4.725013">
        <ele>120.228</ele>
        <time>2022-08-27T18:46:06Z</time>
      </trkpt>
      <trkpt lat="43.404741" lon="-4.725035">
        <ele>119.915</ele>
        <time>2022-08-27T18:46:08Z</time>
      </trkpt>
      <trkpt lat="43.404669" lon="-4.725047">
        <ele>119.882</ele>
        <time>2022-08-27T18:46:10Z</time>
      </trkpt>
      <trkpt lat="43.404609" lon="-4.725052">
        <ele>119.884</ele>
        <time>2022-08-27T18:46:12Z</time>
      </trkpt>
      <trkpt lat="43.404551" lon="-4.725057">
        <ele>119.707</ele>
        <time>2022-08-27T18:46:14Z</time>
      </trkpt>
      <trkpt lat="43.404494" lon="-4.725065">
        <ele>119.717</ele>
        <time>2022-08-27T18:46:16Z</time>
      </trkpt>
      <trkpt lat="43.404434" lon="-4.725087">
        <ele>119.509</ele>
        <time>2022-08-27T18:46:18Z</time>
      </trkpt>
      <trkpt lat="43.404377" lon="-4.725112">
        <ele>119.589</ele>
        <time>2022-08-27T18:46:19Z</time>
      </trkpt>
      <trkpt lat="43.404319" lon="-4.725122">
        <ele>119.589</ele>
        <time>2022-08-27T18:46:22Z</time>
      </trkpt>
      <trkpt lat="43.404259" lon="-4.725139">
        <ele>119.040</ele>
        <time>2022-08-27T18:46:24Z</time>
      </trkpt>
      <trkpt lat="43.404197" lon="-4.725171">
        <ele>118.748</ele>
        <time>2022-08-27T18:46:26Z</time>
      </trkpt>
      <trkpt lat="43.404144" lon="-4.725209">
        <ele>117.928</ele>
        <time>2022-08-27T18:46:27Z</time>
      </trkpt>
      <trkpt lat="43.404092" lon="-4.725219">
        <ele>117.644</ele>
        <time>2022-08-27T18:46:30Z</time>
      </trkpt>
      <trkpt lat="43.404039" lon="-4.725189">
        <ele>117.258</ele>
        <time>2022-08-27T18:46:32Z</time>
      </trkpt>
      <trkpt lat="43.403991" lon="-4.725124">
        <ele>116.595</ele>
        <time>2022-08-27T18:46:34Z</time>
      </trkpt>
      <trkpt lat="43.403941" lon="-4.725049">
        <ele>116.282</ele>
        <time>2022-08-27T18:46:36Z</time>
      </trkpt>
      <trkpt lat="43.403891" lon="-4.724977">
        <ele>115.039</ele>
        <time>2022-08-27T18:46:38Z</time>
      </trkpt>
      <trkpt lat="43.403831" lon="-4.724912">
        <ele>113.801</ele>
        <time>2022-08-27T18:46:40Z</time>
      </trkpt>
      <trkpt lat="43.403768" lon="-4.724852">
        <ele>112.821</ele>
        <time>2022-08-27T18:46:42Z</time>
      </trkpt>
      <trkpt lat="43.403715" lon="-4.724775">
        <ele>112.509</ele>
        <time>2022-08-27T18:46:44Z</time>
      </trkpt>
      <trkpt lat="43.403672" lon="-4.724680">
        <ele>112.324</ele>
        <time>2022-08-27T18:46:46Z</time>
      </trkpt>
      <trkpt lat="43.403615" lon="-4.724590">
        <ele>112.294</ele>
        <time>2022-08-27T18:46:48Z</time>
      </trkpt>
      <trkpt lat="43.403542" lon="-4.724523">
        <ele>111.755</ele>
        <time>2022-08-27T18:46:50Z</time>
      </trkpt>
      <trkpt lat="43.403459" lon="-4.724485">
        <ele>111.433</ele>
        <time>2022-08-27T18:46:52Z</time>
      </trkpt>
      <trkpt lat="43.403376" lon="-4.724452">
        <ele>111.363</ele>
        <time>2022-08-27T18:46:54Z</time>
      </trkpt>
      <trkpt lat="43.403288" lon="-4.724415">
        <ele>111.129</ele>
        <time>2022-08-27T18:46:56Z</time>
      </trkpt>
      <trkpt lat="43.403201" lon="-4.724373">
        <ele>110.853</ele>
        <time>2022-08-27T18:46:58Z</time>
      </trkpt>
      <trkpt lat="43.403126" lon="-4.724333">
        <ele>110.730</ele>
        <time>2022-08-27T18:47:00Z</time>
      </trkpt>
      <trkpt lat="43.403058" lon="-4.724285">
        <ele>110.597</ele>
        <time>2022-08-27T18:47:02Z</time>
      </trkpt>
      <trkpt lat="43.402990" lon="-4.724232">
        <ele>110.539</ele>
        <time>2022-08-27T18:47:04Z</time>
      </trkpt>
      <trkpt lat="43.402927" lon="-4.724165">
        <ele>110.501</ele>
        <time>2022-08-27T18:47:06Z</time>
      </trkpt>
      <trkpt lat="43.402874" lon="-4.724072">
        <ele>110.021</ele>
        <time>2022-08-27T18:47:08Z</time>
      </trkpt>
      <trkpt lat="43.402817" lon="-4.723985">
        <ele>109.409</ele>
        <time>2022-08-27T18:47:10Z</time>
      </trkpt>
      <trkpt lat="43.402765" lon="-4.723903">
        <ele>108.614</ele>
        <time>2022-08-27T18:47:12Z</time>
      </trkpt>
      <trkpt lat="43.402710" lon="-4.723830">
        <ele>108.284</ele>
        <time>2022-08-27T18:47:14Z</time>
      </trkpt>
      <trkpt lat="43.402658" lon="-4.723773">
        <ele>108.275</ele>
        <time>2022-08-27T18:47:16Z</time>
      </trkpt>
      <trkpt lat="43.402596" lon="-4.723716">
        <ele>108.543</ele>
        <time>2022-08-27T18:47:18Z</time>
      </trkpt>
      <trkpt lat="43.402534" lon="-4.723663">
        <ele>109.383</ele>
        <time>2022-08-27T18:47:20Z</time>
      </trkpt>
      <trkpt lat="43.402482" lon="-4.723623">
        <ele>110.049</ele>
        <time>2022-08-27T18:47:22Z</time>
      </trkpt>
      <trkpt lat="43.402435" lon="-4.723585">
        <ele>110.443</ele>
        <time>2022-08-27T18:47:24Z</time>
      </trkpt>
      <trkpt lat="43.402392" lon="-4.723557">
        <ele>110.970</ele>
        <time>2022-08-27T18:47:26Z</time>
      </trkpt>
      <trkpt lat="43.402345" lon="-4.723532">
        <ele>111.237</ele>
        <time>2022-08-27T18:47:27Z</time>
      </trkpt>
      <trkpt lat="43.402297" lon="-4.723510">
        <ele>111.712</ele>
        <time>2022-08-27T18:47:30Z</time>
      </trkpt>
      <trkpt lat="43.402252" lon="-4.723487">
        <ele>112.532</ele>
        <time>2022-08-27T18:47:31Z</time>
      </trkpt>
      <trkpt lat="43.402209" lon="-4.723469">
        <ele>113.705</ele>
        <time>2022-08-27T18:47:34Z</time>
      </trkpt>
      <trkpt lat="43.402162" lon="-4.723469">
        <ele>114.309</ele>
        <time>2022-08-27T18:47:36Z</time>
      </trkpt>
      <trkpt lat="43.402099" lon="-4.723471">
        <ele>115.332</ele>
        <time>2022-08-27T18:47:39Z</time>
      </trkpt>
      <trkpt lat="43.402041" lon="-4.723474">
        <ele>116.412</ele>
        <time>2022-08-27T18:47:43Z</time>
      </trkpt>
      <trkpt lat="43.401979" lon="-4.723486">
        <ele>116.693</ele>
        <time>2022-08-27T18:47:46Z</time>
      </trkpt>
      <trkpt lat="43.401927" lon="-4.723519">
        <ele>117.111</ele>
        <time>2022-08-27T18:47:49Z</time>
      </trkpt>
      <trkpt lat="43.401884" lon="-4.723542">
        <ele>117.521</ele>
        <time>2022-08-27T18:47:51Z</time>
      </trkpt>
      <trkpt lat="43.401824" lon="-4.723575">
        <ele>117.927</ele>
        <time>2022-08-27T18:47:54Z</time>
      </trkpt>
      <trkpt lat="43.401761" lon="-4.723615">
        <ele>117.931</ele>
        <time>2022-08-27T18:47:57Z</time>
      </trkpt>
      <trkpt lat="43.401713" lon="-4.723642">
        <ele>117.968</ele>
        <time>2022-08-27T18:47:58Z</time>
      </trkpt>
      <trkpt lat="43.401665" lon="-4.723667">
        <ele>117.715</ele>
        <time>2022-08-27T18:48:01Z</time>
      </trkpt>
      <trkpt lat="43.401608" lon="-4.723700">
        <ele>117.112</ele>
        <time>2022-08-27T18:48:03Z</time>
      </trkpt>
      <trkpt lat="43.401543" lon="-4.723732">
        <ele>116.832</ele>
        <time>2022-08-27T18:48:05Z</time>
      </trkpt>
      <trkpt lat="43.401475" lon="-4.723770">
        <ele>116.605</ele>
        <time>2022-08-27T18:48:07Z</time>
      </trkpt>
      <trkpt lat="43.401407" lon="-4.723817">
        <ele>116.609</ele>
        <time>2022-08-27T18:48:09Z</time>
      </trkpt>
      <trkpt lat="43.401337" lon="-4.723862">
        <ele>116.682</ele>
        <time>2022-08-27T18:48:11Z</time>
      </trkpt>
      <trkpt lat="43.401265" lon="-4.723907">
        <ele>116.622</ele>
        <time>2022-08-27T18:48:13Z</time>
      </trkpt>
      <trkpt lat="43.401202" lon="-4.723957">
        <ele>115.953</ele>
        <time>2022-08-27T18:48:15Z</time>
      </trkpt>
      <trkpt lat="43.401147" lon="-4.724010">
        <ele>115.791</ele>
        <time>2022-08-27T18:48:17Z</time>
      </trkpt>
      <trkpt lat="43.401080" lon="-4.724080">
        <ele>115.471</ele>
        <time>2022-08-27T18:48:19Z</time>
      </trkpt>
      <trkpt lat="43.401008" lon="-4.724167">
        <ele>115.017</ele>
        <time>2022-08-27T18:48:21Z</time>
      </trkpt>
      <trkpt lat="43.400968" lon="-4.724209">
        <ele>115.051</ele>
        <time>2022-08-27T18:48:22Z</time>
      </trkpt>
      <trkpt lat="43.400878" lon="-4.724292">
        <ele>114.988</ele>
        <time>2022-08-27T18:48:24Z</time>
      </trkpt>
      <trkpt lat="43.400776" lon="-4.724360">
        <ele>114.955</ele>
        <time>2022-08-27T18:48:26Z</time>
      </trkpt>
      <trkpt lat="43.400726" lon="-4.724383">
        <ele>114.537</ele>
        <time>2022-08-27T18:48:27Z</time>
      </trkpt>
      <trkpt lat="43.400674" lon="-4.724395">
        <ele>114.249</ele>
        <time>2022-08-27T18:48:28Z</time>
      </trkpt>
      <trkpt lat="43.400624" lon="-4.724395">
        <ele>113.813</ele>
        <time>2022-08-27T18:48:29Z</time>
      </trkpt>
      <trkpt lat="43.400574" lon="-4.724387">
        <ele>113.809</ele>
        <time>2022-08-27T18:48:30Z</time>
      </trkpt>
      <trkpt lat="43.400526" lon="-4.724375">
        <ele>113.814</ele>
        <time>2022-08-27T18:48:31Z</time>
      </trkpt>
      <trkpt lat="43.400436" lon="-4.724352">
        <ele>113.894</ele>
        <time>2022-08-27T18:48:33Z</time>
      </trkpt>
      <trkpt lat="43.400368" lon="-4.724325">
        <ele>113.965</ele>
        <time>2022-08-27T18:48:35Z</time>
      </trkpt>
      <trkpt lat="43.400316" lon="-4.724302">
        <ele>114.163</ele>
        <time>2022-08-27T18:48:39Z</time>
      </trkpt>
      <trkpt lat="43.400264" lon="-4.724295">
        <ele>114.213</ele>
        <time>2022-08-27T18:48:43Z</time>
      </trkpt>
      <trkpt lat="43.400199" lon="-4.724315">
        <ele>114.369</ele>
        <time>2022-08-27T18:48:46Z</time>
      </trkpt>
      <trkpt lat="43.400147" lon="-4.724337">
        <ele>114.723</ele>
        <time>2022-08-27T18:48:48Z</time>
      </trkpt>
      <trkpt lat="43.400094" lon="-4.724354">
        <ele>115.080</ele>
        <time>2022-08-27T18:48:50Z</time>
      </trkpt>
      <trkpt lat="43.400047" lon="-4.724374">
        <ele>115.097</ele>
        <time>2022-08-27T18:48:52Z</time>
      </trkpt>
      <trkpt lat="43.399989" lon="-4.724389">
        <ele>115.067</ele>
        <time>2022-08-27T18:48:55Z</time>
      </trkpt>
      <trkpt lat="43.399926" lon="-4.724402">
        <ele>114.481</ele>
        <time>2022-08-27T18:48:58Z</time>
      </trkpt>
      <trkpt lat="43.399878" lon="-4.724412">
        <ele>113.719</ele>
        <time>2022-08-27T18:49:00Z</time>
      </trkpt>
      <trkpt lat="43.399830" lon="-4.724420">
        <ele>112.709</ele>
        <time>2022-08-27T18:49:02Z</time>
      </trkpt>
      <trkpt lat="43.399785" lon="-4.724427">
        <ele>112.117</ele>
        <time>2022-08-27T18:49:04Z</time>
      </trkpt>
      <trkpt lat="43.399727" lon="-4.724424">
        <ele>110.747</ele>
        <time>2022-08-27T18:49:07Z</time>
      </trkpt>
      <trkpt lat="43.399680" lon="-4.724417">
        <ele>109.828</ele>
        <time>2022-08-27T18:49:09Z</time>
      </trkpt>
      <trkpt lat="43.399627" lon="-4.724407">
        <ele>109.236</ele>
        <time>2022-08-27T18:49:11Z</time>
      </trkpt>
      <trkpt lat="43.399574" lon="-4.724414">
        <ele>108.976</ele>
        <time>2022-08-27T18:49:13Z</time>
      </trkpt>
      <trkpt lat="43.399519" lon="-4.724431">
        <ele>108.442</ele>
        <time>2022-08-27T18:49:15Z</time>
      </trkpt>
      <trkpt lat="43.399474" lon="-4.724453">
        <ele>107.726</ele>
        <time>2022-08-27T18:49:17Z</time>
      </trkpt>
      <trkpt lat="43.399422" lon="-4.724486">
        <ele>107.443</ele>
        <time>2022-08-27T18:49:19Z</time>
      </trkpt>
      <trkpt lat="43.399365" lon="-4.724536">
        <ele>107.450</ele>
        <time>2022-08-27T18:49:21Z</time>
      </trkpt>
      <trkpt lat="43.399297" lon="-4.724576">
        <ele>107.426</ele>
        <time>2022-08-27T18:49:23Z</time>
      </trkpt>
      <trkpt lat="43.399230" lon="-4.724599">
        <ele>107.747</ele>
        <time>2022-08-27T18:49:25Z</time>
      </trkpt>
      <trkpt lat="43.399168" lon="-4.724621">
        <ele>108.511</ele>
        <time>2022-08-27T18:49:27Z</time>
      </trkpt>
      <trkpt lat="43.399125" lon="-4.724639">
        <ele>109.109</ele>
        <time>2022-08-27T18:49:29Z</time>
      </trkpt>
      <trkpt lat="43.399073" lon="-4.724666">
        <ele>109.393</ele>
        <time>2022-08-27T18:49:31Z</time>
      </trkpt>
      <trkpt lat="43.399001" lon="-4.724701">
        <ele>109.233</ele>
        <time>2022-08-27T18:49:33Z</time>
      </trkpt>
      <trkpt lat="43.398901" lon="-4.724706">
        <ele>109.174</ele>
        <time>2022-08-27T18:49:35Z</time>
      </trkpt>
      <trkpt lat="43.398848" lon="-4.724691">
        <ele>109.032</ele>
        <time>2022-08-27T18:49:36Z</time>
      </trkpt>
      <trkpt lat="43.398756" lon="-4.724633">
        <ele>108.272</ele>
        <time>2022-08-27T18:49:38Z</time>
      </trkpt>
      <trkpt lat="43.398676" lon="-4.724558">
        <ele>107.128</ele>
        <time>2022-08-27T18:49:40Z</time>
      </trkpt>
      <trkpt lat="43.398608" lon="-4.724490">
        <ele>106.292</ele>
        <time>2022-08-27T18:49:42Z</time>
      </trkpt>
      <trkpt lat="43.398543" lon="-4.724447">
        <ele>106.099</ele>
        <time>2022-08-27T18:49:44Z</time>
      </trkpt>
      <trkpt lat="43.398493" lon="-4.724442">
        <ele>106.016</ele>
        <time>2022-08-27T18:49:46Z</time>
      </trkpt>
      <trkpt lat="43.398438" lon="-4.724455">
        <ele>106.485</ele>
        <time>2022-08-27T18:49:49Z</time>
      </trkpt>
      <trkpt lat="43.398365" lon="-4.724482">
        <ele>106.889</ele>
        <time>2022-08-27T18:49:52Z</time>
      </trkpt>
      <trkpt lat="43.398300" lon="-4.724500">
        <ele>107.717</ele>
        <time>2022-08-27T18:49:54Z</time>
      </trkpt>
      <trkpt lat="43.398228" lon="-4.724513">
        <ele>108.309</ele>
        <time>2022-08-27T18:49:56Z</time>
      </trkpt>
      <trkpt lat="43.398155" lon="-4.724530">
        <ele>109.999</ele>
        <time>2022-08-27T18:49:58Z</time>
      </trkpt>
      <trkpt lat="43.398077" lon="-4.724552">
        <ele>111.299</ele>
        <time>2022-08-27T18:50:00Z</time>
      </trkpt>
      <trkpt lat="43.398015" lon="-4.724582">
        <ele>111.930</ele>
        <time>2022-08-27T18:50:02Z</time>
      </trkpt>
      <trkpt lat="43.397965" lon="-4.724617">
        <ele>111.958</ele>
        <time>2022-08-27T18:50:04Z</time>
      </trkpt>
      <trkpt lat="43.397923" lon="-4.724670">
        <ele>111.928</ele>
        <time>2022-08-27T18:50:06Z</time>
      </trkpt>
      <trkpt lat="43.397885" lon="-4.724740">
        <ele>111.914</ele>
        <time>2022-08-27T18:50:08Z</time>
      </trkpt>
      <trkpt lat="43.397850" lon="-4.724817">
        <ele>111.618</ele>
        <time>2022-08-27T18:50:11Z</time>
      </trkpt>
      <trkpt lat="43.397822" lon="-4.724872">
        <ele>111.635</ele>
        <time>2022-08-27T18:50:13Z</time>
      </trkpt>
      <trkpt lat="43.397795" lon="-4.724954">
        <ele>111.782</ele>
        <time>2022-08-27T18:50:16Z</time>
      </trkpt>
      <trkpt lat="43.397777" lon="-4.725016">
        <ele>111.678</ele>
        <time>2022-08-27T18:50:19Z</time>
      </trkpt>
      <trkpt lat="43.397769" lon="-4.725081">
        <ele>111.333</ele>
        <time>2022-08-27T18:50:23Z</time>
      </trkpt>
      <trkpt lat="43.397759" lon="-4.725156">
        <ele>111.326</ele>
        <time>2022-08-27T18:50:27Z</time>
      </trkpt>
      <trkpt lat="43.397734" lon="-4.725208">
        <ele>111.209</ele>
        <time>2022-08-27T18:50:29Z</time>
      </trkpt>
      <trkpt lat="43.397721" lon="-4.725278">
        <ele>111.148</ele>
        <time>2022-08-27T18:50:31Z</time>
      </trkpt>
      <trkpt lat="43.397696" lon="-4.725345">
        <ele>111.048</ele>
        <time>2022-08-27T18:50:33Z</time>
      </trkpt>
      <trkpt lat="43.397664" lon="-4.725415">
        <ele>110.889</ele>
        <time>2022-08-27T18:50:35Z</time>
      </trkpt>
      <trkpt lat="43.397627" lon="-4.725497">
        <ele>110.357</ele>
        <time>2022-08-27T18:50:37Z</time>
      </trkpt>
      <trkpt lat="43.397582" lon="-4.725584">
        <ele>109.167</ele>
        <time>2022-08-27T18:50:39Z</time>
      </trkpt>
      <trkpt lat="43.397539" lon="-4.725679">
        <ele>108.273</ele>
        <time>2022-08-27T18:50:41Z</time>
      </trkpt>
      <trkpt lat="43.397504" lon="-4.725782">
        <ele>108.017</ele>
        <time>2022-08-27T18:50:43Z</time>
      </trkpt>
      <trkpt lat="43.397469" lon="-4.725857">
        <ele>107.554</ele>
        <time>2022-08-27T18:50:45Z</time>
      </trkpt>
      <trkpt lat="43.397427" lon="-4.725905">
        <ele>107.461</ele>
        <time>2022-08-27T18:50:47Z</time>
      </trkpt>
      <trkpt lat="43.397365" lon="-4.725945">
        <ele>107.079</ele>
        <time>2022-08-27T18:50:49Z</time>
      </trkpt>
      <trkpt lat="43.397290" lon="-4.725978">
        <ele>106.805</ele>
        <time>2022-08-27T18:50:51Z</time>
      </trkpt>
      <trkpt lat="43.397225" lon="-4.726001">
        <ele>106.825</ele>
        <time>2022-08-27T18:50:53Z</time>
      </trkpt>
      <trkpt lat="43.397165" lon="-4.726026">
        <ele>106.809</ele>
        <time>2022-08-27T18:50:55Z</time>
      </trkpt>
      <trkpt lat="43.397085" lon="-4.726031">
        <ele>107.148</ele>
        <time>2022-08-27T18:50:57Z</time>
      </trkpt>
      <trkpt lat="43.396993" lon="-4.726018">
        <ele>107.858</ele>
        <time>2022-08-27T18:50:59Z</time>
      </trkpt>
      <trkpt lat="43.396913" lon="-4.726010">
        <ele>107.959</ele>
        <time>2022-08-27T18:51:01Z</time>
      </trkpt>
      <trkpt lat="43.396838" lon="-4.725997">
        <ele>107.737</ele>
        <time>2022-08-27T18:51:03Z</time>
      </trkpt>
      <trkpt lat="43.396781" lon="-4.725959">
        <ele>107.237</ele>
        <time>2022-08-27T18:51:05Z</time>
      </trkpt>
      <trkpt lat="43.396738" lon="-4.725914">
        <ele>106.783</ele>
        <time>2022-08-27T18:51:07Z</time>
      </trkpt>
      <trkpt lat="43.396693" lon="-4.725864">
        <ele>106.647</ele>
        <time>2022-08-27T18:51:09Z</time>
      </trkpt>
      <trkpt lat="43.396641" lon="-4.725806">
        <ele>106.694</ele>
        <time>2022-08-27T18:51:11Z</time>
      </trkpt>
      <trkpt lat="43.396579" lon="-4.725743">
        <ele>106.521</ele>
        <time>2022-08-27T18:51:13Z</time>
      </trkpt>
      <trkpt lat="43.396511" lon="-4.725690">
        <ele>106.214</ele>
        <time>2022-08-27T18:51:15Z</time>
      </trkpt>
      <trkpt lat="43.396441" lon="-4.725653">
        <ele>105.754</ele>
        <time>2022-08-27T18:51:17Z</time>
      </trkpt>
      <trkpt lat="43.396373" lon="-4.725633">
        <ele>105.609</ele>
        <time>2022-08-27T18:51:19Z</time>
      </trkpt>
      <trkpt lat="43.396301" lon="-4.725615">
        <ele>105.609</ele>
        <time>2022-08-27T18:51:21Z</time>
      </trkpt>
      <trkpt lat="43.396224" lon="-4.725612">
        <ele>105.692</ele>
        <time>2022-08-27T18:51:23Z</time>
      </trkpt>
      <trkpt lat="43.396142" lon="-4.725632">
        <ele>105.852</ele>
        <time>2022-08-27T18:51:25Z</time>
      </trkpt>
      <trkpt lat="43.396065" lon="-4.725660">
        <ele>106.023</ele>
        <time>2022-08-27T18:51:27Z</time>
      </trkpt>
      <trkpt lat="43.396000" lon="-4.725698">
        <ele>106.571</ele>
        <time>2022-08-27T18:51:29Z</time>
      </trkpt>
      <trkpt lat="43.395942" lon="-4.725745">
        <ele>106.811</ele>
        <time>2022-08-27T18:51:31Z</time>
      </trkpt>
      <trkpt lat="43.395892" lon="-4.725793">
        <ele>107.037</ele>
        <time>2022-08-27T18:51:33Z</time>
      </trkpt>
      <trkpt lat="43.395847" lon="-4.725836">
        <ele>107.181</ele>
        <time>2022-08-27T18:51:35Z</time>
      </trkpt>
      <trkpt lat="43.395792" lon="-4.725869">
        <ele>107.798</ele>
        <time>2022-08-27T18:51:37Z</time>
      </trkpt>
      <trkpt lat="43.395730" lon="-4.725882">
        <ele>108.015</ele>
        <time>2022-08-27T18:51:39Z</time>
      </trkpt>
      <trkpt lat="43.395667" lon="-4.725877">
        <ele>108.378</ele>
        <time>2022-08-27T18:51:41Z</time>
      </trkpt>
      <trkpt lat="43.395610" lon="-4.725849">
        <ele>108.633</ele>
        <time>2022-08-27T18:51:43Z</time>
      </trkpt>
      <trkpt lat="43.395540" lon="-4.725821">
        <ele>108.926</ele>
        <time>2022-08-27T18:51:45Z</time>
      </trkpt>
      <trkpt lat="43.395488" lon="-4.725763">
        <ele>109.009</ele>
        <time>2022-08-27T18:51:47Z</time>
      </trkpt>
      <trkpt lat="43.395476" lon="-4.725660">
        <ele>109.088</ele>
        <time>2022-08-27T18:51:49Z</time>
      </trkpt>
      <trkpt lat="43.395486" lon="-4.725517">
        <ele>109.088</ele>
        <time>2022-08-27T18:51:51Z</time>
      </trkpt>
      <trkpt lat="43.395511" lon="-4.725362">
        <ele>109.119</ele>
        <time>2022-08-27T18:51:53Z</time>
      </trkpt>
      <trkpt lat="43.395524" lon="-4.725285">
        <ele>109.187</ele>
        <time>2022-08-27T18:51:54Z</time>
      </trkpt>
      <trkpt lat="43.395556" lon="-4.725133">
        <ele>109.117</ele>
        <time>2022-08-27T18:51:56Z</time>
      </trkpt>
      <trkpt lat="43.395569" lon="-4.725053">
        <ele>109.153</ele>
        <time>2022-08-27T18:51:57Z</time>
      </trkpt>
      <trkpt lat="43.395597" lon="-4.724891">
        <ele>109.317</ele>
        <time>2022-08-27T18:51:59Z</time>
      </trkpt>
      <trkpt lat="43.395632" lon="-4.724724">
        <ele>108.654</ele>
        <time>2022-08-27T18:52:01Z</time>
      </trkpt>
      <trkpt lat="43.395650" lon="-4.724641">
        <ele>107.871</ele>
        <time>2022-08-27T18:52:02Z</time>
      </trkpt>
      <trkpt lat="43.395683" lon="-4.724474">
        <ele>106.695</ele>
        <time>2022-08-27T18:52:04Z</time>
      </trkpt>
      <trkpt lat="43.395716" lon="-4.724304">
        <ele>105.849</ele>
        <time>2022-08-27T18:52:06Z</time>
      </trkpt>
      <trkpt lat="43.395746" lon="-4.724124">
        <ele>105.223</ele>
        <time>2022-08-27T18:52:08Z</time>
      </trkpt>
      <trkpt lat="43.395763" lon="-4.724034">
        <ele>105.009</ele>
        <time>2022-08-27T18:52:09Z</time>
      </trkpt>
      <trkpt lat="43.395780" lon="-4.723944">
        <ele>104.790</ele>
        <time>2022-08-27T18:52:10Z</time>
      </trkpt>
      <trkpt lat="43.395815" lon="-4.723759">
        <ele>104.270</ele>
        <time>2022-08-27T18:52:12Z</time>
      </trkpt>
      <trkpt lat="43.395853" lon="-4.723579">
        <ele>103.791</ele>
        <time>2022-08-27T18:52:14Z</time>
      </trkpt>
      <trkpt lat="43.395893" lon="-4.723401">
        <ele>103.329</ele>
        <time>2022-08-27T18:52:16Z</time>
      </trkpt>
      <trkpt lat="43.395910" lon="-4.723314">
        <ele>103.239</ele>
        <time>2022-08-27T18:52:17Z</time>
      </trkpt>
      <trkpt lat="43.395927" lon="-4.723226">
        <ele>103.245</ele>
        <time>2022-08-27T18:52:18Z</time>
      </trkpt>
      <trkpt lat="43.395945" lon="-4.723133">
        <ele>103.269</ele>
        <time>2022-08-27T18:52:19Z</time>
      </trkpt>
      <trkpt lat="43.395982" lon="-4.722946">
        <ele>102.766</ele>
        <time>2022-08-27T18:52:21Z</time>
      </trkpt>
      <trkpt lat="43.396000" lon="-4.722853">
        <ele>102.553</ele>
        <time>2022-08-27T18:52:22Z</time>
      </trkpt>
      <trkpt lat="43.396020" lon="-4.722760">
        <ele>102.583</ele>
        <time>2022-08-27T18:52:23Z</time>
      </trkpt>
      <trkpt lat="43.396060" lon="-4.722570">
        <ele>102.425</ele>
        <time>2022-08-27T18:52:25Z</time>
      </trkpt>
      <trkpt lat="43.396097" lon="-4.722383">
        <ele>101.917</ele>
        <time>2022-08-27T18:52:27Z</time>
      </trkpt>
      <trkpt lat="43.396115" lon="-4.722288">
        <ele>101.709</ele>
        <time>2022-08-27T18:52:28Z</time>
      </trkpt>
      <trkpt lat="43.396133" lon="-4.722191">
        <ele>101.519</ele>
        <time>2022-08-27T18:52:29Z</time>
      </trkpt>
      <trkpt lat="43.396175" lon="-4.721999">
        <ele>100.949</ele>
        <time>2022-08-27T18:52:31Z</time>
      </trkpt>
      <trkpt lat="43.396215" lon="-4.721809">
        <ele>100.350</ele>
        <time>2022-08-27T18:52:33Z</time>
      </trkpt>
      <trkpt lat="43.396247" lon="-4.721626">
        <ele>99.628</ele>
        <time>2022-08-27T18:52:35Z</time>
      </trkpt>
      <trkpt lat="43.396262" lon="-4.721536">
        <ele>99.268</ele>
        <time>2022-08-27T18:52:36Z</time>
      </trkpt>
      <trkpt lat="43.396277" lon="-4.721446">
        <ele>98.844</ele>
        <time>2022-08-27T18:52:37Z</time>
      </trkpt>
      <trkpt lat="43.396294" lon="-4.721358">
        <ele>98.698</ele>
        <time>2022-08-27T18:52:38Z</time>
      </trkpt>
      <trkpt lat="43.396327" lon="-4.721180">
        <ele>98.675</ele>
        <time>2022-08-27T18:52:40Z</time>
      </trkpt>
      <trkpt lat="43.396344" lon="-4.721095">
        <ele>98.412</ele>
        <time>2022-08-27T18:52:41Z</time>
      </trkpt>
      <trkpt lat="43.396361" lon="-4.721010">
        <ele>98.442</ele>
        <time>2022-08-27T18:52:42Z</time>
      </trkpt>
      <trkpt lat="43.396393" lon="-4.720840">
        <ele>98.422</ele>
        <time>2022-08-27T18:52:44Z</time>
      </trkpt>
      <trkpt lat="43.396410" lon="-4.720755">
        <ele>98.314</ele>
        <time>2022-08-27T18:52:45Z</time>
      </trkpt>
      <trkpt lat="43.396425" lon="-4.720670">
        <ele>98.309</ele>
        <time>2022-08-27T18:52:46Z</time>
      </trkpt>
      <trkpt lat="43.396453" lon="-4.720503">
        <ele>98.315</ele>
        <time>2022-08-27T18:52:48Z</time>
      </trkpt>
      <trkpt lat="43.396470" lon="-4.720420">
        <ele>98.125</ele>
        <time>2022-08-27T18:52:49Z</time>
      </trkpt>
      <trkpt lat="43.396503" lon="-4.720253">
        <ele>97.626</ele>
        <time>2022-08-27T18:52:51Z</time>
      </trkpt>
      <trkpt lat="43.396536" lon="-4.720081">
        <ele>97.374</ele>
        <time>2022-08-27T18:52:53Z</time>
      </trkpt>
      <trkpt lat="43.396553" lon="-4.719996">
        <ele>96.994</ele>
        <time>2022-08-27T18:52:54Z</time>
      </trkpt>
      <trkpt lat="43.396570" lon="-4.719913">
        <ele>96.960</ele>
        <time>2022-08-27T18:52:55Z</time>
      </trkpt>
      <trkpt lat="43.396597" lon="-4.719750">
        <ele>96.624</ele>
        <time>2022-08-27T18:52:57Z</time>
      </trkpt>
      <trkpt lat="43.396612" lon="-4.719668">
        <ele>96.551</ele>
        <time>2022-08-27T18:52:58Z</time>
      </trkpt>
      <trkpt lat="43.396627" lon="-4.719586">
        <ele>96.228</ele>
        <time>2022-08-27T18:52:59Z</time>
      </trkpt>
      <trkpt lat="43.396642" lon="-4.719504">
        <ele>95.937</ele>
        <time>2022-08-27T18:53:00Z</time>
      </trkpt>
      <trkpt lat="43.396679" lon="-4.719334">
        <ele>95.249</ele>
        <time>2022-08-27T18:53:02Z</time>
      </trkpt>
      <trkpt lat="43.396696" lon="-4.719249">
        <ele>94.913</ele>
        <time>2022-08-27T18:53:03Z</time>
      </trkpt>
      <trkpt lat="43.396731" lon="-4.719074">
        <ele>94.109</ele>
        <time>2022-08-27T18:53:05Z</time>
      </trkpt>
      <trkpt lat="43.396753" lon="-4.718982">
        <ele>93.734</ele>
        <time>2022-08-27T18:53:06Z</time>
      </trkpt>
      <trkpt lat="43.396771" lon="-4.718887">
        <ele>93.534</ele>
        <time>2022-08-27T18:53:07Z</time>
      </trkpt>
      <trkpt lat="43.396791" lon="-4.718790">
        <ele>92.915</ele>
        <time>2022-08-27T18:53:08Z</time>
      </trkpt>
      <trkpt lat="43.396813" lon="-4.718695">
        <ele>92.463</ele>
        <time>2022-08-27T18:53:09Z</time>
      </trkpt>
      <trkpt lat="43.396861" lon="-4.718503">
        <ele>92.193</ele>
        <time>2022-08-27T18:53:11Z</time>
      </trkpt>
      <trkpt lat="43.396884" lon="-4.718403">
        <ele>91.969</ele>
        <time>2022-08-27T18:53:12Z</time>
      </trkpt>
      <trkpt lat="43.396904" lon="-4.718301">
        <ele>91.763</ele>
        <time>2022-08-27T18:53:13Z</time>
      </trkpt>
      <trkpt lat="43.396926" lon="-4.718203">
        <ele>91.310</ele>
        <time>2022-08-27T18:53:14Z</time>
      </trkpt>
      <trkpt lat="43.396976" lon="-4.718000">
        <ele>91.117</ele>
        <time>2022-08-27T18:53:16Z</time>
      </trkpt>
      <trkpt lat="43.396996" lon="-4.717898">
        <ele>90.976</ele>
        <time>2022-08-27T18:53:17Z</time>
      </trkpt>
      <trkpt lat="43.397014" lon="-4.717796">
        <ele>90.490</ele>
        <time>2022-08-27T18:53:18Z</time>
      </trkpt>
      <trkpt lat="43.397034" lon="-4.717693">
        <ele>89.919</ele>
        <time>2022-08-27T18:53:19Z</time>
      </trkpt>
      <trkpt lat="43.397051" lon="-4.717590">
        <ele>89.209</ele>
        <time>2022-08-27T18:53:20Z</time>
      </trkpt>
      <trkpt lat="43.397089" lon="-4.717388">
        <ele>87.868</ele>
        <time>2022-08-27T18:53:22Z</time>
      </trkpt>
      <trkpt lat="43.397102" lon="-4.717285">
        <ele>87.478</ele>
        <time>2022-08-27T18:53:23Z</time>
      </trkpt>
      <trkpt lat="43.397105" lon="-4.717180">
        <ele>86.979</ele>
        <time>2022-08-27T18:53:24Z</time>
      </trkpt>
      <trkpt lat="43.397083" lon="-4.716978">
        <ele>86.067</ele>
        <time>2022-08-27T18:53:26Z</time>
      </trkpt>
      <trkpt lat="43.397075" lon="-4.716880">
        <ele>85.517</ele>
        <time>2022-08-27T18:53:27Z</time>
      </trkpt>
      <trkpt lat="43.397098" lon="-4.716687">
        <ele>84.943</ele>
        <time>2022-08-27T18:53:29Z</time>
      </trkpt>
      <trkpt lat="43.397180" lon="-4.716529">
        <ele>84.087</ele>
        <time>2022-08-27T18:53:31Z</time>
      </trkpt>
      <trkpt lat="43.397220" lon="-4.716454">
        <ele>83.894</ele>
        <time>2022-08-27T18:53:32Z</time>
      </trkpt>
      <trkpt lat="43.397277" lon="-4.716291">
        <ele>83.741</ele>
        <time>2022-08-27T18:53:34Z</time>
      </trkpt>
      <trkpt lat="43.397295" lon="-4.716201">
        <ele>83.798</ele>
        <time>2022-08-27T18:53:35Z</time>
      </trkpt>
      <trkpt lat="43.397312" lon="-4.716108">
        <ele>83.315</ele>
        <time>2022-08-27T18:53:36Z</time>
      </trkpt>
      <trkpt lat="43.397350" lon="-4.715916">
        <ele>82.826</ele>
        <time>2022-08-27T18:53:38Z</time>
      </trkpt>
      <trkpt lat="43.397387" lon="-4.715726">
        <ele>82.609</ele>
        <time>2022-08-27T18:53:40Z</time>
      </trkpt>
      <trkpt lat="43.397405" lon="-4.715631">
        <ele>82.540</ele>
        <time>2022-08-27T18:53:41Z</time>
      </trkpt>
      <trkpt lat="43.397443" lon="-4.715444">
        <ele>82.260</ele>
        <time>2022-08-27T18:53:43Z</time>
      </trkpt>
      <trkpt lat="43.397460" lon="-4.715352">
        <ele>82.071</ele>
        <time>2022-08-27T18:53:44Z</time>
      </trkpt>
      <trkpt lat="43.397487" lon="-4.715169">
        <ele>81.449</ele>
        <time>2022-08-27T18:53:46Z</time>
      </trkpt>
      <trkpt lat="43.397502" lon="-4.715076">
        <ele>81.149</ele>
        <time>2022-08-27T18:53:47Z</time>
      </trkpt>
      <trkpt lat="43.397519" lon="-4.714981">
        <ele>80.945</ele>
        <time>2022-08-27T18:53:48Z</time>
      </trkpt>
      <trkpt lat="43.397532" lon="-4.714883">
        <ele>80.699</ele>
        <time>2022-08-27T18:53:49Z</time>
      </trkpt>
      <trkpt lat="43.397559" lon="-4.714681">
        <ele>80.446</ele>
        <time>2022-08-27T18:53:51Z</time>
      </trkpt>
      <trkpt lat="43.397581" lon="-4.714481">
        <ele>79.793</ele>
        <time>2022-08-27T18:53:53Z</time>
      </trkpt>
      <trkpt lat="43.397591" lon="-4.714381">
        <ele>79.422</ele>
        <time>2022-08-27T18:53:54Z</time>
      </trkpt>
      <trkpt lat="43.397623" lon="-4.714178">
        <ele>78.762</ele>
        <time>2022-08-27T18:53:56Z</time>
      </trkpt>
      <trkpt lat="43.397660" lon="-4.713965">
        <ele>77.908</ele>
        <time>2022-08-27T18:53:58Z</time>
      </trkpt>
      <trkpt lat="43.397687" lon="-4.713750">
        <ele>77.309</ele>
        <time>2022-08-27T18:54:00Z</time>
      </trkpt>
      <trkpt lat="43.397702" lon="-4.713647">
        <ele>77.063</ele>
        <time>2022-08-27T18:54:01Z</time>
      </trkpt>
      <trkpt lat="43.397734" lon="-4.713439">
        <ele>76.243</ele>
        <time>2022-08-27T18:54:03Z</time>
      </trkpt>
      <trkpt lat="43.397752" lon="-4.713331">
        <ele>75.674</ele>
        <time>2022-08-27T18:54:04Z</time>
      </trkpt>
      <trkpt lat="43.397779" lon="-4.713118">
        <ele>74.712</ele>
        <time>2022-08-27T18:54:06Z</time>
      </trkpt>
      <trkpt lat="43.397792" lon="-4.713013">
        <ele>74.322</ele>
        <time>2022-08-27T18:54:07Z</time>
      </trkpt>
      <trkpt lat="43.397807" lon="-4.712906">
        <ele>74.188</ele>
        <time>2022-08-27T18:54:08Z</time>
      </trkpt>
      <trkpt lat="43.397840" lon="-4.712689">
        <ele>73.792</ele>
        <time>2022-08-27T18:54:10Z</time>
      </trkpt>
      <trkpt lat="43.397868" lon="-4.712476">
        <ele>73.369</ele>
        <time>2022-08-27T18:54:12Z</time>
      </trkpt>
      <trkpt lat="43.397886" lon="-4.712373">
        <ele>73.076</ele>
        <time>2022-08-27T18:54:13Z</time>
      </trkpt>
      <trkpt lat="43.397924" lon="-4.712168">
        <ele>72.613</ele>
        <time>2022-08-27T18:54:15Z</time>
      </trkpt>
      <trkpt lat="43.397967" lon="-4.711960">
        <ele>72.643</ele>
        <time>2022-08-27T18:54:17Z</time>
      </trkpt>
      <trkpt lat="43.397987" lon="-4.711855">
        <ele>72.907</ele>
        <time>2022-08-27T18:54:18Z</time>
      </trkpt>
      <trkpt lat="43.398029" lon="-4.711645">
        <ele>73.309</ele>
        <time>2022-08-27T18:54:20Z</time>
      </trkpt>
      <trkpt lat="43.398052" lon="-4.711542">
        <ele>73.482</ele>
        <time>2022-08-27T18:54:21Z</time>
      </trkpt>
      <trkpt lat="43.398095" lon="-4.711335">
        <ele>73.692</ele>
        <time>2022-08-27T18:54:23Z</time>
      </trkpt>
      <trkpt lat="43.398117" lon="-4.711233">
        <ele>73.613</ele>
        <time>2022-08-27T18:54:24Z</time>
      </trkpt>
      <trkpt lat="43.398139" lon="-4.711131">
        <ele>73.651</ele>
        <time>2022-08-27T18:54:25Z</time>
      </trkpt>
      <trkpt lat="43.398161" lon="-4.711028">
        <ele>73.751</ele>
        <time>2022-08-27T18:54:26Z</time>
      </trkpt>
      <trkpt lat="43.398204" lon="-4.710823">
        <ele>74.027</ele>
        <time>2022-08-27T18:54:28Z</time>
      </trkpt>
      <trkpt lat="43.398244" lon="-4.710625">
        <ele>74.241</ele>
        <time>2022-08-27T18:54:30Z</time>
      </trkpt>
      <trkpt lat="43.398291" lon="-4.710432">
        <ele>74.148</ele>
        <time>2022-08-27T18:54:32Z</time>
      </trkpt>
      <trkpt lat="43.398314" lon="-4.710339">
        <ele>74.015</ele>
        <time>2022-08-27T18:54:33Z</time>
      </trkpt>
      <trkpt lat="43.398339" lon="-4.710246">
        <ele>73.911</ele>
        <time>2022-08-27T18:54:34Z</time>
      </trkpt>
      <trkpt lat="43.398386" lon="-4.710066">
        <ele>73.721</ele>
        <time>2022-08-27T18:54:36Z</time>
      </trkpt>
      <trkpt lat="43.398434" lon="-4.709888">
        <ele>73.303</ele>
        <time>2022-08-27T18:54:38Z</time>
      </trkpt>
      <trkpt lat="43.398481" lon="-4.709711">
        <ele>72.909</ele>
        <time>2022-08-27T18:54:40Z</time>
      </trkpt>
      <trkpt lat="43.398504" lon="-4.709628">
        <ele>72.892</ele>
        <time>2022-08-27T18:54:41Z</time>
      </trkpt>
      <trkpt lat="43.398549" lon="-4.709458">
        <ele>72.482</ele>
        <time>2022-08-27T18:54:43Z</time>
      </trkpt>
      <trkpt lat="43.398592" lon="-4.709295">
        <ele>72.163</ele>
        <time>2022-08-27T18:54:45Z</time>
      </trkpt>
      <trkpt lat="43.398634" lon="-4.709135">
        <ele>72.041</ele>
        <time>2022-08-27T18:54:47Z</time>
      </trkpt>
      <trkpt lat="43.398676" lon="-4.708978">
        <ele>71.951</ele>
        <time>2022-08-27T18:54:49Z</time>
      </trkpt>
      <trkpt lat="43.398723" lon="-4.708825">
        <ele>71.737</ele>
        <time>2022-08-27T18:54:51Z</time>
      </trkpt>
      <trkpt lat="43.398745" lon="-4.708748">
        <ele>71.661</ele>
        <time>2022-08-27T18:54:52Z</time>
      </trkpt>
      <trkpt lat="43.398767" lon="-4.708670">
        <ele>71.538</ele>
        <time>2022-08-27T18:54:53Z</time>
      </trkpt>
      <trkpt lat="43.398790" lon="-4.708593">
        <ele>71.455</ele>
        <time>2022-08-27T18:54:54Z</time>
      </trkpt>
      <trkpt lat="43.398832" lon="-4.708443">
        <ele>71.296</ele>
        <time>2022-08-27T18:54:56Z</time>
      </trkpt>
      <trkpt lat="43.398850" lon="-4.708370">
        <ele>71.031</ele>
        <time>2022-08-27T18:54:57Z</time>
      </trkpt>
      <trkpt lat="43.398887" lon="-4.708222">
        <ele>70.724</ele>
        <time>2022-08-27T18:54:59Z</time>
      </trkpt>
      <trkpt lat="43.398920" lon="-4.708075">
        <ele>70.709</ele>
        <time>2022-08-27T18:55:01Z</time>
      </trkpt>
      <trkpt lat="43.398937" lon="-4.708005">
        <ele>70.780</ele>
        <time>2022-08-27T18:55:02Z</time>
      </trkpt>
      <trkpt lat="43.398969" lon="-4.707862">
        <ele>70.920</ele>
        <time>2022-08-27T18:55:04Z</time>
      </trkpt>
      <trkpt lat="43.398992" lon="-4.707722">
        <ele>71.181</ele>
        <time>2022-08-27T18:55:06Z</time>
      </trkpt>
      <trkpt lat="43.399000" lon="-4.707654">
        <ele>71.329</ele>
        <time>2022-08-27T18:55:07Z</time>
      </trkpt>
      <trkpt lat="43.399007" lon="-4.707587">
        <ele>71.359</ele>
        <time>2022-08-27T18:55:08Z</time>
      </trkpt>
      <trkpt lat="43.399014" lon="-4.707519">
        <ele>71.355</ele>
        <time>2022-08-27T18:55:09Z</time>
      </trkpt>
      <trkpt lat="43.399026" lon="-4.707389">
        <ele>71.369</ele>
        <time>2022-08-27T18:55:11Z</time>
      </trkpt>
      <trkpt lat="43.399031" lon="-4.707324">
        <ele>71.346</ele>
        <time>2022-08-27T18:55:12Z</time>
      </trkpt>
      <trkpt lat="43.399039" lon="-4.707197">
        <ele>71.363</ele>
        <time>2022-08-27T18:55:14Z</time>
      </trkpt>
      <trkpt lat="43.399042" lon="-4.707134">
        <ele>71.419</ele>
        <time>2022-08-27T18:55:15Z</time>
      </trkpt>
      <trkpt lat="43.399042" lon="-4.707012">
        <ele>71.509</ele>
        <time>2022-08-27T18:55:17Z</time>
      </trkpt>
      <trkpt lat="43.399044" lon="-4.706892">
        <ele>71.519</ele>
        <time>2022-08-27T18:55:19Z</time>
      </trkpt>
      <trkpt lat="43.399039" lon="-4.706770">
        <ele>71.509</ele>
        <time>2022-08-27T18:55:21Z</time>
      </trkpt>
      <trkpt lat="43.399034" lon="-4.706642">
        <ele>71.792</ele>
        <time>2022-08-27T18:55:23Z</time>
      </trkpt>
      <trkpt lat="43.399034" lon="-4.706574">
        <ele>71.732</ele>
        <time>2022-08-27T18:55:24Z</time>
      </trkpt>
      <trkpt lat="43.399022" lon="-4.706426">
        <ele>71.743</ele>
        <time>2022-08-27T18:55:26Z</time>
      </trkpt>
      <trkpt lat="43.399017" lon="-4.706349">
        <ele>71.741</ele>
        <time>2022-08-27T18:55:27Z</time>
      </trkpt>
      <trkpt lat="43.399017" lon="-4.706277">
        <ele>71.621</ele>
        <time>2022-08-27T18:55:28Z</time>
      </trkpt>
      <trkpt lat="43.399010" lon="-4.706144">
        <ele>71.497</ele>
        <time>2022-08-27T18:55:30Z</time>
      </trkpt>
      <trkpt lat="43.399005" lon="-4.706024">
        <ele>71.431</ele>
        <time>2022-08-27T18:55:32Z</time>
      </trkpt>
      <trkpt lat="43.399002" lon="-4.705917">
        <ele>71.468</ele>
        <time>2022-08-27T18:55:34Z</time>
      </trkpt>
      <trkpt lat="43.398997" lon="-4.705799">
        <ele>71.395</ele>
        <time>2022-08-27T18:55:36Z</time>
      </trkpt>
      <trkpt lat="43.398990" lon="-4.705671">
        <ele>71.363</ele>
        <time>2022-08-27T18:55:38Z</time>
      </trkpt>
      <trkpt lat="43.398987" lon="-4.705538">
        <ele>70.944</ele>
        <time>2022-08-27T18:55:40Z</time>
      </trkpt>
      <trkpt lat="43.398984" lon="-4.705473">
        <ele>70.618</ele>
        <time>2022-08-27T18:55:41Z</time>
      </trkpt>
      <trkpt lat="43.398982" lon="-4.705408">
        <ele>70.509</ele>
        <time>2022-08-27T18:55:42Z</time>
      </trkpt>
      <trkpt lat="43.398980" lon="-4.705271">
        <ele>70.527</ele>
        <time>2022-08-27T18:55:44Z</time>
      </trkpt>
      <trkpt lat="43.398978" lon="-4.705203">
        <ele>70.667</ele>
        <time>2022-08-27T18:55:45Z</time>
      </trkpt>
      <trkpt lat="43.398978" lon="-4.705133">
        <ele>70.788</ele>
        <time>2022-08-27T18:55:46Z</time>
      </trkpt>
      <trkpt lat="43.398978" lon="-4.705065">
        <ele>70.966</ele>
        <time>2022-08-27T18:55:47Z</time>
      </trkpt>
      <trkpt lat="43.398973" lon="-4.704927">
        <ele>71.426</ele>
        <time>2022-08-27T18:55:49Z</time>
      </trkpt>
      <trkpt lat="43.398966" lon="-4.704785">
        <ele>71.522</ele>
        <time>2022-08-27T18:55:51Z</time>
      </trkpt>
      <trkpt lat="43.398963" lon="-4.704648">
        <ele>71.616</ele>
        <time>2022-08-27T18:55:53Z</time>
      </trkpt>
      <trkpt lat="43.398960" lon="-4.704513">
        <ele>71.713</ele>
        <time>2022-08-27T18:55:54Z</time>
      </trkpt>
      <trkpt lat="43.398958" lon="-4.704450">
        <ele>71.840</ele>
        <time>2022-08-27T18:55:56Z</time>
      </trkpt>
      <trkpt lat="43.398976" lon="-4.704315">
        <ele>71.899</ele>
        <time>2022-08-27T18:55:58Z</time>
      </trkpt>
      <trkpt lat="43.398976" lon="-4.704155">
        <ele>72.607</ele>
        <time>2022-08-27T18:56:00Z</time>
      </trkpt>
      <trkpt lat="43.398958" lon="-4.704003">
        <ele>72.727</ele>
        <time>2022-08-27T18:56:01Z</time>
      </trkpt>
      <trkpt lat="43.398955" lon="-4.703856">
        <ele>72.309</ele>
        <time>2022-08-27T18:56:03Z</time>
      </trkpt>
      <trkpt lat="43.398953" lon="-4.703781">
        <ele>72.340</ele>
        <time>2022-08-27T18:56:05Z</time>
      </trkpt>
      <trkpt lat="43.398945" lon="-4.703629">
        <ele>71.980</ele>
        <time>2022-08-27T18:56:07Z</time>
      </trkpt>
      <trkpt lat="43.398938" lon="-4.703547">
        <ele>71.691</ele>
        <time>2022-08-27T18:56:08Z</time>
      </trkpt>
      <trkpt lat="43.398930" lon="-4.703460">
        <ele>71.169</ele>
        <time>2022-08-27T18:56:09Z</time>
      </trkpt>
      <trkpt lat="43.398902" lon="-4.703278">
        <ele>70.139</ele>
        <time>2022-08-27T18:56:11Z</time>
      </trkpt>
      <trkpt lat="43.398882" lon="-4.703190">
        <ele>69.675</ele>
        <time>2022-08-27T18:56:12Z</time>
      </trkpt>
      <trkpt lat="43.398837" lon="-4.703020">
        <ele>69.119</ele>
        <time>2022-08-27T18:56:14Z</time>
      </trkpt>
      <trkpt lat="43.398809" lon="-4.702932">
        <ele>68.896</ele>
        <time>2022-08-27T18:56:15Z</time>
      </trkpt>
      <trkpt lat="43.398747" lon="-4.702752">
        <ele>67.793</ele>
        <time>2022-08-27T18:56:17Z</time>
      </trkpt>
      <trkpt lat="43.398714" lon="-4.702659">
        <ele>67.358</ele>
        <time>2022-08-27T18:56:18Z</time>
      </trkpt>
      <trkpt lat="43.398677" lon="-4.702564">
        <ele>67.052</ele>
        <time>2022-08-27T18:56:19Z</time>
      </trkpt>
      <trkpt lat="43.398609" lon="-4.702364">
        <ele>66.817</ele>
        <time>2022-08-27T18:56:21Z</time>
      </trkpt>
      <trkpt lat="43.398547" lon="-4.702157">
        <ele>66.009</ele>
        <time>2022-08-27T18:56:23Z</time>
      </trkpt>
      <trkpt lat="43.398515" lon="-4.702052">
        <ele>65.566</ele>
        <time>2022-08-27T18:56:24Z</time>
      </trkpt>
      <trkpt lat="43.398457" lon="-4.701842">
        <ele>64.636</ele>
        <time>2022-08-27T18:56:26Z</time>
      </trkpt>
      <trkpt lat="43.398404" lon="-4.701635">
        <ele>64.177</ele>
        <time>2022-08-27T18:56:28Z</time>
      </trkpt>
      <trkpt lat="43.398382" lon="-4.701528">
        <ele>63.935</ele>
        <time>2022-08-27T18:56:29Z</time>
      </trkpt>
      <trkpt lat="43.398357" lon="-4.701311">
        <ele>63.555</ele>
        <time>2022-08-27T18:56:31Z</time>
      </trkpt>
      <trkpt lat="43.398344" lon="-4.701088">
        <ele>63.051</ele>
        <time>2022-08-27T18:56:33Z</time>
      </trkpt>
      <trkpt lat="43.398342" lon="-4.700980">
        <ele>62.885</ele>
        <time>2022-08-27T18:56:34Z</time>
      </trkpt>
      <trkpt lat="43.398337" lon="-4.700872">
        <ele>62.472</ele>
        <time>2022-08-27T18:56:35Z</time>
      </trkpt>
      <trkpt lat="43.398340" lon="-4.700762">
        <ele>61.989</ele>
        <time>2022-08-27T18:56:36Z</time>
      </trkpt>
      <trkpt lat="43.398350" lon="-4.700537">
        <ele>61.021</ele>
        <time>2022-08-27T18:56:38Z</time>
      </trkpt>
      <trkpt lat="43.398370" lon="-4.700312">
        <ele>60.841</ele>
        <time>2022-08-27T18:56:40Z</time>
      </trkpt>
      <trkpt lat="43.398407" lon="-4.700094">
        <ele>60.605</ele>
        <time>2022-08-27T18:56:42Z</time>
      </trkpt>
      <trkpt lat="43.398432" lon="-4.699984">
        <ele>60.509</ele>
        <time>2022-08-27T18:56:43Z</time>
      </trkpt>
      <trkpt lat="43.398457" lon="-4.699877">
        <ele>60.433</ele>
        <time>2022-08-27T18:56:44Z</time>
      </trkpt>
      <trkpt lat="43.398505" lon="-4.699670">
        <ele>60.213</ele>
        <time>2022-08-27T18:56:46Z</time>
      </trkpt>
      <trkpt lat="43.398557" lon="-4.699473">
        <ele>60.174</ele>
        <time>2022-08-27T18:56:48Z</time>
      </trkpt>
      <trkpt lat="43.398584" lon="-4.699378">
        <ele>60.172</ele>
        <time>2022-08-27T18:56:49Z</time>
      </trkpt>
      <trkpt lat="43.398631" lon="-4.699196">
        <ele>60.562</ele>
        <time>2022-08-27T18:56:51Z</time>
      </trkpt>
      <trkpt lat="43.398654" lon="-4.699109">
        <ele>60.778</ele>
        <time>2022-08-27T18:56:52Z</time>
      </trkpt>
      <trkpt lat="43.398677" lon="-4.699026">
        <ele>61.082</ele>
        <time>2022-08-27T18:56:53Z</time>
      </trkpt>
      <trkpt lat="43.398719" lon="-4.698861">
        <ele>61.499</ele>
        <time>2022-08-27T18:56:55Z</time>
      </trkpt>
      <trkpt lat="43.398736" lon="-4.698784">
        <ele>61.886</ele>
        <time>2022-08-27T18:56:56Z</time>
      </trkpt>
      <trkpt lat="43.398753" lon="-4.698707">
        <ele>62.187</ele>
        <time>2022-08-27T18:56:57Z</time>
      </trkpt>
      <trkpt lat="43.398788" lon="-4.698562">
        <ele>63.242</ele>
        <time>2022-08-27T18:56:59Z</time>
      </trkpt>
      <trkpt lat="43.398810" lon="-4.698425">
        <ele>65.126</ele>
        <time>2022-08-27T18:57:01Z</time>
      </trkpt>
      <trkpt lat="43.398818" lon="-4.698358">
        <ele>65.709</ele>
        <time>2022-08-27T18:57:02Z</time>
      </trkpt>
      <trkpt lat="43.398833" lon="-4.698231">
        <ele>65.979</ele>
        <time>2022-08-27T18:57:04Z</time>
      </trkpt>
      <trkpt lat="43.398843" lon="-4.698118">
        <ele>66.149</ele>
        <time>2022-08-27T18:57:06Z</time>
      </trkpt>
      <trkpt lat="43.398850" lon="-4.698013">
        <ele>66.430</ele>
        <time>2022-08-27T18:57:08Z</time>
      </trkpt>
      <trkpt lat="43.398857" lon="-4.697915">
        <ele>66.558</ele>
        <time>2022-08-27T18:57:10Z</time>
      </trkpt>
      <trkpt lat="43.398859" lon="-4.697823">
        <ele>66.588</ele>
        <time>2022-08-27T18:57:12Z</time>
      </trkpt>
      <trkpt lat="43.398857" lon="-4.697736">
        <ele>66.544</ele>
        <time>2022-08-27T18:57:14Z</time>
      </trkpt>
      <trkpt lat="43.398854" lon="-4.697644">
        <ele>66.558</ele>
        <time>2022-08-27T18:57:16Z</time>
      </trkpt>
      <trkpt lat="43.398854" lon="-4.697542">
        <ele>66.445</ele>
        <time>2022-08-27T18:57:18Z</time>
      </trkpt>
      <trkpt lat="43.398846" lon="-4.697434">
        <ele>66.332</ele>
        <time>2022-08-27T18:57:20Z</time>
      </trkpt>
      <trkpt lat="43.398834" lon="-4.697317">
        <ele>66.949</ele>
        <time>2022-08-27T18:57:22Z</time>
      </trkpt>
      <trkpt lat="43.398821" lon="-4.697202">
        <ele>67.902</ele>
        <time>2022-08-27T18:57:24Z</time>
      </trkpt>
      <trkpt lat="43.398811" lon="-4.697109">
        <ele>68.022</ele>
        <time>2022-08-27T18:57:26Z</time>
      </trkpt>
      <trkpt lat="43.398803" lon="-4.697041">
        <ele>68.409</ele>
        <time>2022-08-27T18:57:28Z</time>
      </trkpt>
      <trkpt lat="43.398786" lon="-4.696958">
        <ele>69.365</ele>
        <time>2022-08-27T18:57:30Z</time>
      </trkpt>
      <trkpt lat="43.398764" lon="-4.696868">
        <ele>70.515</ele>
        <time>2022-08-27T18:57:32Z</time>
      </trkpt>
      <trkpt lat="43.398752" lon="-4.696771">
        <ele>71.726</ele>
        <time>2022-08-27T18:57:34Z</time>
      </trkpt>
      <trkpt lat="43.398732" lon="-4.696683">
        <ele>72.364</ele>
        <time>2022-08-27T18:57:36Z</time>
      </trkpt>
      <trkpt lat="43.398710" lon="-4.696598">
        <ele>72.664</ele>
        <time>2022-08-27T18:57:38Z</time>
      </trkpt>
      <trkpt lat="43.398693" lon="-4.696513">
        <ele>72.650</ele>
        <time>2022-08-27T18:57:40Z</time>
      </trkpt>
      <trkpt lat="43.398683" lon="-4.696436">
        <ele>72.624</ele>
        <time>2022-08-27T18:57:42Z</time>
      </trkpt>
      <trkpt lat="43.398663" lon="-4.696369">
        <ele>73.391</ele>
        <time>2022-08-27T18:57:44Z</time>
      </trkpt>
      <trkpt lat="43.398648" lon="-4.696299">
        <ele>73.518</ele>
        <time>2022-08-27T18:57:46Z</time>
      </trkpt>
      <trkpt lat="43.398633" lon="-4.696236">
        <ele>73.615</ele>
        <time>2022-08-27T18:57:48Z</time>
      </trkpt>
      <trkpt lat="43.398613" lon="-4.696176">
        <ele>74.065</ele>
        <time>2022-08-27T18:57:50Z</time>
      </trkpt>
      <trkpt lat="43.398588" lon="-4.696113">
        <ele>74.511</ele>
        <time>2022-08-27T18:57:52Z</time>
      </trkpt>
      <trkpt lat="43.398566" lon="-4.696050">
        <ele>74.609</ele>
        <time>2022-08-27T18:57:54Z</time>
      </trkpt>
      <trkpt lat="43.398543" lon="-4.695992">
        <ele>74.822</ele>
        <time>2022-08-27T18:57:56Z</time>
      </trkpt>
      <trkpt lat="43.398520" lon="-4.695927">
        <ele>75.362</ele>
        <time>2022-08-27T18:57:58Z</time>
      </trkpt>
      <trkpt lat="43.398498" lon="-4.695865">
        <ele>75.423</ele>
        <time>2022-08-27T18:58:00Z</time>
      </trkpt>
      <trkpt lat="43.398476" lon="-4.695807">
        <ele>75.611</ele>
        <time>2022-08-27T18:58:02Z</time>
      </trkpt>
      <trkpt lat="43.398454" lon="-4.695749">
        <ele>76.121</ele>
        <time>2022-08-27T18:58:04Z</time>
      </trkpt>
      <trkpt lat="43.398427" lon="-4.695687">
        <ele>76.677</ele>
        <time>2022-08-27T18:58:06Z</time>
      </trkpt>
      <trkpt lat="43.398394" lon="-4.695627">
        <ele>76.691</ele>
        <time>2022-08-27T18:58:08Z</time>
      </trkpt>
      <trkpt lat="43.398362" lon="-4.695574">
        <ele>76.618</ele>
        <time>2022-08-27T18:58:10Z</time>
      </trkpt>
      <trkpt lat="43.398329" lon="-4.695521">
        <ele>76.585</ele>
        <time>2022-08-27T18:58:12Z</time>
      </trkpt>
      <trkpt lat="43.398294" lon="-4.695466">
        <ele>76.352</ele>
        <time>2022-08-27T18:58:14Z</time>
      </trkpt>
      <trkpt lat="43.398247" lon="-4.695399">
        <ele>75.153</ele>
        <time>2022-08-27T18:58:17Z</time>
      </trkpt>
      <trkpt lat="43.398215" lon="-4.695347">
        <ele>74.608</ele>
        <time>2022-08-27T18:58:19Z</time>
      </trkpt>
      <trkpt lat="43.398183" lon="-4.695297">
        <ele>74.009</ele>
        <time>2022-08-27T18:58:21Z</time>
      </trkpt>
      <trkpt lat="43.398146" lon="-4.695250">
        <ele>73.596</ele>
        <time>2022-08-27T18:58:23Z</time>
      </trkpt>
      <trkpt lat="43.398109" lon="-4.695205">
        <ele>73.566</ele>
        <time>2022-08-27T18:58:25Z</time>
      </trkpt>
      <trkpt lat="43.398072" lon="-4.695153">
        <ele>73.517</ele>
        <time>2022-08-27T18:58:27Z</time>
      </trkpt>
      <trkpt lat="43.398044" lon="-4.695096">
        <ele>73.685</ele>
        <time>2022-08-27T18:58:29Z</time>
      </trkpt>
      <trkpt lat="43.398012" lon="-4.695038">
        <ele>74.165</ele>
        <time>2022-08-27T18:58:31Z</time>
      </trkpt>
      <trkpt lat="43.397980" lon="-4.694981">
        <ele>74.581</ele>
        <time>2022-08-27T18:58:33Z</time>
      </trkpt>
      <trkpt lat="43.397945" lon="-4.694933">
        <ele>74.555</ele>
        <time>2022-08-27T18:58:35Z</time>
      </trkpt>
      <trkpt lat="43.397912" lon="-4.694886">
        <ele>74.582</ele>
        <time>2022-08-27T18:58:37Z</time>
      </trkpt>
      <trkpt lat="43.397882" lon="-4.694833">
        <ele>74.449</ele>
        <time>2022-08-27T18:58:39Z</time>
      </trkpt>
      <trkpt lat="43.397847" lon="-4.694778">
        <ele>74.275</ele>
        <time>2022-08-27T18:58:41Z</time>
      </trkpt>
      <trkpt lat="43.397807" lon="-4.694726">
        <ele>74.228</ele>
        <time>2022-08-27T18:58:43Z</time>
      </trkpt>
      <trkpt lat="43.397759" lon="-4.694671">
        <ele>74.320</ele>
        <time>2022-08-27T18:58:45Z</time>
      </trkpt>
      <trkpt lat="43.397722" lon="-4.694611">
        <ele>74.809</ele>
        <time>2022-08-27T18:58:47Z</time>
      </trkpt>
      <trkpt lat="43.397685" lon="-4.694551">
        <ele>75.888</ele>
        <time>2022-08-27T18:58:49Z</time>
      </trkpt>
      <trkpt lat="43.397645" lon="-4.694491">
        <ele>76.288</ele>
        <time>2022-08-27T18:58:51Z</time>
      </trkpt>
      <trkpt lat="43.397605" lon="-4.694433">
        <ele>76.539</ele>
        <time>2022-08-27T18:58:53Z</time>
      </trkpt>
      <trkpt lat="43.397573" lon="-4.694375">
        <ele>77.387</ele>
        <time>2022-08-27T18:58:55Z</time>
      </trkpt>
      <trkpt lat="43.397541" lon="-4.694323">
        <ele>78.357</ele>
        <time>2022-08-27T18:58:57Z</time>
      </trkpt>
      <trkpt lat="43.397503" lon="-4.694268">
        <ele>79.943</ele>
        <time>2022-08-27T18:58:59Z</time>
      </trkpt>
      <trkpt lat="43.397470" lon="-4.694215">
        <ele>80.917</ele>
        <time>2022-08-27T18:59:01Z</time>
      </trkpt>
      <trkpt lat="43.397435" lon="-4.694158">
        <ele>81.774</ele>
        <time>2022-08-27T18:59:03Z</time>
      </trkpt>
      <trkpt lat="43.397407" lon="-4.694095">
        <ele>82.731</ele>
        <time>2022-08-27T18:59:05Z</time>
      </trkpt>
      <trkpt lat="43.397374" lon="-4.694050">
        <ele>83.875</ele>
        <time>2022-08-27T18:59:07Z</time>
      </trkpt>
      <trkpt lat="43.397334" lon="-4.693988">
        <ele>84.328</ele>
        <time>2022-08-27T18:59:10Z</time>
      </trkpt>
      <trkpt lat="43.397291" lon="-4.693931">
        <ele>84.320</ele>
        <time>2022-08-27T18:59:13Z</time>
      </trkpt>
      <trkpt lat="43.397254" lon="-4.693866">
        <ele>84.309</ele>
        <time>2022-08-27T18:59:16Z</time>
      </trkpt>
      <trkpt lat="43.397224" lon="-4.693811">
        <ele>84.328</ele>
        <time>2022-08-27T18:59:18Z</time>
      </trkpt>
      <trkpt lat="43.397197" lon="-4.693753">
        <ele>84.218</ele>
        <time>2022-08-27T18:59:20Z</time>
      </trkpt>
      <trkpt lat="43.397180" lon="-4.693685">
        <ele>84.199</ele>
        <time>2022-08-27T18:59:22Z</time>
      </trkpt>
      <trkpt lat="43.397168" lon="-4.693625">
        <ele>84.037</ele>
        <time>2022-08-27T18:59:24Z</time>
      </trkpt>
      <trkpt lat="43.397155" lon="-4.693543">
        <ele>84.077</ele>
        <time>2022-08-27T18:59:27Z</time>
      </trkpt>
      <trkpt lat="43.397123" lon="-4.693448">
        <ele>84.033</ele>
        <time>2022-08-27T18:59:30Z</time>
      </trkpt>
      <trkpt lat="43.397098" lon="-4.693371">
        <ele>83.977</ele>
        <time>2022-08-27T18:59:32Z</time>
      </trkpt>
      <trkpt lat="43.397078" lon="-4.693301">
        <ele>83.864</ele>
        <time>2022-08-27T18:59:34Z</time>
      </trkpt>
      <trkpt lat="43.397050" lon="-4.693243">
        <ele>83.831</ele>
        <time>2022-08-27T18:59:36Z</time>
      </trkpt>
      <trkpt lat="43.397028" lon="-4.693181">
        <ele>83.646</ele>
        <time>2022-08-27T18:59:38Z</time>
      </trkpt>
      <trkpt lat="43.397001" lon="-4.693116">
        <ele>83.688</ele>
        <time>2022-08-27T18:59:40Z</time>
      </trkpt>
      <trkpt lat="43.396983" lon="-4.693051">
        <ele>83.616</ele>
        <time>2022-08-27T18:59:42Z</time>
      </trkpt>
      <trkpt lat="43.396970" lon="-4.692983">
        <ele>83.709</ele>
        <time>2022-08-27T18:59:44Z</time>
      </trkpt>
      <trkpt lat="43.396957" lon="-4.692916">
        <ele>84.045</ele>
        <time>2022-08-27T18:59:46Z</time>
      </trkpt>
      <trkpt lat="43.396945" lon="-4.692849">
        <ele>84.935</ele>
        <time>2022-08-27T18:59:48Z</time>
      </trkpt>
      <trkpt lat="43.396928" lon="-4.692789">
        <ele>85.836</ele>
        <time>2022-08-27T18:59:50Z</time>
      </trkpt>
      <trkpt lat="43.396915" lon="-4.692697">
        <ele>87.134</ele>
        <time>2022-08-27T18:59:53Z</time>
      </trkpt>
      <trkpt lat="43.396908" lon="-4.692635">
        <ele>87.744</ele>
        <time>2022-08-27T18:59:55Z</time>
      </trkpt>
      <trkpt lat="43.396891" lon="-4.692547">
        <ele>88.790</ele>
        <time>2022-08-27T18:59:58Z</time>
      </trkpt>
      <trkpt lat="43.396888" lon="-4.692484">
        <ele>89.234</ele>
        <time>2022-08-27T19:00:00Z</time>
      </trkpt>
      <trkpt lat="43.396886" lon="-4.692419">
        <ele>89.911</ele>
        <time>2022-08-27T19:00:02Z</time>
      </trkpt>
      <trkpt lat="43.396881" lon="-4.692352">
        <ele>90.248</ele>
        <time>2022-08-27T19:00:04Z</time>
      </trkpt>
      <trkpt lat="43.396874" lon="-4.692289">
        <ele>90.471</ele>
        <time>2022-08-27T19:00:06Z</time>
      </trkpt>
      <trkpt lat="43.396884" lon="-4.692217">
        <ele>90.841</ele>
        <time>2022-08-27T19:00:08Z</time>
      </trkpt>
      <trkpt lat="43.396884" lon="-4.692152">
        <ele>91.615</ele>
        <time>2022-08-27T19:00:10Z</time>
      </trkpt>
      <trkpt lat="43.396877" lon="-4.692087">
        <ele>92.809</ele>
        <time>2022-08-27T19:00:12Z</time>
      </trkpt>
      <trkpt lat="43.396869" lon="-4.692025">
        <ele>94.138</ele>
        <time>2022-08-27T19:00:14Z</time>
      </trkpt>
      <trkpt lat="43.396879" lon="-4.691933">
        <ele>95.578</ele>
        <time>2022-08-27T19:00:17Z</time>
      </trkpt>
      <trkpt lat="43.396879" lon="-4.691870">
        <ele>96.149</ele>
        <time>2022-08-27T19:00:19Z</time>
      </trkpt>
      <trkpt lat="43.396886" lon="-4.691798">
        <ele>96.827</ele>
        <time>2022-08-27T19:00:21Z</time>
      </trkpt>
      <trkpt lat="43.396888" lon="-4.691731">
        <ele>97.147</ele>
        <time>2022-08-27T19:00:23Z</time>
      </trkpt>
      <trkpt lat="43.396886" lon="-4.691666">
        <ele>97.463</ele>
        <time>2022-08-27T19:00:25Z</time>
      </trkpt>
      <trkpt lat="43.396893" lon="-4.691578">
        <ele>98.057</ele>
        <time>2022-08-27T19:00:28Z</time>
      </trkpt>
      <trkpt lat="43.396900" lon="-4.691486">
        <ele>98.024</ele>
        <time>2022-08-27T19:00:31Z</time>
      </trkpt>
      <trkpt lat="43.396908" lon="-4.691423">
        <ele>98.041</ele>
        <time>2022-08-27T19:00:33Z</time>
      </trkpt>
      <trkpt lat="43.396913" lon="-4.691351">
        <ele>98.038</ele>
        <time>2022-08-27T19:00:35Z</time>
      </trkpt>
      <trkpt lat="43.396918" lon="-4.691279">
        <ele>98.070</ele>
        <time>2022-08-27T19:00:37Z</time>
      </trkpt>
      <trkpt lat="43.396921" lon="-4.691206">
        <ele>97.817</ele>
        <time>2022-08-27T19:00:39Z</time>
      </trkpt>
      <trkpt lat="43.396926" lon="-4.691136">
        <ele>97.209</ele>
        <time>2022-08-27T19:00:41Z</time>
      </trkpt>
      <trkpt lat="43.396934" lon="-4.691063">
        <ele>97.184</ele>
        <time>2022-08-27T19:00:43Z</time>
      </trkpt>
      <trkpt lat="43.396939" lon="-4.690993">
        <ele>97.084</ele>
        <time>2022-08-27T19:00:45Z</time>
      </trkpt>
      <trkpt lat="43.396951" lon="-4.690928">
        <ele>96.955</ele>
        <time>2022-08-27T19:00:47Z</time>
      </trkpt>
      <trkpt lat="43.396961" lon="-4.690856">
        <ele>96.853</ele>
        <time>2022-08-27T19:00:49Z</time>
      </trkpt>
      <trkpt lat="43.396969" lon="-4.690783">
        <ele>96.893</ele>
        <time>2022-08-27T19:00:51Z</time>
      </trkpt>
      <trkpt lat="43.396974" lon="-4.690705">
        <ele>96.899</ele>
        <time>2022-08-27T19:00:53Z</time>
      </trkpt>
      <trkpt lat="43.396976" lon="-4.690633">
        <ele>96.843</ele>
        <time>2022-08-27T19:00:55Z</time>
      </trkpt>
      <trkpt lat="43.396984" lon="-4.690558">
        <ele>96.990</ele>
        <time>2022-08-27T19:00:57Z</time>
      </trkpt>
      <trkpt lat="43.396997" lon="-4.690478">
        <ele>96.937</ele>
        <time>2022-08-27T19:00:59Z</time>
      </trkpt>
      <trkpt lat="43.397004" lon="-4.690398">
        <ele>96.924</ele>
        <time>2022-08-27T19:01:01Z</time>
      </trkpt>
      <trkpt lat="43.397016" lon="-4.690320">
        <ele>96.704</ele>
        <time>2022-08-27T19:01:03Z</time>
      </trkpt>
      <trkpt lat="43.397026" lon="-4.690238">
        <ele>96.614</ele>
        <time>2022-08-27T19:01:05Z</time>
      </trkpt>
      <trkpt lat="43.397038" lon="-4.690156">
        <ele>96.509</ele>
        <time>2022-08-27T19:01:07Z</time>
      </trkpt>
      <trkpt lat="43.397048" lon="-4.690078">
        <ele>96.233</ele>
        <time>2022-08-27T19:01:09Z</time>
      </trkpt>
      <trkpt lat="43.397056" lon="-4.690016">
        <ele>96.263</ele>
        <time>2022-08-27T19:01:11Z</time>
      </trkpt>
      <trkpt lat="43.397066" lon="-4.689929">
        <ele>96.254</ele>
        <time>2022-08-27T19:01:14Z</time>
      </trkpt>
      <trkpt lat="43.397073" lon="-4.689867">
        <ele>96.262</ele>
        <time>2022-08-27T19:01:16Z</time>
      </trkpt>
      <trkpt lat="43.397078" lon="-4.689800">
        <ele>96.292</ele>
        <time>2022-08-27T19:01:18Z</time>
      </trkpt>
      <trkpt lat="43.397081" lon="-4.689737">
        <ele>96.238</ele>
        <time>2022-08-27T19:01:20Z</time>
      </trkpt>
      <trkpt lat="43.397113" lon="-4.689639">
        <ele>96.362</ele>
        <time>2022-08-27T19:01:30Z</time>
      </trkpt>
      <trkpt lat="43.397128" lon="-4.689579">
        <ele>96.329</ele>
        <time>2022-08-27T19:01:32Z</time>
      </trkpt>
      <trkpt lat="43.397143" lon="-4.689519">
        <ele>96.346</ele>
        <time>2022-08-27T19:01:34Z</time>
      </trkpt>
      <trkpt lat="43.397158" lon="-4.689459">
        <ele>96.328</ele>
        <time>2022-08-27T19:01:36Z</time>
      </trkpt>
      <trkpt lat="43.397178" lon="-4.689374">
        <ele>96.989</ele>
        <time>2022-08-27T19:01:39Z</time>
      </trkpt>
      <trkpt lat="43.397188" lon="-4.689297">
        <ele>97.217</ele>
        <time>2022-08-27T19:01:42Z</time>
      </trkpt>
      <trkpt lat="43.397198" lon="-4.689215">
        <ele>97.509</ele>
        <time>2022-08-27T19:01:45Z</time>
      </trkpt>
      <trkpt lat="43.397210" lon="-4.689142">
        <ele>97.613</ele>
        <time>2022-08-27T19:01:47Z</time>
      </trkpt>
      <trkpt lat="43.397227" lon="-4.689060">
        <ele>97.793</ele>
        <time>2022-08-27T19:01:49Z</time>
      </trkpt>
      <trkpt lat="43.397242" lon="-4.688967">
        <ele>97.814</ele>
        <time>2022-08-27T19:01:51Z</time>
      </trkpt>
      <trkpt lat="43.397250" lon="-4.688864">
        <ele>98.142</ele>
        <time>2022-08-27T19:01:53Z</time>
      </trkpt>
      <trkpt lat="43.397257" lon="-4.688754">
        <ele>98.642</ele>
        <time>2022-08-27T19:01:55Z</time>
      </trkpt>
      <trkpt lat="43.397267" lon="-4.688636">
        <ele>98.718</ele>
        <time>2022-08-27T19:01:57Z</time>
      </trkpt>
      <trkpt lat="43.397274" lon="-4.688523">
        <ele>98.732</ele>
        <time>2022-08-27T19:01:59Z</time>
      </trkpt>
      <trkpt lat="43.397281" lon="-4.688413">
        <ele>98.579</ele>
        <time>2022-08-27T19:02:01Z</time>
      </trkpt>
      <trkpt lat="43.397293" lon="-4.688298">
        <ele>98.466</ele>
        <time>2022-08-27T19:02:03Z</time>
      </trkpt>
      <trkpt lat="43.397298" lon="-4.688236">
        <ele>98.267</ele>
        <time>2022-08-27T19:02:04Z</time>
      </trkpt>
      <trkpt lat="43.397306" lon="-4.688111">
        <ele>97.481</ele>
        <time>2022-08-27T19:02:06Z</time>
      </trkpt>
      <trkpt lat="43.397306" lon="-4.687986">
        <ele>97.019</ele>
        <time>2022-08-27T19:02:08Z</time>
      </trkpt>
      <trkpt lat="43.397306" lon="-4.687864">
        <ele>96.609</ele>
        <time>2022-08-27T19:02:10Z</time>
      </trkpt>
      <trkpt lat="43.397309" lon="-4.687747">
        <ele>96.117</ele>
        <time>2022-08-27T19:02:12Z</time>
      </trkpt>
      <trkpt lat="43.397312" lon="-4.687630">
        <ele>95.847</ele>
        <time>2022-08-27T19:02:14Z</time>
      </trkpt>
      <trkpt lat="43.397315" lon="-4.687518">
        <ele>95.828</ele>
        <time>2022-08-27T19:02:16Z</time>
      </trkpt>
      <trkpt lat="43.397317" lon="-4.687406">
        <ele>95.596</ele>
        <time>2022-08-27T19:02:18Z</time>
      </trkpt>
      <trkpt lat="43.397312" lon="-4.687286">
        <ele>95.266</ele>
        <time>2022-08-27T19:02:20Z</time>
      </trkpt>
      <trkpt lat="43.397305" lon="-4.687164">
        <ele>94.732</ele>
        <time>2022-08-27T19:02:22Z</time>
      </trkpt>
      <trkpt lat="43.397303" lon="-4.687101">
        <ele>94.526</ele>
        <time>2022-08-27T19:02:23Z</time>
      </trkpt>
      <trkpt lat="43.397301" lon="-4.686983">
        <ele>94.423</ele>
        <time>2022-08-27T19:02:25Z</time>
      </trkpt>
      <trkpt lat="43.397301" lon="-4.686868">
        <ele>94.350</ele>
        <time>2022-08-27T19:02:27Z</time>
      </trkpt>
      <trkpt lat="43.397301" lon="-4.686751">
        <ele>94.072</ele>
        <time>2022-08-27T19:02:29Z</time>
      </trkpt>
      <trkpt lat="43.397301" lon="-4.686631">
        <ele>93.513</ele>
        <time>2022-08-27T19:02:31Z</time>
      </trkpt>
      <trkpt lat="43.397303" lon="-4.686566">
        <ele>93.114</ele>
        <time>2022-08-27T19:02:32Z</time>
      </trkpt>
      <trkpt lat="43.397300" lon="-4.686501">
        <ele>92.909</ele>
        <time>2022-08-27T19:02:33Z</time>
      </trkpt>
      <trkpt lat="43.397295" lon="-4.686378">
        <ele>92.578</ele>
        <time>2022-08-27T19:02:35Z</time>
      </trkpt>
      <trkpt lat="43.397282" lon="-4.686253">
        <ele>92.138</ele>
        <time>2022-08-27T19:02:37Z</time>
      </trkpt>
      <trkpt lat="43.397282" lon="-4.686131">
        <ele>92.089</ele>
        <time>2022-08-27T19:02:39Z</time>
      </trkpt>
      <trkpt lat="43.397279" lon="-4.686011">
        <ele>92.047</ele>
        <time>2022-08-27T19:02:41Z</time>
      </trkpt>
      <trkpt lat="43.397264" lon="-4.685891">
        <ele>91.737</ele>
        <time>2022-08-27T19:02:43Z</time>
      </trkpt>
      <trkpt lat="43.397252" lon="-4.685763">
        <ele>91.273</ele>
        <time>2022-08-27T19:02:45Z</time>
      </trkpt>
      <trkpt lat="43.397247" lon="-4.685696">
        <ele>91.287</ele>
        <time>2022-08-27T19:02:46Z</time>
      </trkpt>
      <trkpt lat="43.397240" lon="-4.685628">
        <ele>91.174</ele>
        <time>2022-08-27T19:02:47Z</time>
      </trkpt>
      <trkpt lat="43.397222" lon="-4.685491">
        <ele>91.141</ele>
        <time>2022-08-27T19:02:49Z</time>
      </trkpt>
      <trkpt lat="43.397214" lon="-4.685424">
        <ele>91.049</ele>
        <time>2022-08-27T19:02:50Z</time>
      </trkpt>
      <trkpt lat="43.397197" lon="-4.685292">
        <ele>90.802</ele>
        <time>2022-08-27T19:02:52Z</time>
      </trkpt>
      <trkpt lat="43.397189" lon="-4.685227">
        <ele>90.722</ele>
        <time>2022-08-27T19:02:53Z</time>
      </trkpt>
      <trkpt lat="43.397172" lon="-4.685099">
        <ele>90.609</ele>
        <time>2022-08-27T19:02:55Z</time>
      </trkpt>
      <trkpt lat="43.397155" lon="-4.684967">
        <ele>90.555</ele>
        <time>2022-08-27T19:02:57Z</time>
      </trkpt>
      <trkpt lat="43.397137" lon="-4.684829">
        <ele>90.485</ele>
        <time>2022-08-27T19:02:59Z</time>
      </trkpt>
      <trkpt lat="43.397127" lon="-4.684757">
        <ele>90.326</ele>
        <time>2022-08-27T19:03:00Z</time>
      </trkpt>
      <trkpt lat="43.397109" lon="-4.684617">
        <ele>90.184</ele>
        <time>2022-08-27T19:03:02Z</time>
      </trkpt>
      <trkpt lat="43.397091" lon="-4.684485">
        <ele>89.834</ele>
        <time>2022-08-27T19:03:04Z</time>
      </trkpt>
      <trkpt lat="43.397083" lon="-4.684422">
        <ele>89.770</ele>
        <time>2022-08-27T19:03:05Z</time>
      </trkpt>
      <trkpt lat="43.397073" lon="-4.684359">
        <ele>89.754</ele>
        <time>2022-08-27T19:03:06Z</time>
      </trkpt>
      <trkpt lat="43.397055" lon="-4.684239">
        <ele>89.611</ele>
        <time>2022-08-27T19:03:08Z</time>
      </trkpt>
      <trkpt lat="43.397050" lon="-4.684177">
        <ele>89.578</ele>
        <time>2022-08-27T19:03:09Z</time>
      </trkpt>
      <trkpt lat="43.397038" lon="-4.684054">
        <ele>89.539</ele>
        <time>2022-08-27T19:03:11Z</time>
      </trkpt>
      <trkpt lat="43.397023" lon="-4.683924">
        <ele>89.401</ele>
        <time>2022-08-27T19:03:13Z</time>
      </trkpt>
      <trkpt lat="43.397015" lon="-4.683857">
        <ele>89.521</ele>
        <time>2022-08-27T19:03:14Z</time>
      </trkpt>
      <trkpt lat="43.397010" lon="-4.683790">
        <ele>89.509</ele>
        <time>2022-08-27T19:03:15Z</time>
      </trkpt>
      <trkpt lat="43.397000" lon="-4.683655">
        <ele>89.874</ele>
        <time>2022-08-27T19:03:17Z</time>
      </trkpt>
      <trkpt lat="43.396983" lon="-4.683518">
        <ele>90.024</ele>
        <time>2022-08-27T19:03:19Z</time>
      </trkpt>
      <trkpt lat="43.396966" lon="-4.683378">
        <ele>90.295</ele>
        <time>2022-08-27T19:03:21Z</time>
      </trkpt>
      <trkpt lat="43.396951" lon="-4.683238">
        <ele>90.233</ele>
        <time>2022-08-27T19:03:22Z</time>
      </trkpt>
      <trkpt lat="43.396941" lon="-4.683173">
        <ele>90.243</ele>
        <time>2022-08-27T19:03:24Z</time>
      </trkpt>
      <trkpt lat="43.396921" lon="-4.683043">
        <ele>90.249</ele>
        <time>2022-08-27T19:03:26Z</time>
      </trkpt>
      <trkpt lat="43.396913" lon="-4.682981">
        <ele>90.233</ele>
        <time>2022-08-27T19:03:27Z</time>
      </trkpt>
      <trkpt lat="43.396900" lon="-4.682918">
        <ele>90.270</ele>
        <time>2022-08-27T19:03:28Z</time>
      </trkpt>
      <trkpt lat="43.396887" lon="-4.682788">
        <ele>90.147</ele>
        <time>2022-08-27T19:03:30Z</time>
      </trkpt>
      <trkpt lat="43.396882" lon="-4.682721">
        <ele>90.184</ele>
        <time>2022-08-27T19:03:31Z</time>
      </trkpt>
      <trkpt lat="43.396877" lon="-4.682658">
        <ele>90.107</ele>
        <time>2022-08-27T19:03:32Z</time>
      </trkpt>
      <trkpt lat="43.396859" lon="-4.682533">
        <ele>90.117</ele>
        <time>2022-08-27T19:03:34Z</time>
      </trkpt>
      <trkpt lat="43.396842" lon="-4.682408">
        <ele>90.309</ele>
        <time>2022-08-27T19:03:36Z</time>
      </trkpt>
      <trkpt lat="43.396830" lon="-4.682290">
        <ele>90.649</ele>
        <time>2022-08-27T19:03:38Z</time>
      </trkpt>
      <trkpt lat="43.396817" lon="-4.682167">
        <ele>91.279</ele>
        <time>2022-08-27T19:03:40Z</time>
      </trkpt>
      <trkpt lat="43.396810" lon="-4.682104">
        <ele>91.430</ele>
        <time>2022-08-27T19:03:41Z</time>
      </trkpt>
      <trkpt lat="43.396792" lon="-4.681982">
        <ele>91.868</ele>
        <time>2022-08-27T19:03:43Z</time>
      </trkpt>
      <trkpt lat="43.396780" lon="-4.681870">
        <ele>91.978</ele>
        <time>2022-08-27T19:03:45Z</time>
      </trkpt>
      <trkpt lat="43.396772" lon="-4.681773">
        <ele>92.584</ele>
        <time>2022-08-27T19:03:47Z</time>
      </trkpt>
      <trkpt lat="43.396764" lon="-4.681675">
        <ele>92.758</ele>
        <time>2022-08-27T19:03:49Z</time>
      </trkpt>
      <trkpt lat="43.396756" lon="-4.681583">
        <ele>92.765</ele>
        <time>2022-08-27T19:03:51Z</time>
      </trkpt>
      <trkpt lat="43.396746" lon="-4.681501">
        <ele>92.752</ele>
        <time>2022-08-27T19:03:53Z</time>
      </trkpt>
      <trkpt lat="43.396613" lon="-4.680104">
        <ele>88.478</ele>
        <time>2022-08-27T19:10:03Z</time>
      </trkpt>
      <trkpt lat="43.396616" lon="-4.680036">
        <ele>88.433</ele>
        <time>2022-08-27T19:10:05Z</time>
      </trkpt>
      <trkpt lat="43.396603" lon="-4.679953">
        <ele>88.526</ele>
        <time>2022-08-27T19:10:08Z</time>
      </trkpt>
      <trkpt lat="43.396591" lon="-4.679858">
        <ele>88.409</ele>
        <time>2022-08-27T19:10:10Z</time>
      </trkpt>
      <trkpt lat="43.396578" lon="-4.679756">
        <ele>88.578</ele>
        <time>2022-08-27T19:10:12Z</time>
      </trkpt>
      <trkpt lat="43.396565" lon="-4.679653">
        <ele>88.088</ele>
        <time>2022-08-27T19:10:14Z</time>
      </trkpt>
      <trkpt lat="43.396550" lon="-4.679553">
        <ele>88.059</ele>
        <time>2022-08-27T19:10:16Z</time>
      </trkpt>
      <trkpt lat="43.396535" lon="-4.679458">
        <ele>88.077</ele>
        <time>2022-08-27T19:10:18Z</time>
      </trkpt>
      <trkpt lat="43.396523" lon="-4.679363">
        <ele>88.477</ele>
        <time>2022-08-27T19:10:20Z</time>
      </trkpt>
      <trkpt lat="43.396513" lon="-4.679266">
        <ele>88.753</ele>
        <time>2022-08-27T19:10:22Z</time>
      </trkpt>
      <trkpt lat="43.396501" lon="-4.679169">
        <ele>89.217</ele>
        <time>2022-08-27T19:10:24Z</time>
      </trkpt>
      <trkpt lat="43.396488" lon="-4.679051">
        <ele>89.344</ele>
        <time>2022-08-27T19:10:26Z</time>
      </trkpt>
      <trkpt lat="43.396473" lon="-4.678926">
        <ele>89.371</ele>
        <time>2022-08-27T19:10:28Z</time>
      </trkpt>
      <trkpt lat="43.396460" lon="-4.678803">
        <ele>88.899</ele>
        <time>2022-08-27T19:10:30Z</time>
      </trkpt>
      <trkpt lat="43.396452" lon="-4.678741">
        <ele>88.807</ele>
        <time>2022-08-27T19:10:31Z</time>
      </trkpt>
      <trkpt lat="43.396437" lon="-4.678621">
        <ele>88.627</ele>
        <time>2022-08-27T19:10:33Z</time>
      </trkpt>
      <trkpt lat="43.396422" lon="-4.678506">
        <ele>88.609</ele>
        <time>2022-08-27T19:10:35Z</time>
      </trkpt>
      <trkpt lat="43.396414" lon="-4.678393">
        <ele>88.590</ele>
        <time>2022-08-27T19:10:37Z</time>
      </trkpt>
      <trkpt lat="43.396402" lon="-4.678273">
        <ele>88.530</ele>
        <time>2022-08-27T19:10:39Z</time>
      </trkpt>
      <trkpt lat="43.396389" lon="-4.678155">
        <ele>88.291</ele>
        <time>2022-08-27T19:10:41Z</time>
      </trkpt>
      <trkpt lat="43.396372" lon="-4.678040">
        <ele>88.019</ele>
        <time>2022-08-27T19:10:43Z</time>
      </trkpt>
      <trkpt lat="43.396360" lon="-4.677922">
        <ele>87.619</ele>
        <time>2022-08-27T19:10:45Z</time>
      </trkpt>
      <trkpt lat="43.396353" lon="-4.677860">
        <ele>87.515</ele>
        <time>2022-08-27T19:10:46Z</time>
      </trkpt>
      <trkpt lat="43.396343" lon="-4.677742">
        <ele>87.419</ele>
        <time>2022-08-27T19:10:48Z</time>
      </trkpt>
      <trkpt lat="43.396325" lon="-4.677625">
        <ele>87.146</ele>
        <time>2022-08-27T19:10:50Z</time>
      </trkpt>
      <trkpt lat="43.396308" lon="-4.677507">
        <ele>87.113</ele>
        <time>2022-08-27T19:10:52Z</time>
      </trkpt>
      <trkpt lat="43.396288" lon="-4.677397">
        <ele>87.043</ele>
        <time>2022-08-27T19:10:54Z</time>
      </trkpt>
      <trkpt lat="43.396275" lon="-4.677289">
        <ele>87.064</ele>
        <time>2022-08-27T19:10:56Z</time>
      </trkpt>
      <trkpt lat="43.396258" lon="-4.677181">
        <ele>86.910</ele>
        <time>2022-08-27T19:10:58Z</time>
      </trkpt>
      <trkpt lat="43.396236" lon="-4.677071">
        <ele>86.609</ele>
        <time>2022-08-27T19:11:00Z</time>
      </trkpt>
      <trkpt lat="43.396228" lon="-4.677009">
        <ele>86.625</ele>
        <time>2022-08-27T19:11:01Z</time>
      </trkpt>
      <trkpt lat="43.396221" lon="-4.676879">
        <ele>86.865</ele>
        <time>2022-08-27T19:11:03Z</time>
      </trkpt>
      <trkpt lat="43.396211" lon="-4.676756">
        <ele>87.396</ele>
        <time>2022-08-27T19:11:05Z</time>
      </trkpt>
      <trkpt lat="43.396201" lon="-4.676639">
        <ele>87.324</ele>
        <time>2022-08-27T19:11:07Z</time>
      </trkpt>
      <trkpt lat="43.396186" lon="-4.676527">
        <ele>87.374</ele>
        <time>2022-08-27T19:11:09Z</time>
      </trkpt>
      <trkpt lat="43.396178" lon="-4.676407">
        <ele>86.880</ele>
        <time>2022-08-27T19:11:11Z</time>
      </trkpt>
      <trkpt lat="43.396178" lon="-4.676292">
        <ele>86.784</ele>
        <time>2022-08-27T19:11:13Z</time>
      </trkpt>
      <trkpt lat="43.396183" lon="-4.676182">
        <ele>86.781</ele>
        <time>2022-08-27T19:11:15Z</time>
      </trkpt>
      <trkpt lat="43.396191" lon="-4.676070">
        <ele>86.938</ele>
        <time>2022-08-27T19:11:17Z</time>
      </trkpt>
      <trkpt lat="43.396196" lon="-4.676005">
        <ele>87.089</ele>
        <time>2022-08-27T19:11:18Z</time>
      </trkpt>
      <trkpt lat="43.396204" lon="-4.675937">
        <ele>87.206</ele>
        <time>2022-08-27T19:11:19Z</time>
      </trkpt>
      <trkpt lat="43.396212" lon="-4.675872">
        <ele>87.426</ele>
        <time>2022-08-27T19:11:20Z</time>
      </trkpt>
      <trkpt lat="43.396230" lon="-4.675747">
        <ele>87.509</ele>
        <time>2022-08-27T19:11:22Z</time>
      </trkpt>
      <trkpt lat="43.396247" lon="-4.675620">
        <ele>87.429</ele>
        <time>2022-08-27T19:11:24Z</time>
      </trkpt>
      <trkpt lat="43.396264" lon="-4.675500">
        <ele>87.079</ele>
        <time>2022-08-27T19:11:26Z</time>
      </trkpt>
      <trkpt lat="43.396284" lon="-4.675382">
        <ele>86.690</ele>
        <time>2022-08-27T19:11:28Z</time>
      </trkpt>
      <trkpt lat="43.396304" lon="-4.675265">
        <ele>86.378</ele>
        <time>2022-08-27T19:11:30Z</time>
      </trkpt>
      <trkpt lat="43.396322" lon="-4.675155">
        <ele>86.238</ele>
        <time>2022-08-27T19:11:32Z</time>
      </trkpt>
      <trkpt lat="43.396337" lon="-4.675027">
        <ele>86.184</ele>
        <time>2022-08-27T19:11:34Z</time>
      </trkpt>
      <trkpt lat="43.396350" lon="-4.674909">
        <ele>85.928</ele>
        <time>2022-08-27T19:11:36Z</time>
      </trkpt>
      <trkpt lat="43.396357" lon="-4.674791">
        <ele>85.795</ele>
        <time>2022-08-27T19:11:38Z</time>
      </trkpt>
      <trkpt lat="43.396364" lon="-4.674679">
        <ele>85.542</ele>
        <time>2022-08-27T19:11:40Z</time>
      </trkpt>
      <trkpt lat="43.396367" lon="-4.674566">
        <ele>85.432</ele>
        <time>2022-08-27T19:11:42Z</time>
      </trkpt>
      <trkpt lat="43.396360" lon="-4.674449">
        <ele>85.392</ele>
        <time>2022-08-27T19:11:44Z</time>
      </trkpt>
      <trkpt lat="43.396353" lon="-4.674342">
        <ele>85.111</ele>
        <time>2022-08-27T19:11:46Z</time>
      </trkpt>
      <trkpt lat="43.396345" lon="-4.674247">
        <ele>84.709</ele>
        <time>2022-08-27T19:11:48Z</time>
      </trkpt>
      <trkpt lat="43.396332" lon="-4.674152">
        <ele>84.514</ele>
        <time>2022-08-27T19:11:49Z</time>
      </trkpt>
      <trkpt lat="43.396317" lon="-4.674044">
        <ele>84.494</ele>
        <time>2022-08-27T19:11:52Z</time>
      </trkpt>
      <trkpt lat="43.396300" lon="-4.673939">
        <ele>84.365</ele>
        <time>2022-08-27T19:11:54Z</time>
      </trkpt>
      <trkpt lat="43.396283" lon="-4.673837">
        <ele>84.313</ele>
        <time>2022-08-27T19:11:56Z</time>
      </trkpt>
      <trkpt lat="43.396265" lon="-4.673730">
        <ele>84.223</ele>
        <time>2022-08-27T19:11:58Z</time>
      </trkpt>
      <trkpt lat="43.396245" lon="-4.673632">
        <ele>84.199</ele>
        <time>2022-08-27T19:12:00Z</time>
      </trkpt>
      <trkpt lat="43.396228" lon="-4.673540">
        <ele>84.053</ele>
        <time>2022-08-27T19:12:02Z</time>
      </trkpt>
      <trkpt lat="43.396210" lon="-4.673437">
        <ele>83.820</ele>
        <time>2022-08-27T19:12:04Z</time>
      </trkpt>
      <trkpt lat="43.396197" lon="-4.673344">
        <ele>83.677</ele>
        <time>2022-08-27T19:12:06Z</time>
      </trkpt>
      <trkpt lat="43.396174" lon="-4.673257">
        <ele>83.434</ele>
        <time>2022-08-27T19:12:08Z</time>
      </trkpt>
      <trkpt lat="43.396149" lon="-4.673175">
        <ele>83.255</ele>
        <time>2022-08-27T19:12:10Z</time>
      </trkpt>
      <trkpt lat="43.396147" lon="-4.673102">
        <ele>83.110</ele>
        <time>2022-08-27T19:12:12Z</time>
      </trkpt>
      <trkpt lat="43.396142" lon="-4.673024">
        <ele>83.109</ele>
        <time>2022-08-27T19:12:14Z</time>
      </trkpt>
      <trkpt lat="43.396130" lon="-4.672921">
        <ele>83.234</ele>
        <time>2022-08-27T19:12:16Z</time>
      </trkpt>
      <trkpt lat="43.396122" lon="-4.672801">
        <ele>83.354</ele>
        <time>2022-08-27T19:12:18Z</time>
      </trkpt>
      <trkpt lat="43.396117" lon="-4.672736">
        <ele>83.325</ele>
        <time>2022-08-27T19:12:19Z</time>
      </trkpt>
      <trkpt lat="43.396107" lon="-4.672613">
        <ele>83.873</ele>
        <time>2022-08-27T19:12:21Z</time>
      </trkpt>
      <trkpt lat="43.396102" lon="-4.672501">
        <ele>83.983</ele>
        <time>2022-08-27T19:12:23Z</time>
      </trkpt>
      <trkpt lat="43.396102" lon="-4.672401">
        <ele>83.979</ele>
        <time>2022-08-27T19:12:25Z</time>
      </trkpt>
      <trkpt lat="43.396107" lon="-4.672304">
        <ele>83.793</ele>
        <time>2022-08-27T19:12:27Z</time>
      </trkpt>
      <trkpt lat="43.396117" lon="-4.672212">
        <ele>83.710</ele>
        <time>2022-08-27T19:12:29Z</time>
      </trkpt>
      <trkpt lat="43.396124" lon="-4.672130">
        <ele>83.747</ele>
        <time>2022-08-27T19:12:31Z</time>
      </trkpt>
      <trkpt lat="43.396126" lon="-4.672037">
        <ele>83.781</ele>
        <time>2022-08-27T19:12:33Z</time>
      </trkpt>
      <trkpt lat="43.396136" lon="-4.671920">
        <ele>83.761</ele>
        <time>2022-08-27T19:12:35Z</time>
      </trkpt>
      <trkpt lat="43.396143" lon="-4.671855">
        <ele>83.717</ele>
        <time>2022-08-27T19:12:36Z</time>
      </trkpt>
      <trkpt lat="43.396153" lon="-4.671787">
        <ele>83.609</ele>
        <time>2022-08-27T19:12:37Z</time>
      </trkpt>
      <trkpt lat="43.396176" lon="-4.671662">
        <ele>83.539</ele>
        <time>2022-08-27T19:12:39Z</time>
      </trkpt>
      <trkpt lat="43.396188" lon="-4.671600">
        <ele>83.579</ele>
        <time>2022-08-27T19:12:40Z</time>
      </trkpt>
      <trkpt lat="43.396205" lon="-4.671488">
        <ele>83.670</ele>
        <time>2022-08-27T19:12:42Z</time>
      </trkpt>
      <trkpt lat="43.396217" lon="-4.671380">
        <ele>83.618</ele>
        <time>2022-08-27T19:12:44Z</time>
      </trkpt>
      <trkpt lat="43.396227" lon="-4.671275">
        <ele>83.818</ele>
        <time>2022-08-27T19:12:46Z</time>
      </trkpt>
      <trkpt lat="43.396239" lon="-4.671160">
        <ele>84.184</ele>
        <time>2022-08-27T19:12:48Z</time>
      </trkpt>
      <trkpt lat="43.396244" lon="-4.671095">
        <ele>84.168</ele>
        <time>2022-08-27T19:12:49Z</time>
      </trkpt>
      <trkpt lat="43.396249" lon="-4.670960">
        <ele>84.185</ele>
        <time>2022-08-27T19:12:51Z</time>
      </trkpt>
      <trkpt lat="43.396254" lon="-4.670883">
        <ele>84.172</ele>
        <time>2022-08-27T19:12:52Z</time>
      </trkpt>
      <trkpt lat="43.396267" lon="-4.670731">
        <ele>83.518</ele>
        <time>2022-08-27T19:12:54Z</time>
      </trkpt>
      <trkpt lat="43.396277" lon="-4.670659">
        <ele>83.598</ele>
        <time>2022-08-27T19:12:55Z</time>
      </trkpt>
      <trkpt lat="43.396287" lon="-4.670591">
        <ele>83.517</ele>
        <time>2022-08-27T19:12:56Z</time>
      </trkpt>
      <trkpt lat="43.396294" lon="-4.670523">
        <ele>83.609</ele>
        <time>2022-08-27T19:12:57Z</time>
      </trkpt>
      <trkpt lat="43.396304" lon="-4.670400">
        <ele>83.892</ele>
        <time>2022-08-27T19:12:59Z</time>
      </trkpt>
      <trkpt lat="43.396322" lon="-4.670287">
        <ele>83.842</ele>
        <time>2022-08-27T19:13:01Z</time>
      </trkpt>
      <trkpt lat="43.396337" lon="-4.670182">
        <ele>83.963</ele>
        <time>2022-08-27T19:13:03Z</time>
      </trkpt>
      <trkpt lat="43.396350" lon="-4.670084">
        <ele>84.021</ele>
        <time>2022-08-27T19:13:05Z</time>
      </trkpt>
      <trkpt lat="43.396360" lon="-4.669994">
        <ele>84.561</ele>
        <time>2022-08-27T19:13:07Z</time>
      </trkpt>
      <trkpt lat="43.396365" lon="-4.669912">
        <ele>84.857</ele>
        <time>2022-08-27T19:13:09Z</time>
      </trkpt>
      <trkpt lat="43.396370" lon="-4.669845">
        <ele>85.151</ele>
        <time>2022-08-27T19:13:11Z</time>
      </trkpt>
      <trkpt lat="43.396377" lon="-4.669777">
        <ele>85.668</ele>
        <time>2022-08-27T19:13:13Z</time>
      </trkpt>
      <trkpt lat="43.396385" lon="-4.669694">
        <ele>85.865</ele>
        <time>2022-08-27T19:13:15Z</time>
      </trkpt>
      <trkpt lat="43.396385" lon="-4.669587">
        <ele>85.898</ele>
        <time>2022-08-27T19:13:17Z</time>
      </trkpt>
      <trkpt lat="43.396388" lon="-4.669482">
        <ele>85.515</ele>
        <time>2022-08-27T19:13:19Z</time>
      </trkpt>
      <trkpt lat="43.396393" lon="-4.669385">
        <ele>85.426</ele>
        <time>2022-08-27T19:13:21Z</time>
      </trkpt>
      <trkpt lat="43.396396" lon="-4.669290">
        <ele>85.409</ele>
        <time>2022-08-27T19:13:23Z</time>
      </trkpt>
      <trkpt lat="43.396403" lon="-4.669197">
        <ele>85.660</ele>
        <time>2022-08-27T19:13:25Z</time>
      </trkpt>
      <trkpt lat="43.396405" lon="-4.669109">
        <ele>85.660</ele>
        <time>2022-08-27T19:13:27Z</time>
      </trkpt>
      <trkpt lat="43.396408" lon="-4.669037">
        <ele>85.761</ele>
        <time>2022-08-27T19:13:29Z</time>
      </trkpt>
      <trkpt lat="43.396406" lon="-4.668967">
        <ele>85.739</ele>
        <time>2022-08-27T19:13:31Z</time>
      </trkpt>
      <trkpt lat="43.396394" lon="-4.668889">
        <ele>86.069</ele>
        <time>2022-08-27T19:13:33Z</time>
      </trkpt>
      <trkpt lat="43.396397" lon="-4.668806">
        <ele>86.835</ele>
        <time>2022-08-27T19:13:36Z</time>
      </trkpt>
      <trkpt lat="43.396389" lon="-4.668723">
        <ele>87.399</ele>
        <time>2022-08-27T19:13:39Z</time>
      </trkpt>
      <trkpt lat="43.396381" lon="-4.668625">
        <ele>87.686</ele>
        <time>2022-08-27T19:13:42Z</time>
      </trkpt>
      <trkpt lat="43.396373" lon="-4.668557">
        <ele>88.383</ele>
        <time>2022-08-27T19:13:44Z</time>
      </trkpt>
      <trkpt lat="43.396371" lon="-4.668482">
        <ele>88.857</ele>
        <time>2022-08-27T19:13:46Z</time>
      </trkpt>
      <trkpt lat="43.396368" lon="-4.668400">
        <ele>89.500</ele>
        <time>2022-08-27T19:13:49Z</time>
      </trkpt>
      <trkpt lat="43.396368" lon="-4.668320">
        <ele>89.920</ele>
        <time>2022-08-27T19:13:52Z</time>
      </trkpt>
      <trkpt lat="43.396363" lon="-4.668258">
        <ele>90.009</ele>
        <time>2022-08-27T19:13:54Z</time>
      </trkpt>
      <trkpt lat="43.396356" lon="-4.668173">
        <ele>90.186</ele>
        <time>2022-08-27T19:13:57Z</time>
      </trkpt>
      <trkpt lat="43.396348" lon="-4.668086">
        <ele>90.176</ele>
        <time>2022-08-27T19:14:00Z</time>
      </trkpt>
      <trkpt lat="43.396338" lon="-4.668001">
        <ele>90.147</ele>
        <time>2022-08-27T19:14:03Z</time>
      </trkpt>
      <trkpt lat="43.396331" lon="-4.667906">
        <ele>90.185</ele>
        <time>2022-08-27T19:14:06Z</time>
      </trkpt>
      <trkpt lat="43.396324" lon="-4.667841">
        <ele>90.325</ele>
        <time>2022-08-27T19:14:08Z</time>
      </trkpt>
      <trkpt lat="43.396317" lon="-4.667776">
        <ele>90.721</ele>
        <time>2022-08-27T19:14:10Z</time>
      </trkpt>
      <trkpt lat="43.396309" lon="-4.667709">
        <ele>91.675</ele>
        <time>2022-08-27T19:14:12Z</time>
      </trkpt>
      <trkpt lat="43.396304" lon="-4.667639">
        <ele>91.942</ele>
        <time>2022-08-27T19:14:14Z</time>
      </trkpt>
      <trkpt lat="43.396302" lon="-4.667571">
        <ele>91.959</ele>
        <time>2022-08-27T19:14:16Z</time>
      </trkpt>
      <trkpt lat="43.396294" lon="-4.667484">
        <ele>92.249</ele>
        <time>2022-08-27T19:14:19Z</time>
      </trkpt>
      <trkpt lat="43.396279" lon="-4.667414">
        <ele>93.002</ele>
        <time>2022-08-27T19:14:23Z</time>
      </trkpt>
      <trkpt lat="43.396274" lon="-4.667344">
        <ele>93.322</ele>
        <time>2022-08-27T19:14:27Z</time>
      </trkpt>
      <trkpt lat="43.396277" lon="-4.667267">
        <ele>93.409</ele>
        <time>2022-08-27T19:14:31Z</time>
      </trkpt>
      <trkpt lat="43.396292" lon="-4.667192">
        <ele>93.895</ele>
        <time>2022-08-27T19:14:35Z</time>
      </trkpt>
      <trkpt lat="43.396297" lon="-4.667120">
        <ele>94.645</ele>
        <time>2022-08-27T19:14:39Z</time>
      </trkpt>
      <trkpt lat="43.396354" lon="-4.667040">
        <ele>96.446</ele>
        <time>2022-08-27T19:14:49Z</time>
      </trkpt>
      <trkpt lat="43.396407" lon="-4.667043">
        <ele>96.564</ele>
        <time>2022-08-27T19:14:53Z</time>
      </trkpt>
      <trkpt lat="43.396454" lon="-4.667030">
        <ele>96.534</ele>
        <time>2022-08-27T19:14:55Z</time>
      </trkpt>
      <trkpt lat="43.396499" lon="-4.667010">
        <ele>96.730</ele>
        <time>2022-08-27T19:14:57Z</time>
      </trkpt>
      <trkpt lat="43.396546" lon="-4.667003">
        <ele>96.414</ele>
        <time>2022-08-27T19:15:00Z</time>
      </trkpt>
      <trkpt lat="43.396563" lon="-4.667078">
        <ele>95.921</ele>
        <time>2022-08-27T19:15:04Z</time>
      </trkpt>
      <trkpt lat="43.396525" lon="-4.667136">
        <ele>95.838</ele>
        <time>2022-08-27T19:15:07Z</time>
      </trkpt>
      <trkpt lat="43.396488" lon="-4.667188">
        <ele>95.722</ele>
        <time>2022-08-27T19:15:10Z</time>
      </trkpt>
      <trkpt lat="43.396460" lon="-4.667276">
        <ele>95.762</ele>
        <time>2022-08-27T19:15:13Z</time>
      </trkpt>
      <trkpt lat="43.396450" lon="-4.667349">
        <ele>95.208</ele>
        <time>2022-08-27T19:15:16Z</time>
      </trkpt>
      <trkpt lat="43.396433" lon="-4.667416">
        <ele>95.209</ele>
        <time>2022-08-27T19:15:20Z</time>
      </trkpt>
      <trkpt lat="43.396410" lon="-4.667473">
        <ele>95.283</ele>
        <time>2022-08-27T19:15:23Z</time>
      </trkpt>
      <trkpt lat="43.396362" lon="-4.667635">
        <ele>96.153</ele>
        <time>2022-08-27T19:15:46Z</time>
      </trkpt>
      <trkpt lat="43.396289" lon="-4.667732">
        <ele>98.214</ele>
        <time>2022-08-27T19:17:03Z</time>
      </trkpt>
      <trkpt lat="43.396712" lon="-4.667700">
        <ele>100.462</ele>
        <time>2022-08-27T19:25:26Z</time>
      </trkpt>
      <trkpt lat="43.396592" lon="-4.667715">
        <ele>115.732</ele>
        <time>2022-08-27T19:27:13Z</time>
      </trkpt>
      <trkpt lat="43.396340" lon="-4.667680">
        <ele>87.998</ele>
        <time>2022-08-27T19:31:51Z</time>
      </trkpt>
      <trkpt lat="43.396283" lon="-4.667727">
        <ele>87.932</ele>
        <time>2022-08-27T19:31:55Z</time>
      </trkpt>
      <trkpt lat="43.396216" lon="-4.667752">
        <ele>87.929</ele>
        <time>2022-08-27T19:31:57Z</time>
      </trkpt>
      <trkpt lat="43.396471" lon="-4.667735">
        <ele>57.936</ele>
        <time>2022-08-27T19:33:51Z</time>
      </trkpt>
      <trkpt lat="43.396418" lon="-4.667732">
        <ele>57.937</ele>
        <time>2022-08-27T19:33:54Z</time>
      </trkpt>
      <trkpt lat="43.396458" lon="-4.667700">
        <ele>71.549</ele>
        <time>2022-08-27T19:34:01Z</time>
      </trkpt>
      <trkpt lat="43.396486" lon="-4.667125">
        <ele>94.213</ele>
        <time>2022-08-27T19:38:52Z</time>
      </trkpt>
      <trkpt lat="43.396534" lon="-4.667110">
        <ele>94.209</ele>
        <time>2022-08-27T19:38:55Z</time>
      </trkpt>
      <trkpt lat="43.396562" lon="-4.667055">
        <ele>94.284</ele>
        <time>2022-08-27T19:38:58Z</time>
      </trkpt>
      <trkpt lat="43.396590" lon="-4.666988">
        <ele>94.244</ele>
        <time>2022-08-27T19:39:01Z</time>
      </trkpt>
      <trkpt lat="43.396610" lon="-4.666921">
        <ele>94.285</ele>
        <time>2022-08-27T19:39:03Z</time>
      </trkpt>
      <trkpt lat="43.396632" lon="-4.666854">
        <ele>94.273</ele>
        <time>2022-08-27T19:39:06Z</time>
      </trkpt>
      <trkpt lat="43.396662" lon="-4.666797">
        <ele>94.633</ele>
        <time>2022-08-27T19:39:10Z</time>
      </trkpt>
      <trkpt lat="43.396690" lon="-4.666740">
        <ele>95.169</ele>
        <time>2022-08-27T19:39:13Z</time>
      </trkpt>
      <trkpt lat="43.396707" lon="-4.666658">
        <ele>95.473</ele>
        <time>2022-08-27T19:39:16Z</time>
      </trkpt>
      <trkpt lat="43.396729" lon="-4.666580">
        <ele>95.590</ele>
        <time>2022-08-27T19:39:19Z</time>
      </trkpt>
      <trkpt lat="43.396762" lon="-4.666508">
        <ele>96.417</ele>
        <time>2022-08-27T19:39:22Z</time>
      </trkpt>
      <trkpt lat="43.396777" lon="-4.666433">
        <ele>96.413</ele>
        <time>2022-08-27T19:39:25Z</time>
      </trkpt>
      <trkpt lat="43.396795" lon="-4.666350">
        <ele>96.543</ele>
        <time>2022-08-27T19:39:28Z</time>
      </trkpt>
      <trkpt lat="43.396770" lon="-4.666287">
        <ele>96.607</ele>
        <time>2022-08-27T19:39:30Z</time>
      </trkpt>
      <trkpt lat="43.396725" lon="-4.666250">
        <ele>97.309</ele>
        <time>2022-08-27T19:39:34Z</time>
      </trkpt>
      <trkpt lat="43.396695" lon="-4.666177">
        <ele>98.242</ele>
        <time>2022-08-27T19:39:37Z</time>
      </trkpt>
      <trkpt lat="43.396687" lon="-4.666109">
        <ele>99.722</ele>
        <time>2022-08-27T19:39:40Z</time>
      </trkpt>
      <trkpt lat="43.396679" lon="-4.666036">
        <ele>100.293</ele>
        <time>2022-08-27T19:39:44Z</time>
      </trkpt>
      <trkpt lat="43.396684" lon="-4.665968">
        <ele>100.311</ele>
        <time>2022-08-27T19:39:47Z</time>
      </trkpt>
      <trkpt lat="43.396682" lon="-4.665891">
        <ele>100.291</ele>
        <time>2022-08-27T19:39:51Z</time>
      </trkpt>
      <trkpt lat="43.396714" lon="-4.665834">
        <ele>100.377</ele>
        <time>2022-08-27T19:39:55Z</time>
      </trkpt>
      <trkpt lat="43.396746" lon="-4.665771">
        <ele>100.321</ele>
        <time>2022-08-27T19:40:00Z</time>
      </trkpt>
      <trkpt lat="43.396754" lon="-4.665693">
        <ele>100.278</ele>
        <time>2022-08-27T19:40:03Z</time>
      </trkpt>
      <trkpt lat="43.396756" lon="-4.665626">
        <ele>100.195</ele>
        <time>2022-08-27T19:40:05Z</time>
      </trkpt>
      <trkpt lat="43.396758" lon="-4.665563">
        <ele>99.996</ele>
        <time>2022-08-27T19:40:07Z</time>
      </trkpt>
      <trkpt lat="43.396768" lon="-4.665485">
        <ele>99.831</ele>
        <time>2022-08-27T19:40:08Z</time>
      </trkpt>
      <trkpt lat="43.396783" lon="-4.665415">
        <ele>99.524</ele>
        <time>2022-08-27T19:40:11Z</time>
      </trkpt>
      <trkpt lat="43.396788" lon="-4.665350">
        <ele>100.609</ele>
        <time>2022-08-27T19:40:13Z</time>
      </trkpt>
      <trkpt lat="43.396795" lon="-4.665282">
        <ele>100.790</ele>
        <time>2022-08-27T19:40:15Z</time>
      </trkpt>
      <trkpt lat="43.396812" lon="-4.665147">
        <ele>102.170</ele>
        <time>2022-08-27T19:40:23Z</time>
      </trkpt>
      <trkpt lat="43.396875" lon="-4.665115">
        <ele>102.411</ele>
        <time>2022-08-27T19:40:26Z</time>
      </trkpt>
      <trkpt lat="43.396930" lon="-4.665095">
        <ele>102.539</ele>
        <time>2022-08-27T19:40:27Z</time>
      </trkpt>
      <trkpt lat="43.396985" lon="-4.665077">
        <ele>102.559</ele>
        <time>2022-08-27T19:40:30Z</time>
      </trkpt>
      <trkpt lat="43.397053" lon="-4.665054">
        <ele>103.245</ele>
        <time>2022-08-27T19:40:33Z</time>
      </trkpt>
      <trkpt lat="43.397115" lon="-4.665031">
        <ele>103.749</ele>
        <time>2022-08-27T19:40:35Z</time>
      </trkpt>
      <trkpt lat="43.397160" lon="-4.665008">
        <ele>103.796</ele>
        <time>2022-08-27T19:40:37Z</time>
      </trkpt>
      <trkpt lat="43.397218" lon="-4.665000">
        <ele>103.783</ele>
        <time>2022-08-27T19:40:39Z</time>
      </trkpt>
      <trkpt lat="43.397268" lon="-4.664990">
        <ele>103.783</ele>
        <time>2022-08-27T19:40:40Z</time>
      </trkpt>
      <trkpt lat="43.397318" lon="-4.664977">
        <ele>103.825</ele>
        <time>2022-08-27T19:40:44Z</time>
      </trkpt>
      <trkpt lat="43.397425" lon="-4.664914">
        <ele>105.317</ele>
        <time>2022-08-27T19:40:57Z</time>
      </trkpt>
      <trkpt lat="43.397457" lon="-4.664859">
        <ele>105.309</ele>
        <time>2022-08-27T19:41:01Z</time>
      </trkpt>
      <trkpt lat="43.397490" lon="-4.664789">
        <ele>105.449</ele>
        <time>2022-08-27T19:41:05Z</time>
      </trkpt>
      <trkpt lat="43.397528" lon="-4.664737">
        <ele>105.469</ele>
        <time>2022-08-27T19:41:08Z</time>
      </trkpt>
      <trkpt lat="43.397566" lon="-4.664695">
        <ele>105.620</ele>
        <time>2022-08-27T19:41:11Z</time>
      </trkpt>
      <trkpt lat="43.397613" lon="-4.664658">
        <ele>105.688</ele>
        <time>2022-08-27T19:41:14Z</time>
      </trkpt>
      <trkpt lat="43.397661" lon="-4.664626">
        <ele>105.968</ele>
        <time>2022-08-27T19:41:17Z</time>
      </trkpt>
      <trkpt lat="43.397698" lon="-4.664589">
        <ele>106.164</ele>
        <time>2022-08-27T19:41:19Z</time>
      </trkpt>
      <trkpt lat="43.397733" lon="-4.664547">
        <ele>106.378</ele>
        <time>2022-08-27T19:41:21Z</time>
      </trkpt>
      <trkpt lat="43.397778" lon="-4.664485">
        <ele>108.115</ele>
        <time>2022-08-27T19:41:24Z</time>
      </trkpt>
      <trkpt lat="43.397806" lon="-4.664427">
        <ele>109.892</ele>
        <time>2022-08-27T19:41:27Z</time>
      </trkpt>
      <trkpt lat="43.397843" lon="-4.664369">
        <ele>110.131</ele>
        <time>2022-08-27T19:41:31Z</time>
      </trkpt>
      <trkpt lat="43.397903" lon="-4.664347">
        <ele>110.661</ele>
        <time>2022-08-27T19:41:35Z</time>
      </trkpt>
      <trkpt lat="43.397960" lon="-4.664324">
        <ele>111.307</ele>
        <time>2022-08-27T19:41:38Z</time>
      </trkpt>
      <trkpt lat="43.398015" lon="-4.664287">
        <ele>112.809</ele>
        <time>2022-08-27T19:41:41Z</time>
      </trkpt>
      <trkpt lat="43.398065" lon="-4.664265">
        <ele>114.564</ele>
        <time>2022-08-27T19:41:43Z</time>
      </trkpt>
      <trkpt lat="43.398122" lon="-4.664252">
        <ele>116.384</ele>
        <time>2022-08-27T19:41:45Z</time>
      </trkpt>
      <trkpt lat="43.398179" lon="-4.664257">
        <ele>116.645</ele>
        <time>2022-08-27T19:41:47Z</time>
      </trkpt>
      <trkpt lat="43.398234" lon="-4.664244">
        <ele>116.843</ele>
        <time>2022-08-27T19:41:49Z</time>
      </trkpt>
      <trkpt lat="43.398269" lon="-4.664191">
        <ele>117.173</ele>
        <time>2022-08-27T19:41:51Z</time>
      </trkpt>
      <trkpt lat="43.398307" lon="-4.664104">
        <ele>117.259</ele>
        <time>2022-08-27T19:41:53Z</time>
      </trkpt>
      <trkpt lat="43.398345" lon="-4.664016">
        <ele>117.323</ele>
        <time>2022-08-27T19:41:55Z</time>
      </trkpt>
      <trkpt lat="43.398377" lon="-4.663859">
        <ele>112.310</ele>
        <time>2022-08-27T19:42:09Z</time>
      </trkpt>
      <trkpt lat="43.398395" lon="-4.663791">
        <ele>112.117</ele>
        <time>2022-08-27T19:42:12Z</time>
      </trkpt>
      <trkpt lat="43.398422" lon="-4.663739">
        <ele>112.174</ele>
        <time>2022-08-27T19:42:14Z</time>
      </trkpt>
      <trkpt lat="43.398454" lon="-4.663686">
        <ele>112.156</ele>
        <time>2022-08-27T19:42:16Z</time>
      </trkpt>
      <trkpt lat="43.398486" lon="-4.663626">
        <ele>112.121</ele>
        <time>2022-08-27T19:42:18Z</time>
      </trkpt>
      <trkpt lat="43.398509" lon="-4.663569">
        <ele>108.609</ele>
        <time>2022-08-27T19:42:20Z</time>
      </trkpt>
      <trkpt lat="43.398542" lon="-4.663517">
        <ele>108.458</ele>
        <time>2022-08-27T19:42:22Z</time>
      </trkpt>
      <trkpt lat="43.398587" lon="-4.663477">
        <ele>108.218</ele>
        <time>2022-08-27T19:42:24Z</time>
      </trkpt>
      <trkpt lat="43.398640" lon="-4.663452">
        <ele>108.279</ele>
        <time>2022-08-27T19:42:26Z</time>
      </trkpt>
      <trkpt lat="43.398690" lon="-4.663444">
        <ele>107.877</ele>
        <time>2022-08-27T19:42:28Z</time>
      </trkpt>
      <trkpt lat="43.398742" lon="-4.663449">
        <ele>107.477</ele>
        <time>2022-08-27T19:42:30Z</time>
      </trkpt>
      <trkpt lat="43.398800" lon="-4.663459">
        <ele>107.063</ele>
        <time>2022-08-27T19:42:32Z</time>
      </trkpt>
      <trkpt lat="43.398873" lon="-4.663479">
        <ele>106.937</ele>
        <time>2022-08-27T19:42:34Z</time>
      </trkpt>
      <trkpt lat="43.398935" lon="-4.663506">
        <ele>106.974</ele>
        <time>2022-08-27T19:42:36Z</time>
      </trkpt>
      <trkpt lat="43.398993" lon="-4.663531">
        <ele>106.911</ele>
        <time>2022-08-27T19:42:38Z</time>
      </trkpt>
      <trkpt lat="43.399038" lon="-4.663586">
        <ele>107.039</ele>
        <time>2022-08-27T19:42:40Z</time>
      </trkpt>
      <trkpt lat="43.399083" lon="-4.663659">
        <ele>107.301</ele>
        <time>2022-08-27T19:42:42Z</time>
      </trkpt>
      <trkpt lat="43.399135" lon="-4.663744">
        <ele>107.621</ele>
        <time>2022-08-27T19:42:44Z</time>
      </trkpt>
      <trkpt lat="43.399175" lon="-4.663816">
        <ele>107.709</ele>
        <time>2022-08-27T19:42:46Z</time>
      </trkpt>
      <trkpt lat="43.399213" lon="-4.663881">
        <ele>106.984</ele>
        <time>2022-08-27T19:42:48Z</time>
      </trkpt>
      <trkpt lat="43.399243" lon="-4.663946">
        <ele>106.024</ele>
        <time>2022-08-27T19:42:50Z</time>
      </trkpt>
      <trkpt lat="43.399285" lon="-4.664003">
        <ele>105.765</ele>
        <time>2022-08-27T19:42:52Z</time>
      </trkpt>
      <trkpt lat="43.399323" lon="-4.664050">
        <ele>104.413</ele>
        <time>2022-08-27T19:42:54Z</time>
      </trkpt>
      <trkpt lat="43.399370" lon="-4.664103">
        <ele>102.543</ele>
        <time>2022-08-27T19:42:57Z</time>
      </trkpt>
      <trkpt lat="43.399428" lon="-4.664118">
        <ele>100.689</ele>
        <time>2022-08-27T19:43:00Z</time>
      </trkpt>
      <trkpt lat="43.399471" lon="-4.664101">
        <ele>99.473</ele>
        <time>2022-08-27T19:43:02Z</time>
      </trkpt>
      <trkpt lat="43.399518" lon="-4.664071">
        <ele>98.510</ele>
        <time>2022-08-27T19:43:05Z</time>
      </trkpt>
      <trkpt lat="43.399576" lon="-4.664048">
        <ele>97.437</ele>
        <time>2022-08-27T19:43:09Z</time>
      </trkpt>
      <trkpt lat="43.399623" lon="-4.664053">
        <ele>95.563</ele>
        <time>2022-08-27T19:43:12Z</time>
      </trkpt>
      <trkpt lat="43.399653" lon="-4.664105">
        <ele>94.744</ele>
        <time>2022-08-27T19:43:16Z</time>
      </trkpt>
      <trkpt lat="43.399670" lon="-4.664175">
        <ele>93.518</ele>
        <time>2022-08-27T19:43:19Z</time>
      </trkpt>
      <trkpt lat="43.399675" lon="-4.664240">
        <ele>92.609</ele>
        <time>2022-08-27T19:43:21Z</time>
      </trkpt>
      <trkpt lat="43.399655" lon="-4.664150">
        <ele>91.717</ele>
        <time>2022-08-27T19:43:59Z</time>
      </trkpt>
      <trkpt lat="43.399645" lon="-4.664083">
        <ele>91.787</ele>
        <time>2022-08-27T19:44:01Z</time>
      </trkpt>
      <trkpt lat="43.399638" lon="-4.664006">
        <ele>91.718</ele>
        <time>2022-08-27T19:44:04Z</time>
      </trkpt>
      <trkpt lat="43.399631" lon="-4.664079">
        <ele>93.056</ele>
        <time>2022-08-27T19:44:54Z</time>
      </trkpt>
      <trkpt lat="43.399639" lon="-4.664166">
        <ele>93.016</ele>
        <time>2022-08-27T19:44:56Z</time>
      </trkpt>
      <trkpt lat="43.399661" lon="-4.664259">
        <ele>93.042</ele>
        <time>2022-08-27T19:44:58Z</time>
      </trkpt>
      <trkpt lat="43.399676" lon="-4.664367">
        <ele>93.076</ele>
        <time>2022-08-27T19:45:00Z</time>
      </trkpt>
      <trkpt lat="43.399681" lon="-4.664480">
        <ele>91.393</ele>
        <time>2022-08-27T19:45:01Z</time>
      </trkpt>
      <trkpt lat="43.399674" lon="-4.664590">
        <ele>91.230</ele>
        <time>2022-08-27T19:45:04Z</time>
      </trkpt>
      <trkpt lat="43.399666" lon="-4.664695">
        <ele>90.682</ele>
        <time>2022-08-27T19:45:06Z</time>
      </trkpt>
      <trkpt lat="43.399643" lon="-4.664795">
        <ele>90.643</ele>
        <time>2022-08-27T19:45:08Z</time>
      </trkpt>
      <trkpt lat="43.399623" lon="-4.664887">
        <ele>90.517</ele>
        <time>2022-08-27T19:45:10Z</time>
      </trkpt>
      <trkpt lat="43.399605" lon="-4.664985">
        <ele>90.509</ele>
        <time>2022-08-27T19:45:12Z</time>
      </trkpt>
      <trkpt lat="43.399590" lon="-4.665085">
        <ele>90.489</ele>
        <time>2022-08-27T19:45:14Z</time>
      </trkpt>
      <trkpt lat="43.399582" lon="-4.665192">
        <ele>90.349</ele>
        <time>2022-08-27T19:45:16Z</time>
      </trkpt>
      <trkpt lat="43.399582" lon="-4.665285">
        <ele>90.370</ele>
        <time>2022-08-27T19:45:18Z</time>
      </trkpt>
      <trkpt lat="43.399582" lon="-4.665368">
        <ele>90.368</ele>
        <time>2022-08-27T19:45:20Z</time>
      </trkpt>
      <trkpt lat="43.399582" lon="-4.665460">
        <ele>90.338</ele>
        <time>2022-08-27T19:45:22Z</time>
      </trkpt>
      <trkpt lat="43.399587" lon="-4.665550">
        <ele>90.324</ele>
        <time>2022-08-27T19:45:24Z</time>
      </trkpt>
      <trkpt lat="43.399594" lon="-4.665642">
        <ele>90.548</ele>
        <time>2022-08-27T19:45:26Z</time>
      </trkpt>
      <trkpt lat="43.399604" lon="-4.665735">
        <ele>91.075</ele>
        <time>2022-08-27T19:45:28Z</time>
      </trkpt>
      <trkpt lat="43.399606" lon="-4.665822">
        <ele>91.732</ele>
        <time>2022-08-27T19:45:30Z</time>
      </trkpt>
      <trkpt lat="43.399606" lon="-4.665902">
        <ele>92.239</ele>
        <time>2022-08-27T19:45:32Z</time>
      </trkpt>
      <trkpt lat="43.399603" lon="-4.665990">
        <ele>93.001</ele>
        <time>2022-08-27T19:45:34Z</time>
      </trkpt>
      <trkpt lat="43.399595" lon="-4.666085">
        <ele>93.321</ele>
        <time>2022-08-27T19:45:36Z</time>
      </trkpt>
      <trkpt lat="43.399577" lon="-4.666190">
        <ele>93.409</ele>
        <time>2022-08-27T19:45:38Z</time>
      </trkpt>
      <trkpt lat="43.399554" lon="-4.666290">
        <ele>93.434</ele>
        <time>2022-08-27T19:45:40Z</time>
      </trkpt>
      <trkpt lat="43.399536" lon="-4.666383">
        <ele>93.444</ele>
        <time>2022-08-27T19:45:42Z</time>
      </trkpt>
      <trkpt lat="43.399514" lon="-4.666491">
        <ele>93.495</ele>
        <time>2022-08-27T19:45:44Z</time>
      </trkpt>
      <trkpt lat="43.399499" lon="-4.666594">
        <ele>92.913</ele>
        <time>2022-08-27T19:45:46Z</time>
      </trkpt>
      <trkpt lat="43.399482" lon="-4.666699">
        <ele>92.593</ele>
        <time>2022-08-27T19:45:48Z</time>
      </trkpt>
      <trkpt lat="43.399462" lon="-4.666807">
        <ele>92.269</ele>
        <time>2022-08-27T19:45:50Z</time>
      </trkpt>
      <trkpt lat="43.399440" lon="-4.666905">
        <ele>92.263</ele>
        <time>2022-08-27T19:45:52Z</time>
      </trkpt>
      <trkpt lat="43.399418" lon="-4.666998">
        <ele>92.770</ele>
        <time>2022-08-27T19:45:54Z</time>
      </trkpt>
      <trkpt lat="43.399391" lon="-4.667096">
        <ele>92.827</ele>
        <time>2022-08-27T19:45:56Z</time>
      </trkpt>
      <trkpt lat="43.399359" lon="-4.667198">
        <ele>92.975</ele>
        <time>2022-08-27T19:45:58Z</time>
      </trkpt>
      <trkpt lat="43.399329" lon="-4.667301">
        <ele>92.928</ele>
        <time>2022-08-27T19:46:00Z</time>
      </trkpt>
      <trkpt lat="43.399302" lon="-4.667401">
        <ele>92.820</ele>
        <time>2022-08-27T19:46:02Z</time>
      </trkpt>
      <trkpt lat="43.399264" lon="-4.667501">
        <ele>92.609</ele>
        <time>2022-08-27T19:46:04Z</time>
      </trkpt>
      <trkpt lat="43.399222" lon="-4.667601">
        <ele>92.648</ele>
        <time>2022-08-27T19:46:06Z</time>
      </trkpt>
      <trkpt lat="43.399179" lon="-4.667701">
        <ele>92.698</ele>
        <time>2022-08-27T19:46:08Z</time>
      </trkpt>
      <trkpt lat="43.399126" lon="-4.667793">
        <ele>92.429</ele>
        <time>2022-08-27T19:46:10Z</time>
      </trkpt>
      <trkpt lat="43.399094" lon="-4.667838">
        <ele>92.077</ele>
        <time>2022-08-27T19:46:11Z</time>
      </trkpt>
      <trkpt lat="43.399034" lon="-4.667921">
        <ele>91.277</ele>
        <time>2022-08-27T19:46:13Z</time>
      </trkpt>
      <trkpt lat="43.398989" lon="-4.668008">
        <ele>91.253</ele>
        <time>2022-08-27T19:46:15Z</time>
      </trkpt>
      <trkpt lat="43.398996" lon="-4.668110">
        <ele>91.017</ele>
        <time>2022-08-27T19:46:17Z</time>
      </trkpt>
      <trkpt lat="43.399051" lon="-4.668175">
        <ele>91.014</ele>
        <time>2022-08-27T19:46:19Z</time>
      </trkpt>
      <trkpt lat="43.399121" lon="-4.668230">
        <ele>91.221</ele>
        <time>2022-08-27T19:46:20Z</time>
      </trkpt>
      <trkpt lat="43.399164" lon="-4.668260">
        <ele>91.443</ele>
        <time>2022-08-27T19:46:22Z</time>
      </trkpt>
      <trkpt lat="43.399219" lon="-4.668338">
        <ele>92.364</ele>
        <time>2022-08-27T19:46:24Z</time>
      </trkpt>
      <trkpt lat="43.399282" lon="-4.668420">
        <ele>92.710</ele>
        <time>2022-08-27T19:46:26Z</time>
      </trkpt>
      <trkpt lat="43.399347" lon="-4.668480">
        <ele>92.709</ele>
        <time>2022-08-27T19:46:28Z</time>
      </trkpt>
      <trkpt lat="43.399420" lon="-4.668490">
        <ele>92.525</ele>
        <time>2022-08-27T19:46:30Z</time>
      </trkpt>
      <trkpt lat="43.399490" lon="-4.668460">
        <ele>92.355</ele>
        <time>2022-08-27T19:46:32Z</time>
      </trkpt>
      <trkpt lat="43.399562" lon="-4.668405">
        <ele>91.966</ele>
        <time>2022-08-27T19:46:34Z</time>
      </trkpt>
      <trkpt lat="43.399629" lon="-4.668305">
        <ele>91.164</ele>
        <time>2022-08-27T19:46:36Z</time>
      </trkpt>
      <trkpt lat="43.399662" lon="-4.668245">
        <ele>90.894</ele>
        <time>2022-08-27T19:46:37Z</time>
      </trkpt>
      <trkpt lat="43.399735" lon="-4.668117">
        <ele>88.970</ele>
        <time>2022-08-27T19:46:39Z</time>
      </trkpt>
      <trkpt lat="43.399813" lon="-4.667975">
        <ele>86.964</ele>
        <time>2022-08-27T19:46:41Z</time>
      </trkpt>
      <trkpt lat="43.399855" lon="-4.667897">
        <ele>86.251</ele>
        <time>2022-08-27T19:46:42Z</time>
      </trkpt>
      <trkpt lat="43.399938" lon="-4.667717">
        <ele>84.298</ele>
        <time>2022-08-27T19:46:44Z</time>
      </trkpt>
      <trkpt lat="43.400011" lon="-4.667519">
        <ele>83.269</ele>
        <time>2022-08-27T19:46:46Z</time>
      </trkpt>
      <trkpt lat="43.400069" lon="-4.667327">
        <ele>83.004</ele>
        <time>2022-08-27T19:46:48Z</time>
      </trkpt>
      <trkpt lat="43.400132" lon="-4.667157">
        <ele>82.224</ele>
        <time>2022-08-27T19:46:50Z</time>
      </trkpt>
      <trkpt lat="43.400177" lon="-4.667084">
        <ele>81.909</ele>
        <time>2022-08-27T19:46:51Z</time>
      </trkpt>
      <trkpt lat="43.400299" lon="-4.666992">
        <ele>81.047</ele>
        <time>2022-08-27T19:46:53Z</time>
      </trkpt>
      <trkpt lat="43.400434" lon="-4.666940">
        <ele>80.887</ele>
        <time>2022-08-27T19:46:55Z</time>
      </trkpt>
      <trkpt lat="43.400554" lon="-4.666900">
        <ele>81.378</ele>
        <time>2022-08-27T19:46:57Z</time>
      </trkpt>
      <trkpt lat="43.400681" lon="-4.666888">
        <ele>81.396</ele>
        <time>2022-08-27T19:46:59Z</time>
      </trkpt>
      <trkpt lat="43.400751" lon="-4.666866">
        <ele>81.746</ele>
        <time>2022-08-27T19:47:01Z</time>
      </trkpt>
      <trkpt lat="43.400828" lon="-4.666854">
        <ele>81.712</ele>
        <time>2022-08-27T19:47:03Z</time>
      </trkpt>
      <trkpt lat="43.400896" lon="-4.666836">
        <ele>81.926</ele>
        <time>2022-08-27T19:47:05Z</time>
      </trkpt>
      <trkpt lat="43.400961" lon="-4.666818">
        <ele>82.033</ele>
        <time>2022-08-27T19:47:07Z</time>
      </trkpt>
      <trkpt lat="43.401029" lon="-4.666803">
        <ele>82.140</ele>
        <time>2022-08-27T19:47:09Z</time>
      </trkpt>
      <trkpt lat="43.401102" lon="-4.666780">
        <ele>82.122</ele>
        <time>2022-08-27T19:47:11Z</time>
      </trkpt>
      <trkpt lat="43.401147" lon="-4.666723">
        <ele>82.062</ele>
        <time>2022-08-27T19:47:13Z</time>
      </trkpt>
      <trkpt lat="43.401142" lon="-4.666658">
        <ele>82.008</ele>
        <time>2022-08-27T19:47:15Z</time>
      </trkpt>
      <trkpt lat="43.401117" lon="-4.666593">
        <ele>82.009</ele>
        <time>2022-08-27T19:47:17Z</time>
      </trkpt>
      <trkpt lat="43.401089" lon="-4.666538">
        <ele>81.953</ele>
        <time>2022-08-27T19:47:19Z</time>
      </trkpt>
      <trkpt lat="43.401059" lon="-4.666488">
        <ele>81.943</ele>
        <time>2022-08-27T19:47:21Z</time>
      </trkpt>
      <trkpt lat="43.401029" lon="-4.666441">
        <ele>82.084</ele>
        <time>2022-08-27T19:47:23Z</time>
      </trkpt>
      <trkpt lat="43.400984" lon="-4.666366">
        <ele>82.312</ele>
        <time>2022-08-27T19:47:26Z</time>
      </trkpt>
      <trkpt lat="43.400949" lon="-4.666308">
        <ele>83.422</ele>
        <time>2022-08-27T19:47:28Z</time>
      </trkpt>
      <trkpt lat="43.400906" lon="-4.666240">
        <ele>84.328</ele>
        <time>2022-08-27T19:47:29Z</time>
      </trkpt>
      <trkpt lat="43.400856" lon="-4.666177">
        <ele>85.122</ele>
        <time>2022-08-27T19:47:32Z</time>
      </trkpt>
      <trkpt lat="43.400804" lon="-4.666109">
        <ele>85.969</ele>
        <time>2022-08-27T19:47:34Z</time>
      </trkpt>
      <trkpt lat="43.400752" lon="-4.666034">
        <ele>86.376</ele>
        <time>2022-08-27T19:47:36Z</time>
      </trkpt>
      <trkpt lat="43.400715" lon="-4.665954">
        <ele>86.419</ele>
        <time>2022-08-27T19:47:38Z</time>
      </trkpt>
      <trkpt lat="43.400693" lon="-4.665879">
        <ele>86.609</ele>
        <time>2022-08-27T19:47:40Z</time>
      </trkpt>
      <trkpt lat="43.400676" lon="-4.665806">
        <ele>86.719</ele>
        <time>2022-08-27T19:47:42Z</time>
      </trkpt>
      <trkpt lat="43.400656" lon="-4.665736">
        <ele>86.809</ele>
        <time>2022-08-27T19:47:44Z</time>
      </trkpt>
      <trkpt lat="43.400634" lon="-4.665681">
        <ele>87.022</ele>
        <time>2022-08-27T19:47:46Z</time>
      </trkpt>
      <trkpt lat="43.400617" lon="-4.665619">
        <ele>88.012</ele>
        <time>2022-08-27T19:47:49Z</time>
      </trkpt>
      <trkpt lat="43.400602" lon="-4.665542">
        <ele>89.023</ele>
        <time>2022-08-27T19:47:53Z</time>
      </trkpt>
      <trkpt lat="43.400597" lon="-4.665474">
        <ele>90.641</ele>
        <time>2022-08-27T19:47:57Z</time>
      </trkpt>
      <trkpt lat="43.400594" lon="-4.665407">
        <ele>91.831</ele>
        <time>2022-08-27T19:48:00Z</time>
      </trkpt>
      <trkpt lat="43.400567" lon="-4.665339">
        <ele>93.557</ele>
        <time>2022-08-27T19:48:04Z</time>
      </trkpt>
      <trkpt lat="43.400550" lon="-4.665277">
        <ele>95.121</ele>
        <time>2022-08-27T19:48:07Z</time>
      </trkpt>
      <trkpt lat="43.400530" lon="-4.665220">
        <ele>96.338</ele>
        <time>2022-08-27T19:48:10Z</time>
      </trkpt>
      <trkpt lat="43.400510" lon="-4.665158">
        <ele>97.065</ele>
        <time>2022-08-27T19:48:13Z</time>
      </trkpt>
      <trkpt lat="43.400488" lon="-4.665093">
        <ele>97.081</ele>
        <time>2022-08-27T19:48:16Z</time>
      </trkpt>
      <trkpt lat="43.400475" lon="-4.665023">
        <ele>97.161</ele>
        <time>2022-08-27T19:48:19Z</time>
      </trkpt>
      <trkpt lat="43.400457" lon="-4.664958">
        <ele>96.917</ele>
        <time>2022-08-27T19:48:22Z</time>
      </trkpt>
      <trkpt lat="43.400440" lon="-4.664888">
        <ele>96.509</ele>
        <time>2022-08-27T19:48:25Z</time>
      </trkpt>
      <trkpt lat="43.400420" lon="-4.664816">
        <ele>96.519</ele>
        <time>2022-08-27T19:48:28Z</time>
      </trkpt>
      <trkpt lat="43.400395" lon="-4.664741">
        <ele>96.559</ele>
        <time>2022-08-27T19:48:31Z</time>
      </trkpt>
      <trkpt lat="43.400368" lon="-4.664664">
        <ele>96.550</ele>
        <time>2022-08-27T19:48:34Z</time>
      </trkpt>
      <trkpt lat="43.400348" lon="-4.664579">
        <ele>96.538</ele>
        <time>2022-08-27T19:48:37Z</time>
      </trkpt>
      <trkpt lat="43.400336" lon="-4.664519">
        <ele>96.648</ele>
        <time>2022-08-27T19:48:39Z</time>
      </trkpt>
      <trkpt lat="43.400323" lon="-4.664457">
        <ele>97.054</ele>
        <time>2022-08-27T19:48:41Z</time>
      </trkpt>
      <trkpt lat="43.400308" lon="-4.664392">
        <ele>97.178</ele>
        <time>2022-08-27T19:48:43Z</time>
      </trkpt>
      <trkpt lat="43.400293" lon="-4.664324">
        <ele>97.355</ele>
        <time>2022-08-27T19:48:45Z</time>
      </trkpt>
      <trkpt lat="43.400285" lon="-4.664254">
        <ele>97.322</ele>
        <time>2022-08-27T19:48:47Z</time>
      </trkpt>
      <trkpt lat="43.400277" lon="-4.664182">
        <ele>97.323</ele>
        <time>2022-08-27T19:48:49Z</time>
      </trkpt>
      <trkpt lat="43.400260" lon="-4.664117">
        <ele>97.183</ele>
        <time>2022-08-27T19:48:51Z</time>
      </trkpt>
      <trkpt lat="43.400238" lon="-4.664032">
        <ele>96.911</ele>
        <time>2022-08-27T19:48:54Z</time>
      </trkpt>
      <trkpt lat="43.400220" lon="-4.663950">
        <ele>96.809</ele>
        <time>2022-08-27T19:48:57Z</time>
      </trkpt>
      <trkpt lat="43.400198" lon="-4.663868">
        <ele>96.583</ele>
        <time>2022-08-27T19:49:00Z</time>
      </trkpt>
      <trkpt lat="43.400186" lon="-4.663803">
        <ele>96.243</ele>
        <time>2022-08-27T19:49:02Z</time>
      </trkpt>
      <trkpt lat="43.400173" lon="-4.663726">
        <ele>95.984</ele>
        <time>2022-08-27T19:49:04Z</time>
      </trkpt>
      <trkpt lat="43.400156" lon="-4.663626">
        <ele>95.882</ele>
        <time>2022-08-27T19:49:06Z</time>
      </trkpt>
      <trkpt lat="43.400136" lon="-4.663519">
        <ele>95.782</ele>
        <time>2022-08-27T19:49:08Z</time>
      </trkpt>
      <trkpt lat="43.400123" lon="-4.663422">
        <ele>94.698</ele>
        <time>2022-08-27T19:49:10Z</time>
      </trkpt>
      <trkpt lat="43.400113" lon="-4.663325">
        <ele>93.692</ele>
        <time>2022-08-27T19:49:12Z</time>
      </trkpt>
      <trkpt lat="43.400110" lon="-4.663212">
        <ele>92.829</ele>
        <time>2022-08-27T19:49:14Z</time>
      </trkpt>
      <trkpt lat="43.400105" lon="-4.663075">
        <ele>90.956</ele>
        <time>2022-08-27T19:49:16Z</time>
      </trkpt>
      <trkpt lat="43.400097" lon="-4.662930">
        <ele>89.014</ele>
        <time>2022-08-27T19:49:18Z</time>
      </trkpt>
      <trkpt lat="43.400084" lon="-4.662807">
        <ele>87.754</ele>
        <time>2022-08-27T19:49:20Z</time>
      </trkpt>
      <trkpt lat="43.400071" lon="-4.662740">
        <ele>87.109</ele>
        <time>2022-08-27T19:49:21Z</time>
      </trkpt>
      <trkpt lat="43.400053" lon="-4.662667">
        <ele>86.609</ele>
        <time>2022-08-27T19:49:22Z</time>
      </trkpt>
      <trkpt lat="43.400008" lon="-4.662507">
        <ele>85.222</ele>
        <time>2022-08-27T19:49:23Z</time>
      </trkpt>
      <trkpt lat="43.399981" lon="-4.662415">
        <ele>84.152</ele>
        <time>2022-08-27T19:49:25Z</time>
      </trkpt>
      <trkpt lat="43.399941" lon="-4.662242">
        <ele>83.623</ele>
        <time>2022-08-27T19:49:27Z</time>
      </trkpt>
      <trkpt lat="43.399923" lon="-4.662155">
        <ele>83.641</ele>
        <time>2022-08-27T19:49:28Z</time>
      </trkpt>
      <trkpt lat="43.399886" lon="-4.661990">
        <ele>83.851</ele>
        <time>2022-08-27T19:49:30Z</time>
      </trkpt>
      <trkpt lat="43.399869" lon="-4.661912">
        <ele>84.187</ele>
        <time>2022-08-27T19:49:31Z</time>
      </trkpt>
      <trkpt lat="43.399854" lon="-4.661837">
        <ele>84.251</ele>
        <time>2022-08-27T19:49:32Z</time>
      </trkpt>
      <trkpt lat="43.399842" lon="-4.661769">
        <ele>84.468</ele>
        <time>2022-08-27T19:49:33Z</time>
      </trkpt>
      <trkpt lat="43.399832" lon="-4.661652">
        <ele>84.345</ele>
        <time>2022-08-27T19:49:35Z</time>
      </trkpt>
      <trkpt lat="43.399829" lon="-4.661535">
        <ele>84.265</ele>
        <time>2022-08-27T19:49:37Z</time>
      </trkpt>
      <trkpt lat="43.399824" lon="-4.661383">
        <ele>84.068</ele>
        <time>2022-08-27T19:49:39Z</time>
      </trkpt>
      <trkpt lat="43.399824" lon="-4.661298">
        <ele>83.814</ele>
        <time>2022-08-27T19:49:40Z</time>
      </trkpt>
      <trkpt lat="43.399819" lon="-4.661131">
        <ele>83.409</ele>
        <time>2022-08-27T19:49:42Z</time>
      </trkpt>
      <trkpt lat="43.399814" lon="-4.661053">
        <ele>83.337</ele>
        <time>2022-08-27T19:49:43Z</time>
      </trkpt>
      <trkpt lat="43.399812" lon="-4.660973">
        <ele>83.297</ele>
        <time>2022-08-27T19:49:44Z</time>
      </trkpt>
      <trkpt lat="43.399842" lon="-4.660831">
        <ele>83.248</ele>
        <time>2022-08-27T19:49:46Z</time>
      </trkpt>
      <trkpt lat="43.399875" lon="-4.660779">
        <ele>83.276</ele>
        <time>2022-08-27T19:49:47Z</time>
      </trkpt>
      <trkpt lat="43.399938" lon="-4.660697">
        <ele>83.866</ele>
        <time>2022-08-27T19:49:49Z</time>
      </trkpt>
      <trkpt lat="43.399968" lon="-4.660609">
        <ele>84.172</ele>
        <time>2022-08-27T19:49:51Z</time>
      </trkpt>
      <trkpt lat="43.399990" lon="-4.660521">
        <ele>84.166</ele>
        <time>2022-08-27T19:49:53Z</time>
      </trkpt>
      <trkpt lat="43.400028" lon="-4.660438">
        <ele>83.663</ele>
        <time>2022-08-27T19:49:55Z</time>
      </trkpt>
      <trkpt lat="43.400100" lon="-4.660353">
        <ele>82.150</ele>
        <time>2022-08-27T19:49:57Z</time>
      </trkpt>
      <trkpt lat="43.400143" lon="-4.660313">
        <ele>81.389</ele>
        <time>2022-08-27T19:49:58Z</time>
      </trkpt>
      <trkpt lat="43.400230" lon="-4.660258">
        <ele>79.206</ele>
        <time>2022-08-27T19:50:00Z</time>
      </trkpt>
      <trkpt lat="43.400307" lon="-4.660208">
        <ele>78.626</ele>
        <time>2022-08-27T19:50:02Z</time>
      </trkpt>
      <trkpt lat="43.400382" lon="-4.660175">
        <ele>78.609</ele>
        <time>2022-08-27T19:50:04Z</time>
      </trkpt>
      <trkpt lat="43.400455" lon="-4.660155">
        <ele>78.639</ele>
        <time>2022-08-27T19:50:06Z</time>
      </trkpt>
      <trkpt lat="43.400525" lon="-4.660138">
        <ele>78.639</ele>
        <time>2022-08-27T19:50:08Z</time>
      </trkpt>
      <trkpt lat="43.400593" lon="-4.660121">
        <ele>78.640</ele>
        <time>2022-08-27T19:50:10Z</time>
      </trkpt>
      <trkpt lat="43.400655" lon="-4.660094">
        <ele>79.098</ele>
        <time>2022-08-27T19:50:12Z</time>
      </trkpt>
      <trkpt lat="43.400703" lon="-4.660057">
        <ele>79.768</ele>
        <time>2022-08-27T19:50:14Z</time>
      </trkpt>
      <trkpt lat="43.400741" lon="-4.660007">
        <ele>80.394</ele>
        <time>2022-08-27T19:50:16Z</time>
      </trkpt>
      <trkpt lat="43.400773" lon="-4.659949">
        <ele>80.868</ele>
        <time>2022-08-27T19:50:18Z</time>
      </trkpt>
      <trkpt lat="43.400801" lon="-4.659887">
        <ele>81.715</ele>
        <time>2022-08-27T19:50:20Z</time>
      </trkpt>
      <trkpt lat="43.400823" lon="-4.659817">
        <ele>82.572</ele>
        <time>2022-08-27T19:50:22Z</time>
      </trkpt>
      <trkpt lat="43.400845" lon="-4.659750">
        <ele>82.845</ele>
        <time>2022-08-27T19:50:24Z</time>
      </trkpt>
      <trkpt lat="43.400867" lon="-4.659680">
        <ele>83.347</ele>
        <time>2022-08-27T19:50:26Z</time>
      </trkpt>
      <trkpt lat="43.400887" lon="-4.659612">
        <ele>84.511</ele>
        <time>2022-08-27T19:50:28Z</time>
      </trkpt>
      <trkpt lat="43.400905" lon="-4.659542">
        <ele>85.609</ele>
        <time>2022-08-27T19:50:30Z</time>
      </trkpt>
      <trkpt lat="43.400925" lon="-4.659455">
        <ele>86.565</ele>
        <time>2022-08-27T19:50:33Z</time>
      </trkpt>
      <trkpt lat="43.400942" lon="-4.659367">
        <ele>86.865</ele>
        <time>2022-08-27T19:50:36Z</time>
      </trkpt>
      <trkpt lat="43.400957" lon="-4.659307">
        <ele>87.146</ele>
        <time>2022-08-27T19:50:38Z</time>
      </trkpt>
      <trkpt lat="43.400969" lon="-4.659239">
        <ele>87.434</ele>
        <time>2022-08-27T19:50:40Z</time>
      </trkpt>
      <trkpt lat="43.400979" lon="-4.659172">
        <ele>87.424</ele>
        <time>2022-08-27T19:50:42Z</time>
      </trkpt>
      <trkpt lat="43.400992" lon="-4.659102">
        <ele>87.760</ele>
        <time>2022-08-27T19:50:44Z</time>
      </trkpt>
      <trkpt lat="43.401007" lon="-4.659034">
        <ele>88.194</ele>
        <time>2022-08-27T19:50:46Z</time>
      </trkpt>
      <trkpt lat="43.401015" lon="-4.658966">
        <ele>88.351</ele>
        <time>2022-08-27T19:50:48Z</time>
      </trkpt>
      <trkpt lat="43.401017" lon="-4.658901">
        <ele>88.848</ele>
        <time>2022-08-27T19:50:50Z</time>
      </trkpt>
      <trkpt lat="43.401015" lon="-4.658813">
        <ele>89.379</ele>
        <time>2022-08-27T19:50:53Z</time>
      </trkpt>
      <trkpt lat="43.401020" lon="-4.658746">
        <ele>89.405</ele>
        <time>2022-08-27T19:50:55Z</time>
      </trkpt>
      <trkpt lat="43.401037" lon="-4.658641">
        <ele>89.425</ele>
        <time>2022-08-27T19:50:57Z</time>
      </trkpt>
      <trkpt lat="43.401030" lon="-4.658541">
        <ele>89.409</ele>
        <time>2022-08-27T19:50:59Z</time>
      </trkpt>
      <trkpt lat="43.401000" lon="-4.658448">
        <ele>88.618</ele>
        <time>2022-08-27T19:51:01Z</time>
      </trkpt>
      <trkpt lat="43.400970" lon="-4.658401">
        <ele>87.678</ele>
        <time>2022-08-27T19:51:02Z</time>
      </trkpt>
      <trkpt lat="43.400928" lon="-4.658359">
        <ele>86.519</ele>
        <time>2022-08-27T19:51:03Z</time>
      </trkpt>
      <trkpt lat="43.400830" lon="-4.658291">
        <ele>85.887</ele>
        <time>2022-08-27T19:51:05Z</time>
      </trkpt>
      <trkpt lat="43.400780" lon="-4.658268">
        <ele>85.787</ele>
        <time>2022-08-27T19:51:06Z</time>
      </trkpt>
      <trkpt lat="43.400693" lon="-4.658218">
        <ele>85.943</ele>
        <time>2022-08-27T19:51:08Z</time>
      </trkpt>
      <trkpt lat="43.400626" lon="-4.658180">
        <ele>86.467</ele>
        <time>2022-08-27T19:51:10Z</time>
      </trkpt>
      <trkpt lat="43.400524" lon="-4.658138">
        <ele>86.574</ele>
        <time>2022-08-27T19:51:53Z</time>
      </trkpt>
      <trkpt lat="43.400442" lon="-4.658095">
        <ele>86.561</ele>
        <time>2022-08-27T19:51:55Z</time>
      </trkpt>
      <trkpt lat="43.400375" lon="-4.658053">
        <ele>86.583</ele>
        <time>2022-08-27T19:51:57Z</time>
      </trkpt>
      <trkpt lat="43.400332" lon="-4.658005">
        <ele>86.525</ele>
        <time>2022-08-27T19:51:59Z</time>
      </trkpt>
      <trkpt lat="43.400295" lon="-4.657947">
        <ele>86.517</ele>
        <time>2022-08-27T19:52:01Z</time>
      </trkpt>
      <trkpt lat="43.400265" lon="-4.657892">
        <ele>86.609</ele>
        <time>2022-08-27T19:52:03Z</time>
      </trkpt>
      <trkpt lat="43.400222" lon="-4.657839">
        <ele>87.439</ele>
        <time>2022-08-27T19:52:06Z</time>
      </trkpt>
      <trkpt lat="43.400190" lon="-4.657779">
        <ele>87.669</ele>
        <time>2022-08-27T19:52:09Z</time>
      </trkpt>
      <trkpt lat="43.400155" lon="-4.657714">
        <ele>87.810</ele>
        <time>2022-08-27T19:52:12Z</time>
      </trkpt>
      <trkpt lat="43.400122" lon="-4.657642">
        <ele>87.948</ele>
        <time>2022-08-27T19:52:15Z</time>
      </trkpt>
      <trkpt lat="43.400094" lon="-4.657584">
        <ele>87.948</ele>
        <time>2022-08-27T19:52:17Z</time>
      </trkpt>
      <trkpt lat="43.400066" lon="-4.657521">
        <ele>87.944</ele>
        <time>2022-08-27T19:52:19Z</time>
      </trkpt>
      <trkpt lat="43.400036" lon="-4.657444">
        <ele>87.938</ele>
        <time>2022-08-27T19:52:21Z</time>
      </trkpt>
      <trkpt lat="43.400009" lon="-4.657364">
        <ele>87.925</ele>
        <time>2022-08-27T19:52:23Z</time>
      </trkpt>
      <trkpt lat="43.399984" lon="-4.657287">
        <ele>87.742</ele>
        <time>2022-08-27T19:52:25Z</time>
      </trkpt>
      <trkpt lat="43.399976" lon="-4.657220">
        <ele>87.788</ele>
        <time>2022-08-27T19:52:27Z</time>
      </trkpt>
      <trkpt lat="43.399951" lon="-4.657140">
        <ele>88.024</ele>
        <time>2022-08-27T19:52:30Z</time>
      </trkpt>
      <trkpt lat="43.399921" lon="-4.657060">
        <ele>88.026</ele>
        <time>2022-08-27T19:52:33Z</time>
      </trkpt>
      <trkpt lat="43.399894" lon="-4.657002">
        <ele>88.009</ele>
        <time>2022-08-27T19:52:35Z</time>
      </trkpt>
      <trkpt lat="43.399862" lon="-4.656940">
        <ele>88.019</ele>
        <time>2022-08-27T19:52:37Z</time>
      </trkpt>
      <trkpt lat="43.399835" lon="-4.656868">
        <ele>88.069</ele>
        <time>2022-08-27T19:52:39Z</time>
      </trkpt>
      <trkpt lat="43.399823" lon="-4.656800">
        <ele>88.080</ele>
        <time>2022-08-27T19:52:41Z</time>
      </trkpt>
      <trkpt lat="43.399810" lon="-4.656733">
        <ele>88.028</ele>
        <time>2022-08-27T19:52:43Z</time>
      </trkpt>
      <trkpt lat="43.399788" lon="-4.656668">
        <ele>88.268</ele>
        <time>2022-08-27T19:52:45Z</time>
      </trkpt>
      <trkpt lat="43.399770" lon="-4.656605">
        <ele>88.334</ele>
        <time>2022-08-27T19:52:47Z</time>
      </trkpt>
      <trkpt lat="43.399743" lon="-4.656527">
        <ele>88.768</ele>
        <time>2022-08-27T19:52:49Z</time>
      </trkpt>
      <trkpt lat="43.399713" lon="-4.656427">
        <ele>89.215</ele>
        <time>2022-08-27T19:52:51Z</time>
      </trkpt>
      <trkpt lat="43.399671" lon="-4.656335">
        <ele>89.582</ele>
        <time>2022-08-27T19:52:53Z</time>
      </trkpt>
      <trkpt lat="43.399639" lon="-4.656242">
        <ele>89.577</ele>
        <time>2022-08-27T19:52:55Z</time>
      </trkpt>
      <trkpt lat="43.399627" lon="-4.656149">
        <ele>89.461</ele>
        <time>2022-08-27T19:52:57Z</time>
      </trkpt>
      <trkpt lat="43.399630" lon="-4.656062">
        <ele>89.127</ele>
        <time>2022-08-27T19:52:59Z</time>
      </trkpt>
      <trkpt lat="43.399653" lon="-4.656004">
        <ele>88.409</ele>
        <time>2022-08-27T19:53:01Z</time>
      </trkpt>
      <trkpt lat="43.399671" lon="-4.655937">
        <ele>87.998</ele>
        <time>2022-08-27T19:53:02Z</time>
      </trkpt>
      <trkpt lat="43.399683" lon="-4.655860">
        <ele>87.298</ele>
        <time>2022-08-27T19:53:05Z</time>
      </trkpt>
      <trkpt lat="43.399688" lon="-4.655780">
        <ele>86.789</ele>
        <time>2022-08-27T19:53:07Z</time>
      </trkpt>
      <trkpt lat="43.399683" lon="-4.655697">
        <ele>86.337</ele>
        <time>2022-08-27T19:53:08Z</time>
      </trkpt>
      <trkpt lat="43.399680" lon="-4.655609">
        <ele>85.767</ele>
        <time>2022-08-27T19:53:11Z</time>
      </trkpt>
      <trkpt lat="43.399685" lon="-4.655504">
        <ele>84.683</ele>
        <time>2022-08-27T19:53:13Z</time>
      </trkpt>
      <trkpt lat="43.399705" lon="-4.655447">
        <ele>84.067</ele>
        <time>2022-08-27T19:53:14Z</time>
      </trkpt>
      <trkpt lat="43.399733" lon="-4.655380">
        <ele>83.914</ele>
        <time>2022-08-27T19:53:15Z</time>
      </trkpt>
      <trkpt lat="43.399786" lon="-4.655265">
        <ele>82.451</ele>
        <time>2022-08-27T19:53:17Z</time>
      </trkpt>
      <trkpt lat="43.399808" lon="-4.655208">
        <ele>81.762</ele>
        <time>2022-08-27T19:53:18Z</time>
      </trkpt>
      <trkpt lat="43.399825" lon="-4.655090">
        <ele>81.083</ele>
        <time>2022-08-27T19:53:20Z</time>
      </trkpt>
      <trkpt lat="43.399812" lon="-4.654973">
        <ele>80.711</ele>
        <time>2022-08-27T19:53:22Z</time>
      </trkpt>
      <trkpt lat="43.399765" lon="-4.654896">
        <ele>80.709</ele>
        <time>2022-08-27T19:53:24Z</time>
      </trkpt>
      <trkpt lat="43.399720" lon="-4.654833">
        <ele>81.417</ele>
        <time>2022-08-27T19:53:26Z</time>
      </trkpt>
      <trkpt lat="43.399698" lon="-4.654768">
        <ele>81.447</ele>
        <time>2022-08-27T19:53:28Z</time>
      </trkpt>
      <trkpt lat="43.399688" lon="-4.654691">
        <ele>81.478</ele>
        <time>2022-08-27T19:53:30Z</time>
      </trkpt>
      <trkpt lat="43.399680" lon="-4.654614">
        <ele>81.146</ele>
        <time>2022-08-27T19:53:32Z</time>
      </trkpt>
      <trkpt lat="43.399668" lon="-4.654542">
        <ele>80.736</ele>
        <time>2022-08-27T19:53:35Z</time>
      </trkpt>
      <trkpt lat="43.399648" lon="-4.654480">
        <ele>80.532</ele>
        <time>2022-08-27T19:53:38Z</time>
      </trkpt>
      <trkpt lat="43.399636" lon="-4.654402">
        <ele>80.056</ele>
        <time>2022-08-27T19:53:41Z</time>
      </trkpt>
      <trkpt lat="43.399638" lon="-4.654322">
        <ele>79.543</ele>
        <time>2022-08-27T19:53:44Z</time>
      </trkpt>
      <trkpt lat="43.399656" lon="-4.654237">
        <ele>78.580</ele>
        <time>2022-08-27T19:53:47Z</time>
      </trkpt>
      <trkpt lat="43.399656" lon="-4.654167">
        <ele>77.075</ele>
        <time>2022-08-27T19:53:49Z</time>
      </trkpt>
      <trkpt lat="43.399646" lon="-4.654079">
        <ele>74.128</ele>
        <time>2022-08-27T19:53:52Z</time>
      </trkpt>
      <trkpt lat="43.399624" lon="-4.654009">
        <ele>72.220</ele>
        <time>2022-08-27T19:53:55Z</time>
      </trkpt>
      <trkpt lat="43.399596" lon="-4.653941">
        <ele>70.709</ele>
        <time>2022-08-27T19:53:58Z</time>
      </trkpt>
      <trkpt lat="43.399546" lon="-4.653909">
        <ele>69.778</ele>
        <time>2022-08-27T19:54:01Z</time>
      </trkpt>
      <trkpt lat="43.399494" lon="-4.653939">
        <ele>69.088</ele>
        <time>2022-08-27T19:54:04Z</time>
      </trkpt>
      <trkpt lat="43.399444" lon="-4.653961">
        <ele>68.649</ele>
        <time>2022-08-27T19:54:07Z</time>
      </trkpt>
      <trkpt lat="43.399389" lon="-4.653961">
        <ele>68.517</ele>
        <time>2022-08-27T19:54:10Z</time>
      </trkpt>
      <trkpt lat="43.399361" lon="-4.653913">
        <ele>68.337</ele>
        <time>2022-08-27T19:54:13Z</time>
      </trkpt>
      <trkpt lat="43.399384" lon="-4.653843">
        <ele>67.693</ele>
        <time>2022-08-27T19:54:15Z</time>
      </trkpt>
      <trkpt lat="43.399429" lon="-4.653823">
        <ele>66.877</ele>
        <time>2022-08-27T19:54:17Z</time>
      </trkpt>
      <trkpt lat="43.399497" lon="-4.653795">
        <ele>65.754</ele>
        <time>2022-08-27T19:54:20Z</time>
      </trkpt>
      <trkpt lat="43.399532" lon="-4.653732">
        <ele>64.991</ele>
        <time>2022-08-27T19:54:22Z</time>
      </trkpt>
      <trkpt lat="43.399550" lon="-4.653659">
        <ele>64.163</ele>
        <time>2022-08-27T19:54:24Z</time>
      </trkpt>
      <trkpt lat="43.399567" lon="-4.653584">
        <ele>63.244</ele>
        <time>2022-08-27T19:54:26Z</time>
      </trkpt>
      <trkpt lat="43.399589" lon="-4.653514">
        <ele>61.818</ele>
        <time>2022-08-27T19:54:28Z</time>
      </trkpt>
      <trkpt lat="43.399622" lon="-4.653454">
        <ele>61.009</ele>
        <time>2022-08-27T19:54:30Z</time>
      </trkpt>
      <trkpt lat="43.399655" lon="-4.653384">
        <ele>59.817</ele>
        <time>2022-08-27T19:54:33Z</time>
      </trkpt>
      <trkpt lat="43.399685" lon="-4.653329">
        <ele>58.837</ele>
        <time>2022-08-27T19:54:35Z</time>
      </trkpt>
      <trkpt lat="43.399728" lon="-4.653269">
        <ele>57.948</ele>
        <time>2022-08-27T19:54:37Z</time>
      </trkpt>
      <trkpt lat="43.399778" lon="-4.653222">
        <ele>57.676</ele>
        <time>2022-08-27T19:54:39Z</time>
      </trkpt>
      <trkpt lat="43.399830" lon="-4.653182">
        <ele>57.616</ele>
        <time>2022-08-27T19:54:41Z</time>
      </trkpt>
      <trkpt lat="43.399883" lon="-4.653144">
        <ele>57.692</ele>
        <time>2022-08-27T19:54:43Z</time>
      </trkpt>
      <trkpt lat="43.399928" lon="-4.653132">
        <ele>57.936</ele>
        <time>2022-08-27T19:54:45Z</time>
      </trkpt>
      <trkpt lat="43.399995" lon="-4.653114">
        <ele>58.763</ele>
        <time>2022-08-27T19:54:48Z</time>
      </trkpt>
      <trkpt lat="43.400053" lon="-4.653102">
        <ele>58.820</ele>
        <time>2022-08-27T19:54:51Z</time>
      </trkpt>
      <trkpt lat="43.400106" lon="-4.653075">
        <ele>59.043</ele>
        <time>2022-08-27T19:54:54Z</time>
      </trkpt>
      <trkpt lat="43.400146" lon="-4.653038">
        <ele>59.164</ele>
        <time>2022-08-27T19:54:57Z</time>
      </trkpt>
      <trkpt lat="43.400183" lon="-4.652993">
        <ele>59.410</ele>
        <time>2022-08-27T19:55:01Z</time>
      </trkpt>
      <trkpt lat="43.400265" lon="-4.652848">
        <ele>58.709</ele>
        <time>2022-08-27T19:55:18Z</time>
      </trkpt>
      <trkpt lat="43.400398" lon="-4.652840">
        <ele>58.025</ele>
        <time>2022-08-27T19:55:19Z</time>
      </trkpt>
      <trkpt lat="43.400448" lon="-4.652878">
        <ele>58.735</ele>
        <time>2022-08-27T19:55:22Z</time>
      </trkpt>
      <trkpt lat="43.400251" lon="-4.652958">
        <ele>59.656</ele>
        <time>2022-08-27T19:55:26Z</time>
      </trkpt>
      <trkpt lat="43.400139" lon="-4.653036">
        <ele>58.874</ele>
        <time>2022-08-27T19:55:40Z</time>
      </trkpt>
      <trkpt lat="43.400092" lon="-4.653051">
        <ele>58.814</ele>
        <time>2022-08-27T19:55:44Z</time>
      </trkpt>
      <trkpt lat="43.400042" lon="-4.653056">
        <ele>58.860</ele>
        <time>2022-08-27T19:55:47Z</time>
      </trkpt>
      <trkpt lat="43.399980" lon="-4.653063">
        <ele>58.814</ele>
        <time>2022-08-27T19:55:49Z</time>
      </trkpt>
      <trkpt lat="43.399933" lon="-4.653080">
        <ele>59.441</ele>
        <time>2022-08-27T19:55:52Z</time>
      </trkpt>
      <trkpt lat="43.399875" lon="-4.653102">
        <ele>59.798</ele>
        <time>2022-08-27T19:55:54Z</time>
      </trkpt>
      <trkpt lat="43.399825" lon="-4.653160">
        <ele>60.993</ele>
        <time>2022-08-27T19:55:59Z</time>
      </trkpt>
      <trkpt lat="43.399787" lon="-4.653195">
        <ele>62.165</ele>
        <time>2022-08-27T19:56:01Z</time>
      </trkpt>
      <trkpt lat="43.399727" lon="-4.653227">
        <ele>63.221</ele>
        <time>2022-08-27T19:56:04Z</time>
      </trkpt>
      <trkpt lat="43.399687" lon="-4.653297">
        <ele>63.909</ele>
        <time>2022-08-27T19:56:07Z</time>
      </trkpt>
      <trkpt lat="43.399642" lon="-4.653304">
        <ele>65.050</ele>
        <time>2022-08-27T19:56:09Z</time>
      </trkpt>
      <trkpt lat="43.399609" lon="-4.653259">
        <ele>65.340</ele>
        <time>2022-08-27T19:56:12Z</time>
      </trkpt>
      <trkpt lat="43.399594" lon="-4.653177">
        <ele>65.371</ele>
        <time>2022-08-27T19:56:15Z</time>
      </trkpt>
      <trkpt lat="43.399597" lon="-4.653112">
        <ele>65.239</ele>
        <time>2022-08-27T19:56:17Z</time>
      </trkpt>
      <trkpt lat="43.399604" lon="-4.653050">
        <ele>64.879</ele>
        <time>2022-08-27T19:56:19Z</time>
      </trkpt>
      <trkpt lat="43.399639" lon="-4.652995">
        <ele>64.795</ele>
        <time>2022-08-27T19:56:23Z</time>
      </trkpt>
      <trkpt lat="43.399682" lon="-4.652945">
        <ele>64.369</ele>
        <time>2022-08-27T19:56:27Z</time>
      </trkpt>
      <trkpt lat="43.399714" lon="-4.652895">
        <ele>64.336</ele>
        <time>2022-08-27T19:56:30Z</time>
      </trkpt>
      <trkpt lat="43.399736" lon="-4.652822">
        <ele>64.343</ele>
        <time>2022-08-27T19:56:34Z</time>
      </trkpt>
      <trkpt lat="43.399756" lon="-4.652754">
        <ele>64.626</ele>
        <time>2022-08-27T19:56:38Z</time>
      </trkpt>
      <trkpt lat="43.399786" lon="-4.652689">
        <ele>65.047</ele>
        <time>2022-08-27T19:56:45Z</time>
      </trkpt>
      <trkpt lat="43.399774" lon="-4.652612">
        <ele>65.211</ele>
        <time>2022-08-27T19:56:49Z</time>
      </trkpt>
      <trkpt lat="43.399771" lon="-4.652537">
        <ele>65.209</ele>
        <time>2022-08-27T19:56:53Z</time>
      </trkpt>
      <trkpt lat="43.399791" lon="-4.652454">
        <ele>65.113</ele>
        <time>2022-08-27T19:56:57Z</time>
      </trkpt>
      <trkpt lat="43.399794" lon="-4.652382">
        <ele>65.243</ele>
        <time>2022-08-27T19:57:00Z</time>
      </trkpt>
      <trkpt lat="43.399777" lon="-4.652312">
        <ele>65.154</ele>
        <time>2022-08-27T19:57:04Z</time>
      </trkpt>
      <trkpt lat="43.399675" lon="-4.652270">
        <ele>67.682</ele>
        <time>2022-08-27T19:57:36Z</time>
      </trkpt>
      <trkpt lat="43.399670" lon="-4.652193">
        <ele>67.662</ele>
        <time>2022-08-27T19:57:39Z</time>
      </trkpt>
      <trkpt lat="43.399660" lon="-4.652066">
        <ele>67.638</ele>
        <time>2022-08-27T19:58:06Z</time>
      </trkpt>
      <trkpt lat="43.399623" lon="-4.652029">
        <ele>73.392</ele>
        <time>2022-08-27T19:58:10Z</time>
      </trkpt>
      <trkpt lat="43.399573" lon="-4.652067">
        <ele>73.389</ele>
        <time>2022-08-27T19:58:14Z</time>
      </trkpt>
      <trkpt lat="43.399545" lon="-4.652124">
        <ele>73.366</ele>
        <time>2022-08-27T19:58:16Z</time>
      </trkpt>
      <trkpt lat="43.399513" lon="-4.652171">
        <ele>73.319</ele>
        <time>2022-08-27T19:58:20Z</time>
      </trkpt>
      <trkpt lat="43.399473" lon="-4.652224">
        <ele>79.109</ele>
        <time>2022-08-27T19:58:24Z</time>
      </trkpt>
      <trkpt lat="43.399433" lon="-4.652259">
        <ele>80.319</ele>
        <time>2022-08-27T19:58:27Z</time>
      </trkpt>
      <trkpt lat="43.399376" lon="-4.652269">
        <ele>81.409</ele>
        <time>2022-08-27T19:58:31Z</time>
      </trkpt>
      <trkpt lat="43.399333" lon="-4.652249">
        <ele>81.452</ele>
        <time>2022-08-27T19:58:34Z</time>
      </trkpt>
      <trkpt lat="43.399311" lon="-4.652171">
        <ele>81.162</ele>
        <time>2022-08-27T19:58:44Z</time>
      </trkpt>
      <trkpt lat="43.399303" lon="-4.652034">
        <ele>81.483</ele>
        <time>2022-08-27T19:58:53Z</time>
      </trkpt>
      <trkpt lat="43.399321" lon="-4.651976">
        <ele>81.361</ele>
        <time>2022-08-27T19:58:57Z</time>
      </trkpt>
      <trkpt lat="43.399359" lon="-4.651903">
        <ele>83.571</ele>
        <time>2022-08-27T19:59:03Z</time>
      </trkpt>
      <trkpt lat="43.399416" lon="-4.651855">
        <ele>85.997</ele>
        <time>2022-08-27T19:59:10Z</time>
      </trkpt>
      <trkpt lat="43.399439" lon="-4.651790">
        <ele>86.971</ele>
        <time>2022-08-27T19:59:14Z</time>
      </trkpt>
      <trkpt lat="43.399454" lon="-4.651725">
        <ele>88.328</ele>
        <time>2022-08-27T19:59:18Z</time>
      </trkpt>
      <trkpt lat="43.399477" lon="-4.651663">
        <ele>89.695</ele>
        <time>2022-08-27T19:59:22Z</time>
      </trkpt>
      <trkpt lat="43.399514" lon="-4.651603">
        <ele>90.058</ele>
        <time>2022-08-27T19:59:26Z</time>
      </trkpt>
      <trkpt lat="43.399547" lon="-4.651561">
        <ele>90.152</ele>
        <time>2022-08-27T19:59:29Z</time>
      </trkpt>
      <trkpt lat="43.399582" lon="-4.651511">
        <ele>90.817</ele>
        <time>2022-08-27T19:59:33Z</time>
      </trkpt>
      <trkpt lat="43.399602" lon="-4.651448">
        <ele>92.009</ele>
        <time>2022-08-27T19:59:37Z</time>
      </trkpt>
      <trkpt lat="43.399625" lon="-4.651376">
        <ele>92.836</ele>
        <time>2022-08-27T19:59:42Z</time>
      </trkpt>
      <trkpt lat="43.399640" lon="-4.651316">
        <ele>93.516</ele>
        <time>2022-08-27T19:59:46Z</time>
      </trkpt>
      <trkpt lat="43.399667" lon="-4.651229">
        <ele>94.347</ele>
        <time>2022-08-27T19:59:53Z</time>
      </trkpt>
      <trkpt lat="43.399679" lon="-4.651159">
        <ele>94.695</ele>
        <time>2022-08-27T19:59:57Z</time>
      </trkpt>
      <trkpt lat="43.399681" lon="-4.651096">
        <ele>94.725</ele>
        <time>2022-08-27T20:00:00Z</time>
      </trkpt>
      <trkpt lat="43.399679" lon="-4.651011">
        <ele>94.981</ele>
        <time>2022-08-27T20:00:07Z</time>
      </trkpt>
      <trkpt lat="43.399692" lon="-4.650916">
        <ele>95.355</ele>
        <time>2022-08-27T20:00:16Z</time>
      </trkpt>
      <trkpt lat="43.399734" lon="-4.650856">
        <ele>95.332</ele>
        <time>2022-08-27T20:00:19Z</time>
      </trkpt>
      <trkpt lat="43.399756" lon="-4.650784">
        <ele>95.379</ele>
        <time>2022-08-27T20:00:22Z</time>
      </trkpt>
      <trkpt lat="43.399786" lon="-4.650722">
        <ele>95.282</ele>
        <time>2022-08-27T20:00:26Z</time>
      </trkpt>
      <trkpt lat="43.399819" lon="-4.650675">
        <ele>94.843</ele>
        <time>2022-08-27T20:00:29Z</time>
      </trkpt>
      <trkpt lat="43.399857" lon="-4.650632">
        <ele>93.217</ele>
        <time>2022-08-27T20:00:33Z</time>
      </trkpt>
      <trkpt lat="43.399904" lon="-4.650682">
        <ele>93.809</ele>
        <time>2022-08-27T20:00:45Z</time>
      </trkpt>
      <trkpt lat="43.399932" lon="-4.650740">
        <ele>93.639</ele>
        <time>2022-08-27T20:00:48Z</time>
      </trkpt>
      <trkpt lat="43.399985" lon="-4.650643">
        <ele>92.979</ele>
        <time>2022-08-27T20:01:05Z</time>
      </trkpt>
      <trkpt lat="43.399933" lon="-4.650720">
        <ele>93.110</ele>
        <time>2022-08-27T20:01:25Z</time>
      </trkpt>
      <trkpt lat="43.399906" lon="-4.650803">
        <ele>93.178</ele>
        <time>2022-08-27T20:01:43Z</time>
      </trkpt>
      <trkpt lat="43.399949" lon="-4.650858">
        <ele>94.528</ele>
        <time>2022-08-27T20:01:46Z</time>
      </trkpt>
      <trkpt lat="43.400001" lon="-4.650915">
        <ele>95.154</ele>
        <time>2022-08-27T20:01:49Z</time>
      </trkpt>
      <trkpt lat="43.400038" lon="-4.650960">
        <ele>95.118</ele>
        <time>2022-08-27T20:01:52Z</time>
      </trkpt>
      <trkpt lat="43.400086" lon="-4.650990">
        <ele>95.115</ele>
        <time>2022-08-27T20:01:56Z</time>
      </trkpt>
      <trkpt lat="43.400134" lon="-4.651003">
        <ele>96.282</ele>
        <time>2022-08-27T20:01:59Z</time>
      </trkpt>
      <trkpt lat="43.400187" lon="-4.651053">
        <ele>96.277</ele>
        <time>2022-08-27T20:02:02Z</time>
      </trkpt>
      <trkpt lat="43.400227" lon="-4.651096">
        <ele>96.261</ele>
        <time>2022-08-27T20:02:04Z</time>
      </trkpt>
      <trkpt lat="43.400269" lon="-4.651133">
        <ele>95.927</ele>
        <time>2022-08-27T20:02:06Z</time>
      </trkpt>
      <trkpt lat="43.400306" lon="-4.651170">
        <ele>95.609</ele>
        <time>2022-08-27T20:02:08Z</time>
      </trkpt>
      <trkpt lat="43.400354" lon="-4.651220">
        <ele>94.138</ele>
        <time>2022-08-27T20:02:11Z</time>
      </trkpt>
      <trkpt lat="43.400399" lon="-4.651257">
        <ele>92.938</ele>
        <time>2022-08-27T20:02:14Z</time>
      </trkpt>
      <trkpt lat="43.400444" lon="-4.651257">
        <ele>91.429</ele>
        <time>2022-08-27T20:02:18Z</time>
      </trkpt>
      <trkpt lat="43.400456" lon="-4.651334">
        <ele>89.177</ele>
        <time>2022-08-27T20:02:42Z</time>
      </trkpt>
      <trkpt lat="43.400496" lon="-4.651379">
        <ele>89.177</ele>
        <time>2022-08-27T20:02:44Z</time>
      </trkpt>
      <trkpt lat="43.400531" lon="-4.651439">
        <ele>89.153</ele>
        <time>2022-08-27T20:02:46Z</time>
      </trkpt>
      <trkpt lat="43.400569" lon="-4.651487">
        <ele>89.147</ele>
        <time>2022-08-27T20:02:48Z</time>
      </trkpt>
      <trkpt lat="43.400612" lon="-4.651519">
        <ele>89.174</ele>
        <time>2022-08-27T20:02:50Z</time>
      </trkpt>
      <trkpt lat="43.400674" lon="-4.651519">
        <ele>86.741</ele>
        <time>2022-08-27T20:02:53Z</time>
      </trkpt>
      <trkpt lat="43.400692" lon="-4.651461">
        <ele>86.529</ele>
        <time>2022-08-27T20:02:55Z</time>
      </trkpt>
      <trkpt lat="43.400685" lon="-4.651379">
        <ele>85.700</ele>
        <time>2022-08-27T20:02:58Z</time>
      </trkpt>
      <trkpt lat="43.400650" lon="-4.651327">
        <ele>85.120</ele>
        <time>2022-08-27T20:03:02Z</time>
      </trkpt>
      <trkpt lat="43.400613" lon="-4.651284">
        <ele>84.409</ele>
        <time>2022-08-27T20:03:06Z</time>
      </trkpt>
      <trkpt lat="43.400568" lon="-4.651257">
        <ele>84.653</ele>
        <time>2022-08-27T20:03:10Z</time>
      </trkpt>
      <trkpt lat="43.400536" lon="-4.651207">
        <ele>84.713</ele>
        <time>2022-08-27T20:03:14Z</time>
      </trkpt>
      <trkpt lat="43.400496" lon="-4.651154">
        <ele>84.554</ele>
        <time>2022-08-27T20:03:18Z</time>
      </trkpt>
      <trkpt lat="43.400444" lon="-4.651102">
        <ele>84.582</ele>
        <time>2022-08-27T20:03:21Z</time>
      </trkpt>
      <trkpt lat="43.400406" lon="-4.651059">
        <ele>84.522</ele>
        <time>2022-08-27T20:03:23Z</time>
      </trkpt>
      <trkpt lat="43.400374" lon="-4.651007">
        <ele>83.768</ele>
        <time>2022-08-27T20:03:25Z</time>
      </trkpt>
      <trkpt lat="43.400337" lon="-4.650927">
        <ele>81.922</ele>
        <time>2022-08-27T20:03:28Z</time>
      </trkpt>
      <trkpt lat="43.400302" lon="-4.650849">
        <ele>79.999</ele>
        <time>2022-08-27T20:03:31Z</time>
      </trkpt>
      <trkpt lat="43.400282" lon="-4.650784">
        <ele>78.666</ele>
        <time>2022-08-27T20:03:33Z</time>
      </trkpt>
      <trkpt lat="43.400267" lon="-4.650709">
        <ele>77.856</ele>
        <time>2022-08-27T20:03:35Z</time>
      </trkpt>
      <trkpt lat="43.400264" lon="-4.650624">
        <ele>77.259</ele>
        <time>2022-08-27T20:03:37Z</time>
      </trkpt>
      <trkpt lat="43.400286" lon="-4.650554">
        <ele>76.614</ele>
        <time>2022-08-27T20:03:39Z</time>
      </trkpt>
      <trkpt lat="43.400326" lon="-4.650501">
        <ele>75.909</ele>
        <time>2022-08-27T20:03:41Z</time>
      </trkpt>
      <trkpt lat="43.400384" lon="-4.650476">
        <ele>75.746</ele>
        <time>2022-08-27T20:03:43Z</time>
      </trkpt>
      <trkpt lat="43.400439" lon="-4.650474">
        <ele>75.726</ele>
        <time>2022-08-27T20:03:45Z</time>
      </trkpt>
      <trkpt lat="43.400484" lon="-4.650487">
        <ele>75.787</ele>
        <time>2022-08-27T20:03:47Z</time>
      </trkpt>
      <trkpt lat="43.400512" lon="-4.650535">
        <ele>76.065</ele>
        <time>2022-08-27T20:03:49Z</time>
      </trkpt>
      <trkpt lat="43.400520" lon="-4.650600">
        <ele>75.945</ele>
        <time>2022-08-27T20:03:51Z</time>
      </trkpt>
      <trkpt lat="43.400523" lon="-4.650678">
        <ele>75.991</ele>
        <time>2022-08-27T20:03:53Z</time>
      </trkpt>
      <trkpt lat="43.400535" lon="-4.650750">
        <ele>75.535</ele>
        <time>2022-08-27T20:03:55Z</time>
      </trkpt>
      <trkpt lat="43.400575" lon="-4.650778">
        <ele>74.462</ele>
        <time>2022-08-27T20:03:57Z</time>
      </trkpt>
      <trkpt lat="43.400622" lon="-4.650755">
        <ele>73.079</ele>
        <time>2022-08-27T20:04:00Z</time>
      </trkpt>
      <trkpt lat="43.400722" lon="-4.651778">
        <ele>77.383</ele>
        <time>2022-08-27T20:42:22Z</time>
      </trkpt>
      <trkpt lat="43.400675" lon="-4.651783">
        <ele>77.325</ele>
        <time>2022-08-27T20:42:23Z</time>
      </trkpt>
      <trkpt lat="43.400625" lon="-4.651783">
        <ele>77.317</ele>
        <time>2022-08-27T20:42:26Z</time>
      </trkpt>
      <trkpt lat="43.400603" lon="-4.650778">
        <ele>66.309</ele>
        <time>2022-08-27T21:12:36Z</time>
      </trkpt>
      <trkpt lat="43.400555" lon="-4.650763">
        <ele>66.369</ele>
        <time>2022-08-27T21:12:40Z</time>
      </trkpt>
      <trkpt lat="43.400507" lon="-4.650731">
        <ele>66.339</ele>
        <time>2022-08-27T21:12:42Z</time>
      </trkpt>
      <trkpt lat="43.400474" lon="-4.650668">
        <ele>66.310</ele>
        <time>2022-08-27T21:12:44Z</time>
      </trkpt>
      <trkpt lat="43.400471" lon="-4.650605">
        <ele>66.388</ele>
        <time>2022-08-27T21:12:46Z</time>
      </trkpt>
      <trkpt lat="43.400473" lon="-4.650523">
        <ele>67.558</ele>
        <time>2022-08-27T21:12:49Z</time>
      </trkpt>
      <trkpt lat="43.400431" lon="-4.650491">
        <ele>70.164</ele>
        <time>2022-08-27T21:12:52Z</time>
      </trkpt>
      <trkpt lat="43.400381" lon="-4.650498">
        <ele>70.388</ele>
        <time>2022-08-27T21:12:54Z</time>
      </trkpt>
      <trkpt lat="43.400323" lon="-4.650523">
        <ele>70.655</ele>
        <time>2022-08-27T21:12:57Z</time>
      </trkpt>
      <trkpt lat="43.400290" lon="-4.650575">
        <ele>70.782</ele>
        <time>2022-08-27T21:13:00Z</time>
      </trkpt>
      <trkpt lat="43.400288" lon="-4.650655">
        <ele>71.781</ele>
        <time>2022-08-27T21:13:03Z</time>
      </trkpt>
      <trkpt lat="43.400291" lon="-4.650737">
        <ele>73.061</ele>
        <time>2022-08-27T21:13:06Z</time>
      </trkpt>
      <trkpt lat="43.400316" lon="-4.650815">
        <ele>74.017</ele>
        <time>2022-08-27T21:13:09Z</time>
      </trkpt>
      <trkpt lat="43.400341" lon="-4.650883">
        <ele>74.409</ele>
        <time>2022-08-27T21:13:12Z</time>
      </trkpt>
      <trkpt lat="43.400359" lon="-4.650966">
        <ele>74.779</ele>
        <time>2022-08-27T21:13:15Z</time>
      </trkpt>
      <trkpt lat="43.400392" lon="-4.651013">
        <ele>74.769</ele>
        <time>2022-08-27T21:13:17Z</time>
      </trkpt>
      <trkpt lat="43.400437" lon="-4.651066">
        <ele>74.820</ele>
        <time>2022-08-27T21:13:20Z</time>
      </trkpt>
      <trkpt lat="43.400472" lon="-4.651129">
        <ele>75.058</ele>
        <time>2022-08-27T21:13:23Z</time>
      </trkpt>
      <trkpt lat="43.400510" lon="-4.651177">
        <ele>76.288</ele>
        <time>2022-08-27T21:13:26Z</time>
      </trkpt>
      <trkpt lat="43.400545" lon="-4.651220">
        <ele>77.584</ele>
        <time>2022-08-27T21:13:34Z</time>
      </trkpt>
      <trkpt lat="43.400568" lon="-4.651273">
        <ele>77.888</ele>
        <time>2022-08-27T21:13:37Z</time>
      </trkpt>
      <trkpt lat="43.400606" lon="-4.651335">
        <ele>78.095</ele>
        <time>2022-08-27T21:13:40Z</time>
      </trkpt>
      <trkpt lat="43.400636" lon="-4.651387">
        <ele>78.112</ele>
        <time>2022-08-27T21:13:42Z</time>
      </trkpt>
      <trkpt lat="43.400659" lon="-4.651444">
        <ele>78.382</ele>
        <time>2022-08-27T21:13:44Z</time>
      </trkpt>
      <trkpt lat="43.400666" lon="-4.651524">
        <ele>78.343</ele>
        <time>2022-08-27T21:13:48Z</time>
      </trkpt>
      <trkpt lat="43.400621" lon="-4.651512">
        <ele>78.317</ele>
        <time>2022-08-27T21:13:55Z</time>
      </trkpt>
      <trkpt lat="43.400579" lon="-4.651465">
        <ele>78.309</ele>
        <time>2022-08-27T21:13:58Z</time>
      </trkpt>
      <trkpt lat="43.400527" lon="-4.651445">
        <ele>78.379</ele>
        <time>2022-08-27T21:14:01Z</time>
      </trkpt>
      <trkpt lat="43.400485" lon="-4.651398">
        <ele>78.419</ele>
        <time>2022-08-27T21:14:05Z</time>
      </trkpt>
      <trkpt lat="43.400460" lon="-4.651345">
        <ele>78.890</ele>
        <time>2022-08-27T21:14:09Z</time>
      </trkpt>
      <trkpt lat="43.400410" lon="-4.651313">
        <ele>80.458</ele>
        <time>2022-08-27T21:14:13Z</time>
      </trkpt>
      <trkpt lat="43.400365" lon="-4.651260">
        <ele>81.018</ele>
        <time>2022-08-27T21:14:16Z</time>
      </trkpt>
      <trkpt lat="43.400313" lon="-4.651207">
        <ele>81.114</ele>
        <time>2022-08-27T21:14:19Z</time>
      </trkpt>
      <trkpt lat="43.400261" lon="-4.651169">
        <ele>81.278</ele>
        <time>2022-08-27T21:14:22Z</time>
      </trkpt>
      <trkpt lat="43.400209" lon="-4.651109">
        <ele>82.375</ele>
        <time>2022-08-27T21:14:25Z</time>
      </trkpt>
      <trkpt lat="43.400172" lon="-4.651071">
        <ele>83.282</ele>
        <time>2022-08-27T21:14:27Z</time>
      </trkpt>
      <trkpt lat="43.400117" lon="-4.651023">
        <ele>84.817</ele>
        <time>2022-08-27T21:14:30Z</time>
      </trkpt>
      <trkpt lat="43.400075" lon="-4.650996">
        <ele>85.787</ele>
        <time>2022-08-27T21:14:32Z</time>
      </trkpt>
      <trkpt lat="43.400032" lon="-4.650971">
        <ele>86.815</ele>
        <time>2022-08-27T21:14:34Z</time>
      </trkpt>
      <trkpt lat="43.399989" lon="-4.650948">
        <ele>87.809</ele>
        <time>2022-08-27T21:14:36Z</time>
      </trkpt>
      <trkpt lat="43.399944" lon="-4.650906">
        <ele>88.642</ele>
        <time>2022-08-27T21:14:39Z</time>
      </trkpt>
      <trkpt lat="43.399914" lon="-4.650843">
        <ele>89.172</ele>
        <time>2022-08-27T21:14:42Z</time>
      </trkpt>
      <trkpt lat="43.399884" lon="-4.650781">
        <ele>89.523</ele>
        <time>2022-08-27T21:14:45Z</time>
      </trkpt>
      <trkpt lat="43.399842" lon="-4.650723">
        <ele>89.761</ele>
        <time>2022-08-27T21:14:48Z</time>
      </trkpt>
      <trkpt lat="43.399797" lon="-4.650725">
        <ele>89.791</ele>
        <time>2022-08-27T21:14:51Z</time>
      </trkpt>
      <trkpt lat="43.399755" lon="-4.650778">
        <ele>89.367</ele>
        <time>2022-08-27T21:14:55Z</time>
      </trkpt>
      <trkpt lat="43.399717" lon="-4.650836">
        <ele>87.811</ele>
        <time>2022-08-27T21:14:59Z</time>
      </trkpt>
      <trkpt lat="43.399700" lon="-4.650911">
        <ele>87.898</ele>
        <time>2022-08-27T21:15:02Z</time>
      </trkpt>
      <trkpt lat="43.399692" lon="-4.650989">
        <ele>87.715</ele>
        <time>2022-08-27T21:15:05Z</time>
      </trkpt>
      <trkpt lat="43.399675" lon="-4.651064">
        <ele>87.521</ele>
        <time>2022-08-27T21:15:08Z</time>
      </trkpt>
      <trkpt lat="43.399658" lon="-4.651139">
        <ele>87.841</ele>
        <time>2022-08-27T21:15:11Z</time>
      </trkpt>
      <trkpt lat="43.399648" lon="-4.651217">
        <ele>88.105</ele>
        <time>2022-08-27T21:15:14Z</time>
      </trkpt>
      <trkpt lat="43.399633" lon="-4.651309">
        <ele>88.609</ele>
        <time>2022-08-27T21:15:17Z</time>
      </trkpt>
      <trkpt lat="43.399605" lon="-4.651386">
        <ele>89.493</ele>
        <time>2022-08-27T21:15:19Z</time>
      </trkpt>
      <trkpt lat="43.399580" lon="-4.651463">
        <ele>89.443</ele>
        <time>2022-08-27T21:15:21Z</time>
      </trkpt>
      <trkpt lat="43.399548" lon="-4.651530">
        <ele>89.414</ele>
        <time>2022-08-27T21:15:23Z</time>
      </trkpt>
      <trkpt lat="43.399521" lon="-4.651592">
        <ele>89.032</ele>
        <time>2022-08-27T21:15:25Z</time>
      </trkpt>
      <trkpt lat="43.399493" lon="-4.651650">
        <ele>88.592</ele>
        <time>2022-08-27T21:15:27Z</time>
      </trkpt>
      <trkpt lat="43.399465" lon="-4.651705">
        <ele>87.968</ele>
        <time>2022-08-27T21:15:29Z</time>
      </trkpt>
      <trkpt lat="43.399435" lon="-4.651772">
        <ele>87.272</ele>
        <time>2022-08-27T21:15:31Z</time>
      </trkpt>
      <trkpt lat="43.399405" lon="-4.651832">
        <ele>87.129</ele>
        <time>2022-08-27T21:15:33Z</time>
      </trkpt>
      <trkpt lat="43.399378" lon="-4.651884">
        <ele>86.726</ele>
        <time>2022-08-27T21:15:35Z</time>
      </trkpt>
      <trkpt lat="43.399341" lon="-4.651959">
        <ele>85.374</ele>
        <time>2022-08-27T21:15:38Z</time>
      </trkpt>
      <trkpt lat="43.399298" lon="-4.652026">
        <ele>84.356</ele>
        <time>2022-08-27T21:15:41Z</time>
      </trkpt>
      <trkpt lat="43.399280" lon="-4.652103">
        <ele>82.921</ele>
        <time>2022-08-27T21:15:44Z</time>
      </trkpt>
      <trkpt lat="43.399290" lon="-4.652166">
        <ele>82.609</ele>
        <time>2022-08-27T21:15:46Z</time>
      </trkpt>
      <trkpt lat="43.399322" lon="-4.652221">
        <ele>82.368</ele>
        <time>2022-08-27T21:15:48Z</time>
      </trkpt>
      <trkpt lat="43.399370" lon="-4.652258">
        <ele>81.468</ele>
        <time>2022-08-27T21:15:50Z</time>
      </trkpt>
      <trkpt lat="43.399422" lon="-4.652265">
        <ele>80.499</ele>
        <time>2022-08-27T21:15:52Z</time>
      </trkpt>
      <trkpt lat="43.399472" lon="-4.652227">
        <ele>78.817</ele>
        <time>2022-08-27T21:15:54Z</time>
      </trkpt>
      <trkpt lat="43.399517" lon="-4.652164">
        <ele>78.277</ele>
        <time>2022-08-27T21:15:56Z</time>
      </trkpt>
      <trkpt lat="43.399555" lon="-4.652104">
        <ele>77.173</ele>
        <time>2022-08-27T21:15:58Z</time>
      </trkpt>
      <trkpt lat="43.399602" lon="-4.652052">
        <ele>74.237</ele>
        <time>2022-08-27T21:16:01Z</time>
      </trkpt>
      <trkpt lat="43.399665" lon="-4.652085">
        <ele>73.194</ele>
        <time>2022-08-27T21:16:04Z</time>
      </trkpt>
      <trkpt lat="43.399697" lon="-4.652138">
        <ele>72.911</ele>
        <time>2022-08-27T21:16:06Z</time>
      </trkpt>
      <trkpt lat="43.399717" lon="-4.652225">
        <ele>72.395</ele>
        <time>2022-08-27T21:16:09Z</time>
      </trkpt>
      <trkpt lat="43.399739" lon="-4.652305">
        <ele>71.249</ele>
        <time>2022-08-27T21:16:12Z</time>
      </trkpt>
      <trkpt lat="43.399752" lon="-4.652377">
        <ele>68.923</ele>
        <time>2022-08-27T21:16:15Z</time>
      </trkpt>
      <trkpt lat="43.399750" lon="-4.652469">
        <ele>66.709</ele>
        <time>2022-08-27T21:16:18Z</time>
      </trkpt>
      <trkpt lat="43.399738" lon="-4.652542">
        <ele>65.820</ele>
        <time>2022-08-27T21:16:20Z</time>
      </trkpt>
      <trkpt lat="43.399725" lon="-4.652609">
        <ele>64.650</ele>
        <time>2022-08-27T21:16:22Z</time>
      </trkpt>
      <trkpt lat="43.399705" lon="-4.652696">
        <ele>61.661</ele>
        <time>2022-08-27T21:16:25Z</time>
      </trkpt>
      <trkpt lat="43.399688" lon="-4.652769">
        <ele>59.469</ele>
        <time>2022-08-27T21:16:28Z</time>
      </trkpt>
      <trkpt lat="43.399670" lon="-4.652829">
        <ele>59.269</ele>
        <time>2022-08-27T21:16:30Z</time>
      </trkpt>
      <trkpt lat="43.399652" lon="-4.652906">
        <ele>59.145</ele>
        <time>2022-08-27T21:16:32Z</time>
      </trkpt>
      <trkpt lat="43.399632" lon="-4.652978">
        <ele>59.079</ele>
        <time>2022-08-27T21:16:34Z</time>
      </trkpt>
      <trkpt lat="43.399604" lon="-4.653055">
        <ele>59.126</ele>
        <time>2022-08-27T21:16:36Z</time>
      </trkpt>
      <trkpt lat="43.399582" lon="-4.653137">
        <ele>59.423</ele>
        <time>2022-08-27T21:16:38Z</time>
      </trkpt>
      <trkpt lat="43.399565" lon="-4.653197">
        <ele>60.172</ele>
        <time>2022-08-27T21:16:40Z</time>
      </trkpt>
      <trkpt lat="43.399552" lon="-4.653257">
        <ele>60.413</ele>
        <time>2022-08-27T21:16:43Z</time>
      </trkpt>
      <trkpt lat="43.399374" lon="-4.653859">
        <ele>56.914</ele>
        <time>2022-08-27T21:19:13Z</time>
      </trkpt>
      <trkpt lat="43.399316" lon="-4.653809">
        <ele>56.909</ele>
        <time>2022-08-27T21:19:17Z</time>
      </trkpt>
      <trkpt lat="43.399269" lon="-4.653776">
        <ele>57.938</ele>
        <time>2022-08-27T21:19:19Z</time>
      </trkpt>
      <trkpt lat="43.399222" lon="-4.653746">
        <ele>59.468</ele>
        <time>2022-08-27T21:19:23Z</time>
      </trkpt>
      <trkpt lat="43.399154" lon="-4.653728">
        <ele>63.739</ele>
        <time>2022-08-27T21:19:26Z</time>
      </trkpt>
      <trkpt lat="43.399099" lon="-4.653730">
        <ele>67.637</ele>
        <time>2022-08-27T21:19:28Z</time>
      </trkpt>
      <trkpt lat="43.399052" lon="-4.653723">
        <ele>68.687</ele>
        <time>2022-08-27T21:19:30Z</time>
      </trkpt>
      <trkpt lat="43.399000" lon="-4.653730">
        <ele>68.833</ele>
        <time>2022-08-27T21:19:32Z</time>
      </trkpt>
      <trkpt lat="43.398947" lon="-4.653702">
        <ele>70.297</ele>
        <time>2022-08-27T21:19:36Z</time>
      </trkpt>
      <trkpt lat="43.398892" lon="-4.653684">
        <ele>73.484</ele>
        <time>2022-08-27T21:19:40Z</time>
      </trkpt>
      <trkpt lat="43.398852" lon="-4.653626">
        <ele>74.671</ele>
        <time>2022-08-27T21:19:44Z</time>
      </trkpt>
      <trkpt lat="43.398827" lon="-4.653569">
        <ele>75.249</ele>
        <time>2022-08-27T21:19:47Z</time>
      </trkpt>
      <trkpt lat="43.398780" lon="-4.653544">
        <ele>76.102</ele>
        <time>2022-08-27T21:19:50Z</time>
      </trkpt>
      <trkpt lat="43.398732" lon="-4.653496">
        <ele>80.022</ele>
        <time>2022-08-27T21:19:54Z</time>
      </trkpt>
      <trkpt lat="43.398695" lon="-4.653459">
        <ele>81.309</ele>
        <time>2022-08-27T21:19:56Z</time>
      </trkpt>
      <trkpt lat="43.398650" lon="-4.653436">
        <ele>82.035</ele>
        <time>2022-08-27T21:19:58Z</time>
      </trkpt>
      <trkpt lat="43.398588" lon="-4.653468">
        <ele>82.635</ele>
        <time>2022-08-27T21:20:01Z</time>
      </trkpt>
      <trkpt lat="43.398558" lon="-4.653521">
        <ele>83.926</ele>
        <time>2022-08-27T21:20:03Z</time>
      </trkpt>
      <trkpt lat="43.398543" lon="-4.653603">
        <ele>84.354</ele>
        <time>2022-08-27T21:20:06Z</time>
      </trkpt>
      <trkpt lat="43.398540" lon="-4.653683">
        <ele>84.214</ele>
        <time>2022-08-27T21:20:09Z</time>
      </trkpt>
      <trkpt lat="43.398533" lon="-4.653748">
        <ele>83.670</ele>
        <time>2022-08-27T21:20:11Z</time>
      </trkpt>
      <trkpt lat="43.398511" lon="-4.653835">
        <ele>83.374</ele>
        <time>2022-08-27T21:20:14Z</time>
      </trkpt>
      <trkpt lat="43.398484" lon="-4.653915">
        <ele>83.211</ele>
        <time>2022-08-27T21:20:17Z</time>
      </trkpt>
      <trkpt lat="43.398436" lon="-4.653975">
        <ele>82.578</ele>
        <time>2022-08-27T21:20:20Z</time>
      </trkpt>
      <trkpt lat="43.398391" lon="-4.654020">
        <ele>82.068</ele>
        <time>2022-08-27T21:20:23Z</time>
      </trkpt>
      <trkpt lat="43.398348" lon="-4.654057">
        <ele>80.742</ele>
        <time>2022-08-27T21:20:26Z</time>
      </trkpt>
      <trkpt lat="43.398296" lon="-4.654097">
        <ele>79.426</ele>
        <time>2022-08-27T21:20:29Z</time>
      </trkpt>
      <trkpt lat="43.398251" lon="-4.654147">
        <ele>79.409</ele>
        <time>2022-08-27T21:20:32Z</time>
      </trkpt>
      <trkpt lat="43.398226" lon="-4.654209">
        <ele>79.497</ele>
        <time>2022-08-27T21:20:35Z</time>
      </trkpt>
      <trkpt lat="43.398198" lon="-4.654281">
        <ele>79.657</ele>
        <time>2022-08-27T21:20:38Z</time>
      </trkpt>
      <trkpt lat="43.398188" lon="-4.654358">
        <ele>80.398</ele>
        <time>2022-08-27T21:20:41Z</time>
      </trkpt>
      <trkpt lat="43.398175" lon="-4.654420">
        <ele>80.596</ele>
        <time>2022-08-27T21:20:44Z</time>
      </trkpt>
      <trkpt lat="43.398158" lon="-4.654493">
        <ele>81.076</ele>
        <time>2022-08-27T21:20:48Z</time>
      </trkpt>
      <trkpt lat="43.398161" lon="-4.654565">
        <ele>81.722</ele>
        <time>2022-08-27T21:20:51Z</time>
      </trkpt>
      <trkpt lat="43.398154" lon="-4.654645">
        <ele>83.116</ele>
        <time>2022-08-27T21:20:55Z</time>
      </trkpt>
      <trkpt lat="43.398124" lon="-4.654703">
        <ele>84.483</ele>
        <time>2022-08-27T21:20:59Z</time>
      </trkpt>
      <trkpt lat="43.398111" lon="-4.654776">
        <ele>84.510</ele>
        <time>2022-08-27T21:21:04Z</time>
      </trkpt>
      <trkpt lat="43.398066" lon="-4.654818">
        <ele>84.692</ele>
        <time>2022-08-27T21:21:09Z</time>
      </trkpt>
      <trkpt lat="43.398024" lon="-4.654870">
        <ele>84.773</ele>
        <time>2022-08-27T21:21:14Z</time>
      </trkpt>
      <trkpt lat="43.397967" lon="-4.654905">
        <ele>85.320</ele>
        <time>2022-08-27T21:21:18Z</time>
      </trkpt>
      <trkpt lat="43.397917" lon="-4.654920">
        <ele>86.009</ele>
        <time>2022-08-27T21:21:22Z</time>
      </trkpt>
      <trkpt lat="43.397867" lon="-4.654895">
        <ele>86.530</ele>
        <time>2022-08-27T21:21:26Z</time>
      </trkpt>
      <trkpt lat="43.397810" lon="-4.654907">
        <ele>86.920</ele>
        <time>2022-08-27T21:21:30Z</time>
      </trkpt>
      <trkpt lat="43.397752" lon="-4.654910">
        <ele>87.051</ele>
        <time>2022-08-27T21:21:34Z</time>
      </trkpt>
      <trkpt lat="43.397709" lon="-4.654890">
        <ele>87.229</ele>
        <time>2022-08-27T21:21:37Z</time>
      </trkpt>
      <trkpt lat="43.397654" lon="-4.654880">
        <ele>88.069</ele>
        <time>2022-08-27T21:21:40Z</time>
      </trkpt>
      <trkpt lat="43.397607" lon="-4.654873">
        <ele>89.025</ele>
        <time>2022-08-27T21:21:45Z</time>
      </trkpt>
      <trkpt lat="43.397545" lon="-4.654835">
        <ele>90.279</ele>
        <time>2022-08-27T21:21:48Z</time>
      </trkpt>
      <trkpt lat="43.397497" lon="-4.654835">
        <ele>92.636</ele>
        <time>2022-08-27T21:21:52Z</time>
      </trkpt>
      <trkpt lat="43.397452" lon="-4.654825">
        <ele>92.893</ele>
        <time>2022-08-27T21:21:55Z</time>
      </trkpt>
      <trkpt lat="43.397397" lon="-4.654805">
        <ele>93.395</ele>
        <time>2022-08-27T21:21:59Z</time>
      </trkpt>
      <trkpt lat="43.397344" lon="-4.654787">
        <ele>94.049</ele>
        <time>2022-08-27T21:22:02Z</time>
      </trkpt>
      <trkpt lat="43.397292" lon="-4.654767">
        <ele>94.223</ele>
        <time>2022-08-27T21:22:06Z</time>
      </trkpt>
      <trkpt lat="43.397237" lon="-4.654757">
        <ele>94.409</ele>
        <time>2022-08-27T21:22:11Z</time>
      </trkpt>
      <trkpt lat="43.397190" lon="-4.654739">
        <ele>94.650</ele>
        <time>2022-08-27T21:22:14Z</time>
      </trkpt>
      <trkpt lat="43.397145" lon="-4.654732">
        <ele>94.720</ele>
        <time>2022-08-27T21:22:17Z</time>
      </trkpt>
      <trkpt lat="43.397095" lon="-4.654712">
        <ele>94.931</ele>
        <time>2022-08-27T21:22:21Z</time>
      </trkpt>
      <trkpt lat="43.397043" lon="-4.654692">
        <ele>94.999</ele>
        <time>2022-08-27T21:22:25Z</time>
      </trkpt>
      <trkpt lat="43.396998" lon="-4.654680">
        <ele>94.729</ele>
        <time>2022-08-27T21:22:28Z</time>
      </trkpt>
      <trkpt lat="43.396950" lon="-4.654663">
        <ele>94.635</ele>
        <time>2022-08-27T21:22:31Z</time>
      </trkpt>
      <trkpt lat="43.396908" lon="-4.654616">
        <ele>94.689</ele>
        <time>2022-08-27T21:22:35Z</time>
      </trkpt>
      <trkpt lat="43.396880" lon="-4.654561">
        <ele>94.686</ele>
        <time>2022-08-27T21:22:38Z</time>
      </trkpt>
      <trkpt lat="43.396852" lon="-4.654488">
        <ele>94.753</ele>
        <time>2022-08-27T21:22:41Z</time>
      </trkpt>
      <trkpt lat="43.396845" lon="-4.654425">
        <ele>95.313</ele>
        <time>2022-08-27T21:22:43Z</time>
      </trkpt>
      <trkpt lat="43.396842" lon="-4.654348">
        <ele>95.643</ele>
        <time>2022-08-27T21:22:45Z</time>
      </trkpt>
      <trkpt lat="43.396827" lon="-4.654260">
        <ele>95.807</ele>
        <time>2022-08-27T21:22:47Z</time>
      </trkpt>
      <trkpt lat="43.396809" lon="-4.654162">
        <ele>96.009</ele>
        <time>2022-08-27T21:22:49Z</time>
      </trkpt>
      <trkpt lat="43.396789" lon="-4.654049">
        <ele>95.822</ele>
        <time>2022-08-27T21:22:51Z</time>
      </trkpt>
      <trkpt lat="43.396766" lon="-4.653921">
        <ele>95.052</ele>
        <time>2022-08-27T21:22:52Z</time>
      </trkpt>
      <trkpt lat="43.396753" lon="-4.653846">
        <ele>94.813</ele>
        <time>2022-08-27T21:22:54Z</time>
      </trkpt>
      <trkpt lat="43.396736" lon="-4.653769">
        <ele>94.181</ele>
        <time>2022-08-27T21:22:55Z</time>
      </trkpt>
      <trkpt lat="43.396706" lon="-4.653601">
        <ele>92.271</ele>
        <time>2022-08-27T21:22:57Z</time>
      </trkpt>
      <trkpt lat="43.396693" lon="-4.653514">
        <ele>91.927</ele>
        <time>2022-08-27T21:22:58Z</time>
      </trkpt>
      <trkpt lat="43.396676" lon="-4.653419">
        <ele>91.451</ele>
        <time>2022-08-27T21:22:59Z</time>
      </trkpt>
      <trkpt lat="43.396646" lon="-4.653249">
        <ele>91.218</ele>
        <time>2022-08-27T21:23:01Z</time>
      </trkpt>
      <trkpt lat="43.396633" lon="-4.653172">
        <ele>91.295</ele>
        <time>2022-08-27T21:23:02Z</time>
      </trkpt>
      <trkpt lat="43.396606" lon="-4.653054">
        <ele>91.037</ele>
        <time>2022-08-27T21:23:04Z</time>
      </trkpt>
      <trkpt lat="43.396559" lon="-4.653009">
        <ele>91.049</ele>
        <time>2022-08-27T21:23:06Z</time>
      </trkpt>
      <trkpt lat="43.396511" lon="-4.652999">
        <ele>91.013</ele>
        <time>2022-08-27T21:23:08Z</time>
      </trkpt>
      <trkpt lat="43.396466" lon="-4.653031">
        <ele>90.909</ele>
        <time>2022-08-27T21:23:16Z</time>
      </trkpt>
      <trkpt lat="43.396421" lon="-4.653053">
        <ele>90.984</ele>
        <time>2022-08-27T21:23:18Z</time>
      </trkpt>
      <trkpt lat="43.396368" lon="-4.653076">
        <ele>90.994</ele>
        <time>2022-08-27T21:23:21Z</time>
      </trkpt>
      <trkpt lat="43.396313" lon="-4.653103">
        <ele>90.955</ele>
        <time>2022-08-27T21:23:25Z</time>
      </trkpt>
      <trkpt lat="43.396268" lon="-4.653141">
        <ele>90.553</ele>
        <time>2022-08-27T21:23:29Z</time>
      </trkpt>
      <trkpt lat="43.396228" lon="-4.653181">
        <ele>90.473</ele>
        <time>2022-08-27T21:23:33Z</time>
      </trkpt>
      <trkpt lat="43.396208" lon="-4.653264">
        <ele>90.599</ele>
        <time>2022-08-27T21:23:36Z</time>
      </trkpt>
      <trkpt lat="43.396198" lon="-4.653342">
        <ele>90.883</ele>
        <time>2022-08-27T21:23:38Z</time>
      </trkpt>
      <trkpt lat="43.396191" lon="-4.653420">
        <ele>91.640</ele>
        <time>2022-08-27T21:23:40Z</time>
      </trkpt>
      <trkpt lat="43.396176" lon="-4.653505">
        <ele>91.817</ele>
        <time>2022-08-27T21:23:42Z</time>
      </trkpt>
      <trkpt lat="43.396166" lon="-4.653592">
        <ele>91.893</ele>
        <time>2022-08-27T21:23:44Z</time>
      </trkpt>
      <trkpt lat="43.396161" lon="-4.653672">
        <ele>91.865</ele>
        <time>2022-08-27T21:23:46Z</time>
      </trkpt>
      <trkpt lat="43.396153" lon="-4.653767">
        <ele>91.521</ele>
        <time>2022-08-27T21:23:48Z</time>
      </trkpt>
      <trkpt lat="43.396143" lon="-4.653869">
        <ele>91.509</ele>
        <time>2022-08-27T21:23:50Z</time>
      </trkpt>
      <trkpt lat="43.396141" lon="-4.653964">
        <ele>91.820</ele>
        <time>2022-08-27T21:23:52Z</time>
      </trkpt>
      <trkpt lat="43.396128" lon="-4.654079">
        <ele>92.730</ele>
        <time>2022-08-27T21:23:54Z</time>
      </trkpt>
      <trkpt lat="43.396108" lon="-4.654182">
        <ele>93.261</ele>
        <time>2022-08-27T21:23:56Z</time>
      </trkpt>
      <trkpt lat="43.396100" lon="-4.654245">
        <ele>93.539</ele>
        <time>2022-08-27T21:23:57Z</time>
      </trkpt>
      <trkpt lat="43.396093" lon="-4.654312">
        <ele>94.169</ele>
        <time>2022-08-27T21:23:58Z</time>
      </trkpt>
      <trkpt lat="43.396078" lon="-4.654382">
        <ele>94.475</ele>
        <time>2022-08-27T21:23:59Z</time>
      </trkpt>
      <trkpt lat="43.396070" lon="-4.654512">
        <ele>94.799</ele>
        <time>2022-08-27T21:24:01Z</time>
      </trkpt>
      <trkpt lat="43.396055" lon="-4.654630">
        <ele>94.756</ele>
        <time>2022-08-27T21:24:03Z</time>
      </trkpt>
      <trkpt lat="43.396050" lon="-4.654728">
        <ele>94.963</ele>
        <time>2022-08-27T21:24:05Z</time>
      </trkpt>
      <trkpt lat="43.396037" lon="-4.654831">
        <ele>95.148</ele>
        <time>2022-08-27T21:24:07Z</time>
      </trkpt>
      <trkpt lat="43.396027" lon="-4.654931">
        <ele>95.461</ele>
        <time>2022-08-27T21:24:09Z</time>
      </trkpt>
      <trkpt lat="43.396019" lon="-4.655026">
        <ele>95.317</ele>
        <time>2022-08-27T21:24:11Z</time>
      </trkpt>
      <trkpt lat="43.396012" lon="-4.655116">
        <ele>95.309</ele>
        <time>2022-08-27T21:24:13Z</time>
      </trkpt>
      <trkpt lat="43.396004" lon="-4.655203">
        <ele>95.395</ele>
        <time>2022-08-27T21:24:15Z</time>
      </trkpt>
      <trkpt lat="43.395994" lon="-4.655288">
        <ele>95.035</ele>
        <time>2022-08-27T21:24:17Z</time>
      </trkpt>
      <trkpt lat="43.395984" lon="-4.655368">
        <ele>94.346</ele>
        <time>2022-08-27T21:24:19Z</time>
      </trkpt>
      <trkpt lat="43.395974" lon="-4.655453">
        <ele>94.394</ele>
        <time>2022-08-27T21:24:20Z</time>
      </trkpt>
      <trkpt lat="43.395961" lon="-4.655528">
        <ele>94.634</ele>
        <time>2022-08-27T21:24:23Z</time>
      </trkpt>
      <trkpt lat="43.395941" lon="-4.655600">
        <ele>95.090</ele>
        <time>2022-08-27T21:24:25Z</time>
      </trkpt>
      <trkpt lat="43.395921" lon="-4.655672">
        <ele>95.214</ele>
        <time>2022-08-27T21:24:27Z</time>
      </trkpt>
      <trkpt lat="43.395901" lon="-4.655744">
        <ele>95.641</ele>
        <time>2022-08-27T21:24:29Z</time>
      </trkpt>
      <trkpt lat="43.395879" lon="-4.655809">
        <ele>95.758</ele>
        <time>2022-08-27T21:24:31Z</time>
      </trkpt>
      <trkpt lat="43.395854" lon="-4.655877">
        <ele>96.061</ele>
        <time>2022-08-27T21:24:33Z</time>
      </trkpt>
      <trkpt lat="43.395839" lon="-4.655949">
        <ele>96.621</ele>
        <time>2022-08-27T21:24:35Z</time>
      </trkpt>
      <trkpt lat="43.395829" lon="-4.656022">
        <ele>97.513</ele>
        <time>2022-08-27T21:24:37Z</time>
      </trkpt>
      <trkpt lat="43.395827" lon="-4.656094">
        <ele>98.009</ele>
        <time>2022-08-27T21:24:39Z</time>
      </trkpt>
      <trkpt lat="43.395832" lon="-4.656164">
        <ele>98.167</ele>
        <time>2022-08-27T21:24:41Z</time>
      </trkpt>
      <trkpt lat="43.395850" lon="-4.656234">
        <ele>98.317</ele>
        <time>2022-08-27T21:24:43Z</time>
      </trkpt>
      <trkpt lat="43.395862" lon="-4.656306">
        <ele>98.488</ele>
        <time>2022-08-27T21:24:45Z</time>
      </trkpt>
      <trkpt lat="43.395862" lon="-4.656381">
        <ele>98.516</ele>
        <time>2022-08-27T21:24:47Z</time>
      </trkpt>
      <trkpt lat="43.395857" lon="-4.656456">
        <ele>98.696</ele>
        <time>2022-08-27T21:24:49Z</time>
      </trkpt>
      <trkpt lat="43.395844" lon="-4.656524">
        <ele>98.622</ele>
        <time>2022-08-27T21:24:51Z</time>
      </trkpt>
      <trkpt lat="43.395816" lon="-4.656581">
        <ele>98.686</ele>
        <time>2022-08-27T21:24:53Z</time>
      </trkpt>
      <trkpt lat="43.395783" lon="-4.656633">
        <ele>98.733</ele>
        <time>2022-08-27T21:24:55Z</time>
      </trkpt>
      <trkpt lat="43.395746" lon="-4.656688">
        <ele>99.060</ele>
        <time>2022-08-27T21:24:57Z</time>
      </trkpt>
      <trkpt lat="43.395714" lon="-4.656745">
        <ele>99.098</ele>
        <time>2022-08-27T21:24:59Z</time>
      </trkpt>
      <trkpt lat="43.395689" lon="-4.656810">
        <ele>99.015</ele>
        <time>2022-08-27T21:25:01Z</time>
      </trkpt>
      <trkpt lat="43.395667" lon="-4.656882">
        <ele>98.926</ele>
        <time>2022-08-27T21:25:03Z</time>
      </trkpt>
      <trkpt lat="43.395655" lon="-4.656969">
        <ele>98.609</ele>
        <time>2022-08-27T21:25:05Z</time>
      </trkpt>
      <trkpt lat="43.395648" lon="-4.657054">
        <ele>98.490</ele>
        <time>2022-08-27T21:25:07Z</time>
      </trkpt>
      <trkpt lat="43.395635" lon="-4.657144">
        <ele>98.330</ele>
        <time>2022-08-27T21:25:09Z</time>
      </trkpt>
      <trkpt lat="43.395623" lon="-4.657239">
        <ele>98.331</ele>
        <time>2022-08-27T21:25:11Z</time>
      </trkpt>
      <trkpt lat="43.395601" lon="-4.657337">
        <ele>98.659</ele>
        <time>2022-08-27T21:25:12Z</time>
      </trkpt>
      <trkpt lat="43.395574" lon="-4.657427">
        <ele>99.459</ele>
        <time>2022-08-27T21:25:15Z</time>
      </trkpt>
      <trkpt lat="43.395562" lon="-4.657494">
        <ele>100.535</ele>
        <time>2022-08-27T21:25:17Z</time>
      </trkpt>
      <trkpt lat="43.395562" lon="-4.657584">
        <ele>101.549</ele>
        <time>2022-08-27T21:25:19Z</time>
      </trkpt>
      <trkpt lat="43.395560" lon="-4.657684">
        <ele>102.276</ele>
        <time>2022-08-27T21:25:21Z</time>
      </trkpt>
      <trkpt lat="43.395553" lon="-4.657791">
        <ele>102.323</ele>
        <time>2022-08-27T21:25:23Z</time>
      </trkpt>
      <trkpt lat="43.395541" lon="-4.657894">
        <ele>102.321</ele>
        <time>2022-08-27T21:25:25Z</time>
      </trkpt>
      <trkpt lat="43.395529" lon="-4.658001">
        <ele>102.941</ele>
        <time>2022-08-27T21:25:27Z</time>
      </trkpt>
      <trkpt lat="43.395521" lon="-4.658103">
        <ele>103.105</ele>
        <time>2022-08-27T21:25:29Z</time>
      </trkpt>
      <trkpt lat="43.395509" lon="-4.658208">
        <ele>103.109</ele>
        <time>2022-08-27T21:25:31Z</time>
      </trkpt>
      <trkpt lat="43.395496" lon="-4.658315">
        <ele>103.063</ele>
        <time>2022-08-27T21:25:33Z</time>
      </trkpt>
      <trkpt lat="43.395486" lon="-4.658415">
        <ele>103.053</ele>
        <time>2022-08-27T21:25:35Z</time>
      </trkpt>
      <trkpt lat="43.395476" lon="-4.658512">
        <ele>103.034</ele>
        <time>2022-08-27T21:25:37Z</time>
      </trkpt>
      <trkpt lat="43.395468" lon="-4.658610">
        <ele>103.642</ele>
        <time>2022-08-27T21:25:39Z</time>
      </trkpt>
      <trkpt lat="43.395461" lon="-4.658715">
        <ele>104.242</ele>
        <time>2022-08-27T21:25:41Z</time>
      </trkpt>
      <trkpt lat="43.395456" lon="-4.658828">
        <ele>104.258</ele>
        <time>2022-08-27T21:25:43Z</time>
      </trkpt>
      <trkpt lat="43.395449" lon="-4.658943">
        <ele>104.582</ele>
        <time>2022-08-27T21:25:45Z</time>
      </trkpt>
      <trkpt lat="43.395442" lon="-4.659053">
        <ele>104.599</ele>
        <time>2022-08-27T21:25:47Z</time>
      </trkpt>
      <trkpt lat="43.395437" lon="-4.659148">
        <ele>104.166</ele>
        <time>2022-08-27T21:25:49Z</time>
      </trkpt>
      <trkpt lat="43.395435" lon="-4.659255">
        <ele>103.122</ele>
        <time>2022-08-27T21:25:51Z</time>
      </trkpt>
      <trkpt lat="43.395428" lon="-4.659365">
        <ele>102.462</ele>
        <time>2022-08-27T21:25:53Z</time>
      </trkpt>
      <trkpt lat="43.395425" lon="-4.659478">
        <ele>102.208</ele>
        <time>2022-08-27T21:25:55Z</time>
      </trkpt>
      <trkpt lat="43.395425" lon="-4.659588">
        <ele>102.009</ele>
        <time>2022-08-27T21:25:57Z</time>
      </trkpt>
      <trkpt lat="43.395425" lon="-4.659686">
        <ele>101.513</ele>
        <time>2022-08-27T21:25:59Z</time>
      </trkpt>
      <trkpt lat="43.395418" lon="-4.659779">
        <ele>101.253</ele>
        <time>2022-08-27T21:26:01Z</time>
      </trkpt>
      <trkpt lat="43.395413" lon="-4.659881">
        <ele>101.294</ele>
        <time>2022-08-27T21:26:03Z</time>
      </trkpt>
      <trkpt lat="43.395411" lon="-4.659994">
        <ele>101.322</ele>
        <time>2022-08-27T21:26:05Z</time>
      </trkpt>
      <trkpt lat="43.395418" lon="-4.660106">
        <ele>101.372</ele>
        <time>2022-08-27T21:26:07Z</time>
      </trkpt>
      <trkpt lat="43.395421" lon="-4.660224">
        <ele>101.318</ele>
        <time>2022-08-27T21:26:09Z</time>
      </trkpt>
      <trkpt lat="43.395424" lon="-4.660329">
        <ele>100.122</ele>
        <time>2022-08-27T21:26:11Z</time>
      </trkpt>
      <trkpt lat="43.395422" lon="-4.660426">
        <ele>99.939</ele>
        <time>2022-08-27T21:26:13Z</time>
      </trkpt>
      <trkpt lat="43.395417" lon="-4.660516">
        <ele>99.766</ele>
        <time>2022-08-27T21:26:15Z</time>
      </trkpt>
      <trkpt lat="43.395415" lon="-4.660616">
        <ele>99.657</ele>
        <time>2022-08-27T21:26:17Z</time>
      </trkpt>
      <trkpt lat="43.395420" lon="-4.660726">
        <ele>99.600</ele>
        <time>2022-08-27T21:26:19Z</time>
      </trkpt>
      <trkpt lat="43.395428" lon="-4.660836">
        <ele>99.620</ele>
        <time>2022-08-27T21:26:21Z</time>
      </trkpt>
      <trkpt lat="43.395435" lon="-4.660941">
        <ele>99.609</ele>
        <time>2022-08-27T21:26:23Z</time>
      </trkpt>
      <trkpt lat="43.395438" lon="-4.661038">
        <ele>99.876</ele>
        <time>2022-08-27T21:26:25Z</time>
      </trkpt>
      <trkpt lat="43.395440" lon="-4.661141">
        <ele>100.686</ele>
        <time>2022-08-27T21:26:27Z</time>
      </trkpt>
      <trkpt lat="43.395442" lon="-4.661253">
        <ele>101.157</ele>
        <time>2022-08-27T21:26:29Z</time>
      </trkpt>
      <trkpt lat="43.395437" lon="-4.661363">
        <ele>101.355</ele>
        <time>2022-08-27T21:26:31Z</time>
      </trkpt>
      <trkpt lat="43.395435" lon="-4.661470">
        <ele>101.495</ele>
        <time>2022-08-27T21:26:33Z</time>
      </trkpt>
      <trkpt lat="43.395428" lon="-4.661577">
        <ele>101.421</ele>
        <time>2022-08-27T21:26:35Z</time>
      </trkpt>
      <trkpt lat="43.395430" lon="-4.661672">
        <ele>101.335</ele>
        <time>2022-08-27T21:26:37Z</time>
      </trkpt>
      <trkpt lat="43.395437" lon="-4.661759">
        <ele>100.622</ele>
        <time>2022-08-27T21:26:38Z</time>
      </trkpt>
      <trkpt lat="43.395442" lon="-4.661857">
        <ele>100.019</ele>
        <time>2022-08-27T21:26:41Z</time>
      </trkpt>
      <trkpt lat="43.395439" lon="-4.661960">
        <ele>99.897</ele>
        <time>2022-08-27T21:26:43Z</time>
      </trkpt>
      <trkpt lat="43.395439" lon="-4.662080">
        <ele>99.823</ele>
        <time>2022-08-27T21:26:45Z</time>
      </trkpt>
      <trkpt lat="43.395439" lon="-4.662195">
        <ele>100.325</ele>
        <time>2022-08-27T21:26:47Z</time>
      </trkpt>
      <trkpt lat="43.395437" lon="-4.662317">
        <ele>100.909</ele>
        <time>2022-08-27T21:26:49Z</time>
      </trkpt>
      <trkpt lat="43.395437" lon="-4.662435">
        <ele>101.320</ele>
        <time>2022-08-27T21:26:51Z</time>
      </trkpt>
      <trkpt lat="43.395439" lon="-4.662542">
        <ele>102.120</ele>
        <time>2022-08-27T21:26:53Z</time>
      </trkpt>
      <trkpt lat="43.395437" lon="-4.662659">
        <ele>102.681</ele>
        <time>2022-08-27T21:26:55Z</time>
      </trkpt>
      <trkpt lat="43.395437" lon="-4.662771">
        <ele>103.529</ele>
        <time>2022-08-27T21:26:57Z</time>
      </trkpt>
      <trkpt lat="43.395435" lon="-4.662878">
        <ele>104.019</ele>
        <time>2022-08-27T21:26:59Z</time>
      </trkpt>
      <trkpt lat="43.395433" lon="-4.662993">
        <ele>104.535</ele>
        <time>2022-08-27T21:27:01Z</time>
      </trkpt>
      <trkpt lat="43.395433" lon="-4.663098">
        <ele>104.649</ele>
        <time>2022-08-27T21:27:03Z</time>
      </trkpt>
      <trkpt lat="43.395433" lon="-4.663198">
        <ele>105.276</ele>
        <time>2022-08-27T21:27:05Z</time>
      </trkpt>
      <trkpt lat="43.395435" lon="-4.663300">
        <ele>105.423</ele>
        <time>2022-08-27T21:27:07Z</time>
      </trkpt>
      <trkpt lat="43.395440" lon="-4.663405">
        <ele>105.447</ele>
        <time>2022-08-27T21:27:09Z</time>
      </trkpt>
      <trkpt lat="43.395440" lon="-4.663502">
        <ele>105.429</ele>
        <time>2022-08-27T21:27:11Z</time>
      </trkpt>
      <trkpt lat="43.395438" lon="-4.663594">
        <ele>105.221</ele>
        <time>2022-08-27T21:27:13Z</time>
      </trkpt>
      <trkpt lat="43.395438" lon="-4.663694">
        <ele>105.009</ele>
        <time>2022-08-27T21:27:15Z</time>
      </trkpt>
      <trkpt lat="43.395440" lon="-4.663789">
        <ele>104.875</ele>
        <time>2022-08-27T21:27:17Z</time>
      </trkpt>
      <trkpt lat="43.395443" lon="-4.663879">
        <ele>104.895</ele>
        <time>2022-08-27T21:27:19Z</time>
      </trkpt>
      <trkpt lat="43.395440" lon="-4.663971">
        <ele>104.866</ele>
        <time>2022-08-27T21:27:21Z</time>
      </trkpt>
      <trkpt lat="43.395442" lon="-4.664059">
        <ele>105.014</ele>
        <time>2022-08-27T21:27:23Z</time>
      </trkpt>
      <trkpt lat="43.395447" lon="-4.664159">
        <ele>105.054</ele>
        <time>2022-08-27T21:27:25Z</time>
      </trkpt>
      <trkpt lat="43.395450" lon="-4.664267">
        <ele>105.140</ele>
        <time>2022-08-27T21:27:27Z</time>
      </trkpt>
      <trkpt lat="43.395453" lon="-4.664379">
        <ele>105.244</ele>
        <time>2022-08-27T21:27:29Z</time>
      </trkpt>
      <trkpt lat="43.395460" lon="-4.664487">
        <ele>105.861</ele>
        <time>2022-08-27T21:27:31Z</time>
      </trkpt>
      <trkpt lat="43.395472" lon="-4.664592">
        <ele>105.878</ele>
        <time>2022-08-27T21:27:33Z</time>
      </trkpt>
      <trkpt lat="43.395484" lon="-4.664699">
        <ele>105.882</ele>
        <time>2022-08-27T21:27:35Z</time>
      </trkpt>
      <trkpt lat="43.395502" lon="-4.664807">
        <ele>105.543</ele>
        <time>2022-08-27T21:27:37Z</time>
      </trkpt>
      <trkpt lat="43.395540" lon="-4.664924">
        <ele>105.317</ele>
        <time>2022-08-27T21:27:39Z</time>
      </trkpt>
      <trkpt lat="43.395558" lon="-4.664984">
        <ele>105.109</ele>
        <time>2022-08-27T21:27:40Z</time>
      </trkpt>
      <trkpt lat="43.395590" lon="-4.665112">
        <ele>104.189</ele>
        <time>2022-08-27T21:27:42Z</time>
      </trkpt>
      <trkpt lat="43.395608" lon="-4.665187">
        <ele>104.189</ele>
        <time>2022-08-27T21:27:43Z</time>
      </trkpt>
      <trkpt lat="43.395630" lon="-4.665262">
        <ele>104.180</ele>
        <time>2022-08-27T21:27:44Z</time>
      </trkpt>
      <trkpt lat="43.395680" lon="-4.665414">
        <ele>103.648</ele>
        <time>2022-08-27T21:27:46Z</time>
      </trkpt>
      <trkpt lat="43.395707" lon="-4.665496">
        <ele>103.588</ele>
        <time>2022-08-27T21:27:47Z</time>
      </trkpt>
      <trkpt lat="43.395755" lon="-4.665673">
        <ele>103.594</ele>
        <time>2022-08-27T21:27:49Z</time>
      </trkpt>
      <trkpt lat="43.395810" lon="-4.665853">
        <ele>103.378</ele>
        <time>2022-08-27T21:27:51Z</time>
      </trkpt>
      <trkpt lat="43.395862" lon="-4.666030">
        <ele>102.585</ele>
        <time>2022-08-27T21:27:53Z</time>
      </trkpt>
      <trkpt lat="43.395889" lon="-4.666117">
        <ele>101.952</ele>
        <time>2022-08-27T21:27:54Z</time>
      </trkpt>
      <trkpt lat="43.395946" lon="-4.666275">
        <ele>100.911</ele>
        <time>2022-08-27T21:27:56Z</time>
      </trkpt>
      <trkpt lat="43.395969" lon="-4.666343">
        <ele>100.721</ele>
        <time>2022-08-27T21:27:57Z</time>
      </trkpt>
      <trkpt lat="43.396012" lon="-4.666480">
        <ele>99.803</ele>
        <time>2022-08-27T21:27:59Z</time>
      </trkpt>
      <trkpt lat="43.396062" lon="-4.666623">
        <ele>99.009</ele>
        <time>2022-08-27T21:28:01Z</time>
      </trkpt>
      <trkpt lat="43.396089" lon="-4.666693">
        <ele>98.452</ele>
        <time>2022-08-27T21:28:02Z</time>
      </trkpt>
      <trkpt lat="43.396131" lon="-4.666841">
        <ele>97.052</ele>
        <time>2022-08-27T21:28:04Z</time>
      </trkpt>
      <trkpt lat="43.396171" lon="-4.666971">
        <ele>95.963</ele>
        <time>2022-08-27T21:28:06Z</time>
      </trkpt>
      <trkpt lat="43.396211" lon="-4.667056">
        <ele>95.251</ele>
        <time>2022-08-27T21:28:08Z</time>
      </trkpt>
      <trkpt lat="43.396271" lon="-4.667078">
        <ele>95.261</ele>
        <time>2022-08-27T21:28:10Z</time>
      </trkpt>
      <trkpt lat="43.396356" lon="-4.667051">
        <ele>94.967</ele>
        <time>2022-08-27T21:28:12Z</time>
      </trkpt>
      <trkpt lat="43.396426" lon="-4.667019">
        <ele>94.741</ele>
        <time>2022-08-27T21:28:14Z</time>
      </trkpt>
      <trkpt lat="43.396491" lon="-4.667004">
        <ele>93.978</ele>
        <time>2022-08-27T21:28:16Z</time>
      </trkpt>
      <trkpt lat="43.396514" lon="-4.667062">
        <ele>93.475</ele>
        <time>2022-08-27T21:28:18Z</time>
      </trkpt>
      <trkpt lat="43.396487" lon="-4.667129">
        <ele>93.379</ele>
        <time>2022-08-27T21:28:20Z</time>
      </trkpt>
      <trkpt lat="43.396442" lon="-4.667172">
        <ele>93.005</ele>
        <time>2022-08-27T21:28:22Z</time>
      </trkpt>
      <trkpt lat="43.396414" lon="-4.667229">
        <ele>92.325</ele>
        <time>2022-08-27T21:28:24Z</time>
      </trkpt>
      <trkpt lat="43.396401" lon="-4.667291">
        <ele>91.809</ele>
        <time>2022-08-27T21:28:26Z</time>
      </trkpt>
      <trkpt lat="43.396394" lon="-4.667358">
        <ele>91.648</ele>
        <time>2022-08-27T21:28:27Z</time>
      </trkpt>
      <trkpt lat="43.396366" lon="-4.667425">
        <ele>91.698</ele>
        <time>2022-08-27T21:28:31Z</time>
      </trkpt>
      <trkpt lat="43.396348" lon="-4.667497">
        <ele>91.629</ele>
        <time>2022-08-27T21:28:34Z</time>
      </trkpt>
      <trkpt lat="43.396351" lon="-4.667584">
        <ele>92.667</ele>
        <time>2022-08-27T21:28:37Z</time>
      </trkpt>
      <trkpt lat="43.396575" lon="-4.667062">
        <ele>43.083</ele>
        <time>2022-08-28T08:24:44Z</time>
      </trkpt>
      <trkpt lat="43.396548" lon="-4.666952">
        <ele>43.525</ele>
        <time>2022-08-28T08:24:46Z</time>
      </trkpt>
      <trkpt lat="43.396500" lon="-4.666939">
        <ele>43.417</ele>
        <time>2022-08-28T08:24:56Z</time>
      </trkpt>
      <trkpt lat="43.396457" lon="-4.666957">
        <ele>43.209</ele>
        <time>2022-08-28T08:24:58Z</time>
      </trkpt>
      <trkpt lat="43.396399" lon="-4.666997">
        <ele>42.869</ele>
        <time>2022-08-28T08:25:01Z</time>
      </trkpt>
      <trkpt lat="43.396334" lon="-4.667009">
        <ele>43.239</ele>
        <time>2022-08-28T08:25:04Z</time>
      </trkpt>
      <trkpt lat="43.396286" lon="-4.667029">
        <ele>43.460</ele>
        <time>2022-08-28T08:25:07Z</time>
      </trkpt>
      <trkpt lat="43.396223" lon="-4.667036">
        <ele>43.978</ele>
        <time>2022-08-28T08:25:10Z</time>
      </trkpt>
      <trkpt lat="43.396171" lon="-4.666978">
        <ele>44.423</ele>
        <time>2022-08-28T08:25:13Z</time>
      </trkpt>
      <trkpt lat="43.396148" lon="-4.666910">
        <ele>44.857</ele>
        <time>2022-08-28T08:25:15Z</time>
      </trkpt>
      <trkpt lat="43.396126" lon="-4.666838">
        <ele>44.963</ele>
        <time>2022-08-28T08:25:17Z</time>
      </trkpt>
      <trkpt lat="43.396106" lon="-4.666761">
        <ele>45.036</ele>
        <time>2022-08-28T08:25:19Z</time>
      </trkpt>
      <trkpt lat="43.396084" lon="-4.666684">
        <ele>45.227</ele>
        <time>2022-08-28T08:25:21Z</time>
      </trkpt>
      <trkpt lat="43.396059" lon="-4.666617">
        <ele>45.685</ele>
        <time>2022-08-28T08:25:23Z</time>
      </trkpt>
      <trkpt lat="43.396039" lon="-4.666554">
        <ele>46.089</ele>
        <time>2022-08-28T08:25:25Z</time>
      </trkpt>
      <trkpt lat="43.396017" lon="-4.666497">
        <ele>46.517</ele>
        <time>2022-08-28T08:25:27Z</time>
      </trkpt>
      <trkpt lat="43.395999" lon="-4.666420">
        <ele>47.109</ele>
        <time>2022-08-28T08:25:29Z</time>
      </trkpt>
      <trkpt lat="43.395979" lon="-4.666340">
        <ele>47.639</ele>
        <time>2022-08-28T08:25:31Z</time>
      </trkpt>
      <trkpt lat="43.395959" lon="-4.666267">
        <ele>48.129</ele>
        <time>2022-08-28T08:25:33Z</time>
      </trkpt>
      <trkpt lat="43.395941" lon="-4.666195">
        <ele>48.540</ele>
        <time>2022-08-28T08:25:35Z</time>
      </trkpt>
      <trkpt lat="43.395929" lon="-4.666125">
        <ele>48.988</ele>
        <time>2022-08-28T08:25:37Z</time>
      </trkpt>
      <trkpt lat="43.395907" lon="-4.666053">
        <ele>49.373</ele>
        <time>2022-08-28T08:25:39Z</time>
      </trkpt>
      <trkpt lat="43.395880" lon="-4.665993">
        <ele>49.617</ele>
        <time>2022-08-28T08:25:41Z</time>
      </trkpt>
      <trkpt lat="43.395847" lon="-4.665925">
        <ele>49.943</ele>
        <time>2022-08-28T08:25:43Z</time>
      </trkpt>
      <trkpt lat="43.395820" lon="-4.665862">
        <ele>50.366</ele>
        <time>2022-08-28T08:25:45Z</time>
      </trkpt>
      <trkpt lat="43.395797" lon="-4.665795">
        <ele>51.077</ele>
        <time>2022-08-28T08:25:47Z</time>
      </trkpt>
      <trkpt lat="43.395774" lon="-4.665730">
        <ele>51.735</ele>
        <time>2022-08-28T08:25:49Z</time>
      </trkpt>
      <trkpt lat="43.395752" lon="-4.665670">
        <ele>52.386</ele>
        <time>2022-08-28T08:25:51Z</time>
      </trkpt>
      <trkpt lat="43.395732" lon="-4.665608">
        <ele>52.814</ele>
        <time>2022-08-28T08:25:53Z</time>
      </trkpt>
      <trkpt lat="43.395710" lon="-4.665548">
        <ele>53.209</ele>
        <time>2022-08-28T08:25:55Z</time>
      </trkpt>
      <trkpt lat="43.395688" lon="-4.665483">
        <ele>53.674</ele>
        <time>2022-08-28T08:25:57Z</time>
      </trkpt>
      <trkpt lat="43.395665" lon="-4.665420">
        <ele>53.974</ele>
        <time>2022-08-28T08:25:59Z</time>
      </trkpt>
      <trkpt lat="43.395645" lon="-4.665352">
        <ele>54.175</ele>
        <time>2022-08-28T08:26:01Z</time>
      </trkpt>
      <trkpt lat="43.395625" lon="-4.665280">
        <ele>54.393</ele>
        <time>2022-08-28T08:26:03Z</time>
      </trkpt>
      <trkpt lat="43.395607" lon="-4.665210">
        <ele>54.548</ele>
        <time>2022-08-28T08:26:05Z</time>
      </trkpt>
      <trkpt lat="43.395585" lon="-4.665155">
        <ele>54.822</ele>
        <time>2022-08-28T08:26:07Z</time>
      </trkpt>
      <trkpt lat="43.395562" lon="-4.665068">
        <ele>55.018</ele>
        <time>2022-08-28T08:26:10Z</time>
      </trkpt>
      <trkpt lat="43.395539" lon="-4.664998">
        <ele>55.451</ele>
        <time>2022-08-28T08:26:12Z</time>
      </trkpt>
      <trkpt lat="43.395522" lon="-4.664918">
        <ele>55.742</ele>
        <time>2022-08-28T08:26:14Z</time>
      </trkpt>
      <trkpt lat="43.395510" lon="-4.664840">
        <ele>55.926</ele>
        <time>2022-08-28T08:26:16Z</time>
      </trkpt>
      <trkpt lat="43.395497" lon="-4.664760">
        <ele>56.147</ele>
        <time>2022-08-28T08:26:18Z</time>
      </trkpt>
      <trkpt lat="43.395482" lon="-4.664685">
        <ele>56.311</ele>
        <time>2022-08-28T08:26:20Z</time>
      </trkpt>
      <trkpt lat="43.395472" lon="-4.664607">
        <ele>56.409</ele>
        <time>2022-08-28T08:26:22Z</time>
      </trkpt>
      <trkpt lat="43.395465" lon="-4.664527">
        <ele>56.423</ele>
        <time>2022-08-28T08:26:24Z</time>
      </trkpt>
      <trkpt lat="43.395455" lon="-4.664444">
        <ele>56.493</ele>
        <time>2022-08-28T08:26:26Z</time>
      </trkpt>
      <trkpt lat="43.395450" lon="-4.664361">
        <ele>56.524</ele>
        <time>2022-08-28T08:26:28Z</time>
      </trkpt>
      <trkpt lat="43.395443" lon="-4.664276">
        <ele>56.692</ele>
        <time>2022-08-28T08:26:30Z</time>
      </trkpt>
      <trkpt lat="43.395440" lon="-4.664199">
        <ele>56.787</ele>
        <time>2022-08-28T08:26:32Z</time>
      </trkpt>
      <trkpt lat="43.395438" lon="-4.664124">
        <ele>56.681</ele>
        <time>2022-08-28T08:26:34Z</time>
      </trkpt>
      <trkpt lat="43.395433" lon="-4.664049">
        <ele>56.647</ele>
        <time>2022-08-28T08:26:36Z</time>
      </trkpt>
      <trkpt lat="43.395425" lon="-4.663969">
        <ele>56.590</ele>
        <time>2022-08-28T08:26:38Z</time>
      </trkpt>
      <trkpt lat="43.395420" lon="-4.663887">
        <ele>56.511</ele>
        <time>2022-08-28T08:26:40Z</time>
      </trkpt>
      <trkpt lat="43.395418" lon="-4.663812">
        <ele>56.392</ele>
        <time>2022-08-28T08:26:42Z</time>
      </trkpt>
      <trkpt lat="43.395420" lon="-4.663729">
        <ele>56.273</ele>
        <time>2022-08-28T08:26:44Z</time>
      </trkpt>
      <trkpt lat="43.395417" lon="-4.663642">
        <ele>56.120</ele>
        <time>2022-08-28T08:26:46Z</time>
      </trkpt>
      <trkpt lat="43.395415" lon="-4.663549">
        <ele>56.009</ele>
        <time>2022-08-28T08:26:48Z</time>
      </trkpt>
      <trkpt lat="43.395408" lon="-4.663459">
        <ele>56.130</ele>
        <time>2022-08-28T08:26:50Z</time>
      </trkpt>
      <trkpt lat="43.395405" lon="-4.663369">
        <ele>56.290</ele>
        <time>2022-08-28T08:26:52Z</time>
      </trkpt>
      <trkpt lat="43.395405" lon="-4.663277">
        <ele>56.191</ele>
        <time>2022-08-28T08:26:54Z</time>
      </trkpt>
      <trkpt lat="43.395408" lon="-4.663184">
        <ele>55.859</ele>
        <time>2022-08-28T08:26:56Z</time>
      </trkpt>
      <trkpt lat="43.395410" lon="-4.663091">
        <ele>55.654</ele>
        <time>2022-08-28T08:26:58Z</time>
      </trkpt>
      <trkpt lat="43.395415" lon="-4.662999">
        <ele>55.478</ele>
        <time>2022-08-28T08:27:00Z</time>
      </trkpt>
      <trkpt lat="43.395417" lon="-4.662906">
        <ele>55.274</ele>
        <time>2022-08-28T08:27:02Z</time>
      </trkpt>
      <trkpt lat="43.395419" lon="-4.662804">
        <ele>55.027</ele>
        <time>2022-08-28T08:27:04Z</time>
      </trkpt>
      <trkpt lat="43.395416" lon="-4.662701">
        <ele>54.768</ele>
        <time>2022-08-28T08:27:06Z</time>
      </trkpt>
      <trkpt lat="43.395413" lon="-4.662593">
        <ele>54.471</ele>
        <time>2022-08-28T08:27:08Z</time>
      </trkpt>
      <trkpt lat="43.395408" lon="-4.662483">
        <ele>54.141</ele>
        <time>2022-08-28T08:27:10Z</time>
      </trkpt>
      <trkpt lat="43.395410" lon="-4.662368">
        <ele>53.815</ele>
        <time>2022-08-28T08:27:12Z</time>
      </trkpt>
      <trkpt lat="43.395410" lon="-4.662256">
        <ele>53.609</ele>
        <time>2022-08-28T08:27:14Z</time>
      </trkpt>
      <trkpt lat="43.395410" lon="-4.662144">
        <ele>53.458</ele>
        <time>2022-08-28T08:27:16Z</time>
      </trkpt>
      <trkpt lat="43.395405" lon="-4.662034">
        <ele>53.388</ele>
        <time>2022-08-28T08:27:18Z</time>
      </trkpt>
      <trkpt lat="43.395408" lon="-4.661922">
        <ele>53.039</ele>
        <time>2022-08-28T08:27:20Z</time>
      </trkpt>
      <trkpt lat="43.395411" lon="-4.661815">
        <ele>52.877</ele>
        <time>2022-08-28T08:27:22Z</time>
      </trkpt>
      <trkpt lat="43.395409" lon="-4.661707">
        <ele>52.732</ele>
        <time>2022-08-28T08:27:24Z</time>
      </trkpt>
      <trkpt lat="43.395406" lon="-4.661600">
        <ele>52.526</ele>
        <time>2022-08-28T08:27:26Z</time>
      </trkpt>
      <trkpt lat="43.395406" lon="-4.661482">
        <ele>52.352</ele>
        <time>2022-08-28T08:27:28Z</time>
      </trkpt>
      <trkpt lat="43.395406" lon="-4.661360">
        <ele>52.185</ele>
        <time>2022-08-28T08:27:30Z</time>
      </trkpt>
      <trkpt lat="43.395403" lon="-4.661240">
        <ele>52.496</ele>
        <time>2022-08-28T08:27:32Z</time>
      </trkpt>
      <trkpt lat="43.395390" lon="-4.661125">
        <ele>52.837</ele>
        <time>2022-08-28T08:27:34Z</time>
      </trkpt>
      <trkpt lat="43.395382" lon="-4.661010">
        <ele>53.049</ele>
        <time>2022-08-28T08:27:36Z</time>
      </trkpt>
      <trkpt lat="43.395384" lon="-4.660895">
        <ele>53.113</ele>
        <time>2022-08-28T08:27:38Z</time>
      </trkpt>
      <trkpt lat="43.395391" lon="-4.660783">
        <ele>53.209</ele>
        <time>2022-08-28T08:27:40Z</time>
      </trkpt>
      <trkpt lat="43.395396" lon="-4.660680">
        <ele>53.174</ele>
        <time>2022-08-28T08:27:42Z</time>
      </trkpt>
      <trkpt lat="43.395398" lon="-4.660577">
        <ele>53.174</ele>
        <time>2022-08-28T08:27:44Z</time>
      </trkpt>
      <trkpt lat="43.395400" lon="-4.660460">
        <ele>52.655</ele>
        <time>2022-08-28T08:27:46Z</time>
      </trkpt>
      <trkpt lat="43.395402" lon="-4.660335">
        <ele>52.053</ele>
        <time>2022-08-28T08:27:48Z</time>
      </trkpt>
      <trkpt lat="43.395404" lon="-4.660272">
        <ele>51.648</ele>
        <time>2022-08-28T08:27:49Z</time>
      </trkpt>
      <trkpt lat="43.395407" lon="-4.660152">
        <ele>51.442</ele>
        <time>2022-08-28T08:27:51Z</time>
      </trkpt>
      <trkpt lat="43.395412" lon="-4.660032">
        <ele>51.128</ele>
        <time>2022-08-28T08:27:53Z</time>
      </trkpt>
      <trkpt lat="43.395410" lon="-4.659912">
        <ele>50.851</ele>
        <time>2022-08-28T08:27:55Z</time>
      </trkpt>
      <trkpt lat="43.395410" lon="-4.659789">
        <ele>50.352</ele>
        <time>2022-08-28T08:27:57Z</time>
      </trkpt>
      <trkpt lat="43.395410" lon="-4.659666">
        <ele>50.143</ele>
        <time>2022-08-28T08:27:59Z</time>
      </trkpt>
      <trkpt lat="43.395412" lon="-4.659548">
        <ele>50.064</ele>
        <time>2022-08-28T08:28:01Z</time>
      </trkpt>
      <trkpt lat="43.395409" lon="-4.659425">
        <ele>50.110</ele>
        <time>2022-08-28T08:28:03Z</time>
      </trkpt>
      <trkpt lat="43.395416" lon="-4.659305">
        <ele>50.309</ele>
        <time>2022-08-28T08:28:05Z</time>
      </trkpt>
      <trkpt lat="43.395419" lon="-4.659188">
        <ele>50.425</ele>
        <time>2022-08-28T08:28:07Z</time>
      </trkpt>
      <trkpt lat="43.395426" lon="-4.659076">
        <ele>50.895</ele>
        <time>2022-08-28T08:28:09Z</time>
      </trkpt>
      <trkpt lat="43.395431" lon="-4.658954">
        <ele>51.346</ele>
        <time>2022-08-28T08:28:11Z</time>
      </trkpt>
      <trkpt lat="43.395446" lon="-4.658842">
        <ele>51.614</ele>
        <time>2022-08-28T08:28:13Z</time>
      </trkpt>
      <trkpt lat="43.395453" lon="-4.658734">
        <ele>51.529</ele>
        <time>2022-08-28T08:28:15Z</time>
      </trkpt>
      <trkpt lat="43.395466" lon="-4.658621">
        <ele>51.323</ele>
        <time>2022-08-28T08:28:17Z</time>
      </trkpt>
      <trkpt lat="43.395474" lon="-4.658503">
        <ele>51.489</ele>
        <time>2022-08-28T08:28:19Z</time>
      </trkpt>
      <trkpt lat="43.395482" lon="-4.658386">
        <ele>51.362</ele>
        <time>2022-08-28T08:28:21Z</time>
      </trkpt>
      <trkpt lat="43.395489" lon="-4.658263">
        <ele>51.193</ele>
        <time>2022-08-28T08:28:23Z</time>
      </trkpt>
      <trkpt lat="43.395482" lon="-4.658156">
        <ele>51.074</ele>
        <time>2022-08-28T08:28:25Z</time>
      </trkpt>
      <trkpt lat="43.395494" lon="-4.658031">
        <ele>50.656</ele>
        <time>2022-08-28T08:28:27Z</time>
      </trkpt>
      <trkpt lat="43.395497" lon="-4.657911">
        <ele>50.521</ele>
        <time>2022-08-28T08:28:29Z</time>
      </trkpt>
      <trkpt lat="43.395502" lon="-4.657849">
        <ele>50.409</ele>
        <time>2022-08-28T08:28:30Z</time>
      </trkpt>
      <trkpt lat="43.395515" lon="-4.657727">
        <ele>50.338</ele>
        <time>2022-08-28T08:28:32Z</time>
      </trkpt>
      <trkpt lat="43.395525" lon="-4.657607">
        <ele>50.488</ele>
        <time>2022-08-28T08:28:34Z</time>
      </trkpt>
      <trkpt lat="43.395528" lon="-4.657487">
        <ele>50.459</ele>
        <time>2022-08-28T08:28:36Z</time>
      </trkpt>
      <trkpt lat="43.395533" lon="-4.657364">
        <ele>50.337</ele>
        <time>2022-08-28T08:28:38Z</time>
      </trkpt>
      <trkpt lat="43.395541" lon="-4.657242">
        <ele>50.262</ele>
        <time>2022-08-28T08:28:40Z</time>
      </trkpt>
      <trkpt lat="43.395541" lon="-4.657124">
        <ele>50.246</ele>
        <time>2022-08-28T08:28:42Z</time>
      </trkpt>
      <trkpt lat="43.395549" lon="-4.657062">
        <ele>50.132</ele>
        <time>2022-08-28T08:28:43Z</time>
      </trkpt>
      <trkpt lat="43.395554" lon="-4.657000">
        <ele>50.025</ele>
        <time>2022-08-28T08:28:44Z</time>
      </trkpt>
      <trkpt lat="43.395556" lon="-4.656877">
        <ele>50.056</ele>
        <time>2022-08-28T08:28:46Z</time>
      </trkpt>
      <trkpt lat="43.395556" lon="-4.656814">
        <ele>50.076</ele>
        <time>2022-08-28T08:28:47Z</time>
      </trkpt>
      <trkpt lat="43.395556" lon="-4.656691">
        <ele>50.090</ele>
        <time>2022-08-28T08:28:49Z</time>
      </trkpt>
      <trkpt lat="43.395539" lon="-4.656576">
        <ele>49.919</ele>
        <time>2022-08-28T08:28:51Z</time>
      </trkpt>
      <trkpt lat="43.395502" lon="-4.656461">
        <ele>50.209</ele>
        <time>2022-08-28T08:28:53Z</time>
      </trkpt>
      <trkpt lat="43.395482" lon="-4.656323">
        <ele>50.258</ele>
        <time>2022-08-28T08:28:55Z</time>
      </trkpt>
      <trkpt lat="43.395504" lon="-4.656185">
        <ele>49.738</ele>
        <time>2022-08-28T08:28:57Z</time>
      </trkpt>
      <trkpt lat="43.395536" lon="-4.656122">
        <ele>49.289</ele>
        <time>2022-08-28T08:28:58Z</time>
      </trkpt>
      <trkpt lat="43.395581" lon="-4.656074">
        <ele>48.957</ele>
        <time>2022-08-28T08:28:59Z</time>
      </trkpt>
      <trkpt lat="43.395673" lon="-4.655992">
        <ele>48.622</ele>
        <time>2022-08-28T08:29:01Z</time>
      </trkpt>
      <trkpt lat="43.395758" lon="-4.655887">
        <ele>48.276</ele>
        <time>2022-08-28T08:29:03Z</time>
      </trkpt>
      <trkpt lat="43.395825" lon="-4.655760">
        <ele>47.822</ele>
        <time>2022-08-28T08:29:05Z</time>
      </trkpt>
      <trkpt lat="43.395853" lon="-4.655687">
        <ele>47.465</ele>
        <time>2022-08-28T08:29:06Z</time>
      </trkpt>
      <trkpt lat="43.395900" lon="-4.655529">
        <ele>46.946</ele>
        <time>2022-08-28T08:29:08Z</time>
      </trkpt>
      <trkpt lat="43.395920" lon="-4.655436">
        <ele>46.695</ele>
        <time>2022-08-28T08:29:09Z</time>
      </trkpt>
      <trkpt lat="43.395957" lon="-4.655236">
        <ele>45.949</ele>
        <time>2022-08-28T08:29:11Z</time>
      </trkpt>
      <trkpt lat="43.395970" lon="-4.655133">
        <ele>45.723</ele>
        <time>2022-08-28T08:29:12Z</time>
      </trkpt>
      <trkpt lat="43.395987" lon="-4.655025">
        <ele>45.509</ele>
        <time>2022-08-28T08:29:13Z</time>
      </trkpt>
      <trkpt lat="43.396020" lon="-4.654792">
        <ele>44.360</ele>
        <time>2022-08-28T08:29:15Z</time>
      </trkpt>
      <trkpt lat="43.396033" lon="-4.654672">
        <ele>43.780</ele>
        <time>2022-08-28T08:29:16Z</time>
      </trkpt>
      <trkpt lat="43.396046" lon="-4.654544">
        <ele>43.181</ele>
        <time>2022-08-28T08:29:17Z</time>
      </trkpt>
      <trkpt lat="43.396073" lon="-4.654286">
        <ele>42.449</ele>
        <time>2022-08-28T08:29:19Z</time>
      </trkpt>
      <trkpt lat="43.396086" lon="-4.654156">
        <ele>42.344</ele>
        <time>2022-08-28T08:29:20Z</time>
      </trkpt>
      <trkpt lat="43.396116" lon="-4.653911">
        <ele>42.068</ele>
        <time>2022-08-28T08:29:22Z</time>
      </trkpt>
      <trkpt lat="43.396126" lon="-4.653669">
        <ele>41.354</ele>
        <time>2022-08-28T08:29:24Z</time>
      </trkpt>
      <trkpt lat="43.396139" lon="-4.653452">
        <ele>41.027</ele>
        <time>2022-08-28T08:29:26Z</time>
      </trkpt>
      <trkpt lat="43.396151" lon="-4.653355">
        <ele>40.958</ele>
        <time>2022-08-28T08:29:27Z</time>
      </trkpt>
      <trkpt lat="43.396166" lon="-4.653183">
        <ele>41.274</ele>
        <time>2022-08-28T08:29:29Z</time>
      </trkpt>
      <trkpt lat="43.396173" lon="-4.653110">
        <ele>41.456</ele>
        <time>2022-08-28T08:29:30Z</time>
      </trkpt>
      <trkpt lat="43.396178" lon="-4.653047">
        <ele>41.521</ele>
        <time>2022-08-28T08:29:31Z</time>
      </trkpt>
      <trkpt lat="43.396175" lon="-4.652934">
        <ele>41.609</ele>
        <time>2022-08-28T08:29:33Z</time>
      </trkpt>
      <trkpt lat="43.396157" lon="-4.652816">
        <ele>41.898</ele>
        <time>2022-08-28T08:29:35Z</time>
      </trkpt>
      <trkpt lat="43.396152" lon="-4.652754">
        <ele>41.818</ele>
        <time>2022-08-28T08:29:36Z</time>
      </trkpt>
      <trkpt lat="43.396172" lon="-4.652632">
        <ele>41.749</ele>
        <time>2022-08-28T08:29:38Z</time>
      </trkpt>
      <trkpt lat="43.396194" lon="-4.652574">
        <ele>41.597</ele>
        <time>2022-08-28T08:29:39Z</time>
      </trkpt>
      <trkpt lat="43.396221" lon="-4.652514">
        <ele>41.212</ele>
        <time>2022-08-28T08:29:40Z</time>
      </trkpt>
      <trkpt lat="43.396266" lon="-4.652382">
        <ele>41.386</ele>
        <time>2022-08-28T08:29:42Z</time>
      </trkpt>
      <trkpt lat="43.396293" lon="-4.652234">
        <ele>41.642</ele>
        <time>2022-08-28T08:29:44Z</time>
      </trkpt>
      <trkpt lat="43.396283" lon="-4.652082">
        <ele>41.535</ele>
        <time>2022-08-28T08:29:46Z</time>
      </trkpt>
      <trkpt lat="43.396268" lon="-4.652014">
        <ele>41.446</ele>
        <time>2022-08-28T08:29:47Z</time>
      </trkpt>
      <trkpt lat="43.396226" lon="-4.651887">
        <ele>41.664</ele>
        <time>2022-08-28T08:29:49Z</time>
      </trkpt>
      <trkpt lat="43.396178" lon="-4.651775">
        <ele>41.706</ele>
        <time>2022-08-28T08:29:51Z</time>
      </trkpt>
      <trkpt lat="43.396123" lon="-4.651668">
        <ele>41.916</ele>
        <time>2022-08-28T08:29:53Z</time>
      </trkpt>
      <trkpt lat="43.396098" lon="-4.651616">
        <ele>42.209</ele>
        <time>2022-08-28T08:29:54Z</time>
      </trkpt>
      <trkpt lat="43.396043" lon="-4.651519">
        <ele>42.727</ele>
        <time>2022-08-28T08:29:56Z</time>
      </trkpt>
      <trkpt lat="43.395988" lon="-4.651426">
        <ele>43.047</ele>
        <time>2022-08-28T08:29:58Z</time>
      </trkpt>
      <trkpt lat="43.395940" lon="-4.651328">
        <ele>42.918</ele>
        <time>2022-08-28T08:30:00Z</time>
      </trkpt>
      <trkpt lat="43.395887" lon="-4.651226">
        <ele>42.976</ele>
        <time>2022-08-28T08:30:02Z</time>
      </trkpt>
      <trkpt lat="43.395862" lon="-4.651173">
        <ele>42.911</ele>
        <time>2022-08-28T08:30:03Z</time>
      </trkpt>
      <trkpt lat="43.395809" lon="-4.651065">
        <ele>43.325</ele>
        <time>2022-08-28T08:30:05Z</time>
      </trkpt>
      <trkpt lat="43.395782" lon="-4.651012">
        <ele>43.561</ele>
        <time>2022-08-28T08:30:06Z</time>
      </trkpt>
      <trkpt lat="43.395729" lon="-4.650897">
        <ele>43.664</ele>
        <time>2022-08-28T08:30:08Z</time>
      </trkpt>
      <trkpt lat="43.395676" lon="-4.650777">
        <ele>43.235</ele>
        <time>2022-08-28T08:30:10Z</time>
      </trkpt>
      <trkpt lat="43.395648" lon="-4.650717">
        <ele>43.048</ele>
        <time>2022-08-28T08:30:11Z</time>
      </trkpt>
      <trkpt lat="43.395620" lon="-4.650652">
        <ele>42.861</ele>
        <time>2022-08-28T08:30:12Z</time>
      </trkpt>
      <trkpt lat="43.395562" lon="-4.650527">
        <ele>42.817</ele>
        <time>2022-08-28T08:30:14Z</time>
      </trkpt>
      <trkpt lat="43.395505" lon="-4.650392">
        <ele>43.109</ele>
        <time>2022-08-28T08:30:16Z</time>
      </trkpt>
      <trkpt lat="43.395452" lon="-4.650252">
        <ele>42.965</ele>
        <time>2022-08-28T08:30:18Z</time>
      </trkpt>
      <trkpt lat="43.395402" lon="-4.650109">
        <ele>42.475</ele>
        <time>2022-08-28T08:30:20Z</time>
      </trkpt>
      <trkpt lat="43.395377" lon="-4.650034">
        <ele>42.266</ele>
        <time>2022-08-28T08:30:21Z</time>
      </trkpt>
      <trkpt lat="43.395349" lon="-4.649959">
        <ele>42.024</ele>
        <time>2022-08-28T08:30:22Z</time>
      </trkpt>
      <trkpt lat="43.395292" lon="-4.649811">
        <ele>41.579</ele>
        <time>2022-08-28T08:30:24Z</time>
      </trkpt>
      <trkpt lat="43.395234" lon="-4.649666">
        <ele>41.393</ele>
        <time>2022-08-28T08:30:26Z</time>
      </trkpt>
      <trkpt lat="43.395182" lon="-4.649521">
        <ele>41.289</ele>
        <time>2022-08-28T08:30:28Z</time>
      </trkpt>
      <trkpt lat="43.395155" lon="-4.649453">
        <ele>41.012</ele>
        <time>2022-08-28T08:30:29Z</time>
      </trkpt>
      <trkpt lat="43.395135" lon="-4.649388">
        <ele>41.043</ele>
        <time>2022-08-28T08:30:30Z</time>
      </trkpt>
      <trkpt lat="43.395110" lon="-4.649321">
        <ele>41.136</ele>
        <time>2022-08-28T08:30:31Z</time>
      </trkpt>
      <trkpt lat="43.395085" lon="-4.649254">
        <ele>41.317</ele>
        <time>2022-08-28T08:30:32Z</time>
      </trkpt>
      <trkpt lat="43.395065" lon="-4.649186">
        <ele>41.518</ele>
        <time>2022-08-28T08:30:33Z</time>
      </trkpt>
      <trkpt lat="43.395045" lon="-4.649121">
        <ele>41.609</ele>
        <time>2022-08-28T08:30:34Z</time>
      </trkpt>
      <trkpt lat="43.395002" lon="-4.648983">
        <ele>42.014</ele>
        <time>2022-08-28T08:30:36Z</time>
      </trkpt>
      <trkpt lat="43.394980" lon="-4.648918">
        <ele>42.014</ele>
        <time>2022-08-28T08:30:37Z</time>
      </trkpt>
      <trkpt lat="43.394938" lon="-4.648788">
        <ele>42.085</ele>
        <time>2022-08-28T08:30:39Z</time>
      </trkpt>
      <trkpt lat="43.394916" lon="-4.648725">
        <ele>42.083</ele>
        <time>2022-08-28T08:30:40Z</time>
      </trkpt>
      <trkpt lat="43.394894" lon="-4.648660">
        <ele>42.088</ele>
        <time>2022-08-28T08:30:41Z</time>
      </trkpt>
      <trkpt lat="43.394854" lon="-4.648538">
        <ele>41.862</ele>
        <time>2022-08-28T08:30:43Z</time>
      </trkpt>
      <trkpt lat="43.394817" lon="-4.648421">
        <ele>41.518</ele>
        <time>2022-08-28T08:30:45Z</time>
      </trkpt>
      <trkpt lat="43.394780" lon="-4.648311">
        <ele>41.731</ele>
        <time>2022-08-28T08:30:47Z</time>
      </trkpt>
      <trkpt lat="43.394747" lon="-4.648201">
        <ele>42.642</ele>
        <time>2022-08-28T08:30:49Z</time>
      </trkpt>
      <trkpt lat="43.394719" lon="-4.648101">
        <ele>43.679</ele>
        <time>2022-08-28T08:30:51Z</time>
      </trkpt>
      <trkpt lat="43.394691" lon="-4.648009">
        <ele>43.305</ele>
        <time>2022-08-28T08:30:53Z</time>
      </trkpt>
      <trkpt lat="43.394668" lon="-4.647924">
        <ele>42.825</ele>
        <time>2022-08-28T08:30:55Z</time>
      </trkpt>
      <trkpt lat="43.394643" lon="-4.647839">
        <ele>42.509</ele>
        <time>2022-08-28T08:30:57Z</time>
      </trkpt>
      <trkpt lat="43.394618" lon="-4.647749">
        <ele>42.478</ele>
        <time>2022-08-28T08:30:59Z</time>
      </trkpt>
      <trkpt lat="43.394595" lon="-4.647661">
        <ele>42.858</ele>
        <time>2022-08-28T08:31:01Z</time>
      </trkpt>
      <trkpt lat="43.394573" lon="-4.647574">
        <ele>43.669</ele>
        <time>2022-08-28T08:31:03Z</time>
      </trkpt>
      <trkpt lat="43.394555" lon="-4.647479">
        <ele>44.657</ele>
        <time>2022-08-28T08:31:05Z</time>
      </trkpt>
      <trkpt lat="43.394537" lon="-4.647382">
        <ele>46.182</ele>
        <time>2022-08-28T08:31:07Z</time>
      </trkpt>
      <trkpt lat="43.394514" lon="-4.647300">
        <ele>47.516</ele>
        <time>2022-08-28T08:31:09Z</time>
      </trkpt>
      <trkpt lat="43.394491" lon="-4.647227">
        <ele>48.972</ele>
        <time>2022-08-28T08:31:11Z</time>
      </trkpt>
      <trkpt lat="43.394466" lon="-4.647152">
        <ele>49.685</ele>
        <time>2022-08-28T08:31:13Z</time>
      </trkpt>
      <trkpt lat="43.394444" lon="-4.647069">
        <ele>50.086</ele>
        <time>2022-08-28T08:31:15Z</time>
      </trkpt>
      <trkpt lat="43.394417" lon="-4.646982">
        <ele>50.813</ele>
        <time>2022-08-28T08:31:17Z</time>
      </trkpt>
      <trkpt lat="43.394399" lon="-4.646899">
        <ele>51.643</ele>
        <time>2022-08-28T08:31:19Z</time>
      </trkpt>
      <trkpt lat="43.394387" lon="-4.646821">
        <ele>52.207</ele>
        <time>2022-08-28T08:31:21Z</time>
      </trkpt>
      <trkpt lat="43.394374" lon="-4.646748">
        <ele>52.809</ele>
        <time>2022-08-28T08:31:23Z</time>
      </trkpt>
      <trkpt lat="43.394352" lon="-4.646665">
        <ele>53.732</ele>
        <time>2022-08-28T08:31:25Z</time>
      </trkpt>
      <trkpt lat="43.394335" lon="-4.646578">
        <ele>53.932</ele>
        <time>2022-08-28T08:31:27Z</time>
      </trkpt>
      <trkpt lat="43.394317" lon="-4.646488">
        <ele>54.133</ele>
        <time>2022-08-28T08:31:29Z</time>
      </trkpt>
      <trkpt lat="43.394299" lon="-4.646396">
        <ele>54.251</ele>
        <time>2022-08-28T08:31:31Z</time>
      </trkpt>
      <trkpt lat="43.394281" lon="-4.646309">
        <ele>54.646</ele>
        <time>2022-08-28T08:31:33Z</time>
      </trkpt>
      <trkpt lat="43.394266" lon="-4.646229">
        <ele>54.980</ele>
        <time>2022-08-28T08:31:35Z</time>
      </trkpt>
      <trkpt lat="43.394256" lon="-4.646152">
        <ele>55.096</ele>
        <time>2022-08-28T08:31:37Z</time>
      </trkpt>
      <trkpt lat="43.394241" lon="-4.646085">
        <ele>55.379</ele>
        <time>2022-08-28T08:31:39Z</time>
      </trkpt>
      <trkpt lat="43.394224" lon="-4.646012">
        <ele>55.740</ele>
        <time>2022-08-28T08:31:41Z</time>
      </trkpt>
      <trkpt lat="43.394212" lon="-4.645939">
        <ele>56.065</ele>
        <time>2022-08-28T08:31:43Z</time>
      </trkpt>
      <trkpt lat="43.394202" lon="-4.645861">
        <ele>56.268</ele>
        <time>2022-08-28T08:31:45Z</time>
      </trkpt>
      <trkpt lat="43.394197" lon="-4.645784">
        <ele>56.214</ele>
        <time>2022-08-28T08:31:47Z</time>
      </trkpt>
      <trkpt lat="43.394184" lon="-4.645711">
        <ele>56.109</ele>
        <time>2022-08-28T08:31:49Z</time>
      </trkpt>
      <trkpt lat="43.394167" lon="-4.645643">
        <ele>56.057</ele>
        <time>2022-08-28T08:31:51Z</time>
      </trkpt>
      <trkpt lat="43.394150" lon="-4.645571">
        <ele>56.257</ele>
        <time>2022-08-28T08:31:53Z</time>
      </trkpt>
      <trkpt lat="43.394132" lon="-4.645498">
        <ele>56.728</ele>
        <time>2022-08-28T08:31:55Z</time>
      </trkpt>
      <trkpt lat="43.394119" lon="-4.645423">
        <ele>57.046</ele>
        <time>2022-08-28T08:31:57Z</time>
      </trkpt>
      <trkpt lat="43.394107" lon="-4.645348">
        <ele>57.391</ele>
        <time>2022-08-28T08:31:59Z</time>
      </trkpt>
      <trkpt lat="43.394097" lon="-4.645276">
        <ele>57.515</ele>
        <time>2022-08-28T08:32:01Z</time>
      </trkpt>
      <trkpt lat="43.394087" lon="-4.645196">
        <ele>57.831</ele>
        <time>2022-08-28T08:32:03Z</time>
      </trkpt>
      <trkpt lat="43.394075" lon="-4.645116">
        <ele>58.064</ele>
        <time>2022-08-28T08:32:05Z</time>
      </trkpt>
      <trkpt lat="43.394063" lon="-4.645036">
        <ele>58.355</ele>
        <time>2022-08-28T08:32:07Z</time>
      </trkpt>
      <trkpt lat="43.394055" lon="-4.644956">
        <ele>58.721</ele>
        <time>2022-08-28T08:32:09Z</time>
      </trkpt>
      <trkpt lat="43.394043" lon="-4.644876">
        <ele>59.141</ele>
        <time>2022-08-28T08:32:11Z</time>
      </trkpt>
      <trkpt lat="43.394031" lon="-4.644798">
        <ele>59.605</ele>
        <time>2022-08-28T08:32:13Z</time>
      </trkpt>
      <trkpt lat="43.394023" lon="-4.644720">
        <ele>60.009</ele>
        <time>2022-08-28T08:32:15Z</time>
      </trkpt>
      <trkpt lat="43.394016" lon="-4.644638">
        <ele>60.993</ele>
        <time>2022-08-28T08:32:17Z</time>
      </trkpt>
      <trkpt lat="43.394008" lon="-4.644553">
        <ele>61.713</ele>
        <time>2022-08-28T08:32:19Z</time>
      </trkpt>
      <trkpt lat="43.393996" lon="-4.644468">
        <ele>62.364</ele>
        <time>2022-08-28T08:32:21Z</time>
      </trkpt>
      <trkpt lat="43.393986" lon="-4.644383">
        <ele>62.862</ele>
        <time>2022-08-28T08:32:23Z</time>
      </trkpt>
      <trkpt lat="43.393976" lon="-4.644293">
        <ele>63.137</ele>
        <time>2022-08-28T08:32:25Z</time>
      </trkpt>
      <trkpt lat="43.393968" lon="-4.644205">
        <ele>63.471</ele>
        <time>2022-08-28T08:32:27Z</time>
      </trkpt>
      <trkpt lat="43.393960" lon="-4.644120">
        <ele>63.377</ele>
        <time>2022-08-28T08:32:29Z</time>
      </trkpt>
      <trkpt lat="43.393952" lon="-4.644032">
        <ele>63.010</ele>
        <time>2022-08-28T08:32:31Z</time>
      </trkpt>
      <trkpt lat="43.393949" lon="-4.643942">
        <ele>62.971</ele>
        <time>2022-08-28T08:32:33Z</time>
      </trkpt>
      <trkpt lat="43.393944" lon="-4.643852">
        <ele>62.849</ele>
        <time>2022-08-28T08:32:35Z</time>
      </trkpt>
      <trkpt lat="43.393939" lon="-4.643764">
        <ele>62.702</ele>
        <time>2022-08-28T08:32:37Z</time>
      </trkpt>
      <trkpt lat="43.393926" lon="-4.643672">
        <ele>62.522</ele>
        <time>2022-08-28T08:32:39Z</time>
      </trkpt>
      <trkpt lat="43.393919" lon="-4.643582">
        <ele>62.409</ele>
        <time>2022-08-28T08:32:41Z</time>
      </trkpt>
      <trkpt lat="43.393912" lon="-4.643489">
        <ele>62.235</ele>
        <time>2022-08-28T08:32:43Z</time>
      </trkpt>
      <trkpt lat="43.393907" lon="-4.643396">
        <ele>62.175</ele>
        <time>2022-08-28T08:32:45Z</time>
      </trkpt>
      <trkpt lat="43.393905" lon="-4.643298">
        <ele>62.046</ele>
        <time>2022-08-28T08:32:47Z</time>
      </trkpt>
      <trkpt lat="43.393900" lon="-4.643198">
        <ele>61.954</ele>
        <time>2022-08-28T08:32:49Z</time>
      </trkpt>
      <trkpt lat="43.393892" lon="-4.643093">
        <ele>62.049</ele>
        <time>2022-08-28T08:32:51Z</time>
      </trkpt>
      <trkpt lat="43.393887" lon="-4.642985">
        <ele>62.063</ele>
        <time>2022-08-28T08:32:53Z</time>
      </trkpt>
      <trkpt lat="43.393884" lon="-4.642875">
        <ele>62.029</ele>
        <time>2022-08-28T08:32:55Z</time>
      </trkpt>
      <trkpt lat="43.393877" lon="-4.642762">
        <ele>62.162</ele>
        <time>2022-08-28T08:32:57Z</time>
      </trkpt>
      <trkpt lat="43.393869" lon="-4.642647">
        <ele>62.193</ele>
        <time>2022-08-28T08:32:59Z</time>
      </trkpt>
      <trkpt lat="43.393864" lon="-4.642532">
        <ele>62.197</ele>
        <time>2022-08-28T08:33:01Z</time>
      </trkpt>
      <trkpt lat="43.393856" lon="-4.642417">
        <ele>61.923</ele>
        <time>2022-08-28T08:33:03Z</time>
      </trkpt>
      <trkpt lat="43.393848" lon="-4.642300">
        <ele>61.525</ele>
        <time>2022-08-28T08:33:05Z</time>
      </trkpt>
      <trkpt lat="43.393841" lon="-4.642183">
        <ele>61.509</ele>
        <time>2022-08-28T08:33:07Z</time>
      </trkpt>
      <trkpt lat="43.393836" lon="-4.642075">
        <ele>61.990</ele>
        <time>2022-08-28T08:33:09Z</time>
      </trkpt>
      <trkpt lat="43.393838" lon="-4.641962">
        <ele>62.390</ele>
        <time>2022-08-28T08:33:11Z</time>
      </trkpt>
      <trkpt lat="43.393841" lon="-4.641849">
        <ele>62.021</ele>
        <time>2022-08-28T08:33:13Z</time>
      </trkpt>
      <trkpt lat="43.393836" lon="-4.641724">
        <ele>61.689</ele>
        <time>2022-08-28T08:33:15Z</time>
      </trkpt>
      <trkpt lat="43.393829" lon="-4.641597">
        <ele>61.484</ele>
        <time>2022-08-28T08:33:17Z</time>
      </trkpt>
      <trkpt lat="43.393821" lon="-4.641474">
        <ele>61.328</ele>
        <time>2022-08-28T08:33:19Z</time>
      </trkpt>
      <trkpt lat="43.393818" lon="-4.641347">
        <ele>61.114</ele>
        <time>2022-08-28T08:33:21Z</time>
      </trkpt>
      <trkpt lat="43.393816" lon="-4.641212">
        <ele>60.817</ele>
        <time>2022-08-28T08:33:23Z</time>
      </trkpt>
      <trkpt lat="43.393814" lon="-4.641144">
        <ele>60.698</ele>
        <time>2022-08-28T08:33:24Z</time>
      </trkpt>
      <trkpt lat="43.393806" lon="-4.641006">
        <ele>60.772</ele>
        <time>2022-08-28T08:33:26Z</time>
      </trkpt>
      <trkpt lat="43.393796" lon="-4.640868">
        <ele>61.013</ele>
        <time>2022-08-28T08:33:28Z</time>
      </trkpt>
      <trkpt lat="43.393786" lon="-4.640730">
        <ele>60.914</ele>
        <time>2022-08-28T08:33:30Z</time>
      </trkpt>
      <trkpt lat="43.393786" lon="-4.640595">
        <ele>60.609</ele>
        <time>2022-08-28T08:33:32Z</time>
      </trkpt>
      <trkpt lat="43.393788" lon="-4.640525">
        <ele>60.518</ele>
        <time>2022-08-28T08:33:33Z</time>
      </trkpt>
      <trkpt lat="43.393780" lon="-4.640382">
        <ele>60.668</ele>
        <time>2022-08-28T08:33:35Z</time>
      </trkpt>
      <trkpt lat="43.393775" lon="-4.640234">
        <ele>60.759</ele>
        <time>2022-08-28T08:33:37Z</time>
      </trkpt>
      <trkpt lat="43.393772" lon="-4.640162">
        <ele>60.997</ele>
        <time>2022-08-28T08:33:38Z</time>
      </trkpt>
      <trkpt lat="43.393772" lon="-4.640090">
        <ele>61.062</ele>
        <time>2022-08-28T08:33:39Z</time>
      </trkpt>
      <trkpt lat="43.393770" lon="-4.640017">
        <ele>61.186</ele>
        <time>2022-08-28T08:33:40Z</time>
      </trkpt>
      <trkpt lat="43.393760" lon="-4.639874">
        <ele>61.312</ele>
        <time>2022-08-28T08:33:42Z</time>
      </trkpt>
      <trkpt lat="43.393755" lon="-4.639731">
        <ele>61.475</ele>
        <time>2022-08-28T08:33:44Z</time>
      </trkpt>
      <trkpt lat="43.393750" lon="-4.639659">
        <ele>61.276</ele>
        <time>2022-08-28T08:33:45Z</time>
      </trkpt>
      <trkpt lat="43.393752" lon="-4.639512">
        <ele>60.371</ele>
        <time>2022-08-28T08:33:47Z</time>
      </trkpt>
      <trkpt lat="43.393752" lon="-4.639365">
        <ele>59.441</ele>
        <time>2022-08-28T08:33:49Z</time>
      </trkpt>
      <trkpt lat="43.393754" lon="-4.639288">
        <ele>58.815</ele>
        <time>2022-08-28T08:33:50Z</time>
      </trkpt>
      <trkpt lat="43.393749" lon="-4.639131">
        <ele>58.209</ele>
        <time>2022-08-28T08:33:52Z</time>
      </trkpt>
      <trkpt lat="43.393744" lon="-4.639051">
        <ele>58.778</ele>
        <time>2022-08-28T08:33:53Z</time>
      </trkpt>
      <trkpt lat="43.393741" lon="-4.638971">
        <ele>59.238</ele>
        <time>2022-08-28T08:33:54Z</time>
      </trkpt>
      <trkpt lat="43.393733" lon="-4.638804">
        <ele>59.579</ele>
        <time>2022-08-28T08:33:56Z</time>
      </trkpt>
      <trkpt lat="43.393730" lon="-4.638717">
        <ele>59.527</ele>
        <time>2022-08-28T08:33:57Z</time>
      </trkpt>
      <trkpt lat="43.393722" lon="-4.638552">
        <ele>58.982</ele>
        <time>2022-08-28T08:33:59Z</time>
      </trkpt>
      <trkpt lat="43.393720" lon="-4.638470">
        <ele>58.296</ele>
        <time>2022-08-28T08:34:00Z</time>
      </trkpt>
      <trkpt lat="43.393715" lon="-4.638388">
        <ele>57.672</ele>
        <time>2022-08-28T08:34:01Z</time>
      </trkpt>
      <trkpt lat="43.393705" lon="-4.638230">
        <ele>56.995</ele>
        <time>2022-08-28T08:34:03Z</time>
      </trkpt>
      <trkpt lat="43.393703" lon="-4.638145">
        <ele>56.726</ele>
        <time>2022-08-28T08:34:04Z</time>
      </trkpt>
      <trkpt lat="43.393703" lon="-4.638063">
        <ele>56.473</ele>
        <time>2022-08-28T08:34:05Z</time>
      </trkpt>
      <trkpt lat="43.393701" lon="-4.637985">
        <ele>56.085</ele>
        <time>2022-08-28T08:34:06Z</time>
      </trkpt>
      <trkpt lat="43.393696" lon="-4.637827">
        <ele>55.413</ele>
        <time>2022-08-28T08:34:08Z</time>
      </trkpt>
      <trkpt lat="43.393694" lon="-4.637667">
        <ele>54.709</ele>
        <time>2022-08-28T08:34:10Z</time>
      </trkpt>
      <trkpt lat="43.393684" lon="-4.637499">
        <ele>54.298</ele>
        <time>2022-08-28T08:34:12Z</time>
      </trkpt>
      <trkpt lat="43.393677" lon="-4.637326">
        <ele>54.848</ele>
        <time>2022-08-28T08:34:14Z</time>
      </trkpt>
      <trkpt lat="43.393672" lon="-4.637153">
        <ele>55.449</ele>
        <time>2022-08-28T08:34:16Z</time>
      </trkpt>
      <trkpt lat="43.393665" lon="-4.636988">
        <ele>55.827</ele>
        <time>2022-08-28T08:34:18Z</time>
      </trkpt>
      <trkpt lat="43.393660" lon="-4.636906">
        <ele>55.872</ele>
        <time>2022-08-28T08:34:19Z</time>
      </trkpt>
      <trkpt lat="43.393652" lon="-4.636821">
        <ele>55.766</ele>
        <time>2022-08-28T08:34:20Z</time>
      </trkpt>
      <trkpt lat="43.393642" lon="-4.636658">
        <ele>55.472</ele>
        <time>2022-08-28T08:34:22Z</time>
      </trkpt>
      <trkpt lat="43.393640" lon="-4.636576">
        <ele>55.415</ele>
        <time>2022-08-28T08:34:23Z</time>
      </trkpt>
      <trkpt lat="43.393633" lon="-4.636496">
        <ele>55.546</ele>
        <time>2022-08-28T08:34:24Z</time>
      </trkpt>
      <trkpt lat="43.393630" lon="-4.636419">
        <ele>55.583</ele>
        <time>2022-08-28T08:34:25Z</time>
      </trkpt>
      <trkpt lat="43.393622" lon="-4.636262">
        <ele>55.725</ele>
        <time>2022-08-28T08:34:27Z</time>
      </trkpt>
      <trkpt lat="43.393617" lon="-4.636185">
        <ele>55.917</ele>
        <time>2022-08-28T08:34:28Z</time>
      </trkpt>
      <trkpt lat="43.393609" lon="-4.636112">
        <ele>56.009</ele>
        <time>2022-08-28T08:34:29Z</time>
      </trkpt>
      <trkpt lat="43.393606" lon="-4.636030">
        <ele>55.879</ele>
        <time>2022-08-28T08:34:30Z</time>
      </trkpt>
      <trkpt lat="43.393603" lon="-4.635945">
        <ele>55.649</ele>
        <time>2022-08-28T08:34:31Z</time>
      </trkpt>
      <trkpt lat="43.393596" lon="-4.635858">
        <ele>55.520</ele>
        <time>2022-08-28T08:34:32Z</time>
      </trkpt>
      <trkpt lat="43.393591" lon="-4.635776">
        <ele>55.378</ele>
        <time>2022-08-28T08:34:33Z</time>
      </trkpt>
      <trkpt lat="43.393574" lon="-4.635618">
        <ele>55.413</ele>
        <time>2022-08-28T08:34:35Z</time>
      </trkpt>
      <trkpt lat="43.393564" lon="-4.635536">
        <ele>55.567</ele>
        <time>2022-08-28T08:34:36Z</time>
      </trkpt>
      <trkpt lat="43.393554" lon="-4.635374">
        <ele>55.633</ele>
        <time>2022-08-28T08:34:38Z</time>
      </trkpt>
      <trkpt lat="43.393544" lon="-4.635294">
        <ele>55.766</ele>
        <time>2022-08-28T08:34:39Z</time>
      </trkpt>
      <trkpt lat="43.393534" lon="-4.635211">
        <ele>56.027</ele>
        <time>2022-08-28T08:34:40Z</time>
      </trkpt>
      <trkpt lat="43.393522" lon="-4.635128">
        <ele>56.449</ele>
        <time>2022-08-28T08:34:41Z</time>
      </trkpt>
      <trkpt lat="43.393492" lon="-4.634958">
        <ele>56.802</ele>
        <time>2022-08-28T08:34:43Z</time>
      </trkpt>
      <trkpt lat="43.393474" lon="-4.634871">
        <ele>56.322</ele>
        <time>2022-08-28T08:34:44Z</time>
      </trkpt>
      <trkpt lat="43.393456" lon="-4.634784">
        <ele>55.909</ele>
        <time>2022-08-28T08:34:45Z</time>
      </trkpt>
      <trkpt lat="43.393438" lon="-4.634696">
        <ele>55.515</ele>
        <time>2022-08-28T08:34:46Z</time>
      </trkpt>
      <trkpt lat="43.393416" lon="-4.634609">
        <ele>55.355</ele>
        <time>2022-08-28T08:34:47Z</time>
      </trkpt>
      <trkpt lat="43.393379" lon="-4.634434">
        <ele>54.746</ele>
        <time>2022-08-28T08:34:49Z</time>
      </trkpt>
      <trkpt lat="43.393359" lon="-4.634349">
        <ele>54.424</ele>
        <time>2022-08-28T08:34:50Z</time>
      </trkpt>
      <trkpt lat="43.393317" lon="-4.634181">
        <ele>53.339</ele>
        <time>2022-08-28T08:34:52Z</time>
      </trkpt>
      <trkpt lat="43.393274" lon="-4.634018">
        <ele>52.573</ele>
        <time>2022-08-28T08:34:54Z</time>
      </trkpt>
      <trkpt lat="43.393254" lon="-4.633938">
        <ele>52.069</ele>
        <time>2022-08-28T08:34:55Z</time>
      </trkpt>
      <trkpt lat="43.393217" lon="-4.633778">
        <ele>51.182</ele>
        <time>2022-08-28T08:34:57Z</time>
      </trkpt>
      <trkpt lat="43.393195" lon="-4.633698">
        <ele>50.833</ele>
        <time>2022-08-28T08:34:58Z</time>
      </trkpt>
      <trkpt lat="43.393175" lon="-4.633618">
        <ele>50.761</ele>
        <time>2022-08-28T08:34:59Z</time>
      </trkpt>
      <trkpt lat="43.393137" lon="-4.633455">
        <ele>51.021</ele>
        <time>2022-08-28T08:35:01Z</time>
      </trkpt>
      <trkpt lat="43.393119" lon="-4.633377">
        <ele>51.113</ele>
        <time>2022-08-28T08:35:02Z</time>
      </trkpt>
      <trkpt lat="43.393082" lon="-4.633219">
        <ele>51.209</ele>
        <time>2022-08-28T08:35:04Z</time>
      </trkpt>
      <trkpt lat="43.393044" lon="-4.633066">
        <ele>51.327</ele>
        <time>2022-08-28T08:35:06Z</time>
      </trkpt>
      <trkpt lat="43.393026" lon="-4.632989">
        <ele>51.567</ele>
        <time>2022-08-28T08:35:07Z</time>
      </trkpt>
      <trkpt lat="43.393006" lon="-4.632911">
        <ele>51.648</ele>
        <time>2022-08-28T08:35:08Z</time>
      </trkpt>
      <trkpt lat="43.392986" lon="-4.632833">
        <ele>51.816</ele>
        <time>2022-08-28T08:35:09Z</time>
      </trkpt>
      <trkpt lat="43.392968" lon="-4.632751">
        <ele>51.881</ele>
        <time>2022-08-28T08:35:10Z</time>
      </trkpt>
      <trkpt lat="43.392931" lon="-4.632589">
        <ele>51.715</ele>
        <time>2022-08-28T08:35:12Z</time>
      </trkpt>
      <trkpt lat="43.392894" lon="-4.632429">
        <ele>51.421</ele>
        <time>2022-08-28T08:35:14Z</time>
      </trkpt>
      <trkpt lat="43.392856" lon="-4.632262">
        <ele>50.974</ele>
        <time>2022-08-28T08:35:16Z</time>
      </trkpt>
      <trkpt lat="43.392816" lon="-4.632097">
        <ele>50.355</ele>
        <time>2022-08-28T08:35:18Z</time>
      </trkpt>
      <trkpt lat="43.392796" lon="-4.632014">
        <ele>50.199</ele>
        <time>2022-08-28T08:35:19Z</time>
      </trkpt>
      <trkpt lat="43.392761" lon="-4.631841">
        <ele>50.107</ele>
        <time>2022-08-28T08:35:21Z</time>
      </trkpt>
      <trkpt lat="43.392729" lon="-4.631661">
        <ele>50.527</ele>
        <time>2022-08-28T08:35:23Z</time>
      </trkpt>
      <trkpt lat="43.392712" lon="-4.631574">
        <ele>50.509</ele>
        <time>2022-08-28T08:35:24Z</time>
      </trkpt>
      <trkpt lat="43.392687" lon="-4.631396">
        <ele>50.050</ele>
        <time>2022-08-28T08:35:26Z</time>
      </trkpt>
      <trkpt lat="43.392660" lon="-4.631219">
        <ele>49.720</ele>
        <time>2022-08-28T08:35:28Z</time>
      </trkpt>
      <trkpt lat="43.392647" lon="-4.631127">
        <ele>49.451</ele>
        <time>2022-08-28T08:35:29Z</time>
      </trkpt>
      <trkpt lat="43.392634" lon="-4.631037">
        <ele>49.439</ele>
        <time>2022-08-28T08:35:30Z</time>
      </trkpt>
      <trkpt lat="43.392607" lon="-4.630857">
        <ele>49.474</ele>
        <time>2022-08-28T08:35:32Z</time>
      </trkpt>
      <trkpt lat="43.392580" lon="-4.630672">
        <ele>49.028</ele>
        <time>2022-08-28T08:35:34Z</time>
      </trkpt>
      <trkpt lat="43.392570" lon="-4.630579">
        <ele>48.664</ele>
        <time>2022-08-28T08:35:35Z</time>
      </trkpt>
      <trkpt lat="43.392550" lon="-4.630392">
        <ele>48.467</ele>
        <time>2022-08-28T08:35:37Z</time>
      </trkpt>
      <trkpt lat="43.392530" lon="-4.630204">
        <ele>48.258</ele>
        <time>2022-08-28T08:35:39Z</time>
      </trkpt>
      <trkpt lat="43.392505" lon="-4.630019">
        <ele>48.045</ele>
        <time>2022-08-28T08:35:41Z</time>
      </trkpt>
      <trkpt lat="43.392485" lon="-4.629844">
        <ele>47.447</ele>
        <time>2022-08-28T08:35:43Z</time>
      </trkpt>
      <trkpt lat="43.392480" lon="-4.629752">
        <ele>46.811</ele>
        <time>2022-08-28T08:35:44Z</time>
      </trkpt>
      <trkpt lat="43.392472" lon="-4.629659">
        <ele>46.709</ele>
        <time>2022-08-28T08:35:45Z</time>
      </trkpt>
      <trkpt lat="43.392452" lon="-4.629472">
        <ele>46.625</ele>
        <time>2022-08-28T08:35:47Z</time>
      </trkpt>
      <trkpt lat="43.392435" lon="-4.629292">
        <ele>46.425</ele>
        <time>2022-08-28T08:35:49Z</time>
      </trkpt>
      <trkpt lat="43.392423" lon="-4.629207">
        <ele>46.486</ele>
        <time>2022-08-28T08:35:50Z</time>
      </trkpt>
      <trkpt lat="43.392415" lon="-4.629117">
        <ele>46.374</ele>
        <time>2022-08-28T08:35:51Z</time>
      </trkpt>
      <trkpt lat="43.392393" lon="-4.628945">
        <ele>46.599</ele>
        <time>2022-08-28T08:35:53Z</time>
      </trkpt>
      <trkpt lat="43.392383" lon="-4.628860">
        <ele>46.823</ele>
        <time>2022-08-28T08:35:54Z</time>
      </trkpt>
      <trkpt lat="43.392370" lon="-4.628693">
        <ele>47.959</ele>
        <time>2022-08-28T08:35:56Z</time>
      </trkpt>
      <trkpt lat="43.392363" lon="-4.628608">
        <ele>48.432</ele>
        <time>2022-08-28T08:35:57Z</time>
      </trkpt>
      <trkpt lat="43.392353" lon="-4.628521">
        <ele>48.583</ele>
        <time>2022-08-28T08:35:58Z</time>
      </trkpt>
      <trkpt lat="43.392331" lon="-4.628356">
        <ele>48.744</ele>
        <time>2022-08-28T08:36:00Z</time>
      </trkpt>
      <trkpt lat="43.392323" lon="-4.628276">
        <ele>48.605</ele>
        <time>2022-08-28T08:36:01Z</time>
      </trkpt>
      <trkpt lat="43.392306" lon="-4.628109">
        <ele>48.415</ele>
        <time>2022-08-28T08:36:03Z</time>
      </trkpt>
      <trkpt lat="43.392298" lon="-4.628027">
        <ele>48.309</ele>
        <time>2022-08-28T08:36:04Z</time>
      </trkpt>
      <trkpt lat="43.392291" lon="-4.627947">
        <ele>48.185</ele>
        <time>2022-08-28T08:36:05Z</time>
      </trkpt>
      <trkpt lat="43.392278" lon="-4.627789">
        <ele>47.865</ele>
        <time>2022-08-28T08:36:07Z</time>
      </trkpt>
      <trkpt lat="43.392266" lon="-4.627709">
        <ele>48.016</ele>
        <time>2022-08-28T08:36:08Z</time>
      </trkpt>
      <trkpt lat="43.392253" lon="-4.627554">
        <ele>48.234</ele>
        <time>2022-08-28T08:36:10Z</time>
      </trkpt>
      <trkpt lat="43.392240" lon="-4.627402">
        <ele>48.219</ele>
        <time>2022-08-28T08:36:12Z</time>
      </trkpt>
      <trkpt lat="43.392233" lon="-4.627329">
        <ele>48.163</ele>
        <time>2022-08-28T08:36:13Z</time>
      </trkpt>
      <trkpt lat="43.392213" lon="-4.627181">
        <ele>48.179</ele>
        <time>2022-08-28T08:36:15Z</time>
      </trkpt>
      <trkpt lat="43.392196" lon="-4.627036">
        <ele>47.862</ele>
        <time>2022-08-28T08:36:17Z</time>
      </trkpt>
      <trkpt lat="43.392179" lon="-4.626893">
        <ele>47.713</ele>
        <time>2022-08-28T08:36:19Z</time>
      </trkpt>
      <trkpt lat="43.392167" lon="-4.626745">
        <ele>47.954</ele>
        <time>2022-08-28T08:36:21Z</time>
      </trkpt>
      <trkpt lat="43.392154" lon="-4.626603">
        <ele>48.256</ele>
        <time>2022-08-28T08:36:23Z</time>
      </trkpt>
      <trkpt lat="43.392146" lon="-4.626531">
        <ele>48.511</ele>
        <time>2022-08-28T08:36:24Z</time>
      </trkpt>
      <trkpt lat="43.392131" lon="-4.626384">
        <ele>49.009</ele>
        <time>2022-08-28T08:36:26Z</time>
      </trkpt>
      <trkpt lat="43.392119" lon="-4.626237">
        <ele>49.316</ele>
        <time>2022-08-28T08:36:28Z</time>
      </trkpt>
      <trkpt lat="43.392114" lon="-4.626164">
        <ele>49.526</ele>
        <time>2022-08-28T08:36:29Z</time>
      </trkpt>
      <trkpt lat="43.392104" lon="-4.626019">
        <ele>49.517</ele>
        <time>2022-08-28T08:36:31Z</time>
      </trkpt>
      <trkpt lat="43.392101" lon="-4.625947">
        <ele>49.425</ele>
        <time>2022-08-28T08:36:32Z</time>
      </trkpt>
      <trkpt lat="43.392093" lon="-4.625807">
        <ele>49.380</ele>
        <time>2022-08-28T08:36:34Z</time>
      </trkpt>
      <trkpt lat="43.392085" lon="-4.625665">
        <ele>49.554</ele>
        <time>2022-08-28T08:36:36Z</time>
      </trkpt>
      <trkpt lat="43.392080" lon="-4.625527">
        <ele>49.570</ele>
        <time>2022-08-28T08:36:38Z</time>
      </trkpt>
      <trkpt lat="43.392082" lon="-4.625387">
        <ele>48.973</ele>
        <time>2022-08-28T08:36:40Z</time>
      </trkpt>
      <trkpt lat="43.392080" lon="-4.625244">
        <ele>48.534</ele>
        <time>2022-08-28T08:36:42Z</time>
      </trkpt>
      <trkpt lat="43.392083" lon="-4.625176">
        <ele>48.382</ele>
        <time>2022-08-28T08:36:43Z</time>
      </trkpt>
      <trkpt lat="43.392086" lon="-4.625104">
        <ele>48.143</ele>
        <time>2022-08-28T08:36:44Z</time>
      </trkpt>
      <trkpt lat="43.392091" lon="-4.624964">
        <ele>47.717</ele>
        <time>2022-08-28T08:36:46Z</time>
      </trkpt>
      <trkpt lat="43.392089" lon="-4.624824">
        <ele>47.209</ele>
        <time>2022-08-28T08:36:48Z</time>
      </trkpt>
      <trkpt lat="43.392089" lon="-4.624756">
        <ele>47.039</ele>
        <time>2022-08-28T08:36:49Z</time>
      </trkpt>
      <trkpt lat="43.392091" lon="-4.624611">
        <ele>46.649</ele>
        <time>2022-08-28T08:36:51Z</time>
      </trkpt>
      <trkpt lat="43.392093" lon="-4.624463">
        <ele>46.470</ele>
        <time>2022-08-28T08:36:53Z</time>
      </trkpt>
      <trkpt lat="43.392095" lon="-4.624316">
        <ele>46.528</ele>
        <time>2022-08-28T08:36:55Z</time>
      </trkpt>
      <trkpt lat="43.392093" lon="-4.624243">
        <ele>46.763</ele>
        <time>2022-08-28T08:36:56Z</time>
      </trkpt>
      <trkpt lat="43.392091" lon="-4.624170">
        <ele>46.987</ele>
        <time>2022-08-28T08:36:57Z</time>
      </trkpt>
      <trkpt lat="43.392093" lon="-4.624023">
        <ele>47.183</ele>
        <time>2022-08-28T08:36:59Z</time>
      </trkpt>
      <trkpt lat="43.392093" lon="-4.623878">
        <ele>47.496</ele>
        <time>2022-08-28T08:37:01Z</time>
      </trkpt>
      <trkpt lat="43.392095" lon="-4.623805">
        <ele>47.777</ele>
        <time>2022-08-28T08:37:02Z</time>
      </trkpt>
      <trkpt lat="43.392102" lon="-4.623657">
        <ele>48.143</ele>
        <time>2022-08-28T08:37:04Z</time>
      </trkpt>
      <trkpt lat="43.392105" lon="-4.623514">
        <ele>48.664</ele>
        <time>2022-08-28T08:37:06Z</time>
      </trkpt>
      <trkpt lat="43.392102" lon="-4.623444">
        <ele>48.910</ele>
        <time>2022-08-28T08:37:07Z</time>
      </trkpt>
      <trkpt lat="43.392102" lon="-4.623379">
        <ele>49.109</ele>
        <time>2022-08-28T08:37:08Z</time>
      </trkpt>
      <trkpt lat="43.392105" lon="-4.623314">
        <ele>49.375</ele>
        <time>2022-08-28T08:37:09Z</time>
      </trkpt>
      <trkpt lat="43.392105" lon="-4.623187">
        <ele>49.325</ele>
        <time>2022-08-28T08:37:11Z</time>
      </trkpt>
      <trkpt lat="43.392102" lon="-4.623122">
        <ele>49.336</ele>
        <time>2022-08-28T08:37:12Z</time>
      </trkpt>
      <trkpt lat="43.392095" lon="-4.622990">
        <ele>49.234</ele>
        <time>2022-08-28T08:37:14Z</time>
      </trkpt>
      <trkpt lat="43.392095" lon="-4.622920">
        <ele>49.199</ele>
        <time>2022-08-28T08:37:15Z</time>
      </trkpt>
      <trkpt lat="43.392095" lon="-4.622852">
        <ele>49.013</ele>
        <time>2022-08-28T08:37:16Z</time>
      </trkpt>
      <trkpt lat="43.392092" lon="-4.622784">
        <ele>48.969</ele>
        <time>2022-08-28T08:37:17Z</time>
      </trkpt>
      <trkpt lat="43.392087" lon="-4.622642">
        <ele>48.912</ele>
        <time>2022-08-28T08:37:19Z</time>
      </trkpt>
      <trkpt lat="43.392082" lon="-4.622499">
        <ele>49.063</ele>
        <time>2022-08-28T08:37:21Z</time>
      </trkpt>
      <trkpt lat="43.392080" lon="-4.622429">
        <ele>49.239</ele>
        <time>2022-08-28T08:37:22Z</time>
      </trkpt>
      <trkpt lat="43.392080" lon="-4.622357">
        <ele>49.301</ele>
        <time>2022-08-28T08:37:23Z</time>
      </trkpt>
      <trkpt lat="43.392082" lon="-4.622285">
        <ele>49.421</ele>
        <time>2022-08-28T08:37:24Z</time>
      </trkpt>
      <trkpt lat="43.392085" lon="-4.622213">
        <ele>49.509</ele>
        <time>2022-08-28T08:37:25Z</time>
      </trkpt>
      <trkpt lat="43.392095" lon="-4.622076">
        <ele>49.494</ele>
        <time>2022-08-28T08:37:27Z</time>
      </trkpt>
      <trkpt lat="43.392102" lon="-4.621939">
        <ele>49.344</ele>
        <time>2022-08-28T08:37:29Z</time>
      </trkpt>
      <trkpt lat="43.392105" lon="-4.621801">
        <ele>49.055</ele>
        <time>2022-08-28T08:37:31Z</time>
      </trkpt>
      <trkpt lat="43.392102" lon="-4.621663">
        <ele>48.963</ele>
        <time>2022-08-28T08:37:33Z</time>
      </trkpt>
      <trkpt lat="43.392102" lon="-4.621593">
        <ele>48.678</ele>
        <time>2022-08-28T08:37:34Z</time>
      </trkpt>
      <trkpt lat="43.392102" lon="-4.621456">
        <ele>48.132</ele>
        <time>2022-08-28T08:37:36Z</time>
      </trkpt>
      <trkpt lat="43.392104" lon="-4.621318">
        <ele>47.898</ele>
        <time>2022-08-28T08:37:38Z</time>
      </trkpt>
      <trkpt lat="43.392104" lon="-4.621248">
        <ele>47.871</ele>
        <time>2022-08-28T08:37:39Z</time>
      </trkpt>
      <trkpt lat="43.392106" lon="-4.621111">
        <ele>47.752</ele>
        <time>2022-08-28T08:37:41Z</time>
      </trkpt>
      <trkpt lat="43.392106" lon="-4.621041">
        <ele>48.038</ele>
        <time>2022-08-28T08:37:42Z</time>
      </trkpt>
      <trkpt lat="43.392106" lon="-4.620973">
        <ele>48.370</ele>
        <time>2022-08-28T08:37:43Z</time>
      </trkpt>
      <trkpt lat="43.392106" lon="-4.620835">
        <ele>48.817</ele>
        <time>2022-08-28T08:37:45Z</time>
      </trkpt>
      <trkpt lat="43.392106" lon="-4.620763">
        <ele>48.709</ele>
        <time>2022-08-28T08:37:46Z</time>
      </trkpt>
      <trkpt lat="43.392109" lon="-4.620623">
        <ele>48.464</ele>
        <time>2022-08-28T08:37:48Z</time>
      </trkpt>
      <trkpt lat="43.392107" lon="-4.620555">
        <ele>48.294</ele>
        <time>2022-08-28T08:37:49Z</time>
      </trkpt>
      <trkpt lat="43.392110" lon="-4.620487">
        <ele>48.135</ele>
        <time>2022-08-28T08:37:50Z</time>
      </trkpt>
      <trkpt lat="43.392110" lon="-4.620420">
        <ele>48.083</ele>
        <time>2022-08-28T08:37:51Z</time>
      </trkpt>
      <trkpt lat="43.392112" lon="-4.620292">
        <ele>47.848</ele>
        <time>2022-08-28T08:37:53Z</time>
      </trkpt>
      <trkpt lat="43.392117" lon="-4.620159">
        <ele>47.312</ele>
        <time>2022-08-28T08:37:55Z</time>
      </trkpt>
      <trkpt lat="43.392119" lon="-4.620092">
        <ele>47.178</ele>
        <time>2022-08-28T08:37:56Z</time>
      </trkpt>
      <trkpt lat="43.392119" lon="-4.619955">
        <ele>46.921</ele>
        <time>2022-08-28T08:37:58Z</time>
      </trkpt>
      <trkpt lat="43.392121" lon="-4.619887">
        <ele>47.182</ele>
        <time>2022-08-28T08:37:59Z</time>
      </trkpt>
      <trkpt lat="43.392123" lon="-4.619747">
        <ele>47.656</ele>
        <time>2022-08-28T08:38:01Z</time>
      </trkpt>
      <trkpt lat="43.392125" lon="-4.619677">
        <ele>48.059</ele>
        <time>2022-08-28T08:38:02Z</time>
      </trkpt>
      <trkpt lat="43.392127" lon="-4.619537">
        <ele>48.814</ele>
        <time>2022-08-28T08:38:04Z</time>
      </trkpt>
      <trkpt lat="43.392125" lon="-4.619394">
        <ele>49.209</ele>
        <time>2022-08-28T08:38:06Z</time>
      </trkpt>
      <trkpt lat="43.392123" lon="-4.619321">
        <ele>48.966</ele>
        <time>2022-08-28T08:38:07Z</time>
      </trkpt>
      <trkpt lat="43.392121" lon="-4.619249">
        <ele>48.796</ele>
        <time>2022-08-28T08:38:08Z</time>
      </trkpt>
      <trkpt lat="43.392118" lon="-4.619101">
        <ele>48.277</ele>
        <time>2022-08-28T08:38:10Z</time>
      </trkpt>
      <trkpt lat="43.392115" lon="-4.619026">
        <ele>48.155</ele>
        <time>2022-08-28T08:38:11Z</time>
      </trkpt>
      <trkpt lat="43.392112" lon="-4.618951">
        <ele>47.910</ele>
        <time>2022-08-28T08:38:12Z</time>
      </trkpt>
      <trkpt lat="43.392109" lon="-4.618874">
        <ele>47.994</ele>
        <time>2022-08-28T08:38:13Z</time>
      </trkpt>
      <trkpt lat="43.392102" lon="-4.618724">
        <ele>48.470</ele>
        <time>2022-08-28T08:38:15Z</time>
      </trkpt>
      <trkpt lat="43.392100" lon="-4.618649">
        <ele>48.633</ele>
        <time>2022-08-28T08:38:16Z</time>
      </trkpt>
      <trkpt lat="43.392088" lon="-4.618502">
        <ele>49.314</ele>
        <time>2022-08-28T08:38:18Z</time>
      </trkpt>
      <trkpt lat="43.392080" lon="-4.618432">
        <ele>49.793</ele>
        <time>2022-08-28T08:38:19Z</time>
      </trkpt>
      <trkpt lat="43.392073" lon="-4.618362">
        <ele>50.165</ele>
        <time>2022-08-28T08:38:20Z</time>
      </trkpt>
      <trkpt lat="43.392061" lon="-4.618222">
        <ele>50.221</ele>
        <time>2022-08-28T08:38:22Z</time>
      </trkpt>
      <trkpt lat="43.392044" lon="-4.618082">
        <ele>50.009</ele>
        <time>2022-08-28T08:38:24Z</time>
      </trkpt>
      <trkpt lat="43.392036" lon="-4.617942">
        <ele>49.670</ele>
        <time>2022-08-28T08:38:26Z</time>
      </trkpt>
      <trkpt lat="43.392031" lon="-4.617797">
        <ele>49.190</ele>
        <time>2022-08-28T08:38:28Z</time>
      </trkpt>
      <trkpt lat="43.392031" lon="-4.617657">
        <ele>49.111</ele>
        <time>2022-08-28T08:38:30Z</time>
      </trkpt>
      <trkpt lat="43.392031" lon="-4.617524">
        <ele>49.399</ele>
        <time>2022-08-28T08:38:32Z</time>
      </trkpt>
      <trkpt lat="43.392033" lon="-4.617454">
        <ele>49.454</ele>
        <time>2022-08-28T08:38:33Z</time>
      </trkpt>
      <trkpt lat="43.392038" lon="-4.617386">
        <ele>49.628</ele>
        <time>2022-08-28T08:38:34Z</time>
      </trkpt>
      <trkpt lat="43.392045" lon="-4.617318">
        <ele>49.894</ele>
        <time>2022-08-28T08:38:35Z</time>
      </trkpt>
      <trkpt lat="43.392062" lon="-4.617190">
        <ele>50.057</ele>
        <time>2022-08-28T08:38:37Z</time>
      </trkpt>
      <trkpt lat="43.392074" lon="-4.617125">
        <ele>49.888</ele>
        <time>2022-08-28T08:38:38Z</time>
      </trkpt>
      <trkpt lat="43.392084" lon="-4.617062">
        <ele>49.747</ele>
        <time>2022-08-28T08:38:39Z</time>
      </trkpt>
      <trkpt lat="43.392102" lon="-4.616940">
        <ele>49.429</ele>
        <time>2022-08-28T08:38:41Z</time>
      </trkpt>
      <trkpt lat="43.392115" lon="-4.616880">
        <ele>49.321</ele>
        <time>2022-08-28T08:38:42Z</time>
      </trkpt>
      <trkpt lat="43.392138" lon="-4.616768">
        <ele>49.109</ele>
        <time>2022-08-28T08:38:44Z</time>
      </trkpt>
      <trkpt lat="43.392155" lon="-4.616655">
        <ele>48.795</ele>
        <time>2022-08-28T08:38:46Z</time>
      </trkpt>
      <trkpt lat="43.392168" lon="-4.616545">
        <ele>48.745</ele>
        <time>2022-08-28T08:38:48Z</time>
      </trkpt>
      <trkpt lat="43.392183" lon="-4.616438">
        <ele>48.526</ele>
        <time>2022-08-28T08:38:50Z</time>
      </trkpt>
      <trkpt lat="43.392196" lon="-4.616338">
        <ele>48.484</ele>
        <time>2022-08-28T08:38:52Z</time>
      </trkpt>
      <trkpt lat="43.392206" lon="-4.616233">
        <ele>48.369</ele>
        <time>2022-08-28T08:38:54Z</time>
      </trkpt>
      <trkpt lat="43.392213" lon="-4.616110">
        <ele>48.263</ele>
        <time>2022-08-28T08:38:56Z</time>
      </trkpt>
      <trkpt lat="43.392215" lon="-4.615977">
        <ele>48.249</ele>
        <time>2022-08-28T08:38:58Z</time>
      </trkpt>
      <trkpt lat="43.392210" lon="-4.615904">
        <ele>48.492</ele>
        <time>2022-08-28T08:38:59Z</time>
      </trkpt>
      <trkpt lat="43.392205" lon="-4.615832">
        <ele>48.613</ele>
        <time>2022-08-28T08:39:00Z</time>
      </trkpt>
      <trkpt lat="43.392200" lon="-4.615760">
        <ele>48.738</ele>
        <time>2022-08-28T08:39:01Z</time>
      </trkpt>
      <trkpt lat="43.392187" lon="-4.615617">
        <ele>49.170</ele>
        <time>2022-08-28T08:39:03Z</time>
      </trkpt>
      <trkpt lat="43.392175" lon="-4.615542">
        <ele>49.517</ele>
        <time>2022-08-28T08:39:04Z</time>
      </trkpt>
      <trkpt lat="43.392165" lon="-4.615465">
        <ele>49.709</ele>
        <time>2022-08-28T08:39:05Z</time>
      </trkpt>
      <trkpt lat="43.392145" lon="-4.615310">
        <ele>50.014</ele>
        <time>2022-08-28T08:39:07Z</time>
      </trkpt>
      <trkpt lat="43.392137" lon="-4.615230">
        <ele>50.144</ele>
        <time>2022-08-28T08:39:08Z</time>
      </trkpt>
      <trkpt lat="43.392125" lon="-4.615150">
        <ele>50.345</ele>
        <time>2022-08-28T08:39:09Z</time>
      </trkpt>
      <trkpt lat="43.392105" lon="-4.614988">
        <ele>50.523</ele>
        <time>2022-08-28T08:39:11Z</time>
      </trkpt>
      <trkpt lat="43.392088" lon="-4.614815">
        <ele>49.918</ele>
        <time>2022-08-28T08:39:13Z</time>
      </trkpt>
      <trkpt lat="43.392073" lon="-4.614628">
        <ele>49.042</ele>
        <time>2022-08-28T08:39:15Z</time>
      </trkpt>
      <trkpt lat="43.392073" lon="-4.614531">
        <ele>48.338</ele>
        <time>2022-08-28T08:39:16Z</time>
      </trkpt>
      <trkpt lat="43.392075" lon="-4.614431">
        <ele>47.651</ele>
        <time>2022-08-28T08:39:17Z</time>
      </trkpt>
      <trkpt lat="43.392078" lon="-4.614326">
        <ele>47.012</ele>
        <time>2022-08-28T08:39:18Z</time>
      </trkpt>
      <trkpt lat="43.392090" lon="-4.614111">
        <ele>45.689</ele>
        <time>2022-08-28T08:39:20Z</time>
      </trkpt>
      <trkpt lat="43.392098" lon="-4.614001">
        <ele>44.806</ele>
        <time>2022-08-28T08:39:21Z</time>
      </trkpt>
      <trkpt lat="43.392118" lon="-4.613774">
        <ele>43.226</ele>
        <time>2022-08-28T08:39:23Z</time>
      </trkpt>
      <trkpt lat="43.392130" lon="-4.613659">
        <ele>42.309</ele>
        <time>2022-08-28T08:39:24Z</time>
      </trkpt>
      <trkpt lat="43.392145" lon="-4.613544">
        <ele>41.679</ele>
        <time>2022-08-28T08:39:25Z</time>
      </trkpt>
      <trkpt lat="43.392173" lon="-4.613307">
        <ele>40.879</ele>
        <time>2022-08-28T08:39:27Z</time>
      </trkpt>
      <trkpt lat="43.392185" lon="-4.613189">
        <ele>40.470</ele>
        <time>2022-08-28T08:39:28Z</time>
      </trkpt>
      <trkpt lat="43.392210" lon="-4.612956">
        <ele>39.328</ele>
        <time>2022-08-28T08:39:30Z</time>
      </trkpt>
      <trkpt lat="43.392223" lon="-4.612841">
        <ele>39.013</ele>
        <time>2022-08-28T08:39:31Z</time>
      </trkpt>
      <trkpt lat="43.392235" lon="-4.612729">
        <ele>38.947</ele>
        <time>2022-08-28T08:39:32Z</time>
      </trkpt>
      <trkpt lat="43.392258" lon="-4.612506">
        <ele>39.113</ele>
        <time>2022-08-28T08:39:34Z</time>
      </trkpt>
      <trkpt lat="43.392268" lon="-4.612398">
        <ele>39.216</ele>
        <time>2022-08-28T08:39:35Z</time>
      </trkpt>
      <trkpt lat="43.392290" lon="-4.612185">
        <ele>39.527</ele>
        <time>2022-08-28T08:39:37Z</time>
      </trkpt>
      <trkpt lat="43.392315" lon="-4.611980">
        <ele>39.858</ele>
        <time>2022-08-28T08:39:39Z</time>
      </trkpt>
      <trkpt lat="43.392323" lon="-4.611880">
        <ele>40.452</ele>
        <time>2022-08-28T08:39:40Z</time>
      </trkpt>
      <trkpt lat="43.392331" lon="-4.611782">
        <ele>40.917</ele>
        <time>2022-08-28T08:39:41Z</time>
      </trkpt>
      <trkpt lat="43.392346" lon="-4.611587">
        <ele>41.109</ele>
        <time>2022-08-28T08:39:43Z</time>
      </trkpt>
      <trkpt lat="43.392353" lon="-4.611492">
        <ele>40.616</ele>
        <time>2022-08-28T08:39:44Z</time>
      </trkpt>
      <trkpt lat="43.392361" lon="-4.611400">
        <ele>40.016</ele>
        <time>2022-08-28T08:39:45Z</time>
      </trkpt>
      <trkpt lat="43.392371" lon="-4.611305">
        <ele>39.657</ele>
        <time>2022-08-28T08:39:46Z</time>
      </trkpt>
      <trkpt lat="43.392388" lon="-4.611120">
        <ele>39.025</ele>
        <time>2022-08-28T08:39:48Z</time>
      </trkpt>
      <trkpt lat="43.392395" lon="-4.611030">
        <ele>39.460</ele>
        <time>2022-08-28T08:39:49Z</time>
      </trkpt>
      <trkpt lat="43.392415" lon="-4.610852">
        <ele>40.144</ele>
        <time>2022-08-28T08:39:51Z</time>
      </trkpt>
      <trkpt lat="43.392435" lon="-4.610675">
        <ele>40.840</ele>
        <time>2022-08-28T08:39:53Z</time>
      </trkpt>
      <trkpt lat="43.392445" lon="-4.610588">
        <ele>41.053</ele>
        <time>2022-08-28T08:39:54Z</time>
      </trkpt>
      <trkpt lat="43.392457" lon="-4.610503">
        <ele>41.054</ele>
        <time>2022-08-28T08:39:55Z</time>
      </trkpt>
      <trkpt lat="43.392474" lon="-4.610335">
        <ele>40.798</ele>
        <time>2022-08-28T08:39:57Z</time>
      </trkpt>
      <trkpt lat="43.392492" lon="-4.610167">
        <ele>41.015</ele>
        <time>2022-08-28T08:39:59Z</time>
      </trkpt>
      <trkpt lat="43.392504" lon="-4.610084">
        <ele>41.326</ele>
        <time>2022-08-28T08:40:00Z</time>
      </trkpt>
      <trkpt lat="43.392512" lon="-4.610001">
        <ele>41.809</ele>
        <time>2022-08-28T08:40:01Z</time>
      </trkpt>
      <trkpt lat="43.392524" lon="-4.609919">
        <ele>41.670</ele>
        <time>2022-08-28T08:40:02Z</time>
      </trkpt>
      <trkpt lat="43.392549" lon="-4.609757">
        <ele>41.120</ele>
        <time>2022-08-28T08:40:04Z</time>
      </trkpt>
      <trkpt lat="43.392561" lon="-4.609674">
        <ele>40.981</ele>
        <time>2022-08-28T08:40:05Z</time>
      </trkpt>
      <trkpt lat="43.392578" lon="-4.609594">
        <ele>40.559</ele>
        <time>2022-08-28T08:40:06Z</time>
      </trkpt>
      <trkpt lat="43.392611" lon="-4.609437">
        <ele>39.644</ele>
        <time>2022-08-28T08:40:08Z</time>
      </trkpt>
      <trkpt lat="43.392628" lon="-4.609359">
        <ele>39.868</ele>
        <time>2022-08-28T08:40:09Z</time>
      </trkpt>
      <trkpt lat="43.392645" lon="-4.609281">
        <ele>40.164</ele>
        <time>2022-08-28T08:40:10Z</time>
      </trkpt>
      <trkpt lat="43.392683" lon="-4.609126">
        <ele>41.087</ele>
        <time>2022-08-28T08:40:12Z</time>
      </trkpt>
      <trkpt lat="43.392700" lon="-4.609049">
        <ele>41.028</ele>
        <time>2022-08-28T08:40:13Z</time>
      </trkpt>
      <trkpt lat="43.392715" lon="-4.608972">
        <ele>41.065</ele>
        <time>2022-08-28T08:40:14Z</time>
      </trkpt>
      <trkpt lat="43.392750" lon="-4.608820">
        <ele>41.468</ele>
        <time>2022-08-28T08:40:16Z</time>
      </trkpt>
      <trkpt lat="43.392765" lon="-4.608747">
        <ele>41.614</ele>
        <time>2022-08-28T08:40:17Z</time>
      </trkpt>
      <trkpt lat="43.392803" lon="-4.608599">
        <ele>41.709</ele>
        <time>2022-08-28T08:40:19Z</time>
      </trkpt>
      <trkpt lat="43.392821" lon="-4.608526">
        <ele>42.027</ele>
        <time>2022-08-28T08:40:20Z</time>
      </trkpt>
      <trkpt lat="43.392843" lon="-4.608451">
        <ele>42.247</ele>
        <time>2022-08-28T08:40:21Z</time>
      </trkpt>
      <trkpt lat="43.392881" lon="-4.608301">
        <ele>42.838</ele>
        <time>2022-08-28T08:40:23Z</time>
      </trkpt>
      <trkpt lat="43.392898" lon="-4.608226">
        <ele>43.126</ele>
        <time>2022-08-28T08:40:24Z</time>
      </trkpt>
      <trkpt lat="43.392931" lon="-4.608074">
        <ele>43.661</ele>
        <time>2022-08-28T08:40:26Z</time>
      </trkpt>
      <trkpt lat="43.392966" lon="-4.607922">
        <ele>43.475</ele>
        <time>2022-08-28T08:40:28Z</time>
      </trkpt>
      <trkpt lat="43.392983" lon="-4.607774">
        <ele>43.431</ele>
        <time>2022-08-28T08:40:30Z</time>
      </trkpt>
      <trkpt lat="43.392993" lon="-4.607699">
        <ele>43.244</ele>
        <time>2022-08-28T08:40:31Z</time>
      </trkpt>
      <trkpt lat="43.393026" lon="-4.607556">
        <ele>42.735</ele>
        <time>2022-08-28T08:40:33Z</time>
      </trkpt>
      <trkpt lat="43.393041" lon="-4.607486">
        <ele>42.546</ele>
        <time>2022-08-28T08:40:34Z</time>
      </trkpt>
      <trkpt lat="43.393056" lon="-4.607416">
        <ele>42.388</ele>
        <time>2022-08-28T08:40:35Z</time>
      </trkpt>
      <trkpt lat="43.393069" lon="-4.607343">
        <ele>42.416</ele>
        <time>2022-08-28T08:40:36Z</time>
      </trkpt>
      <trkpt lat="43.393101" lon="-4.607200">
        <ele>42.409</ele>
        <time>2022-08-28T08:40:38Z</time>
      </trkpt>
      <trkpt lat="43.393129" lon="-4.607053">
        <ele>42.485</ele>
        <time>2022-08-28T08:40:40Z</time>
      </trkpt>
      <trkpt lat="43.393154" lon="-4.606891">
        <ele>42.385</ele>
        <time>2022-08-28T08:40:42Z</time>
      </trkpt>
      <trkpt lat="43.393167" lon="-4.606813">
        <ele>42.256</ele>
        <time>2022-08-28T08:40:43Z</time>
      </trkpt>
      <trkpt lat="43.393182" lon="-4.606733">
        <ele>42.124</ele>
        <time>2022-08-28T08:40:44Z</time>
      </trkpt>
      <trkpt lat="43.393194" lon="-4.606653">
        <ele>42.139</ele>
        <time>2022-08-28T08:40:45Z</time>
      </trkpt>
      <trkpt lat="43.393221" lon="-4.606498">
        <ele>42.513</ele>
        <time>2022-08-28T08:40:47Z</time>
      </trkpt>
      <trkpt lat="43.393244" lon="-4.606340">
        <ele>42.579</ele>
        <time>2022-08-28T08:40:49Z</time>
      </trkpt>
      <trkpt lat="43.393251" lon="-4.606262">
        <ele>42.242</ele>
        <time>2022-08-28T08:40:50Z</time>
      </trkpt>
      <trkpt lat="43.393263" lon="-4.606185">
        <ele>41.983</ele>
        <time>2022-08-28T08:40:51Z</time>
      </trkpt>
      <trkpt lat="43.393278" lon="-4.606025">
        <ele>41.988</ele>
        <time>2022-08-28T08:40:53Z</time>
      </trkpt>
      <trkpt lat="43.393288" lon="-4.605947">
        <ele>42.124</ele>
        <time>2022-08-28T08:40:54Z</time>
      </trkpt>
      <trkpt lat="43.393298" lon="-4.605790">
        <ele>42.426</ele>
        <time>2022-08-28T08:40:56Z</time>
      </trkpt>
      <trkpt lat="43.393308" lon="-4.605632">
        <ele>42.409</ele>
        <time>2022-08-28T08:40:58Z</time>
      </trkpt>
      <trkpt lat="43.393310" lon="-4.605480">
        <ele>42.769</ele>
        <time>2022-08-28T08:41:00Z</time>
      </trkpt>
      <trkpt lat="43.393307" lon="-4.605323">
        <ele>43.359</ele>
        <time>2022-08-28T08:41:02Z</time>
      </trkpt>
      <trkpt lat="43.393305" lon="-4.605175">
        <ele>43.640</ele>
        <time>2022-08-28T08:41:04Z</time>
      </trkpt>
      <trkpt lat="43.393303" lon="-4.605103">
        <ele>43.748</ele>
        <time>2022-08-28T08:41:05Z</time>
      </trkpt>
      <trkpt lat="43.393303" lon="-4.604966">
        <ele>43.753</ele>
        <time>2022-08-28T08:41:07Z</time>
      </trkpt>
      <trkpt lat="43.393298" lon="-4.604898">
        <ele>43.877</ele>
        <time>2022-08-28T08:41:08Z</time>
      </trkpt>
      <trkpt lat="43.393291" lon="-4.604826">
        <ele>43.993</ele>
        <time>2022-08-28T08:41:09Z</time>
      </trkpt>
      <trkpt lat="43.393284" lon="-4.604688">
        <ele>43.866</ele>
        <time>2022-08-28T08:41:11Z</time>
      </trkpt>
      <trkpt lat="43.393276" lon="-4.604548">
        <ele>43.557</ele>
        <time>2022-08-28T08:41:13Z</time>
      </trkpt>
      <trkpt lat="43.393269" lon="-4.604480">
        <ele>43.418</ele>
        <time>2022-08-28T08:41:14Z</time>
      </trkpt>
      <trkpt lat="43.393266" lon="-4.604412">
        <ele>43.198</ele>
        <time>2022-08-28T08:41:15Z</time>
      </trkpt>
      <trkpt lat="43.393263" lon="-4.604277">
        <ele>42.617</ele>
        <time>2022-08-28T08:41:17Z</time>
      </trkpt>
      <trkpt lat="43.393258" lon="-4.604140">
        <ele>42.309</ele>
        <time>2022-08-28T08:41:19Z</time>
      </trkpt>
      <trkpt lat="43.393253" lon="-4.604005">
        <ele>42.592</ele>
        <time>2022-08-28T08:41:21Z</time>
      </trkpt>
      <trkpt lat="43.393251" lon="-4.603938">
        <ele>42.632</ele>
        <time>2022-08-28T08:41:22Z</time>
      </trkpt>
      <trkpt lat="43.393249" lon="-4.603871">
        <ele>42.863</ele>
        <time>2022-08-28T08:41:23Z</time>
      </trkpt>
      <trkpt lat="43.393247" lon="-4.603808">
        <ele>43.131</ele>
        <time>2022-08-28T08:41:24Z</time>
      </trkpt>
      <trkpt lat="43.393244" lon="-4.603686">
        <ele>43.656</ele>
        <time>2022-08-28T08:41:26Z</time>
      </trkpt>
      <trkpt lat="43.393241" lon="-4.603569">
        <ele>44.490</ele>
        <time>2022-08-28T08:41:28Z</time>
      </trkpt>
      <trkpt lat="43.393239" lon="-4.603459">
        <ele>45.376</ele>
        <time>2022-08-28T08:41:30Z</time>
      </trkpt>
      <trkpt lat="43.393241" lon="-4.603351">
        <ele>46.289</ele>
        <time>2022-08-28T08:41:32Z</time>
      </trkpt>
      <trkpt lat="43.393243" lon="-4.603241">
        <ele>46.560</ele>
        <time>2022-08-28T08:41:34Z</time>
      </trkpt>
      <trkpt lat="43.393245" lon="-4.603129">
        <ele>46.711</ele>
        <time>2022-08-28T08:41:36Z</time>
      </trkpt>
      <trkpt lat="43.393248" lon="-4.603022">
        <ele>47.021</ele>
        <time>2022-08-28T08:41:38Z</time>
      </trkpt>
      <trkpt lat="43.393248" lon="-4.602912">
        <ele>47.503</ele>
        <time>2022-08-28T08:41:40Z</time>
      </trkpt>
      <trkpt lat="43.393250" lon="-4.602805">
        <ele>48.009</ele>
        <time>2022-08-28T08:41:42Z</time>
      </trkpt>
      <trkpt lat="43.393255" lon="-4.602697">
        <ele>47.922</ele>
        <time>2022-08-28T08:41:44Z</time>
      </trkpt>
      <trkpt lat="43.393257" lon="-4.602587">
        <ele>47.712</ele>
        <time>2022-08-28T08:41:46Z</time>
      </trkpt>
      <trkpt lat="43.393260" lon="-4.602479">
        <ele>47.693</ele>
        <time>2022-08-28T08:41:48Z</time>
      </trkpt>
      <trkpt lat="43.393260" lon="-4.602374">
        <ele>47.981</ele>
        <time>2022-08-28T08:41:50Z</time>
      </trkpt>
      <trkpt lat="43.393268" lon="-4.602269">
        <ele>48.076</ele>
        <time>2022-08-28T08:41:52Z</time>
      </trkpt>
      <trkpt lat="43.393276" lon="-4.602169">
        <ele>48.040</ele>
        <time>2022-08-28T08:41:54Z</time>
      </trkpt>
      <trkpt lat="43.393281" lon="-4.602069">
        <ele>47.976</ele>
        <time>2022-08-28T08:41:56Z</time>
      </trkpt>
      <trkpt lat="43.393284" lon="-4.601967">
        <ele>47.999</ele>
        <time>2022-08-28T08:41:58Z</time>
      </trkpt>
      <trkpt lat="43.393284" lon="-4.601864">
        <ele>47.990</ele>
        <time>2022-08-28T08:42:00Z</time>
      </trkpt>
      <trkpt lat="43.393287" lon="-4.601759">
        <ele>47.918</ele>
        <time>2022-08-28T08:42:02Z</time>
      </trkpt>
      <trkpt lat="43.393292" lon="-4.601656">
        <ele>47.998</ele>
        <time>2022-08-28T08:42:04Z</time>
      </trkpt>
      <trkpt lat="43.393297" lon="-4.601549">
        <ele>48.317</ele>
        <time>2022-08-28T08:42:06Z</time>
      </trkpt>
      <trkpt lat="43.393304" lon="-4.601442">
        <ele>48.509</ele>
        <time>2022-08-28T08:42:08Z</time>
      </trkpt>
      <trkpt lat="43.393312" lon="-4.601330">
        <ele>49.032</ele>
        <time>2022-08-28T08:42:10Z</time>
      </trkpt>
      <trkpt lat="43.393319" lon="-4.601217">
        <ele>49.672</ele>
        <time>2022-08-28T08:42:12Z</time>
      </trkpt>
      <trkpt lat="43.393331" lon="-4.601102">
        <ele>50.153</ele>
        <time>2022-08-28T08:42:14Z</time>
      </trkpt>
      <trkpt lat="43.393348" lon="-4.600985">
        <ele>49.921</ele>
        <time>2022-08-28T08:42:16Z</time>
      </trkpt>
      <trkpt lat="43.393366" lon="-4.600872">
        <ele>49.516</ele>
        <time>2022-08-28T08:42:18Z</time>
      </trkpt>
      <trkpt lat="43.393378" lon="-4.600755">
        <ele>49.230</ele>
        <time>2022-08-28T08:42:20Z</time>
      </trkpt>
      <trkpt lat="43.393390" lon="-4.600638">
        <ele>49.076</ele>
        <time>2022-08-28T08:42:22Z</time>
      </trkpt>
      <trkpt lat="43.393403" lon="-4.600520">
        <ele>48.929</ele>
        <time>2022-08-28T08:42:24Z</time>
      </trkpt>
      <trkpt lat="43.393416" lon="-4.600395">
        <ele>49.380</ele>
        <time>2022-08-28T08:42:26Z</time>
      </trkpt>
      <trkpt lat="43.393426" lon="-4.600270">
        <ele>49.743</ele>
        <time>2022-08-28T08:42:28Z</time>
      </trkpt>
      <trkpt lat="43.393444" lon="-4.600145">
        <ele>49.964</ele>
        <time>2022-08-28T08:42:30Z</time>
      </trkpt>
      <trkpt lat="43.393452" lon="-4.600082">
        <ele>50.010</ele>
        <time>2022-08-28T08:42:31Z</time>
      </trkpt>
      <trkpt lat="43.393462" lon="-4.600017">
        <ele>50.109</ele>
        <time>2022-08-28T08:42:32Z</time>
      </trkpt>
      <trkpt lat="43.393472" lon="-4.599952">
        <ele>50.395</ele>
        <time>2022-08-28T08:42:33Z</time>
      </trkpt>
      <trkpt lat="43.393489" lon="-4.599820">
        <ele>50.725</ele>
        <time>2022-08-28T08:42:35Z</time>
      </trkpt>
      <trkpt lat="43.393509" lon="-4.599687">
        <ele>51.086</ele>
        <time>2022-08-28T08:42:37Z</time>
      </trkpt>
      <trkpt lat="43.393516" lon="-4.599617">
        <ele>51.214</ele>
        <time>2022-08-28T08:42:38Z</time>
      </trkpt>
      <trkpt lat="43.393534" lon="-4.599480">
        <ele>51.539</ele>
        <time>2022-08-28T08:42:40Z</time>
      </trkpt>
      <trkpt lat="43.393544" lon="-4.599413">
        <ele>51.553</ele>
        <time>2022-08-28T08:42:41Z</time>
      </trkpt>
      <trkpt lat="43.393552" lon="-4.599346">
        <ele>51.629</ele>
        <time>2022-08-28T08:42:42Z</time>
      </trkpt>
      <trkpt lat="43.393569" lon="-4.599213">
        <ele>51.632</ele>
        <time>2022-08-28T08:42:44Z</time>
      </trkpt>
      <trkpt lat="43.393591" lon="-4.599083">
        <ele>51.443</ele>
        <time>2022-08-28T08:42:46Z</time>
      </trkpt>
      <trkpt lat="43.393603" lon="-4.599016">
        <ele>51.136</ele>
        <time>2022-08-28T08:42:47Z</time>
      </trkpt>
      <trkpt lat="43.393615" lon="-4.598948">
        <ele>50.917</ele>
        <time>2022-08-28T08:42:48Z</time>
      </trkpt>
      <trkpt lat="43.393635" lon="-4.598813">
        <ele>50.818</ele>
        <time>2022-08-28T08:42:50Z</time>
      </trkpt>
      <trkpt lat="43.393653" lon="-4.598678">
        <ele>51.009</ele>
        <time>2022-08-28T08:42:52Z</time>
      </trkpt>
      <trkpt lat="43.393665" lon="-4.598611">
        <ele>51.014</ele>
        <time>2022-08-28T08:42:53Z</time>
      </trkpt>
      <trkpt lat="43.393677" lon="-4.598546">
        <ele>50.954</ele>
        <time>2022-08-28T08:42:54Z</time>
      </trkpt>
      <trkpt lat="43.393702" lon="-4.598416">
        <ele>50.615</ele>
        <time>2022-08-28T08:42:56Z</time>
      </trkpt>
      <trkpt lat="43.393725" lon="-4.598283">
        <ele>50.523</ele>
        <time>2022-08-28T08:42:58Z</time>
      </trkpt>
      <trkpt lat="43.393738" lon="-4.598216">
        <ele>50.638</ele>
        <time>2022-08-28T08:42:59Z</time>
      </trkpt>
      <trkpt lat="43.393766" lon="-4.598083">
        <ele>50.792</ele>
        <time>2022-08-28T08:43:01Z</time>
      </trkpt>
      <trkpt lat="43.393794" lon="-4.597950">
        <ele>50.618</ele>
        <time>2022-08-28T08:43:03Z</time>
      </trkpt>
      <trkpt lat="43.393807" lon="-4.597885">
        <ele>50.621</ele>
        <time>2022-08-28T08:43:04Z</time>
      </trkpt>
      <trkpt lat="43.393835" lon="-4.597752">
        <ele>50.692</ele>
        <time>2022-08-28T08:43:06Z</time>
      </trkpt>
      <trkpt lat="43.393850" lon="-4.597685">
        <ele>50.541</ele>
        <time>2022-08-28T08:43:07Z</time>
      </trkpt>
      <trkpt lat="43.393877" lon="-4.597548">
        <ele>50.281</ele>
        <time>2022-08-28T08:43:09Z</time>
      </trkpt>
      <trkpt lat="43.393890" lon="-4.597481">
        <ele>50.009</ele>
        <time>2022-08-28T08:43:10Z</time>
      </trkpt>
      <trkpt lat="43.393905" lon="-4.597418">
        <ele>50.009</ele>
        <time>2022-08-28T08:43:11Z</time>
      </trkpt>
      <trkpt lat="43.393922" lon="-4.597355">
        <ele>50.025</ele>
        <time>2022-08-28T08:43:12Z</time>
      </trkpt>
      <trkpt lat="43.393937" lon="-4.597292">
        <ele>50.045</ele>
        <time>2022-08-28T08:43:13Z</time>
      </trkpt>
      <trkpt lat="43.393967" lon="-4.597169">
        <ele>50.156</ele>
        <time>2022-08-28T08:43:15Z</time>
      </trkpt>
      <trkpt lat="43.393982" lon="-4.597107">
        <ele>50.254</ele>
        <time>2022-08-28T08:43:16Z</time>
      </trkpt>
      <trkpt lat="43.394014" lon="-4.596984">
        <ele>50.469</ele>
        <time>2022-08-28T08:43:18Z</time>
      </trkpt>
      <trkpt lat="43.394029" lon="-4.596922">
        <ele>50.613</ele>
        <time>2022-08-28T08:43:19Z</time>
      </trkpt>
      <trkpt lat="43.394046" lon="-4.596860">
        <ele>50.739</ele>
        <time>2022-08-28T08:43:20Z</time>
      </trkpt>
      <trkpt lat="43.394078" lon="-4.596733">
        <ele>51.072</ele>
        <time>2022-08-28T08:43:22Z</time>
      </trkpt>
      <trkpt lat="43.394111" lon="-4.596606">
        <ele>51.093</ele>
        <time>2022-08-28T08:43:24Z</time>
      </trkpt>
      <trkpt lat="43.394124" lon="-4.596541">
        <ele>51.114</ele>
        <time>2022-08-28T08:43:25Z</time>
      </trkpt>
      <trkpt lat="43.394139" lon="-4.596478">
        <ele>51.154</ele>
        <time>2022-08-28T08:43:26Z</time>
      </trkpt>
      <trkpt lat="43.394171" lon="-4.596350">
        <ele>50.909</ele>
        <time>2022-08-28T08:43:28Z</time>
      </trkpt>
      <trkpt lat="43.394206" lon="-4.596225">
        <ele>50.309</ele>
        <time>2022-08-28T08:43:30Z</time>
      </trkpt>
      <trkpt lat="43.394239" lon="-4.596098">
        <ele>50.132</ele>
        <time>2022-08-28T08:43:32Z</time>
      </trkpt>
      <trkpt lat="43.394272" lon="-4.595971">
        <ele>50.512</ele>
        <time>2022-08-28T08:43:34Z</time>
      </trkpt>
      <trkpt lat="43.394287" lon="-4.595904">
        <ele>50.863</ele>
        <time>2022-08-28T08:43:35Z</time>
      </trkpt>
      <trkpt lat="43.394320" lon="-4.595774">
        <ele>51.151</ele>
        <time>2022-08-28T08:43:37Z</time>
      </trkpt>
      <trkpt lat="43.394353" lon="-4.595641">
        <ele>51.546</ele>
        <time>2022-08-28T08:43:39Z</time>
      </trkpt>
      <trkpt lat="43.394370" lon="-4.595574">
        <ele>51.780</ele>
        <time>2022-08-28T08:43:40Z</time>
      </trkpt>
      <trkpt lat="43.394402" lon="-4.595437">
        <ele>52.036</ele>
        <time>2022-08-28T08:43:42Z</time>
      </trkpt>
      <trkpt lat="43.394439" lon="-4.595315">
        <ele>51.989</ele>
        <time>2022-08-28T08:43:44Z</time>
      </trkpt>
      <trkpt lat="43.394472" lon="-4.595200">
        <ele>52.320</ele>
        <time>2022-08-28T08:43:46Z</time>
      </trkpt>
      <trkpt lat="43.394502" lon="-4.595087">
        <ele>52.743</ele>
        <time>2022-08-28T08:43:48Z</time>
      </trkpt>
      <trkpt lat="43.394514" lon="-4.595025">
        <ele>52.964</ele>
        <time>2022-08-28T08:43:49Z</time>
      </trkpt>
      <trkpt lat="43.394539" lon="-4.594900">
        <ele>53.210</ele>
        <time>2022-08-28T08:43:51Z</time>
      </trkpt>
      <trkpt lat="43.394564" lon="-4.594768">
        <ele>53.609</ele>
        <time>2022-08-28T08:43:53Z</time>
      </trkpt>
      <trkpt lat="43.394581" lon="-4.594703">
        <ele>53.795</ele>
        <time>2022-08-28T08:43:54Z</time>
      </trkpt>
      <trkpt lat="43.394606" lon="-4.594570">
        <ele>54.135</ele>
        <time>2022-08-28T08:43:56Z</time>
      </trkpt>
      <trkpt lat="43.394621" lon="-4.594502">
        <ele>54.226</ele>
        <time>2022-08-28T08:43:57Z</time>
      </trkpt>
      <trkpt lat="43.394646" lon="-4.594369">
        <ele>54.384</ele>
        <time>2022-08-28T08:43:59Z</time>
      </trkpt>
      <trkpt lat="43.394659" lon="-4.594301">
        <ele>54.389</ele>
        <time>2022-08-28T08:44:00Z</time>
      </trkpt>
      <trkpt lat="43.394671" lon="-4.594233">
        <ele>54.393</ele>
        <time>2022-08-28T08:44:01Z</time>
      </trkpt>
      <trkpt lat="43.394694" lon="-4.594095">
        <ele>54.239</ele>
        <time>2022-08-28T08:44:03Z</time>
      </trkpt>
      <trkpt lat="43.394721" lon="-4.593957">
        <ele>53.862</ele>
        <time>2022-08-28T08:44:05Z</time>
      </trkpt>
      <trkpt lat="43.394733" lon="-4.593889">
        <ele>53.893</ele>
        <time>2022-08-28T08:44:06Z</time>
      </trkpt>
      <trkpt lat="43.394745" lon="-4.593821">
        <ele>53.965</ele>
        <time>2022-08-28T08:44:07Z</time>
      </trkpt>
      <trkpt lat="43.394757" lon="-4.593753">
        <ele>53.968</ele>
        <time>2022-08-28T08:44:08Z</time>
      </trkpt>
      <trkpt lat="43.394769" lon="-4.593683">
        <ele>53.914</ele>
        <time>2022-08-28T08:44:09Z</time>
      </trkpt>
      <trkpt lat="43.394791" lon="-4.593545">
        <ele>54.109</ele>
        <time>2022-08-28T08:44:11Z</time>
      </trkpt>
      <trkpt lat="43.394806" lon="-4.593407">
        <ele>54.597</ele>
        <time>2022-08-28T08:44:13Z</time>
      </trkpt>
      <trkpt lat="43.394831" lon="-4.593269">
        <ele>54.337</ele>
        <time>2022-08-28T08:44:15Z</time>
      </trkpt>
      <trkpt lat="43.394856" lon="-4.593132">
        <ele>53.648</ele>
        <time>2022-08-28T08:44:17Z</time>
      </trkpt>
      <trkpt lat="43.394869" lon="-4.593062">
        <ele>53.336</ele>
        <time>2022-08-28T08:44:18Z</time>
      </trkpt>
      <trkpt lat="43.394882" lon="-4.592992">
        <ele>53.221</ele>
        <time>2022-08-28T08:44:19Z</time>
      </trkpt>
      <trkpt lat="43.394912" lon="-4.592845">
        <ele>52.745</ele>
        <time>2022-08-28T08:44:21Z</time>
      </trkpt>
      <trkpt lat="43.394925" lon="-4.592772">
        <ele>52.491</ele>
        <time>2022-08-28T08:44:22Z</time>
      </trkpt>
      <trkpt lat="43.394952" lon="-4.592624">
        <ele>52.074</ele>
        <time>2022-08-28T08:44:24Z</time>
      </trkpt>
      <trkpt lat="43.394964" lon="-4.592551">
        <ele>51.995</ele>
        <time>2022-08-28T08:44:25Z</time>
      </trkpt>
      <trkpt lat="43.394986" lon="-4.592399">
        <ele>51.411</ele>
        <time>2022-08-28T08:44:27Z</time>
      </trkpt>
      <trkpt lat="43.394996" lon="-4.592324">
        <ele>51.121</ele>
        <time>2022-08-28T08:44:28Z</time>
      </trkpt>
      <trkpt lat="43.395004" lon="-4.592249">
        <ele>50.903</ele>
        <time>2022-08-28T08:44:29Z</time>
      </trkpt>
      <trkpt lat="43.395014" lon="-4.592097">
        <ele>50.709</ele>
        <time>2022-08-28T08:44:31Z</time>
      </trkpt>
      <trkpt lat="43.395029" lon="-4.591944">
        <ele>50.492</ele>
        <time>2022-08-28T08:44:33Z</time>
      </trkpt>
      <trkpt lat="43.395039" lon="-4.591866">
        <ele>50.492</ele>
        <time>2022-08-28T08:44:34Z</time>
      </trkpt>
      <trkpt lat="43.395046" lon="-4.591786">
        <ele>50.553</ele>
        <time>2022-08-28T08:44:35Z</time>
      </trkpt>
      <trkpt lat="43.395056" lon="-4.591616">
        <ele>50.741</ele>
        <time>2022-08-28T08:44:37Z</time>
      </trkpt>
      <trkpt lat="43.395061" lon="-4.591529">
        <ele>50.996</ele>
        <time>2022-08-28T08:44:38Z</time>
      </trkpt>
      <trkpt lat="43.395064" lon="-4.591442">
        <ele>51.060</ele>
        <time>2022-08-28T08:44:39Z</time>
      </trkpt>
      <trkpt lat="43.395069" lon="-4.591265">
        <ele>50.716</ele>
        <time>2022-08-28T08:44:41Z</time>
      </trkpt>
      <trkpt lat="43.395069" lon="-4.591172">
        <ele>50.499</ele>
        <time>2022-08-28T08:44:42Z</time>
      </trkpt>
      <trkpt lat="43.395067" lon="-4.590984">
        <ele>49.520</ele>
        <time>2022-08-28T08:44:44Z</time>
      </trkpt>
      <trkpt lat="43.395069" lon="-4.590889">
        <ele>48.954</ele>
        <time>2022-08-28T08:44:45Z</time>
      </trkpt>
      <trkpt lat="43.395069" lon="-4.590794">
        <ele>48.356</ele>
        <time>2022-08-28T08:44:46Z</time>
      </trkpt>
      <trkpt lat="43.395069" lon="-4.590701">
        <ele>47.811</ele>
        <time>2022-08-28T08:44:47Z</time>
      </trkpt>
      <trkpt lat="43.395062" lon="-4.590519">
        <ele>47.009</ele>
        <time>2022-08-28T08:44:49Z</time>
      </trkpt>
      <trkpt lat="43.395054" lon="-4.590337">
        <ele>46.616</ele>
        <time>2022-08-28T08:44:51Z</time>
      </trkpt>
      <trkpt lat="43.395031" lon="-4.590165">
        <ele>46.466</ele>
        <time>2022-08-28T08:44:53Z</time>
      </trkpt>
      <trkpt lat="43.395021" lon="-4.590080">
        <ele>46.217</ele>
        <time>2022-08-28T08:44:54Z</time>
      </trkpt>
      <trkpt lat="43.395009" lon="-4.589997">
        <ele>46.035</ele>
        <time>2022-08-28T08:44:55Z</time>
      </trkpt>
      <trkpt lat="43.394981" lon="-4.589840">
        <ele>46.910</ele>
        <time>2022-08-28T08:44:57Z</time>
      </trkpt>
      <trkpt lat="43.394949" lon="-4.589685">
        <ele>47.554</ele>
        <time>2022-08-28T08:44:59Z</time>
      </trkpt>
      <trkpt lat="43.394936" lon="-4.589608">
        <ele>47.620</ele>
        <time>2022-08-28T08:45:00Z</time>
      </trkpt>
      <trkpt lat="43.394921" lon="-4.589533">
        <ele>47.743</ele>
        <time>2022-08-28T08:45:01Z</time>
      </trkpt>
      <trkpt lat="43.394893" lon="-4.589383">
        <ele>47.224</ele>
        <time>2022-08-28T08:45:03Z</time>
      </trkpt>
      <trkpt lat="43.394860" lon="-4.589238">
        <ele>46.234</ele>
        <time>2022-08-28T08:45:05Z</time>
      </trkpt>
      <trkpt lat="43.394840" lon="-4.589166">
        <ele>45.755</ele>
        <time>2022-08-28T08:45:06Z</time>
      </trkpt>
      <trkpt lat="43.394800" lon="-4.589031">
        <ele>45.810</ele>
        <time>2022-08-28T08:45:08Z</time>
      </trkpt>
      <trkpt lat="43.394782" lon="-4.588963">
        <ele>45.909</ele>
        <time>2022-08-28T08:45:09Z</time>
      </trkpt>
      <trkpt lat="43.394745" lon="-4.588831">
        <ele>46.344</ele>
        <time>2022-08-28T08:45:11Z</time>
      </trkpt>
      <trkpt lat="43.394707" lon="-4.588701">
        <ele>46.484</ele>
        <time>2022-08-28T08:45:13Z</time>
      </trkpt>
      <trkpt lat="43.394665" lon="-4.588576">
        <ele>46.375</ele>
        <time>2022-08-28T08:45:15Z</time>
      </trkpt>
      <trkpt lat="43.394620" lon="-4.588448">
        <ele>46.473</ele>
        <time>2022-08-28T08:45:17Z</time>
      </trkpt>
      <trkpt lat="43.394575" lon="-4.588323">
        <ele>46.698</ele>
        <time>2022-08-28T08:45:19Z</time>
      </trkpt>
      <trkpt lat="43.394553" lon="-4.588261">
        <ele>46.782</ele>
        <time>2022-08-28T08:45:20Z</time>
      </trkpt>
      <trkpt lat="43.394528" lon="-4.588199">
        <ele>46.898</ele>
        <time>2022-08-28T08:45:21Z</time>
      </trkpt>
      <trkpt lat="43.394503" lon="-4.588141">
        <ele>46.821</ele>
        <time>2022-08-28T08:45:22Z</time>
      </trkpt>
      <trkpt lat="43.394451" lon="-4.588024">
        <ele>47.032</ele>
        <time>2022-08-28T08:45:24Z</time>
      </trkpt>
      <trkpt lat="43.394424" lon="-4.587962">
        <ele>47.429</ele>
        <time>2022-08-28T08:45:25Z</time>
      </trkpt>
      <trkpt lat="43.394374" lon="-4.587842">
        <ele>48.100</ele>
        <time>2022-08-28T08:45:27Z</time>
      </trkpt>
      <trkpt lat="43.394326" lon="-4.587722">
        <ele>48.420</ele>
        <time>2022-08-28T08:45:29Z</time>
      </trkpt>
      <trkpt lat="43.394303" lon="-4.587662">
        <ele>48.409</ele>
        <time>2022-08-28T08:45:30Z</time>
      </trkpt>
      <trkpt lat="43.394278" lon="-4.587604">
        <ele>48.463</ele>
        <time>2022-08-28T08:45:31Z</time>
      </trkpt>
      <trkpt lat="43.394230" lon="-4.587482">
        <ele>48.233</ele>
        <time>2022-08-28T08:45:33Z</time>
      </trkpt>
      <trkpt lat="43.394183" lon="-4.587365">
        <ele>47.964</ele>
        <time>2022-08-28T08:45:35Z</time>
      </trkpt>
      <trkpt lat="43.394158" lon="-4.587310">
        <ele>47.952</ele>
        <time>2022-08-28T08:45:36Z</time>
      </trkpt>
      <trkpt lat="43.394131" lon="-4.587252">
        <ele>48.187</ele>
        <time>2022-08-28T08:45:37Z</time>
      </trkpt>
      <trkpt lat="43.394079" lon="-4.587139">
        <ele>48.751</ele>
        <time>2022-08-28T08:45:39Z</time>
      </trkpt>
      <trkpt lat="43.394032" lon="-4.587021">
        <ele>49.097</ele>
        <time>2022-08-28T08:45:41Z</time>
      </trkpt>
      <trkpt lat="43.393984" lon="-4.586911">
        <ele>49.020</ele>
        <time>2022-08-28T08:45:43Z</time>
      </trkpt>
      <trkpt lat="43.393959" lon="-4.586851">
        <ele>48.911</ele>
        <time>2022-08-28T08:45:44Z</time>
      </trkpt>
      <trkpt lat="43.393909" lon="-4.586728">
        <ele>48.469</ele>
        <time>2022-08-28T08:45:46Z</time>
      </trkpt>
      <trkpt lat="43.393862" lon="-4.586616">
        <ele>48.104</ele>
        <time>2022-08-28T08:45:48Z</time>
      </trkpt>
      <trkpt lat="43.393815" lon="-4.586503">
        <ele>48.524</ele>
        <time>2022-08-28T08:45:50Z</time>
      </trkpt>
      <trkpt lat="43.393788" lon="-4.586446">
        <ele>48.809</ele>
        <time>2022-08-28T08:45:51Z</time>
      </trkpt>
      <trkpt lat="43.393740" lon="-4.586334">
        <ele>49.527</ele>
        <time>2022-08-28T08:45:53Z</time>
      </trkpt>
      <trkpt lat="43.393688" lon="-4.586219">
        <ele>49.847</ele>
        <time>2022-08-28T08:45:55Z</time>
      </trkpt>
      <trkpt lat="43.393663" lon="-4.586162">
        <ele>49.838</ele>
        <time>2022-08-28T08:45:56Z</time>
      </trkpt>
      <trkpt lat="43.393638" lon="-4.586102">
        <ele>49.696</ele>
        <time>2022-08-28T08:45:57Z</time>
      </trkpt>
      <trkpt lat="43.393586" lon="-4.585977">
        <ele>48.641</ele>
        <time>2022-08-28T08:45:59Z</time>
      </trkpt>
      <trkpt lat="43.393561" lon="-4.585914">
        <ele>48.445</ele>
        <time>2022-08-28T08:46:00Z</time>
      </trkpt>
      <trkpt lat="43.393504" lon="-4.585792">
        <ele>47.811</ele>
        <time>2022-08-28T08:46:02Z</time>
      </trkpt>
      <trkpt lat="43.393446" lon="-4.585662">
        <ele>47.064</ele>
        <time>2022-08-28T08:46:04Z</time>
      </trkpt>
      <trkpt lat="43.393413" lon="-4.585590">
        <ele>46.645</ele>
        <time>2022-08-28T08:46:05Z</time>
      </trkpt>
      <trkpt lat="43.393345" lon="-4.585445">
        <ele>46.168</ele>
        <time>2022-08-28T08:46:07Z</time>
      </trkpt>
      <trkpt lat="43.393313" lon="-4.585370">
        <ele>45.942</ele>
        <time>2022-08-28T08:46:08Z</time>
      </trkpt>
      <trkpt lat="43.393248" lon="-4.585212">
        <ele>45.826</ele>
        <time>2022-08-28T08:46:10Z</time>
      </trkpt>
      <trkpt lat="43.393181" lon="-4.585054">
        <ele>45.409</ele>
        <time>2022-08-28T08:46:12Z</time>
      </trkpt>
      <trkpt lat="43.393144" lon="-4.584971">
        <ele>45.197</ele>
        <time>2022-08-28T08:46:13Z</time>
      </trkpt>
      <trkpt lat="43.393074" lon="-4.584803">
        <ele>44.447</ele>
        <time>2022-08-28T08:46:15Z</time>
      </trkpt>
      <trkpt lat="43.393034" lon="-4.584716">
        <ele>44.038</ele>
        <time>2022-08-28T08:46:16Z</time>
      </trkpt>
      <trkpt lat="43.392994" lon="-4.584629">
        <ele>44.396</ele>
        <time>2022-08-28T08:46:17Z</time>
      </trkpt>
      <trkpt lat="43.392954" lon="-4.584539">
        <ele>44.571</ele>
        <time>2022-08-28T08:46:18Z</time>
      </trkpt>
      <trkpt lat="43.392872" lon="-4.584349">
        <ele>43.985</ele>
        <time>2022-08-28T08:46:20Z</time>
      </trkpt>
      <trkpt lat="43.392830" lon="-4.584249">
        <ele>42.861</ele>
        <time>2022-08-28T08:46:21Z</time>
      </trkpt>
      <trkpt lat="43.392785" lon="-4.584147">
        <ele>41.224</ele>
        <time>2022-08-28T08:46:22Z</time>
      </trkpt>
      <trkpt lat="43.392697" lon="-4.583937">
        <ele>40.435</ele>
        <time>2022-08-28T08:46:24Z</time>
      </trkpt>
      <trkpt lat="43.392654" lon="-4.583829">
        <ele>40.235</ele>
        <time>2022-08-28T08:46:25Z</time>
      </trkpt>
      <trkpt lat="43.392562" lon="-4.583602">
        <ele>38.486</ele>
        <time>2022-08-28T08:46:27Z</time>
      </trkpt>
      <trkpt lat="43.392514" lon="-4.583489">
        <ele>37.414</ele>
        <time>2022-08-28T08:46:28Z</time>
      </trkpt>
      <trkpt lat="43.392466" lon="-4.583377">
        <ele>36.909</ele>
        <time>2022-08-28T08:46:29Z</time>
      </trkpt>
      <trkpt lat="43.392363" lon="-4.583152">
        <ele>36.244</ele>
        <time>2022-08-28T08:46:31Z</time>
      </trkpt>
      <trkpt lat="43.392263" lon="-4.582910">
        <ele>34.484</ele>
        <time>2022-08-28T08:46:33Z</time>
      </trkpt>
      <trkpt lat="43.392158" lon="-4.582675">
        <ele>33.345</ele>
        <time>2022-08-28T08:46:35Z</time>
      </trkpt>
      <trkpt lat="43.392103" lon="-4.582555">
        <ele>33.193</ele>
        <time>2022-08-28T08:46:36Z</time>
      </trkpt>
      <trkpt lat="43.392045" lon="-4.582438">
        <ele>32.258</ele>
        <time>2022-08-28T08:46:37Z</time>
      </trkpt>
      <trkpt lat="43.391985" lon="-4.582318">
        <ele>30.572</ele>
        <time>2022-08-28T08:46:38Z</time>
      </trkpt>
      <trkpt lat="43.391922" lon="-4.582195">
        <ele>29.148</ele>
        <time>2022-08-28T08:46:39Z</time>
      </trkpt>
      <trkpt lat="43.391859" lon="-4.582075">
        <ele>28.961</ele>
        <time>2022-08-28T08:46:40Z</time>
      </trkpt>
      <trkpt lat="43.391724" lon="-4.581830">
        <ele>27.632</ele>
        <time>2022-08-28T08:46:42Z</time>
      </trkpt>
      <trkpt lat="43.391586" lon="-4.581582">
        <ele>24.729</ele>
        <time>2022-08-28T08:46:44Z</time>
      </trkpt>
      <trkpt lat="43.391448" lon="-4.581337">
        <ele>22.000</ele>
        <time>2022-08-28T08:46:46Z</time>
      </trkpt>
      <trkpt lat="43.391376" lon="-4.581212">
        <ele>21.020</ele>
        <time>2022-08-28T08:46:47Z</time>
      </trkpt>
      <trkpt lat="43.391236" lon="-4.580954">
        <ele>17.009</ele>
        <time>2022-08-28T08:46:49Z</time>
      </trkpt>
      <trkpt lat="43.391166" lon="-4.580826">
        <ele>17.483</ele>
        <time>2022-08-28T08:46:50Z</time>
      </trkpt>
      <trkpt lat="43.391098" lon="-4.580701">
        <ele>17.083</ele>
        <time>2022-08-28T08:46:51Z</time>
      </trkpt>
      <trkpt lat="43.391026" lon="-4.580573">
        <ele>16.684</ele>
        <time>2022-08-28T08:46:52Z</time>
      </trkpt>
      <trkpt lat="43.390954" lon="-4.580446">
        <ele>14.892</ele>
        <time>2022-08-28T08:46:53Z</time>
      </trkpt>
      <trkpt lat="43.390814" lon="-4.580199">
        <ele>11.247</ele>
        <time>2022-08-28T08:46:55Z</time>
      </trkpt>
      <trkpt lat="43.390664" lon="-4.579959">
        <ele>4.921</ele>
        <time>2022-08-28T08:46:57Z</time>
      </trkpt>
      <trkpt lat="43.390519" lon="-4.579741">
        <ele>11.227</ele>
        <time>2022-08-28T08:46:59Z</time>
      </trkpt>
      <trkpt lat="43.390444" lon="-4.579648">
        <ele>11.480</ele>
        <time>2022-08-28T08:47:00Z</time>
      </trkpt>
      <trkpt lat="43.390367" lon="-4.579563">
        <ele>12.451</ele>
        <time>2022-08-28T08:47:01Z</time>
      </trkpt>
      <trkpt lat="43.390217" lon="-4.579418">
        <ele>15.718</ele>
        <time>2022-08-28T08:47:03Z</time>
      </trkpt>
      <trkpt lat="43.390144" lon="-4.579358">
        <ele>15.498</ele>
        <time>2022-08-28T08:47:04Z</time>
      </trkpt>
      <trkpt lat="43.390071" lon="-4.579305">
        <ele>15.517</ele>
        <time>2022-08-28T08:47:05Z</time>
      </trkpt>
      <trkpt lat="43.389926" lon="-4.579217">
        <ele>16.509</ele>
        <time>2022-08-28T08:47:07Z</time>
      </trkpt>
      <trkpt lat="43.389791" lon="-4.579147">
        <ele>17.232</ele>
        <time>2022-08-28T08:47:09Z</time>
      </trkpt>
      <trkpt lat="43.389673" lon="-4.579094">
        <ele>17.492</ele>
        <time>2022-08-28T08:47:11Z</time>
      </trkpt>
      <trkpt lat="43.389620" lon="-4.579071">
        <ele>17.543</ele>
        <time>2022-08-28T08:47:12Z</time>
      </trkpt>
      <trkpt lat="43.389518" lon="-4.579026">
        <ele>18.081</ele>
        <time>2022-08-28T08:47:14Z</time>
      </trkpt>
      <trkpt lat="43.389428" lon="-4.578983">
        <ele>19.096</ele>
        <time>2022-08-28T08:47:16Z</time>
      </trkpt>
      <trkpt lat="43.389350" lon="-4.578955">
        <ele>20.510</ele>
        <time>2022-08-28T08:47:18Z</time>
      </trkpt>
      <trkpt lat="43.389272" lon="-4.578925">
        <ele>21.896</ele>
        <time>2022-08-28T08:47:20Z</time>
      </trkpt>
      <trkpt lat="43.389204" lon="-4.578890">
        <ele>22.589</ele>
        <time>2022-08-28T08:47:22Z</time>
      </trkpt>
      <trkpt lat="43.389139" lon="-4.578847">
        <ele>23.050</ele>
        <time>2022-08-28T08:47:24Z</time>
      </trkpt>
      <trkpt lat="43.389076" lon="-4.578805">
        <ele>23.479</ele>
        <time>2022-08-28T08:47:26Z</time>
      </trkpt>
      <trkpt lat="43.389016" lon="-4.578757">
        <ele>23.505</ele>
        <time>2022-08-28T08:47:28Z</time>
      </trkpt>
      <trkpt lat="43.388963" lon="-4.578717">
        <ele>23.425</ele>
        <time>2022-08-28T08:47:30Z</time>
      </trkpt>
      <trkpt lat="43.388905" lon="-4.578670">
        <ele>23.109</ele>
        <time>2022-08-28T08:47:32Z</time>
      </trkpt>
      <trkpt lat="43.388847" lon="-4.578623">
        <ele>22.498</ele>
        <time>2022-08-28T08:47:34Z</time>
      </trkpt>
      <trkpt lat="43.388794" lon="-4.578573">
        <ele>22.128</ele>
        <time>2022-08-28T08:47:36Z</time>
      </trkpt>
      <trkpt lat="43.388739" lon="-4.578516">
        <ele>22.139</ele>
        <time>2022-08-28T08:47:38Z</time>
      </trkpt>
      <trkpt lat="43.388689" lon="-4.578453">
        <ele>22.267</ele>
        <time>2022-08-28T08:47:40Z</time>
      </trkpt>
      <trkpt lat="43.388641" lon="-4.578401">
        <ele>22.652</ele>
        <time>2022-08-28T08:47:42Z</time>
      </trkpt>
      <trkpt lat="43.388591" lon="-4.578346">
        <ele>23.066</ele>
        <time>2022-08-28T08:47:44Z</time>
      </trkpt>
      <trkpt lat="43.388541" lon="-4.578289">
        <ele>23.172</ele>
        <time>2022-08-28T08:47:46Z</time>
      </trkpt>
      <trkpt lat="43.388496" lon="-4.578229">
        <ele>23.345</ele>
        <time>2022-08-28T08:47:48Z</time>
      </trkpt>
      <trkpt lat="43.388454" lon="-4.578166">
        <ele>23.786</ele>
        <time>2022-08-28T08:47:50Z</time>
      </trkpt>
      <trkpt lat="43.388411" lon="-4.578108">
        <ele>24.283</ele>
        <time>2022-08-28T08:47:52Z</time>
      </trkpt>
      <trkpt lat="43.388373" lon="-4.578051">
        <ele>24.825</ele>
        <time>2022-08-28T08:47:54Z</time>
      </trkpt>
      <trkpt lat="43.388335" lon="-4.577989">
        <ele>25.717</ele>
        <time>2022-08-28T08:47:56Z</time>
      </trkpt>
      <trkpt lat="43.388290" lon="-4.577927">
        <ele>26.309</ele>
        <time>2022-08-28T08:47:58Z</time>
      </trkpt>
      <trkpt lat="43.388248" lon="-4.577864">
        <ele>26.779</ele>
        <time>2022-08-28T08:48:00Z</time>
      </trkpt>
      <trkpt lat="43.388198" lon="-4.577804">
        <ele>26.959</ele>
        <time>2022-08-28T08:48:02Z</time>
      </trkpt>
      <trkpt lat="43.388151" lon="-4.577736">
        <ele>27.260</ele>
        <time>2022-08-28T08:48:04Z</time>
      </trkpt>
      <trkpt lat="43.388104" lon="-4.577669">
        <ele>27.498</ele>
        <time>2022-08-28T08:48:06Z</time>
      </trkpt>
      <trkpt lat="43.388057" lon="-4.577606">
        <ele>27.383</ele>
        <time>2022-08-28T08:48:08Z</time>
      </trkpt>
      <trkpt lat="43.388010" lon="-4.577549">
        <ele>28.117</ele>
        <time>2022-08-28T08:48:10Z</time>
      </trkpt>
      <trkpt lat="43.387968" lon="-4.577487">
        <ele>28.743</ele>
        <time>2022-08-28T08:48:12Z</time>
      </trkpt>
      <trkpt lat="43.387933" lon="-4.577422">
        <ele>29.496</ele>
        <time>2022-08-28T08:48:14Z</time>
      </trkpt>
      <trkpt lat="43.387895" lon="-4.577362">
        <ele>29.747</ele>
        <time>2022-08-28T08:48:16Z</time>
      </trkpt>
      <trkpt lat="43.387853" lon="-4.577300">
        <ele>29.775</ele>
        <time>2022-08-28T08:48:18Z</time>
      </trkpt>
      <trkpt lat="43.387806" lon="-4.577242">
        <ele>29.328</ele>
        <time>2022-08-28T08:48:20Z</time>
      </trkpt>
      <trkpt lat="43.387763" lon="-4.577180">
        <ele>29.420</ele>
        <time>2022-08-28T08:48:22Z</time>
      </trkpt>
      <trkpt lat="43.387721" lon="-4.577118">
        <ele>30.509</ele>
        <time>2022-08-28T08:48:24Z</time>
      </trkpt>
      <trkpt lat="43.387683" lon="-4.577070">
        <ele>31.118</ele>
        <time>2022-08-28T08:48:26Z</time>
      </trkpt>
      <trkpt lat="43.387643" lon="-4.577015">
        <ele>31.648</ele>
        <time>2022-08-28T08:48:28Z</time>
      </trkpt>
      <trkpt lat="43.387603" lon="-4.576962">
        <ele>31.799</ele>
        <time>2022-08-28T08:48:30Z</time>
      </trkpt>
      <trkpt lat="43.387566" lon="-4.576909">
        <ele>31.857</ele>
        <time>2022-08-28T08:48:32Z</time>
      </trkpt>
      <trkpt lat="43.387533" lon="-4.576857">
        <ele>31.812</ele>
        <time>2022-08-28T08:48:34Z</time>
      </trkpt>
      <trkpt lat="43.387501" lon="-4.576804">
        <ele>31.596</ele>
        <time>2022-08-28T08:48:36Z</time>
      </trkpt>
      <trkpt lat="43.387463" lon="-4.576756">
        <ele>31.942</ele>
        <time>2022-08-28T08:48:38Z</time>
      </trkpt>
      <trkpt lat="43.387420" lon="-4.576696">
        <ele>32.345</ele>
        <time>2022-08-28T08:48:40Z</time>
      </trkpt>
      <trkpt lat="43.387380" lon="-4.576636">
        <ele>32.826</ele>
        <time>2022-08-28T08:48:42Z</time>
      </trkpt>
      <trkpt lat="43.387340" lon="-4.576579">
        <ele>33.313</ele>
        <time>2022-08-28T08:48:44Z</time>
      </trkpt>
      <trkpt lat="43.387293" lon="-4.576521">
        <ele>33.443</ele>
        <time>2022-08-28T08:48:46Z</time>
      </trkpt>
      <trkpt lat="43.387250" lon="-4.576456">
        <ele>33.007</ele>
        <time>2022-08-28T08:48:48Z</time>
      </trkpt>
      <trkpt lat="43.387207" lon="-4.576389">
        <ele>32.109</ele>
        <time>2022-08-28T08:48:50Z</time>
      </trkpt>
      <trkpt lat="43.387164" lon="-4.576327">
        <ele>32.992</ele>
        <time>2022-08-28T08:48:52Z</time>
      </trkpt>
      <trkpt lat="43.387127" lon="-4.576265">
        <ele>33.442</ele>
        <time>2022-08-28T08:48:54Z</time>
      </trkpt>
      <trkpt lat="43.387090" lon="-4.576207">
        <ele>33.713</ele>
        <time>2022-08-28T08:48:56Z</time>
      </trkpt>
      <trkpt lat="43.387048" lon="-4.576149">
        <ele>33.741</ele>
        <time>2022-08-28T08:48:58Z</time>
      </trkpt>
      <trkpt lat="43.387008" lon="-4.576087">
        <ele>33.786</ele>
        <time>2022-08-28T08:49:00Z</time>
      </trkpt>
      <trkpt lat="43.386971" lon="-4.576029">
        <ele>33.870</ele>
        <time>2022-08-28T08:49:02Z</time>
      </trkpt>
      <trkpt lat="43.386938" lon="-4.575967">
        <ele>34.086</ele>
        <time>2022-08-28T08:49:04Z</time>
      </trkpt>
      <trkpt lat="43.386905" lon="-4.575909">
        <ele>34.569</ele>
        <time>2022-08-28T08:49:06Z</time>
      </trkpt>
      <trkpt lat="43.386868" lon="-4.575846">
        <ele>34.930</ele>
        <time>2022-08-28T08:49:08Z</time>
      </trkpt>
      <trkpt lat="43.386836" lon="-4.575784">
        <ele>35.422</ele>
        <time>2022-08-28T08:49:10Z</time>
      </trkpt>
      <trkpt lat="43.386804" lon="-4.575722">
        <ele>35.862</ele>
        <time>2022-08-28T08:49:12Z</time>
      </trkpt>
      <trkpt lat="43.386772" lon="-4.575660">
        <ele>36.108</ele>
        <time>2022-08-28T08:49:14Z</time>
      </trkpt>
      <trkpt lat="43.386742" lon="-4.575598">
        <ele>36.309</ele>
        <time>2022-08-28T08:49:16Z</time>
      </trkpt>
      <trkpt lat="43.386712" lon="-4.575540">
        <ele>36.443</ele>
        <time>2022-08-28T08:49:18Z</time>
      </trkpt>
      <trkpt lat="43.386680" lon="-4.575475">
        <ele>36.413</ele>
        <time>2022-08-28T08:49:20Z</time>
      </trkpt>
      <trkpt lat="43.386650" lon="-4.575417">
        <ele>36.524</ele>
        <time>2022-08-28T08:49:22Z</time>
      </trkpt>
      <trkpt lat="43.386622" lon="-4.575357">
        <ele>36.622</ele>
        <time>2022-08-28T08:49:24Z</time>
      </trkpt>
      <trkpt lat="43.386594" lon="-4.575289">
        <ele>36.747</ele>
        <time>2022-08-28T08:49:26Z</time>
      </trkpt>
      <trkpt lat="43.386566" lon="-4.575226">
        <ele>37.111</ele>
        <time>2022-08-28T08:49:28Z</time>
      </trkpt>
      <trkpt lat="43.386541" lon="-4.575159">
        <ele>37.497</ele>
        <time>2022-08-28T08:49:30Z</time>
      </trkpt>
      <trkpt lat="43.386513" lon="-4.575091">
        <ele>37.750</ele>
        <time>2022-08-28T08:49:32Z</time>
      </trkpt>
      <trkpt lat="43.386483" lon="-4.575028">
        <ele>37.831</ele>
        <time>2022-08-28T08:49:34Z</time>
      </trkpt>
      <trkpt lat="43.386455" lon="-4.574965">
        <ele>37.835</ele>
        <time>2022-08-28T08:49:36Z</time>
      </trkpt>
      <trkpt lat="43.386430" lon="-4.574905">
        <ele>37.886</ele>
        <time>2022-08-28T08:49:38Z</time>
      </trkpt>
      <trkpt lat="43.386403" lon="-4.574837">
        <ele>37.714</ele>
        <time>2022-08-28T08:49:41Z</time>
      </trkpt>
      <trkpt lat="43.386375" lon="-4.574760">
        <ele>37.809</ele>
        <time>2022-08-28T08:49:44Z</time>
      </trkpt>
      <trkpt lat="43.386343" lon="-4.574690">
        <ele>37.874</ele>
        <time>2022-08-28T08:49:46Z</time>
      </trkpt>
      <trkpt lat="43.386311" lon="-4.574618">
        <ele>37.864</ele>
        <time>2022-08-28T08:49:48Z</time>
      </trkpt>
      <trkpt lat="43.386284" lon="-4.574540">
        <ele>37.975</ele>
        <time>2022-08-28T08:49:50Z</time>
      </trkpt>
      <trkpt lat="43.386252" lon="-4.574468">
        <ele>37.983</ele>
        <time>2022-08-28T08:49:52Z</time>
      </trkpt>
      <trkpt lat="43.386222" lon="-4.574393">
        <ele>38.098</ele>
        <time>2022-08-28T08:49:54Z</time>
      </trkpt>
      <trkpt lat="43.386194" lon="-4.574315">
        <ele>38.142</ele>
        <time>2022-08-28T08:49:56Z</time>
      </trkpt>
      <trkpt lat="43.386162" lon="-4.574242">
        <ele>38.148</ele>
        <time>2022-08-28T08:49:58Z</time>
      </trkpt>
      <trkpt lat="43.386137" lon="-4.574162">
        <ele>38.221</ele>
        <time>2022-08-28T08:50:00Z</time>
      </trkpt>
      <trkpt lat="43.386109" lon="-4.574082">
        <ele>38.362</ele>
        <time>2022-08-28T08:50:02Z</time>
      </trkpt>
      <trkpt lat="43.386079" lon="-4.574002">
        <ele>38.413</ele>
        <time>2022-08-28T08:50:04Z</time>
      </trkpt>
      <trkpt lat="43.386052" lon="-4.573924">
        <ele>38.543</ele>
        <time>2022-08-28T08:50:06Z</time>
      </trkpt>
      <trkpt lat="43.386022" lon="-4.573842">
        <ele>38.507</ele>
        <time>2022-08-28T08:50:08Z</time>
      </trkpt>
      <trkpt lat="43.385994" lon="-4.573754">
        <ele>38.609</ele>
        <time>2022-08-28T08:50:10Z</time>
      </trkpt>
      <trkpt lat="43.385966" lon="-4.573667">
        <ele>38.832</ele>
        <time>2022-08-28T08:50:12Z</time>
      </trkpt>
      <trkpt lat="43.385936" lon="-4.573579">
        <ele>39.112</ele>
        <time>2022-08-28T08:50:14Z</time>
      </trkpt>
      <trkpt lat="43.385909" lon="-4.573486">
        <ele>39.333</ele>
        <time>2022-08-28T08:50:16Z</time>
      </trkpt>
      <trkpt lat="43.385884" lon="-4.573391">
        <ele>39.661</ele>
        <time>2022-08-28T08:50:18Z</time>
      </trkpt>
      <trkpt lat="43.385861" lon="-4.573301">
        <ele>39.836</ele>
        <time>2022-08-28T08:50:20Z</time>
      </trkpt>
      <trkpt lat="43.385839" lon="-4.573219">
        <ele>39.690</ele>
        <time>2022-08-28T08:50:22Z</time>
      </trkpt>
      <trkpt lat="43.385822" lon="-4.573137">
        <ele>39.376</ele>
        <time>2022-08-28T08:50:24Z</time>
      </trkpt>
      <trkpt lat="43.385795" lon="-4.573057">
        <ele>39.199</ele>
        <time>2022-08-28T08:50:26Z</time>
      </trkpt>
      <trkpt lat="43.385767" lon="-4.572970">
        <ele>39.550</ele>
        <time>2022-08-28T08:50:28Z</time>
      </trkpt>
      <trkpt lat="43.385744" lon="-4.572892">
        <ele>39.726</ele>
        <time>2022-08-28T08:50:30Z</time>
      </trkpt>
      <trkpt lat="43.385721" lon="-4.572825">
        <ele>39.947</ele>
        <time>2022-08-28T08:50:32Z</time>
      </trkpt>
      <trkpt lat="43.385698" lon="-4.572765">
        <ele>40.011</ele>
        <time>2022-08-28T08:50:34Z</time>
      </trkpt>
      <trkpt lat="43.385676" lon="-4.572695">
        <ele>40.309</ele>
        <time>2022-08-28T08:50:36Z</time>
      </trkpt>
      <trkpt lat="43.385639" lon="-4.572622">
        <ele>40.663</ele>
        <time>2022-08-28T08:50:38Z</time>
      </trkpt>
      <trkpt lat="43.385621" lon="-4.572552">
        <ele>40.883</ele>
        <time>2022-08-28T08:50:40Z</time>
      </trkpt>
      <trkpt lat="43.385613" lon="-4.572487">
        <ele>41.054</ele>
        <time>2022-08-28T08:50:42Z</time>
      </trkpt>
      <trkpt lat="43.385595" lon="-4.572404">
        <ele>41.062</ele>
        <time>2022-08-28T08:50:45Z</time>
      </trkpt>
      <trkpt lat="43.385578" lon="-4.572342">
        <ele>41.077</ele>
        <time>2022-08-28T08:50:47Z</time>
      </trkpt>
      <trkpt lat="43.385555" lon="-4.572262">
        <ele>41.091</ele>
        <time>2022-08-28T08:50:50Z</time>
      </trkpt>
      <trkpt lat="43.385533" lon="-4.572184">
        <ele>41.467</ele>
        <time>2022-08-28T08:50:53Z</time>
      </trkpt>
      <trkpt lat="43.385506" lon="-4.572102">
        <ele>42.040</ele>
        <time>2022-08-28T08:50:56Z</time>
      </trkpt>
      <trkpt lat="43.385479" lon="-4.572025">
        <ele>42.461</ele>
        <time>2022-08-28T08:50:59Z</time>
      </trkpt>
      <trkpt lat="43.385471" lon="-4.571952">
        <ele>42.681</ele>
        <time>2022-08-28T08:51:02Z</time>
      </trkpt>
      <trkpt lat="43.385453" lon="-4.571880">
        <ele>42.761</ele>
        <time>2022-08-28T08:51:05Z</time>
      </trkpt>
      <trkpt lat="43.385436" lon="-4.571813">
        <ele>42.917</ele>
        <time>2022-08-28T08:51:09Z</time>
      </trkpt>
      <trkpt lat="43.385421" lon="-4.571753">
        <ele>43.009</ele>
        <time>2022-08-28T08:51:13Z</time>
      </trkpt>
      <trkpt lat="43.385406" lon="-4.571678">
        <ele>43.179</ele>
        <time>2022-08-28T08:51:17Z</time>
      </trkpt>
      <trkpt lat="43.385408" lon="-4.571565">
        <ele>43.119</ele>
        <time>2022-08-28T08:51:26Z</time>
      </trkpt>
      <trkpt lat="43.385445" lon="-4.571527">
        <ele>42.830</ele>
        <time>2022-08-28T08:51:30Z</time>
      </trkpt>
      <trkpt lat="43.385500" lon="-4.571532">
        <ele>42.438</ele>
        <time>2022-08-28T08:51:34Z</time>
      </trkpt>
      <trkpt lat="43.385455" lon="-4.571519">
        <ele>42.723</ele>
        <time>2022-08-28T09:19:01Z</time>
      </trkpt>
      <trkpt lat="43.385412" lon="-4.571476">
        <ele>43.027</ele>
        <time>2022-08-28T09:19:04Z</time>
      </trkpt>
      <trkpt lat="43.385387" lon="-4.571389">
        <ele>43.273</ele>
        <time>2022-08-28T09:19:07Z</time>
      </trkpt>
      <trkpt lat="43.385375" lon="-4.571304">
        <ele>43.456</ele>
        <time>2022-08-28T09:19:09Z</time>
      </trkpt>
      <trkpt lat="43.385352" lon="-4.571209">
        <ele>43.647</ele>
        <time>2022-08-28T09:19:11Z</time>
      </trkpt>
      <trkpt lat="43.385322" lon="-4.571119">
        <ele>43.898</ele>
        <time>2022-08-28T09:19:13Z</time>
      </trkpt>
      <trkpt lat="43.385302" lon="-4.571034">
        <ele>43.715</ele>
        <time>2022-08-28T09:19:15Z</time>
      </trkpt>
      <trkpt lat="43.385275" lon="-4.570967">
        <ele>43.526</ele>
        <time>2022-08-28T09:19:17Z</time>
      </trkpt>
      <trkpt lat="43.385240" lon="-4.570889">
        <ele>44.009</ele>
        <time>2022-08-28T09:19:20Z</time>
      </trkpt>
      <trkpt lat="43.385203" lon="-4.570817">
        <ele>44.690</ele>
        <time>2022-08-28T09:19:22Z</time>
      </trkpt>
      <trkpt lat="43.385170" lon="-4.570729">
        <ele>44.980</ele>
        <time>2022-08-28T09:19:24Z</time>
      </trkpt>
      <trkpt lat="43.385120" lon="-4.570637">
        <ele>45.251</ele>
        <time>2022-08-28T09:19:26Z</time>
      </trkpt>
      <trkpt lat="43.385073" lon="-4.570540">
        <ele>45.249</ele>
        <time>2022-08-28T09:19:28Z</time>
      </trkpt>
      <trkpt lat="43.385031" lon="-4.570440">
        <ele>45.354</ele>
        <time>2022-08-28T09:19:30Z</time>
      </trkpt>
      <trkpt lat="43.384999" lon="-4.570330">
        <ele>45.228</ele>
        <time>2022-08-28T09:19:32Z</time>
      </trkpt>
      <trkpt lat="43.384961" lon="-4.570217">
        <ele>45.644</ele>
        <time>2022-08-28T09:19:34Z</time>
      </trkpt>
      <trkpt lat="43.384946" lon="-4.570122">
        <ele>45.647</ele>
        <time>2022-08-28T09:19:36Z</time>
      </trkpt>
      <trkpt lat="43.384919" lon="-4.570025">
        <ele>45.818</ele>
        <time>2022-08-28T09:19:38Z</time>
      </trkpt>
      <trkpt lat="43.384887" lon="-4.569923">
        <ele>46.121</ele>
        <time>2022-08-28T09:19:40Z</time>
      </trkpt>
      <trkpt lat="43.384864" lon="-4.569816">
        <ele>46.041</ele>
        <time>2022-08-28T09:19:42Z</time>
      </trkpt>
      <trkpt lat="43.384836" lon="-4.569709">
        <ele>45.805</ele>
        <time>2022-08-28T09:19:44Z</time>
      </trkpt>
      <trkpt lat="43.384814" lon="-4.569624">
        <ele>45.509</ele>
        <time>2022-08-28T09:19:46Z</time>
      </trkpt>
      <trkpt lat="43.384791" lon="-4.569542">
        <ele>45.173</ele>
        <time>2022-08-28T09:19:48Z</time>
      </trkpt>
      <trkpt lat="43.384746" lon="-4.569467">
        <ele>45.043</ele>
        <time>2022-08-28T09:19:50Z</time>
      </trkpt>
      <trkpt lat="43.384721" lon="-4.569404">
        <ele>44.914</ele>
        <time>2022-08-28T09:19:52Z</time>
      </trkpt>
      <trkpt lat="43.384693" lon="-4.569329">
        <ele>44.822</ele>
        <time>2022-08-28T09:19:54Z</time>
      </trkpt>
      <trkpt lat="43.384656" lon="-4.569227">
        <ele>44.637</ele>
        <time>2022-08-28T09:19:56Z</time>
      </trkpt>
      <trkpt lat="43.384621" lon="-4.569119">
        <ele>44.211</ele>
        <time>2022-08-28T09:19:58Z</time>
      </trkpt>
      <trkpt lat="43.384571" lon="-4.569002">
        <ele>44.027</ele>
        <time>2022-08-28T09:20:00Z</time>
      </trkpt>
      <trkpt lat="43.384534" lon="-4.568897">
        <ele>43.760</ele>
        <time>2022-08-28T09:20:02Z</time>
      </trkpt>
      <trkpt lat="43.384499" lon="-4.568790">
        <ele>44.091</ele>
        <time>2022-08-28T09:20:04Z</time>
      </trkpt>
      <trkpt lat="43.384467" lon="-4.568690">
        <ele>44.568</ele>
        <time>2022-08-28T09:20:06Z</time>
      </trkpt>
      <trkpt lat="43.384434" lon="-4.568582">
        <ele>45.042</ele>
        <time>2022-08-28T09:20:08Z</time>
      </trkpt>
      <trkpt lat="43.384396" lon="-4.568469">
        <ele>44.926</ele>
        <time>2022-08-28T09:20:10Z</time>
      </trkpt>
      <trkpt lat="43.384374" lon="-4.568412">
        <ele>44.909</ele>
        <time>2022-08-28T09:20:11Z</time>
      </trkpt>
      <trkpt lat="43.384339" lon="-4.568300">
        <ele>45.097</ele>
        <time>2022-08-28T09:20:13Z</time>
      </trkpt>
      <trkpt lat="43.384296" lon="-4.568188">
        <ele>45.377</ele>
        <time>2022-08-28T09:20:15Z</time>
      </trkpt>
      <trkpt lat="43.384253" lon="-4.568085">
        <ele>45.648</ele>
        <time>2022-08-28T09:20:17Z</time>
      </trkpt>
      <trkpt lat="43.384221" lon="-4.567977">
        <ele>46.316</ele>
        <time>2022-08-28T09:20:19Z</time>
      </trkpt>
      <trkpt lat="43.384179" lon="-4.567867">
        <ele>46.821</ele>
        <time>2022-08-28T09:20:21Z</time>
      </trkpt>
      <trkpt lat="43.384146" lon="-4.567762">
        <ele>47.275</ele>
        <time>2022-08-28T09:20:23Z</time>
      </trkpt>
      <trkpt lat="43.384114" lon="-4.567660">
        <ele>48.251</ele>
        <time>2022-08-28T09:20:25Z</time>
      </trkpt>
      <trkpt lat="43.384084" lon="-4.567557">
        <ele>49.084</ele>
        <time>2022-08-28T09:20:27Z</time>
      </trkpt>
      <trkpt lat="43.384054" lon="-4.567450">
        <ele>49.225</ele>
        <time>2022-08-28T09:20:29Z</time>
      </trkpt>
      <trkpt lat="43.384014" lon="-4.567345">
        <ele>49.074</ele>
        <time>2022-08-28T09:20:31Z</time>
      </trkpt>
      <trkpt lat="43.383989" lon="-4.567293">
        <ele>48.956</ele>
        <time>2022-08-28T09:20:32Z</time>
      </trkpt>
      <trkpt lat="43.383957" lon="-4.567200">
        <ele>49.021</ele>
        <time>2022-08-28T09:20:34Z</time>
      </trkpt>
      <trkpt lat="43.383932" lon="-4.567102">
        <ele>49.309</ele>
        <time>2022-08-28T09:20:36Z</time>
      </trkpt>
      <trkpt lat="43.383899" lon="-4.567007">
        <ele>49.778</ele>
        <time>2022-08-28T09:20:38Z</time>
      </trkpt>
      <trkpt lat="43.383872" lon="-4.566914">
        <ele>50.158</ele>
        <time>2022-08-28T09:20:40Z</time>
      </trkpt>
      <trkpt lat="43.383839" lon="-4.566821">
        <ele>50.339</ele>
        <time>2022-08-28T09:20:42Z</time>
      </trkpt>
      <trkpt lat="43.383819" lon="-4.566743">
        <ele>50.697</ele>
        <time>2022-08-28T09:20:44Z</time>
      </trkpt>
      <trkpt lat="43.383787" lon="-4.566668">
        <ele>51.132</ele>
        <time>2022-08-28T09:20:46Z</time>
      </trkpt>
      <trkpt lat="43.383745" lon="-4.566600">
        <ele>51.316</ele>
        <time>2022-08-28T09:20:48Z</time>
      </trkpt>
      <trkpt lat="43.383688" lon="-4.566543">
        <ele>51.592</ele>
        <time>2022-08-28T09:20:50Z</time>
      </trkpt>
      <trkpt lat="43.383631" lon="-4.566506">
        <ele>51.775</ele>
        <time>2022-08-28T09:20:52Z</time>
      </trkpt>
      <trkpt lat="43.383571" lon="-4.566488">
        <ele>51.786</ele>
        <time>2022-08-28T09:20:54Z</time>
      </trkpt>
      <trkpt lat="43.383503" lon="-4.566495">
        <ele>51.626</ele>
        <time>2022-08-28T09:20:56Z</time>
      </trkpt>
      <trkpt lat="43.383426" lon="-4.566495">
        <ele>51.547</ele>
        <time>2022-08-28T09:20:58Z</time>
      </trkpt>
      <trkpt lat="43.383338" lon="-4.566470">
        <ele>51.311</ele>
        <time>2022-08-28T09:21:00Z</time>
      </trkpt>
      <trkpt lat="43.383295" lon="-4.566445">
        <ele>51.109</ele>
        <time>2022-08-28T09:21:01Z</time>
      </trkpt>
      <trkpt lat="43.383232" lon="-4.566357">
        <ele>51.233</ele>
        <time>2022-08-28T09:21:03Z</time>
      </trkpt>
      <trkpt lat="43.383184" lon="-4.566235">
        <ele>51.883</ele>
        <time>2022-08-28T09:21:05Z</time>
      </trkpt>
      <trkpt lat="43.383161" lon="-4.566177">
        <ele>52.124</ele>
        <time>2022-08-28T09:21:06Z</time>
      </trkpt>
      <trkpt lat="43.383103" lon="-4.566062">
        <ele>52.362</ele>
        <time>2022-08-28T09:21:08Z</time>
      </trkpt>
      <trkpt lat="43.383065" lon="-4.566017">
        <ele>52.427</ele>
        <time>2022-08-28T09:21:09Z</time>
      </trkpt>
      <trkpt lat="43.382978" lon="-4.565967">
        <ele>52.881</ele>
        <time>2022-08-28T09:21:11Z</time>
      </trkpt>
      <trkpt lat="43.382898" lon="-4.565922">
        <ele>52.877</ele>
        <time>2022-08-28T09:21:13Z</time>
      </trkpt>
      <trkpt lat="43.382821" lon="-4.565882">
        <ele>52.680</ele>
        <time>2022-08-28T09:21:15Z</time>
      </trkpt>
      <trkpt lat="43.382741" lon="-4.565835">
        <ele>52.071</ele>
        <time>2022-08-28T09:21:17Z</time>
      </trkpt>
      <trkpt lat="43.382699" lon="-4.565810">
        <ele>52.071</ele>
        <time>2022-08-28T09:21:18Z</time>
      </trkpt>
      <trkpt lat="43.382651" lon="-4.565785">
        <ele>52.041</ele>
        <time>2022-08-28T09:21:19Z</time>
      </trkpt>
      <trkpt lat="43.382604" lon="-4.565762">
        <ele>51.915</ele>
        <time>2022-08-28T09:21:20Z</time>
      </trkpt>
      <trkpt lat="43.382556" lon="-4.565734">
        <ele>51.809</ele>
        <time>2022-08-28T09:21:21Z</time>
      </trkpt>
      <trkpt lat="43.382514" lon="-4.565711">
        <ele>51.618</ele>
        <time>2022-08-28T09:21:22Z</time>
      </trkpt>
      <trkpt lat="43.382431" lon="-4.565663">
        <ele>51.598</ele>
        <time>2022-08-28T09:21:24Z</time>
      </trkpt>
      <trkpt lat="43.382349" lon="-4.565633">
        <ele>51.749</ele>
        <time>2022-08-28T09:21:26Z</time>
      </trkpt>
      <trkpt lat="43.382272" lon="-4.565655">
        <ele>51.957</ele>
        <time>2022-08-28T09:21:28Z</time>
      </trkpt>
      <trkpt lat="43.382197" lon="-4.565697">
        <ele>51.992</ele>
        <time>2022-08-28T09:21:30Z</time>
      </trkpt>
      <trkpt lat="43.382124" lon="-4.565735">
        <ele>51.656</ele>
        <time>2022-08-28T09:21:32Z</time>
      </trkpt>
      <trkpt lat="43.382049" lon="-4.565753">
        <ele>51.442</ele>
        <time>2022-08-28T09:21:34Z</time>
      </trkpt>
      <trkpt lat="43.381981" lon="-4.565741">
        <ele>51.185</ele>
        <time>2022-08-28T09:21:36Z</time>
      </trkpt>
      <trkpt lat="43.381928" lon="-4.565699">
        <ele>51.026</ele>
        <time>2022-08-28T09:21:38Z</time>
      </trkpt>
      <trkpt lat="43.381880" lon="-4.565624">
        <ele>51.162</ele>
        <time>2022-08-28T09:21:40Z</time>
      </trkpt>
      <trkpt lat="43.381848" lon="-4.565534">
        <ele>51.483</ele>
        <time>2022-08-28T09:21:42Z</time>
      </trkpt>
      <trkpt lat="43.381830" lon="-4.565437">
        <ele>51.611</ele>
        <time>2022-08-28T09:21:44Z</time>
      </trkpt>
      <trkpt lat="43.381835" lon="-4.565345">
        <ele>51.709</ele>
        <time>2022-08-28T09:21:46Z</time>
      </trkpt>
      <trkpt lat="43.381858" lon="-4.565263">
        <ele>51.797</ele>
        <time>2022-08-28T09:21:48Z</time>
      </trkpt>
      <trkpt lat="43.381898" lon="-4.565190">
        <ele>51.647</ele>
        <time>2022-08-28T09:21:50Z</time>
      </trkpt>
      <trkpt lat="43.381963" lon="-4.565142">
        <ele>51.588</ele>
        <time>2022-08-28T09:21:52Z</time>
      </trkpt>
      <trkpt lat="43.382026" lon="-4.565105">
        <ele>51.716</ele>
        <time>2022-08-28T09:21:54Z</time>
      </trkpt>
      <trkpt lat="43.382084" lon="-4.565073">
        <ele>51.981</ele>
        <time>2022-08-28T09:21:56Z</time>
      </trkpt>
      <trkpt lat="43.382142" lon="-4.565028">
        <ele>52.075</ele>
        <time>2022-08-28T09:21:58Z</time>
      </trkpt>
      <trkpt lat="43.382194" lon="-4.564970">
        <ele>52.151</ele>
        <time>2022-08-28T09:22:00Z</time>
      </trkpt>
      <trkpt lat="43.382236" lon="-4.564900">
        <ele>52.314</ele>
        <time>2022-08-28T09:22:02Z</time>
      </trkpt>
      <trkpt lat="43.382264" lon="-4.564825">
        <ele>52.585</ele>
        <time>2022-08-28T09:22:04Z</time>
      </trkpt>
      <trkpt lat="43.382291" lon="-4.564750">
        <ele>52.777</ele>
        <time>2022-08-28T09:22:06Z</time>
      </trkpt>
      <trkpt lat="43.382316" lon="-4.564665">
        <ele>53.161</ele>
        <time>2022-08-28T09:22:08Z</time>
      </trkpt>
      <trkpt lat="43.382338" lon="-4.564573">
        <ele>53.727</ele>
        <time>2022-08-28T09:22:10Z</time>
      </trkpt>
      <trkpt lat="43.382343" lon="-4.564480">
        <ele>54.309</ele>
        <time>2022-08-28T09:22:12Z</time>
      </trkpt>
      <trkpt lat="43.382351" lon="-4.564378">
        <ele>54.998</ele>
        <time>2022-08-28T09:22:14Z</time>
      </trkpt>
      <trkpt lat="43.382358" lon="-4.564271">
        <ele>55.438</ele>
        <time>2022-08-28T09:22:16Z</time>
      </trkpt>
      <trkpt lat="43.382368" lon="-4.564164">
        <ele>56.119</ele>
        <time>2022-08-28T09:22:18Z</time>
      </trkpt>
      <trkpt lat="43.382378" lon="-4.564066">
        <ele>56.547</ele>
        <time>2022-08-28T09:22:20Z</time>
      </trkpt>
      <trkpt lat="43.382390" lon="-4.563978">
        <ele>56.972</ele>
        <time>2022-08-28T09:22:22Z</time>
      </trkpt>
      <trkpt lat="43.382393" lon="-4.563895">
        <ele>57.266</ele>
        <time>2022-08-28T09:22:24Z</time>
      </trkpt>
      <trkpt lat="43.382398" lon="-4.563813">
        <ele>57.812</ele>
        <time>2022-08-28T09:22:26Z</time>
      </trkpt>
      <trkpt lat="43.382401" lon="-4.563730">
        <ele>58.425</ele>
        <time>2022-08-28T09:22:28Z</time>
      </trkpt>
      <trkpt lat="43.382396" lon="-4.563650">
        <ele>59.076</ele>
        <time>2022-08-28T09:22:30Z</time>
      </trkpt>
      <trkpt lat="43.382394" lon="-4.563575">
        <ele>59.547</ele>
        <time>2022-08-28T09:22:32Z</time>
      </trkpt>
      <trkpt lat="43.382394" lon="-4.563505">
        <ele>59.929</ele>
        <time>2022-08-28T09:22:34Z</time>
      </trkpt>
      <trkpt lat="43.382391" lon="-4.563433">
        <ele>60.421</ele>
        <time>2022-08-28T09:22:36Z</time>
      </trkpt>
      <trkpt lat="43.382384" lon="-4.563363">
        <ele>60.809</ele>
        <time>2022-08-28T09:22:38Z</time>
      </trkpt>
      <trkpt lat="43.382382" lon="-4.563296">
        <ele>61.215</ele>
        <time>2022-08-28T09:22:40Z</time>
      </trkpt>
      <trkpt lat="43.382384" lon="-4.563226">
        <ele>61.585</ele>
        <time>2022-08-28T09:22:42Z</time>
      </trkpt>
      <trkpt lat="43.382374" lon="-4.563149">
        <ele>62.036</ele>
        <time>2022-08-28T09:22:44Z</time>
      </trkpt>
      <trkpt lat="43.382371" lon="-4.563072">
        <ele>62.484</ele>
        <time>2022-08-28T09:22:46Z</time>
      </trkpt>
      <trkpt lat="43.382363" lon="-4.562994">
        <ele>62.769</ele>
        <time>2022-08-28T09:22:48Z</time>
      </trkpt>
      <trkpt lat="43.382356" lon="-4.562921">
        <ele>63.063</ele>
        <time>2022-08-28T09:22:50Z</time>
      </trkpt>
      <trkpt lat="43.382346" lon="-4.562843">
        <ele>63.459</ele>
        <time>2022-08-28T09:22:52Z</time>
      </trkpt>
      <trkpt lat="43.382331" lon="-4.562760">
        <ele>63.952</ele>
        <time>2022-08-28T09:22:54Z</time>
      </trkpt>
      <trkpt lat="43.382326" lon="-4.562678">
        <ele>64.063</ele>
        <time>2022-08-28T09:22:56Z</time>
      </trkpt>
      <trkpt lat="43.382321" lon="-4.562595">
        <ele>64.291</ele>
        <time>2022-08-28T09:22:58Z</time>
      </trkpt>
      <trkpt lat="43.382314" lon="-4.562512">
        <ele>64.381</ele>
        <time>2022-08-28T09:23:00Z</time>
      </trkpt>
      <trkpt lat="43.382306" lon="-4.562429">
        <ele>64.419</ele>
        <time>2022-08-28T09:23:02Z</time>
      </trkpt>
      <trkpt lat="43.382301" lon="-4.562346">
        <ele>64.409</ele>
        <time>2022-08-28T09:23:04Z</time>
      </trkpt>
      <trkpt lat="43.382296" lon="-4.562264">
        <ele>64.510</ele>
        <time>2022-08-28T09:23:06Z</time>
      </trkpt>
      <trkpt lat="43.382289" lon="-4.562182">
        <ele>64.610</ele>
        <time>2022-08-28T09:23:08Z</time>
      </trkpt>
      <trkpt lat="43.382277" lon="-4.562099">
        <ele>65.091</ele>
        <time>2022-08-28T09:23:10Z</time>
      </trkpt>
      <trkpt lat="43.382264" lon="-4.562012">
        <ele>65.369</ele>
        <time>2022-08-28T09:23:12Z</time>
      </trkpt>
      <trkpt lat="43.382252" lon="-4.561925">
        <ele>65.714</ele>
        <time>2022-08-28T09:23:14Z</time>
      </trkpt>
      <trkpt lat="43.382244" lon="-4.561837">
        <ele>65.758</ele>
        <time>2022-08-28T09:23:16Z</time>
      </trkpt>
      <trkpt lat="43.382234" lon="-4.561745">
        <ele>65.864</ele>
        <time>2022-08-28T09:23:18Z</time>
      </trkpt>
      <trkpt lat="43.382224" lon="-4.561653">
        <ele>66.077</ele>
        <time>2022-08-28T09:23:20Z</time>
      </trkpt>
      <trkpt lat="43.382211" lon="-4.561560">
        <ele>66.158</ele>
        <time>2022-08-28T09:23:22Z</time>
      </trkpt>
      <trkpt lat="43.382199" lon="-4.561465">
        <ele>66.247</ele>
        <time>2022-08-28T09:23:24Z</time>
      </trkpt>
      <trkpt lat="43.382187" lon="-4.561372">
        <ele>66.429</ele>
        <time>2022-08-28T09:23:26Z</time>
      </trkpt>
      <trkpt lat="43.382174" lon="-4.561275">
        <ele>66.621</ele>
        <time>2022-08-28T09:23:28Z</time>
      </trkpt>
      <trkpt lat="43.382167" lon="-4.561177">
        <ele>66.709</ele>
        <time>2022-08-28T09:23:30Z</time>
      </trkpt>
      <trkpt lat="43.382165" lon="-4.561085">
        <ele>66.865</ele>
        <time>2022-08-28T09:23:32Z</time>
      </trkpt>
      <trkpt lat="43.382158" lon="-4.560997">
        <ele>66.945</ele>
        <time>2022-08-28T09:23:34Z</time>
      </trkpt>
      <trkpt lat="43.382151" lon="-4.560907">
        <ele>67.086</ele>
        <time>2022-08-28T09:23:36Z</time>
      </trkpt>
      <trkpt lat="43.382151" lon="-4.560814">
        <ele>67.034</ele>
        <time>2022-08-28T09:23:38Z</time>
      </trkpt>
      <trkpt lat="43.382139" lon="-4.560719">
        <ele>67.239</ele>
        <time>2022-08-28T09:23:40Z</time>
      </trkpt>
      <trkpt lat="43.382129" lon="-4.560624">
        <ele>67.333</ele>
        <time>2022-08-28T09:23:42Z</time>
      </trkpt>
      <trkpt lat="43.382119" lon="-4.560532">
        <ele>67.479</ele>
        <time>2022-08-28T09:23:44Z</time>
      </trkpt>
      <trkpt lat="43.382107" lon="-4.560440">
        <ele>67.492</ele>
        <time>2022-08-28T09:23:46Z</time>
      </trkpt>
      <trkpt lat="43.382095" lon="-4.560347">
        <ele>67.463</ele>
        <time>2022-08-28T09:23:48Z</time>
      </trkpt>
      <trkpt lat="43.382088" lon="-4.560254">
        <ele>67.489</ele>
        <time>2022-08-28T09:23:50Z</time>
      </trkpt>
      <trkpt lat="43.382076" lon="-4.560159">
        <ele>67.406</ele>
        <time>2022-08-28T09:23:52Z</time>
      </trkpt>
      <trkpt lat="43.382063" lon="-4.560066">
        <ele>67.426</ele>
        <time>2022-08-28T09:23:54Z</time>
      </trkpt>
      <trkpt lat="43.382048" lon="-4.559976">
        <ele>67.509</ele>
        <time>2022-08-28T09:23:56Z</time>
      </trkpt>
      <trkpt lat="43.382036" lon="-4.559894">
        <ele>67.659</ele>
        <time>2022-08-28T09:23:58Z</time>
      </trkpt>
      <trkpt lat="43.382024" lon="-4.559816">
        <ele>67.759</ele>
        <time>2022-08-28T09:24:00Z</time>
      </trkpt>
      <trkpt lat="43.382016" lon="-4.559739">
        <ele>67.760</ele>
        <time>2022-08-28T09:24:02Z</time>
      </trkpt>
      <trkpt lat="43.382008" lon="-4.559656">
        <ele>67.948</ele>
        <time>2022-08-28T09:24:04Z</time>
      </trkpt>
      <trkpt lat="43.381998" lon="-4.559569">
        <ele>68.143</ele>
        <time>2022-08-28T09:24:06Z</time>
      </trkpt>
      <trkpt lat="43.381991" lon="-4.559486">
        <ele>68.337</ele>
        <time>2022-08-28T09:24:08Z</time>
      </trkpt>
      <trkpt lat="43.381983" lon="-4.559411">
        <ele>68.533</ele>
        <time>2022-08-28T09:24:10Z</time>
      </trkpt>
      <trkpt lat="43.381975" lon="-4.559329">
        <ele>68.676</ele>
        <time>2022-08-28T09:24:12Z</time>
      </trkpt>
      <trkpt lat="43.381967" lon="-4.559246">
        <ele>68.757</ele>
        <time>2022-08-28T09:24:14Z</time>
      </trkpt>
      <trkpt lat="43.381957" lon="-4.559168">
        <ele>68.929</ele>
        <time>2022-08-28T09:24:16Z</time>
      </trkpt>
      <trkpt lat="43.381950" lon="-4.559091">
        <ele>68.900</ele>
        <time>2022-08-28T09:24:18Z</time>
      </trkpt>
      <trkpt lat="43.381942" lon="-4.559013">
        <ele>69.020</ele>
        <time>2022-08-28T09:24:20Z</time>
      </trkpt>
      <trkpt lat="43.381937" lon="-4.558936">
        <ele>69.109</ele>
        <time>2022-08-28T09:24:22Z</time>
      </trkpt>
      <trkpt lat="43.381927" lon="-4.558858">
        <ele>69.163</ele>
        <time>2022-08-28T09:24:24Z</time>
      </trkpt>
      <trkpt lat="43.381919" lon="-4.558778">
        <ele>69.033</ele>
        <time>2022-08-28T09:24:26Z</time>
      </trkpt>
      <trkpt lat="43.381907" lon="-4.558685">
        <ele>68.874</ele>
        <time>2022-08-28T09:24:28Z</time>
      </trkpt>
      <trkpt lat="43.381897" lon="-4.558592">
        <ele>68.752</ele>
        <time>2022-08-28T09:24:30Z</time>
      </trkpt>
      <trkpt lat="43.381884" lon="-4.558487">
        <ele>68.857</ele>
        <time>2022-08-28T09:24:32Z</time>
      </trkpt>
      <trkpt lat="43.381864" lon="-4.558370">
        <ele>68.971</ele>
        <time>2022-08-28T09:24:34Z</time>
      </trkpt>
      <trkpt lat="43.381844" lon="-4.558243">
        <ele>68.647</ele>
        <time>2022-08-28T09:24:36Z</time>
      </trkpt>
      <trkpt lat="43.381827" lon="-4.558106">
        <ele>68.130</ele>
        <time>2022-08-28T09:24:38Z</time>
      </trkpt>
      <trkpt lat="43.381817" lon="-4.558038">
        <ele>67.861</ele>
        <time>2022-08-28T09:24:39Z</time>
      </trkpt>
      <trkpt lat="43.381790" lon="-4.557893">
        <ele>67.291</ele>
        <time>2022-08-28T09:24:41Z</time>
      </trkpt>
      <trkpt lat="43.381775" lon="-4.557818">
        <ele>66.881</ele>
        <time>2022-08-28T09:24:42Z</time>
      </trkpt>
      <trkpt lat="43.381742" lon="-4.557665">
        <ele>66.019</ele>
        <time>2022-08-28T09:24:44Z</time>
      </trkpt>
      <trkpt lat="43.381722" lon="-4.557583">
        <ele>65.509</ele>
        <time>2022-08-28T09:24:45Z</time>
      </trkpt>
      <trkpt lat="43.381700" lon="-4.557501">
        <ele>65.070</ele>
        <time>2022-08-28T09:24:46Z</time>
      </trkpt>
      <trkpt lat="43.381655" lon="-4.557333">
        <ele>64.540</ele>
        <time>2022-08-28T09:24:48Z</time>
      </trkpt>
      <trkpt lat="43.381603" lon="-4.557156">
        <ele>64.141</ele>
        <time>2022-08-28T09:24:50Z</time>
      </trkpt>
      <trkpt lat="43.381543" lon="-4.556971">
        <ele>63.279</ele>
        <time>2022-08-28T09:24:52Z</time>
      </trkpt>
      <trkpt lat="43.381483" lon="-4.556778">
        <ele>61.814</ele>
        <time>2022-08-28T09:24:54Z</time>
      </trkpt>
      <trkpt lat="43.381453" lon="-4.556680">
        <ele>61.138</ele>
        <time>2022-08-28T09:24:55Z</time>
      </trkpt>
      <trkpt lat="43.381423" lon="-4.556580">
        <ele>60.634</ele>
        <time>2022-08-28T09:24:56Z</time>
      </trkpt>
      <trkpt lat="43.381395" lon="-4.556482">
        <ele>60.397</ele>
        <time>2022-08-28T09:24:57Z</time>
      </trkpt>
      <trkpt lat="43.381340" lon="-4.556280">
        <ele>59.938</ele>
        <time>2022-08-28T09:24:59Z</time>
      </trkpt>
      <trkpt lat="43.381312" lon="-4.556180">
        <ele>59.849</ele>
        <time>2022-08-28T09:25:00Z</time>
      </trkpt>
      <trkpt lat="43.381250" lon="-4.555987">
        <ele>59.702</ele>
        <time>2022-08-28T09:25:02Z</time>
      </trkpt>
      <trkpt lat="43.381222" lon="-4.555895">
        <ele>59.922</ele>
        <time>2022-08-28T09:25:03Z</time>
      </trkpt>
      <trkpt lat="43.381165" lon="-4.555722">
        <ele>60.309</ele>
        <time>2022-08-28T09:25:05Z</time>
      </trkpt>
      <trkpt lat="43.381137" lon="-4.555639">
        <ele>60.665</ele>
        <time>2022-08-28T09:25:06Z</time>
      </trkpt>
      <trkpt lat="43.381112" lon="-4.555557">
        <ele>61.075</ele>
        <time>2022-08-28T09:25:07Z</time>
      </trkpt>
      <trkpt lat="43.381059" lon="-4.555399">
        <ele>61.436</ele>
        <time>2022-08-28T09:25:09Z</time>
      </trkpt>
      <trkpt lat="43.381036" lon="-4.555324">
        <ele>61.684</ele>
        <time>2022-08-28T09:25:10Z</time>
      </trkpt>
      <trkpt lat="43.380988" lon="-4.555181">
        <ele>62.129</ele>
        <time>2022-08-28T09:25:12Z</time>
      </trkpt>
      <trkpt lat="43.380966" lon="-4.555116">
        <ele>62.433</ele>
        <time>2022-08-28T09:25:13Z</time>
      </trkpt>
      <trkpt lat="43.380926" lon="-4.554993">
        <ele>63.029</ele>
        <time>2022-08-28T09:25:15Z</time>
      </trkpt>
      <trkpt lat="43.380891" lon="-4.554883">
        <ele>63.522</ele>
        <time>2022-08-28T09:25:17Z</time>
      </trkpt>
      <trkpt lat="43.380861" lon="-4.554783">
        <ele>63.973</ele>
        <time>2022-08-28T09:25:19Z</time>
      </trkpt>
      <trkpt lat="43.380834" lon="-4.554690">
        <ele>64.193</ele>
        <time>2022-08-28T09:25:21Z</time>
      </trkpt>
      <trkpt lat="43.380811" lon="-4.554610">
        <ele>64.365</ele>
        <time>2022-08-28T09:25:23Z</time>
      </trkpt>
      <trkpt lat="43.380788" lon="-4.554532">
        <ele>64.521</ele>
        <time>2022-08-28T09:25:25Z</time>
      </trkpt>
      <trkpt lat="43.380763" lon="-4.554455">
        <ele>64.709</ele>
        <time>2022-08-28T09:25:27Z</time>
      </trkpt>
      <trkpt lat="43.380735" lon="-4.554378">
        <ele>65.150</ele>
        <time>2022-08-28T09:25:29Z</time>
      </trkpt>
      <trkpt lat="43.380715" lon="-4.554298">
        <ele>65.680</ele>
        <time>2022-08-28T09:25:31Z</time>
      </trkpt>
      <trkpt lat="43.380693" lon="-4.554220">
        <ele>66.151</ele>
        <time>2022-08-28T09:25:33Z</time>
      </trkpt>
      <trkpt lat="43.380671" lon="-4.554143">
        <ele>66.669</ele>
        <time>2022-08-28T09:25:35Z</time>
      </trkpt>
      <trkpt lat="43.380648" lon="-4.554061">
        <ele>67.074</ele>
        <time>2022-08-28T09:25:37Z</time>
      </trkpt>
      <trkpt lat="43.380623" lon="-4.553983">
        <ele>67.418</ele>
        <time>2022-08-28T09:25:39Z</time>
      </trkpt>
      <trkpt lat="43.380595" lon="-4.553910">
        <ele>67.994</ele>
        <time>2022-08-28T09:25:41Z</time>
      </trkpt>
      <trkpt lat="43.380568" lon="-4.553837">
        <ele>68.217</ele>
        <time>2022-08-28T09:25:43Z</time>
      </trkpt>
      <trkpt lat="43.380543" lon="-4.553764">
        <ele>68.438</ele>
        <time>2022-08-28T09:25:45Z</time>
      </trkpt>
      <trkpt lat="43.380515" lon="-4.553686">
        <ele>68.777</ele>
        <time>2022-08-28T09:25:47Z</time>
      </trkpt>
      <trkpt lat="43.380490" lon="-4.553606">
        <ele>69.061</ele>
        <time>2022-08-28T09:25:49Z</time>
      </trkpt>
      <trkpt lat="43.380457" lon="-4.553521">
        <ele>69.227</ele>
        <time>2022-08-28T09:25:51Z</time>
      </trkpt>
      <trkpt lat="43.380430" lon="-4.553441">
        <ele>69.309</ele>
        <time>2022-08-28T09:25:53Z</time>
      </trkpt>
      <trkpt lat="43.380403" lon="-4.553361">
        <ele>69.428</ele>
        <time>2022-08-28T09:25:55Z</time>
      </trkpt>
      <trkpt lat="43.380381" lon="-4.553283">
        <ele>69.788</ele>
        <time>2022-08-28T09:25:57Z</time>
      </trkpt>
      <trkpt lat="43.380358" lon="-4.553206">
        <ele>70.159</ele>
        <time>2022-08-28T09:25:59Z</time>
      </trkpt>
      <trkpt lat="43.380338" lon="-4.553134">
        <ele>70.567</ele>
        <time>2022-08-28T09:26:01Z</time>
      </trkpt>
      <trkpt lat="43.380320" lon="-4.553061">
        <ele>71.092</ele>
        <time>2022-08-28T09:26:03Z</time>
      </trkpt>
      <trkpt lat="43.380298" lon="-4.552991">
        <ele>71.276</ele>
        <time>2022-08-28T09:26:05Z</time>
      </trkpt>
      <trkpt lat="43.380278" lon="-4.552916">
        <ele>71.562</ele>
        <time>2022-08-28T09:26:07Z</time>
      </trkpt>
      <trkpt lat="43.380265" lon="-4.552846">
        <ele>71.765</ele>
        <time>2022-08-28T09:26:09Z</time>
      </trkpt>
      <trkpt lat="43.380233" lon="-4.552769">
        <ele>71.746</ele>
        <time>2022-08-28T09:26:11Z</time>
      </trkpt>
      <trkpt lat="43.380203" lon="-4.552696">
        <ele>71.878</ele>
        <time>2022-08-28T09:26:13Z</time>
      </trkpt>
      <trkpt lat="43.380178" lon="-4.552623">
        <ele>72.033</ele>
        <time>2022-08-28T09:26:15Z</time>
      </trkpt>
      <trkpt lat="43.380151" lon="-4.552553">
        <ele>72.326</ele>
        <time>2022-08-28T09:26:17Z</time>
      </trkpt>
      <trkpt lat="43.380123" lon="-4.552480">
        <ele>72.509</ele>
        <time>2022-08-28T09:26:19Z</time>
      </trkpt>
      <trkpt lat="43.380098" lon="-4.552405">
        <ele>72.848</ele>
        <time>2022-08-28T09:26:21Z</time>
      </trkpt>
      <trkpt lat="43.380075" lon="-4.552330">
        <ele>73.058</ele>
        <time>2022-08-28T09:26:23Z</time>
      </trkpt>
      <trkpt lat="43.380052" lon="-4.552253">
        <ele>73.289</ele>
        <time>2022-08-28T09:26:25Z</time>
      </trkpt>
      <trkpt lat="43.380024" lon="-4.552175">
        <ele>73.577</ele>
        <time>2022-08-28T09:26:27Z</time>
      </trkpt>
      <trkpt lat="43.379999" lon="-4.552090">
        <ele>74.052</ele>
        <time>2022-08-28T09:26:29Z</time>
      </trkpt>
      <trkpt lat="43.379981" lon="-4.552010">
        <ele>74.546</ele>
        <time>2022-08-28T09:26:31Z</time>
      </trkpt>
      <trkpt lat="43.379959" lon="-4.551932">
        <ele>75.022</ele>
        <time>2022-08-28T09:26:33Z</time>
      </trkpt>
      <trkpt lat="43.379941" lon="-4.551849">
        <ele>75.325</ele>
        <time>2022-08-28T09:26:35Z</time>
      </trkpt>
      <trkpt lat="43.379923" lon="-4.551769">
        <ele>75.646</ele>
        <time>2022-08-28T09:26:37Z</time>
      </trkpt>
      <trkpt lat="43.379900" lon="-4.551686">
        <ele>75.946</ele>
        <time>2022-08-28T09:26:39Z</time>
      </trkpt>
      <trkpt lat="43.379882" lon="-4.551601">
        <ele>76.388</ele>
        <time>2022-08-28T09:26:41Z</time>
      </trkpt>
      <trkpt lat="43.379865" lon="-4.551514">
        <ele>76.816</ele>
        <time>2022-08-28T09:26:43Z</time>
      </trkpt>
      <trkpt lat="43.379852" lon="-4.551424">
        <ele>77.309</ele>
        <time>2022-08-28T09:26:45Z</time>
      </trkpt>
      <trkpt lat="43.379832" lon="-4.551332">
        <ele>77.775</ele>
        <time>2022-08-28T09:26:47Z</time>
      </trkpt>
      <trkpt lat="43.379810" lon="-4.551235">
        <ele>77.955</ele>
        <time>2022-08-28T09:26:49Z</time>
      </trkpt>
      <trkpt lat="43.379790" lon="-4.551132">
        <ele>78.086</ele>
        <time>2022-08-28T09:26:51Z</time>
      </trkpt>
      <trkpt lat="43.379772" lon="-4.551020">
        <ele>77.784</ele>
        <time>2022-08-28T09:26:53Z</time>
      </trkpt>
      <trkpt lat="43.379752" lon="-4.550903">
        <ele>77.689</ele>
        <time>2022-08-28T09:26:55Z</time>
      </trkpt>
      <trkpt lat="43.379737" lon="-4.550843">
        <ele>77.733</ele>
        <time>2022-08-28T09:26:56Z</time>
      </trkpt>
      <trkpt lat="43.379712" lon="-4.550716">
        <ele>77.759</ele>
        <time>2022-08-28T09:26:58Z</time>
      </trkpt>
      <trkpt lat="43.379687" lon="-4.550588">
        <ele>77.772</ele>
        <time>2022-08-28T09:27:00Z</time>
      </trkpt>
      <trkpt lat="43.379660" lon="-4.550456">
        <ele>77.663</ele>
        <time>2022-08-28T09:27:02Z</time>
      </trkpt>
      <trkpt lat="43.379633" lon="-4.550319">
        <ele>77.727</ele>
        <time>2022-08-28T09:27:04Z</time>
      </trkpt>
      <trkpt lat="43.379620" lon="-4.550246">
        <ele>77.868</ele>
        <time>2022-08-28T09:27:05Z</time>
      </trkpt>
      <trkpt lat="43.379592" lon="-4.550096">
        <ele>78.114</ele>
        <time>2022-08-28T09:27:07Z</time>
      </trkpt>
      <trkpt lat="43.379565" lon="-4.549936">
        <ele>78.209</ele>
        <time>2022-08-28T09:27:09Z</time>
      </trkpt>
      <trkpt lat="43.379538" lon="-4.549768">
        <ele>78.233</ele>
        <time>2022-08-28T09:27:11Z</time>
      </trkpt>
      <trkpt lat="43.379511" lon="-4.549600">
        <ele>77.783</ele>
        <time>2022-08-28T09:27:13Z</time>
      </trkpt>
      <trkpt lat="43.379501" lon="-4.549512">
        <ele>77.174</ele>
        <time>2022-08-28T09:27:14Z</time>
      </trkpt>
      <trkpt lat="43.379486" lon="-4.549425">
        <ele>76.812</ele>
        <time>2022-08-28T09:27:15Z</time>
      </trkpt>
      <trkpt lat="43.379456" lon="-4.549243">
        <ele>76.237</ele>
        <time>2022-08-28T09:27:17Z</time>
      </trkpt>
      <trkpt lat="43.379439" lon="-4.549148">
        <ele>76.061</ele>
        <time>2022-08-28T09:27:18Z</time>
      </trkpt>
      <trkpt lat="43.379404" lon="-4.548955">
        <ele>75.497</ele>
        <time>2022-08-28T09:27:20Z</time>
      </trkpt>
      <trkpt lat="43.379387" lon="-4.548857">
        <ele>75.230</ele>
        <time>2022-08-28T09:27:21Z</time>
      </trkpt>
      <trkpt lat="43.379369" lon="-4.548757">
        <ele>75.031</ele>
        <time>2022-08-28T09:27:22Z</time>
      </trkpt>
      <trkpt lat="43.379334" lon="-4.548557">
        <ele>74.653</ele>
        <time>2022-08-28T09:27:24Z</time>
      </trkpt>
      <trkpt lat="43.379317" lon="-4.548457">
        <ele>74.304</ele>
        <time>2022-08-28T09:27:25Z</time>
      </trkpt>
      <trkpt lat="43.379295" lon="-4.548357">
        <ele>74.214</ele>
        <time>2022-08-28T09:27:26Z</time>
      </trkpt>
      <trkpt lat="43.379253" lon="-4.548160">
        <ele>74.309</ele>
        <time>2022-08-28T09:27:28Z</time>
      </trkpt>
      <trkpt lat="43.379233" lon="-4.548060">
        <ele>74.266</ele>
        <time>2022-08-28T09:27:29Z</time>
      </trkpt>
      <trkpt lat="43.379191" lon="-4.547865">
        <ele>74.096</ele>
        <time>2022-08-28T09:27:31Z</time>
      </trkpt>
      <trkpt lat="43.379168" lon="-4.547768">
        <ele>73.867</ele>
        <time>2022-08-28T09:27:32Z</time>
      </trkpt>
      <trkpt lat="43.379120" lon="-4.547576">
        <ele>73.925</ele>
        <time>2022-08-28T09:27:34Z</time>
      </trkpt>
      <trkpt lat="43.379073" lon="-4.547381">
        <ele>74.420</ele>
        <time>2022-08-28T09:27:36Z</time>
      </trkpt>
      <trkpt lat="43.379021" lon="-4.547181">
        <ele>74.834</ele>
        <time>2022-08-28T09:27:38Z</time>
      </trkpt>
      <trkpt lat="43.378999" lon="-4.547079">
        <ele>74.630</ele>
        <time>2022-08-28T09:27:39Z</time>
      </trkpt>
      <trkpt lat="43.378976" lon="-4.546979">
        <ele>74.393</ele>
        <time>2022-08-28T09:27:40Z</time>
      </trkpt>
      <trkpt lat="43.378953" lon="-4.546881">
        <ele>74.164</ele>
        <time>2022-08-28T09:27:41Z</time>
      </trkpt>
      <trkpt lat="43.378906" lon="-4.546684">
        <ele>73.661</ele>
        <time>2022-08-28T09:27:43Z</time>
      </trkpt>
      <trkpt lat="43.378858" lon="-4.546486">
        <ele>73.021</ele>
        <time>2022-08-28T09:27:45Z</time>
      </trkpt>
      <trkpt lat="43.378833" lon="-4.546388">
        <ele>73.013</ele>
        <time>2022-08-28T09:27:46Z</time>
      </trkpt>
      <trkpt lat="43.378783" lon="-4.546185">
        <ele>73.509</ele>
        <time>2022-08-28T09:27:48Z</time>
      </trkpt>
      <trkpt lat="43.378751" lon="-4.546082">
        <ele>74.147</ele>
        <time>2022-08-28T09:27:49Z</time>
      </trkpt>
      <trkpt lat="43.378724" lon="-4.545980">
        <ele>74.067</ele>
        <time>2022-08-28T09:27:50Z</time>
      </trkpt>
      <trkpt lat="43.378692" lon="-4.545873">
        <ele>73.738</ele>
        <time>2022-08-28T09:27:51Z</time>
      </trkpt>
      <trkpt lat="43.378665" lon="-4.545770">
        <ele>72.926</ele>
        <time>2022-08-28T09:27:52Z</time>
      </trkpt>
      <trkpt lat="43.378605" lon="-4.545562">
        <ele>70.591</ele>
        <time>2022-08-28T09:27:54Z</time>
      </trkpt>
      <trkpt lat="43.378575" lon="-4.545459">
        <ele>71.095</ele>
        <time>2022-08-28T09:27:55Z</time>
      </trkpt>
      <trkpt lat="43.378517" lon="-4.545251">
        <ele>72.091</ele>
        <time>2022-08-28T09:27:57Z</time>
      </trkpt>
      <trkpt lat="43.378455" lon="-4.545036">
        <ele>71.914</ele>
        <time>2022-08-28T09:27:59Z</time>
      </trkpt>
      <trkpt lat="43.378423" lon="-4.544933">
        <ele>71.735</ele>
        <time>2022-08-28T09:28:00Z</time>
      </trkpt>
      <trkpt lat="43.378391" lon="-4.544828">
        <ele>71.282</ele>
        <time>2022-08-28T09:28:01Z</time>
      </trkpt>
      <trkpt lat="43.378333" lon="-4.544615">
        <ele>69.143</ele>
        <time>2022-08-28T09:28:03Z</time>
      </trkpt>
      <trkpt lat="43.378278" lon="-4.544400">
        <ele>68.617</ele>
        <time>2022-08-28T09:28:05Z</time>
      </trkpt>
      <trkpt lat="43.378238" lon="-4.544182">
        <ele>66.809</ele>
        <time>2022-08-28T09:28:07Z</time>
      </trkpt>
      <trkpt lat="43.378223" lon="-4.544074">
        <ele>66.249</ele>
        <time>2022-08-28T09:28:08Z</time>
      </trkpt>
      <trkpt lat="43.378191" lon="-4.543861">
        <ele>65.869</ele>
        <time>2022-08-28T09:28:10Z</time>
      </trkpt>
      <trkpt lat="43.378178" lon="-4.543754">
        <ele>67.160</ele>
        <time>2022-08-28T09:28:11Z</time>
      </trkpt>
      <trkpt lat="43.378166" lon="-4.543649">
        <ele>68.458</ele>
        <time>2022-08-28T09:28:12Z</time>
      </trkpt>
      <trkpt lat="43.378143" lon="-4.543442">
        <ele>70.223</ele>
        <time>2022-08-28T09:28:14Z</time>
      </trkpt>
      <trkpt lat="43.378131" lon="-4.543339">
        <ele>70.987</ele>
        <time>2022-08-28T09:28:15Z</time>
      </trkpt>
      <trkpt lat="43.378118" lon="-4.543237">
        <ele>71.473</ele>
        <time>2022-08-28T09:28:16Z</time>
      </trkpt>
      <trkpt lat="43.378101" lon="-4.543029">
        <ele>71.726</ele>
        <time>2022-08-28T09:28:18Z</time>
      </trkpt>
      <trkpt lat="43.378076" lon="-4.542829">
        <ele>71.637</ele>
        <time>2022-08-28T09:28:20Z</time>
      </trkpt>
      <trkpt lat="43.378061" lon="-4.542731">
        <ele>71.591</ele>
        <time>2022-08-28T09:28:21Z</time>
      </trkpt>
      <trkpt lat="43.378044" lon="-4.542634">
        <ele>71.881</ele>
        <time>2022-08-28T09:28:22Z</time>
      </trkpt>
      <trkpt lat="43.378012" lon="-4.542442">
        <ele>72.519</ele>
        <time>2022-08-28T09:28:24Z</time>
      </trkpt>
      <trkpt lat="43.377980" lon="-4.542250">
        <ele>73.109</ele>
        <time>2022-08-28T09:28:26Z</time>
      </trkpt>
      <trkpt lat="43.377960" lon="-4.542158">
        <ele>73.590</ele>
        <time>2022-08-28T09:28:27Z</time>
      </trkpt>
      <trkpt lat="43.377922" lon="-4.541976">
        <ele>73.650</ele>
        <time>2022-08-28T09:28:29Z</time>
      </trkpt>
      <trkpt lat="43.377884" lon="-4.541788">
        <ele>73.091</ele>
        <time>2022-08-28T09:28:31Z</time>
      </trkpt>
      <trkpt lat="43.377841" lon="-4.541603">
        <ele>71.949</ele>
        <time>2022-08-28T09:28:33Z</time>
      </trkpt>
      <trkpt lat="43.377819" lon="-4.541510">
        <ele>71.334</ele>
        <time>2022-08-28T09:28:34Z</time>
      </trkpt>
      <trkpt lat="43.377776" lon="-4.541322">
        <ele>69.988</ele>
        <time>2022-08-28T09:28:36Z</time>
      </trkpt>
      <trkpt lat="43.377754" lon="-4.541227">
        <ele>69.624</ele>
        <time>2022-08-28T09:28:37Z</time>
      </trkpt>
      <trkpt lat="43.377731" lon="-4.541129">
        <ele>69.077</ele>
        <time>2022-08-28T09:28:38Z</time>
      </trkpt>
      <trkpt lat="43.377709" lon="-4.541029">
        <ele>68.598</ele>
        <time>2022-08-28T09:28:39Z</time>
      </trkpt>
      <trkpt lat="43.377666" lon="-4.540826">
        <ele>67.349</ele>
        <time>2022-08-28T09:28:41Z</time>
      </trkpt>
      <trkpt lat="43.377643" lon="-4.540723">
        <ele>67.402</ele>
        <time>2022-08-28T09:28:42Z</time>
      </trkpt>
      <trkpt lat="43.377595" lon="-4.540511">
        <ele>67.922</ele>
        <time>2022-08-28T09:28:44Z</time>
      </trkpt>
      <trkpt lat="43.377545" lon="-4.540293">
        <ele>69.409</ele>
        <time>2022-08-28T09:28:46Z</time>
      </trkpt>
      <trkpt lat="43.377518" lon="-4.540181">
        <ele>69.965</ele>
        <time>2022-08-28T09:28:47Z</time>
      </trkpt>
      <trkpt lat="43.377465" lon="-4.539949">
        <ele>70.395</ele>
        <time>2022-08-28T09:28:49Z</time>
      </trkpt>
      <trkpt lat="43.377413" lon="-4.539711">
        <ele>69.166</ele>
        <time>2022-08-28T09:28:51Z</time>
      </trkpt>
      <trkpt lat="43.377386" lon="-4.539593">
        <ele>67.994</ele>
        <time>2022-08-28T09:28:52Z</time>
      </trkpt>
      <trkpt lat="43.377331" lon="-4.539356">
        <ele>66.289</ele>
        <time>2022-08-28T09:28:54Z</time>
      </trkpt>
      <trkpt lat="43.377274" lon="-4.539119">
        <ele>65.153</ele>
        <time>2022-08-28T09:28:56Z</time>
      </trkpt>
      <trkpt lat="43.377247" lon="-4.539004">
        <ele>65.159</ele>
        <time>2022-08-28T09:28:57Z</time>
      </trkpt>
      <trkpt lat="43.377220" lon="-4.538889">
        <ele>65.242</ele>
        <time>2022-08-28T09:28:58Z</time>
      </trkpt>
      <trkpt lat="43.377162" lon="-4.538667">
        <ele>65.963</ele>
        <time>2022-08-28T09:29:00Z</time>
      </trkpt>
      <trkpt lat="43.377134" lon="-4.538559">
        <ele>66.524</ele>
        <time>2022-08-28T09:29:01Z</time>
      </trkpt>
      <trkpt lat="43.377074" lon="-4.538342">
        <ele>68.204</ele>
        <time>2022-08-28T09:29:03Z</time>
      </trkpt>
      <trkpt lat="43.377017" lon="-4.538127">
        <ele>69.514</ele>
        <time>2022-08-28T09:29:05Z</time>
      </trkpt>
      <trkpt lat="43.376962" lon="-4.537914">
        <ele>69.909</ele>
        <time>2022-08-28T09:29:07Z</time>
      </trkpt>
      <trkpt lat="43.376934" lon="-4.537811">
        <ele>70.123</ele>
        <time>2022-08-28T09:29:08Z</time>
      </trkpt>
      <trkpt lat="43.376879" lon="-4.537603">
        <ele>70.193</ele>
        <time>2022-08-28T09:29:10Z</time>
      </trkpt>
      <trkpt lat="43.376826" lon="-4.537401">
        <ele>69.134</ele>
        <time>2022-08-28T09:29:12Z</time>
      </trkpt>
      <trkpt lat="43.376778" lon="-4.537204">
        <ele>67.072</ele>
        <time>2022-08-28T09:29:14Z</time>
      </trkpt>
      <trkpt lat="43.376730" lon="-4.537002">
        <ele>66.117</ele>
        <time>2022-08-28T09:29:16Z</time>
      </trkpt>
      <trkpt lat="43.376708" lon="-4.536904">
        <ele>65.941</ele>
        <time>2022-08-28T09:29:17Z</time>
      </trkpt>
      <trkpt lat="43.376665" lon="-4.536712">
        <ele>65.877</ele>
        <time>2022-08-28T09:29:19Z</time>
      </trkpt>
      <trkpt lat="43.376618" lon="-4.536530">
        <ele>64.960</ele>
        <time>2022-08-28T09:29:21Z</time>
      </trkpt>
      <trkpt lat="43.376580" lon="-4.536345">
        <ele>62.471</ele>
        <time>2022-08-28T09:29:23Z</time>
      </trkpt>
      <trkpt lat="43.376537" lon="-4.536162">
        <ele>59.598</ele>
        <time>2022-08-28T09:29:25Z</time>
      </trkpt>
      <trkpt lat="43.376514" lon="-4.536070">
        <ele>58.715</ele>
        <time>2022-08-28T09:29:26Z</time>
      </trkpt>
      <trkpt lat="43.376491" lon="-4.535978">
        <ele>58.726</ele>
        <time>2022-08-28T09:29:27Z</time>
      </trkpt>
      <trkpt lat="43.376448" lon="-4.535795">
        <ele>59.209</ele>
        <time>2022-08-28T09:29:29Z</time>
      </trkpt>
      <trkpt lat="43.376426" lon="-4.535702">
        <ele>60.160</ele>
        <time>2022-08-28T09:29:30Z</time>
      </trkpt>
      <trkpt lat="43.376404" lon="-4.535607">
        <ele>61.280</ele>
        <time>2022-08-28T09:29:31Z</time>
      </trkpt>
      <trkpt lat="43.376386" lon="-4.535512">
        <ele>61.441</ele>
        <time>2022-08-28T09:29:32Z</time>
      </trkpt>
      <trkpt lat="43.376364" lon="-4.535414">
        <ele>61.069</ele>
        <time>2022-08-28T09:29:33Z</time>
      </trkpt>
      <trkpt lat="43.376347" lon="-4.535309">
        <ele>60.234</ele>
        <time>2022-08-28T09:29:34Z</time>
      </trkpt>
      <trkpt lat="43.376310" lon="-4.535111">
        <ele>59.938</ele>
        <time>2022-08-28T09:29:36Z</time>
      </trkpt>
      <trkpt lat="43.376292" lon="-4.535011">
        <ele>59.854</ele>
        <time>2022-08-28T09:29:37Z</time>
      </trkpt>
      <trkpt lat="43.376252" lon="-4.534806">
        <ele>59.977</ele>
        <time>2022-08-28T09:29:39Z</time>
      </trkpt>
      <trkpt lat="43.376229" lon="-4.534699">
        <ele>60.138</ele>
        <time>2022-08-28T09:29:40Z</time>
      </trkpt>
      <trkpt lat="43.376191" lon="-4.534484">
        <ele>59.644</ele>
        <time>2022-08-28T09:29:42Z</time>
      </trkpt>
      <trkpt lat="43.376149" lon="-4.534264">
        <ele>58.705</ele>
        <time>2022-08-28T09:29:44Z</time>
      </trkpt>
      <trkpt lat="43.376129" lon="-4.534152">
        <ele>57.815</ele>
        <time>2022-08-28T09:29:45Z</time>
      </trkpt>
      <trkpt lat="43.376091" lon="-4.533922">
        <ele>54.909</ele>
        <time>2022-08-28T09:29:47Z</time>
      </trkpt>
      <trkpt lat="43.376069" lon="-4.533807">
        <ele>54.755</ele>
        <time>2022-08-28T09:29:48Z</time>
      </trkpt>
      <trkpt lat="43.376051" lon="-4.533689">
        <ele>54.515</ele>
        <time>2022-08-28T09:29:49Z</time>
      </trkpt>
      <trkpt lat="43.376018" lon="-4.533439">
        <ele>52.466</ele>
        <time>2022-08-28T09:29:51Z</time>
      </trkpt>
      <trkpt lat="43.376000" lon="-4.533312">
        <ele>51.184</ele>
        <time>2022-08-28T09:29:52Z</time>
      </trkpt>
      <trkpt lat="43.375955" lon="-4.533052">
        <ele>48.189</ele>
        <time>2022-08-28T09:29:54Z</time>
      </trkpt>
      <trkpt lat="43.375917" lon="-4.532795">
        <ele>47.883</ele>
        <time>2022-08-28T09:29:56Z</time>
      </trkpt>
      <trkpt lat="43.375902" lon="-4.532668">
        <ele>47.869</ele>
        <time>2022-08-28T09:29:57Z</time>
      </trkpt>
      <trkpt lat="43.375890" lon="-4.532545">
        <ele>47.742</ele>
        <time>2022-08-28T09:29:58Z</time>
      </trkpt>
      <trkpt lat="43.375873" lon="-4.532298">
        <ele>47.773</ele>
        <time>2022-08-28T09:30:00Z</time>
      </trkpt>
      <trkpt lat="43.375870" lon="-4.532176">
        <ele>47.333</ele>
        <time>2022-08-28T09:30:01Z</time>
      </trkpt>
      <trkpt lat="43.375867" lon="-4.531931">
        <ele>45.923</ele>
        <time>2022-08-28T09:30:03Z</time>
      </trkpt>
      <trkpt lat="43.375865" lon="-4.531693">
        <ele>46.615</ele>
        <time>2022-08-28T09:30:05Z</time>
      </trkpt>
      <trkpt lat="43.375860" lon="-4.531576">
        <ele>47.409</ele>
        <time>2022-08-28T09:30:06Z</time>
      </trkpt>
      <trkpt lat="43.375855" lon="-4.531464">
        <ele>48.214</ele>
        <time>2022-08-28T09:30:07Z</time>
      </trkpt>
      <trkpt lat="43.375848" lon="-4.531359">
        <ele>49.144</ele>
        <time>2022-08-28T09:30:08Z</time>
      </trkpt>
      <trkpt lat="43.375841" lon="-4.531256">
        <ele>50.055</ele>
        <time>2022-08-28T09:30:09Z</time>
      </trkpt>
      <trkpt lat="43.375833" lon="-4.531056">
        <ele>51.473</ele>
        <time>2022-08-28T09:30:11Z</time>
      </trkpt>
      <trkpt lat="43.375826" lon="-4.530959">
        <ele>52.688</ele>
        <time>2022-08-28T09:30:12Z</time>
      </trkpt>
      <trkpt lat="43.375819" lon="-4.530864">
        <ele>53.792</ele>
        <time>2022-08-28T09:30:13Z</time>
      </trkpt>
      <trkpt lat="43.375807" lon="-4.530674">
        <ele>55.668</ele>
        <time>2022-08-28T09:30:15Z</time>
      </trkpt>
      <trkpt lat="43.375800" lon="-4.530477">
        <ele>56.631</ele>
        <time>2022-08-28T09:30:17Z</time>
      </trkpt>
      <trkpt lat="43.375800" lon="-4.530374">
        <ele>56.692</ele>
        <time>2022-08-28T09:30:18Z</time>
      </trkpt>
      <trkpt lat="43.375790" lon="-4.530172">
        <ele>57.032</ele>
        <time>2022-08-28T09:30:20Z</time>
      </trkpt>
      <trkpt lat="43.375785" lon="-4.530070">
        <ele>57.192</ele>
        <time>2022-08-28T09:30:21Z</time>
      </trkpt>
      <trkpt lat="43.375782" lon="-4.529865">
        <ele>56.711</ele>
        <time>2022-08-28T09:30:23Z</time>
      </trkpt>
      <trkpt lat="43.375779" lon="-4.529763">
        <ele>56.509</ele>
        <time>2022-08-28T09:30:24Z</time>
      </trkpt>
      <trkpt lat="43.375777" lon="-4.529548">
        <ele>55.254</ele>
        <time>2022-08-28T09:30:26Z</time>
      </trkpt>
      <trkpt lat="43.375775" lon="-4.529438">
        <ele>54.524</ele>
        <time>2022-08-28T09:30:27Z</time>
      </trkpt>
      <trkpt lat="43.375763" lon="-4.529211">
        <ele>53.495</ele>
        <time>2022-08-28T09:30:29Z</time>
      </trkpt>
      <trkpt lat="43.375755" lon="-4.529093">
        <ele>52.313</ele>
        <time>2022-08-28T09:30:30Z</time>
      </trkpt>
      <trkpt lat="43.375747" lon="-4.528973">
        <ele>50.928</ele>
        <time>2022-08-28T09:30:31Z</time>
      </trkpt>
      <trkpt lat="43.375724" lon="-4.528728">
        <ele>46.322</ele>
        <time>2022-08-28T09:30:33Z</time>
      </trkpt>
      <trkpt lat="43.375712" lon="-4.528603">
        <ele>43.598</ele>
        <time>2022-08-28T09:30:34Z</time>
      </trkpt>
      <trkpt lat="43.375689" lon="-4.528345">
        <ele>38.111</ele>
        <time>2022-08-28T09:30:36Z</time>
      </trkpt>
      <trkpt lat="43.375679" lon="-4.528213">
        <ele>36.172</ele>
        <time>2022-08-28T09:30:37Z</time>
      </trkpt>
      <trkpt lat="43.375671" lon="-4.527946">
        <ele>32.633</ele>
        <time>2022-08-28T09:30:39Z</time>
      </trkpt>
      <trkpt lat="43.375674" lon="-4.527678">
        <ele>31.223</ele>
        <time>2022-08-28T09:30:41Z</time>
      </trkpt>
      <trkpt lat="43.375696" lon="-4.527413">
        <ele>30.915</ele>
        <time>2022-08-28T09:30:43Z</time>
      </trkpt>
      <trkpt lat="43.375728" lon="-4.527156">
        <ele>30.509</ele>
        <time>2022-08-28T09:30:45Z</time>
      </trkpt>
      <trkpt lat="43.375748" lon="-4.527031">
        <ele>30.034</ele>
        <time>2022-08-28T09:30:46Z</time>
      </trkpt>
      <trkpt lat="43.375791" lon="-4.526788">
        <ele>29.344</ele>
        <time>2022-08-28T09:30:48Z</time>
      </trkpt>
      <trkpt lat="43.375844" lon="-4.526550">
        <ele>28.865</ele>
        <time>2022-08-28T09:30:50Z</time>
      </trkpt>
      <trkpt lat="43.375874" lon="-4.526435">
        <ele>28.993</ele>
        <time>2022-08-28T09:30:51Z</time>
      </trkpt>
      <trkpt lat="43.375904" lon="-4.526322">
        <ele>28.718</ele>
        <time>2022-08-28T09:30:52Z</time>
      </trkpt>
      <trkpt lat="43.375962" lon="-4.526095">
        <ele>28.062</ele>
        <time>2022-08-28T09:30:54Z</time>
      </trkpt>
      <trkpt lat="43.376012" lon="-4.525870">
        <ele>26.898</ele>
        <time>2022-08-28T09:30:56Z</time>
      </trkpt>
      <trkpt lat="43.376034" lon="-4.525758">
        <ele>26.351</ele>
        <time>2022-08-28T09:30:57Z</time>
      </trkpt>
      <trkpt lat="43.376056" lon="-4.525645">
        <ele>25.962</ele>
        <time>2022-08-28T09:30:58Z</time>
      </trkpt>
      <trkpt lat="43.376083" lon="-4.525418">
        <ele>25.768</ele>
        <time>2022-08-28T09:31:00Z</time>
      </trkpt>
      <trkpt lat="43.376100" lon="-4.525306">
        <ele>25.442</ele>
        <time>2022-08-28T09:31:01Z</time>
      </trkpt>
      <trkpt lat="43.376107" lon="-4.525193">
        <ele>24.926</ele>
        <time>2022-08-28T09:31:02Z</time>
      </trkpt>
      <trkpt lat="43.376125" lon="-4.524976">
        <ele>23.609</ele>
        <time>2022-08-28T09:31:04Z</time>
      </trkpt>
      <trkpt lat="43.376132" lon="-4.524763">
        <ele>22.677</ele>
        <time>2022-08-28T09:31:06Z</time>
      </trkpt>
      <trkpt lat="43.376139" lon="-4.524658">
        <ele>22.267</ele>
        <time>2022-08-28T09:31:07Z</time>
      </trkpt>
      <trkpt lat="43.376146" lon="-4.524550">
        <ele>21.958</ele>
        <time>2022-08-28T09:31:08Z</time>
      </trkpt>
      <trkpt lat="43.376164" lon="-4.524335">
        <ele>21.766</ele>
        <time>2022-08-28T09:31:10Z</time>
      </trkpt>
      <trkpt lat="43.376172" lon="-4.524228">
        <ele>21.891</ele>
        <time>2022-08-28T09:31:11Z</time>
      </trkpt>
      <trkpt lat="43.376182" lon="-4.524118">
        <ele>21.895</ele>
        <time>2022-08-28T09:31:12Z</time>
      </trkpt>
      <trkpt lat="43.376190" lon="-4.524013">
        <ele>21.961</ele>
        <time>2022-08-28T09:31:13Z</time>
      </trkpt>
      <trkpt lat="43.376208" lon="-4.523808">
        <ele>21.934</ele>
        <time>2022-08-28T09:31:15Z</time>
      </trkpt>
      <trkpt lat="43.376220" lon="-4.523708">
        <ele>21.695</ele>
        <time>2022-08-28T09:31:16Z</time>
      </trkpt>
      <trkpt lat="43.376237" lon="-4.523608">
        <ele>21.371</ele>
        <time>2022-08-28T09:31:17Z</time>
      </trkpt>
      <trkpt lat="43.376277" lon="-4.523411">
        <ele>20.841</ele>
        <time>2022-08-28T09:31:19Z</time>
      </trkpt>
      <trkpt lat="43.376300" lon="-4.523313">
        <ele>20.615</ele>
        <time>2022-08-28T09:31:20Z</time>
      </trkpt>
      <trkpt lat="43.376348" lon="-4.523113">
        <ele>19.909</ele>
        <time>2022-08-28T09:31:22Z</time>
      </trkpt>
      <trkpt lat="43.376408" lon="-4.522923">
        <ele>18.698</ele>
        <time>2022-08-28T09:31:24Z</time>
      </trkpt>
      <trkpt lat="43.376438" lon="-4.522830">
        <ele>18.028</ele>
        <time>2022-08-28T09:31:25Z</time>
      </trkpt>
      <trkpt lat="43.376471" lon="-4.522738">
        <ele>17.579</ele>
        <time>2022-08-28T09:31:26Z</time>
      </trkpt>
      <trkpt lat="43.376538" lon="-4.522558">
        <ele>17.887</ele>
        <time>2022-08-28T09:31:28Z</time>
      </trkpt>
      <trkpt lat="43.376611" lon="-4.522380">
        <ele>17.612</ele>
        <time>2022-08-28T09:31:30Z</time>
      </trkpt>
      <trkpt lat="43.376688" lon="-4.522203">
        <ele>17.036</ele>
        <time>2022-08-28T09:31:32Z</time>
      </trkpt>
      <trkpt lat="43.376771" lon="-4.522023">
        <ele>17.042</ele>
        <time>2022-08-28T09:31:34Z</time>
      </trkpt>
      <trkpt lat="43.376813" lon="-4.521931">
        <ele>17.035</ele>
        <time>2022-08-28T09:31:35Z</time>
      </trkpt>
      <trkpt lat="43.376855" lon="-4.521838">
        <ele>17.166</ele>
        <time>2022-08-28T09:31:36Z</time>
      </trkpt>
      <trkpt lat="43.376940" lon="-4.521653">
        <ele>17.144</ele>
        <time>2022-08-28T09:31:38Z</time>
      </trkpt>
      <trkpt lat="43.376980" lon="-4.521561">
        <ele>17.505</ele>
        <time>2022-08-28T09:31:39Z</time>
      </trkpt>
      <trkpt lat="43.377018" lon="-4.521469">
        <ele>17.915</ele>
        <time>2022-08-28T09:31:40Z</time>
      </trkpt>
      <trkpt lat="43.377088" lon="-4.521279">
        <ele>18.409</ele>
        <time>2022-08-28T09:31:42Z</time>
      </trkpt>
      <trkpt lat="43.377118" lon="-4.521181">
        <ele>18.295</ele>
        <time>2022-08-28T09:31:43Z</time>
      </trkpt>
      <trkpt lat="43.377145" lon="-4.521083">
        <ele>17.615</ele>
        <time>2022-08-28T09:31:44Z</time>
      </trkpt>
      <trkpt lat="43.377200" lon="-4.520886">
        <ele>15.796</ele>
        <time>2022-08-28T09:31:46Z</time>
      </trkpt>
      <trkpt lat="43.377243" lon="-4.520688">
        <ele>13.754</ele>
        <time>2022-08-28T09:31:48Z</time>
      </trkpt>
      <trkpt lat="43.377261" lon="-4.520586">
        <ele>12.779</ele>
        <time>2022-08-28T09:31:49Z</time>
      </trkpt>
      <trkpt lat="43.377273" lon="-4.520483">
        <ele>12.073</ele>
        <time>2022-08-28T09:31:50Z</time>
      </trkpt>
      <trkpt lat="43.377286" lon="-4.520381">
        <ele>11.579</ele>
        <time>2022-08-28T09:31:51Z</time>
      </trkpt>
      <trkpt lat="43.377311" lon="-4.520169">
        <ele>10.262</ele>
        <time>2022-08-28T09:31:53Z</time>
      </trkpt>
      <trkpt lat="43.377318" lon="-4.520067">
        <ele>9.693</ele>
        <time>2022-08-28T09:31:54Z</time>
      </trkpt>
      <trkpt lat="43.377323" lon="-4.519862">
        <ele>8.661</ele>
        <time>2022-08-28T09:31:56Z</time>
      </trkpt>
      <trkpt lat="43.377325" lon="-4.519759">
        <ele>8.221</ele>
        <time>2022-08-28T09:31:57Z</time>
      </trkpt>
      <trkpt lat="43.377323" lon="-4.519556">
        <ele>7.813</ele>
        <time>2022-08-28T09:31:59Z</time>
      </trkpt>
      <trkpt lat="43.377305" lon="-4.519351">
        <ele>7.709</ele>
        <time>2022-08-28T09:32:01Z</time>
      </trkpt>
      <trkpt lat="43.377295" lon="-4.519251">
        <ele>7.757</ele>
        <time>2022-08-28T09:32:02Z</time>
      </trkpt>
      <trkpt lat="43.377273" lon="-4.519048">
        <ele>8.257</ele>
        <time>2022-08-28T09:32:04Z</time>
      </trkpt>
      <trkpt lat="43.377256" lon="-4.518948">
        <ele>8.618</ele>
        <time>2022-08-28T09:32:05Z</time>
      </trkpt>
      <trkpt lat="43.377216" lon="-4.518748">
        <ele>9.476</ele>
        <time>2022-08-28T09:32:07Z</time>
      </trkpt>
      <trkpt lat="43.377194" lon="-4.518651">
        <ele>9.361</ele>
        <time>2022-08-28T09:32:08Z</time>
      </trkpt>
      <trkpt lat="43.377147" lon="-4.518461">
        <ele>8.375</ele>
        <time>2022-08-28T09:32:10Z</time>
      </trkpt>
      <trkpt lat="43.377095" lon="-4.518273">
        <ele>7.451</ele>
        <time>2022-08-28T09:32:12Z</time>
      </trkpt>
      <trkpt lat="43.377068" lon="-4.518183">
        <ele>7.454</ele>
        <time>2022-08-28T09:32:13Z</time>
      </trkpt>
      <trkpt lat="43.377008" lon="-4.518008">
        <ele>7.635</ele>
        <time>2022-08-28T09:32:15Z</time>
      </trkpt>
      <trkpt lat="43.376980" lon="-4.517923">
        <ele>7.795</ele>
        <time>2022-08-28T09:32:16Z</time>
      </trkpt>
      <trkpt lat="43.376920" lon="-4.517755">
        <ele>7.749</ele>
        <time>2022-08-28T09:32:18Z</time>
      </trkpt>
      <trkpt lat="43.376853" lon="-4.517595">
        <ele>7.323</ele>
        <time>2022-08-28T09:32:20Z</time>
      </trkpt>
      <trkpt lat="43.376790" lon="-4.517447">
        <ele>6.809</ele>
        <time>2022-08-28T09:32:22Z</time>
      </trkpt>
      <trkpt lat="43.376733" lon="-4.517312">
        <ele>6.050</ele>
        <time>2022-08-28T09:32:24Z</time>
      </trkpt>
      <trkpt lat="43.376680" lon="-4.517185">
        <ele>5.140</ele>
        <time>2022-08-28T09:32:26Z</time>
      </trkpt>
      <trkpt lat="43.376632" lon="-4.517063">
        <ele>3.981</ele>
        <time>2022-08-28T09:32:28Z</time>
      </trkpt>
      <trkpt lat="43.376609" lon="-4.517005">
        <ele>3.379</ele>
        <time>2022-08-28T09:32:29Z</time>
      </trkpt>
      <trkpt lat="43.376566" lon="-4.516900">
        <ele>2.644</ele>
        <time>2022-08-28T09:32:31Z</time>
      </trkpt>
      <trkpt lat="43.376526" lon="-4.516805">
        <ele>2.268</ele>
        <time>2022-08-28T09:32:33Z</time>
      </trkpt>
      <trkpt lat="43.376488" lon="-4.516718">
        <ele>2.024</ele>
        <time>2022-08-28T09:32:35Z</time>
      </trkpt>
      <trkpt lat="43.376453" lon="-4.516643">
        <ele>1.817</ele>
        <time>2022-08-28T09:32:37Z</time>
      </trkpt>
      <trkpt lat="43.376426" lon="-4.516576">
        <ele>1.918</ele>
        <time>2022-08-28T09:32:39Z</time>
      </trkpt>
      <trkpt lat="43.376399" lon="-4.516518">
        <ele>2.133</ele>
        <time>2022-08-28T09:32:41Z</time>
      </trkpt>
      <trkpt lat="43.376352" lon="-4.516421">
        <ele>2.523</ele>
        <time>2022-08-28T09:32:53Z</time>
      </trkpt>
      <trkpt lat="43.376322" lon="-4.516363">
        <ele>3.015</ele>
        <time>2022-08-28T09:32:55Z</time>
      </trkpt>
      <trkpt lat="43.376289" lon="-4.516280">
        <ele>4.109</ele>
        <time>2022-08-28T09:32:57Z</time>
      </trkpt>
      <trkpt lat="43.376244" lon="-4.516177">
        <ele>5.434</ele>
        <time>2022-08-28T09:32:59Z</time>
      </trkpt>
      <trkpt lat="43.376221" lon="-4.516124">
        <ele>6.094</ele>
        <time>2022-08-28T09:33:00Z</time>
      </trkpt>
      <trkpt lat="43.376171" lon="-4.516007">
        <ele>6.595</ele>
        <time>2022-08-28T09:33:02Z</time>
      </trkpt>
      <trkpt lat="43.376149" lon="-4.515944">
        <ele>7.093</ele>
        <time>2022-08-28T09:33:03Z</time>
      </trkpt>
      <trkpt lat="43.376127" lon="-4.515882">
        <ele>7.578</ele>
        <time>2022-08-28T09:33:04Z</time>
      </trkpt>
      <trkpt lat="43.376104" lon="-4.515817">
        <ele>8.082</ele>
        <time>2022-08-28T09:33:05Z</time>
      </trkpt>
      <trkpt lat="43.376074" lon="-4.515749">
        <ele>7.878</ele>
        <time>2022-08-28T09:33:06Z</time>
      </trkpt>
      <trkpt lat="43.376016" lon="-4.515609">
        <ele>7.471</ele>
        <time>2022-08-28T09:33:08Z</time>
      </trkpt>
      <trkpt lat="43.375966" lon="-4.515464">
        <ele>7.142</ele>
        <time>2022-08-28T09:33:10Z</time>
      </trkpt>
      <trkpt lat="43.375918" lon="-4.515319">
        <ele>6.845</ele>
        <time>2022-08-28T09:33:12Z</time>
      </trkpt>
      <trkpt lat="43.375888" lon="-4.515249">
        <ele>6.747</ele>
        <time>2022-08-28T09:33:13Z</time>
      </trkpt>
      <trkpt lat="43.375838" lon="-4.515111">
        <ele>7.211</ele>
        <time>2022-08-28T09:33:15Z</time>
      </trkpt>
      <trkpt lat="43.375793" lon="-4.514968">
        <ele>7.309</ele>
        <time>2022-08-28T09:33:17Z</time>
      </trkpt>
      <trkpt lat="43.375773" lon="-4.514896">
        <ele>6.975</ele>
        <time>2022-08-28T09:33:18Z</time>
      </trkpt>
      <trkpt lat="43.375721" lon="-4.514743">
        <ele>6.015</ele>
        <time>2022-08-28T09:33:20Z</time>
      </trkpt>
      <trkpt lat="43.375698" lon="-4.514670">
        <ele>5.816</ele>
        <time>2022-08-28T09:33:21Z</time>
      </trkpt>
      <trkpt lat="43.375650" lon="-4.514510">
        <ele>6.254</ele>
        <time>2022-08-28T09:33:23Z</time>
      </trkpt>
      <trkpt lat="43.375628" lon="-4.514433">
        <ele>6.619</ele>
        <time>2022-08-28T09:33:24Z</time>
      </trkpt>
      <trkpt lat="43.375610" lon="-4.514355">
        <ele>6.733</ele>
        <time>2022-08-28T09:33:25Z</time>
      </trkpt>
      <trkpt lat="43.375575" lon="-4.514200">
        <ele>7.049</ele>
        <time>2022-08-28T09:33:27Z</time>
      </trkpt>
      <trkpt lat="43.375542" lon="-4.514042">
        <ele>7.362</ele>
        <time>2022-08-28T09:33:29Z</time>
      </trkpt>
      <trkpt lat="43.375517" lon="-4.513885">
        <ele>7.443</ele>
        <time>2022-08-28T09:33:31Z</time>
      </trkpt>
      <trkpt lat="43.375502" lon="-4.513807">
        <ele>7.377</ele>
        <time>2022-08-28T09:33:32Z</time>
      </trkpt>
      <trkpt lat="43.375474" lon="-4.513649">
        <ele>7.161</ele>
        <time>2022-08-28T09:33:34Z</time>
      </trkpt>
      <trkpt lat="43.375444" lon="-4.513492">
        <ele>6.827</ele>
        <time>2022-08-28T09:33:36Z</time>
      </trkpt>
      <trkpt lat="43.375416" lon="-4.513337">
        <ele>6.509</ele>
        <time>2022-08-28T09:33:38Z</time>
      </trkpt>
      <trkpt lat="43.375393" lon="-4.513179">
        <ele>6.248</ele>
        <time>2022-08-28T09:33:40Z</time>
      </trkpt>
      <trkpt lat="43.375385" lon="-4.513097">
        <ele>6.298</ele>
        <time>2022-08-28T09:33:41Z</time>
      </trkpt>
      <trkpt lat="43.375368" lon="-4.512929">
        <ele>6.079</ele>
        <time>2022-08-28T09:33:43Z</time>
      </trkpt>
      <trkpt lat="43.375363" lon="-4.512846">
        <ele>5.997</ele>
        <time>2022-08-28T09:33:44Z</time>
      </trkpt>
      <trkpt lat="43.375353" lon="-4.512679">
        <ele>5.882</ele>
        <time>2022-08-28T09:33:46Z</time>
      </trkpt>
      <trkpt lat="43.375351" lon="-4.512596">
        <ele>5.886</ele>
        <time>2022-08-28T09:33:47Z</time>
      </trkpt>
      <trkpt lat="43.375348" lon="-4.512424">
        <ele>5.892</ele>
        <time>2022-08-28T09:33:49Z</time>
      </trkpt>
      <trkpt lat="43.375346" lon="-4.512249">
        <ele>5.725</ele>
        <time>2022-08-28T09:33:51Z</time>
      </trkpt>
      <trkpt lat="43.375344" lon="-4.512162">
        <ele>5.716</ele>
        <time>2022-08-28T09:33:52Z</time>
      </trkpt>
      <trkpt lat="43.375351" lon="-4.511987">
        <ele>5.814</ele>
        <time>2022-08-28T09:33:54Z</time>
      </trkpt>
      <trkpt lat="43.375356" lon="-4.511814">
        <ele>6.254</ele>
        <time>2022-08-28T09:33:56Z</time>
      </trkpt>
      <trkpt lat="43.375359" lon="-4.511726">
        <ele>6.409</ele>
        <time>2022-08-28T09:33:57Z</time>
      </trkpt>
      <trkpt lat="43.375367" lon="-4.511638">
        <ele>6.509</ele>
        <time>2022-08-28T09:33:58Z</time>
      </trkpt>
      <trkpt lat="43.375384" lon="-4.511455">
        <ele>6.052</ele>
        <time>2022-08-28T09:34:00Z</time>
      </trkpt>
      <trkpt lat="43.375401" lon="-4.511278">
        <ele>5.942</ele>
        <time>2022-08-28T09:34:02Z</time>
      </trkpt>
      <trkpt lat="43.375421" lon="-4.511100">
        <ele>6.023</ele>
        <time>2022-08-28T09:34:04Z</time>
      </trkpt>
      <trkpt lat="43.375431" lon="-4.511010">
        <ele>5.981</ele>
        <time>2022-08-28T09:34:05Z</time>
      </trkpt>
      <trkpt lat="43.375443" lon="-4.510918">
        <ele>5.956</ele>
        <time>2022-08-28T09:34:06Z</time>
      </trkpt>
      <trkpt lat="43.375455" lon="-4.510828">
        <ele>5.950</ele>
        <time>2022-08-28T09:34:07Z</time>
      </trkpt>
      <trkpt lat="43.375478" lon="-4.510648">
        <ele>6.096</ele>
        <time>2022-08-28T09:34:09Z</time>
      </trkpt>
      <trkpt lat="43.375493" lon="-4.510556">
        <ele>6.119</ele>
        <time>2022-08-28T09:34:10Z</time>
      </trkpt>
      <trkpt lat="43.375508" lon="-4.510464">
        <ele>6.080</ele>
        <time>2022-08-28T09:34:11Z</time>
      </trkpt>
      <trkpt lat="43.375536" lon="-4.510279">
        <ele>5.882</ele>
        <time>2022-08-28T09:34:13Z</time>
      </trkpt>
      <trkpt lat="43.375549" lon="-4.510187">
        <ele>5.943</ele>
        <time>2022-08-28T09:34:14Z</time>
      </trkpt>
      <trkpt lat="43.375562" lon="-4.510095">
        <ele>6.017</ele>
        <time>2022-08-28T09:34:15Z</time>
      </trkpt>
      <trkpt lat="43.375574" lon="-4.510003">
        <ele>6.109</ele>
        <time>2022-08-28T09:34:16Z</time>
      </trkpt>
      <trkpt lat="43.375599" lon="-4.509815">
        <ele>5.039</ele>
        <time>2022-08-28T09:34:18Z</time>
      </trkpt>
      <trkpt lat="43.375631" lon="-4.509628">
        <ele>4.849</ele>
        <time>2022-08-28T09:34:20Z</time>
      </trkpt>
      <trkpt lat="43.375644" lon="-4.509536">
        <ele>5.050</ele>
        <time>2022-08-28T09:34:21Z</time>
      </trkpt>
      <trkpt lat="43.375654" lon="-4.509444">
        <ele>5.168</ele>
        <time>2022-08-28T09:34:22Z</time>
      </trkpt>
      <trkpt lat="43.375682" lon="-4.509264">
        <ele>5.183</ele>
        <time>2022-08-28T09:34:24Z</time>
      </trkpt>
      <trkpt lat="43.375699" lon="-4.509174">
        <ele>5.097</ele>
        <time>2022-08-28T09:34:25Z</time>
      </trkpt>
      <trkpt lat="43.375714" lon="-4.509084">
        <ele>5.053</ele>
        <time>2022-08-28T09:34:26Z</time>
      </trkpt>
      <trkpt lat="43.375736" lon="-4.508904">
        <ele>5.066</ele>
        <time>2022-08-28T09:34:28Z</time>
      </trkpt>
      <trkpt lat="43.375744" lon="-4.508816">
        <ele>5.037</ele>
        <time>2022-08-28T09:34:29Z</time>
      </trkpt>
      <trkpt lat="43.375751" lon="-4.508729">
        <ele>5.185</ele>
        <time>2022-08-28T09:34:30Z</time>
      </trkpt>
      <trkpt lat="43.375771" lon="-4.508551">
        <ele>5.289</ele>
        <time>2022-08-28T09:34:32Z</time>
      </trkpt>
      <trkpt lat="43.375783" lon="-4.508461">
        <ele>5.017</ele>
        <time>2022-08-28T09:34:33Z</time>
      </trkpt>
      <trkpt lat="43.375791" lon="-4.508373">
        <ele>4.809</ele>
        <time>2022-08-28T09:34:34Z</time>
      </trkpt>
      <trkpt lat="43.375799" lon="-4.508283">
        <ele>4.859</ele>
        <time>2022-08-28T09:34:35Z</time>
      </trkpt>
      <trkpt lat="43.375811" lon="-4.508101">
        <ele>4.869</ele>
        <time>2022-08-28T09:34:37Z</time>
      </trkpt>
      <trkpt lat="43.375823" lon="-4.507919">
        <ele>4.910</ele>
        <time>2022-08-28T09:34:39Z</time>
      </trkpt>
      <trkpt lat="43.375835" lon="-4.507742">
        <ele>5.078</ele>
        <time>2022-08-28T09:34:41Z</time>
      </trkpt>
      <trkpt lat="43.375845" lon="-4.507564">
        <ele>5.183</ele>
        <time>2022-08-28T09:34:43Z</time>
      </trkpt>
      <trkpt lat="43.375847" lon="-4.507476">
        <ele>5.017</ele>
        <time>2022-08-28T09:34:44Z</time>
      </trkpt>
      <trkpt lat="43.375850" lon="-4.507304">
        <ele>4.533</ele>
        <time>2022-08-28T09:34:46Z</time>
      </trkpt>
      <trkpt lat="43.375852" lon="-4.507217">
        <ele>4.296</ele>
        <time>2022-08-28T09:34:47Z</time>
      </trkpt>
      <trkpt lat="43.375850" lon="-4.507045">
        <ele>4.257</ele>
        <time>2022-08-28T09:34:49Z</time>
      </trkpt>
      <trkpt lat="43.375848" lon="-4.506957">
        <ele>4.227</ele>
        <time>2022-08-28T09:34:50Z</time>
      </trkpt>
      <trkpt lat="43.375848" lon="-4.506874">
        <ele>4.468</ele>
        <time>2022-08-28T09:34:51Z</time>
      </trkpt>
      <trkpt lat="43.375846" lon="-4.506709">
        <ele>4.914</ele>
        <time>2022-08-28T09:34:53Z</time>
      </trkpt>
      <trkpt lat="43.375841" lon="-4.506537">
        <ele>4.609</ele>
        <time>2022-08-28T09:34:55Z</time>
      </trkpt>
      <trkpt lat="43.375834" lon="-4.506365">
        <ele>4.153</ele>
        <time>2022-08-28T09:34:57Z</time>
      </trkpt>
      <trkpt lat="43.375831" lon="-4.506282">
        <ele>4.463</ele>
        <time>2022-08-28T09:34:58Z</time>
      </trkpt>
      <trkpt lat="43.375816" lon="-4.506117">
        <ele>4.944</ele>
        <time>2022-08-28T09:35:00Z</time>
      </trkpt>
      <trkpt lat="43.375804" lon="-4.506037">
        <ele>4.872</ele>
        <time>2022-08-28T09:35:01Z</time>
      </trkpt>
      <trkpt lat="43.375782" lon="-4.505879">
        <ele>4.577</ele>
        <time>2022-08-28T09:35:03Z</time>
      </trkpt>
      <trkpt lat="43.375760" lon="-4.505719">
        <ele>4.311</ele>
        <time>2022-08-28T09:35:05Z</time>
      </trkpt>
      <trkpt lat="43.375747" lon="-4.505637">
        <ele>4.347</ele>
        <time>2022-08-28T09:35:06Z</time>
      </trkpt>
      <trkpt lat="43.375724" lon="-4.505475">
        <ele>4.250</ele>
        <time>2022-08-28T09:35:08Z</time>
      </trkpt>
      <trkpt lat="43.375712" lon="-4.505393">
        <ele>4.191</ele>
        <time>2022-08-28T09:35:09Z</time>
      </trkpt>
      <trkpt lat="43.375687" lon="-4.505233">
        <ele>4.072</ele>
        <time>2022-08-28T09:35:11Z</time>
      </trkpt>
      <trkpt lat="43.375665" lon="-4.505080">
        <ele>4.213</ele>
        <time>2022-08-28T09:35:13Z</time>
      </trkpt>
      <trkpt lat="43.375653" lon="-4.505007">
        <ele>4.314</ele>
        <time>2022-08-28T09:35:14Z</time>
      </trkpt>
      <trkpt lat="43.375640" lon="-4.504934">
        <ele>4.609</ele>
        <time>2022-08-28T09:35:15Z</time>
      </trkpt>
      <trkpt lat="43.375600" lon="-4.504801">
        <ele>5.448</ele>
        <time>2022-08-28T09:35:17Z</time>
      </trkpt>
      <trkpt lat="43.375572" lon="-4.504739">
        <ele>5.828</ele>
        <time>2022-08-28T09:35:18Z</time>
      </trkpt>
      <trkpt lat="43.375497" lon="-4.504646">
        <ele>6.429</ele>
        <time>2022-08-28T09:35:20Z</time>
      </trkpt>
      <trkpt lat="43.375419" lon="-4.504574">
        <ele>6.837</ele>
        <time>2022-08-28T09:35:22Z</time>
      </trkpt>
      <trkpt lat="43.375361" lon="-4.504486">
        <ele>7.062</ele>
        <time>2022-08-28T09:35:24Z</time>
      </trkpt>
      <trkpt lat="43.375324" lon="-4.504381">
        <ele>6.876</ele>
        <time>2022-08-28T09:35:26Z</time>
      </trkpt>
      <trkpt lat="43.375314" lon="-4.504263">
        <ele>6.492</ele>
        <time>2022-08-28T09:35:28Z</time>
      </trkpt>
      <trkpt lat="43.375332" lon="-4.504135">
        <ele>6.065</ele>
        <time>2022-08-28T09:35:30Z</time>
      </trkpt>
      <trkpt lat="43.375367" lon="-4.503998">
        <ele>5.336</ele>
        <time>2022-08-28T09:35:32Z</time>
      </trkpt>
      <trkpt lat="43.375394" lon="-4.503853">
        <ele>4.818</ele>
        <time>2022-08-28T09:35:34Z</time>
      </trkpt>
      <trkpt lat="43.375412" lon="-4.503703">
        <ele>4.698</ele>
        <time>2022-08-28T09:35:36Z</time>
      </trkpt>
      <trkpt lat="43.375427" lon="-4.503556">
        <ele>4.617</ele>
        <time>2022-08-28T09:35:38Z</time>
      </trkpt>
      <trkpt lat="43.375429" lon="-4.503481">
        <ele>4.609</ele>
        <time>2022-08-28T09:35:39Z</time>
      </trkpt>
      <trkpt lat="43.375434" lon="-4.503334">
        <ele>4.772</ele>
        <time>2022-08-28T09:35:41Z</time>
      </trkpt>
      <trkpt lat="43.375437" lon="-4.503191">
        <ele>5.222</ele>
        <time>2022-08-28T09:35:43Z</time>
      </trkpt>
      <trkpt lat="43.375442" lon="-4.503123">
        <ele>5.533</ele>
        <time>2022-08-28T09:35:44Z</time>
      </trkpt>
      <trkpt lat="43.375445" lon="-4.503056">
        <ele>5.871</ele>
        <time>2022-08-28T09:35:45Z</time>
      </trkpt>
      <trkpt lat="43.375445" lon="-4.502929">
        <ele>6.666</ele>
        <time>2022-08-28T09:35:47Z</time>
      </trkpt>
      <trkpt lat="43.375443" lon="-4.502866">
        <ele>7.020</ele>
        <time>2022-08-28T09:35:48Z</time>
      </trkpt>
      <trkpt lat="43.375436" lon="-4.502741">
        <ele>7.676</ele>
        <time>2022-08-28T09:35:50Z</time>
      </trkpt>
      <trkpt lat="43.375426" lon="-4.502621">
        <ele>7.829</ele>
        <time>2022-08-28T09:35:52Z</time>
      </trkpt>
      <trkpt lat="43.375419" lon="-4.502496">
        <ele>8.040</ele>
        <time>2022-08-28T09:35:54Z</time>
      </trkpt>
      <trkpt lat="43.375411" lon="-4.502434">
        <ele>8.272</ele>
        <time>2022-08-28T09:35:55Z</time>
      </trkpt>
      <trkpt lat="43.375396" lon="-4.502321">
        <ele>8.513</ele>
        <time>2022-08-28T09:35:57Z</time>
      </trkpt>
      <trkpt lat="43.375378" lon="-4.502204">
        <ele>8.714</ele>
        <time>2022-08-28T09:35:59Z</time>
      </trkpt>
      <trkpt lat="43.375368" lon="-4.502087">
        <ele>8.809</ele>
        <time>2022-08-28T09:36:01Z</time>
      </trkpt>
      <trkpt lat="43.375355" lon="-4.501970">
        <ele>8.818</ele>
        <time>2022-08-28T09:36:03Z</time>
      </trkpt>
      <trkpt lat="43.375337" lon="-4.501852">
        <ele>8.868</ele>
        <time>2022-08-28T09:36:05Z</time>
      </trkpt>
      <trkpt lat="43.375324" lon="-4.501735">
        <ele>8.869</ele>
        <time>2022-08-28T09:36:07Z</time>
      </trkpt>
      <trkpt lat="43.375317" lon="-4.501673">
        <ele>8.737</ele>
        <time>2022-08-28T09:36:08Z</time>
      </trkpt>
      <trkpt lat="43.375305" lon="-4.501555">
        <ele>9.082</ele>
        <time>2022-08-28T09:36:10Z</time>
      </trkpt>
      <trkpt lat="43.375285" lon="-4.501447">
        <ele>9.056</ele>
        <time>2022-08-28T09:36:12Z</time>
      </trkpt>
      <trkpt lat="43.375270" lon="-4.501337">
        <ele>9.042</ele>
        <time>2022-08-28T09:36:14Z</time>
      </trkpt>
      <trkpt lat="43.375258" lon="-4.501230">
        <ele>9.095</ele>
        <time>2022-08-28T09:36:16Z</time>
      </trkpt>
      <trkpt lat="43.375243" lon="-4.501123">
        <ele>9.056</ele>
        <time>2022-08-28T09:36:18Z</time>
      </trkpt>
      <trkpt lat="43.375230" lon="-4.501018">
        <ele>9.612</ele>
        <time>2022-08-28T09:36:20Z</time>
      </trkpt>
      <trkpt lat="43.375215" lon="-4.500915">
        <ele>10.332</ele>
        <time>2022-08-28T09:36:22Z</time>
      </trkpt>
      <trkpt lat="43.375203" lon="-4.500815">
        <ele>10.805</ele>
        <time>2022-08-28T09:36:24Z</time>
      </trkpt>
      <trkpt lat="43.375188" lon="-4.500715">
        <ele>11.309</ele>
        <time>2022-08-28T09:36:26Z</time>
      </trkpt>
      <trkpt lat="43.375163" lon="-4.500610">
        <ele>11.522</ele>
        <time>2022-08-28T09:36:28Z</time>
      </trkpt>
      <trkpt lat="43.375148" lon="-4.500510">
        <ele>11.882</ele>
        <time>2022-08-28T09:36:30Z</time>
      </trkpt>
      <trkpt lat="43.375140" lon="-4.500417">
        <ele>12.353</ele>
        <time>2022-08-28T09:36:32Z</time>
      </trkpt>
      <trkpt lat="43.375132" lon="-4.500324">
        <ele>12.711</ele>
        <time>2022-08-28T09:36:34Z</time>
      </trkpt>
      <trkpt lat="43.375120" lon="-4.500231">
        <ele>13.126</ele>
        <time>2022-08-28T09:36:36Z</time>
      </trkpt>
      <trkpt lat="43.375112" lon="-4.500141">
        <ele>13.680</ele>
        <time>2022-08-28T09:36:38Z</time>
      </trkpt>
      <trkpt lat="43.375104" lon="-4.500048">
        <ele>14.286</ele>
        <time>2022-08-28T09:36:40Z</time>
      </trkpt>
      <trkpt lat="43.375102" lon="-4.499948">
        <ele>14.739</ele>
        <time>2022-08-28T09:36:42Z</time>
      </trkpt>
      <trkpt lat="43.375100" lon="-4.499846">
        <ele>15.040</ele>
        <time>2022-08-28T09:36:44Z</time>
      </trkpt>
      <trkpt lat="43.375092" lon="-4.499746">
        <ele>15.263</ele>
        <time>2022-08-28T09:36:46Z</time>
      </trkpt>
      <trkpt lat="43.375087" lon="-4.499644">
        <ele>15.344</ele>
        <time>2022-08-28T09:36:48Z</time>
      </trkpt>
      <trkpt lat="43.375084" lon="-4.499544">
        <ele>15.418</ele>
        <time>2022-08-28T09:36:50Z</time>
      </trkpt>
      <trkpt lat="43.375081" lon="-4.499442">
        <ele>15.509</ele>
        <time>2022-08-28T09:36:52Z</time>
      </trkpt>
      <trkpt lat="43.375074" lon="-4.499337">
        <ele>15.727</ele>
        <time>2022-08-28T09:36:54Z</time>
      </trkpt>
      <trkpt lat="43.375072" lon="-4.499235">
        <ele>16.177</ele>
        <time>2022-08-28T09:36:56Z</time>
      </trkpt>
      <trkpt lat="43.375077" lon="-4.499133">
        <ele>16.448</ele>
        <time>2022-08-28T09:36:58Z</time>
      </trkpt>
      <trkpt lat="43.375080" lon="-4.499036">
        <ele>16.656</ele>
        <time>2022-08-28T09:37:00Z</time>
      </trkpt>
      <trkpt lat="43.375083" lon="-4.498939">
        <ele>16.741</ele>
        <time>2022-08-28T09:37:02Z</time>
      </trkpt>
      <trkpt lat="43.375085" lon="-4.498841">
        <ele>17.095</ele>
        <time>2022-08-28T09:37:04Z</time>
      </trkpt>
      <trkpt lat="43.375087" lon="-4.498743">
        <ele>17.231</ele>
        <time>2022-08-28T09:37:06Z</time>
      </trkpt>
      <trkpt lat="43.375092" lon="-4.498650">
        <ele>17.614</ele>
        <time>2022-08-28T09:37:08Z</time>
      </trkpt>
      <trkpt lat="43.375099" lon="-4.498557">
        <ele>17.945</ele>
        <time>2022-08-28T09:37:10Z</time>
      </trkpt>
      <trkpt lat="43.375099" lon="-4.498464">
        <ele>18.082</ele>
        <time>2022-08-28T09:37:12Z</time>
      </trkpt>
      <trkpt lat="43.375101" lon="-4.498369">
        <ele>18.143</ele>
        <time>2022-08-28T09:37:14Z</time>
      </trkpt>
      <trkpt lat="43.375099" lon="-4.498274">
        <ele>18.217</ele>
        <time>2022-08-28T09:37:16Z</time>
      </trkpt>
      <trkpt lat="43.375102" lon="-4.498177">
        <ele>18.409</ele>
        <time>2022-08-28T09:37:18Z</time>
      </trkpt>
      <trkpt lat="43.375102" lon="-4.498075">
        <ele>18.499</ele>
        <time>2022-08-28T09:37:20Z</time>
      </trkpt>
      <trkpt lat="43.375107" lon="-4.497975">
        <ele>18.719</ele>
        <time>2022-08-28T09:37:22Z</time>
      </trkpt>
      <trkpt lat="43.375117" lon="-4.497875">
        <ele>19.190</ele>
        <time>2022-08-28T09:37:24Z</time>
      </trkpt>
      <trkpt lat="43.375119" lon="-4.497780">
        <ele>19.358</ele>
        <time>2022-08-28T09:37:26Z</time>
      </trkpt>
      <trkpt lat="43.375121" lon="-4.497683">
        <ele>19.533</ele>
        <time>2022-08-28T09:37:28Z</time>
      </trkpt>
      <trkpt lat="43.375123" lon="-4.497585">
        <ele>19.767</ele>
        <time>2022-08-28T09:37:30Z</time>
      </trkpt>
      <trkpt lat="43.375130" lon="-4.497485">
        <ele>20.033</ele>
        <time>2022-08-28T09:37:32Z</time>
      </trkpt>
      <trkpt lat="43.375132" lon="-4.497380">
        <ele>20.446</ele>
        <time>2022-08-28T09:37:34Z</time>
      </trkpt>
      <trkpt lat="43.375134" lon="-4.497283">
        <ele>20.737</ele>
        <time>2022-08-28T09:37:36Z</time>
      </trkpt>
      <trkpt lat="43.375136" lon="-4.497186">
        <ele>21.396</ele>
        <time>2022-08-28T09:37:38Z</time>
      </trkpt>
      <trkpt lat="43.375128" lon="-4.497088">
        <ele>22.131</ele>
        <time>2022-08-28T09:37:40Z</time>
      </trkpt>
      <trkpt lat="43.375125" lon="-4.496993">
        <ele>23.024</ele>
        <time>2022-08-28T09:37:42Z</time>
      </trkpt>
      <trkpt lat="43.375128" lon="-4.496895">
        <ele>23.609</ele>
        <time>2022-08-28T09:37:44Z</time>
      </trkpt>
      <trkpt lat="43.375128" lon="-4.496797">
        <ele>23.740</ele>
        <time>2022-08-28T09:37:46Z</time>
      </trkpt>
      <trkpt lat="43.375126" lon="-4.496702">
        <ele>23.970</ele>
        <time>2022-08-28T09:37:48Z</time>
      </trkpt>
      <trkpt lat="43.375129" lon="-4.496610">
        <ele>24.031</ele>
        <time>2022-08-28T09:37:50Z</time>
      </trkpt>
      <trkpt lat="43.375129" lon="-4.496510">
        <ele>24.059</ele>
        <time>2022-08-28T09:37:52Z</time>
      </trkpt>
      <trkpt lat="43.375136" lon="-4.496417">
        <ele>24.044</ele>
        <time>2022-08-28T09:37:54Z</time>
      </trkpt>
      <trkpt lat="43.375134" lon="-4.496317">
        <ele>24.118</ele>
        <time>2022-08-28T09:37:56Z</time>
      </trkpt>
      <trkpt lat="43.375136" lon="-4.496222">
        <ele>24.324</ele>
        <time>2022-08-28T09:37:58Z</time>
      </trkpt>
      <trkpt lat="43.375138" lon="-4.496129">
        <ele>24.587</ele>
        <time>2022-08-28T09:38:00Z</time>
      </trkpt>
      <trkpt lat="43.375135" lon="-4.496036">
        <ele>24.898</ele>
        <time>2022-08-28T09:38:02Z</time>
      </trkpt>
      <trkpt lat="43.375133" lon="-4.495936">
        <ele>25.179</ele>
        <time>2022-08-28T09:38:04Z</time>
      </trkpt>
      <trkpt lat="43.375131" lon="-4.495838">
        <ele>25.505</ele>
        <time>2022-08-28T09:38:06Z</time>
      </trkpt>
      <trkpt lat="43.375134" lon="-4.495741">
        <ele>25.625</ele>
        <time>2022-08-28T09:38:08Z</time>
      </trkpt>
      <trkpt lat="43.375129" lon="-4.495644">
        <ele>25.809</ele>
        <time>2022-08-28T09:38:10Z</time>
      </trkpt>
      <trkpt lat="43.375114" lon="-4.495552">
        <ele>25.848</ele>
        <time>2022-08-28T09:38:12Z</time>
      </trkpt>
      <trkpt lat="43.375106" lon="-4.495469">
        <ele>26.198</ele>
        <time>2022-08-28T09:38:14Z</time>
      </trkpt>
      <trkpt lat="43.375088" lon="-4.495384">
        <ele>26.329</ele>
        <time>2022-08-28T09:38:16Z</time>
      </trkpt>
      <trkpt lat="43.375091" lon="-4.495304">
        <ele>26.657</ele>
        <time>2022-08-28T09:38:18Z</time>
      </trkpt>
      <trkpt lat="43.375091" lon="-4.495237">
        <ele>26.792</ele>
        <time>2022-08-28T09:38:20Z</time>
      </trkpt>
      <trkpt lat="43.375078" lon="-4.495164">
        <ele>26.646</ele>
        <time>2022-08-28T09:38:22Z</time>
      </trkpt>
      <trkpt lat="43.375065" lon="-4.495082">
        <ele>26.512</ele>
        <time>2022-08-28T09:38:24Z</time>
      </trkpt>
      <trkpt lat="43.375055" lon="-4.494990">
        <ele>26.445</ele>
        <time>2022-08-28T09:38:26Z</time>
      </trkpt>
      <trkpt lat="43.375038" lon="-4.494897">
        <ele>26.796</ele>
        <time>2022-08-28T09:38:28Z</time>
      </trkpt>
      <trkpt lat="43.375013" lon="-4.494802">
        <ele>26.812</ele>
        <time>2022-08-28T09:38:30Z</time>
      </trkpt>
      <trkpt lat="43.374990" lon="-4.494704">
        <ele>27.032</ele>
        <time>2022-08-28T09:38:32Z</time>
      </trkpt>
      <trkpt lat="43.374962" lon="-4.494597">
        <ele>26.805</ele>
        <time>2022-08-28T09:38:34Z</time>
      </trkpt>
      <trkpt lat="43.374932" lon="-4.494487">
        <ele>26.509</ele>
        <time>2022-08-28T09:38:36Z</time>
      </trkpt>
      <trkpt lat="43.374905" lon="-4.494372">
        <ele>26.352</ele>
        <time>2022-08-28T09:38:38Z</time>
      </trkpt>
      <trkpt lat="43.374888" lon="-4.494314">
        <ele>26.292</ele>
        <time>2022-08-28T09:38:39Z</time>
      </trkpt>
      <trkpt lat="43.374853" lon="-4.494191">
        <ele>25.933</ele>
        <time>2022-08-28T09:38:41Z</time>
      </trkpt>
      <trkpt lat="43.374815" lon="-4.494063">
        <ele>25.981</ele>
        <time>2022-08-28T09:38:43Z</time>
      </trkpt>
      <trkpt lat="43.374798" lon="-4.494000">
        <ele>25.966</ele>
        <time>2022-08-28T09:38:44Z</time>
      </trkpt>
      <trkpt lat="43.374783" lon="-4.493935">
        <ele>25.880</ele>
        <time>2022-08-28T09:38:45Z</time>
      </trkpt>
      <trkpt lat="43.374768" lon="-4.493868">
        <ele>25.716</ele>
        <time>2022-08-28T09:38:46Z</time>
      </trkpt>
      <trkpt lat="43.374753" lon="-4.493803">
        <ele>25.849</ele>
        <time>2022-08-28T09:38:47Z</time>
      </trkpt>
      <trkpt lat="43.374740" lon="-4.493738">
        <ele>25.870</ele>
        <time>2022-08-28T09:38:48Z</time>
      </trkpt>
      <trkpt lat="43.374715" lon="-4.493605">
        <ele>25.823</ele>
        <time>2022-08-28T09:38:50Z</time>
      </trkpt>
      <trkpt lat="43.374688" lon="-4.493473">
        <ele>25.583</ele>
        <time>2022-08-28T09:38:52Z</time>
      </trkpt>
      <trkpt lat="43.374673" lon="-4.493340">
        <ele>25.411</ele>
        <time>2022-08-28T09:38:54Z</time>
      </trkpt>
      <trkpt lat="43.374668" lon="-4.493273">
        <ele>25.609</ele>
        <time>2022-08-28T09:38:55Z</time>
      </trkpt>
      <trkpt lat="43.374661" lon="-4.493205">
        <ele>25.873</ele>
        <time>2022-08-28T09:38:56Z</time>
      </trkpt>
      <trkpt lat="43.374653" lon="-4.493140">
        <ele>26.033</ele>
        <time>2022-08-28T09:38:57Z</time>
      </trkpt>
      <trkpt lat="43.374646" lon="-4.493012">
        <ele>26.394</ele>
        <time>2022-08-28T09:38:59Z</time>
      </trkpt>
      <trkpt lat="43.374641" lon="-4.492950">
        <ele>26.352</ele>
        <time>2022-08-28T09:39:00Z</time>
      </trkpt>
      <trkpt lat="43.374639" lon="-4.492832">
        <ele>26.537</ele>
        <time>2022-08-28T09:39:02Z</time>
      </trkpt>
      <trkpt lat="43.374644" lon="-4.492724">
        <ele>27.891</ele>
        <time>2022-08-28T09:39:04Z</time>
      </trkpt>
      <trkpt lat="43.374654" lon="-4.492626">
        <ele>30.037</ele>
        <time>2022-08-28T09:39:06Z</time>
      </trkpt>
      <trkpt lat="43.374679" lon="-4.492534">
        <ele>32.470</ele>
        <time>2022-08-28T09:39:08Z</time>
      </trkpt>
      <trkpt lat="43.374704" lon="-4.492452">
        <ele>33.181</ele>
        <time>2022-08-28T09:39:10Z</time>
      </trkpt>
      <trkpt lat="43.374722" lon="-4.492385">
        <ele>32.386</ele>
        <time>2022-08-28T09:39:12Z</time>
      </trkpt>
      <trkpt lat="43.374737" lon="-4.492318">
        <ele>31.460</ele>
        <time>2022-08-28T09:39:14Z</time>
      </trkpt>
      <trkpt lat="43.374742" lon="-4.492236">
        <ele>30.326</ele>
        <time>2022-08-28T09:39:16Z</time>
      </trkpt>
      <trkpt lat="43.374752" lon="-4.492136">
        <ele>28.909</ele>
        <time>2022-08-28T09:39:18Z</time>
      </trkpt>
      <trkpt lat="43.374759" lon="-4.492053">
        <ele>27.769</ele>
        <time>2022-08-28T09:39:20Z</time>
      </trkpt>
      <trkpt lat="43.374776" lon="-4.491968">
        <ele>26.989</ele>
        <time>2022-08-28T09:39:22Z</time>
      </trkpt>
      <trkpt lat="43.374796" lon="-4.491888">
        <ele>27.270</ele>
        <time>2022-08-28T09:39:24Z</time>
      </trkpt>
      <trkpt lat="43.374814" lon="-4.491805">
        <ele>28.098</ele>
        <time>2022-08-28T09:39:26Z</time>
      </trkpt>
      <trkpt lat="43.374824" lon="-4.491727">
        <ele>28.523</ele>
        <time>2022-08-28T09:39:28Z</time>
      </trkpt>
      <trkpt lat="43.374847" lon="-4.491650">
        <ele>29.577</ele>
        <time>2022-08-28T09:39:30Z</time>
      </trkpt>
      <trkpt lat="43.374864" lon="-4.491577">
        <ele>30.163</ele>
        <time>2022-08-28T09:39:32Z</time>
      </trkpt>
      <trkpt lat="43.374881" lon="-4.491504">
        <ele>30.726</ele>
        <time>2022-08-28T09:39:34Z</time>
      </trkpt>
      <trkpt lat="43.374898" lon="-4.491434">
        <ele>31.397</ele>
        <time>2022-08-28T09:39:36Z</time>
      </trkpt>
      <trkpt lat="43.374913" lon="-4.491362">
        <ele>31.972</ele>
        <time>2022-08-28T09:39:38Z</time>
      </trkpt>
      <trkpt lat="43.374936" lon="-4.491285">
        <ele>32.713</ele>
        <time>2022-08-28T09:39:40Z</time>
      </trkpt>
      <trkpt lat="43.374951" lon="-4.491210">
        <ele>33.214</ele>
        <time>2022-08-28T09:39:42Z</time>
      </trkpt>
      <trkpt lat="43.374976" lon="-4.491133">
        <ele>34.109</ele>
        <time>2022-08-28T09:39:44Z</time>
      </trkpt>
      <trkpt lat="43.374998" lon="-4.491056">
        <ele>35.178</ele>
        <time>2022-08-28T09:39:46Z</time>
      </trkpt>
      <trkpt lat="43.375021" lon="-4.490979">
        <ele>36.018</ele>
        <time>2022-08-28T09:39:48Z</time>
      </trkpt>
      <trkpt lat="43.375041" lon="-4.490902">
        <ele>36.729</ele>
        <time>2022-08-28T09:39:50Z</time>
      </trkpt>
      <trkpt lat="43.375056" lon="-4.490825">
        <ele>37.287</ele>
        <time>2022-08-28T09:39:52Z</time>
      </trkpt>
      <trkpt lat="43.375074" lon="-4.490742">
        <ele>37.352</ele>
        <time>2022-08-28T09:39:54Z</time>
      </trkpt>
      <trkpt lat="43.375082" lon="-4.490667">
        <ele>37.216</ele>
        <time>2022-08-28T09:39:56Z</time>
      </trkpt>
      <trkpt lat="43.375094" lon="-4.490589">
        <ele>37.292</ele>
        <time>2022-08-28T09:39:58Z</time>
      </trkpt>
      <trkpt lat="43.375102" lon="-4.490517">
        <ele>37.375</ele>
        <time>2022-08-28T09:40:00Z</time>
      </trkpt>
      <trkpt lat="43.375115" lon="-4.490444">
        <ele>37.726</ele>
        <time>2022-08-28T09:40:02Z</time>
      </trkpt>
      <trkpt lat="43.375130" lon="-4.490366">
        <ele>38.259</ele>
        <time>2022-08-28T09:40:04Z</time>
      </trkpt>
      <trkpt lat="43.375137" lon="-4.490283">
        <ele>38.503</ele>
        <time>2022-08-28T09:40:06Z</time>
      </trkpt>
      <trkpt lat="43.375145" lon="-4.490205">
        <ele>38.723</ele>
        <time>2022-08-28T09:40:08Z</time>
      </trkpt>
      <trkpt lat="43.375152" lon="-4.490130">
        <ele>39.009</ele>
        <time>2022-08-28T09:40:10Z</time>
      </trkpt>
      <trkpt lat="43.375155" lon="-4.490052">
        <ele>39.276</ele>
        <time>2022-08-28T09:40:12Z</time>
      </trkpt>
      <trkpt lat="43.375150" lon="-4.489972">
        <ele>39.376</ele>
        <time>2022-08-28T09:40:14Z</time>
      </trkpt>
      <trkpt lat="43.375152" lon="-4.489892">
        <ele>39.717</ele>
        <time>2022-08-28T09:40:16Z</time>
      </trkpt>
      <trkpt lat="43.375164" lon="-4.489819">
        <ele>40.295</ele>
        <time>2022-08-28T09:40:18Z</time>
      </trkpt>
      <trkpt lat="43.375164" lon="-4.489742">
        <ele>40.530</ele>
        <time>2022-08-28T09:40:20Z</time>
      </trkpt>
      <trkpt lat="43.375166" lon="-4.489660">
        <ele>40.914</ele>
        <time>2022-08-28T09:40:22Z</time>
      </trkpt>
      <trkpt lat="43.375166" lon="-4.489572">
        <ele>41.580</ele>
        <time>2022-08-28T09:40:24Z</time>
      </trkpt>
      <trkpt lat="43.375166" lon="-4.489482">
        <ele>42.073</ele>
        <time>2022-08-28T09:40:26Z</time>
      </trkpt>
      <trkpt lat="43.375156" lon="-4.489385">
        <ele>42.384</ele>
        <time>2022-08-28T09:40:28Z</time>
      </trkpt>
      <trkpt lat="43.375146" lon="-4.489293">
        <ele>42.685</ele>
        <time>2022-08-28T09:40:30Z</time>
      </trkpt>
      <trkpt lat="43.375133" lon="-4.489206">
        <ele>42.889</ele>
        <time>2022-08-28T09:40:32Z</time>
      </trkpt>
      <trkpt lat="43.375121" lon="-4.489123">
        <ele>43.017</ele>
        <time>2022-08-28T09:40:34Z</time>
      </trkpt>
      <trkpt lat="43.375108" lon="-4.489040">
        <ele>43.209</ele>
        <time>2022-08-28T09:40:36Z</time>
      </trkpt>
      <trkpt lat="43.375098" lon="-4.488953">
        <ele>43.529</ele>
        <time>2022-08-28T09:40:38Z</time>
      </trkpt>
      <trkpt lat="43.375083" lon="-4.488866">
        <ele>43.719</ele>
        <time>2022-08-28T09:40:40Z</time>
      </trkpt>
      <trkpt lat="43.375061" lon="-4.488781">
        <ele>43.760</ele>
        <time>2022-08-28T09:40:42Z</time>
      </trkpt>
      <trkpt lat="43.375048" lon="-4.488703">
        <ele>43.988</ele>
        <time>2022-08-28T09:40:44Z</time>
      </trkpt>
      <trkpt lat="43.375036" lon="-4.488621">
        <ele>44.113</ele>
        <time>2022-08-28T09:40:46Z</time>
      </trkpt>
      <trkpt lat="43.375021" lon="-4.488544">
        <ele>44.697</ele>
        <time>2022-08-28T09:40:48Z</time>
      </trkpt>
      <trkpt lat="43.375013" lon="-4.488469">
        <ele>45.153</ele>
        <time>2022-08-28T09:40:50Z</time>
      </trkpt>
      <trkpt lat="43.375005" lon="-4.488397">
        <ele>45.616</ele>
        <time>2022-08-28T09:40:52Z</time>
      </trkpt>
      <trkpt lat="43.375002" lon="-4.488324">
        <ele>46.097</ele>
        <time>2022-08-28T09:40:54Z</time>
      </trkpt>
      <trkpt lat="43.374995" lon="-4.488246">
        <ele>46.328</ele>
        <time>2022-08-28T09:40:56Z</time>
      </trkpt>
      <trkpt lat="43.374987" lon="-4.488171">
        <ele>46.589</ele>
        <time>2022-08-28T09:40:58Z</time>
      </trkpt>
      <trkpt lat="43.374975" lon="-4.488093">
        <ele>46.817</ele>
        <time>2022-08-28T09:41:00Z</time>
      </trkpt>
      <trkpt lat="43.374962" lon="-4.488011">
        <ele>47.009</ele>
        <time>2022-08-28T09:41:02Z</time>
      </trkpt>
      <trkpt lat="43.374952" lon="-4.487938">
        <ele>47.263</ele>
        <time>2022-08-28T09:41:04Z</time>
      </trkpt>
      <trkpt lat="43.374947" lon="-4.487861">
        <ele>47.553</ele>
        <time>2022-08-28T09:41:06Z</time>
      </trkpt>
      <trkpt lat="43.374940" lon="-4.487781">
        <ele>47.884</ele>
        <time>2022-08-28T09:41:08Z</time>
      </trkpt>
      <trkpt lat="43.374940" lon="-4.487694">
        <ele>47.882</ele>
        <time>2022-08-28T09:41:10Z</time>
      </trkpt>
      <trkpt lat="43.374942" lon="-4.487611">
        <ele>47.877</ele>
        <time>2022-08-28T09:41:12Z</time>
      </trkpt>
      <trkpt lat="43.374945" lon="-4.487528">
        <ele>47.811</ele>
        <time>2022-08-28T09:41:14Z</time>
      </trkpt>
      <trkpt lat="43.374955" lon="-4.487443">
        <ele>48.027</ele>
        <time>2022-08-28T09:41:16Z</time>
      </trkpt>
      <trkpt lat="43.374968" lon="-4.487355">
        <ele>48.490</ele>
        <time>2022-08-28T09:41:18Z</time>
      </trkpt>
      <trkpt lat="43.374985" lon="-4.487258">
        <ele>48.871</ele>
        <time>2022-08-28T09:41:20Z</time>
      </trkpt>
      <trkpt lat="43.375007" lon="-4.487155">
        <ele>49.049</ele>
        <time>2022-08-28T09:41:22Z</time>
      </trkpt>
      <trkpt lat="43.375034" lon="-4.487047">
        <ele>48.902</ele>
        <time>2022-08-28T09:41:24Z</time>
      </trkpt>
      <trkpt lat="43.375062" lon="-4.486935">
        <ele>48.822</ele>
        <time>2022-08-28T09:41:26Z</time>
      </trkpt>
      <trkpt lat="43.375087" lon="-4.486820">
        <ele>48.709</ele>
        <time>2022-08-28T09:41:28Z</time>
      </trkpt>
      <trkpt lat="43.375110" lon="-4.486700">
        <ele>48.675</ele>
        <time>2022-08-28T09:41:30Z</time>
      </trkpt>
      <trkpt lat="43.375127" lon="-4.486638">
        <ele>48.445</ele>
        <time>2022-08-28T09:41:31Z</time>
      </trkpt>
      <trkpt lat="43.375160" lon="-4.486510">
        <ele>47.916</ele>
        <time>2022-08-28T09:41:33Z</time>
      </trkpt>
      <trkpt lat="43.375178" lon="-4.486445">
        <ele>47.654</ele>
        <time>2022-08-28T09:41:34Z</time>
      </trkpt>
      <trkpt lat="43.375216" lon="-4.486312">
        <ele>47.299</ele>
        <time>2022-08-28T09:41:36Z</time>
      </trkpt>
      <trkpt lat="43.375254" lon="-4.486174">
        <ele>47.013</ele>
        <time>2022-08-28T09:41:38Z</time>
      </trkpt>
      <trkpt lat="43.375269" lon="-4.486104">
        <ele>47.089</ele>
        <time>2022-08-28T09:41:39Z</time>
      </trkpt>
      <trkpt lat="43.375299" lon="-4.485956">
        <ele>46.332</ele>
        <time>2022-08-28T09:41:41Z</time>
      </trkpt>
      <trkpt lat="43.375337" lon="-4.485804">
        <ele>45.773</ele>
        <time>2022-08-28T09:41:43Z</time>
      </trkpt>
      <trkpt lat="43.375357" lon="-4.485722">
        <ele>45.368</ele>
        <time>2022-08-28T09:41:44Z</time>
      </trkpt>
      <trkpt lat="43.375402" lon="-4.485555">
        <ele>44.642</ele>
        <time>2022-08-28T09:41:46Z</time>
      </trkpt>
      <trkpt lat="43.375427" lon="-4.485468">
        <ele>44.526</ele>
        <time>2022-08-28T09:41:47Z</time>
      </trkpt>
      <trkpt lat="43.375452" lon="-4.485378">
        <ele>44.409</ele>
        <time>2022-08-28T09:41:48Z</time>
      </trkpt>
      <trkpt lat="43.375490" lon="-4.485196">
        <ele>44.057</ele>
        <time>2022-08-28T09:41:50Z</time>
      </trkpt>
      <trkpt lat="43.375507" lon="-4.485098">
        <ele>43.697</ele>
        <time>2022-08-28T09:41:51Z</time>
      </trkpt>
      <trkpt lat="43.375555" lon="-4.484906">
        <ele>43.078</ele>
        <time>2022-08-28T09:41:53Z</time>
      </trkpt>
      <trkpt lat="43.375587" lon="-4.484701">
        <ele>42.666</ele>
        <time>2022-08-28T09:41:55Z</time>
      </trkpt>
      <trkpt lat="43.375605" lon="-4.484601">
        <ele>42.131</ele>
        <time>2022-08-28T09:41:56Z</time>
      </trkpt>
      <trkpt lat="43.375647" lon="-4.484401">
        <ele>41.585</ele>
        <time>2022-08-28T09:41:58Z</time>
      </trkpt>
      <trkpt lat="43.375687" lon="-4.484204">
        <ele>41.981</ele>
        <time>2022-08-28T09:42:00Z</time>
      </trkpt>
      <trkpt lat="43.375724" lon="-4.484004">
        <ele>41.474</ele>
        <time>2022-08-28T09:42:02Z</time>
      </trkpt>
      <trkpt lat="43.375744" lon="-4.483902">
        <ele>41.055</ele>
        <time>2022-08-28T09:42:03Z</time>
      </trkpt>
      <trkpt lat="43.375786" lon="-4.483699">
        <ele>40.689</ele>
        <time>2022-08-28T09:42:05Z</time>
      </trkpt>
      <trkpt lat="43.375808" lon="-4.483594">
        <ele>40.306</ele>
        <time>2022-08-28T09:42:06Z</time>
      </trkpt>
      <trkpt lat="43.375856" lon="-4.483376">
        <ele>38.526</ele>
        <time>2022-08-28T09:42:08Z</time>
      </trkpt>
      <trkpt lat="43.375908" lon="-4.483156">
        <ele>37.209</ele>
        <time>2022-08-28T09:42:10Z</time>
      </trkpt>
      <trkpt lat="43.375966" lon="-4.482936">
        <ele>37.039</ele>
        <time>2022-08-28T09:42:12Z</time>
      </trkpt>
      <trkpt lat="43.375998" lon="-4.482824">
        <ele>37.149</ele>
        <time>2022-08-28T09:42:13Z</time>
      </trkpt>
      <trkpt lat="43.376060" lon="-4.482599">
        <ele>36.190</ele>
        <time>2022-08-28T09:42:15Z</time>
      </trkpt>
      <trkpt lat="43.376087" lon="-4.482481">
        <ele>35.678</ele>
        <time>2022-08-28T09:42:16Z</time>
      </trkpt>
      <trkpt lat="43.376114" lon="-4.482361">
        <ele>35.553</ele>
        <time>2022-08-28T09:42:17Z</time>
      </trkpt>
      <trkpt lat="43.376154" lon="-4.482114">
        <ele>35.057</ele>
        <time>2022-08-28T09:42:19Z</time>
      </trkpt>
      <trkpt lat="43.376167" lon="-4.481859">
        <ele>33.653</ele>
        <time>2022-08-28T09:42:21Z</time>
      </trkpt>
      <trkpt lat="43.376162" lon="-4.481726">
        <ele>33.056</ele>
        <time>2022-08-28T09:42:22Z</time>
      </trkpt>
      <trkpt lat="43.376149" lon="-4.481594">
        <ele>32.027</ele>
        <time>2022-08-28T09:42:23Z</time>
      </trkpt>
      <trkpt lat="43.376066" lon="-4.481337">
        <ele>30.154</ele>
        <time>2022-08-28T09:42:25Z</time>
      </trkpt>
      <trkpt lat="43.375949" lon="-4.481112">
        <ele>29.056</ele>
        <time>2022-08-28T09:42:27Z</time>
      </trkpt>
      <trkpt lat="43.375877" lon="-4.481015">
        <ele>28.011</ele>
        <time>2022-08-28T09:42:28Z</time>
      </trkpt>
      <trkpt lat="43.375792" lon="-4.480928">
        <ele>27.109</ele>
        <time>2022-08-28T09:42:29Z</time>
      </trkpt>
      <trkpt lat="43.375607" lon="-4.480790">
        <ele>25.576</ele>
        <time>2022-08-28T09:42:31Z</time>
      </trkpt>
      <trkpt lat="43.375505" lon="-4.480737">
        <ele>25.146</ele>
        <time>2022-08-28T09:42:32Z</time>
      </trkpt>
      <trkpt lat="43.375402" lon="-4.480692">
        <ele>24.777</ele>
        <time>2022-08-28T09:42:33Z</time>
      </trkpt>
      <trkpt lat="43.375184" lon="-4.480600">
        <ele>22.785</ele>
        <time>2022-08-28T09:42:35Z</time>
      </trkpt>
      <trkpt lat="43.375074" lon="-4.480555">
        <ele>21.320</ele>
        <time>2022-08-28T09:42:36Z</time>
      </trkpt>
      <trkpt lat="43.374854" lon="-4.480458">
        <ele>20.124</ele>
        <time>2022-08-28T09:42:38Z</time>
      </trkpt>
      <trkpt lat="43.374746" lon="-4.480415">
        <ele>19.990</ele>
        <time>2022-08-28T09:42:39Z</time>
      </trkpt>
      <trkpt lat="43.374534" lon="-4.480327">
        <ele>19.263</ele>
        <time>2022-08-28T09:42:41Z</time>
      </trkpt>
      <trkpt lat="43.374329" lon="-4.480242">
        <ele>18.564</ele>
        <time>2022-08-28T09:42:43Z</time>
      </trkpt>
      <trkpt lat="43.374229" lon="-4.480197">
        <ele>18.467</ele>
        <time>2022-08-28T09:42:44Z</time>
      </trkpt>
      <trkpt lat="43.374031" lon="-4.480105">
        <ele>17.781</ele>
        <time>2022-08-28T09:42:46Z</time>
      </trkpt>
      <trkpt lat="43.373931" lon="-4.480062">
        <ele>17.019</ele>
        <time>2022-08-28T09:42:47Z</time>
      </trkpt>
      <trkpt lat="43.373738" lon="-4.479952">
        <ele>16.609</ele>
        <time>2022-08-28T09:42:49Z</time>
      </trkpt>
      <trkpt lat="43.373560" lon="-4.479830">
        <ele>16.477</ele>
        <time>2022-08-28T09:42:51Z</time>
      </trkpt>
      <trkpt lat="43.373473" lon="-4.479763">
        <ele>15.727</ele>
        <time>2022-08-28T09:42:52Z</time>
      </trkpt>
      <trkpt lat="43.373386" lon="-4.479696">
        <ele>14.868</ele>
        <time>2022-08-28T09:42:53Z</time>
      </trkpt>
      <trkpt lat="43.373223" lon="-4.479536">
        <ele>12.586</ele>
        <time>2022-08-28T09:42:55Z</time>
      </trkpt>
      <trkpt lat="43.373145" lon="-4.479439">
        <ele>11.021</ele>
        <time>2022-08-28T09:42:56Z</time>
      </trkpt>
      <trkpt lat="43.373000" lon="-4.479246">
        <ele>9.555</ele>
        <time>2022-08-28T09:42:58Z</time>
      </trkpt>
      <trkpt lat="43.372873" lon="-4.479046">
        <ele>7.111</ele>
        <time>2022-08-28T09:43:00Z</time>
      </trkpt>
      <trkpt lat="43.372818" lon="-4.478938">
        <ele>6.864</ele>
        <time>2022-08-28T09:43:01Z</time>
      </trkpt>
      <trkpt lat="43.372763" lon="-4.478830">
        <ele>6.845</ele>
        <time>2022-08-28T09:43:02Z</time>
      </trkpt>
      <trkpt lat="43.372653" lon="-4.478623">
        <ele>6.132</ele>
        <time>2022-08-28T09:43:04Z</time>
      </trkpt>
      <trkpt lat="43.372600" lon="-4.478520">
        <ele>5.892</ele>
        <time>2022-08-28T09:43:05Z</time>
      </trkpt>
      <trkpt lat="43.372497" lon="-4.478315">
        <ele>6.911</ele>
        <time>2022-08-28T09:43:07Z</time>
      </trkpt>
      <trkpt lat="43.372449" lon="-4.478220">
        <ele>6.009</ele>
        <time>2022-08-28T09:43:08Z</time>
      </trkpt>
      <trkpt lat="43.372399" lon="-4.478127">
        <ele>5.334</ele>
        <time>2022-08-28T09:43:09Z</time>
      </trkpt>
      <trkpt lat="43.372307" lon="-4.477945">
        <ele>5.224</ele>
        <time>2022-08-28T09:43:11Z</time>
      </trkpt>
      <trkpt lat="43.372262" lon="-4.477855">
        <ele>5.995</ele>
        <time>2022-08-28T09:43:12Z</time>
      </trkpt>
      <trkpt lat="43.372172" lon="-4.477678">
        <ele>6.013</ele>
        <time>2022-08-28T09:43:14Z</time>
      </trkpt>
      <trkpt lat="43.372125" lon="-4.477591">
        <ele>5.478</ele>
        <time>2022-08-28T09:43:15Z</time>
      </trkpt>
      <trkpt lat="43.372078" lon="-4.477506">
        <ele>5.012</ele>
        <time>2022-08-28T09:43:16Z</time>
      </trkpt>
      <trkpt lat="43.371993" lon="-4.477336">
        <ele>5.628</ele>
        <time>2022-08-28T09:43:18Z</time>
      </trkpt>
      <trkpt lat="43.371918" lon="-4.477174">
        <ele>6.191</ele>
        <time>2022-08-28T09:43:20Z</time>
      </trkpt>
      <trkpt lat="43.371846" lon="-4.477009">
        <ele>4.262</ele>
        <time>2022-08-28T09:43:22Z</time>
      </trkpt>
      <trkpt lat="43.371778" lon="-4.476849">
        <ele>2.625</ele>
        <time>2022-08-28T09:43:24Z</time>
      </trkpt>
      <trkpt lat="43.371721" lon="-4.476687">
        <ele>1.326</ele>
        <time>2022-08-28T09:43:26Z</time>
      </trkpt>
      <trkpt lat="43.371698" lon="-4.476605">
        <ele>1.108</ele>
        <time>2022-08-28T09:43:27Z</time>
      </trkpt>
      <trkpt lat="43.371651" lon="-4.476447">
        <ele>1.109</ele>
        <time>2022-08-28T09:43:29Z</time>
      </trkpt>
      <trkpt lat="43.371631" lon="-4.476365">
        <ele>1.553</ele>
        <time>2022-08-28T09:43:30Z</time>
      </trkpt>
      <trkpt lat="43.371613" lon="-4.476287">
        <ele>2.363</ele>
        <time>2022-08-28T09:43:31Z</time>
      </trkpt>
      <trkpt lat="43.371576" lon="-4.476122">
        <ele>4.224</ele>
        <time>2022-08-28T09:43:33Z</time>
      </trkpt>
      <trkpt lat="43.371561" lon="-4.476040">
        <ele>5.322</ele>
        <time>2022-08-28T09:43:34Z</time>
      </trkpt>
      <trkpt lat="43.371536" lon="-4.475867">
        <ele>8.297</ele>
        <time>2022-08-28T09:43:36Z</time>
      </trkpt>
      <trkpt lat="43.371524" lon="-4.475782">
        <ele>9.051</ele>
        <time>2022-08-28T09:43:37Z</time>
      </trkpt>
      <trkpt lat="43.371507" lon="-4.475697">
        <ele>9.487</ele>
        <time>2022-08-28T09:43:38Z</time>
      </trkpt>
      <trkpt lat="43.371484" lon="-4.475525">
        <ele>9.830</ele>
        <time>2022-08-28T09:43:40Z</time>
      </trkpt>
      <trkpt lat="43.371469" lon="-4.475347">
        <ele>9.771</ele>
        <time>2022-08-28T09:43:42Z</time>
      </trkpt>
      <trkpt lat="43.371466" lon="-4.475255">
        <ele>9.574</ele>
        <time>2022-08-28T09:43:43Z</time>
      </trkpt>
      <trkpt lat="43.371454" lon="-4.475072">
        <ele>9.956</ele>
        <time>2022-08-28T09:43:45Z</time>
      </trkpt>
      <trkpt lat="43.371442" lon="-4.474892">
        <ele>9.721</ele>
        <time>2022-08-28T09:43:47Z</time>
      </trkpt>
      <trkpt lat="43.371427" lon="-4.474712">
        <ele>9.209</ele>
        <time>2022-08-28T09:43:49Z</time>
      </trkpt>
      <trkpt lat="43.371415" lon="-4.474624">
        <ele>9.548</ele>
        <time>2022-08-28T09:43:50Z</time>
      </trkpt>
      <trkpt lat="43.371397" lon="-4.474447">
        <ele>9.978</ele>
        <time>2022-08-28T09:43:52Z</time>
      </trkpt>
      <trkpt lat="43.371384" lon="-4.474270">
        <ele>9.759</ele>
        <time>2022-08-28T09:43:54Z</time>
      </trkpt>
      <trkpt lat="43.371376" lon="-4.474182">
        <ele>9.897</ele>
        <time>2022-08-28T09:43:55Z</time>
      </trkpt>
      <trkpt lat="43.371361" lon="-4.474002">
        <ele>10.492</ele>
        <time>2022-08-28T09:43:57Z</time>
      </trkpt>
      <trkpt lat="43.371348" lon="-4.473824">
        <ele>10.666</ele>
        <time>2022-08-28T09:43:59Z</time>
      </trkpt>
      <trkpt lat="43.371343" lon="-4.473737">
        <ele>10.512</ele>
        <time>2022-08-28T09:44:00Z</time>
      </trkpt>
      <trkpt lat="43.371326" lon="-4.473572">
        <ele>10.635</ele>
        <time>2022-08-28T09:44:02Z</time>
      </trkpt>
      <trkpt lat="43.371316" lon="-4.473404">
        <ele>10.476</ele>
        <time>2022-08-28T09:44:04Z</time>
      </trkpt>
      <trkpt lat="43.371309" lon="-4.473227">
        <ele>10.669</ele>
        <time>2022-08-28T09:44:06Z</time>
      </trkpt>
      <trkpt lat="43.371304" lon="-4.473049">
        <ele>11.004</ele>
        <time>2022-08-28T09:44:08Z</time>
      </trkpt>
      <trkpt lat="43.371307" lon="-4.472881">
        <ele>11.024</ele>
        <time>2022-08-28T09:44:10Z</time>
      </trkpt>
      <trkpt lat="43.371310" lon="-4.472798">
        <ele>11.009</ele>
        <time>2022-08-28T09:44:11Z</time>
      </trkpt>
      <trkpt lat="43.371313" lon="-4.472718">
        <ele>11.097</ele>
        <time>2022-08-28T09:44:12Z</time>
      </trkpt>
      <trkpt lat="43.371330" lon="-4.472565">
        <ele>10.747</ele>
        <time>2022-08-28T09:44:14Z</time>
      </trkpt>
      <trkpt lat="43.371352" lon="-4.472412">
        <ele>10.598</ele>
        <time>2022-08-28T09:44:16Z</time>
      </trkpt>
      <trkpt lat="43.371365" lon="-4.472339">
        <ele>10.486</ele>
        <time>2022-08-28T09:44:17Z</time>
      </trkpt>
      <trkpt lat="43.371393" lon="-4.472194">
        <ele>10.011</ele>
        <time>2022-08-28T09:44:19Z</time>
      </trkpt>
      <trkpt lat="43.371433" lon="-4.472054">
        <ele>9.825</ele>
        <time>2022-08-28T09:44:21Z</time>
      </trkpt>
      <trkpt lat="43.371455" lon="-4.471986">
        <ele>9.711</ele>
        <time>2022-08-28T09:44:22Z</time>
      </trkpt>
      <trkpt lat="43.371477" lon="-4.471918">
        <ele>9.684</ele>
        <time>2022-08-28T09:44:23Z</time>
      </trkpt>
      <trkpt lat="43.371500" lon="-4.471848">
        <ele>9.725</ele>
        <time>2022-08-28T09:44:24Z</time>
      </trkpt>
      <trkpt lat="43.371523" lon="-4.471780">
        <ele>9.841</ele>
        <time>2022-08-28T09:44:25Z</time>
      </trkpt>
      <trkpt lat="43.371545" lon="-4.471713">
        <ele>9.981</ele>
        <time>2022-08-28T09:44:26Z</time>
      </trkpt>
      <trkpt lat="43.371587" lon="-4.471578">
        <ele>9.809</ele>
        <time>2022-08-28T09:44:28Z</time>
      </trkpt>
      <trkpt lat="43.371629" lon="-4.471445">
        <ele>9.509</ele>
        <time>2022-08-28T09:44:30Z</time>
      </trkpt>
      <trkpt lat="43.371651" lon="-4.471378">
        <ele>9.475</ele>
        <time>2022-08-28T09:44:31Z</time>
      </trkpt>
      <trkpt lat="43.371689" lon="-4.471251">
        <ele>9.725</ele>
        <time>2022-08-28T09:44:33Z</time>
      </trkpt>
      <trkpt lat="43.371709" lon="-4.471189">
        <ele>9.826</ele>
        <time>2022-08-28T09:44:34Z</time>
      </trkpt>
      <trkpt lat="43.371746" lon="-4.471061">
        <ele>10.074</ele>
        <time>2022-08-28T09:44:36Z</time>
      </trkpt>
      <trkpt lat="43.371758" lon="-4.470998">
        <ele>10.129</ele>
        <time>2022-08-28T09:44:37Z</time>
      </trkpt>
      <trkpt lat="43.371800" lon="-4.470873">
        <ele>9.943</ele>
        <time>2022-08-28T09:44:39Z</time>
      </trkpt>
      <trkpt lat="43.371818" lon="-4.470811">
        <ele>9.989</ele>
        <time>2022-08-28T09:44:40Z</time>
      </trkpt>
      <trkpt lat="43.371851" lon="-4.470686">
        <ele>9.522</ele>
        <time>2022-08-28T09:44:42Z</time>
      </trkpt>
      <trkpt lat="43.371868" lon="-4.470624">
        <ele>9.343</ele>
        <time>2022-08-28T09:44:43Z</time>
      </trkpt>
      <trkpt lat="43.371901" lon="-4.470497">
        <ele>8.986</ele>
        <time>2022-08-28T09:44:45Z</time>
      </trkpt>
      <trkpt lat="43.371919" lon="-4.470432">
        <ele>8.860</ele>
        <time>2022-08-28T09:44:46Z</time>
      </trkpt>
      <trkpt lat="43.371949" lon="-4.470302">
        <ele>8.826</ele>
        <time>2022-08-28T09:44:48Z</time>
      </trkpt>
      <trkpt lat="43.371981" lon="-4.470174">
        <ele>8.009</ele>
        <time>2022-08-28T09:44:50Z</time>
      </trkpt>
      <trkpt lat="43.371998" lon="-4.470112">
        <ele>7.719</ele>
        <time>2022-08-28T09:44:51Z</time>
      </trkpt>
      <trkpt lat="43.372013" lon="-4.470050">
        <ele>7.559</ele>
        <time>2022-08-28T09:44:52Z</time>
      </trkpt>
      <trkpt lat="43.372043" lon="-4.469927">
        <ele>7.830</ele>
        <time>2022-08-28T09:44:54Z</time>
      </trkpt>
      <trkpt lat="43.372058" lon="-4.469867">
        <ele>8.118</ele>
        <time>2022-08-28T09:44:55Z</time>
      </trkpt>
      <trkpt lat="43.372076" lon="-4.469805">
        <ele>8.573</ele>
        <time>2022-08-28T09:44:56Z</time>
      </trkpt>
      <trkpt lat="43.372108" lon="-4.469688">
        <ele>9.227</ele>
        <time>2022-08-28T09:44:58Z</time>
      </trkpt>
      <trkpt lat="43.372141" lon="-4.469576">
        <ele>10.253</ele>
        <time>2022-08-28T09:45:00Z</time>
      </trkpt>
      <trkpt lat="43.372174" lon="-4.469469">
        <ele>11.186</ele>
        <time>2022-08-28T09:45:02Z</time>
      </trkpt>
      <trkpt lat="43.372204" lon="-4.469362">
        <ele>11.467</ele>
        <time>2022-08-28T09:45:04Z</time>
      </trkpt>
      <trkpt lat="43.372237" lon="-4.469255">
        <ele>11.463</ele>
        <time>2022-08-28T09:45:06Z</time>
      </trkpt>
      <trkpt lat="43.372267" lon="-4.469148">
        <ele>11.244</ele>
        <time>2022-08-28T09:45:08Z</time>
      </trkpt>
      <trkpt lat="43.372297" lon="-4.469041">
        <ele>10.918</ele>
        <time>2022-08-28T09:45:10Z</time>
      </trkpt>
      <trkpt lat="43.372327" lon="-4.468938">
        <ele>10.709</ele>
        <time>2022-08-28T09:45:12Z</time>
      </trkpt>
      <trkpt lat="43.372355" lon="-4.468833">
        <ele>10.887</ele>
        <time>2022-08-28T09:45:14Z</time>
      </trkpt>
      <trkpt lat="43.372382" lon="-4.468723">
        <ele>10.927</ele>
        <time>2022-08-28T09:45:16Z</time>
      </trkpt>
      <trkpt lat="43.372412" lon="-4.468611">
        <ele>11.058</ele>
        <time>2022-08-28T09:45:18Z</time>
      </trkpt>
      <trkpt lat="43.372435" lon="-4.468498">
        <ele>11.366</ele>
        <time>2022-08-28T09:45:20Z</time>
      </trkpt>
      <trkpt lat="43.372460" lon="-4.468381">
        <ele>11.871</ele>
        <time>2022-08-28T09:45:22Z</time>
      </trkpt>
      <trkpt lat="43.372478" lon="-4.468259">
        <ele>12.125</ele>
        <time>2022-08-28T09:45:24Z</time>
      </trkpt>
      <trkpt lat="43.372493" lon="-4.468141">
        <ele>12.031</ele>
        <time>2022-08-28T09:45:26Z</time>
      </trkpt>
      <trkpt lat="43.372500" lon="-4.468079">
        <ele>12.054</ele>
        <time>2022-08-28T09:45:27Z</time>
      </trkpt>
      <trkpt lat="43.372515" lon="-4.467959">
        <ele>12.265</ele>
        <time>2022-08-28T09:45:29Z</time>
      </trkpt>
      <trkpt lat="43.372528" lon="-4.467836">
        <ele>12.671</ele>
        <time>2022-08-28T09:45:31Z</time>
      </trkpt>
      <trkpt lat="43.372543" lon="-4.467716">
        <ele>12.741</ele>
        <time>2022-08-28T09:45:33Z</time>
      </trkpt>
      <trkpt lat="43.372555" lon="-4.467593">
        <ele>12.715</ele>
        <time>2022-08-28T09:45:35Z</time>
      </trkpt>
      <trkpt lat="43.372563" lon="-4.467530">
        <ele>12.709</ele>
        <time>2022-08-28T09:45:36Z</time>
      </trkpt>
      <trkpt lat="43.372566" lon="-4.467465">
        <ele>12.828</ele>
        <time>2022-08-28T09:45:37Z</time>
      </trkpt>
      <trkpt lat="43.372579" lon="-4.467343">
        <ele>12.998</ele>
        <time>2022-08-28T09:45:39Z</time>
      </trkpt>
      <trkpt lat="43.372586" lon="-4.467280">
        <ele>12.969</ele>
        <time>2022-08-28T09:45:40Z</time>
      </trkpt>
      <trkpt lat="43.372596" lon="-4.467215">
        <ele>13.067</ele>
        <time>2022-08-28T09:45:41Z</time>
      </trkpt>
      <trkpt lat="43.372606" lon="-4.467083">
        <ele>13.092</ele>
        <time>2022-08-28T09:45:43Z</time>
      </trkpt>
      <trkpt lat="43.372621" lon="-4.466956">
        <ele>13.026</ele>
        <time>2022-08-28T09:45:45Z</time>
      </trkpt>
      <trkpt lat="43.372633" lon="-4.466831">
        <ele>13.412</ele>
        <time>2022-08-28T09:45:47Z</time>
      </trkpt>
      <trkpt lat="43.372653" lon="-4.466708">
        <ele>13.955</ele>
        <time>2022-08-28T09:45:49Z</time>
      </trkpt>
      <trkpt lat="43.372661" lon="-4.466576">
        <ele>14.066</ele>
        <time>2022-08-28T09:45:51Z</time>
      </trkpt>
      <trkpt lat="43.372674" lon="-4.466448">
        <ele>14.039</ele>
        <time>2022-08-28T09:45:53Z</time>
      </trkpt>
      <trkpt lat="43.372687" lon="-4.466325">
        <ele>14.101</ele>
        <time>2022-08-28T09:45:55Z</time>
      </trkpt>
      <trkpt lat="43.372692" lon="-4.466262">
        <ele>14.121</ele>
        <time>2022-08-28T09:45:56Z</time>
      </trkpt>
      <trkpt lat="43.372694" lon="-4.466199">
        <ele>14.209</ele>
        <time>2022-08-28T09:45:57Z</time>
      </trkpt>
      <trkpt lat="43.372701" lon="-4.466062">
        <ele>14.314</ele>
        <time>2022-08-28T09:45:59Z</time>
      </trkpt>
      <trkpt lat="43.372711" lon="-4.465920">
        <ele>14.234</ele>
        <time>2022-08-28T09:46:01Z</time>
      </trkpt>
      <trkpt lat="43.372718" lon="-4.465847">
        <ele>14.255</ele>
        <time>2022-08-28T09:46:02Z</time>
      </trkpt>
      <trkpt lat="43.372736" lon="-4.465707">
        <ele>14.283</ele>
        <time>2022-08-28T09:46:04Z</time>
      </trkpt>
      <trkpt lat="43.372754" lon="-4.465564">
        <ele>14.178</ele>
        <time>2022-08-28T09:46:06Z</time>
      </trkpt>
      <trkpt lat="43.372759" lon="-4.465491">
        <ele>14.162</ele>
        <time>2022-08-28T09:46:07Z</time>
      </trkpt>
      <trkpt lat="43.372769" lon="-4.465338">
        <ele>14.058</ele>
        <time>2022-08-28T09:46:09Z</time>
      </trkpt>
      <trkpt lat="43.372784" lon="-4.465188">
        <ele>14.031</ele>
        <time>2022-08-28T09:46:11Z</time>
      </trkpt>
      <trkpt lat="43.372804" lon="-4.465035">
        <ele>13.952</ele>
        <time>2022-08-28T09:46:13Z</time>
      </trkpt>
      <trkpt lat="43.372819" lon="-4.464888">
        <ele>13.978</ele>
        <time>2022-08-28T09:46:15Z</time>
      </trkpt>
      <trkpt lat="43.372829" lon="-4.464743">
        <ele>14.033</ele>
        <time>2022-08-28T09:46:17Z</time>
      </trkpt>
      <trkpt lat="43.372836" lon="-4.464598">
        <ele>14.126</ele>
        <time>2022-08-28T09:46:19Z</time>
      </trkpt>
      <trkpt lat="43.372838" lon="-4.464523">
        <ele>14.209</ele>
        <time>2022-08-28T09:46:20Z</time>
      </trkpt>
      <trkpt lat="43.372830" lon="-4.464378">
        <ele>14.348</ele>
        <time>2022-08-28T09:46:22Z</time>
      </trkpt>
      <trkpt lat="43.372802" lon="-4.464238">
        <ele>14.748</ele>
        <time>2022-08-28T09:46:24Z</time>
      </trkpt>
      <trkpt lat="43.372779" lon="-4.464176">
        <ele>15.029</ele>
        <time>2022-08-28T09:46:25Z</time>
      </trkpt>
      <trkpt lat="43.372757" lon="-4.464114">
        <ele>15.037</ele>
        <time>2022-08-28T09:46:26Z</time>
      </trkpt>
      <trkpt lat="43.372737" lon="-4.464054">
        <ele>15.052</ele>
        <time>2022-08-28T09:46:27Z</time>
      </trkpt>
      <trkpt lat="43.372717" lon="-4.463932">
        <ele>15.056</ele>
        <time>2022-08-28T09:46:29Z</time>
      </trkpt>
      <trkpt lat="43.372735" lon="-4.463810">
        <ele>15.072</ele>
        <time>2022-08-28T09:46:31Z</time>
      </trkpt>
      <trkpt lat="43.372760" lon="-4.463750">
        <ele>15.065</ele>
        <time>2022-08-28T09:46:32Z</time>
      </trkpt>
      <trkpt lat="43.372793" lon="-4.463703">
        <ele>14.986</ele>
        <time>2022-08-28T09:46:33Z</time>
      </trkpt>
      <trkpt lat="43.372883" lon="-4.463630">
        <ele>14.372</ele>
        <time>2022-08-28T09:46:35Z</time>
      </trkpt>
      <trkpt lat="43.372990" lon="-4.463572">
        <ele>13.413</ele>
        <time>2022-08-28T09:46:37Z</time>
      </trkpt>
      <trkpt lat="43.373047" lon="-4.463539">
        <ele>13.114</ele>
        <time>2022-08-28T09:46:38Z</time>
      </trkpt>
      <trkpt lat="43.373157" lon="-4.463442">
        <ele>12.809</ele>
        <time>2022-08-28T09:46:40Z</time>
      </trkpt>
      <trkpt lat="43.373245" lon="-4.463305">
        <ele>12.398</ele>
        <time>2022-08-28T09:46:42Z</time>
      </trkpt>
      <trkpt lat="43.373280" lon="-4.463230">
        <ele>12.158</ele>
        <time>2022-08-28T09:46:43Z</time>
      </trkpt>
      <trkpt lat="43.373340" lon="-4.463075">
        <ele>12.089</ele>
        <time>2022-08-28T09:46:45Z</time>
      </trkpt>
      <trkpt lat="43.373368" lon="-4.462997">
        <ele>12.117</ele>
        <time>2022-08-28T09:46:46Z</time>
      </trkpt>
      <trkpt lat="43.373420" lon="-4.462837">
        <ele>12.142</ele>
        <time>2022-08-28T09:46:48Z</time>
      </trkpt>
      <trkpt lat="43.373447" lon="-4.462759">
        <ele>11.996</ele>
        <time>2022-08-28T09:46:49Z</time>
      </trkpt>
      <trkpt lat="43.373497" lon="-4.462611">
        <ele>11.422</ele>
        <time>2022-08-28T09:46:51Z</time>
      </trkpt>
      <trkpt lat="43.373549" lon="-4.462463">
        <ele>11.025</ele>
        <time>2022-08-28T09:46:53Z</time>
      </trkpt>
      <trkpt lat="43.373597" lon="-4.462313">
        <ele>11.046</ele>
        <time>2022-08-28T09:46:55Z</time>
      </trkpt>
      <trkpt lat="43.373620" lon="-4.462236">
        <ele>11.015</ele>
        <time>2022-08-28T09:46:56Z</time>
      </trkpt>
      <trkpt lat="43.373645" lon="-4.462158">
        <ele>10.965</ele>
        <time>2022-08-28T09:46:57Z</time>
      </trkpt>
      <trkpt lat="43.373698" lon="-4.462001">
        <ele>10.711</ele>
        <time>2022-08-28T09:46:59Z</time>
      </trkpt>
      <trkpt lat="43.373723" lon="-4.461923">
        <ele>10.509</ele>
        <time>2022-08-28T09:47:00Z</time>
      </trkpt>
      <trkpt lat="43.373773" lon="-4.461771">
        <ele>9.582</ele>
        <time>2022-08-28T09:47:02Z</time>
      </trkpt>
      <trkpt lat="43.373821" lon="-4.461618">
        <ele>9.052</ele>
        <time>2022-08-28T09:47:04Z</time>
      </trkpt>
      <trkpt lat="43.373844" lon="-4.461541">
        <ele>9.063</ele>
        <time>2022-08-28T09:47:05Z</time>
      </trkpt>
      <trkpt lat="43.373892" lon="-4.461389">
        <ele>9.061</ele>
        <time>2022-08-28T09:47:07Z</time>
      </trkpt>
      <trkpt lat="43.373917" lon="-4.461316">
        <ele>9.076</ele>
        <time>2022-08-28T09:47:08Z</time>
      </trkpt>
      <trkpt lat="43.373942" lon="-4.461244">
        <ele>9.020</ele>
        <time>2022-08-28T09:47:09Z</time>
      </trkpt>
      <trkpt lat="43.373995" lon="-4.461102">
        <ele>9.476</ele>
        <time>2022-08-28T09:47:11Z</time>
      </trkpt>
      <trkpt lat="43.374020" lon="-4.461034">
        <ele>9.519</ele>
        <time>2022-08-28T09:47:12Z</time>
      </trkpt>
      <trkpt lat="43.374068" lon="-4.460902">
        <ele>9.680</ele>
        <time>2022-08-28T09:47:14Z</time>
      </trkpt>
      <trkpt lat="43.374091" lon="-4.460837">
        <ele>9.768</ele>
        <time>2022-08-28T09:47:15Z</time>
      </trkpt>
      <trkpt lat="43.374131" lon="-4.460710">
        <ele>9.942</ele>
        <time>2022-08-28T09:47:17Z</time>
      </trkpt>
      <trkpt lat="43.374171" lon="-4.460590">
        <ele>10.026</ele>
        <time>2022-08-28T09:47:19Z</time>
      </trkpt>
      <trkpt lat="43.374191" lon="-4.460532">
        <ele>10.209</ele>
        <time>2022-08-28T09:47:20Z</time>
      </trkpt>
      <trkpt lat="43.374213" lon="-4.460472">
        <ele>10.417</ele>
        <time>2022-08-28T09:47:21Z</time>
      </trkpt>
      <trkpt lat="43.374235" lon="-4.460414">
        <ele>10.617</ele>
        <time>2022-08-28T09:47:22Z</time>
      </trkpt>
      <trkpt lat="43.374253" lon="-4.460357">
        <ele>10.858</ele>
        <time>2022-08-28T09:47:23Z</time>
      </trkpt>
      <trkpt lat="43.374275" lon="-4.460302">
        <ele>10.996</ele>
        <time>2022-08-28T09:47:24Z</time>
      </trkpt>
      <trkpt lat="43.374308" lon="-4.460194">
        <ele>11.271</ele>
        <time>2022-08-28T09:47:26Z</time>
      </trkpt>
      <trkpt lat="43.374345" lon="-4.460087">
        <ele>11.495</ele>
        <time>2022-08-28T09:47:28Z</time>
      </trkpt>
      <trkpt lat="43.374382" lon="-4.459985">
        <ele>11.811</ele>
        <time>2022-08-28T09:47:30Z</time>
      </trkpt>
      <trkpt lat="43.374417" lon="-4.459887">
        <ele>11.994</ele>
        <time>2022-08-28T09:47:32Z</time>
      </trkpt>
      <trkpt lat="43.374454" lon="-4.459782">
        <ele>12.025</ele>
        <time>2022-08-28T09:47:34Z</time>
      </trkpt>
      <trkpt lat="43.374489" lon="-4.459679">
        <ele>12.337</ele>
        <time>2022-08-28T09:47:36Z</time>
      </trkpt>
      <trkpt lat="43.374522" lon="-4.459574">
        <ele>12.749</ele>
        <time>2022-08-28T09:47:38Z</time>
      </trkpt>
      <trkpt lat="43.374557" lon="-4.459469">
        <ele>12.913</ele>
        <time>2022-08-28T09:47:40Z</time>
      </trkpt>
      <trkpt lat="43.374590" lon="-4.459367">
        <ele>13.109</ele>
        <time>2022-08-28T09:47:42Z</time>
      </trkpt>
      <trkpt lat="43.374625" lon="-4.459264">
        <ele>13.484</ele>
        <time>2022-08-28T09:47:44Z</time>
      </trkpt>
      <trkpt lat="43.374658" lon="-4.459167">
        <ele>13.864</ele>
        <time>2022-08-28T09:47:46Z</time>
      </trkpt>
      <trkpt lat="43.374691" lon="-4.459069">
        <ele>13.885</ele>
        <time>2022-08-28T09:47:48Z</time>
      </trkpt>
      <trkpt lat="43.374726" lon="-4.458969">
        <ele>14.073</ele>
        <time>2022-08-28T09:47:50Z</time>
      </trkpt>
      <trkpt lat="43.374763" lon="-4.458869">
        <ele>14.028</ele>
        <time>2022-08-28T09:47:52Z</time>
      </trkpt>
      <trkpt lat="43.374800" lon="-4.458772">
        <ele>14.162</ele>
        <time>2022-08-28T09:47:54Z</time>
      </trkpt>
      <trkpt lat="43.374830" lon="-4.458674">
        <ele>14.378</ele>
        <time>2022-08-28T09:47:56Z</time>
      </trkpt>
      <trkpt lat="43.374862" lon="-4.458576">
        <ele>14.521</ele>
        <time>2022-08-28T09:47:58Z</time>
      </trkpt>
      <trkpt lat="43.374895" lon="-4.458476">
        <ele>14.642</ele>
        <time>2022-08-28T09:48:00Z</time>
      </trkpt>
      <trkpt lat="43.374928" lon="-4.458373">
        <ele>14.722</ele>
        <time>2022-08-28T09:48:02Z</time>
      </trkpt>
      <trkpt lat="43.374965" lon="-4.458268">
        <ele>15.162</ele>
        <time>2022-08-28T09:48:04Z</time>
      </trkpt>
      <trkpt lat="43.375002" lon="-4.458163">
        <ele>15.608</ele>
        <time>2022-08-28T09:48:06Z</time>
      </trkpt>
      <trkpt lat="43.375035" lon="-4.458058">
        <ele>15.909</ele>
        <time>2022-08-28T09:48:08Z</time>
      </trkpt>
      <trkpt lat="43.375073" lon="-4.457953">
        <ele>15.863</ele>
        <time>2022-08-28T09:48:10Z</time>
      </trkpt>
      <trkpt lat="43.375105" lon="-4.457850">
        <ele>15.983</ele>
        <time>2022-08-28T09:48:12Z</time>
      </trkpt>
      <trkpt lat="43.375142" lon="-4.457752">
        <ele>16.194</ele>
        <time>2022-08-28T09:48:14Z</time>
      </trkpt>
      <trkpt lat="43.375179" lon="-4.457654">
        <ele>16.472</ele>
        <time>2022-08-28T09:48:16Z</time>
      </trkpt>
      <trkpt lat="43.375217" lon="-4.457556">
        <ele>16.817</ele>
        <time>2022-08-28T09:48:18Z</time>
      </trkpt>
      <trkpt lat="43.375257" lon="-4.457463">
        <ele>17.061</ele>
        <time>2022-08-28T09:48:20Z</time>
      </trkpt>
      <trkpt lat="43.375290" lon="-4.457373">
        <ele>17.077</ele>
        <time>2022-08-28T09:48:22Z</time>
      </trkpt>
      <trkpt lat="43.375328" lon="-4.457285">
        <ele>17.220</ele>
        <time>2022-08-28T09:48:24Z</time>
      </trkpt>
      <trkpt lat="43.375366" lon="-4.457198">
        <ele>17.441</ele>
        <time>2022-08-28T09:48:26Z</time>
      </trkpt>
      <trkpt lat="43.375408" lon="-4.457110">
        <ele>17.987</ele>
        <time>2022-08-28T09:48:28Z</time>
      </trkpt>
      <trkpt lat="43.375451" lon="-4.457027">
        <ele>18.342</ele>
        <time>2022-08-28T09:48:30Z</time>
      </trkpt>
      <trkpt lat="43.375494" lon="-4.456939">
        <ele>18.826</ele>
        <time>2022-08-28T09:48:32Z</time>
      </trkpt>
      <trkpt lat="43.375539" lon="-4.456854">
        <ele>19.009</ele>
        <time>2022-08-28T09:48:34Z</time>
      </trkpt>
      <trkpt lat="43.375581" lon="-4.456772">
        <ele>19.169</ele>
        <time>2022-08-28T09:48:36Z</time>
      </trkpt>
      <trkpt lat="43.375624" lon="-4.456689">
        <ele>19.259</ele>
        <time>2022-08-28T09:48:38Z</time>
      </trkpt>
      <trkpt lat="43.375667" lon="-4.456597">
        <ele>19.470</ele>
        <time>2022-08-28T09:48:40Z</time>
      </trkpt>
      <trkpt lat="43.375710" lon="-4.456507">
        <ele>19.678</ele>
        <time>2022-08-28T09:48:42Z</time>
      </trkpt>
      <trkpt lat="43.375753" lon="-4.456419">
        <ele>19.733</ele>
        <time>2022-08-28T09:48:44Z</time>
      </trkpt>
      <trkpt lat="43.375795" lon="-4.456331">
        <ele>19.927</ele>
        <time>2022-08-28T09:48:46Z</time>
      </trkpt>
      <trkpt lat="43.375838" lon="-4.456253">
        <ele>20.073</ele>
        <time>2022-08-28T09:48:48Z</time>
      </trkpt>
      <trkpt lat="43.375881" lon="-4.456175">
        <ele>20.326</ele>
        <time>2022-08-28T09:48:50Z</time>
      </trkpt>
      <trkpt lat="43.375926" lon="-4.456098">
        <ele>20.747</ele>
        <time>2022-08-28T09:48:52Z</time>
      </trkpt>
      <trkpt lat="43.375968" lon="-4.456021">
        <ele>21.067</ele>
        <time>2022-08-28T09:48:54Z</time>
      </trkpt>
      <trkpt lat="43.376013" lon="-4.455954">
        <ele>21.381</ele>
        <time>2022-08-28T09:48:56Z</time>
      </trkpt>
      <trkpt lat="43.376056" lon="-4.455889">
        <ele>21.619</ele>
        <time>2022-08-28T09:48:58Z</time>
      </trkpt>
      <trkpt lat="43.376099" lon="-4.455821">
        <ele>21.909</ele>
        <time>2022-08-28T09:49:00Z</time>
      </trkpt>
      <trkpt lat="43.376141" lon="-4.455756">
        <ele>21.977</ele>
        <time>2022-08-28T09:49:02Z</time>
      </trkpt>
      <trkpt lat="43.376184" lon="-4.455684">
        <ele>22.097</ele>
        <time>2022-08-28T09:49:04Z</time>
      </trkpt>
      <trkpt lat="43.376227" lon="-4.455612">
        <ele>22.078</ele>
        <time>2022-08-28T09:49:06Z</time>
      </trkpt>
      <trkpt lat="43.376272" lon="-4.455545">
        <ele>22.246</ele>
        <time>2022-08-28T09:49:08Z</time>
      </trkpt>
      <trkpt lat="43.376314" lon="-4.455472">
        <ele>22.561</ele>
        <time>2022-08-28T09:49:10Z</time>
      </trkpt>
      <trkpt lat="43.376356" lon="-4.455399">
        <ele>22.835</ele>
        <time>2022-08-28T09:49:12Z</time>
      </trkpt>
      <trkpt lat="43.376394" lon="-4.455322">
        <ele>23.081</ele>
        <time>2022-08-28T09:49:14Z</time>
      </trkpt>
      <trkpt lat="43.376434" lon="-4.455240">
        <ele>23.384</ele>
        <time>2022-08-28T09:49:16Z</time>
      </trkpt>
      <trkpt lat="43.376479" lon="-4.455153">
        <ele>23.695</ele>
        <time>2022-08-28T09:49:18Z</time>
      </trkpt>
      <trkpt lat="43.376522" lon="-4.455065">
        <ele>24.057</ele>
        <time>2022-08-28T09:49:20Z</time>
      </trkpt>
      <trkpt lat="43.376565" lon="-4.454978">
        <ele>24.300</ele>
        <time>2022-08-28T09:49:22Z</time>
      </trkpt>
      <trkpt lat="43.376610" lon="-4.454896">
        <ele>24.620</ele>
        <time>2022-08-28T09:49:24Z</time>
      </trkpt>
      <trkpt lat="43.376652" lon="-4.454814">
        <ele>24.909</ele>
        <time>2022-08-28T09:49:26Z</time>
      </trkpt>
      <trkpt lat="43.376695" lon="-4.454737">
        <ele>25.116</ele>
        <time>2022-08-28T09:49:28Z</time>
      </trkpt>
      <trkpt lat="43.376735" lon="-4.454660">
        <ele>25.136</ele>
        <time>2022-08-28T09:49:30Z</time>
      </trkpt>
      <trkpt lat="43.376778" lon="-4.454590">
        <ele>25.337</ele>
        <time>2022-08-28T09:49:32Z</time>
      </trkpt>
      <trkpt lat="43.376821" lon="-4.454520">
        <ele>25.615</ele>
        <time>2022-08-28T09:49:34Z</time>
      </trkpt>
      <trkpt lat="43.376863" lon="-4.454452">
        <ele>26.180</ele>
        <time>2022-08-28T09:49:36Z</time>
      </trkpt>
      <trkpt lat="43.376901" lon="-4.454382">
        <ele>26.384</ele>
        <time>2022-08-28T09:49:38Z</time>
      </trkpt>
      <trkpt lat="43.376941" lon="-4.454309">
        <ele>26.590</ele>
        <time>2022-08-28T09:49:40Z</time>
      </trkpt>
      <trkpt lat="43.376979" lon="-4.454242">
        <ele>26.513</ele>
        <time>2022-08-28T09:49:42Z</time>
      </trkpt>
      <trkpt lat="43.377016" lon="-4.454172">
        <ele>26.564</ele>
        <time>2022-08-28T09:49:44Z</time>
      </trkpt>
      <trkpt lat="43.377054" lon="-4.454102">
        <ele>26.955</ele>
        <time>2022-08-28T09:49:46Z</time>
      </trkpt>
      <trkpt lat="43.377094" lon="-4.454032">
        <ele>27.307</ele>
        <time>2022-08-28T09:49:48Z</time>
      </trkpt>
      <trkpt lat="43.377132" lon="-4.453965">
        <ele>27.817</ele>
        <time>2022-08-28T09:49:50Z</time>
      </trkpt>
      <trkpt lat="43.377170" lon="-4.453902">
        <ele>28.409</ele>
        <time>2022-08-28T09:49:52Z</time>
      </trkpt>
      <trkpt lat="43.377202" lon="-4.453840">
        <ele>28.856</ele>
        <time>2022-08-28T09:49:54Z</time>
      </trkpt>
      <trkpt lat="43.377237" lon="-4.453777">
        <ele>29.126</ele>
        <time>2022-08-28T09:49:56Z</time>
      </trkpt>
      <trkpt lat="43.377272" lon="-4.453715">
        <ele>29.517</ele>
        <time>2022-08-28T09:49:58Z</time>
      </trkpt>
      <trkpt lat="43.377305" lon="-4.453657">
        <ele>29.885</ele>
        <time>2022-08-28T09:50:00Z</time>
      </trkpt>
      <trkpt lat="43.377337" lon="-4.453599">
        <ele>30.250</ele>
        <time>2022-08-28T09:50:02Z</time>
      </trkpt>
      <trkpt lat="43.377375" lon="-4.453539">
        <ele>30.584</ele>
        <time>2022-08-28T09:50:04Z</time>
      </trkpt>
      <trkpt lat="43.377410" lon="-4.453479">
        <ele>30.980</ele>
        <time>2022-08-28T09:50:06Z</time>
      </trkpt>
      <trkpt lat="43.377447" lon="-4.453412">
        <ele>31.313</ele>
        <time>2022-08-28T09:50:08Z</time>
      </trkpt>
      <trkpt lat="43.377477" lon="-4.453344">
        <ele>31.794</ele>
        <time>2022-08-28T09:50:10Z</time>
      </trkpt>
      <trkpt lat="43.377507" lon="-4.453279">
        <ele>31.993</ele>
        <time>2022-08-28T09:50:12Z</time>
      </trkpt>
      <trkpt lat="43.377537" lon="-4.453221">
        <ele>32.165</ele>
        <time>2022-08-28T09:50:14Z</time>
      </trkpt>
      <trkpt lat="43.377567" lon="-4.453164">
        <ele>32.421</ele>
        <time>2022-08-28T09:50:16Z</time>
      </trkpt>
      <trkpt lat="43.377605" lon="-4.453106">
        <ele>32.709</ele>
        <time>2022-08-28T09:50:18Z</time>
      </trkpt>
      <trkpt lat="43.377642" lon="-4.453044">
        <ele>33.090</ele>
        <time>2022-08-28T09:50:20Z</time>
      </trkpt>
      <trkpt lat="43.377679" lon="-4.452984">
        <ele>33.440</ele>
        <time>2022-08-28T09:50:22Z</time>
      </trkpt>
      <trkpt lat="43.377711" lon="-4.452922">
        <ele>33.771</ele>
        <time>2022-08-28T09:50:24Z</time>
      </trkpt>
      <trkpt lat="43.377743" lon="-4.452859">
        <ele>33.989</ele>
        <time>2022-08-28T09:50:26Z</time>
      </trkpt>
      <trkpt lat="43.377775" lon="-4.452796">
        <ele>34.044</ele>
        <time>2022-08-28T09:50:28Z</time>
      </trkpt>
      <trkpt lat="43.377807" lon="-4.452728">
        <ele>34.418</ele>
        <time>2022-08-28T09:50:30Z</time>
      </trkpt>
      <trkpt lat="43.377839" lon="-4.452663">
        <ele>34.884</ele>
        <time>2022-08-28T09:50:32Z</time>
      </trkpt>
      <trkpt lat="43.377874" lon="-4.452603">
        <ele>35.287</ele>
        <time>2022-08-28T09:50:34Z</time>
      </trkpt>
      <trkpt lat="43.377904" lon="-4.452540">
        <ele>35.478</ele>
        <time>2022-08-28T09:50:36Z</time>
      </trkpt>
      <trkpt lat="43.377931" lon="-4.452480">
        <ele>35.784</ele>
        <time>2022-08-28T09:50:38Z</time>
      </trkpt>
      <trkpt lat="43.377954" lon="-4.452418">
        <ele>35.907</ele>
        <time>2022-08-28T09:50:40Z</time>
      </trkpt>
      <trkpt lat="43.377976" lon="-4.452351">
        <ele>36.117</ele>
        <time>2022-08-28T09:50:42Z</time>
      </trkpt>
      <trkpt lat="43.378003" lon="-4.452279">
        <ele>36.409</ele>
        <time>2022-08-28T09:50:44Z</time>
      </trkpt>
      <trkpt lat="43.378030" lon="-4.452214">
        <ele>36.889</ele>
        <time>2022-08-28T09:50:46Z</time>
      </trkpt>
      <trkpt lat="43.378053" lon="-4.452154">
        <ele>37.269</ele>
        <time>2022-08-28T09:50:48Z</time>
      </trkpt>
      <trkpt lat="43.378071" lon="-4.452087">
        <ele>37.780</ele>
        <time>2022-08-28T09:50:50Z</time>
      </trkpt>
      <trkpt lat="43.378096" lon="-4.452015">
        <ele>38.318</ele>
        <time>2022-08-28T09:50:52Z</time>
      </trkpt>
      <trkpt lat="43.378124" lon="-4.451933">
        <ele>39.033</ele>
        <time>2022-08-28T09:50:54Z</time>
      </trkpt>
      <trkpt lat="43.378147" lon="-4.451855">
        <ele>39.217</ele>
        <time>2022-08-28T09:50:56Z</time>
      </trkpt>
      <trkpt lat="43.378172" lon="-4.451788">
        <ele>39.473</ele>
        <time>2022-08-28T09:50:58Z</time>
      </trkpt>
      <trkpt lat="43.378192" lon="-4.451723">
        <ele>39.646</ele>
        <time>2022-08-28T09:51:00Z</time>
      </trkpt>
      <trkpt lat="43.378214" lon="-4.451660">
        <ele>39.777</ele>
        <time>2022-08-28T09:51:02Z</time>
      </trkpt>
      <trkpt lat="43.378236" lon="-4.451597">
        <ele>39.952</ele>
        <time>2022-08-28T09:51:04Z</time>
      </trkpt>
      <trkpt lat="43.378258" lon="-4.451534">
        <ele>40.253</ele>
        <time>2022-08-28T09:51:06Z</time>
      </trkpt>
      <trkpt lat="43.378281" lon="-4.451474">
        <ele>40.408</ele>
        <time>2022-08-28T09:51:08Z</time>
      </trkpt>
      <trkpt lat="43.378303" lon="-4.451414">
        <ele>40.709</ele>
        <time>2022-08-28T09:51:10Z</time>
      </trkpt>
      <trkpt lat="43.378325" lon="-4.451354">
        <ele>41.066</ele>
        <time>2022-08-28T09:51:12Z</time>
      </trkpt>
      <trkpt lat="43.378348" lon="-4.451297">
        <ele>41.556</ele>
        <time>2022-08-28T09:51:14Z</time>
      </trkpt>
      <trkpt lat="43.378365" lon="-4.451239">
        <ele>41.817</ele>
        <time>2022-08-28T09:51:16Z</time>
      </trkpt>
      <trkpt lat="43.378387" lon="-4.451176">
        <ele>42.265</ele>
        <time>2022-08-28T09:51:18Z</time>
      </trkpt>
      <trkpt lat="43.378409" lon="-4.451109">
        <ele>42.640</ele>
        <time>2022-08-28T09:51:20Z</time>
      </trkpt>
      <trkpt lat="43.378427" lon="-4.451044">
        <ele>42.944</ele>
        <time>2022-08-28T09:51:22Z</time>
      </trkpt>
      <trkpt lat="43.378452" lon="-4.450979">
        <ele>43.360</ele>
        <time>2022-08-28T09:51:24Z</time>
      </trkpt>
      <trkpt lat="43.378475" lon="-4.450911">
        <ele>43.743</ele>
        <time>2022-08-28T09:51:26Z</time>
      </trkpt>
      <trkpt lat="43.378500" lon="-4.450846">
        <ele>44.234</ele>
        <time>2022-08-28T09:51:28Z</time>
      </trkpt>
      <trkpt lat="43.378522" lon="-4.450779">
        <ele>44.463</ele>
        <time>2022-08-28T09:51:30Z</time>
      </trkpt>
      <trkpt lat="43.378547" lon="-4.450712">
        <ele>44.544</ele>
        <time>2022-08-28T09:51:32Z</time>
      </trkpt>
      <trkpt lat="43.378570" lon="-4.450642">
        <ele>44.718</ele>
        <time>2022-08-28T09:51:34Z</time>
      </trkpt>
      <trkpt lat="43.378595" lon="-4.450569">
        <ele>44.909</ele>
        <time>2022-08-28T09:51:36Z</time>
      </trkpt>
      <trkpt lat="43.378622" lon="-4.450497">
        <ele>45.217</ele>
        <time>2022-08-28T09:51:38Z</time>
      </trkpt>
      <trkpt lat="43.378649" lon="-4.450425">
        <ele>45.847</ele>
        <time>2022-08-28T09:51:40Z</time>
      </trkpt>
      <trkpt lat="43.378672" lon="-4.450348">
        <ele>46.088</ele>
        <time>2022-08-28T09:51:42Z</time>
      </trkpt>
      <trkpt lat="43.378695" lon="-4.450278">
        <ele>46.276</ele>
        <time>2022-08-28T09:51:44Z</time>
      </trkpt>
      <trkpt lat="43.378720" lon="-4.450201">
        <ele>46.091</ele>
        <time>2022-08-28T09:51:46Z</time>
      </trkpt>
      <trkpt lat="43.378743" lon="-4.450121">
        <ele>45.775</ele>
        <time>2022-08-28T09:51:48Z</time>
      </trkpt>
      <trkpt lat="43.378768" lon="-4.450046">
        <ele>45.751</ele>
        <time>2022-08-28T09:51:50Z</time>
      </trkpt>
      <trkpt lat="43.378793" lon="-4.449969">
        <ele>45.924</ele>
        <time>2022-08-28T09:51:52Z</time>
      </trkpt>
      <trkpt lat="43.378815" lon="-4.449892">
        <ele>46.415</ele>
        <time>2022-08-28T09:51:54Z</time>
      </trkpt>
      <trkpt lat="43.378838" lon="-4.449817">
        <ele>46.971</ele>
        <time>2022-08-28T09:51:56Z</time>
      </trkpt>
      <trkpt lat="43.378853" lon="-4.449742">
        <ele>47.241</ele>
        <time>2022-08-28T09:51:58Z</time>
      </trkpt>
      <trkpt lat="43.378873" lon="-4.449672">
        <ele>47.815</ele>
        <time>2022-08-28T09:52:00Z</time>
      </trkpt>
      <trkpt lat="43.378895" lon="-4.449600">
        <ele>48.509</ele>
        <time>2022-08-28T09:52:02Z</time>
      </trkpt>
      <trkpt lat="43.378908" lon="-4.449518">
        <ele>48.938</ele>
        <time>2022-08-28T09:52:04Z</time>
      </trkpt>
      <trkpt lat="43.378921" lon="-4.449446">
        <ele>49.318</ele>
        <time>2022-08-28T09:52:06Z</time>
      </trkpt>
      <trkpt lat="43.378936" lon="-4.449374">
        <ele>49.599</ele>
        <time>2022-08-28T09:52:08Z</time>
      </trkpt>
      <trkpt lat="43.378954" lon="-4.449299">
        <ele>49.797</ele>
        <time>2022-08-28T09:52:10Z</time>
      </trkpt>
      <trkpt lat="43.378966" lon="-4.449226">
        <ele>49.812</ele>
        <time>2022-08-28T09:52:12Z</time>
      </trkpt>
      <trkpt lat="43.378973" lon="-4.449148">
        <ele>49.936</ele>
        <time>2022-08-28T09:52:14Z</time>
      </trkpt>
      <trkpt lat="43.378983" lon="-4.449071">
        <ele>49.992</ele>
        <time>2022-08-28T09:52:16Z</time>
      </trkpt>
      <trkpt lat="43.378998" lon="-4.448994">
        <ele>50.035</ele>
        <time>2022-08-28T09:52:18Z</time>
      </trkpt>
      <trkpt lat="43.379010" lon="-4.448919">
        <ele>50.276</ele>
        <time>2022-08-28T09:52:20Z</time>
      </trkpt>
      <trkpt lat="43.379022" lon="-4.448847">
        <ele>50.634</ele>
        <time>2022-08-28T09:52:22Z</time>
      </trkpt>
      <trkpt lat="43.379039" lon="-4.448774">
        <ele>51.355</ele>
        <time>2022-08-28T09:52:24Z</time>
      </trkpt>
      <trkpt lat="43.379057" lon="-4.448692">
        <ele>52.010</ele>
        <time>2022-08-28T09:52:26Z</time>
      </trkpt>
      <trkpt lat="43.379074" lon="-4.448614">
        <ele>52.709</ele>
        <time>2022-08-28T09:52:28Z</time>
      </trkpt>
      <trkpt lat="43.379087" lon="-4.448542">
        <ele>53.194</ele>
        <time>2022-08-28T09:52:30Z</time>
      </trkpt>
      <trkpt lat="43.379099" lon="-4.448474">
        <ele>53.554</ele>
        <time>2022-08-28T09:52:32Z</time>
      </trkpt>
      <trkpt lat="43.379112" lon="-4.448406">
        <ele>54.065</ele>
        <time>2022-08-28T09:52:34Z</time>
      </trkpt>
      <trkpt lat="43.379122" lon="-4.448336">
        <ele>54.323</ele>
        <time>2022-08-28T09:52:36Z</time>
      </trkpt>
      <trkpt lat="43.379132" lon="-4.448266">
        <ele>54.488</ele>
        <time>2022-08-28T09:52:38Z</time>
      </trkpt>
      <trkpt lat="43.379149" lon="-4.448196">
        <ele>54.792</ele>
        <time>2022-08-28T09:52:40Z</time>
      </trkpt>
      <trkpt lat="43.379169" lon="-4.448119">
        <ele>55.038</ele>
        <time>2022-08-28T09:52:42Z</time>
      </trkpt>
      <trkpt lat="43.379191" lon="-4.448039">
        <ele>55.521</ele>
        <time>2022-08-28T09:52:44Z</time>
      </trkpt>
      <trkpt lat="43.379209" lon="-4.447959">
        <ele>55.622</ele>
        <time>2022-08-28T09:52:46Z</time>
      </trkpt>
      <trkpt lat="43.379226" lon="-4.447881">
        <ele>55.736</ele>
        <time>2022-08-28T09:52:48Z</time>
      </trkpt>
      <trkpt lat="43.379244" lon="-4.447801">
        <ele>55.817</ele>
        <time>2022-08-28T09:52:50Z</time>
      </trkpt>
      <trkpt lat="43.379259" lon="-4.447723">
        <ele>55.918</ele>
        <time>2022-08-28T09:52:52Z</time>
      </trkpt>
      <trkpt lat="43.379276" lon="-4.447645">
        <ele>56.309</ele>
        <time>2022-08-28T09:52:54Z</time>
      </trkpt>
      <trkpt lat="43.379291" lon="-4.447570">
        <ele>56.664</ele>
        <time>2022-08-28T09:52:56Z</time>
      </trkpt>
      <trkpt lat="43.379303" lon="-4.447492">
        <ele>56.944</ele>
        <time>2022-08-28T09:52:58Z</time>
      </trkpt>
      <trkpt lat="43.379321" lon="-4.447415">
        <ele>57.395</ele>
        <time>2022-08-28T09:53:00Z</time>
      </trkpt>
      <trkpt lat="43.379336" lon="-4.447338">
        <ele>57.643</ele>
        <time>2022-08-28T09:53:02Z</time>
      </trkpt>
      <trkpt lat="43.379349" lon="-4.447260">
        <ele>58.048</ele>
        <time>2022-08-28T09:53:04Z</time>
      </trkpt>
      <trkpt lat="43.379372" lon="-4.447183">
        <ele>58.542</ele>
        <time>2022-08-28T09:53:06Z</time>
      </trkpt>
      <trkpt lat="43.379387" lon="-4.447110">
        <ele>58.858</ele>
        <time>2022-08-28T09:53:08Z</time>
      </trkpt>
      <trkpt lat="43.379400" lon="-4.447037">
        <ele>59.031</ele>
        <time>2022-08-28T09:53:10Z</time>
      </trkpt>
      <trkpt lat="43.379408" lon="-4.446962">
        <ele>59.022</ele>
        <time>2022-08-28T09:53:12Z</time>
      </trkpt>
      <trkpt lat="43.379423" lon="-4.446885">
        <ele>59.425</ele>
        <time>2022-08-28T09:53:14Z</time>
      </trkpt>
      <trkpt lat="43.379433" lon="-4.446813">
        <ele>59.726</ele>
        <time>2022-08-28T09:53:16Z</time>
      </trkpt>
      <trkpt lat="43.379446" lon="-4.446741">
        <ele>60.108</ele>
        <time>2022-08-28T09:53:18Z</time>
      </trkpt>
      <trkpt lat="43.379454" lon="-4.446668">
        <ele>60.309</ele>
        <time>2022-08-28T09:53:20Z</time>
      </trkpt>
      <trkpt lat="43.379457" lon="-4.446593">
        <ele>60.733</ele>
        <time>2022-08-28T09:53:22Z</time>
      </trkpt>
      <trkpt lat="43.379462" lon="-4.446518">
        <ele>61.183</ele>
        <time>2022-08-28T09:53:24Z</time>
      </trkpt>
      <trkpt lat="43.379465" lon="-4.446441">
        <ele>61.594</ele>
        <time>2022-08-28T09:53:26Z</time>
      </trkpt>
      <trkpt lat="43.379470" lon="-4.446364">
        <ele>61.832</ele>
        <time>2022-08-28T09:53:28Z</time>
      </trkpt>
      <trkpt lat="43.379475" lon="-4.446289">
        <ele>62.087</ele>
        <time>2022-08-28T09:53:30Z</time>
      </trkpt>
      <trkpt lat="43.379473" lon="-4.446214">
        <ele>62.081</ele>
        <time>2022-08-28T09:53:32Z</time>
      </trkpt>
      <trkpt lat="43.379470" lon="-4.446136">
        <ele>61.917</ele>
        <time>2022-08-28T09:53:34Z</time>
      </trkpt>
      <trkpt lat="43.379465" lon="-4.446056">
        <ele>61.920</ele>
        <time>2022-08-28T09:53:36Z</time>
      </trkpt>
      <trkpt lat="43.379467" lon="-4.445981">
        <ele>62.261</ele>
        <time>2022-08-28T09:53:38Z</time>
      </trkpt>
      <trkpt lat="43.379462" lon="-4.445901">
        <ele>62.361</ele>
        <time>2022-08-28T09:53:40Z</time>
      </trkpt>
      <trkpt lat="43.379462" lon="-4.445824">
        <ele>62.621</ele>
        <time>2022-08-28T09:53:42Z</time>
      </trkpt>
      <trkpt lat="43.379459" lon="-4.445746">
        <ele>62.813</ele>
        <time>2022-08-28T09:53:44Z</time>
      </trkpt>
      <trkpt lat="43.379462" lon="-4.445666">
        <ele>63.209</ele>
        <time>2022-08-28T09:53:46Z</time>
      </trkpt>
      <trkpt lat="43.379457" lon="-4.445586">
        <ele>63.397</ele>
        <time>2022-08-28T09:53:48Z</time>
      </trkpt>
      <trkpt lat="43.379457" lon="-4.445509">
        <ele>63.627</ele>
        <time>2022-08-28T09:53:50Z</time>
      </trkpt>
      <trkpt lat="43.379455" lon="-4.445432">
        <ele>63.858</ele>
        <time>2022-08-28T09:53:52Z</time>
      </trkpt>
      <trkpt lat="43.379457" lon="-4.445362">
        <ele>64.146</ele>
        <time>2022-08-28T09:53:54Z</time>
      </trkpt>
      <trkpt lat="43.379457" lon="-4.445280">
        <ele>64.421</ele>
        <time>2022-08-28T09:53:57Z</time>
      </trkpt>
      <trkpt lat="43.379454" lon="-4.445215">
        <ele>64.875</ele>
        <time>2022-08-28T09:53:59Z</time>
      </trkpt>
      <trkpt lat="43.379446" lon="-4.445142">
        <ele>65.011</ele>
        <time>2022-08-28T09:54:01Z</time>
      </trkpt>
      <trkpt lat="43.379449" lon="-4.445067">
        <ele>65.724</ele>
        <time>2022-08-28T09:54:03Z</time>
      </trkpt>
      <trkpt lat="43.379447" lon="-4.444987">
        <ele>66.175</ele>
        <time>2022-08-28T09:54:05Z</time>
      </trkpt>
      <trkpt lat="43.379450" lon="-4.444912">
        <ele>66.512</ele>
        <time>2022-08-28T09:54:07Z</time>
      </trkpt>
      <trkpt lat="43.379450" lon="-4.444837">
        <ele>66.732</ele>
        <time>2022-08-28T09:54:09Z</time>
      </trkpt>
      <trkpt lat="43.379458" lon="-4.444760">
        <ele>67.205</ele>
        <time>2022-08-28T09:54:11Z</time>
      </trkpt>
      <trkpt lat="43.379468" lon="-4.444682">
        <ele>67.409</ele>
        <time>2022-08-28T09:54:13Z</time>
      </trkpt>
      <trkpt lat="43.379480" lon="-4.444600">
        <ele>67.542</ele>
        <time>2022-08-28T09:54:15Z</time>
      </trkpt>
      <trkpt lat="43.379493" lon="-4.444517">
        <ele>67.512</ele>
        <time>2022-08-28T09:54:17Z</time>
      </trkpt>
      <trkpt lat="43.379508" lon="-4.444432">
        <ele>67.573</ele>
        <time>2022-08-28T09:54:19Z</time>
      </trkpt>
      <trkpt lat="43.379526" lon="-4.444349">
        <ele>67.531</ele>
        <time>2022-08-28T09:54:21Z</time>
      </trkpt>
      <trkpt lat="43.379541" lon="-4.444261">
        <ele>67.386</ele>
        <time>2022-08-28T09:54:23Z</time>
      </trkpt>
      <trkpt lat="43.379561" lon="-4.444176">
        <ele>67.460</ele>
        <time>2022-08-28T09:54:25Z</time>
      </trkpt>
      <trkpt lat="43.379581" lon="-4.444098">
        <ele>67.836</ele>
        <time>2022-08-28T09:54:27Z</time>
      </trkpt>
      <trkpt lat="43.379603" lon="-4.444021">
        <ele>68.399</ele>
        <time>2022-08-28T09:54:29Z</time>
      </trkpt>
      <trkpt lat="43.379615" lon="-4.443941">
        <ele>68.620</ele>
        <time>2022-08-28T09:54:31Z</time>
      </trkpt>
      <trkpt lat="43.379630" lon="-4.443864">
        <ele>69.098</ele>
        <time>2022-08-28T09:54:33Z</time>
      </trkpt>
      <trkpt lat="43.379647" lon="-4.443792">
        <ele>69.315</ele>
        <time>2022-08-28T09:54:35Z</time>
      </trkpt>
      <trkpt lat="43.379667" lon="-4.443724">
        <ele>69.726</ele>
        <time>2022-08-28T09:54:37Z</time>
      </trkpt>
      <trkpt lat="43.379682" lon="-4.443652">
        <ele>70.009</ele>
        <time>2022-08-28T09:54:39Z</time>
      </trkpt>
      <trkpt lat="43.379692" lon="-4.443580">
        <ele>70.150</ele>
        <time>2022-08-28T09:54:41Z</time>
      </trkpt>
      <trkpt lat="43.379709" lon="-4.443508">
        <ele>70.680</ele>
        <time>2022-08-28T09:54:43Z</time>
      </trkpt>
      <trkpt lat="43.379726" lon="-4.443435">
        <ele>71.141</ele>
        <time>2022-08-28T09:54:45Z</time>
      </trkpt>
      <trkpt lat="43.379743" lon="-4.443365">
        <ele>71.429</ele>
        <time>2022-08-28T09:54:47Z</time>
      </trkpt>
      <trkpt lat="43.379758" lon="-4.443287">
        <ele>71.844</ele>
        <time>2022-08-28T09:54:49Z</time>
      </trkpt>
      <trkpt lat="43.379771" lon="-4.443192">
        <ele>72.338</ele>
        <time>2022-08-28T09:54:51Z</time>
      </trkpt>
      <trkpt lat="43.379784" lon="-4.443105">
        <ele>72.884</ele>
        <time>2022-08-28T09:54:53Z</time>
      </trkpt>
      <trkpt lat="43.379789" lon="-4.443037">
        <ele>73.027</ele>
        <time>2022-08-28T09:54:55Z</time>
      </trkpt>
      <trkpt lat="43.379777" lon="-4.442965">
        <ele>72.878</ele>
        <time>2022-08-28T09:54:57Z</time>
      </trkpt>
      <trkpt lat="43.379762" lon="-4.442902">
        <ele>72.632</ele>
        <time>2022-08-28T09:54:59Z</time>
      </trkpt>
      <trkpt lat="43.379749" lon="-4.442830">
        <ele>72.492</ele>
        <time>2022-08-28T09:55:02Z</time>
      </trkpt>
      <trkpt lat="43.379732" lon="-4.442748">
        <ele>72.111</ele>
        <time>2022-08-28T09:58:02Z</time>
      </trkpt>
      <trkpt lat="43.379760" lon="-4.442700">
        <ele>72.609</ele>
        <time>2022-08-28T09:58:06Z</time>
      </trkpt>
      <trkpt lat="43.379802" lon="-4.442628">
        <ele>73.344</ele>
        <time>2022-08-28T09:58:09Z</time>
      </trkpt>
      <trkpt lat="43.379827" lon="-4.442575">
        <ele>73.894</ele>
        <time>2022-08-28T09:58:11Z</time>
      </trkpt>
      <trkpt lat="43.379830" lon="-4.442500">
        <ele>73.925</ele>
        <time>2022-08-28T09:58:13Z</time>
      </trkpt>
      <trkpt lat="43.379830" lon="-4.442417">
        <ele>74.143</ele>
        <time>2022-08-28T09:58:15Z</time>
      </trkpt>
      <trkpt lat="43.379828" lon="-4.442345">
        <ele>74.278</ele>
        <time>2022-08-28T09:58:17Z</time>
      </trkpt>
      <trkpt lat="43.379823" lon="-4.442265">
        <ele>74.462</ele>
        <time>2022-08-28T09:58:19Z</time>
      </trkpt>
      <trkpt lat="43.379815" lon="-4.442190">
        <ele>74.548</ele>
        <time>2022-08-28T09:58:21Z</time>
      </trkpt>
      <trkpt lat="43.379815" lon="-4.442112">
        <ele>75.021</ele>
        <time>2022-08-28T09:58:23Z</time>
      </trkpt>
      <trkpt lat="43.379813" lon="-4.442034">
        <ele>75.412</ele>
        <time>2022-08-28T09:58:25Z</time>
      </trkpt>
      <trkpt lat="43.379798" lon="-4.441964">
        <ele>75.792</ele>
        <time>2022-08-28T09:58:27Z</time>
      </trkpt>
      <trkpt lat="43.379781" lon="-4.441899">
        <ele>75.873</ele>
        <time>2022-08-28T09:58:29Z</time>
      </trkpt>
      <trkpt lat="43.379771" lon="-4.441801">
        <ele>76.020</ele>
        <time>2022-08-28T09:58:31Z</time>
      </trkpt>
      <trkpt lat="43.379769" lon="-4.441719">
        <ele>76.309</ele>
        <time>2022-08-28T09:58:33Z</time>
      </trkpt>
      <trkpt lat="43.379766" lon="-4.441647">
        <ele>76.720</ele>
        <time>2022-08-28T09:58:35Z</time>
      </trkpt>
      <trkpt lat="43.379763" lon="-4.441575">
        <ele>77.380</ele>
        <time>2022-08-28T09:58:37Z</time>
      </trkpt>
      <trkpt lat="43.379755" lon="-4.441490">
        <ele>78.191</ele>
        <time>2022-08-28T09:58:39Z</time>
      </trkpt>
      <trkpt lat="43.379752" lon="-4.441407">
        <ele>78.989</ele>
        <time>2022-08-28T09:58:41Z</time>
      </trkpt>
      <trkpt lat="43.379749" lon="-4.441319">
        <ele>79.614</ele>
        <time>2022-08-28T09:58:43Z</time>
      </trkpt>
      <trkpt lat="43.379736" lon="-4.441239">
        <ele>80.178</ele>
        <time>2022-08-28T09:58:45Z</time>
      </trkpt>
      <trkpt lat="43.379729" lon="-4.441151">
        <ele>80.784</ele>
        <time>2022-08-28T09:58:47Z</time>
      </trkpt>
      <trkpt lat="43.379714" lon="-4.441063">
        <ele>81.097</ele>
        <time>2022-08-28T09:58:49Z</time>
      </trkpt>
      <trkpt lat="43.379704" lon="-4.440978">
        <ele>81.278</ele>
        <time>2022-08-28T09:58:51Z</time>
      </trkpt>
      <trkpt lat="43.379699" lon="-4.440890">
        <ele>81.588</ele>
        <time>2022-08-28T09:58:53Z</time>
      </trkpt>
      <trkpt lat="43.379692" lon="-4.440798">
        <ele>81.824</ele>
        <time>2022-08-28T09:58:55Z</time>
      </trkpt>
      <trkpt lat="43.379684" lon="-4.440711">
        <ele>82.026</ele>
        <time>2022-08-28T09:58:57Z</time>
      </trkpt>
      <trkpt lat="43.379681" lon="-4.440626">
        <ele>82.309</ele>
        <time>2022-08-28T09:58:59Z</time>
      </trkpt>
      <trkpt lat="43.379674" lon="-4.440541">
        <ele>82.559</ele>
        <time>2022-08-28T09:59:01Z</time>
      </trkpt>
      <trkpt lat="43.379674" lon="-4.440451">
        <ele>82.679</ele>
        <time>2022-08-28T09:59:03Z</time>
      </trkpt>
      <trkpt lat="43.379676" lon="-4.440359">
        <ele>82.720</ele>
        <time>2022-08-28T09:59:05Z</time>
      </trkpt>
      <trkpt lat="43.379681" lon="-4.440271">
        <ele>82.918</ele>
        <time>2022-08-28T09:59:07Z</time>
      </trkpt>
      <trkpt lat="43.379681" lon="-4.440178">
        <ele>83.673</ele>
        <time>2022-08-28T09:59:09Z</time>
      </trkpt>
      <trkpt lat="43.379689" lon="-4.440091">
        <ele>84.387</ele>
        <time>2022-08-28T09:59:11Z</time>
      </trkpt>
      <trkpt lat="43.379692" lon="-4.440004">
        <ele>85.043</ele>
        <time>2022-08-28T09:59:13Z</time>
      </trkpt>
      <trkpt lat="43.379699" lon="-4.439917">
        <ele>85.046</ele>
        <time>2022-08-28T09:59:15Z</time>
      </trkpt>
      <trkpt lat="43.379709" lon="-4.439829">
        <ele>85.057</ele>
        <time>2022-08-28T09:59:17Z</time>
      </trkpt>
      <trkpt lat="43.379727" lon="-4.439742">
        <ele>85.058</ele>
        <time>2022-08-28T09:59:19Z</time>
      </trkpt>
      <trkpt lat="43.379745" lon="-4.439652">
        <ele>85.352</ele>
        <time>2022-08-28T09:59:21Z</time>
      </trkpt>
      <trkpt lat="43.379770" lon="-4.439560">
        <ele>85.617</ele>
        <time>2022-08-28T09:59:23Z</time>
      </trkpt>
      <trkpt lat="43.379803" lon="-4.439465">
        <ele>85.909</ele>
        <time>2022-08-28T09:59:25Z</time>
      </trkpt>
      <trkpt lat="43.379840" lon="-4.439367">
        <ele>86.216</ele>
        <time>2022-08-28T09:59:27Z</time>
      </trkpt>
      <trkpt lat="43.379880" lon="-4.439265">
        <ele>86.326</ele>
        <time>2022-08-28T09:59:29Z</time>
      </trkpt>
      <trkpt lat="43.379922" lon="-4.439157">
        <ele>86.357</ele>
        <time>2022-08-28T09:59:31Z</time>
      </trkpt>
      <trkpt lat="43.379965" lon="-4.439047">
        <ele>86.165</ele>
        <time>2022-08-28T09:59:33Z</time>
      </trkpt>
      <trkpt lat="43.380008" lon="-4.438932">
        <ele>86.010</ele>
        <time>2022-08-28T09:59:35Z</time>
      </trkpt>
      <trkpt lat="43.380030" lon="-4.438872">
        <ele>86.054</ele>
        <time>2022-08-28T09:59:36Z</time>
      </trkpt>
      <trkpt lat="43.380055" lon="-4.438814">
        <ele>85.880</ele>
        <time>2022-08-28T09:59:37Z</time>
      </trkpt>
      <trkpt lat="43.380103" lon="-4.438696">
        <ele>85.513</ele>
        <time>2022-08-28T09:59:39Z</time>
      </trkpt>
      <trkpt lat="43.380151" lon="-4.438574">
        <ele>85.394</ele>
        <time>2022-08-28T09:59:41Z</time>
      </trkpt>
      <trkpt lat="43.380174" lon="-4.438511">
        <ele>85.112</ele>
        <time>2022-08-28T09:59:42Z</time>
      </trkpt>
      <trkpt lat="43.380221" lon="-4.438384">
        <ele>85.132</ele>
        <time>2022-08-28T09:59:44Z</time>
      </trkpt>
      <trkpt lat="43.380246" lon="-4.438321">
        <ele>85.305</ele>
        <time>2022-08-28T09:59:45Z</time>
      </trkpt>
      <trkpt lat="43.380288" lon="-4.438193">
        <ele>85.709</ele>
        <time>2022-08-28T09:59:47Z</time>
      </trkpt>
      <trkpt lat="43.380306" lon="-4.438128">
        <ele>85.762</ele>
        <time>2022-08-28T09:59:48Z</time>
      </trkpt>
      <trkpt lat="43.380346" lon="-4.438000">
        <ele>85.742</ele>
        <time>2022-08-28T09:59:50Z</time>
      </trkpt>
      <trkpt lat="43.380366" lon="-4.437933">
        <ele>85.413</ele>
        <time>2022-08-28T09:59:51Z</time>
      </trkpt>
      <trkpt lat="43.380386" lon="-4.437866">
        <ele>85.221</ele>
        <time>2022-08-28T09:59:52Z</time>
      </trkpt>
      <trkpt lat="43.380426" lon="-4.437736">
        <ele>85.086</ele>
        <time>2022-08-28T09:59:54Z</time>
      </trkpt>
      <trkpt lat="43.380461" lon="-4.437603">
        <ele>85.330</ele>
        <time>2022-08-28T09:59:56Z</time>
      </trkpt>
      <trkpt lat="43.380498" lon="-4.437471">
        <ele>85.966</ele>
        <time>2022-08-28T09:59:58Z</time>
      </trkpt>
      <trkpt lat="43.380538" lon="-4.437338">
        <ele>86.359</ele>
        <time>2022-08-28T10:00:00Z</time>
      </trkpt>
      <trkpt lat="43.380556" lon="-4.437273">
        <ele>86.490</ele>
        <time>2022-08-28T10:00:01Z</time>
      </trkpt>
      <trkpt lat="43.380574" lon="-4.437208">
        <ele>86.371</ele>
        <time>2022-08-28T10:00:02Z</time>
      </trkpt>
      <trkpt lat="43.380617" lon="-4.437081">
        <ele>86.241</ele>
        <time>2022-08-28T10:00:04Z</time>
      </trkpt>
      <trkpt lat="43.380664" lon="-4.436958">
        <ele>86.115</ele>
        <time>2022-08-28T10:00:06Z</time>
      </trkpt>
      <trkpt lat="43.380689" lon="-4.436898">
        <ele>86.009</ele>
        <time>2022-08-28T10:00:07Z</time>
      </trkpt>
      <trkpt lat="43.380747" lon="-4.436776">
        <ele>86.028</ele>
        <time>2022-08-28T10:00:09Z</time>
      </trkpt>
      <trkpt lat="43.380777" lon="-4.436719">
        <ele>86.218</ele>
        <time>2022-08-28T10:00:10Z</time>
      </trkpt>
      <trkpt lat="43.380807" lon="-4.436662">
        <ele>86.499</ele>
        <time>2022-08-28T10:00:11Z</time>
      </trkpt>
      <trkpt lat="43.380865" lon="-4.436549">
        <ele>86.697</ele>
        <time>2022-08-28T10:00:13Z</time>
      </trkpt>
      <trkpt lat="43.380933" lon="-4.436444">
        <ele>86.632</ele>
        <time>2022-08-28T10:00:15Z</time>
      </trkpt>
      <trkpt lat="43.380970" lon="-4.436389">
        <ele>86.536</ele>
        <time>2022-08-28T10:00:16Z</time>
      </trkpt>
      <trkpt lat="43.381043" lon="-4.436299">
        <ele>86.252</ele>
        <time>2022-08-28T10:00:18Z</time>
      </trkpt>
      <trkpt lat="43.381116" lon="-4.436209">
        <ele>86.135</ele>
        <time>2022-08-28T10:00:20Z</time>
      </trkpt>
      <trkpt lat="43.381153" lon="-4.436162">
        <ele>86.196</ele>
        <time>2022-08-28T10:00:21Z</time>
      </trkpt>
      <trkpt lat="43.381221" lon="-4.436075">
        <ele>86.257</ele>
        <time>2022-08-28T10:00:23Z</time>
      </trkpt>
      <trkpt lat="43.381253" lon="-4.436030">
        <ele>86.200</ele>
        <time>2022-08-28T10:00:24Z</time>
      </trkpt>
      <trkpt lat="43.381286" lon="-4.435985">
        <ele>86.320</ele>
        <time>2022-08-28T10:00:25Z</time>
      </trkpt>
      <trkpt lat="43.381349" lon="-4.435888">
        <ele>86.609</ele>
        <time>2022-08-28T10:00:27Z</time>
      </trkpt>
      <trkpt lat="43.381384" lon="-4.435841">
        <ele>87.046</ele>
        <time>2022-08-28T10:00:28Z</time>
      </trkpt>
      <trkpt lat="43.381454" lon="-4.435743">
        <ele>86.856</ele>
        <time>2022-08-28T10:00:30Z</time>
      </trkpt>
      <trkpt lat="43.381527" lon="-4.435636">
        <ele>86.797</ele>
        <time>2022-08-28T10:00:32Z</time>
      </trkpt>
      <trkpt lat="43.381585" lon="-4.435513">
        <ele>86.565</ele>
        <time>2022-08-28T10:00:34Z</time>
      </trkpt>
      <trkpt lat="43.381615" lon="-4.435446">
        <ele>86.450</ele>
        <time>2022-08-28T10:00:35Z</time>
      </trkpt>
      <trkpt lat="43.381642" lon="-4.435376">
        <ele>86.384</ele>
        <time>2022-08-28T10:00:36Z</time>
      </trkpt>
      <trkpt lat="43.381690" lon="-4.435229">
        <ele>86.070</ele>
        <time>2022-08-28T10:00:38Z</time>
      </trkpt>
      <trkpt lat="43.381707" lon="-4.435149">
        <ele>85.933</ele>
        <time>2022-08-28T10:00:39Z</time>
      </trkpt>
      <trkpt lat="43.381722" lon="-4.435067">
        <ele>85.914</ele>
        <time>2022-08-28T10:00:40Z</time>
      </trkpt>
      <trkpt lat="43.381734" lon="-4.434982">
        <ele>85.921</ele>
        <time>2022-08-28T10:00:41Z</time>
      </trkpt>
      <trkpt lat="43.381754" lon="-4.434819">
        <ele>85.641</ele>
        <time>2022-08-28T10:00:43Z</time>
      </trkpt>
      <trkpt lat="43.381767" lon="-4.434737">
        <ele>85.605</ele>
        <time>2022-08-28T10:00:44Z</time>
      </trkpt>
      <trkpt lat="43.381775" lon="-4.434654">
        <ele>85.709</ele>
        <time>2022-08-28T10:00:45Z</time>
      </trkpt>
      <trkpt lat="43.381787" lon="-4.434572">
        <ele>86.073</ele>
        <time>2022-08-28T10:00:46Z</time>
      </trkpt>
      <trkpt lat="43.381794" lon="-4.434490">
        <ele>86.233</ele>
        <time>2022-08-28T10:00:47Z</time>
      </trkpt>
      <trkpt lat="43.381807" lon="-4.434325">
        <ele>86.584</ele>
        <time>2022-08-28T10:00:49Z</time>
      </trkpt>
      <trkpt lat="43.381819" lon="-4.434245">
        <ele>86.852</ele>
        <time>2022-08-28T10:00:50Z</time>
      </trkpt>
      <trkpt lat="43.381827" lon="-4.434165">
        <ele>87.097</ele>
        <time>2022-08-28T10:00:51Z</time>
      </trkpt>
      <trkpt lat="43.381832" lon="-4.434085">
        <ele>86.991</ele>
        <time>2022-08-28T10:00:52Z</time>
      </trkpt>
      <trkpt lat="43.381847" lon="-4.433933">
        <ele>86.757</ele>
        <time>2022-08-28T10:00:54Z</time>
      </trkpt>
      <trkpt lat="43.381852" lon="-4.433856">
        <ele>86.660</ele>
        <time>2022-08-28T10:00:55Z</time>
      </trkpt>
      <trkpt lat="43.381862" lon="-4.433779">
        <ele>86.891</ele>
        <time>2022-08-28T10:00:56Z</time>
      </trkpt>
      <trkpt lat="43.381869" lon="-4.433699">
        <ele>86.982</ele>
        <time>2022-08-28T10:00:57Z</time>
      </trkpt>
      <trkpt lat="43.381889" lon="-4.433542">
        <ele>87.043</ele>
        <time>2022-08-28T10:00:59Z</time>
      </trkpt>
      <trkpt lat="43.381911" lon="-4.433384">
        <ele>86.517</ele>
        <time>2022-08-28T10:01:01Z</time>
      </trkpt>
      <trkpt lat="43.381921" lon="-4.433307">
        <ele>86.409</ele>
        <time>2022-08-28T10:01:02Z</time>
      </trkpt>
      <trkpt lat="43.381929" lon="-4.433227">
        <ele>86.679</ele>
        <time>2022-08-28T10:01:03Z</time>
      </trkpt>
      <trkpt lat="43.381952" lon="-4.433065">
        <ele>87.149</ele>
        <time>2022-08-28T10:01:05Z</time>
      </trkpt>
      <trkpt lat="43.381974" lon="-4.432910">
        <ele>86.710</ele>
        <time>2022-08-28T10:01:07Z</time>
      </trkpt>
      <trkpt lat="43.381992" lon="-4.432757">
        <ele>86.528</ele>
        <time>2022-08-28T10:01:09Z</time>
      </trkpt>
      <trkpt lat="43.382000" lon="-4.432684">
        <ele>86.743</ele>
        <time>2022-08-28T10:01:10Z</time>
      </trkpt>
      <trkpt lat="43.382010" lon="-4.432612">
        <ele>86.867</ele>
        <time>2022-08-28T10:01:11Z</time>
      </trkpt>
      <trkpt lat="43.382020" lon="-4.432544">
        <ele>87.053</ele>
        <time>2022-08-28T10:01:12Z</time>
      </trkpt>
      <trkpt lat="43.382033" lon="-4.432407">
        <ele>87.086</ele>
        <time>2022-08-28T10:01:14Z</time>
      </trkpt>
      <trkpt lat="43.382043" lon="-4.432335">
        <ele>87.027</ele>
        <time>2022-08-28T10:01:15Z</time>
      </trkpt>
      <trkpt lat="43.382066" lon="-4.432200">
        <ele>87.171</ele>
        <time>2022-08-28T10:01:17Z</time>
      </trkpt>
      <trkpt lat="43.382094" lon="-4.432070">
        <ele>87.241</ele>
        <time>2022-08-28T10:01:19Z</time>
      </trkpt>
      <trkpt lat="43.382127" lon="-4.431938">
        <ele>87.515</ele>
        <time>2022-08-28T10:01:21Z</time>
      </trkpt>
      <trkpt lat="43.382172" lon="-4.431808">
        <ele>87.609</ele>
        <time>2022-08-28T10:01:23Z</time>
      </trkpt>
      <trkpt lat="43.382199" lon="-4.431740">
        <ele>87.888</ele>
        <time>2022-08-28T10:01:24Z</time>
      </trkpt>
      <trkpt lat="43.382219" lon="-4.431672">
        <ele>87.988</ele>
        <time>2022-08-28T10:01:25Z</time>
      </trkpt>
      <trkpt lat="43.382267" lon="-4.431540">
        <ele>86.839</ele>
        <time>2022-08-28T10:01:27Z</time>
      </trkpt>
      <trkpt lat="43.382315" lon="-4.431410">
        <ele>85.947</ele>
        <time>2022-08-28T10:01:29Z</time>
      </trkpt>
      <trkpt lat="43.382367" lon="-4.431278">
        <ele>85.892</ele>
        <time>2022-08-28T10:01:31Z</time>
      </trkpt>
      <trkpt lat="43.382395" lon="-4.431213">
        <ele>86.236</ele>
        <time>2022-08-28T10:01:32Z</time>
      </trkpt>
      <trkpt lat="43.382445" lon="-4.431088">
        <ele>87.232</ele>
        <time>2022-08-28T10:01:34Z</time>
      </trkpt>
      <trkpt lat="43.382495" lon="-4.430968">
        <ele>88.375</ele>
        <time>2022-08-28T10:01:36Z</time>
      </trkpt>
      <trkpt lat="43.382518" lon="-4.430908">
        <ele>88.336</ele>
        <time>2022-08-28T10:01:37Z</time>
      </trkpt>
      <trkpt lat="43.382541" lon="-4.430848">
        <ele>88.244</ele>
        <time>2022-08-28T10:01:38Z</time>
      </trkpt>
      <trkpt lat="43.382583" lon="-4.430735">
        <ele>88.105</ele>
        <time>2022-08-28T10:01:40Z</time>
      </trkpt>
      <trkpt lat="43.382626" lon="-4.430628">
        <ele>88.015</ele>
        <time>2022-08-28T10:01:42Z</time>
      </trkpt>
      <trkpt lat="43.382669" lon="-4.430528">
        <ele>88.109</ele>
        <time>2022-08-28T10:01:44Z</time>
      </trkpt>
      <trkpt lat="43.382711" lon="-4.430435">
        <ele>88.465</ele>
        <time>2022-08-28T10:01:46Z</time>
      </trkpt>
      <trkpt lat="43.382754" lon="-4.430347">
        <ele>89.315</ele>
        <time>2022-08-28T10:01:48Z</time>
      </trkpt>
      <trkpt lat="43.382796" lon="-4.430262">
        <ele>89.956</ele>
        <time>2022-08-28T10:01:50Z</time>
      </trkpt>
      <trkpt lat="43.382834" lon="-4.430175">
        <ele>90.144</ele>
        <time>2022-08-28T10:01:52Z</time>
      </trkpt>
      <trkpt lat="43.382872" lon="-4.430087">
        <ele>90.519</ele>
        <time>2022-08-28T10:01:54Z</time>
      </trkpt>
      <trkpt lat="43.382914" lon="-4.429999">
        <ele>91.033</ele>
        <time>2022-08-28T10:01:56Z</time>
      </trkpt>
      <trkpt lat="43.382956" lon="-4.429914">
        <ele>91.619</ele>
        <time>2022-08-28T10:01:58Z</time>
      </trkpt>
      <trkpt lat="43.382998" lon="-4.429832">
        <ele>92.292</ele>
        <time>2022-08-28T10:02:00Z</time>
      </trkpt>
      <trkpt lat="43.383040" lon="-4.429752">
        <ele>92.893</ele>
        <time>2022-08-28T10:02:02Z</time>
      </trkpt>
      <trkpt lat="43.383082" lon="-4.429670">
        <ele>93.169</ele>
        <time>2022-08-28T10:02:04Z</time>
      </trkpt>
      <trkpt lat="43.383129" lon="-4.429590">
        <ele>93.304</ele>
        <time>2022-08-28T10:02:06Z</time>
      </trkpt>
      <trkpt lat="43.383177" lon="-4.429512">
        <ele>93.724</ele>
        <time>2022-08-28T10:02:08Z</time>
      </trkpt>
      <trkpt lat="43.383224" lon="-4.429432">
        <ele>94.109</ele>
        <time>2022-08-28T10:02:10Z</time>
      </trkpt>
      <trkpt lat="43.383277" lon="-4.429354">
        <ele>94.447</ele>
        <time>2022-08-28T10:02:12Z</time>
      </trkpt>
      <trkpt lat="43.383329" lon="-4.429274">
        <ele>94.657</ele>
        <time>2022-08-28T10:02:14Z</time>
      </trkpt>
      <trkpt lat="43.383379" lon="-4.429197">
        <ele>94.928</ele>
        <time>2022-08-28T10:02:16Z</time>
      </trkpt>
      <trkpt lat="43.383427" lon="-4.429119">
        <ele>95.456</ele>
        <time>2022-08-28T10:02:18Z</time>
      </trkpt>
      <trkpt lat="43.383470" lon="-4.429037">
        <ele>95.961</ele>
        <time>2022-08-28T10:02:20Z</time>
      </trkpt>
      <trkpt lat="43.383512" lon="-4.428959">
        <ele>96.395</ele>
        <time>2022-08-28T10:02:22Z</time>
      </trkpt>
      <trkpt lat="43.383559" lon="-4.428879">
        <ele>96.531</ele>
        <time>2022-08-28T10:02:24Z</time>
      </trkpt>
      <trkpt lat="43.383602" lon="-4.428797">
        <ele>97.484</ele>
        <time>2022-08-28T10:02:26Z</time>
      </trkpt>
      <trkpt lat="43.383649" lon="-4.428712">
        <ele>98.435</ele>
        <time>2022-08-28T10:02:28Z</time>
      </trkpt>
      <trkpt lat="43.383694" lon="-4.428629">
        <ele>99.211</ele>
        <time>2022-08-28T10:02:30Z</time>
      </trkpt>
      <trkpt lat="43.383737" lon="-4.428542">
        <ele>99.521</ele>
        <time>2022-08-28T10:02:32Z</time>
      </trkpt>
      <trkpt lat="43.383782" lon="-4.428452">
        <ele>99.403</ele>
        <time>2022-08-28T10:02:34Z</time>
      </trkpt>
      <trkpt lat="43.383835" lon="-4.428362">
        <ele>98.909</ele>
        <time>2022-08-28T10:02:36Z</time>
      </trkpt>
      <trkpt lat="43.383892" lon="-4.428270">
        <ele>98.282</ele>
        <time>2022-08-28T10:02:38Z</time>
      </trkpt>
      <trkpt lat="43.383947" lon="-4.428177">
        <ele>98.242</ele>
        <time>2022-08-28T10:02:40Z</time>
      </trkpt>
      <trkpt lat="43.383994" lon="-4.428077">
        <ele>98.283</ele>
        <time>2022-08-28T10:02:42Z</time>
      </trkpt>
      <trkpt lat="43.384034" lon="-4.427977">
        <ele>98.021</ele>
        <time>2022-08-28T10:02:44Z</time>
      </trkpt>
      <trkpt lat="43.384067" lon="-4.427879">
        <ele>97.786</ele>
        <time>2022-08-28T10:02:46Z</time>
      </trkpt>
      <trkpt lat="43.384105" lon="-4.427772">
        <ele>97.470</ele>
        <time>2022-08-28T10:02:48Z</time>
      </trkpt>
      <trkpt lat="43.384143" lon="-4.427667">
        <ele>97.296</ele>
        <time>2022-08-28T10:02:50Z</time>
      </trkpt>
      <trkpt lat="43.384176" lon="-4.427562">
        <ele>97.029</ele>
        <time>2022-08-28T10:02:52Z</time>
      </trkpt>
      <trkpt lat="43.384209" lon="-4.427449">
        <ele>96.980</ele>
        <time>2022-08-28T10:02:54Z</time>
      </trkpt>
      <trkpt lat="43.384241" lon="-4.427334">
        <ele>96.778</ele>
        <time>2022-08-28T10:02:56Z</time>
      </trkpt>
      <trkpt lat="43.384254" lon="-4.427274">
        <ele>96.733</ele>
        <time>2022-08-28T10:02:57Z</time>
      </trkpt>
      <trkpt lat="43.384281" lon="-4.427152">
        <ele>96.726</ele>
        <time>2022-08-28T10:02:59Z</time>
      </trkpt>
      <trkpt lat="43.384293" lon="-4.427090">
        <ele>96.709</ele>
        <time>2022-08-28T10:03:00Z</time>
      </trkpt>
      <trkpt lat="43.384318" lon="-4.426960">
        <ele>96.718</ele>
        <time>2022-08-28T10:03:02Z</time>
      </trkpt>
      <trkpt lat="43.384336" lon="-4.426827">
        <ele>96.278</ele>
        <time>2022-08-28T10:03:04Z</time>
      </trkpt>
      <trkpt lat="43.384344" lon="-4.426759">
        <ele>96.019</ele>
        <time>2022-08-28T10:03:05Z</time>
      </trkpt>
      <trkpt lat="43.384354" lon="-4.426689">
        <ele>95.867</ele>
        <time>2022-08-28T10:03:06Z</time>
      </trkpt>
      <trkpt lat="43.384367" lon="-4.426554">
        <ele>95.552</ele>
        <time>2022-08-28T10:03:08Z</time>
      </trkpt>
      <trkpt lat="43.384377" lon="-4.426407">
        <ele>95.336</ele>
        <time>2022-08-28T10:03:10Z</time>
      </trkpt>
      <trkpt lat="43.384382" lon="-4.426332">
        <ele>95.442</ele>
        <time>2022-08-28T10:03:11Z</time>
      </trkpt>
      <trkpt lat="43.384392" lon="-4.426184">
        <ele>95.585</ele>
        <time>2022-08-28T10:03:13Z</time>
      </trkpt>
      <trkpt lat="43.384394" lon="-4.426111">
        <ele>95.546</ele>
        <time>2022-08-28T10:03:14Z</time>
      </trkpt>
      <trkpt lat="43.384399" lon="-4.426036">
        <ele>95.499</ele>
        <time>2022-08-28T10:03:15Z</time>
      </trkpt>
      <trkpt lat="43.384404" lon="-4.425879">
        <ele>95.007</ele>
        <time>2022-08-28T10:03:17Z</time>
      </trkpt>
      <trkpt lat="43.384401" lon="-4.425724">
        <ele>94.727</ele>
        <time>2022-08-28T10:03:19Z</time>
      </trkpt>
      <trkpt lat="43.384398" lon="-4.425646">
        <ele>94.709</ele>
        <time>2022-08-28T10:03:20Z</time>
      </trkpt>
      <trkpt lat="43.384386" lon="-4.425491">
        <ele>94.540</ele>
        <time>2022-08-28T10:03:22Z</time>
      </trkpt>
      <trkpt lat="43.384373" lon="-4.425336">
        <ele>94.560</ele>
        <time>2022-08-28T10:03:24Z</time>
      </trkpt>
      <trkpt lat="43.384355" lon="-4.425183">
        <ele>94.361</ele>
        <time>2022-08-28T10:03:26Z</time>
      </trkpt>
      <trkpt lat="43.384347" lon="-4.425106">
        <ele>94.359</ele>
        <time>2022-08-28T10:03:27Z</time>
      </trkpt>
      <trkpt lat="43.384337" lon="-4.425031">
        <ele>94.244</ele>
        <time>2022-08-28T10:03:28Z</time>
      </trkpt>
      <trkpt lat="43.384320" lon="-4.424883">
        <ele>94.588</ele>
        <time>2022-08-28T10:03:30Z</time>
      </trkpt>
      <trkpt lat="43.384310" lon="-4.424808">
        <ele>94.674</ele>
        <time>2022-08-28T10:03:31Z</time>
      </trkpt>
      <trkpt lat="43.384302" lon="-4.424733">
        <ele>94.947</ele>
        <time>2022-08-28T10:03:32Z</time>
      </trkpt>
      <trkpt lat="43.384290" lon="-4.424656">
        <ele>94.858</ele>
        <time>2022-08-28T10:03:33Z</time>
      </trkpt>
      <trkpt lat="43.384280" lon="-4.424579">
        <ele>94.755</ele>
        <time>2022-08-28T10:03:34Z</time>
      </trkpt>
      <trkpt lat="43.384258" lon="-4.424426">
        <ele>94.407</ele>
        <time>2022-08-28T10:03:36Z</time>
      </trkpt>
      <trkpt lat="43.384236" lon="-4.424273">
        <ele>94.417</ele>
        <time>2022-08-28T10:03:38Z</time>
      </trkpt>
      <trkpt lat="43.384229" lon="-4.424198">
        <ele>94.509</ele>
        <time>2022-08-28T10:03:39Z</time>
      </trkpt>
      <trkpt lat="43.384209" lon="-4.424045">
        <ele>94.416</ele>
        <time>2022-08-28T10:03:41Z</time>
      </trkpt>
      <trkpt lat="43.384197" lon="-4.423968">
        <ele>94.326</ele>
        <time>2022-08-28T10:03:42Z</time>
      </trkpt>
      <trkpt lat="43.384169" lon="-4.423813">
        <ele>94.397</ele>
        <time>2022-08-28T10:03:44Z</time>
      </trkpt>
      <trkpt lat="43.384144" lon="-4.423661">
        <ele>94.435</ele>
        <time>2022-08-28T10:03:46Z</time>
      </trkpt>
      <trkpt lat="43.384131" lon="-4.423589">
        <ele>94.540</ele>
        <time>2022-08-28T10:03:47Z</time>
      </trkpt>
      <trkpt lat="43.384108" lon="-4.423449">
        <ele>95.424</ele>
        <time>2022-08-28T10:03:49Z</time>
      </trkpt>
      <trkpt lat="43.384095" lon="-4.423377">
        <ele>95.840</ele>
        <time>2022-08-28T10:03:50Z</time>
      </trkpt>
      <trkpt lat="43.384087" lon="-4.423309">
        <ele>96.273</ele>
        <time>2022-08-28T10:03:51Z</time>
      </trkpt>
      <trkpt lat="43.384065" lon="-4.423171">
        <ele>96.584</ele>
        <time>2022-08-28T10:03:53Z</time>
      </trkpt>
      <trkpt lat="43.384047" lon="-4.423036">
        <ele>96.743</ele>
        <time>2022-08-28T10:03:55Z</time>
      </trkpt>
      <trkpt lat="43.384039" lon="-4.422966">
        <ele>96.664</ele>
        <time>2022-08-28T10:03:56Z</time>
      </trkpt>
      <trkpt lat="43.384021" lon="-4.422831">
        <ele>96.410</ele>
        <time>2022-08-28T10:03:58Z</time>
      </trkpt>
      <trkpt lat="43.384013" lon="-4.422763">
        <ele>96.309</ele>
        <time>2022-08-28T10:03:59Z</time>
      </trkpt>
      <trkpt lat="43.384001" lon="-4.422695">
        <ele>96.255</ele>
        <time>2022-08-28T10:04:00Z</time>
      </trkpt>
      <trkpt lat="43.383991" lon="-4.422628">
        <ele>96.065</ele>
        <time>2022-08-28T10:04:01Z</time>
      </trkpt>
      <trkpt lat="43.383973" lon="-4.422488">
        <ele>95.516</ele>
        <time>2022-08-28T10:04:03Z</time>
      </trkpt>
      <trkpt lat="43.383951" lon="-4.422338">
        <ele>95.174</ele>
        <time>2022-08-28T10:04:05Z</time>
      </trkpt>
      <trkpt lat="43.383931" lon="-4.422186">
        <ele>94.929</ele>
        <time>2022-08-28T10:04:07Z</time>
      </trkpt>
      <trkpt lat="43.383913" lon="-4.422038">
        <ele>95.043</ele>
        <time>2022-08-28T10:04:09Z</time>
      </trkpt>
      <trkpt lat="43.383901" lon="-4.421965">
        <ele>95.189</ele>
        <time>2022-08-28T10:04:10Z</time>
      </trkpt>
      <trkpt lat="43.383893" lon="-4.421890">
        <ele>95.112</ele>
        <time>2022-08-28T10:04:11Z</time>
      </trkpt>
      <trkpt lat="43.383886" lon="-4.421815">
        <ele>95.013</ele>
        <time>2022-08-28T10:04:12Z</time>
      </trkpt>
      <trkpt lat="43.383879" lon="-4.421738">
        <ele>94.957</ele>
        <time>2022-08-28T10:04:13Z</time>
      </trkpt>
      <trkpt lat="43.383872" lon="-4.421583">
        <ele>94.900</ele>
        <time>2022-08-28T10:04:15Z</time>
      </trkpt>
      <trkpt lat="43.383869" lon="-4.421425">
        <ele>94.920</ele>
        <time>2022-08-28T10:04:17Z</time>
      </trkpt>
      <trkpt lat="43.383866" lon="-4.421347">
        <ele>94.809</ele>
        <time>2022-08-28T10:04:18Z</time>
      </trkpt>
      <trkpt lat="43.383863" lon="-4.421269">
        <ele>94.886</ele>
        <time>2022-08-28T10:04:19Z</time>
      </trkpt>
      <trkpt lat="43.383858" lon="-4.421111">
        <ele>94.846</ele>
        <time>2022-08-28T10:04:21Z</time>
      </trkpt>
      <trkpt lat="43.383856" lon="-4.421031">
        <ele>94.787</ele>
        <time>2022-08-28T10:04:22Z</time>
      </trkpt>
      <trkpt lat="43.383853" lon="-4.420871">
        <ele>94.685</ele>
        <time>2022-08-28T10:04:24Z</time>
      </trkpt>
      <trkpt lat="43.383851" lon="-4.420789">
        <ele>94.620</ele>
        <time>2022-08-28T10:04:25Z</time>
      </trkpt>
      <trkpt lat="43.383846" lon="-4.420707">
        <ele>94.544</ele>
        <time>2022-08-28T10:04:26Z</time>
      </trkpt>
      <trkpt lat="43.383838" lon="-4.420542">
        <ele>94.210</ele>
        <time>2022-08-28T10:04:28Z</time>
      </trkpt>
      <trkpt lat="43.383833" lon="-4.420370">
        <ele>93.883</ele>
        <time>2022-08-28T10:04:30Z</time>
      </trkpt>
      <trkpt lat="43.383831" lon="-4.420197">
        <ele>92.754</ele>
        <time>2022-08-28T10:04:32Z</time>
      </trkpt>
      <trkpt lat="43.383824" lon="-4.420022">
        <ele>90.755</ele>
        <time>2022-08-28T10:04:34Z</time>
      </trkpt>
      <trkpt lat="43.383821" lon="-4.419935">
        <ele>90.307</ele>
        <time>2022-08-28T10:04:35Z</time>
      </trkpt>
      <trkpt lat="43.383818" lon="-4.419847">
        <ele>90.217</ele>
        <time>2022-08-28T10:04:36Z</time>
      </trkpt>
      <trkpt lat="43.383815" lon="-4.419670">
        <ele>90.409</ele>
        <time>2022-08-28T10:04:38Z</time>
      </trkpt>
      <trkpt lat="43.383810" lon="-4.419585">
        <ele>90.856</ele>
        <time>2022-08-28T10:04:39Z</time>
      </trkpt>
      <trkpt lat="43.383808" lon="-4.419503">
        <ele>91.316</ele>
        <time>2022-08-28T10:04:40Z</time>
      </trkpt>
      <trkpt lat="43.383801" lon="-4.419353">
        <ele>91.587</ele>
        <time>2022-08-28T10:04:42Z</time>
      </trkpt>
      <trkpt lat="43.383794" lon="-4.419283">
        <ele>91.395</ele>
        <time>2022-08-28T10:04:43Z</time>
      </trkpt>
      <trkpt lat="43.383784" lon="-4.419216">
        <ele>91.140</ele>
        <time>2022-08-28T10:04:44Z</time>
      </trkpt>
      <trkpt lat="43.383742" lon="-4.419081">
        <ele>90.464</ele>
        <time>2022-08-28T10:04:46Z</time>
      </trkpt>
      <trkpt lat="43.383687" lon="-4.418943">
        <ele>89.720</ele>
        <time>2022-08-28T10:04:48Z</time>
      </trkpt>
      <trkpt lat="43.383662" lon="-4.418873">
        <ele>89.633</ele>
        <time>2022-08-28T10:04:49Z</time>
      </trkpt>
      <trkpt lat="43.383642" lon="-4.418801">
        <ele>89.644</ele>
        <time>2022-08-28T10:04:50Z</time>
      </trkpt>
      <trkpt lat="43.383614" lon="-4.418648">
        <ele>89.961</ele>
        <time>2022-08-28T10:04:52Z</time>
      </trkpt>
      <trkpt lat="43.383602" lon="-4.418571">
        <ele>89.521</ele>
        <time>2022-08-28T10:04:53Z</time>
      </trkpt>
      <trkpt lat="43.383584" lon="-4.418409">
        <ele>88.613</ele>
        <time>2022-08-28T10:04:55Z</time>
      </trkpt>
      <trkpt lat="43.383574" lon="-4.418326">
        <ele>88.109</ele>
        <time>2022-08-28T10:04:56Z</time>
      </trkpt>
      <trkpt lat="43.383566" lon="-4.418241">
        <ele>87.477</ele>
        <time>2022-08-28T10:04:57Z</time>
      </trkpt>
      <trkpt lat="43.383554" lon="-4.418068">
        <ele>86.487</ele>
        <time>2022-08-28T10:04:59Z</time>
      </trkpt>
      <trkpt lat="43.383544" lon="-4.417890">
        <ele>85.758</ele>
        <time>2022-08-28T10:05:01Z</time>
      </trkpt>
      <trkpt lat="43.383539" lon="-4.417803">
        <ele>85.426</ele>
        <time>2022-08-28T10:05:02Z</time>
      </trkpt>
      <trkpt lat="43.383537" lon="-4.417715">
        <ele>85.051</ele>
        <time>2022-08-28T10:05:03Z</time>
      </trkpt>
      <trkpt lat="43.383535" lon="-4.417630">
        <ele>84.515</ele>
        <time>2022-08-28T10:05:04Z</time>
      </trkpt>
      <trkpt lat="43.383533" lon="-4.417480">
        <ele>83.791</ele>
        <time>2022-08-28T10:05:06Z</time>
      </trkpt>
      <trkpt lat="43.383540" lon="-4.417340">
        <ele>83.774</ele>
        <time>2022-08-28T10:05:08Z</time>
      </trkpt>
      <trkpt lat="43.383547" lon="-4.417277">
        <ele>83.995</ele>
        <time>2022-08-28T10:05:09Z</time>
      </trkpt>
      <trkpt lat="43.383562" lon="-4.417177">
        <ele>84.216</ele>
        <time>2022-08-28T10:05:11Z</time>
      </trkpt>
      <trkpt lat="43.383565" lon="-4.417105">
        <ele>83.976</ele>
        <time>2022-08-28T10:05:13Z</time>
      </trkpt>
      <trkpt lat="43.383567" lon="-4.417027">
        <ele>83.513</ele>
        <time>2022-08-28T10:05:16Z</time>
      </trkpt>
      <trkpt lat="43.383620" lon="-4.416994">
        <ele>85.409</ele>
        <time>2022-08-28T10:05:20Z</time>
      </trkpt>
      <trkpt lat="43.383665" lon="-4.416999">
        <ele>85.432</ele>
        <time>2022-08-28T10:05:22Z</time>
      </trkpt>
      <trkpt lat="43.383727" lon="-4.416966">
        <ele>85.132</ele>
        <time>2022-08-28T10:05:24Z</time>
      </trkpt>
      <trkpt lat="43.383794" lon="-4.416929">
        <ele>84.783</ele>
        <time>2022-08-28T10:05:26Z</time>
      </trkpt>
      <trkpt lat="43.383916" lon="-4.416811">
        <ele>82.381</ele>
        <time>2022-08-28T10:05:48Z</time>
      </trkpt>
      <trkpt lat="43.384063" lon="-4.417096">
        <ele>84.966</ele>
        <time>2022-08-28T10:05:57Z</time>
      </trkpt>
      <trkpt lat="43.383958" lon="-4.416996">
        <ele>84.920</ele>
        <time>2022-08-28T10:06:14Z</time>
      </trkpt>
      <trkpt lat="43.383863" lon="-4.416913">
        <ele>84.396</ele>
        <time>2022-08-28T10:06:37Z</time>
      </trkpt>
      <trkpt lat="43.383791" lon="-4.416885">
        <ele>83.759</ele>
        <time>2022-08-28T10:12:16Z</time>
      </trkpt>
      <trkpt lat="43.383884" lon="-4.416878">
        <ele>83.690</ele>
        <time>2022-08-28T10:12:36Z</time>
      </trkpt>
      <trkpt lat="43.383979" lon="-4.416848">
        <ele>83.261</ele>
        <time>2022-08-28T10:13:18Z</time>
      </trkpt>
      <trkpt lat="43.384089" lon="-4.416785">
        <ele>82.921</ele>
        <time>2022-08-28T10:13:47Z</time>
      </trkpt>
      <trkpt lat="43.384141" lon="-4.416773">
        <ele>83.213</ele>
        <time>2022-08-28T10:17:06Z</time>
      </trkpt>
      <trkpt lat="43.384198" lon="-4.416740">
        <ele>83.309</ele>
        <time>2022-08-28T10:17:09Z</time>
      </trkpt>
      <trkpt lat="43.384248" lon="-4.416717">
        <ele>83.287</ele>
        <time>2022-08-28T10:17:11Z</time>
      </trkpt>
      <trkpt lat="43.384288" lon="-4.416687">
        <ele>83.177</ele>
        <time>2022-08-28T10:17:13Z</time>
      </trkpt>
      <trkpt lat="43.384330" lon="-4.416650">
        <ele>82.818</ele>
        <time>2022-08-28T10:17:15Z</time>
      </trkpt>
      <trkpt lat="43.384370" lon="-4.416587">
        <ele>82.136</ele>
        <time>2022-08-28T10:17:17Z</time>
      </trkpt>
      <trkpt lat="43.384412" lon="-4.416495">
        <ele>81.541</ele>
        <time>2022-08-28T10:17:19Z</time>
      </trkpt>
      <trkpt lat="43.384457" lon="-4.416395">
        <ele>81.385</ele>
        <time>2022-08-28T10:17:21Z</time>
      </trkpt>
      <trkpt lat="43.384510" lon="-4.416290">
        <ele>80.821</ele>
        <time>2022-08-28T10:17:23Z</time>
      </trkpt>
      <trkpt lat="43.384537" lon="-4.416240">
        <ele>80.784</ele>
        <time>2022-08-28T10:17:24Z</time>
      </trkpt>
      <trkpt lat="43.384589" lon="-4.416135">
        <ele>80.425</ele>
        <time>2022-08-28T10:17:26Z</time>
      </trkpt>
      <trkpt lat="43.384612" lon="-4.416078">
        <ele>80.277</ele>
        <time>2022-08-28T10:17:27Z</time>
      </trkpt>
      <trkpt lat="43.384637" lon="-4.416020">
        <ele>79.961</ele>
        <time>2022-08-28T10:17:28Z</time>
      </trkpt>
      <trkpt lat="43.384694" lon="-4.415902">
        <ele>79.527</ele>
        <time>2022-08-28T10:17:30Z</time>
      </trkpt>
      <trkpt lat="43.384721" lon="-4.415839">
        <ele>79.109</ele>
        <time>2022-08-28T10:17:31Z</time>
      </trkpt>
      <trkpt lat="43.384773" lon="-4.415709">
        <ele>79.068</ele>
        <time>2022-08-28T10:17:33Z</time>
      </trkpt>
      <trkpt lat="43.384830" lon="-4.415571">
        <ele>78.318</ele>
        <time>2022-08-28T10:17:35Z</time>
      </trkpt>
      <trkpt lat="43.384860" lon="-4.415506">
        <ele>77.829</ele>
        <time>2022-08-28T10:17:36Z</time>
      </trkpt>
      <trkpt lat="43.384920" lon="-4.415366">
        <ele>76.747</ele>
        <time>2022-08-28T10:17:38Z</time>
      </trkpt>
      <trkpt lat="43.384953" lon="-4.415288">
        <ele>76.382</ele>
        <time>2022-08-28T10:17:39Z</time>
      </trkpt>
      <trkpt lat="43.384983" lon="-4.415205">
        <ele>76.166</ele>
        <time>2022-08-28T10:17:40Z</time>
      </trkpt>
      <trkpt lat="43.385013" lon="-4.415120">
        <ele>76.112</ele>
        <time>2022-08-28T10:17:41Z</time>
      </trkpt>
      <trkpt lat="43.385071" lon="-4.414943">
        <ele>75.975</ele>
        <time>2022-08-28T10:17:43Z</time>
      </trkpt>
      <trkpt lat="43.385099" lon="-4.414856">
        <ele>75.646</ele>
        <time>2022-08-28T10:17:44Z</time>
      </trkpt>
      <trkpt lat="43.385124" lon="-4.414778">
        <ele>75.375</ele>
        <time>2022-08-28T10:17:45Z</time>
      </trkpt>
      <trkpt lat="43.385171" lon="-4.414620">
        <ele>74.728</ele>
        <time>2022-08-28T10:17:47Z</time>
      </trkpt>
      <trkpt lat="43.385188" lon="-4.414535">
        <ele>74.320</ele>
        <time>2022-08-28T10:17:48Z</time>
      </trkpt>
      <trkpt lat="43.385208" lon="-4.414362">
        <ele>73.109</ele>
        <time>2022-08-28T10:17:50Z</time>
      </trkpt>
      <trkpt lat="43.385221" lon="-4.414282">
        <ele>72.748</ele>
        <time>2022-08-28T10:17:51Z</time>
      </trkpt>
      <trkpt lat="43.385244" lon="-4.414127">
        <ele>72.088</ele>
        <time>2022-08-28T10:17:53Z</time>
      </trkpt>
      <trkpt lat="43.385256" lon="-4.414045">
        <ele>71.739</ele>
        <time>2022-08-28T10:17:54Z</time>
      </trkpt>
      <trkpt lat="43.385269" lon="-4.413965">
        <ele>71.487</ele>
        <time>2022-08-28T10:17:55Z</time>
      </trkpt>
      <trkpt lat="43.385281" lon="-4.413882">
        <ele>71.062</ele>
        <time>2022-08-28T10:17:56Z</time>
      </trkpt>
      <trkpt lat="43.385313" lon="-4.413705">
        <ele>69.826</ele>
        <time>2022-08-28T10:17:58Z</time>
      </trkpt>
      <trkpt lat="43.385341" lon="-4.413517">
        <ele>68.782</ele>
        <time>2022-08-28T10:18:00Z</time>
      </trkpt>
      <trkpt lat="43.385354" lon="-4.413429">
        <ele>68.355</ele>
        <time>2022-08-28T10:18:01Z</time>
      </trkpt>
      <trkpt lat="43.385361" lon="-4.413344">
        <ele>68.056</ele>
        <time>2022-08-28T10:18:02Z</time>
      </trkpt>
      <trkpt lat="43.385373" lon="-4.413264">
        <ele>67.841</ele>
        <time>2022-08-28T10:18:03Z</time>
      </trkpt>
      <trkpt lat="43.385406" lon="-4.413114">
        <ele>67.681</ele>
        <time>2022-08-28T10:18:05Z</time>
      </trkpt>
      <trkpt lat="43.385446" lon="-4.412977">
        <ele>67.409</ele>
        <time>2022-08-28T10:18:07Z</time>
      </trkpt>
      <trkpt lat="43.385489" lon="-4.412877">
        <ele>67.509</ele>
        <time>2022-08-28T10:18:09Z</time>
      </trkpt>
      <trkpt lat="43.385524" lon="-4.412817">
        <ele>67.775</ele>
        <time>2022-08-28T10:18:11Z</time>
      </trkpt>
      <trkpt lat="43.385651" lon="-4.412802">
        <ele>67.445</ele>
        <time>2022-08-28T10:18:50Z</time>
      </trkpt>
      <trkpt lat="43.385549" lon="-4.412807">
        <ele>68.096</ele>
        <time>2022-08-28T10:19:25Z</time>
      </trkpt>
      <trkpt lat="43.385627" lon="-4.412784">
        <ele>67.524</ele>
        <time>2022-08-28T10:21:57Z</time>
      </trkpt>
      <trkpt lat="43.385674" lon="-4.412784">
        <ele>67.219</ele>
        <time>2022-08-28T10:21:59Z</time>
      </trkpt>
      <trkpt lat="43.385737" lon="-4.412797">
        <ele>66.833</ele>
        <time>2022-08-28T10:22:01Z</time>
      </trkpt>
      <trkpt lat="43.385807" lon="-4.412830">
        <ele>66.439</ele>
        <time>2022-08-28T10:22:03Z</time>
      </trkpt>
      <trkpt lat="43.385887" lon="-4.412882">
        <ele>65.942</ele>
        <time>2022-08-28T10:22:05Z</time>
      </trkpt>
      <trkpt lat="43.385974" lon="-4.412947">
        <ele>65.413</ele>
        <time>2022-08-28T10:22:07Z</time>
      </trkpt>
      <trkpt lat="43.386019" lon="-4.412975">
        <ele>65.294</ele>
        <time>2022-08-28T10:22:08Z</time>
      </trkpt>
      <trkpt lat="43.386064" lon="-4.413002">
        <ele>65.057</ele>
        <time>2022-08-28T10:22:09Z</time>
      </trkpt>
      <trkpt lat="43.386167" lon="-4.413094">
        <ele>64.422</ele>
        <time>2022-08-28T10:22:11Z</time>
      </trkpt>
      <trkpt lat="43.386214" lon="-4.413131">
        <ele>64.009</ele>
        <time>2022-08-28T10:22:12Z</time>
      </trkpt>
      <trkpt lat="43.386266" lon="-4.413161">
        <ele>63.610</ele>
        <time>2022-08-28T10:22:13Z</time>
      </trkpt>
      <trkpt lat="43.386368" lon="-4.413209">
        <ele>62.910</ele>
        <time>2022-08-28T10:22:15Z</time>
      </trkpt>
      <trkpt lat="43.386423" lon="-4.413227">
        <ele>62.751</ele>
        <time>2022-08-28T10:22:16Z</time>
      </trkpt>
      <trkpt lat="43.386535" lon="-4.413254">
        <ele>62.579</ele>
        <time>2022-08-28T10:22:18Z</time>
      </trkpt>
      <trkpt lat="43.386592" lon="-4.413254">
        <ele>62.284</ele>
        <time>2022-08-28T10:22:19Z</time>
      </trkpt>
      <trkpt lat="43.386714" lon="-4.413221">
        <ele>61.378</ele>
        <time>2022-08-28T10:22:21Z</time>
      </trkpt>
      <trkpt lat="43.386839" lon="-4.413148">
        <ele>60.744</ele>
        <time>2022-08-28T10:22:23Z</time>
      </trkpt>
      <trkpt lat="43.386907" lon="-4.413103">
        <ele>60.867</ele>
        <time>2022-08-28T10:22:24Z</time>
      </trkpt>
      <trkpt lat="43.387032" lon="-4.413001">
        <ele>60.228</ele>
        <time>2022-08-28T10:22:26Z</time>
      </trkpt>
      <trkpt lat="43.387157" lon="-4.412873">
        <ele>59.353</ele>
        <time>2022-08-28T10:22:28Z</time>
      </trkpt>
      <trkpt lat="43.387274" lon="-4.412710">
        <ele>59.304</ele>
        <time>2022-08-28T10:22:30Z</time>
      </trkpt>
      <trkpt lat="43.387329" lon="-4.412625">
        <ele>59.414</ele>
        <time>2022-08-28T10:22:31Z</time>
      </trkpt>
      <trkpt lat="43.387377" lon="-4.412537">
        <ele>59.309</ele>
        <time>2022-08-28T10:22:32Z</time>
      </trkpt>
      <trkpt lat="43.387422" lon="-4.412445">
        <ele>59.146</ele>
        <time>2022-08-28T10:22:33Z</time>
      </trkpt>
      <trkpt lat="43.387497" lon="-4.412247">
        <ele>58.266</ele>
        <time>2022-08-28T10:22:35Z</time>
      </trkpt>
      <trkpt lat="43.387555" lon="-4.412042">
        <ele>57.667</ele>
        <time>2022-08-28T10:22:37Z</time>
      </trkpt>
      <trkpt lat="43.387602" lon="-4.411824">
        <ele>57.045</ele>
        <time>2022-08-28T10:22:39Z</time>
      </trkpt>
      <trkpt lat="43.387637" lon="-4.411594">
        <ele>56.610</ele>
        <time>2022-08-28T10:22:41Z</time>
      </trkpt>
      <trkpt lat="43.387655" lon="-4.411479">
        <ele>56.254</ele>
        <time>2022-08-28T10:22:42Z</time>
      </trkpt>
      <trkpt lat="43.387673" lon="-4.411362">
        <ele>55.790</ele>
        <time>2022-08-28T10:22:43Z</time>
      </trkpt>
      <trkpt lat="43.387706" lon="-4.411122">
        <ele>54.383</ele>
        <time>2022-08-28T10:22:45Z</time>
      </trkpt>
      <trkpt lat="43.387724" lon="-4.411000">
        <ele>53.614</ele>
        <time>2022-08-28T10:22:46Z</time>
      </trkpt>
      <trkpt lat="43.387746" lon="-4.410885">
        <ele>53.021</ele>
        <time>2022-08-28T10:22:47Z</time>
      </trkpt>
      <trkpt lat="43.387766" lon="-4.410782">
        <ele>52.541</ele>
        <time>2022-08-28T10:22:48Z</time>
      </trkpt>
      <trkpt lat="43.387784" lon="-4.410682">
        <ele>52.105</ele>
        <time>2022-08-28T10:22:49Z</time>
      </trkpt>
      <trkpt lat="43.387817" lon="-4.410485">
        <ele>51.709</ele>
        <time>2022-08-28T10:22:51Z</time>
      </trkpt>
      <trkpt lat="43.387855" lon="-4.410278">
        <ele>50.983</ele>
        <time>2022-08-28T10:22:53Z</time>
      </trkpt>
      <trkpt lat="43.387877" lon="-4.410175">
        <ele>50.593</ele>
        <time>2022-08-28T10:22:54Z</time>
      </trkpt>
      <trkpt lat="43.387904" lon="-4.410068">
        <ele>50.044</ele>
        <time>2022-08-28T10:22:55Z</time>
      </trkpt>
      <trkpt lat="43.387934" lon="-4.409961">
        <ele>49.562</ele>
        <time>2022-08-28T10:22:56Z</time>
      </trkpt>
      <trkpt lat="43.387971" lon="-4.409858">
        <ele>49.147</ele>
        <time>2022-08-28T10:22:57Z</time>
      </trkpt>
      <trkpt lat="43.388011" lon="-4.409753">
        <ele>48.251</ele>
        <time>2022-08-28T10:22:58Z</time>
      </trkpt>
      <trkpt lat="43.388109" lon="-4.409545">
        <ele>49.297</ele>
        <time>2022-08-28T10:23:00Z</time>
      </trkpt>
      <trkpt lat="43.388159" lon="-4.409440">
        <ele>49.840</ele>
        <time>2022-08-28T10:23:01Z</time>
      </trkpt>
      <trkpt lat="43.388207" lon="-4.409338">
        <ele>49.211</ele>
        <time>2022-08-28T10:23:02Z</time>
      </trkpt>
      <trkpt lat="43.388299" lon="-4.409155">
        <ele>47.437</ele>
        <time>2022-08-28T10:23:04Z</time>
      </trkpt>
      <trkpt lat="43.388362" lon="-4.409003">
        <ele>46.849</ele>
        <time>2022-08-28T10:23:06Z</time>
      </trkpt>
      <trkpt lat="43.388404" lon="-4.408853">
        <ele>46.413</ele>
        <time>2022-08-28T10:23:08Z</time>
      </trkpt>
      <trkpt lat="43.388414" lon="-4.408683">
        <ele>45.009</ele>
        <time>2022-08-28T10:23:10Z</time>
      </trkpt>
      <trkpt lat="43.388412" lon="-4.408515">
        <ele>43.984</ele>
        <time>2022-08-28T10:23:12Z</time>
      </trkpt>
      <trkpt lat="43.388395" lon="-4.408337">
        <ele>42.794</ele>
        <time>2022-08-28T10:23:14Z</time>
      </trkpt>
      <trkpt lat="43.388382" lon="-4.408244">
        <ele>42.285</ele>
        <time>2022-08-28T10:23:15Z</time>
      </trkpt>
      <trkpt lat="43.388365" lon="-4.408151">
        <ele>41.493</ele>
        <time>2022-08-28T10:23:16Z</time>
      </trkpt>
      <trkpt lat="43.388350" lon="-4.408056">
        <ele>40.828</ele>
        <time>2022-08-28T10:23:17Z</time>
      </trkpt>
      <trkpt lat="43.388322" lon="-4.407863">
        <ele>40.232</ele>
        <time>2022-08-28T10:23:19Z</time>
      </trkpt>
      <trkpt lat="43.388305" lon="-4.407763">
        <ele>39.818</ele>
        <time>2022-08-28T10:23:20Z</time>
      </trkpt>
      <trkpt lat="43.388287" lon="-4.407656">
        <ele>39.171</ele>
        <time>2022-08-28T10:23:21Z</time>
      </trkpt>
      <trkpt lat="43.388274" lon="-4.407549">
        <ele>38.882</ele>
        <time>2022-08-28T10:23:22Z</time>
      </trkpt>
      <trkpt lat="43.388251" lon="-4.407329">
        <ele>38.058</ele>
        <time>2022-08-28T10:23:24Z</time>
      </trkpt>
      <trkpt lat="43.388239" lon="-4.407219">
        <ele>37.652</ele>
        <time>2022-08-28T10:23:25Z</time>
      </trkpt>
      <trkpt lat="43.388227" lon="-4.407107">
        <ele>37.317</ele>
        <time>2022-08-28T10:23:26Z</time>
      </trkpt>
      <trkpt lat="43.388199" lon="-4.406874">
        <ele>36.509</ele>
        <time>2022-08-28T10:23:28Z</time>
      </trkpt>
      <trkpt lat="43.388186" lon="-4.406756">
        <ele>35.986</ele>
        <time>2022-08-28T10:23:29Z</time>
      </trkpt>
      <trkpt lat="43.388163" lon="-4.406509">
        <ele>35.026</ele>
        <time>2022-08-28T10:23:31Z</time>
      </trkpt>
      <trkpt lat="43.388138" lon="-4.406259">
        <ele>33.627</ele>
        <time>2022-08-28T10:23:33Z</time>
      </trkpt>
      <trkpt lat="43.388130" lon="-4.406132">
        <ele>33.015</ele>
        <time>2022-08-28T10:23:34Z</time>
      </trkpt>
      <trkpt lat="43.388117" lon="-4.405874">
        <ele>31.590</ele>
        <time>2022-08-28T10:23:36Z</time>
      </trkpt>
      <trkpt lat="43.388119" lon="-4.405614">
        <ele>31.864</ele>
        <time>2022-08-28T10:23:38Z</time>
      </trkpt>
      <trkpt lat="43.388131" lon="-4.405482">
        <ele>31.840</ele>
        <time>2022-08-28T10:23:39Z</time>
      </trkpt>
      <trkpt lat="43.388149" lon="-4.405354">
        <ele>31.663</ele>
        <time>2022-08-28T10:23:40Z</time>
      </trkpt>
      <trkpt lat="43.388172" lon="-4.405226">
        <ele>31.644</ele>
        <time>2022-08-28T10:23:41Z</time>
      </trkpt>
      <trkpt lat="43.388227" lon="-4.404971">
        <ele>31.686</ele>
        <time>2022-08-28T10:23:43Z</time>
      </trkpt>
      <trkpt lat="43.388284" lon="-4.404723">
        <ele>29.860</ele>
        <time>2022-08-28T10:23:45Z</time>
      </trkpt>
      <trkpt lat="43.388306" lon="-4.404598">
        <ele>29.026</ele>
        <time>2022-08-28T10:23:46Z</time>
      </trkpt>
      <trkpt lat="43.388331" lon="-4.404480">
        <ele>28.209</ele>
        <time>2022-08-28T10:23:47Z</time>
      </trkpt>
      <trkpt lat="43.388369" lon="-4.404243">
        <ele>26.059</ele>
        <time>2022-08-28T10:23:49Z</time>
      </trkpt>
      <trkpt lat="43.388379" lon="-4.404123">
        <ele>25.099</ele>
        <time>2022-08-28T10:23:50Z</time>
      </trkpt>
      <trkpt lat="43.388381" lon="-4.403875">
        <ele>23.550</ele>
        <time>2022-08-28T10:23:52Z</time>
      </trkpt>
      <trkpt lat="43.388359" lon="-4.403620">
        <ele>23.478</ele>
        <time>2022-08-28T10:23:54Z</time>
      </trkpt>
      <trkpt lat="43.388344" lon="-4.403495">
        <ele>23.233</ele>
        <time>2022-08-28T10:23:55Z</time>
      </trkpt>
      <trkpt lat="43.388297" lon="-4.403255">
        <ele>22.797</ele>
        <time>2022-08-28T10:23:57Z</time>
      </trkpt>
      <trkpt lat="43.388239" lon="-4.403043">
        <ele>22.093</ele>
        <time>2022-08-28T10:23:59Z</time>
      </trkpt>
      <trkpt lat="43.388204" lon="-4.402943">
        <ele>21.436</ele>
        <time>2022-08-28T10:24:00Z</time>
      </trkpt>
      <trkpt lat="43.388166" lon="-4.402851">
        <ele>20.757</ele>
        <time>2022-08-28T10:24:01Z</time>
      </trkpt>
      <trkpt lat="43.388083" lon="-4.402671">
        <ele>19.467</ele>
        <time>2022-08-28T10:24:03Z</time>
      </trkpt>
      <trkpt lat="43.388038" lon="-4.402581">
        <ele>18.981</ele>
        <time>2022-08-28T10:24:04Z</time>
      </trkpt>
      <trkpt lat="43.387943" lon="-4.402399">
        <ele>17.819</ele>
        <time>2022-08-28T10:24:06Z</time>
      </trkpt>
      <trkpt lat="43.387898" lon="-4.402317">
        <ele>17.509</ele>
        <time>2022-08-28T10:24:07Z</time>
      </trkpt>
      <trkpt lat="43.387816" lon="-4.402180">
        <ele>17.047</ele>
        <time>2022-08-28T10:24:09Z</time>
      </trkpt>
      <trkpt lat="43.387753" lon="-4.402073">
        <ele>16.237</ele>
        <time>2022-08-28T10:24:11Z</time>
      </trkpt>
      <trkpt lat="43.387711" lon="-4.401993">
        <ele>15.988</ele>
        <time>2022-08-28T10:24:13Z</time>
      </trkpt>
      <trkpt lat="43.387671" lon="-4.401925">
        <ele>15.526</ele>
        <time>2022-08-28T10:24:15Z</time>
      </trkpt>
      <trkpt lat="43.387641" lon="-4.401863">
        <ele>15.381</ele>
        <time>2022-08-28T10:24:17Z</time>
      </trkpt>
      <trkpt lat="43.387606" lon="-4.401791">
        <ele>15.135</ele>
        <time>2022-08-28T10:24:20Z</time>
      </trkpt>
      <trkpt lat="43.387571" lon="-4.401733">
        <ele>14.851</ele>
        <time>2022-08-28T10:24:24Z</time>
      </trkpt>
      <trkpt lat="43.387548" lon="-4.401676">
        <ele>14.764</ele>
        <time>2022-08-28T10:24:27Z</time>
      </trkpt>
      <trkpt lat="43.387576" lon="-4.401751">
        <ele>14.815</ele>
        <time>2022-08-28T10:24:47Z</time>
      </trkpt>
      <trkpt lat="43.387621" lon="-4.401809">
        <ele>15.269</ele>
        <time>2022-08-28T10:24:52Z</time>
      </trkpt>
      <trkpt lat="43.387568" lon="-4.401721">
        <ele>14.804</ele>
        <time>2022-08-28T10:25:37Z</time>
      </trkpt>
      <trkpt lat="43.387525" lon="-4.401641">
        <ele>14.524</ele>
        <time>2022-08-28T10:25:49Z</time>
      </trkpt>
      <trkpt lat="43.387502" lon="-4.401573">
        <ele>14.409</ele>
        <time>2022-08-28T10:25:52Z</time>
      </trkpt>
      <trkpt lat="43.387475" lon="-4.401496">
        <ele>13.767</ele>
        <time>2022-08-28T10:25:55Z</time>
      </trkpt>
      <trkpt lat="43.387452" lon="-4.401431">
        <ele>13.187</ele>
        <time>2022-08-28T10:25:58Z</time>
      </trkpt>
      <trkpt lat="43.387420" lon="-4.401361">
        <ele>12.378</ele>
        <time>2022-08-28T10:26:02Z</time>
      </trkpt>
      <trkpt lat="43.387405" lon="-4.401301">
        <ele>12.136</ele>
        <time>2022-08-28T10:26:04Z</time>
      </trkpt>
      <trkpt lat="43.387392" lon="-4.401233">
        <ele>12.141</ele>
        <time>2022-08-28T10:26:06Z</time>
      </trkpt>
      <trkpt lat="43.387374" lon="-4.401155">
        <ele>12.135</ele>
        <time>2022-08-28T10:26:08Z</time>
      </trkpt>
      <trkpt lat="43.387356" lon="-4.401060">
        <ele>12.091</ele>
        <time>2022-08-28T10:26:10Z</time>
      </trkpt>
      <trkpt lat="43.387343" lon="-4.400967">
        <ele>12.144</ele>
        <time>2022-08-28T10:26:12Z</time>
      </trkpt>
      <trkpt lat="43.387331" lon="-4.400882">
        <ele>12.115</ele>
        <time>2022-08-28T10:26:14Z</time>
      </trkpt>
      <trkpt lat="43.387318" lon="-4.400799">
        <ele>12.124</ele>
        <time>2022-08-28T10:26:16Z</time>
      </trkpt>
      <trkpt lat="43.387308" lon="-4.400719">
        <ele>11.904</ele>
        <time>2022-08-28T10:26:18Z</time>
      </trkpt>
      <trkpt lat="43.387300" lon="-4.400639">
        <ele>11.714</ele>
        <time>2022-08-28T10:26:20Z</time>
      </trkpt>
      <trkpt lat="43.387298" lon="-4.400556">
        <ele>11.609</ele>
        <time>2022-08-28T10:26:22Z</time>
      </trkpt>
      <trkpt lat="43.387298" lon="-4.400468">
        <ele>11.413</ele>
        <time>2022-08-28T10:26:24Z</time>
      </trkpt>
      <trkpt lat="43.387295" lon="-4.400385">
        <ele>11.163</ele>
        <time>2022-08-28T10:26:26Z</time>
      </trkpt>
      <trkpt lat="43.387298" lon="-4.400303">
        <ele>11.054</ele>
        <time>2022-08-28T10:26:28Z</time>
      </trkpt>
      <trkpt lat="43.387288" lon="-4.400216">
        <ele>10.622</ele>
        <time>2022-08-28T10:26:30Z</time>
      </trkpt>
      <trkpt lat="43.387293" lon="-4.400126">
        <ele>10.687</ele>
        <time>2022-08-28T10:26:32Z</time>
      </trkpt>
      <trkpt lat="43.387293" lon="-4.400033">
        <ele>10.611</ele>
        <time>2022-08-28T10:26:34Z</time>
      </trkpt>
      <trkpt lat="43.387298" lon="-4.399940">
        <ele>10.537</ele>
        <time>2022-08-28T10:26:36Z</time>
      </trkpt>
      <trkpt lat="43.387298" lon="-4.399848">
        <ele>10.250</ele>
        <time>2022-08-28T10:26:38Z</time>
      </trkpt>
      <trkpt lat="43.387298" lon="-4.399758">
        <ele>9.991</ele>
        <time>2022-08-28T10:26:40Z</time>
      </trkpt>
      <trkpt lat="43.387300" lon="-4.399660">
        <ele>9.462</ele>
        <time>2022-08-28T10:26:42Z</time>
      </trkpt>
      <trkpt lat="43.387290" lon="-4.399558">
        <ele>8.683</ele>
        <time>2022-08-28T10:26:44Z</time>
      </trkpt>
      <trkpt lat="43.387282" lon="-4.399458">
        <ele>7.711</ele>
        <time>2022-08-28T10:26:46Z</time>
      </trkpt>
      <trkpt lat="43.387269" lon="-4.399366">
        <ele>7.209</ele>
        <time>2022-08-28T10:26:48Z</time>
      </trkpt>
      <trkpt lat="43.387259" lon="-4.399273">
        <ele>6.867</ele>
        <time>2022-08-28T10:26:50Z</time>
      </trkpt>
      <trkpt lat="43.387241" lon="-4.399191">
        <ele>6.377</ele>
        <time>2022-08-28T10:26:52Z</time>
      </trkpt>
      <trkpt lat="43.387219" lon="-4.399111">
        <ele>6.288</ele>
        <time>2022-08-28T10:26:54Z</time>
      </trkpt>
      <trkpt lat="43.387194" lon="-4.399049">
        <ele>6.046</ele>
        <time>2022-08-28T10:26:56Z</time>
      </trkpt>
      <trkpt lat="43.387166" lon="-4.398989">
        <ele>5.711</ele>
        <time>2022-08-28T10:26:58Z</time>
      </trkpt>
      <trkpt lat="43.387133" lon="-4.398926">
        <ele>5.375</ele>
        <time>2022-08-28T10:27:01Z</time>
      </trkpt>
      <trkpt lat="43.387095" lon="-4.398859">
        <ele>4.811</ele>
        <time>2022-08-28T10:27:09Z</time>
      </trkpt>
      <trkpt lat="43.387057" lon="-4.398809">
        <ele>4.394</ele>
        <time>2022-08-28T10:27:12Z</time>
      </trkpt>
      <trkpt lat="43.387009" lon="-4.398767">
        <ele>3.625</ele>
        <time>2022-08-28T10:27:15Z</time>
      </trkpt>
      <trkpt lat="43.386971" lon="-4.398732">
        <ele>3.089</ele>
        <time>2022-08-28T10:27:18Z</time>
      </trkpt>
      <trkpt lat="43.386924" lon="-4.398705">
        <ele>2.506</ele>
        <time>2022-08-28T10:27:21Z</time>
      </trkpt>
      <trkpt lat="43.386877" lon="-4.398677">
        <ele>2.126</ele>
        <time>2022-08-28T10:27:24Z</time>
      </trkpt>
      <trkpt lat="43.386825" lon="-4.398645">
        <ele>1.609</ele>
        <time>2022-08-28T10:27:27Z</time>
      </trkpt>
      <trkpt lat="43.386780" lon="-4.398617">
        <ele>1.269</ele>
        <time>2022-08-28T10:27:29Z</time>
      </trkpt>
      <trkpt lat="43.386740" lon="-4.398589">
        <ele>0.869</ele>
        <time>2022-08-28T10:27:31Z</time>
      </trkpt>
      <trkpt lat="43.386680" lon="-4.398551">
        <ele>0.140</ele>
        <time>2022-08-28T10:27:34Z</time>
      </trkpt>
      <trkpt lat="43.386618" lon="-4.398513">
        <ele>0.068</ele>
        <time>2022-08-28T10:27:37Z</time>
      </trkpt>
      <trkpt lat="43.386575" lon="-4.398486">
        <ele>0.033</ele>
        <time>2022-08-28T10:27:39Z</time>
      </trkpt>
      <trkpt lat="43.386532" lon="-4.398461">
        <ele>0.027</ele>
        <time>2022-08-28T10:27:41Z</time>
      </trkpt>
      <trkpt lat="43.386484" lon="-4.398438">
        <ele>0.013</ele>
        <time>2022-08-28T10:27:43Z</time>
      </trkpt>
      <trkpt lat="43.386419" lon="-4.398405">
        <ele>0.076</ele>
        <time>2022-08-28T10:27:46Z</time>
      </trkpt>
      <trkpt lat="43.386376" lon="-4.398382">
        <ele>0.067</ele>
        <time>2022-08-28T10:27:48Z</time>
      </trkpt>
      <trkpt lat="43.386313" lon="-4.398349">
        <ele>0.361</ele>
        <time>2022-08-28T10:27:51Z</time>
      </trkpt>
      <trkpt lat="43.386271" lon="-4.398324">
        <ele>0.421</ele>
        <time>2022-08-28T10:27:53Z</time>
      </trkpt>
      <trkpt lat="43.386214" lon="-4.398296">
        <ele>0.713</ele>
        <time>2022-08-28T10:27:56Z</time>
      </trkpt>
      <trkpt lat="43.386159" lon="-4.398268">
        <ele>1.009</ele>
        <time>2022-08-28T10:27:59Z</time>
      </trkpt>
      <trkpt lat="43.386111" lon="-4.398238">
        <ele>1.317</ele>
        <time>2022-08-28T10:28:02Z</time>
      </trkpt>
      <trkpt lat="43.386068" lon="-4.398215">
        <ele>2.197</ele>
        <time>2022-08-28T10:28:05Z</time>
      </trkpt>
      <trkpt lat="43.386025" lon="-4.398185">
        <ele>2.878</ele>
        <time>2022-08-28T10:28:08Z</time>
      </trkpt>
      <trkpt lat="43.385985" lon="-4.398157">
        <ele>3.376</ele>
        <time>2022-08-28T10:28:11Z</time>
      </trkpt>
      <trkpt lat="43.385933" lon="-4.398227">
        <ele>4.111</ele>
        <time>2022-08-28T10:29:04Z</time>
      </trkpt>
      <trkpt lat="43.385915" lon="-4.398147">
        <ele>4.385</ele>
        <time>2022-08-28T10:30:51Z</time>
      </trkpt>
      <trkpt lat="43.385870" lon="-4.398097">
        <ele>4.781</ele>
        <time>2022-08-28T10:30:55Z</time>
      </trkpt>
      <trkpt lat="43.385823" lon="-4.398065">
        <ele>5.014</ele>
        <time>2022-08-28T10:30:58Z</time>
      </trkpt>
      <trkpt lat="43.385753" lon="-4.398055">
        <ele>4.785</ele>
        <time>2022-08-28T10:31:01Z</time>
      </trkpt>
      <trkpt lat="43.385706" lon="-4.398068">
        <ele>4.638</ele>
        <time>2022-08-28T10:31:03Z</time>
      </trkpt>
      <trkpt lat="43.385651" lon="-4.398093">
        <ele>4.470</ele>
        <time>2022-08-28T10:31:05Z</time>
      </trkpt>
      <trkpt lat="43.385593" lon="-4.398128">
        <ele>4.217</ele>
        <time>2022-08-28T10:31:07Z</time>
      </trkpt>
      <trkpt lat="43.385536" lon="-4.398180">
        <ele>3.909</ele>
        <time>2022-08-28T10:31:09Z</time>
      </trkpt>
      <trkpt lat="43.385483" lon="-4.398245">
        <ele>3.774</ele>
        <time>2022-08-28T10:31:11Z</time>
      </trkpt>
      <trkpt lat="43.385431" lon="-4.398308">
        <ele>3.644</ele>
        <time>2022-08-28T10:31:13Z</time>
      </trkpt>
      <trkpt lat="43.385383" lon="-4.398378">
        <ele>3.425</ele>
        <time>2022-08-28T10:31:15Z</time>
      </trkpt>
      <trkpt lat="43.385340" lon="-4.398443">
        <ele>3.353</ele>
        <time>2022-08-28T10:31:17Z</time>
      </trkpt>
      <trkpt lat="43.385285" lon="-4.398515">
        <ele>3.088</ele>
        <time>2022-08-28T10:31:19Z</time>
      </trkpt>
      <trkpt lat="43.385227" lon="-4.398585">
        <ele>3.052</ele>
        <time>2022-08-28T10:31:21Z</time>
      </trkpt>
      <trkpt lat="43.385164" lon="-4.398648">
        <ele>3.178</ele>
        <time>2022-08-28T10:31:23Z</time>
      </trkpt>
      <trkpt lat="43.385107" lon="-4.398713">
        <ele>3.181</ele>
        <time>2022-08-28T10:31:25Z</time>
      </trkpt>
      <trkpt lat="43.385060" lon="-4.398793">
        <ele>3.132</ele>
        <time>2022-08-28T10:31:27Z</time>
      </trkpt>
      <trkpt lat="43.385000" lon="-4.398876">
        <ele>3.014</ele>
        <time>2022-08-28T10:31:29Z</time>
      </trkpt>
      <trkpt lat="43.384935" lon="-4.398961">
        <ele>3.254</ele>
        <time>2022-08-28T10:31:31Z</time>
      </trkpt>
      <trkpt lat="43.384872" lon="-4.399044">
        <ele>3.309</ele>
        <time>2022-08-28T10:31:33Z</time>
      </trkpt>
      <trkpt lat="43.384820" lon="-4.399124">
        <ele>3.309</ele>
        <time>2022-08-28T10:31:35Z</time>
      </trkpt>
      <trkpt lat="43.384767" lon="-4.399204">
        <ele>3.222</ele>
        <time>2022-08-28T10:31:37Z</time>
      </trkpt>
      <trkpt lat="43.384705" lon="-4.399287">
        <ele>3.062</ele>
        <time>2022-08-28T10:31:39Z</time>
      </trkpt>
      <trkpt lat="43.384647" lon="-4.399380">
        <ele>3.093</ele>
        <time>2022-08-28T10:31:41Z</time>
      </trkpt>
      <trkpt lat="43.384580" lon="-4.399460">
        <ele>3.151</ele>
        <time>2022-08-28T10:31:43Z</time>
      </trkpt>
      <trkpt lat="43.384512" lon="-4.399542">
        <ele>3.386</ele>
        <time>2022-08-28T10:31:45Z</time>
      </trkpt>
      <trkpt lat="43.384474" lon="-4.399577">
        <ele>3.230</ele>
        <time>2022-08-28T10:31:46Z</time>
      </trkpt>
      <trkpt lat="43.384429" lon="-4.399600">
        <ele>3.036</ele>
        <time>2022-08-28T10:31:47Z</time>
      </trkpt>
      <trkpt lat="43.384384" lon="-4.399615">
        <ele>3.029</ele>
        <time>2022-08-28T10:31:48Z</time>
      </trkpt>
      <trkpt lat="43.384301" lon="-4.399633">
        <ele>3.020</ele>
        <time>2022-08-28T10:31:50Z</time>
      </trkpt>
      <trkpt lat="43.384243" lon="-4.399608">
        <ele>3.018</ele>
        <time>2022-08-28T10:31:52Z</time>
      </trkpt>
      <trkpt lat="43.384186" lon="-4.399536">
        <ele>3.098</ele>
        <time>2022-08-28T10:31:54Z</time>
      </trkpt>
      <trkpt lat="43.384136" lon="-4.399464">
        <ele>3.017</ele>
        <time>2022-08-28T10:31:56Z</time>
      </trkpt>
      <trkpt lat="43.384089" lon="-4.399406">
        <ele>3.009</ele>
        <time>2022-08-28T10:31:58Z</time>
      </trkpt>
      <trkpt lat="43.384041" lon="-4.399354">
        <ele>3.082</ele>
        <time>2022-08-28T10:32:00Z</time>
      </trkpt>
      <trkpt lat="43.383991" lon="-4.399304">
        <ele>3.022</ele>
        <time>2022-08-28T10:32:02Z</time>
      </trkpt>
      <trkpt lat="43.383948" lon="-4.399256">
        <ele>3.093</ele>
        <time>2022-08-28T10:32:04Z</time>
      </trkpt>
      <trkpt lat="43.383901" lon="-4.399218">
        <ele>3.021</ele>
        <time>2022-08-28T10:32:06Z</time>
      </trkpt>
      <trkpt lat="43.383854" lon="-4.399176">
        <ele>3.046</ele>
        <time>2022-08-28T10:32:08Z</time>
      </trkpt>
      <trkpt lat="43.383801" lon="-4.399133">
        <ele>3.040</ele>
        <time>2022-08-28T10:32:10Z</time>
      </trkpt>
      <trkpt lat="43.383749" lon="-4.399090">
        <ele>3.016</ele>
        <time>2022-08-28T10:32:12Z</time>
      </trkpt>
      <trkpt lat="43.383697" lon="-4.399052">
        <ele>3.079</ele>
        <time>2022-08-28T10:32:14Z</time>
      </trkpt>
      <trkpt lat="43.383647" lon="-4.399005">
        <ele>3.070</ele>
        <time>2022-08-28T10:32:16Z</time>
      </trkpt>
      <trkpt lat="43.383597" lon="-4.398958">
        <ele>3.066</ele>
        <time>2022-08-28T10:32:18Z</time>
      </trkpt>
      <trkpt lat="43.383542" lon="-4.398913">
        <ele>3.029</ele>
        <time>2022-08-28T10:32:20Z</time>
      </trkpt>
      <trkpt lat="43.383485" lon="-4.398861">
        <ele>3.021</ele>
        <time>2022-08-28T10:32:22Z</time>
      </trkpt>
      <trkpt lat="43.383418" lon="-4.398819">
        <ele>3.009</ele>
        <time>2022-08-28T10:32:24Z</time>
      </trkpt>
      <trkpt lat="43.383351" lon="-4.398782">
        <ele>3.077</ele>
        <time>2022-08-28T10:32:26Z</time>
      </trkpt>
      <trkpt lat="43.383296" lon="-4.398729">
        <ele>3.027</ele>
        <time>2022-08-28T10:32:28Z</time>
      </trkpt>
      <trkpt lat="43.383239" lon="-4.398681">
        <ele>3.038</ele>
        <time>2022-08-28T10:32:30Z</time>
      </trkpt>
      <trkpt lat="43.383174" lon="-4.398626">
        <ele>3.076</ele>
        <time>2022-08-28T10:32:32Z</time>
      </trkpt>
      <trkpt lat="43.383102" lon="-4.398569">
        <ele>3.051</ele>
        <time>2022-08-28T10:32:34Z</time>
      </trkpt>
      <trkpt lat="43.383037" lon="-4.398516">
        <ele>3.015</ele>
        <time>2022-08-28T10:32:36Z</time>
      </trkpt>
      <trkpt lat="43.382972" lon="-4.398459">
        <ele>3.011</ele>
        <time>2022-08-28T10:32:38Z</time>
      </trkpt>
      <trkpt lat="43.382904" lon="-4.398402">
        <ele>3.084</ele>
        <time>2022-08-28T10:32:40Z</time>
      </trkpt>
      <trkpt lat="43.382846" lon="-4.398347">
        <ele>3.055</ele>
        <time>2022-08-28T10:32:42Z</time>
      </trkpt>
      <trkpt lat="43.382783" lon="-4.398292">
        <ele>3.099</ele>
        <time>2022-08-28T10:32:44Z</time>
      </trkpt>
      <trkpt lat="43.382721" lon="-4.398240">
        <ele>3.007</ele>
        <time>2022-08-28T10:32:46Z</time>
      </trkpt>
      <trkpt lat="43.382666" lon="-4.398200">
        <ele>3.027</ele>
        <time>2022-08-28T10:32:48Z</time>
      </trkpt>
      <trkpt lat="43.382609" lon="-4.398152">
        <ele>3.009</ele>
        <time>2022-08-28T10:32:50Z</time>
      </trkpt>
      <trkpt lat="43.382547" lon="-4.398115">
        <ele>3.090</ele>
        <time>2022-08-28T10:32:52Z</time>
      </trkpt>
      <trkpt lat="43.382485" lon="-4.398055">
        <ele>3.030</ele>
        <time>2022-08-28T10:32:54Z</time>
      </trkpt>
      <trkpt lat="43.382422" lon="-4.398000">
        <ele>3.161</ele>
        <time>2022-08-28T10:32:56Z</time>
      </trkpt>
      <trkpt lat="43.382362" lon="-4.397947">
        <ele>3.269</ele>
        <time>2022-08-28T10:32:58Z</time>
      </trkpt>
      <trkpt lat="43.382295" lon="-4.397895">
        <ele>3.274</ele>
        <time>2022-08-28T10:33:00Z</time>
      </trkpt>
      <trkpt lat="43.382228" lon="-4.397843">
        <ele>3.038</ele>
        <time>2022-08-28T10:33:02Z</time>
      </trkpt>
      <trkpt lat="43.382166" lon="-4.397795">
        <ele>3.084</ele>
        <time>2022-08-28T10:33:04Z</time>
      </trkpt>
      <trkpt lat="43.382101" lon="-4.397747">
        <ele>3.157</ele>
        <time>2022-08-28T10:33:06Z</time>
      </trkpt>
      <trkpt lat="43.382031" lon="-4.397689">
        <ele>3.318</ele>
        <time>2022-08-28T10:33:08Z</time>
      </trkpt>
      <trkpt lat="43.381966" lon="-4.397636">
        <ele>3.553</ele>
        <time>2022-08-28T10:33:10Z</time>
      </trkpt>
      <trkpt lat="43.381904" lon="-4.397581">
        <ele>3.804</ele>
        <time>2022-08-28T10:33:12Z</time>
      </trkpt>
      <trkpt lat="43.381839" lon="-4.397528">
        <ele>4.014</ele>
        <time>2022-08-28T10:33:14Z</time>
      </trkpt>
      <trkpt lat="43.381772" lon="-4.397470">
        <ele>4.009</ele>
        <time>2022-08-28T10:33:16Z</time>
      </trkpt>
      <trkpt lat="43.381700" lon="-4.397413">
        <ele>4.086</ele>
        <time>2022-08-28T10:33:18Z</time>
      </trkpt>
      <trkpt lat="43.381628" lon="-4.397355">
        <ele>4.116</ele>
        <time>2022-08-28T10:33:20Z</time>
      </trkpt>
      <trkpt lat="43.381561" lon="-4.397308">
        <ele>4.497</ele>
        <time>2022-08-28T10:33:22Z</time>
      </trkpt>
      <trkpt lat="43.381494" lon="-4.397260">
        <ele>4.625</ele>
        <time>2022-08-28T10:33:24Z</time>
      </trkpt>
      <trkpt lat="43.381424" lon="-4.397233">
        <ele>4.960</ele>
        <time>2022-08-28T10:33:26Z</time>
      </trkpt>
      <trkpt lat="43.381354" lon="-4.397216">
        <ele>5.144</ele>
        <time>2022-08-28T10:33:28Z</time>
      </trkpt>
      <trkpt lat="43.381296" lon="-4.397206">
        <ele>5.330</ele>
        <time>2022-08-28T10:33:30Z</time>
      </trkpt>
      <trkpt lat="43.381244" lon="-4.397193">
        <ele>5.473</ele>
        <time>2022-08-28T10:33:32Z</time>
      </trkpt>
      <trkpt lat="43.381192" lon="-4.397155">
        <ele>5.484</ele>
        <time>2022-08-28T10:33:34Z</time>
      </trkpt>
      <trkpt lat="43.381162" lon="-4.397070">
        <ele>4.914</ele>
        <time>2022-08-28T10:33:36Z</time>
      </trkpt>
      <trkpt lat="43.381182" lon="-4.396978">
        <ele>4.454</ele>
        <time>2022-08-28T10:33:38Z</time>
      </trkpt>
      <trkpt lat="43.381230" lon="-4.396898">
        <ele>3.809</ele>
        <time>2022-08-28T10:33:40Z</time>
      </trkpt>
      <trkpt lat="43.381290" lon="-4.396836">
        <ele>3.309</ele>
        <time>2022-08-28T10:33:42Z</time>
      </trkpt>
      <trkpt lat="43.381338" lon="-4.396766">
        <ele>2.882</ele>
        <time>2022-08-28T10:33:44Z</time>
      </trkpt>
      <trkpt lat="43.381368" lon="-4.396681">
        <ele>2.072</ele>
        <time>2022-08-28T10:33:46Z</time>
      </trkpt>
      <trkpt lat="43.381375" lon="-4.396583">
        <ele>1.943</ele>
        <time>2022-08-28T10:33:48Z</time>
      </trkpt>
      <trkpt lat="43.381387" lon="-4.396475">
        <ele>2.071</ele>
        <time>2022-08-28T10:33:50Z</time>
      </trkpt>
      <trkpt lat="43.381402" lon="-4.396365">
        <ele>1.936</ele>
        <time>2022-08-28T10:33:52Z</time>
      </trkpt>
      <trkpt lat="43.381415" lon="-4.396255">
        <ele>1.860</ele>
        <time>2022-08-28T10:33:54Z</time>
      </trkpt>
      <trkpt lat="43.381430" lon="-4.396140">
        <ele>1.756</ele>
        <time>2022-08-28T10:33:56Z</time>
      </trkpt>
      <trkpt lat="43.381443" lon="-4.396022">
        <ele>1.999</ele>
        <time>2022-08-28T10:33:58Z</time>
      </trkpt>
      <trkpt lat="43.381456" lon="-4.395909">
        <ele>2.120</ele>
        <time>2022-08-28T10:34:00Z</time>
      </trkpt>
      <trkpt lat="43.381469" lon="-4.395792">
        <ele>2.088</ele>
        <time>2022-08-28T10:34:02Z</time>
      </trkpt>
      <trkpt lat="43.381476" lon="-4.395730">
        <ele>1.724</ele>
        <time>2022-08-28T10:34:03Z</time>
      </trkpt>
      <trkpt lat="43.381491" lon="-4.395608">
        <ele>1.226</ele>
        <time>2022-08-28T10:34:05Z</time>
      </trkpt>
      <trkpt lat="43.381503" lon="-4.395486">
        <ele>1.209</ele>
        <time>2022-08-28T10:34:07Z</time>
      </trkpt>
      <trkpt lat="43.381518" lon="-4.395366">
        <ele>1.699</ele>
        <time>2022-08-28T10:34:09Z</time>
      </trkpt>
      <trkpt lat="43.381531" lon="-4.395246">
        <ele>1.959</ele>
        <time>2022-08-28T10:34:11Z</time>
      </trkpt>
      <trkpt lat="43.381549" lon="-4.395123">
        <ele>1.650</ele>
        <time>2022-08-28T10:34:13Z</time>
      </trkpt>
      <trkpt lat="43.381569" lon="-4.394996">
        <ele>1.328</ele>
        <time>2022-08-28T10:34:15Z</time>
      </trkpt>
      <trkpt lat="43.381587" lon="-4.394864">
        <ele>1.633</ele>
        <time>2022-08-28T10:34:17Z</time>
      </trkpt>
      <trkpt lat="43.381594" lon="-4.394801">
        <ele>1.767</ele>
        <time>2022-08-28T10:34:18Z</time>
      </trkpt>
      <trkpt lat="43.381602" lon="-4.394736">
        <ele>1.843</ele>
        <time>2022-08-28T10:34:19Z</time>
      </trkpt>
      <trkpt lat="43.381610" lon="-4.394674">
        <ele>1.846</ele>
        <time>2022-08-28T10:34:20Z</time>
      </trkpt>
      <trkpt lat="43.381617" lon="-4.394612">
        <ele>1.837</ele>
        <time>2022-08-28T10:34:21Z</time>
      </trkpt>
      <trkpt lat="43.381625" lon="-4.394549">
        <ele>1.984</ele>
        <time>2022-08-28T10:34:22Z</time>
      </trkpt>
      <trkpt lat="43.381647" lon="-4.394421">
        <ele>2.007</ele>
        <time>2022-08-28T10:34:24Z</time>
      </trkpt>
      <trkpt lat="43.381654" lon="-4.394358">
        <ele>2.317</ele>
        <time>2022-08-28T10:34:25Z</time>
      </trkpt>
      <trkpt lat="43.381662" lon="-4.394295">
        <ele>2.509</ele>
        <time>2022-08-28T10:34:26Z</time>
      </trkpt>
      <trkpt lat="43.381682" lon="-4.394168">
        <ele>2.979</ele>
        <time>2022-08-28T10:34:28Z</time>
      </trkpt>
      <trkpt lat="43.381690" lon="-4.394103">
        <ele>2.649</ele>
        <time>2022-08-28T10:34:29Z</time>
      </trkpt>
      <trkpt lat="43.381707" lon="-4.393971">
        <ele>2.120</ele>
        <time>2022-08-28T10:34:31Z</time>
      </trkpt>
      <trkpt lat="43.381722" lon="-4.393843">
        <ele>1.868</ele>
        <time>2022-08-28T10:34:33Z</time>
      </trkpt>
      <trkpt lat="43.381739" lon="-4.393715">
        <ele>1.913</ele>
        <time>2022-08-28T10:34:35Z</time>
      </trkpt>
      <trkpt lat="43.381746" lon="-4.393648">
        <ele>2.027</ele>
        <time>2022-08-28T10:34:36Z</time>
      </trkpt>
      <trkpt lat="43.381764" lon="-4.393515">
        <ele>1.733</ele>
        <time>2022-08-28T10:34:38Z</time>
      </trkpt>
      <trkpt lat="43.381776" lon="-4.393448">
        <ele>1.486</ele>
        <time>2022-08-28T10:34:39Z</time>
      </trkpt>
      <trkpt lat="43.381794" lon="-4.393315">
        <ele>1.037</ele>
        <time>2022-08-28T10:34:41Z</time>
      </trkpt>
      <trkpt lat="43.381807" lon="-4.393187">
        <ele>1.079</ele>
        <time>2022-08-28T10:34:43Z</time>
      </trkpt>
      <trkpt lat="43.381822" lon="-4.393055">
        <ele>1.005</ele>
        <time>2022-08-28T10:34:45Z</time>
      </trkpt>
      <trkpt lat="43.381839" lon="-4.392917">
        <ele>1.325</ele>
        <time>2022-08-28T10:34:47Z</time>
      </trkpt>
      <trkpt lat="43.381857" lon="-4.392777">
        <ele>1.709</ele>
        <time>2022-08-28T10:34:49Z</time>
      </trkpt>
      <trkpt lat="43.381865" lon="-4.392705">
        <ele>1.668</ele>
        <time>2022-08-28T10:34:50Z</time>
      </trkpt>
      <trkpt lat="43.381882" lon="-4.392562">
        <ele>1.658</ele>
        <time>2022-08-28T10:34:52Z</time>
      </trkpt>
      <trkpt lat="43.381892" lon="-4.392490">
        <ele>1.649</ele>
        <time>2022-08-28T10:34:53Z</time>
      </trkpt>
      <trkpt lat="43.381912" lon="-4.392342">
        <ele>1.877</ele>
        <time>2022-08-28T10:34:55Z</time>
      </trkpt>
      <trkpt lat="43.381932" lon="-4.392197">
        <ele>1.942</ele>
        <time>2022-08-28T10:34:57Z</time>
      </trkpt>
      <trkpt lat="43.381952" lon="-4.392047">
        <ele>1.996</ele>
        <time>2022-08-28T10:34:59Z</time>
      </trkpt>
      <trkpt lat="43.381975" lon="-4.391899">
        <ele>1.842</ele>
        <time>2022-08-28T10:35:01Z</time>
      </trkpt>
      <trkpt lat="43.381987" lon="-4.391826">
        <ele>1.745</ele>
        <time>2022-08-28T10:35:02Z</time>
      </trkpt>
      <trkpt lat="43.381997" lon="-4.391753">
        <ele>1.616</ele>
        <time>2022-08-28T10:35:03Z</time>
      </trkpt>
      <trkpt lat="43.382015" lon="-4.391605">
        <ele>1.592</ele>
        <time>2022-08-28T10:35:05Z</time>
      </trkpt>
      <trkpt lat="43.382033" lon="-4.391460">
        <ele>1.673</ele>
        <time>2022-08-28T10:35:07Z</time>
      </trkpt>
      <trkpt lat="43.382050" lon="-4.391315">
        <ele>1.720</ele>
        <time>2022-08-28T10:35:09Z</time>
      </trkpt>
      <trkpt lat="43.382060" lon="-4.391243">
        <ele>1.809</ele>
        <time>2022-08-28T10:35:10Z</time>
      </trkpt>
      <trkpt lat="43.382087" lon="-4.391103">
        <ele>2.010</ele>
        <time>2022-08-28T10:35:12Z</time>
      </trkpt>
      <trkpt lat="43.382110" lon="-4.390978">
        <ele>2.450</ele>
        <time>2022-08-28T10:35:14Z</time>
      </trkpt>
      <trkpt lat="43.382122" lon="-4.390916">
        <ele>2.641</ele>
        <time>2022-08-28T10:35:15Z</time>
      </trkpt>
      <trkpt lat="43.382150" lon="-4.390789">
        <ele>3.249</ele>
        <time>2022-08-28T10:35:17Z</time>
      </trkpt>
      <trkpt lat="43.382167" lon="-4.390724">
        <ele>3.364</ele>
        <time>2022-08-28T10:35:18Z</time>
      </trkpt>
      <trkpt lat="43.382202" lon="-4.390594">
        <ele>3.758</ele>
        <time>2022-08-28T10:35:20Z</time>
      </trkpt>
      <trkpt lat="43.382240" lon="-4.390459">
        <ele>3.524</ele>
        <time>2022-08-28T10:35:22Z</time>
      </trkpt>
      <trkpt lat="43.382282" lon="-4.390326">
        <ele>3.017</ele>
        <time>2022-08-28T10:35:24Z</time>
      </trkpt>
      <trkpt lat="43.382307" lon="-4.390264">
        <ele>3.048</ele>
        <time>2022-08-28T10:35:25Z</time>
      </trkpt>
      <trkpt lat="43.382334" lon="-4.390202">
        <ele>3.188</ele>
        <time>2022-08-28T10:35:26Z</time>
      </trkpt>
      <trkpt lat="43.382361" lon="-4.390140">
        <ele>3.224</ele>
        <time>2022-08-28T10:35:27Z</time>
      </trkpt>
      <trkpt lat="43.382413" lon="-4.390020">
        <ele>4.026</ele>
        <time>2022-08-28T10:35:29Z</time>
      </trkpt>
      <trkpt lat="43.382453" lon="-4.389898">
        <ele>4.709</ele>
        <time>2022-08-28T10:35:31Z</time>
      </trkpt>
      <trkpt lat="43.382463" lon="-4.389835">
        <ele>5.039</ele>
        <time>2022-08-28T10:35:32Z</time>
      </trkpt>
      <trkpt lat="43.382493" lon="-4.389720">
        <ele>5.819</ele>
        <time>2022-08-28T10:35:34Z</time>
      </trkpt>
      <trkpt lat="43.382536" lon="-4.389617">
        <ele>5.360</ele>
        <time>2022-08-28T10:35:36Z</time>
      </trkpt>
      <trkpt lat="43.382568" lon="-4.389507">
        <ele>4.838</ele>
        <time>2022-08-28T10:35:38Z</time>
      </trkpt>
      <trkpt lat="43.382595" lon="-4.389394">
        <ele>4.543</ele>
        <time>2022-08-28T10:35:40Z</time>
      </trkpt>
      <trkpt lat="43.382622" lon="-4.389281">
        <ele>4.557</ele>
        <time>2022-08-28T10:35:42Z</time>
      </trkpt>
      <trkpt lat="43.382650" lon="-4.389168">
        <ele>4.773</ele>
        <time>2022-08-28T10:35:44Z</time>
      </trkpt>
      <trkpt lat="43.382682" lon="-4.389055">
        <ele>5.026</ele>
        <time>2022-08-28T10:35:46Z</time>
      </trkpt>
      <trkpt lat="43.382715" lon="-4.388945">
        <ele>5.527</ele>
        <time>2022-08-28T10:35:48Z</time>
      </trkpt>
      <trkpt lat="43.382750" lon="-4.388832">
        <ele>6.186</ele>
        <time>2022-08-28T10:35:50Z</time>
      </trkpt>
      <trkpt lat="43.382785" lon="-4.388724">
        <ele>6.560</ele>
        <time>2022-08-28T10:35:52Z</time>
      </trkpt>
      <trkpt lat="43.382820" lon="-4.388617">
        <ele>6.826</ele>
        <time>2022-08-28T10:35:54Z</time>
      </trkpt>
      <trkpt lat="43.382845" lon="-4.388510">
        <ele>7.009</ele>
        <time>2022-08-28T10:35:56Z</time>
      </trkpt>
      <trkpt lat="43.382878" lon="-4.388410">
        <ele>7.689</ele>
        <time>2022-08-28T10:35:58Z</time>
      </trkpt>
      <trkpt lat="43.382908" lon="-4.388313">
        <ele>8.149</ele>
        <time>2022-08-28T10:36:00Z</time>
      </trkpt>
      <trkpt lat="43.382938" lon="-4.388211">
        <ele>8.250</ele>
        <time>2022-08-28T10:36:02Z</time>
      </trkpt>
      <trkpt lat="43.382970" lon="-4.388106">
        <ele>8.238</ele>
        <time>2022-08-28T10:36:04Z</time>
      </trkpt>
      <trkpt lat="43.383005" lon="-4.388011">
        <ele>8.773</ele>
        <time>2022-08-28T10:36:06Z</time>
      </trkpt>
      <trkpt lat="43.383030" lon="-4.387914">
        <ele>9.367</ele>
        <time>2022-08-28T10:36:08Z</time>
      </trkpt>
      <trkpt lat="43.383060" lon="-4.387826">
        <ele>10.163</ele>
        <time>2022-08-28T10:36:10Z</time>
      </trkpt>
      <trkpt lat="43.383087" lon="-4.387734">
        <ele>10.886</ele>
        <time>2022-08-28T10:36:12Z</time>
      </trkpt>
      <trkpt lat="43.383114" lon="-4.387639">
        <ele>11.357</ele>
        <time>2022-08-28T10:36:14Z</time>
      </trkpt>
      <trkpt lat="43.383137" lon="-4.387549">
        <ele>11.831</ele>
        <time>2022-08-28T10:36:16Z</time>
      </trkpt>
      <trkpt lat="43.383167" lon="-4.387456">
        <ele>12.261</ele>
        <time>2022-08-28T10:36:18Z</time>
      </trkpt>
      <trkpt lat="43.383195" lon="-4.387361">
        <ele>12.307</ele>
        <time>2022-08-28T10:36:20Z</time>
      </trkpt>
      <trkpt lat="43.383227" lon="-4.387269">
        <ele>12.409</ele>
        <time>2022-08-28T10:36:22Z</time>
      </trkpt>
      <trkpt lat="43.383252" lon="-4.387186">
        <ele>12.444</ele>
        <time>2022-08-28T10:36:24Z</time>
      </trkpt>
      <trkpt lat="43.383280" lon="-4.387106">
        <ele>12.694</ele>
        <time>2022-08-28T10:36:26Z</time>
      </trkpt>
      <trkpt lat="43.383307" lon="-4.387019">
        <ele>12.835</ele>
        <time>2022-08-28T10:36:28Z</time>
      </trkpt>
      <trkpt lat="43.383337" lon="-4.386934">
        <ele>13.113</ele>
        <time>2022-08-28T10:36:30Z</time>
      </trkpt>
      <trkpt lat="43.383365" lon="-4.386849">
        <ele>13.628</ele>
        <time>2022-08-28T10:36:32Z</time>
      </trkpt>
      <trkpt lat="43.383392" lon="-4.386766">
        <ele>14.112</ele>
        <time>2022-08-28T10:36:34Z</time>
      </trkpt>
      <trkpt lat="43.383417" lon="-4.386681">
        <ele>14.548</ele>
        <time>2022-08-28T10:36:36Z</time>
      </trkpt>
      <trkpt lat="43.383435" lon="-4.386598">
        <ele>14.771</ele>
        <time>2022-08-28T10:36:38Z</time>
      </trkpt>
      <trkpt lat="43.383452" lon="-4.386515">
        <ele>15.082</ele>
        <time>2022-08-28T10:36:40Z</time>
      </trkpt>
      <trkpt lat="43.383464" lon="-4.386432">
        <ele>15.029</ele>
        <time>2022-08-28T10:36:42Z</time>
      </trkpt>
      <trkpt lat="43.383464" lon="-4.386345">
        <ele>14.900</ele>
        <time>2022-08-28T10:36:44Z</time>
      </trkpt>
      <trkpt lat="43.383462" lon="-4.386268">
        <ele>15.020</ele>
        <time>2022-08-28T10:36:46Z</time>
      </trkpt>
      <trkpt lat="43.383457" lon="-4.386193">
        <ele>15.109</ele>
        <time>2022-08-28T10:36:48Z</time>
      </trkpt>
      <trkpt lat="43.383449" lon="-4.386125">
        <ele>15.293</ele>
        <time>2022-08-28T10:36:50Z</time>
      </trkpt>
      <trkpt lat="43.383437" lon="-4.386062">
        <ele>15.773</ele>
        <time>2022-08-28T10:36:52Z</time>
      </trkpt>
      <trkpt lat="43.383419" lon="-4.385999">
        <ele>16.354</ele>
        <time>2022-08-28T10:36:54Z</time>
      </trkpt>
      <trkpt lat="43.383397" lon="-4.385916">
        <ele>17.292</ele>
        <time>2022-08-28T10:36:57Z</time>
      </trkpt>
      <trkpt lat="43.383379" lon="-4.385859">
        <ele>17.877</ele>
        <time>2022-08-28T10:36:59Z</time>
      </trkpt>
      <trkpt lat="43.383362" lon="-4.385797">
        <ele>18.471</ele>
        <time>2022-08-28T10:37:01Z</time>
      </trkpt>
      <trkpt lat="43.383340" lon="-4.385740">
        <ele>18.727</ele>
        <time>2022-08-28T10:37:03Z</time>
      </trkpt>
      <trkpt lat="43.383293" lon="-4.385672">
        <ele>19.270</ele>
        <time>2022-08-28T10:37:06Z</time>
      </trkpt>
      <trkpt lat="43.383251" lon="-4.385640">
        <ele>19.611</ele>
        <time>2022-08-28T10:37:08Z</time>
      </trkpt>
      <trkpt lat="43.383204" lon="-4.385625">
        <ele>19.859</ele>
        <time>2022-08-28T10:37:10Z</time>
      </trkpt>
      <trkpt lat="43.383136" lon="-4.385615">
        <ele>20.103</ele>
        <time>2022-08-28T10:37:13Z</time>
      </trkpt>
      <trkpt lat="43.383084" lon="-4.385613">
        <ele>20.323</ele>
        <time>2022-08-28T10:37:16Z</time>
      </trkpt>
      <trkpt lat="43.383036" lon="-4.385583">
        <ele>20.609</ele>
        <time>2022-08-28T10:37:19Z</time>
      </trkpt>
      <trkpt lat="43.383019" lon="-4.385518">
        <ele>21.056</ele>
        <time>2022-08-28T10:37:57Z</time>
      </trkpt>
      <trkpt lat="43.382976" lon="-4.385471">
        <ele>21.046</ele>
        <time>2022-08-28T10:38:00Z</time>
      </trkpt>
      <trkpt lat="43.382953" lon="-4.385418">
        <ele>21.347</ele>
        <time>2022-08-28T10:38:02Z</time>
      </trkpt>
      <trkpt lat="43.382930" lon="-4.385328">
        <ele>21.775</ele>
        <time>2022-08-28T10:38:05Z</time>
      </trkpt>
      <trkpt lat="43.382923" lon="-4.385251">
        <ele>22.010</ele>
        <time>2022-08-28T10:38:07Z</time>
      </trkpt>
      <trkpt lat="43.382925" lon="-4.385183">
        <ele>21.914</ele>
        <time>2022-08-28T10:38:09Z</time>
      </trkpt>
      <trkpt lat="43.382938" lon="-4.385110">
        <ele>22.050</ele>
        <time>2022-08-28T10:38:11Z</time>
      </trkpt>
      <trkpt lat="43.382953" lon="-4.385038">
        <ele>22.283</ele>
        <time>2022-08-28T10:38:13Z</time>
      </trkpt>
      <trkpt lat="43.382970" lon="-4.384963">
        <ele>22.554</ele>
        <time>2022-08-28T10:38:15Z</time>
      </trkpt>
      <trkpt lat="43.382992" lon="-4.384893">
        <ele>23.123</ele>
        <time>2022-08-28T10:38:17Z</time>
      </trkpt>
      <trkpt lat="43.383015" lon="-4.384823">
        <ele>23.783</ele>
        <time>2022-08-28T10:38:19Z</time>
      </trkpt>
      <trkpt lat="43.383050" lon="-4.384750">
        <ele>24.811</ele>
        <time>2022-08-28T10:38:21Z</time>
      </trkpt>
      <trkpt lat="43.383072" lon="-4.384678">
        <ele>25.309</ele>
        <time>2022-08-28T10:38:23Z</time>
      </trkpt>
      <trkpt lat="43.383097" lon="-4.384626">
        <ele>25.623</ele>
        <time>2022-08-28T10:38:25Z</time>
      </trkpt>
      <trkpt lat="43.383124" lon="-4.384566">
        <ele>26.183</ele>
        <time>2022-08-28T10:38:27Z</time>
      </trkpt>
      <trkpt lat="43.383149" lon="-4.384503">
        <ele>26.584</ele>
        <time>2022-08-28T10:38:29Z</time>
      </trkpt>
      <trkpt lat="43.383179" lon="-4.384443">
        <ele>26.972</ele>
        <time>2022-08-28T10:38:31Z</time>
      </trkpt>
      <trkpt lat="43.383199" lon="-4.384366">
        <ele>26.817</ele>
        <time>2022-08-28T10:38:33Z</time>
      </trkpt>
      <trkpt lat="43.383216" lon="-4.384284">
        <ele>26.711</ele>
        <time>2022-08-28T10:38:35Z</time>
      </trkpt>
      <trkpt lat="43.383238" lon="-4.384206">
        <ele>26.727</ele>
        <time>2022-08-28T10:38:37Z</time>
      </trkpt>
      <trkpt lat="43.383255" lon="-4.384131">
        <ele>26.930</ele>
        <time>2022-08-28T10:38:39Z</time>
      </trkpt>
      <trkpt lat="43.383272" lon="-4.384056">
        <ele>27.171</ele>
        <time>2022-08-28T10:38:41Z</time>
      </trkpt>
      <trkpt lat="43.383297" lon="-4.383981">
        <ele>27.589</ele>
        <time>2022-08-28T10:38:43Z</time>
      </trkpt>
      <trkpt lat="43.383320" lon="-4.383908">
        <ele>27.806</ele>
        <time>2022-08-28T10:38:45Z</time>
      </trkpt>
      <trkpt lat="43.383337" lon="-4.383835">
        <ele>28.326</ele>
        <time>2022-08-28T10:38:47Z</time>
      </trkpt>
      <trkpt lat="43.383352" lon="-4.383753">
        <ele>28.909</ele>
        <time>2022-08-28T10:38:49Z</time>
      </trkpt>
      <trkpt lat="43.383362" lon="-4.383671">
        <ele>29.369</ele>
        <time>2022-08-28T10:38:51Z</time>
      </trkpt>
      <trkpt lat="43.383375" lon="-4.383586">
        <ele>29.929</ele>
        <time>2022-08-28T10:38:53Z</time>
      </trkpt>
      <trkpt lat="43.383378" lon="-4.383498">
        <ele>30.440</ele>
        <time>2022-08-28T10:38:55Z</time>
      </trkpt>
      <trkpt lat="43.383365" lon="-4.383410">
        <ele>30.898</ele>
        <time>2022-08-28T10:38:57Z</time>
      </trkpt>
      <trkpt lat="43.383350" lon="-4.383327">
        <ele>31.173</ele>
        <time>2022-08-28T10:38:59Z</time>
      </trkpt>
      <trkpt lat="43.383332" lon="-4.383244">
        <ele>31.027</ele>
        <time>2022-08-28T10:39:01Z</time>
      </trkpt>
      <trkpt lat="43.383309" lon="-4.383161">
        <ele>31.153</ele>
        <time>2022-08-28T10:39:03Z</time>
      </trkpt>
      <trkpt lat="43.383282" lon="-4.383079">
        <ele>31.336</ele>
        <time>2022-08-28T10:39:05Z</time>
      </trkpt>
      <trkpt lat="43.383247" lon="-4.383011">
        <ele>31.637</ele>
        <time>2022-08-28T10:39:07Z</time>
      </trkpt>
      <trkpt lat="43.383207" lon="-4.382948">
        <ele>31.993</ele>
        <time>2022-08-28T10:39:09Z</time>
      </trkpt>
      <trkpt lat="43.383164" lon="-4.382885">
        <ele>32.265</ele>
        <time>2022-08-28T10:39:11Z</time>
      </trkpt>
      <trkpt lat="43.383121" lon="-4.382830">
        <ele>32.521</ele>
        <time>2022-08-28T10:39:13Z</time>
      </trkpt>
      <trkpt lat="43.383073" lon="-4.382778">
        <ele>32.909</ele>
        <time>2022-08-28T10:39:15Z</time>
      </trkpt>
      <trkpt lat="43.383021" lon="-4.382741">
        <ele>33.540</ele>
        <time>2022-08-28T10:39:17Z</time>
      </trkpt>
      <trkpt lat="43.382966" lon="-4.382706">
        <ele>34.040</ele>
        <time>2022-08-28T10:39:19Z</time>
      </trkpt>
      <trkpt lat="43.382918" lon="-4.382676">
        <ele>34.461</ele>
        <time>2022-08-28T10:39:21Z</time>
      </trkpt>
      <trkpt lat="43.382868" lon="-4.382648">
        <ele>34.719</ele>
        <time>2022-08-28T10:39:23Z</time>
      </trkpt>
      <trkpt lat="43.382818" lon="-4.382623">
        <ele>34.934</ele>
        <time>2022-08-28T10:39:25Z</time>
      </trkpt>
      <trkpt lat="43.382766" lon="-4.382598">
        <ele>35.148</ele>
        <time>2022-08-28T10:39:27Z</time>
      </trkpt>
      <trkpt lat="43.382718" lon="-4.382576">
        <ele>35.594</ele>
        <time>2022-08-28T10:39:29Z</time>
      </trkpt>
      <trkpt lat="43.382668" lon="-4.382553">
        <ele>35.987</ele>
        <time>2022-08-28T10:39:31Z</time>
      </trkpt>
      <trkpt lat="43.382616" lon="-4.382528">
        <ele>36.268</ele>
        <time>2022-08-28T10:39:33Z</time>
      </trkpt>
      <trkpt lat="43.382564" lon="-4.382496">
        <ele>36.613</ele>
        <time>2022-08-28T10:39:35Z</time>
      </trkpt>
      <trkpt lat="43.382511" lon="-4.382464">
        <ele>37.143</ele>
        <time>2022-08-28T10:39:37Z</time>
      </trkpt>
      <trkpt lat="43.382464" lon="-4.382437">
        <ele>37.407</ele>
        <time>2022-08-28T10:39:39Z</time>
      </trkpt>
      <trkpt lat="43.382419" lon="-4.382397">
        <ele>37.709</ele>
        <time>2022-08-28T10:39:41Z</time>
      </trkpt>
      <trkpt lat="43.382377" lon="-4.382355">
        <ele>38.042</ele>
        <time>2022-08-28T10:39:43Z</time>
      </trkpt>
      <trkpt lat="43.382342" lon="-4.382307">
        <ele>38.322</ele>
        <time>2022-08-28T10:39:45Z</time>
      </trkpt>
      <trkpt lat="43.382300" lon="-4.382260">
        <ele>38.623</ele>
        <time>2022-08-28T10:39:47Z</time>
      </trkpt>
      <trkpt lat="43.382257" lon="-4.382200">
        <ele>39.071</ele>
        <time>2022-08-28T10:39:49Z</time>
      </trkpt>
      <trkpt lat="43.382217" lon="-4.382135">
        <ele>39.316</ele>
        <time>2022-08-28T10:39:51Z</time>
      </trkpt>
      <trkpt lat="43.382177" lon="-4.382063">
        <ele>39.230</ele>
        <time>2022-08-28T10:39:53Z</time>
      </trkpt>
      <trkpt lat="43.382139" lon="-4.381995">
        <ele>39.216</ele>
        <time>2022-08-28T10:39:55Z</time>
      </trkpt>
      <trkpt lat="43.382107" lon="-4.381927">
        <ele>39.489</ele>
        <time>2022-08-28T10:39:57Z</time>
      </trkpt>
      <trkpt lat="43.382079" lon="-4.381857">
        <ele>39.970</ele>
        <time>2022-08-28T10:39:59Z</time>
      </trkpt>
      <trkpt lat="43.382047" lon="-4.381789">
        <ele>40.384</ele>
        <time>2022-08-28T10:40:01Z</time>
      </trkpt>
      <trkpt lat="43.382017" lon="-4.381719">
        <ele>40.607</ele>
        <time>2022-08-28T10:40:03Z</time>
      </trkpt>
      <trkpt lat="43.381984" lon="-4.381652">
        <ele>40.817</ele>
        <time>2022-08-28T10:40:05Z</time>
      </trkpt>
      <trkpt lat="43.381942" lon="-4.381585">
        <ele>40.809</ele>
        <time>2022-08-28T10:40:07Z</time>
      </trkpt>
      <trkpt lat="43.381902" lon="-4.381522">
        <ele>40.999</ele>
        <time>2022-08-28T10:40:09Z</time>
      </trkpt>
      <trkpt lat="43.381857" lon="-4.381462">
        <ele>41.089</ele>
        <time>2022-08-28T10:40:11Z</time>
      </trkpt>
      <trkpt lat="43.381814" lon="-4.381407">
        <ele>41.360</ele>
        <time>2022-08-28T10:40:13Z</time>
      </trkpt>
      <trkpt lat="43.381767" lon="-4.381350">
        <ele>41.858</ele>
        <time>2022-08-28T10:40:15Z</time>
      </trkpt>
      <trkpt lat="43.381720" lon="-4.381298">
        <ele>42.143</ele>
        <time>2022-08-28T10:40:17Z</time>
      </trkpt>
      <trkpt lat="43.381670" lon="-4.381251">
        <ele>42.027</ele>
        <time>2022-08-28T10:40:19Z</time>
      </trkpt>
      <trkpt lat="43.381613" lon="-4.381209">
        <ele>42.553</ele>
        <time>2022-08-28T10:40:21Z</time>
      </trkpt>
      <trkpt lat="43.381556" lon="-4.381174">
        <ele>42.976</ele>
        <time>2022-08-28T10:40:23Z</time>
      </trkpt>
      <trkpt lat="43.381504" lon="-4.381144">
        <ele>43.417</ele>
        <time>2022-08-28T10:40:25Z</time>
      </trkpt>
      <trkpt lat="43.381442" lon="-4.381124">
        <ele>43.764</ele>
        <time>2022-08-28T10:40:27Z</time>
      </trkpt>
      <trkpt lat="43.381382" lon="-4.381097">
        <ele>44.206</ele>
        <time>2022-08-28T10:40:29Z</time>
      </trkpt>
      <trkpt lat="43.381324" lon="-4.381080">
        <ele>44.416</ele>
        <time>2022-08-28T10:40:31Z</time>
      </trkpt>
      <trkpt lat="43.381269" lon="-4.381067">
        <ele>44.509</ele>
        <time>2022-08-28T10:40:33Z</time>
      </trkpt>
      <trkpt lat="43.381216" lon="-4.381049">
        <ele>44.687</ele>
        <time>2022-08-28T10:40:35Z</time>
      </trkpt>
      <trkpt lat="43.381164" lon="-4.381031">
        <ele>44.787</ele>
        <time>2022-08-28T10:40:37Z</time>
      </trkpt>
      <trkpt lat="43.381112" lon="-4.381009">
        <ele>44.718</ele>
        <time>2022-08-28T10:40:39Z</time>
      </trkpt>
      <trkpt lat="43.381057" lon="-4.380981">
        <ele>44.636</ele>
        <time>2022-08-28T10:40:41Z</time>
      </trkpt>
      <trkpt lat="43.381002" lon="-4.380951">
        <ele>44.711</ele>
        <time>2022-08-28T10:40:43Z</time>
      </trkpt>
      <trkpt lat="43.380944" lon="-4.380911">
        <ele>44.965</ele>
        <time>2022-08-28T10:40:45Z</time>
      </trkpt>
      <trkpt lat="43.380887" lon="-4.380861">
        <ele>45.631</ele>
        <time>2022-08-28T10:40:47Z</time>
      </trkpt>
      <trkpt lat="43.380832" lon="-4.380804">
        <ele>46.224</ele>
        <time>2022-08-28T10:40:49Z</time>
      </trkpt>
      <trkpt lat="43.380784" lon="-4.380746">
        <ele>46.035</ele>
        <time>2022-08-28T10:40:51Z</time>
      </trkpt>
      <trkpt lat="43.380737" lon="-4.380686">
        <ele>45.986</ele>
        <time>2022-08-28T10:40:53Z</time>
      </trkpt>
      <trkpt lat="43.380694" lon="-4.380619">
        <ele>45.960</ele>
        <time>2022-08-28T10:40:55Z</time>
      </trkpt>
      <trkpt lat="43.380657" lon="-4.380551">
        <ele>46.226</ele>
        <time>2022-08-28T10:40:57Z</time>
      </trkpt>
      <trkpt lat="43.380625" lon="-4.380478">
        <ele>46.609</ele>
        <time>2022-08-28T10:40:59Z</time>
      </trkpt>
      <trkpt lat="43.380598" lon="-4.380396">
        <ele>47.029</ele>
        <time>2022-08-28T10:41:01Z</time>
      </trkpt>
      <trkpt lat="43.380571" lon="-4.380311">
        <ele>47.189</ele>
        <time>2022-08-28T10:41:03Z</time>
      </trkpt>
      <trkpt lat="43.380544" lon="-4.380229">
        <ele>47.250</ele>
        <time>2022-08-28T10:41:05Z</time>
      </trkpt>
      <trkpt lat="43.380522" lon="-4.380144">
        <ele>47.458</ele>
        <time>2022-08-28T10:41:07Z</time>
      </trkpt>
      <trkpt lat="43.380499" lon="-4.380059">
        <ele>47.693</ele>
        <time>2022-08-28T10:41:09Z</time>
      </trkpt>
      <trkpt lat="43.380479" lon="-4.379971">
        <ele>47.957</ele>
        <time>2022-08-28T10:41:11Z</time>
      </trkpt>
      <trkpt lat="43.380456" lon="-4.379884">
        <ele>48.253</ele>
        <time>2022-08-28T10:41:13Z</time>
      </trkpt>
      <trkpt lat="43.380436" lon="-4.379801">
        <ele>48.636</ele>
        <time>2022-08-28T10:41:15Z</time>
      </trkpt>
      <trkpt lat="43.380413" lon="-4.379718">
        <ele>49.087</ele>
        <time>2022-08-28T10:41:17Z</time>
      </trkpt>
      <trkpt lat="43.380391" lon="-4.379635">
        <ele>49.377</ele>
        <time>2022-08-28T10:41:19Z</time>
      </trkpt>
      <trkpt lat="43.380369" lon="-4.379550">
        <ele>49.661</ele>
        <time>2022-08-28T10:41:21Z</time>
      </trkpt>
      <trkpt lat="43.380351" lon="-4.379467">
        <ele>49.927</ele>
        <time>2022-08-28T10:41:23Z</time>
      </trkpt>
      <trkpt lat="43.380329" lon="-4.379385">
        <ele>50.209</ele>
        <time>2022-08-28T10:41:25Z</time>
      </trkpt>
      <trkpt lat="43.380306" lon="-4.379305">
        <ele>50.578</ele>
        <time>2022-08-28T10:41:27Z</time>
      </trkpt>
      <trkpt lat="43.380288" lon="-4.379225">
        <ele>50.818</ele>
        <time>2022-08-28T10:41:29Z</time>
      </trkpt>
      <trkpt lat="43.380266" lon="-4.379140">
        <ele>51.269</ele>
        <time>2022-08-28T10:41:31Z</time>
      </trkpt>
      <trkpt lat="43.380241" lon="-4.379063">
        <ele>51.757</ele>
        <time>2022-08-28T10:41:33Z</time>
      </trkpt>
      <trkpt lat="43.380218" lon="-4.378983">
        <ele>52.232</ele>
        <time>2022-08-28T10:41:35Z</time>
      </trkpt>
      <trkpt lat="43.380196" lon="-4.378901">
        <ele>52.966</ele>
        <time>2022-08-28T10:41:37Z</time>
      </trkpt>
      <trkpt lat="43.380174" lon="-4.378824">
        <ele>53.442</ele>
        <time>2022-08-28T10:41:39Z</time>
      </trkpt>
      <trkpt lat="43.380152" lon="-4.378746">
        <ele>53.865</ele>
        <time>2022-08-28T10:41:41Z</time>
      </trkpt>
      <trkpt lat="43.380127" lon="-4.378664">
        <ele>54.126</ele>
        <time>2022-08-28T10:41:43Z</time>
      </trkpt>
      <trkpt lat="43.380095" lon="-4.378581">
        <ele>54.226</ele>
        <time>2022-08-28T10:41:45Z</time>
      </trkpt>
      <trkpt lat="43.380070" lon="-4.378499">
        <ele>54.547</ele>
        <time>2022-08-28T10:41:47Z</time>
      </trkpt>
      <trkpt lat="43.380043" lon="-4.378424">
        <ele>54.511</ele>
        <time>2022-08-28T10:41:49Z</time>
      </trkpt>
      <trkpt lat="43.380015" lon="-4.378346">
        <ele>54.309</ele>
        <time>2022-08-28T10:41:51Z</time>
      </trkpt>
      <trkpt lat="43.379975" lon="-4.378269">
        <ele>54.333</ele>
        <time>2022-08-28T10:41:53Z</time>
      </trkpt>
      <trkpt lat="43.379935" lon="-4.378201">
        <ele>54.673</ele>
        <time>2022-08-28T10:41:55Z</time>
      </trkpt>
      <trkpt lat="43.379897" lon="-4.378133">
        <ele>55.014</ele>
        <time>2022-08-28T10:41:57Z</time>
      </trkpt>
      <trkpt lat="43.379855" lon="-4.378071">
        <ele>55.352</ele>
        <time>2022-08-28T10:41:59Z</time>
      </trkpt>
      <trkpt lat="43.379818" lon="-4.378004">
        <ele>55.887</ele>
        <time>2022-08-28T10:42:01Z</time>
      </trkpt>
      <trkpt lat="43.379776" lon="-4.377941">
        <ele>56.231</ele>
        <time>2022-08-28T10:42:03Z</time>
      </trkpt>
      <trkpt lat="43.379734" lon="-4.377886">
        <ele>56.317</ele>
        <time>2022-08-28T10:42:05Z</time>
      </trkpt>
      <trkpt lat="43.379689" lon="-4.377828">
        <ele>56.510</ele>
        <time>2022-08-28T10:42:07Z</time>
      </trkpt>
      <trkpt lat="43.379644" lon="-4.377773">
        <ele>56.851</ele>
        <time>2022-08-28T10:42:09Z</time>
      </trkpt>
      <trkpt lat="43.379601" lon="-4.377715">
        <ele>57.452</ele>
        <time>2022-08-28T10:42:11Z</time>
      </trkpt>
      <trkpt lat="43.379546" lon="-4.377668">
        <ele>57.753</ele>
        <time>2022-08-28T10:42:13Z</time>
      </trkpt>
      <trkpt lat="43.379493" lon="-4.377626">
        <ele>57.908</ele>
        <time>2022-08-28T10:42:15Z</time>
      </trkpt>
      <trkpt lat="43.379445" lon="-4.377584">
        <ele>58.109</ele>
        <time>2022-08-28T10:42:17Z</time>
      </trkpt>
      <trkpt lat="43.379398" lon="-4.377549">
        <ele>58.446</ele>
        <time>2022-08-28T10:42:19Z</time>
      </trkpt>
      <trkpt lat="43.379343" lon="-4.377521">
        <ele>58.766</ele>
        <time>2022-08-28T10:42:21Z</time>
      </trkpt>
      <trkpt lat="43.379285" lon="-4.377503">
        <ele>58.987</ele>
        <time>2022-08-28T10:42:23Z</time>
      </trkpt>
      <trkpt lat="43.379222" lon="-4.377475">
        <ele>59.425</ele>
        <time>2022-08-28T10:42:25Z</time>
      </trkpt>
      <trkpt lat="43.379165" lon="-4.377452">
        <ele>59.760</ele>
        <time>2022-08-28T10:42:27Z</time>
      </trkpt>
      <trkpt lat="43.379120" lon="-4.377439">
        <ele>60.314</ele>
        <time>2022-08-28T10:42:29Z</time>
      </trkpt>
      <trkpt lat="43.379057" lon="-4.377422">
        <ele>61.040</ele>
        <time>2022-08-28T10:42:32Z</time>
      </trkpt>
      <trkpt lat="43.378992" lon="-4.377400">
        <ele>61.693</ele>
        <time>2022-08-28T10:42:35Z</time>
      </trkpt>
      <trkpt lat="43.378944" lon="-4.377378">
        <ele>62.124</ele>
        <time>2022-08-28T10:42:37Z</time>
      </trkpt>
      <trkpt lat="43.378897" lon="-4.377355">
        <ele>62.544</ele>
        <time>2022-08-28T10:42:39Z</time>
      </trkpt>
      <trkpt lat="43.378835" lon="-4.377322">
        <ele>63.005</ele>
        <time>2022-08-28T10:42:42Z</time>
      </trkpt>
      <trkpt lat="43.378793" lon="-4.377292">
        <ele>63.415</ele>
        <time>2022-08-28T10:42:44Z</time>
      </trkpt>
      <trkpt lat="43.378750" lon="-4.377260">
        <ele>63.909</ele>
        <time>2022-08-28T10:42:46Z</time>
      </trkpt>
      <trkpt lat="43.378710" lon="-4.377223">
        <ele>64.385</ele>
        <time>2022-08-28T10:42:48Z</time>
      </trkpt>
      <trkpt lat="43.378672" lon="-4.377186">
        <ele>64.945</ele>
        <time>2022-08-28T10:42:50Z</time>
      </trkpt>
      <trkpt lat="43.378635" lon="-4.377144">
        <ele>65.326</ele>
        <time>2022-08-28T10:42:52Z</time>
      </trkpt>
      <trkpt lat="43.378602" lon="-4.377096">
        <ele>65.594</ele>
        <time>2022-08-28T10:42:54Z</time>
      </trkpt>
      <trkpt lat="43.378569" lon="-4.377048">
        <ele>65.629</ele>
        <time>2022-08-28T10:42:56Z</time>
      </trkpt>
      <trkpt lat="43.378537" lon="-4.376996">
        <ele>65.853</ele>
        <time>2022-08-28T10:42:58Z</time>
      </trkpt>
      <trkpt lat="43.378509" lon="-4.376941">
        <ele>66.019</ele>
        <time>2022-08-28T10:43:00Z</time>
      </trkpt>
      <trkpt lat="43.378481" lon="-4.376873">
        <ele>66.412</ele>
        <time>2022-08-28T10:43:02Z</time>
      </trkpt>
      <trkpt lat="43.378456" lon="-4.376801">
        <ele>66.753</ele>
        <time>2022-08-28T10:43:04Z</time>
      </trkpt>
      <trkpt lat="43.378439" lon="-4.376723">
        <ele>66.985</ele>
        <time>2022-08-28T10:43:06Z</time>
      </trkpt>
      <trkpt lat="43.378419" lon="-4.376645">
        <ele>67.089</ele>
        <time>2022-08-28T10:43:08Z</time>
      </trkpt>
      <trkpt lat="43.378397" lon="-4.376562">
        <ele>67.217</ele>
        <time>2022-08-28T10:43:10Z</time>
      </trkpt>
      <trkpt lat="43.378380" lon="-4.376477">
        <ele>67.309</ele>
        <time>2022-08-28T10:43:12Z</time>
      </trkpt>
      <trkpt lat="43.378367" lon="-4.376394">
        <ele>67.529</ele>
        <time>2022-08-28T10:43:14Z</time>
      </trkpt>
      <trkpt lat="43.378365" lon="-4.376309">
        <ele>67.239</ele>
        <time>2022-08-28T10:43:16Z</time>
      </trkpt>
      <trkpt lat="43.378367" lon="-4.376217">
        <ele>67.050</ele>
        <time>2022-08-28T10:43:18Z</time>
      </trkpt>
      <trkpt lat="43.378365" lon="-4.376115">
        <ele>66.718</ele>
        <time>2022-08-28T10:43:20Z</time>
      </trkpt>
      <trkpt lat="43.378362" lon="-4.376020">
        <ele>66.953</ele>
        <time>2022-08-28T10:43:22Z</time>
      </trkpt>
      <trkpt lat="43.378354" lon="-4.375927">
        <ele>67.167</ele>
        <time>2022-08-28T10:43:24Z</time>
      </trkpt>
      <trkpt lat="43.378346" lon="-4.375834">
        <ele>67.253</ele>
        <time>2022-08-28T10:43:26Z</time>
      </trkpt>
      <trkpt lat="43.378339" lon="-4.375744">
        <ele>67.416</ele>
        <time>2022-08-28T10:43:28Z</time>
      </trkpt>
      <trkpt lat="43.378324" lon="-4.375657">
        <ele>67.567</ele>
        <time>2022-08-28T10:43:30Z</time>
      </trkpt>
      <trkpt lat="43.378312" lon="-4.375569">
        <ele>67.666</ele>
        <time>2022-08-28T10:43:32Z</time>
      </trkpt>
      <trkpt lat="43.378302" lon="-4.375476">
        <ele>68.029</ele>
        <time>2022-08-28T10:43:34Z</time>
      </trkpt>
      <trkpt lat="43.378292" lon="-4.375389">
        <ele>68.521</ele>
        <time>2022-08-28T10:43:36Z</time>
      </trkpt>
      <trkpt lat="43.378275" lon="-4.375301">
        <ele>69.009</ele>
        <time>2022-08-28T10:43:38Z</time>
      </trkpt>
      <trkpt lat="43.378260" lon="-4.375204">
        <ele>69.337</ele>
        <time>2022-08-28T10:43:40Z</time>
      </trkpt>
      <trkpt lat="43.378240" lon="-4.375107">
        <ele>69.757</ele>
        <time>2022-08-28T10:43:42Z</time>
      </trkpt>
      <trkpt lat="43.378218" lon="-4.375015">
        <ele>70.158</ele>
        <time>2022-08-28T10:43:44Z</time>
      </trkpt>
      <trkpt lat="43.378196" lon="-4.374930">
        <ele>70.546</ele>
        <time>2022-08-28T10:43:46Z</time>
      </trkpt>
      <trkpt lat="43.378174" lon="-4.374843">
        <ele>71.051</ele>
        <time>2022-08-28T10:43:48Z</time>
      </trkpt>
      <trkpt lat="43.378144" lon="-4.374756">
        <ele>71.485</ele>
        <time>2022-08-28T10:43:50Z</time>
      </trkpt>
      <trkpt lat="43.378112" lon="-4.374668">
        <ele>71.681</ele>
        <time>2022-08-28T10:43:52Z</time>
      </trkpt>
      <trkpt lat="43.378080" lon="-4.374578">
        <ele>71.734</ele>
        <time>2022-08-28T10:43:54Z</time>
      </trkpt>
      <trkpt lat="43.378048" lon="-4.374501">
        <ele>71.785</ele>
        <time>2022-08-28T10:43:56Z</time>
      </trkpt>
      <trkpt lat="43.378011" lon="-4.374419">
        <ele>71.711</ele>
        <time>2022-08-28T10:43:58Z</time>
      </trkpt>
      <trkpt lat="43.377973" lon="-4.374341">
        <ele>72.121</ele>
        <time>2022-08-28T10:44:00Z</time>
      </trkpt>
      <trkpt lat="43.377935" lon="-4.374268">
        <ele>72.503</ele>
        <time>2022-08-28T10:44:02Z</time>
      </trkpt>
      <trkpt lat="43.377898" lon="-4.374200">
        <ele>73.109</ele>
        <time>2022-08-28T10:44:04Z</time>
      </trkpt>
      <trkpt lat="43.377855" lon="-4.374128">
        <ele>73.632</ele>
        <time>2022-08-28T10:44:06Z</time>
      </trkpt>
      <trkpt lat="43.377812" lon="-4.374056">
        <ele>73.742</ele>
        <time>2022-08-28T10:44:08Z</time>
      </trkpt>
      <trkpt lat="43.377764" lon="-4.373989">
        <ele>73.623</ele>
        <time>2022-08-28T10:44:10Z</time>
      </trkpt>
      <trkpt lat="43.377719" lon="-4.373929">
        <ele>73.831</ele>
        <time>2022-08-28T10:44:12Z</time>
      </trkpt>
      <trkpt lat="43.377669" lon="-4.373872">
        <ele>74.246</ele>
        <time>2022-08-28T10:44:14Z</time>
      </trkpt>
      <trkpt lat="43.377617" lon="-4.373814">
        <ele>74.750</ele>
        <time>2022-08-28T10:44:16Z</time>
      </trkpt>
      <trkpt lat="43.377559" lon="-4.373762">
        <ele>74.836</ele>
        <time>2022-08-28T10:44:18Z</time>
      </trkpt>
      <trkpt lat="43.377502" lon="-4.373707">
        <ele>74.799</ele>
        <time>2022-08-28T10:44:20Z</time>
      </trkpt>
      <trkpt lat="43.377444" lon="-4.373652">
        <ele>74.920</ele>
        <time>2022-08-28T10:44:22Z</time>
      </trkpt>
      <trkpt lat="43.377384" lon="-4.373602">
        <ele>75.584</ele>
        <time>2022-08-28T10:44:24Z</time>
      </trkpt>
      <trkpt lat="43.377319" lon="-4.373550">
        <ele>76.007</ele>
        <time>2022-08-28T10:44:26Z</time>
      </trkpt>
      <trkpt lat="43.377261" lon="-4.373500">
        <ele>76.117</ele>
        <time>2022-08-28T10:44:28Z</time>
      </trkpt>
      <trkpt lat="43.377208" lon="-4.373452">
        <ele>75.909</ele>
        <time>2022-08-28T10:44:30Z</time>
      </trkpt>
      <trkpt lat="43.377148" lon="-4.373412">
        <ele>75.569</ele>
        <time>2022-08-28T10:44:32Z</time>
      </trkpt>
      <trkpt lat="43.377081" lon="-4.373384">
        <ele>75.289</ele>
        <time>2022-08-28T10:44:34Z</time>
      </trkpt>
      <trkpt lat="43.377004" lon="-4.373349">
        <ele>75.150</ele>
        <time>2022-08-28T10:44:36Z</time>
      </trkpt>
      <trkpt lat="43.376927" lon="-4.373319">
        <ele>75.138</ele>
        <time>2022-08-28T10:44:38Z</time>
      </trkpt>
      <trkpt lat="43.376852" lon="-4.373291">
        <ele>75.253</ele>
        <time>2022-08-28T10:44:40Z</time>
      </trkpt>
      <trkpt lat="43.376782" lon="-4.373263">
        <ele>75.377</ele>
        <time>2022-08-28T10:44:42Z</time>
      </trkpt>
      <trkpt lat="43.376702" lon="-4.373243">
        <ele>75.163</ele>
        <time>2022-08-28T10:44:44Z</time>
      </trkpt>
      <trkpt lat="43.376619" lon="-4.373228">
        <ele>75.176</ele>
        <time>2022-08-28T10:44:46Z</time>
      </trkpt>
      <trkpt lat="43.376537" lon="-4.373215">
        <ele>75.327</ele>
        <time>2022-08-28T10:44:48Z</time>
      </trkpt>
      <trkpt lat="43.376454" lon="-4.373213">
        <ele>75.395</ele>
        <time>2022-08-28T10:44:50Z</time>
      </trkpt>
      <trkpt lat="43.376379" lon="-4.373213">
        <ele>75.349</ele>
        <time>2022-08-28T10:44:52Z</time>
      </trkpt>
      <trkpt lat="43.376302" lon="-4.373216">
        <ele>75.623</ele>
        <time>2022-08-28T10:44:54Z</time>
      </trkpt>
      <trkpt lat="43.376229" lon="-4.373223">
        <ele>75.809</ele>
        <time>2022-08-28T10:44:56Z</time>
      </trkpt>
      <trkpt lat="43.376162" lon="-4.373231">
        <ele>75.960</ele>
        <time>2022-08-28T10:44:58Z</time>
      </trkpt>
      <trkpt lat="43.376089" lon="-4.373244">
        <ele>76.190</ele>
        <time>2022-08-28T10:45:00Z</time>
      </trkpt>
      <trkpt lat="43.376004" lon="-4.373251">
        <ele>76.481</ele>
        <time>2022-08-28T10:45:02Z</time>
      </trkpt>
      <trkpt lat="43.375927" lon="-4.373244">
        <ele>76.959</ele>
        <time>2022-08-28T10:45:04Z</time>
      </trkpt>
      <trkpt lat="43.375862" lon="-4.373259">
        <ele>77.164</ele>
        <time>2022-08-28T10:45:06Z</time>
      </trkpt>
      <trkpt lat="43.375797" lon="-4.373266">
        <ele>77.268</ele>
        <time>2022-08-28T10:45:08Z</time>
      </trkpt>
      <trkpt lat="43.375734" lon="-4.373268">
        <ele>77.254</ele>
        <time>2022-08-28T10:45:10Z</time>
      </trkpt>
      <trkpt lat="43.375659" lon="-4.373276">
        <ele>77.257</ele>
        <time>2022-08-28T10:45:12Z</time>
      </trkpt>
      <trkpt lat="43.375579" lon="-4.373289">
        <ele>77.258</ele>
        <time>2022-08-28T10:45:14Z</time>
      </trkpt>
      <trkpt lat="43.375501" lon="-4.373301">
        <ele>77.116</ele>
        <time>2022-08-28T10:45:16Z</time>
      </trkpt>
      <trkpt lat="43.375418" lon="-4.373293">
        <ele>77.276</ele>
        <time>2022-08-28T10:45:18Z</time>
      </trkpt>
      <trkpt lat="43.375365" lon="-4.373280">
        <ele>77.313</ele>
        <time>2022-08-28T10:45:19Z</time>
      </trkpt>
      <trkpt lat="43.375287" lon="-4.373278">
        <ele>77.409</ele>
        <time>2022-08-28T10:45:21Z</time>
      </trkpt>
      <trkpt lat="43.375209" lon="-4.373281">
        <ele>77.422</ele>
        <time>2022-08-28T10:45:23Z</time>
      </trkpt>
      <trkpt lat="43.375129" lon="-4.373281">
        <ele>77.582</ele>
        <time>2022-08-28T10:45:25Z</time>
      </trkpt>
      <trkpt lat="43.375051" lon="-4.373284">
        <ele>77.523</ele>
        <time>2022-08-28T10:45:27Z</time>
      </trkpt>
      <trkpt lat="43.374974" lon="-4.373291">
        <ele>77.471</ele>
        <time>2022-08-28T10:45:29Z</time>
      </trkpt>
      <trkpt lat="43.374902" lon="-4.373291">
        <ele>77.216</ele>
        <time>2022-08-28T10:45:31Z</time>
      </trkpt>
      <trkpt lat="43.374834" lon="-4.373278">
        <ele>77.160</ele>
        <time>2022-08-28T10:45:33Z</time>
      </trkpt>
      <trkpt lat="43.374762" lon="-4.373268">
        <ele>77.046</ele>
        <time>2022-08-28T10:45:35Z</time>
      </trkpt>
      <trkpt lat="43.374680" lon="-4.373243">
        <ele>77.589</ele>
        <time>2022-08-28T10:45:37Z</time>
      </trkpt>
      <trkpt lat="43.374598" lon="-4.373211">
        <ele>78.180</ele>
        <time>2022-08-28T10:45:39Z</time>
      </trkpt>
      <trkpt lat="43.374525" lon="-4.373176">
        <ele>78.562</ele>
        <time>2022-08-28T10:45:41Z</time>
      </trkpt>
      <trkpt lat="43.374445" lon="-4.373128">
        <ele>78.783</ele>
        <time>2022-08-28T10:45:43Z</time>
      </trkpt>
      <trkpt lat="43.374373" lon="-4.373075">
        <ele>79.211</ele>
        <time>2022-08-28T10:45:45Z</time>
      </trkpt>
      <trkpt lat="43.374306" lon="-4.373012">
        <ele>79.609</ele>
        <time>2022-08-28T10:45:47Z</time>
      </trkpt>
      <trkpt lat="43.374269" lon="-4.372975">
        <ele>79.677</ele>
        <time>2022-08-28T10:45:48Z</time>
      </trkpt>
      <trkpt lat="43.374204" lon="-4.372897">
        <ele>79.177</ele>
        <time>2022-08-28T10:45:50Z</time>
      </trkpt>
      <trkpt lat="43.374144" lon="-4.372810">
        <ele>78.338</ele>
        <time>2022-08-28T10:45:52Z</time>
      </trkpt>
      <trkpt lat="43.374084" lon="-4.372707">
        <ele>78.876</ele>
        <time>2022-08-28T10:45:54Z</time>
      </trkpt>
      <trkpt lat="43.374057" lon="-4.372650">
        <ele>79.381</ele>
        <time>2022-08-28T10:45:55Z</time>
      </trkpt>
      <trkpt lat="43.374017" lon="-4.372532">
        <ele>80.375</ele>
        <time>2022-08-28T10:45:57Z</time>
      </trkpt>
      <trkpt lat="43.373987" lon="-4.372420">
        <ele>80.771</ele>
        <time>2022-08-28T10:45:59Z</time>
      </trkpt>
      <trkpt lat="43.373974" lon="-4.372293">
        <ele>80.634</ele>
        <time>2022-08-28T10:46:01Z</time>
      </trkpt>
      <trkpt lat="43.373969" lon="-4.372165">
        <ele>80.525</ele>
        <time>2022-08-28T10:46:03Z</time>
      </trkpt>
      <trkpt lat="43.373972" lon="-4.372098">
        <ele>80.482</ele>
        <time>2022-08-28T10:46:04Z</time>
      </trkpt>
      <trkpt lat="43.373980" lon="-4.371965">
        <ele>80.343</ele>
        <time>2022-08-28T10:46:06Z</time>
      </trkpt>
      <trkpt lat="43.373988" lon="-4.371900">
        <ele>80.217</ele>
        <time>2022-08-28T10:46:07Z</time>
      </trkpt>
      <trkpt lat="43.374001" lon="-4.371833">
        <ele>79.909</ele>
        <time>2022-08-28T10:46:08Z</time>
      </trkpt>
      <trkpt lat="43.374031" lon="-4.371700">
        <ele>79.349</ele>
        <time>2022-08-28T10:46:10Z</time>
      </trkpt>
      <trkpt lat="43.374066" lon="-4.371568">
        <ele>78.549</ele>
        <time>2022-08-28T10:46:12Z</time>
      </trkpt>
      <trkpt lat="43.374079" lon="-4.371500">
        <ele>78.280</ele>
        <time>2022-08-28T10:46:13Z</time>
      </trkpt>
      <trkpt lat="43.374096" lon="-4.371430">
        <ele>78.038</ele>
        <time>2022-08-28T10:46:14Z</time>
      </trkpt>
      <trkpt lat="43.374114" lon="-4.371360">
        <ele>77.793</ele>
        <time>2022-08-28T10:46:15Z</time>
      </trkpt>
      <trkpt lat="43.374147" lon="-4.371220">
        <ele>77.297</ele>
        <time>2022-08-28T10:46:17Z</time>
      </trkpt>
      <trkpt lat="43.374162" lon="-4.371152">
        <ele>77.133</ele>
        <time>2022-08-28T10:46:18Z</time>
      </trkpt>
      <trkpt lat="43.374180" lon="-4.371012">
        <ele>77.466</ele>
        <time>2022-08-28T10:46:20Z</time>
      </trkpt>
      <trkpt lat="43.374188" lon="-4.370944">
        <ele>77.787</ele>
        <time>2022-08-28T10:46:21Z</time>
      </trkpt>
      <trkpt lat="43.374190" lon="-4.370786">
        <ele>77.664</ele>
        <time>2022-08-28T10:46:23Z</time>
      </trkpt>
      <trkpt lat="43.374188" lon="-4.370721">
        <ele>77.606</ele>
        <time>2022-08-28T10:46:24Z</time>
      </trkpt>
      <trkpt lat="43.374170" lon="-4.370593">
        <ele>77.116</ele>
        <time>2022-08-28T10:46:26Z</time>
      </trkpt>
      <trkpt lat="43.374148" lon="-4.370475">
        <ele>76.709</ele>
        <time>2022-08-28T10:46:28Z</time>
      </trkpt>
      <trkpt lat="43.374121" lon="-4.370355">
        <ele>76.277</ele>
        <time>2022-08-28T10:46:30Z</time>
      </trkpt>
      <trkpt lat="43.374109" lon="-4.370238">
        <ele>76.497</ele>
        <time>2022-08-28T10:46:32Z</time>
      </trkpt>
      <trkpt lat="43.374096" lon="-4.370145">
        <ele>76.828</ele>
        <time>2022-08-28T10:46:34Z</time>
      </trkpt>
      <trkpt lat="43.374081" lon="-4.370043">
        <ele>77.296</ele>
        <time>2022-08-28T10:46:36Z</time>
      </trkpt>
      <trkpt lat="43.374056" lon="-4.369946">
        <ele>77.041</ele>
        <time>2022-08-28T10:46:38Z</time>
      </trkpt>
      <trkpt lat="43.374038" lon="-4.369851">
        <ele>77.025</ele>
        <time>2022-08-28T10:46:40Z</time>
      </trkpt>
      <trkpt lat="43.374013" lon="-4.369739">
        <ele>77.141</ele>
        <time>2022-08-28T10:46:42Z</time>
      </trkpt>
      <trkpt lat="43.373998" lon="-4.369634">
        <ele>77.634</ele>
        <time>2022-08-28T10:46:44Z</time>
      </trkpt>
      <trkpt lat="43.373980" lon="-4.369517">
        <ele>78.135</ele>
        <time>2022-08-28T10:46:46Z</time>
      </trkpt>
      <trkpt lat="43.373958" lon="-4.369400">
        <ele>78.438</ele>
        <time>2022-08-28T10:46:48Z</time>
      </trkpt>
      <trkpt lat="43.373916" lon="-4.369287">
        <ele>78.170</ele>
        <time>2022-08-28T10:46:50Z</time>
      </trkpt>
      <trkpt lat="43.373863" lon="-4.369169">
        <ele>77.617</ele>
        <time>2022-08-28T10:46:52Z</time>
      </trkpt>
      <trkpt lat="43.373808" lon="-4.369024">
        <ele>77.309</ele>
        <time>2022-08-28T10:46:54Z</time>
      </trkpt>
      <trkpt lat="43.373796" lon="-4.368937">
        <ele>77.594</ele>
        <time>2022-08-28T10:46:55Z</time>
      </trkpt>
      <trkpt lat="43.373806" lon="-4.368864">
        <ele>77.834</ele>
        <time>2022-08-28T10:46:56Z</time>
      </trkpt>
      <trkpt lat="43.373828" lon="-4.368797">
        <ele>78.125</ele>
        <time>2022-08-28T10:46:57Z</time>
      </trkpt>
      <trkpt lat="43.373878" lon="-4.368682">
        <ele>78.723</ele>
        <time>2022-08-28T10:46:59Z</time>
      </trkpt>
      <trkpt lat="43.373906" lon="-4.368624">
        <ele>79.398</ele>
        <time>2022-08-28T10:47:00Z</time>
      </trkpt>
      <trkpt lat="43.373948" lon="-4.368516">
        <ele>80.862</ele>
        <time>2022-08-28T10:47:02Z</time>
      </trkpt>
      <trkpt lat="43.373978" lon="-4.368413">
        <ele>81.818</ele>
        <time>2022-08-28T10:47:04Z</time>
      </trkpt>
      <trkpt lat="43.374003" lon="-4.368320">
        <ele>82.511</ele>
        <time>2022-08-28T10:47:06Z</time>
      </trkpt>
      <trkpt lat="43.374030" lon="-4.368227">
        <ele>82.982</ele>
        <time>2022-08-28T10:47:08Z</time>
      </trkpt>
      <trkpt lat="43.374058" lon="-4.368135">
        <ele>83.238</ele>
        <time>2022-08-28T10:47:10Z</time>
      </trkpt>
      <trkpt lat="43.374081" lon="-4.368055">
        <ele>83.370</ele>
        <time>2022-08-28T10:47:12Z</time>
      </trkpt>
      <trkpt lat="43.374098" lon="-4.367978">
        <ele>83.417</ele>
        <time>2022-08-28T10:47:14Z</time>
      </trkpt>
      <trkpt lat="43.374110" lon="-4.367908">
        <ele>83.409</ele>
        <time>2022-08-28T10:47:16Z</time>
      </trkpt>
      <trkpt lat="43.374132" lon="-4.367846">
        <ele>83.314</ele>
        <time>2022-08-28T10:47:18Z</time>
      </trkpt>
      <trkpt lat="43.374155" lon="-4.367759">
        <ele>83.274</ele>
        <time>2022-08-28T10:47:21Z</time>
      </trkpt>
      <trkpt lat="43.374173" lon="-4.367689">
        <ele>83.335</ele>
        <time>2022-08-28T10:47:23Z</time>
      </trkpt>
      <trkpt lat="43.374185" lon="-4.367616">
        <ele>83.653</ele>
        <time>2022-08-28T10:47:25Z</time>
      </trkpt>
      <trkpt lat="43.374208" lon="-4.367533">
        <ele>83.858</ele>
        <time>2022-08-28T10:47:27Z</time>
      </trkpt>
      <trkpt lat="43.374230" lon="-4.367443">
        <ele>83.832</ele>
        <time>2022-08-28T10:47:29Z</time>
      </trkpt>
      <trkpt lat="43.374257" lon="-4.367350">
        <ele>83.758</ele>
        <time>2022-08-28T10:47:31Z</time>
      </trkpt>
      <trkpt lat="43.374284" lon="-4.367252">
        <ele>83.661</ele>
        <time>2022-08-28T10:47:33Z</time>
      </trkpt>
      <trkpt lat="43.374312" lon="-4.367144">
        <ele>83.352</ele>
        <time>2022-08-28T10:47:35Z</time>
      </trkpt>
      <trkpt lat="43.374340" lon="-4.367031">
        <ele>82.883</ele>
        <time>2022-08-28T10:47:37Z</time>
      </trkpt>
      <trkpt lat="43.374353" lon="-4.366969">
        <ele>82.425</ele>
        <time>2022-08-28T10:47:38Z</time>
      </trkpt>
      <trkpt lat="43.374383" lon="-4.366842">
        <ele>82.117</ele>
        <time>2022-08-28T10:47:40Z</time>
      </trkpt>
      <trkpt lat="43.374423" lon="-4.366712">
        <ele>82.009</ele>
        <time>2022-08-28T10:47:42Z</time>
      </trkpt>
      <trkpt lat="43.374471" lon="-4.366575">
        <ele>81.619</ele>
        <time>2022-08-28T10:47:44Z</time>
      </trkpt>
      <trkpt lat="43.374503" lon="-4.366505">
        <ele>81.239</ele>
        <time>2022-08-28T10:47:45Z</time>
      </trkpt>
      <trkpt lat="43.374571" lon="-4.366367">
        <ele>80.820</ele>
        <time>2022-08-28T10:47:47Z</time>
      </trkpt>
      <trkpt lat="43.374651" lon="-4.366230">
        <ele>81.278</ele>
        <time>2022-08-28T10:47:49Z</time>
      </trkpt>
      <trkpt lat="43.374691" lon="-4.366158">
        <ele>81.633</ele>
        <time>2022-08-28T10:47:50Z</time>
      </trkpt>
      <trkpt lat="43.374783" lon="-4.366013">
        <ele>80.957</ele>
        <time>2022-08-28T10:47:52Z</time>
      </trkpt>
      <trkpt lat="43.374883" lon="-4.365860">
        <ele>80.363</ele>
        <time>2022-08-28T10:47:54Z</time>
      </trkpt>
      <trkpt lat="43.374935" lon="-4.365783">
        <ele>80.286</ele>
        <time>2022-08-28T10:47:55Z</time>
      </trkpt>
      <trkpt lat="43.374985" lon="-4.365706">
        <ele>80.097</ele>
        <time>2022-08-28T10:47:56Z</time>
      </trkpt>
      <trkpt lat="43.375037" lon="-4.365626">
        <ele>79.716</ele>
        <time>2022-08-28T10:47:57Z</time>
      </trkpt>
      <trkpt lat="43.375139" lon="-4.365468">
        <ele>79.076</ele>
        <time>2022-08-28T10:47:59Z</time>
      </trkpt>
      <trkpt lat="43.375191" lon="-4.365391">
        <ele>78.813</ele>
        <time>2022-08-28T10:48:00Z</time>
      </trkpt>
      <trkpt lat="43.375296" lon="-4.365236">
        <ele>78.709</ele>
        <time>2022-08-28T10:48:02Z</time>
      </trkpt>
      <trkpt lat="43.375351" lon="-4.365159">
        <ele>78.452</ele>
        <time>2022-08-28T10:48:03Z</time>
      </trkpt>
      <trkpt lat="43.375408" lon="-4.365084">
        <ele>78.312</ele>
        <time>2022-08-28T10:48:04Z</time>
      </trkpt>
      <trkpt lat="43.375523" lon="-4.364937">
        <ele>78.683</ele>
        <time>2022-08-28T10:48:06Z</time>
      </trkpt>
      <trkpt lat="43.375641" lon="-4.364799">
        <ele>78.471</ele>
        <time>2022-08-28T10:48:08Z</time>
      </trkpt>
      <trkpt lat="43.375763" lon="-4.364662">
        <ele>78.736</ele>
        <time>2022-08-28T10:48:10Z</time>
      </trkpt>
      <trkpt lat="43.375888" lon="-4.364529">
        <ele>78.930</ele>
        <time>2022-08-28T10:48:12Z</time>
      </trkpt>
      <trkpt lat="43.375948" lon="-4.364459">
        <ele>79.046</ele>
        <time>2022-08-28T10:48:13Z</time>
      </trkpt>
      <trkpt lat="43.376070" lon="-4.364316">
        <ele>78.549</ele>
        <time>2022-08-28T10:48:15Z</time>
      </trkpt>
      <trkpt lat="43.376192" lon="-4.364173">
        <ele>78.310</ele>
        <time>2022-08-28T10:48:17Z</time>
      </trkpt>
      <trkpt lat="43.376254" lon="-4.364100">
        <ele>78.361</ele>
        <time>2022-08-28T10:48:18Z</time>
      </trkpt>
      <trkpt lat="43.376372" lon="-4.363948">
        <ele>77.521</ele>
        <time>2022-08-28T10:48:20Z</time>
      </trkpt>
      <trkpt lat="43.376430" lon="-4.363870">
        <ele>76.813</ele>
        <time>2022-08-28T10:48:21Z</time>
      </trkpt>
      <trkpt lat="43.376548" lon="-4.363705">
        <ele>76.009</ele>
        <time>2022-08-28T10:48:23Z</time>
      </trkpt>
      <trkpt lat="43.376660" lon="-4.363522">
        <ele>74.747</ele>
        <time>2022-08-28T10:48:25Z</time>
      </trkpt>
      <trkpt lat="43.376717" lon="-4.363430">
        <ele>74.267</ele>
        <time>2022-08-28T10:48:26Z</time>
      </trkpt>
      <trkpt lat="43.376775" lon="-4.363337">
        <ele>74.068</ele>
        <time>2022-08-28T10:48:27Z</time>
      </trkpt>
      <trkpt lat="43.376885" lon="-4.363145">
        <ele>73.376</ele>
        <time>2022-08-28T10:48:29Z</time>
      </trkpt>
      <trkpt lat="43.376993" lon="-4.362938">
        <ele>72.171</ele>
        <time>2022-08-28T10:48:31Z</time>
      </trkpt>
      <trkpt lat="43.377046" lon="-4.362828">
        <ele>71.665</ele>
        <time>2022-08-28T10:48:32Z</time>
      </trkpt>
      <trkpt lat="43.377149" lon="-4.362605">
        <ele>71.161</ele>
        <time>2022-08-28T10:48:34Z</time>
      </trkpt>
      <trkpt lat="43.377202" lon="-4.362492">
        <ele>70.974</ele>
        <time>2022-08-28T10:48:35Z</time>
      </trkpt>
      <trkpt lat="43.377300" lon="-4.362260">
        <ele>70.115</ele>
        <time>2022-08-28T10:48:37Z</time>
      </trkpt>
      <trkpt lat="43.377347" lon="-4.362140">
        <ele>69.632</ele>
        <time>2022-08-28T10:48:38Z</time>
      </trkpt>
      <trkpt lat="43.377424" lon="-4.361902">
        <ele>69.792</ele>
        <time>2022-08-28T10:48:40Z</time>
      </trkpt>
      <trkpt lat="43.377494" lon="-4.361674">
        <ele>69.911</ele>
        <time>2022-08-28T10:48:42Z</time>
      </trkpt>
      <trkpt lat="43.377529" lon="-4.361559">
        <ele>69.609</ele>
        <time>2022-08-28T10:48:43Z</time>
      </trkpt>
      <trkpt lat="43.377562" lon="-4.361446">
        <ele>69.354</ele>
        <time>2022-08-28T10:48:44Z</time>
      </trkpt>
      <trkpt lat="43.377624" lon="-4.361223">
        <ele>68.964</ele>
        <time>2022-08-28T10:48:46Z</time>
      </trkpt>
      <trkpt lat="43.377656" lon="-4.361115">
        <ele>68.815</ele>
        <time>2022-08-28T10:48:47Z</time>
      </trkpt>
      <trkpt lat="43.377728" lon="-4.360907">
        <ele>69.543</ele>
        <time>2022-08-28T10:48:49Z</time>
      </trkpt>
      <trkpt lat="43.377818" lon="-4.360717">
        <ele>70.088</ele>
        <time>2022-08-28T10:48:51Z</time>
      </trkpt>
      <trkpt lat="43.377940" lon="-4.360557">
        <ele>69.632</ele>
        <time>2022-08-28T10:48:53Z</time>
      </trkpt>
      <trkpt lat="43.378088" lon="-4.360444">
        <ele>69.958</ele>
        <time>2022-08-28T10:48:55Z</time>
      </trkpt>
      <trkpt lat="43.378168" lon="-4.360404">
        <ele>69.691</ele>
        <time>2022-08-28T10:48:56Z</time>
      </trkpt>
      <trkpt lat="43.378251" lon="-4.360377">
        <ele>69.162</ele>
        <time>2022-08-28T10:48:57Z</time>
      </trkpt>
      <trkpt lat="43.378334" lon="-4.360365">
        <ele>68.638</ele>
        <time>2022-08-28T10:48:58Z</time>
      </trkpt>
      <trkpt lat="43.378501" lon="-4.360373">
        <ele>68.770</ele>
        <time>2022-08-28T10:49:00Z</time>
      </trkpt>
      <trkpt lat="43.378586" lon="-4.360385">
        <ele>68.817</ele>
        <time>2022-08-28T10:49:01Z</time>
      </trkpt>
      <trkpt lat="43.378671" lon="-4.360398">
        <ele>69.009</ele>
        <time>2022-08-28T10:49:02Z</time>
      </trkpt>
      <trkpt lat="43.378754" lon="-4.360408">
        <ele>69.234</ele>
        <time>2022-08-28T10:49:03Z</time>
      </trkpt>
      <trkpt lat="43.378919" lon="-4.360423">
        <ele>69.314</ele>
        <time>2022-08-28T10:49:05Z</time>
      </trkpt>
      <trkpt lat="43.379086" lon="-4.360435">
        <ele>68.135</ele>
        <time>2022-08-28T10:49:07Z</time>
      </trkpt>
      <trkpt lat="43.379171" lon="-4.360435">
        <ele>67.563</ele>
        <time>2022-08-28T10:49:08Z</time>
      </trkpt>
      <trkpt lat="43.379259" lon="-4.360433">
        <ele>67.258</ele>
        <time>2022-08-28T10:49:09Z</time>
      </trkpt>
      <trkpt lat="43.379344" lon="-4.360431">
        <ele>66.932</ele>
        <time>2022-08-28T10:49:10Z</time>
      </trkpt>
      <trkpt lat="43.379509" lon="-4.360418">
        <ele>66.548</ele>
        <time>2022-08-28T10:49:12Z</time>
      </trkpt>
      <trkpt lat="43.379666" lon="-4.360398">
        <ele>66.461</ele>
        <time>2022-08-28T10:49:14Z</time>
      </trkpt>
      <trkpt lat="43.379743" lon="-4.360373">
        <ele>66.312</ele>
        <time>2022-08-28T10:49:15Z</time>
      </trkpt>
      <trkpt lat="43.379886" lon="-4.360275">
        <ele>66.053</ele>
        <time>2022-08-28T10:49:17Z</time>
      </trkpt>
      <trkpt lat="43.380013" lon="-4.360142">
        <ele>65.104</ele>
        <time>2022-08-28T10:49:19Z</time>
      </trkpt>
      <trkpt lat="43.380065" lon="-4.360057">
        <ele>64.614</ele>
        <time>2022-08-28T10:49:20Z</time>
      </trkpt>
      <trkpt lat="43.380147" lon="-4.359864">
        <ele>64.009</ele>
        <time>2022-08-28T10:49:22Z</time>
      </trkpt>
      <trkpt lat="43.380217" lon="-4.359666">
        <ele>63.566</ele>
        <time>2022-08-28T10:49:24Z</time>
      </trkpt>
      <trkpt lat="43.380250" lon="-4.359569">
        <ele>63.256</ele>
        <time>2022-08-28T10:49:25Z</time>
      </trkpt>
      <trkpt lat="43.380285" lon="-4.359472">
        <ele>63.167</ele>
        <time>2022-08-28T10:49:26Z</time>
      </trkpt>
      <trkpt lat="43.380357" lon="-4.359279">
        <ele>62.995</ele>
        <time>2022-08-28T10:49:28Z</time>
      </trkpt>
      <trkpt lat="43.380394" lon="-4.359182">
        <ele>62.960</ele>
        <time>2022-08-28T10:49:29Z</time>
      </trkpt>
      <trkpt lat="43.380474" lon="-4.358989">
        <ele>62.624</ele>
        <time>2022-08-28T10:49:31Z</time>
      </trkpt>
      <trkpt lat="43.380559" lon="-4.358791">
        <ele>62.740</ele>
        <time>2022-08-28T10:49:33Z</time>
      </trkpt>
      <trkpt lat="43.380637" lon="-4.358589">
        <ele>62.713</ele>
        <time>2022-08-28T10:49:35Z</time>
      </trkpt>
      <trkpt lat="43.380679" lon="-4.358492">
        <ele>62.524</ele>
        <time>2022-08-28T10:49:36Z</time>
      </trkpt>
      <trkpt lat="43.380769" lon="-4.358304">
        <ele>62.041</ele>
        <time>2022-08-28T10:49:38Z</time>
      </trkpt>
      <trkpt lat="43.380859" lon="-4.358121">
        <ele>61.781</ele>
        <time>2022-08-28T10:49:40Z</time>
      </trkpt>
      <trkpt lat="43.380951" lon="-4.357936">
        <ele>61.409</ele>
        <time>2022-08-28T10:49:42Z</time>
      </trkpt>
      <trkpt lat="43.380998" lon="-4.357844">
        <ele>61.309</ele>
        <time>2022-08-28T10:49:43Z</time>
      </trkpt>
      <trkpt lat="43.381093" lon="-4.357657">
        <ele>60.985</ele>
        <time>2022-08-28T10:49:45Z</time>
      </trkpt>
      <trkpt lat="43.381138" lon="-4.357564">
        <ele>60.755</ele>
        <time>2022-08-28T10:49:46Z</time>
      </trkpt>
      <trkpt lat="43.381221" lon="-4.357371">
        <ele>59.816</ele>
        <time>2022-08-28T10:49:48Z</time>
      </trkpt>
      <trkpt lat="43.381286" lon="-4.357161">
        <ele>59.484</ele>
        <time>2022-08-28T10:49:50Z</time>
      </trkpt>
      <trkpt lat="43.381309" lon="-4.357053">
        <ele>59.789</ele>
        <time>2022-08-28T10:49:51Z</time>
      </trkpt>
      <trkpt lat="43.381349" lon="-4.356833">
        <ele>59.913</ele>
        <time>2022-08-28T10:49:53Z</time>
      </trkpt>
      <trkpt lat="43.381369" lon="-4.356721">
        <ele>59.949</ele>
        <time>2022-08-28T10:49:54Z</time>
      </trkpt>
      <trkpt lat="43.381391" lon="-4.356608">
        <ele>59.842</ele>
        <time>2022-08-28T10:49:55Z</time>
      </trkpt>
      <trkpt lat="43.381434" lon="-4.356378">
        <ele>59.643</ele>
        <time>2022-08-28T10:49:57Z</time>
      </trkpt>
      <trkpt lat="43.381456" lon="-4.356260">
        <ele>58.873</ele>
        <time>2022-08-28T10:49:58Z</time>
      </trkpt>
      <trkpt lat="43.381479" lon="-4.356142">
        <ele>57.985</ele>
        <time>2022-08-28T10:49:59Z</time>
      </trkpt>
      <trkpt lat="43.381524" lon="-4.355904">
        <ele>56.113</ele>
        <time>2022-08-28T10:50:01Z</time>
      </trkpt>
      <trkpt lat="43.381546" lon="-4.355784">
        <ele>55.509</ele>
        <time>2022-08-28T10:50:02Z</time>
      </trkpt>
      <trkpt lat="43.381566" lon="-4.355661">
        <ele>55.238</ele>
        <time>2022-08-28T10:50:03Z</time>
      </trkpt>
      <trkpt lat="43.381589" lon="-4.355534">
        <ele>55.228</ele>
        <time>2022-08-28T10:50:04Z</time>
      </trkpt>
      <trkpt lat="43.381611" lon="-4.355406">
        <ele>54.819</ele>
        <time>2022-08-28T10:50:05Z</time>
      </trkpt>
      <trkpt lat="43.381658" lon="-4.355143">
        <ele>53.467</ele>
        <time>2022-08-28T10:50:07Z</time>
      </trkpt>
      <trkpt lat="43.381683" lon="-4.355011">
        <ele>52.472</ele>
        <time>2022-08-28T10:50:08Z</time>
      </trkpt>
      <trkpt lat="43.381706" lon="-4.354876">
        <ele>52.226</ele>
        <time>2022-08-28T10:50:09Z</time>
      </trkpt>
      <trkpt lat="43.381729" lon="-4.354741">
        <ele>52.222</ele>
        <time>2022-08-28T10:50:10Z</time>
      </trkpt>
      <trkpt lat="43.381789" lon="-4.354473">
        <ele>52.435</ele>
        <time>2022-08-28T10:50:12Z</time>
      </trkpt>
      <trkpt lat="43.381889" lon="-4.354226">
        <ele>50.626</ele>
        <time>2022-08-28T10:50:14Z</time>
      </trkpt>
      <trkpt lat="43.381951" lon="-4.354113">
        <ele>49.836</ele>
        <time>2022-08-28T10:50:15Z</time>
      </trkpt>
      <trkpt lat="43.382078" lon="-4.353890">
        <ele>48.517</ele>
        <time>2022-08-28T10:50:17Z</time>
      </trkpt>
      <trkpt lat="43.382180" lon="-4.353635">
        <ele>47.118</ele>
        <time>2022-08-28T10:50:19Z</time>
      </trkpt>
      <trkpt lat="43.382212" lon="-4.353493">
        <ele>46.109</ele>
        <time>2022-08-28T10:50:20Z</time>
      </trkpt>
      <trkpt lat="43.382224" lon="-4.353198">
        <ele>44.544</ele>
        <time>2022-08-28T10:50:22Z</time>
      </trkpt>
      <trkpt lat="43.382159" lon="-4.352913">
        <ele>43.714</ele>
        <time>2022-08-28T10:50:24Z</time>
      </trkpt>
      <trkpt lat="43.382039" lon="-4.352655">
        <ele>42.825</ele>
        <time>2022-08-28T10:50:26Z</time>
      </trkpt>
      <trkpt lat="43.381971" lon="-4.352537">
        <ele>42.333</ele>
        <time>2022-08-28T10:50:27Z</time>
      </trkpt>
      <trkpt lat="43.381856" lon="-4.352294">
        <ele>41.168</ele>
        <time>2022-08-28T10:50:29Z</time>
      </trkpt>
      <trkpt lat="43.381823" lon="-4.352162">
        <ele>40.712</ele>
        <time>2022-08-28T10:50:30Z</time>
      </trkpt>
      <trkpt lat="43.381795" lon="-4.351875">
        <ele>39.828</ele>
        <time>2022-08-28T10:50:32Z</time>
      </trkpt>
      <trkpt lat="43.381798" lon="-4.351725">
        <ele>38.561</ele>
        <time>2022-08-28T10:50:33Z</time>
      </trkpt>
      <trkpt lat="43.381813" lon="-4.351580">
        <ele>37.092</ele>
        <time>2022-08-28T10:50:34Z</time>
      </trkpt>
      <trkpt lat="43.381835" lon="-4.351283">
        <ele>34.755</ele>
        <time>2022-08-28T10:50:36Z</time>
      </trkpt>
      <trkpt lat="43.381832" lon="-4.351131">
        <ele>34.207</ele>
        <time>2022-08-28T10:50:37Z</time>
      </trkpt>
      <trkpt lat="43.381815" lon="-4.350983">
        <ele>33.917</ele>
        <time>2022-08-28T10:50:38Z</time>
      </trkpt>
      <trkpt lat="43.381782" lon="-4.350840">
        <ele>33.609</ele>
        <time>2022-08-28T10:50:39Z</time>
      </trkpt>
      <trkpt lat="43.381734" lon="-4.350703">
        <ele>32.796</ele>
        <time>2022-08-28T10:50:40Z</time>
      </trkpt>
      <trkpt lat="43.381626" lon="-4.350433">
        <ele>30.726</ele>
        <time>2022-08-28T10:50:42Z</time>
      </trkpt>
      <trkpt lat="43.381571" lon="-4.350296">
        <ele>29.787</ele>
        <time>2022-08-28T10:50:43Z</time>
      </trkpt>
      <trkpt lat="43.381468" lon="-4.350021">
        <ele>28.295</ele>
        <time>2022-08-28T10:50:45Z</time>
      </trkpt>
      <trkpt lat="43.381370" lon="-4.349743">
        <ele>27.640</ele>
        <time>2022-08-28T10:50:47Z</time>
      </trkpt>
      <trkpt lat="43.381280" lon="-4.349456">
        <ele>26.224</ele>
        <time>2022-08-28T10:50:49Z</time>
      </trkpt>
      <trkpt lat="43.381240" lon="-4.349309">
        <ele>26.060</ele>
        <time>2022-08-28T10:50:50Z</time>
      </trkpt>
      <trkpt lat="43.381202" lon="-4.349164">
        <ele>26.093</ele>
        <time>2022-08-28T10:50:51Z</time>
      </trkpt>
      <trkpt lat="43.381157" lon="-4.348861">
        <ele>25.154</ele>
        <time>2022-08-28T10:50:53Z</time>
      </trkpt>
      <trkpt lat="43.381145" lon="-4.348704">
        <ele>24.285</ele>
        <time>2022-08-28T10:50:54Z</time>
      </trkpt>
      <trkpt lat="43.381142" lon="-4.348546">
        <ele>23.389</ele>
        <time>2022-08-28T10:50:55Z</time>
      </trkpt>
      <trkpt lat="43.381152" lon="-4.348223">
        <ele>21.517</ele>
        <time>2022-08-28T10:50:57Z</time>
      </trkpt>
      <trkpt lat="43.381169" lon="-4.348063">
        <ele>20.909</ele>
        <time>2022-08-28T10:50:58Z</time>
      </trkpt>
      <trkpt lat="43.381229" lon="-4.347748">
        <ele>19.589</ele>
        <time>2022-08-28T10:51:00Z</time>
      </trkpt>
      <trkpt lat="43.381316" lon="-4.347455">
        <ele>19.419</ele>
        <time>2022-08-28T10:51:02Z</time>
      </trkpt>
      <trkpt lat="43.381424" lon="-4.347177">
        <ele>16.510</ele>
        <time>2022-08-28T10:51:04Z</time>
      </trkpt>
      <trkpt lat="43.381481" lon="-4.347042">
        <ele>15.618</ele>
        <time>2022-08-28T10:51:05Z</time>
      </trkpt>
      <trkpt lat="43.381536" lon="-4.346905">
        <ele>15.673</ele>
        <time>2022-08-28T10:51:06Z</time>
      </trkpt>
      <trkpt lat="43.381646" lon="-4.346643">
        <ele>16.667</ele>
        <time>2022-08-28T10:51:08Z</time>
      </trkpt>
      <trkpt lat="43.381698" lon="-4.346515">
        <ele>15.973</ele>
        <time>2022-08-28T10:51:09Z</time>
      </trkpt>
      <trkpt lat="43.381751" lon="-4.346390">
        <ele>15.326</ele>
        <time>2022-08-28T10:51:10Z</time>
      </trkpt>
      <trkpt lat="43.381803" lon="-4.346265">
        <ele>15.527</ele>
        <time>2022-08-28T10:51:11Z</time>
      </trkpt>
      <trkpt lat="43.381853" lon="-4.346142">
        <ele>16.018</ele>
        <time>2022-08-28T10:51:12Z</time>
      </trkpt>
      <trkpt lat="43.381953" lon="-4.345900">
        <ele>17.198</ele>
        <time>2022-08-28T10:51:14Z</time>
      </trkpt>
      <trkpt lat="43.382006" lon="-4.345788">
        <ele>17.517</ele>
        <time>2022-08-28T10:51:15Z</time>
      </trkpt>
      <trkpt lat="43.382126" lon="-4.345590">
        <ele>16.709</ele>
        <time>2022-08-28T10:51:17Z</time>
      </trkpt>
      <trkpt lat="43.382281" lon="-4.345440">
        <ele>16.492</ele>
        <time>2022-08-28T10:51:19Z</time>
      </trkpt>
      <trkpt lat="43.382459" lon="-4.345352">
        <ele>15.752</ele>
        <time>2022-08-28T10:51:21Z</time>
      </trkpt>
      <trkpt lat="43.382552" lon="-4.345329">
        <ele>15.163</ele>
        <time>2022-08-28T10:51:22Z</time>
      </trkpt>
      <trkpt lat="43.382740" lon="-4.345301">
        <ele>14.281</ele>
        <time>2022-08-28T10:51:24Z</time>
      </trkpt>
      <trkpt lat="43.382835" lon="-4.345288">
        <ele>13.696</ele>
        <time>2022-08-28T10:51:25Z</time>
      </trkpt>
      <trkpt lat="43.383022" lon="-4.345253">
        <ele>11.650</ele>
        <time>2022-08-28T10:51:27Z</time>
      </trkpt>
      <trkpt lat="43.383202" lon="-4.345223">
        <ele>11.326</ele>
        <time>2022-08-28T10:51:29Z</time>
      </trkpt>
      <trkpt lat="43.383289" lon="-4.345208">
        <ele>11.319</ele>
        <time>2022-08-28T10:51:30Z</time>
      </trkpt>
      <trkpt lat="43.383377" lon="-4.345186">
        <ele>11.640</ele>
        <time>2022-08-28T10:51:31Z</time>
      </trkpt>
      <trkpt lat="43.383462" lon="-4.345148">
        <ele>12.148</ele>
        <time>2022-08-28T10:51:32Z</time>
      </trkpt>
      <trkpt lat="43.383544" lon="-4.345098">
        <ele>12.261</ele>
        <time>2022-08-28T10:51:33Z</time>
      </trkpt>
      <trkpt lat="43.383681" lon="-4.344960">
        <ele>11.317</ele>
        <time>2022-08-28T10:51:35Z</time>
      </trkpt>
      <trkpt lat="43.383739" lon="-4.344873">
        <ele>11.209</ele>
        <time>2022-08-28T10:51:36Z</time>
      </trkpt>
      <trkpt lat="43.383784" lon="-4.344776">
        <ele>11.175</ele>
        <time>2022-08-28T10:51:37Z</time>
      </trkpt>
      <trkpt lat="43.383839" lon="-4.344561">
        <ele>11.315</ele>
        <time>2022-08-28T10:51:39Z</time>
      </trkpt>
      <trkpt lat="43.383861" lon="-4.344453">
        <ele>11.426</ele>
        <time>2022-08-28T10:51:40Z</time>
      </trkpt>
      <trkpt lat="43.383873" lon="-4.344341">
        <ele>11.364</ele>
        <time>2022-08-28T10:51:41Z</time>
      </trkpt>
      <trkpt lat="43.383878" lon="-4.344114">
        <ele>10.649</ele>
        <time>2022-08-28T10:51:43Z</time>
      </trkpt>
      <trkpt lat="43.383886" lon="-4.343999">
        <ele>10.323</ele>
        <time>2022-08-28T10:51:44Z</time>
      </trkpt>
      <trkpt lat="43.383893" lon="-4.343881">
        <ele>10.129</ele>
        <time>2022-08-28T10:51:45Z</time>
      </trkpt>
      <trkpt lat="43.383905" lon="-4.343656">
        <ele>9.592</ele>
        <time>2022-08-28T10:51:47Z</time>
      </trkpt>
      <trkpt lat="43.383905" lon="-4.343539">
        <ele>9.063</ele>
        <time>2022-08-28T10:51:48Z</time>
      </trkpt>
      <trkpt lat="43.383903" lon="-4.343419">
        <ele>8.591</ele>
        <time>2022-08-28T10:51:49Z</time>
      </trkpt>
      <trkpt lat="43.383900" lon="-4.343177">
        <ele>7.581</ele>
        <time>2022-08-28T10:51:51Z</time>
      </trkpt>
      <trkpt lat="43.383893" lon="-4.342939">
        <ele>6.619</ele>
        <time>2022-08-28T10:51:53Z</time>
      </trkpt>
      <trkpt lat="43.383888" lon="-4.342819">
        <ele>6.109</ele>
        <time>2022-08-28T10:51:54Z</time>
      </trkpt>
      <trkpt lat="43.383875" lon="-4.342577">
        <ele>5.810</ele>
        <time>2022-08-28T10:51:56Z</time>
      </trkpt>
      <trkpt lat="43.383867" lon="-4.342457">
        <ele>5.840</ele>
        <time>2022-08-28T10:51:57Z</time>
      </trkpt>
      <trkpt lat="43.383847" lon="-4.342225">
        <ele>6.491</ele>
        <time>2022-08-28T10:51:59Z</time>
      </trkpt>
      <trkpt lat="43.383835" lon="-4.342115">
        <ele>6.819</ele>
        <time>2022-08-28T10:52:00Z</time>
      </trkpt>
      <trkpt lat="43.383815" lon="-4.341910">
        <ele>7.684</ele>
        <time>2022-08-28T10:52:02Z</time>
      </trkpt>
      <trkpt lat="43.383795" lon="-4.341728">
        <ele>8.398</ele>
        <time>2022-08-28T10:52:04Z</time>
      </trkpt>
      <trkpt lat="43.383788" lon="-4.341645">
        <ele>8.514</ele>
        <time>2022-08-28T10:52:05Z</time>
      </trkpt>
      <trkpt lat="43.383775" lon="-4.341483">
        <ele>8.447</ele>
        <time>2022-08-28T10:52:07Z</time>
      </trkpt>
      <trkpt lat="43.383765" lon="-4.341336">
        <ele>8.638</ele>
        <time>2022-08-28T10:52:09Z</time>
      </trkpt>
      <trkpt lat="43.383758" lon="-4.341199">
        <ele>9.234</ele>
        <time>2022-08-28T10:52:11Z</time>
      </trkpt>
      <trkpt lat="43.383758" lon="-4.341076">
        <ele>9.755</ele>
        <time>2022-08-28T10:52:13Z</time>
      </trkpt>
      <trkpt lat="43.383758" lon="-4.340959">
        <ele>9.910</ele>
        <time>2022-08-28T10:52:15Z</time>
      </trkpt>
      <trkpt lat="43.383755" lon="-4.340851">
        <ele>10.009</ele>
        <time>2022-08-28T10:52:17Z</time>
      </trkpt>
      <trkpt lat="43.383750" lon="-4.340749">
        <ele>10.544</ele>
        <time>2022-08-28T10:52:19Z</time>
      </trkpt>
      <trkpt lat="43.383750" lon="-4.340652">
        <ele>11.094</ele>
        <time>2022-08-28T10:52:21Z</time>
      </trkpt>
      <trkpt lat="43.383748" lon="-4.340549">
        <ele>11.575</ele>
        <time>2022-08-28T10:52:23Z</time>
      </trkpt>
      <trkpt lat="43.383745" lon="-4.340431">
        <ele>11.983</ele>
        <time>2022-08-28T10:52:25Z</time>
      </trkpt>
      <trkpt lat="43.383745" lon="-4.340306">
        <ele>12.348</ele>
        <time>2022-08-28T10:52:27Z</time>
      </trkpt>
      <trkpt lat="43.383742" lon="-4.340194">
        <ele>12.632</ele>
        <time>2022-08-28T10:52:29Z</time>
      </trkpt>
      <trkpt lat="43.383740" lon="-4.340089">
        <ele>12.848</ele>
        <time>2022-08-28T10:52:31Z</time>
      </trkpt>
      <trkpt lat="43.383740" lon="-4.339992">
        <ele>13.031</ele>
        <time>2022-08-28T10:52:33Z</time>
      </trkpt>
      <trkpt lat="43.383748" lon="-4.339904">
        <ele>13.522</ele>
        <time>2022-08-28T10:52:35Z</time>
      </trkpt>
      <trkpt lat="43.383763" lon="-4.339809">
        <ele>14.126</ele>
        <time>2022-08-28T10:52:37Z</time>
      </trkpt>
      <trkpt lat="43.383783" lon="-4.339712">
        <ele>14.647</ele>
        <time>2022-08-28T10:52:39Z</time>
      </trkpt>
      <trkpt lat="43.383810" lon="-4.339619">
        <ele>14.911</ele>
        <time>2022-08-28T10:52:41Z</time>
      </trkpt>
      <trkpt lat="43.383843" lon="-4.339526">
        <ele>15.109</ele>
        <time>2022-08-28T10:52:43Z</time>
      </trkpt>
      <trkpt lat="43.383886" lon="-4.339436">
        <ele>15.063</ele>
        <time>2022-08-28T10:52:45Z</time>
      </trkpt>
      <trkpt lat="43.383938" lon="-4.339349">
        <ele>15.383</ele>
        <time>2022-08-28T10:52:47Z</time>
      </trkpt>
      <trkpt lat="43.383995" lon="-4.339261">
        <ele>15.484</ele>
        <time>2022-08-28T10:52:49Z</time>
      </trkpt>
      <trkpt lat="43.384058" lon="-4.339173">
        <ele>15.022</ele>
        <time>2022-08-28T10:52:51Z</time>
      </trkpt>
      <trkpt lat="43.384118" lon="-4.339080">
        <ele>14.717</ele>
        <time>2022-08-28T10:52:53Z</time>
      </trkpt>
      <trkpt lat="43.384175" lon="-4.338978">
        <ele>14.451</ele>
        <time>2022-08-28T10:52:55Z</time>
      </trkpt>
      <trkpt lat="43.384228" lon="-4.338868">
        <ele>14.317</ele>
        <time>2022-08-28T10:52:57Z</time>
      </trkpt>
      <trkpt lat="43.384256" lon="-4.338811">
        <ele>14.140</ele>
        <time>2022-08-28T10:52:58Z</time>
      </trkpt>
      <trkpt lat="43.384301" lon="-4.338683">
        <ele>13.881</ele>
        <time>2022-08-28T10:53:00Z</time>
      </trkpt>
      <trkpt lat="43.384343" lon="-4.338546">
        <ele>14.037</ele>
        <time>2022-08-28T10:53:02Z</time>
      </trkpt>
      <trkpt lat="43.384375" lon="-4.338403">
        <ele>14.249</ele>
        <time>2022-08-28T10:53:04Z</time>
      </trkpt>
      <trkpt lat="43.384400" lon="-4.338246">
        <ele>14.113</ele>
        <time>2022-08-28T10:53:06Z</time>
      </trkpt>
      <trkpt lat="43.384418" lon="-4.338089">
        <ele>13.809</ele>
        <time>2022-08-28T10:53:08Z</time>
      </trkpt>
      <trkpt lat="43.384421" lon="-4.338011">
        <ele>13.764</ele>
        <time>2022-08-28T10:53:09Z</time>
      </trkpt>
      <trkpt lat="43.384421" lon="-4.337931">
        <ele>13.634</ele>
        <time>2022-08-28T10:53:10Z</time>
      </trkpt>
      <trkpt lat="43.384406" lon="-4.337776">
        <ele>13.215</ele>
        <time>2022-08-28T10:53:12Z</time>
      </trkpt>
      <trkpt lat="43.384384" lon="-4.337623">
        <ele>13.443</ele>
        <time>2022-08-28T10:53:14Z</time>
      </trkpt>
      <trkpt lat="43.384367" lon="-4.337551">
        <ele>13.458</ele>
        <time>2022-08-28T10:53:15Z</time>
      </trkpt>
      <trkpt lat="43.384329" lon="-4.337409">
        <ele>13.272</ele>
        <time>2022-08-28T10:53:17Z</time>
      </trkpt>
      <trkpt lat="43.384294" lon="-4.337274">
        <ele>13.268</ele>
        <time>2022-08-28T10:53:19Z</time>
      </trkpt>
      <trkpt lat="43.384274" lon="-4.337209">
        <ele>13.251</ele>
        <time>2022-08-28T10:53:20Z</time>
      </trkpt>
      <trkpt lat="43.384236" lon="-4.337076">
        <ele>13.762</ele>
        <time>2022-08-28T10:53:22Z</time>
      </trkpt>
      <trkpt lat="43.384218" lon="-4.337009">
        <ele>13.931</ele>
        <time>2022-08-28T10:53:23Z</time>
      </trkpt>
      <trkpt lat="43.384183" lon="-4.336872">
        <ele>14.461</ele>
        <time>2022-08-28T10:53:25Z</time>
      </trkpt>
      <trkpt lat="43.384148" lon="-4.336742">
        <ele>14.607</ele>
        <time>2022-08-28T10:53:27Z</time>
      </trkpt>
      <trkpt lat="43.384131" lon="-4.336677">
        <ele>14.709</ele>
        <time>2022-08-28T10:53:28Z</time>
      </trkpt>
      <trkpt lat="43.384099" lon="-4.336557">
        <ele>14.534</ele>
        <time>2022-08-28T10:53:30Z</time>
      </trkpt>
      <trkpt lat="43.384084" lon="-4.336492">
        <ele>14.414</ele>
        <time>2022-08-28T10:53:31Z</time>
      </trkpt>
      <trkpt lat="43.384067" lon="-4.336430">
        <ele>14.365</ele>
        <time>2022-08-28T10:53:32Z</time>
      </trkpt>
      <trkpt lat="43.384037" lon="-4.336300">
        <ele>13.983</ele>
        <time>2022-08-28T10:53:34Z</time>
      </trkpt>
      <trkpt lat="43.384022" lon="-4.336240">
        <ele>13.738</ele>
        <time>2022-08-28T10:53:35Z</time>
      </trkpt>
      <trkpt lat="43.384009" lon="-4.336178">
        <ele>13.472</ele>
        <time>2022-08-28T10:53:36Z</time>
      </trkpt>
      <trkpt lat="43.383974" lon="-4.336040">
        <ele>13.118</ele>
        <time>2022-08-28T10:53:38Z</time>
      </trkpt>
      <trkpt lat="43.383954" lon="-4.335972">
        <ele>13.161</ele>
        <time>2022-08-28T10:53:39Z</time>
      </trkpt>
      <trkpt lat="43.383912" lon="-4.335835">
        <ele>13.212</ele>
        <time>2022-08-28T10:53:41Z</time>
      </trkpt>
      <trkpt lat="43.383872" lon="-4.335697">
        <ele>13.783</ele>
        <time>2022-08-28T10:53:43Z</time>
      </trkpt>
      <trkpt lat="43.383837" lon="-4.335564">
        <ele>14.025</ele>
        <time>2022-08-28T10:53:45Z</time>
      </trkpt>
      <trkpt lat="43.383824" lon="-4.335501">
        <ele>13.917</ele>
        <time>2022-08-28T10:53:46Z</time>
      </trkpt>
      <trkpt lat="43.383807" lon="-4.335431">
        <ele>13.709</ele>
        <time>2022-08-28T10:53:47Z</time>
      </trkpt>
      <trkpt lat="43.383792" lon="-4.335363">
        <ele>13.589</ele>
        <time>2022-08-28T10:53:48Z</time>
      </trkpt>
      <trkpt lat="43.383762" lon="-4.335223">
        <ele>12.919</ele>
        <time>2022-08-28T10:53:50Z</time>
      </trkpt>
      <trkpt lat="43.383744" lon="-4.335073">
        <ele>12.770</ele>
        <time>2022-08-28T10:53:52Z</time>
      </trkpt>
      <trkpt lat="43.383737" lon="-4.335001">
        <ele>12.578</ele>
        <time>2022-08-28T10:53:53Z</time>
      </trkpt>
      <trkpt lat="43.383727" lon="-4.334848">
        <ele>12.833</ele>
        <time>2022-08-28T10:53:55Z</time>
      </trkpt>
      <trkpt lat="43.383725" lon="-4.334690">
        <ele>13.237</ele>
        <time>2022-08-28T10:53:57Z</time>
      </trkpt>
      <trkpt lat="43.383732" lon="-4.334530">
        <ele>13.253</ele>
        <time>2022-08-28T10:53:59Z</time>
      </trkpt>
      <trkpt lat="43.383740" lon="-4.334445">
        <ele>13.236</ele>
        <time>2022-08-28T10:54:00Z</time>
      </trkpt>
      <trkpt lat="43.383762" lon="-4.334282">
        <ele>12.917</ele>
        <time>2022-08-28T10:54:02Z</time>
      </trkpt>
      <trkpt lat="43.383774" lon="-4.334197">
        <ele>12.877</ele>
        <time>2022-08-28T10:54:03Z</time>
      </trkpt>
      <trkpt lat="43.383789" lon="-4.334115">
        <ele>12.861</ele>
        <time>2022-08-28T10:54:04Z</time>
      </trkpt>
      <trkpt lat="43.383822" lon="-4.333948">
        <ele>12.527</ele>
        <time>2022-08-28T10:54:06Z</time>
      </trkpt>
      <trkpt lat="43.383845" lon="-4.333865">
        <ele>12.609</ele>
        <time>2022-08-28T10:54:07Z</time>
      </trkpt>
      <trkpt lat="43.383898" lon="-4.333700">
        <ele>12.858</ele>
        <time>2022-08-28T10:54:09Z</time>
      </trkpt>
      <trkpt lat="43.383958" lon="-4.333540">
        <ele>12.278</ele>
        <time>2022-08-28T10:54:11Z</time>
      </trkpt>
      <trkpt lat="43.383990" lon="-4.333462">
        <ele>11.829</ele>
        <time>2022-08-28T10:54:12Z</time>
      </trkpt>
      <trkpt lat="43.384027" lon="-4.333384">
        <ele>11.557</ele>
        <time>2022-08-28T10:54:13Z</time>
      </trkpt>
      <trkpt lat="43.384110" lon="-4.333227">
        <ele>11.262</ele>
        <time>2022-08-28T10:54:15Z</time>
      </trkpt>
      <trkpt lat="43.384195" lon="-4.333072">
        <ele>11.536</ele>
        <time>2022-08-28T10:54:17Z</time>
      </trkpt>
      <trkpt lat="43.384285" lon="-4.332920">
        <ele>10.642</ele>
        <time>2022-08-28T10:54:19Z</time>
      </trkpt>
      <trkpt lat="43.384367" lon="-4.332763">
        <ele>10.655</ele>
        <time>2022-08-28T10:54:21Z</time>
      </trkpt>
      <trkpt lat="43.384415" lon="-4.332681">
        <ele>10.896</ele>
        <time>2022-08-28T10:54:22Z</time>
      </trkpt>
      <trkpt lat="43.384445" lon="-4.332606">
        <ele>10.595</ele>
        <time>2022-08-28T10:54:23Z</time>
      </trkpt>
      <trkpt lat="43.384503" lon="-4.332441">
        <ele>10.149</ele>
        <time>2022-08-28T10:54:25Z</time>
      </trkpt>
      <trkpt lat="43.384560" lon="-4.332263">
        <ele>9.723</ele>
        <time>2022-08-28T10:54:27Z</time>
      </trkpt>
      <trkpt lat="43.384622" lon="-4.332070">
        <ele>9.909</ele>
        <time>2022-08-28T10:54:29Z</time>
      </trkpt>
      <trkpt lat="43.384652" lon="-4.331970">
        <ele>10.010</ele>
        <time>2022-08-28T10:54:30Z</time>
      </trkpt>
      <trkpt lat="43.384682" lon="-4.331868">
        <ele>10.140</ele>
        <time>2022-08-28T10:54:31Z</time>
      </trkpt>
      <trkpt lat="43.384715" lon="-4.331656">
        <ele>9.721</ele>
        <time>2022-08-28T10:54:33Z</time>
      </trkpt>
      <trkpt lat="43.384720" lon="-4.331549">
        <ele>9.519</ele>
        <time>2022-08-28T10:54:34Z</time>
      </trkpt>
      <trkpt lat="43.384725" lon="-4.331446">
        <ele>9.394</ele>
        <time>2022-08-28T10:54:35Z</time>
      </trkpt>
      <trkpt lat="43.384725" lon="-4.331238">
        <ele>9.178</ele>
        <time>2022-08-28T10:54:37Z</time>
      </trkpt>
      <trkpt lat="43.384718" lon="-4.331028">
        <ele>8.954</ele>
        <time>2022-08-28T10:54:39Z</time>
      </trkpt>
      <trkpt lat="43.384708" lon="-4.330925">
        <ele>8.657</ele>
        <time>2022-08-28T10:54:40Z</time>
      </trkpt>
      <trkpt lat="43.384701" lon="-4.330827">
        <ele>8.438</ele>
        <time>2022-08-28T10:54:41Z</time>
      </trkpt>
      <trkpt lat="43.384696" lon="-4.330732">
        <ele>8.043</ele>
        <time>2022-08-28T10:54:42Z</time>
      </trkpt>
      <trkpt lat="43.384686" lon="-4.330632">
        <ele>7.564</ele>
        <time>2022-08-28T10:54:43Z</time>
      </trkpt>
      <trkpt lat="43.384666" lon="-4.330442">
        <ele>6.810</ele>
        <time>2022-08-28T10:54:45Z</time>
      </trkpt>
      <trkpt lat="43.384624" lon="-4.330260">
        <ele>5.709</ele>
        <time>2022-08-28T10:54:47Z</time>
      </trkpt>
      <trkpt lat="43.384562" lon="-4.330088">
        <ele>3.525</ele>
        <time>2022-08-28T10:54:49Z</time>
      </trkpt>
      <trkpt lat="43.384497" lon="-4.329931">
        <ele>2.525</ele>
        <time>2022-08-28T10:54:51Z</time>
      </trkpt>
      <trkpt lat="43.384465" lon="-4.329854">
        <ele>1.926</ele>
        <time>2022-08-28T10:54:52Z</time>
      </trkpt>
      <trkpt lat="43.384398" lon="-4.329701">
        <ele>1.094</ele>
        <time>2022-08-28T10:54:54Z</time>
      </trkpt>
      <trkpt lat="43.384366" lon="-4.329623">
        <ele>1.059</ele>
        <time>2022-08-28T10:54:55Z</time>
      </trkpt>
      <trkpt lat="43.384336" lon="-4.329545">
        <ele>1.083</ele>
        <time>2022-08-28T10:54:56Z</time>
      </trkpt>
      <trkpt lat="43.384269" lon="-4.329387">
        <ele>1.079</ele>
        <time>2022-08-28T10:54:58Z</time>
      </trkpt>
      <trkpt lat="43.384199" lon="-4.329234">
        <ele>1.082</ele>
        <time>2022-08-28T10:55:00Z</time>
      </trkpt>
      <trkpt lat="43.384141" lon="-4.329079">
        <ele>1.973</ele>
        <time>2022-08-28T10:55:02Z</time>
      </trkpt>
      <trkpt lat="43.384119" lon="-4.328997">
        <ele>2.715</ele>
        <time>2022-08-28T10:55:03Z</time>
      </trkpt>
      <trkpt lat="43.384086" lon="-4.328822">
        <ele>4.065</ele>
        <time>2022-08-28T10:55:05Z</time>
      </trkpt>
      <trkpt lat="43.384079" lon="-4.328730">
        <ele>4.611</ele>
        <time>2022-08-28T10:55:06Z</time>
      </trkpt>
      <trkpt lat="43.384076" lon="-4.328635">
        <ele>5.109</ele>
        <time>2022-08-28T10:55:07Z</time>
      </trkpt>
      <trkpt lat="43.384084" lon="-4.328455">
        <ele>6.522</ele>
        <time>2022-08-28T10:55:09Z</time>
      </trkpt>
      <trkpt lat="43.384094" lon="-4.328272">
        <ele>7.542</ele>
        <time>2022-08-28T10:55:11Z</time>
      </trkpt>
      <trkpt lat="43.384099" lon="-4.328180">
        <ele>7.933</ele>
        <time>2022-08-28T10:55:12Z</time>
      </trkpt>
      <trkpt lat="43.384116" lon="-4.327997">
        <ele>7.831</ele>
        <time>2022-08-28T10:55:14Z</time>
      </trkpt>
      <trkpt lat="43.384126" lon="-4.327905">
        <ele>7.366</ele>
        <time>2022-08-28T10:55:15Z</time>
      </trkpt>
      <trkpt lat="43.384136" lon="-4.327813">
        <ele>7.020</ele>
        <time>2022-08-28T10:55:16Z</time>
      </trkpt>
      <trkpt lat="43.384148" lon="-4.327628">
        <ele>7.146</ele>
        <time>2022-08-28T10:55:18Z</time>
      </trkpt>
      <trkpt lat="43.384161" lon="-4.327438">
        <ele>7.139</ele>
        <time>2022-08-28T10:55:20Z</time>
      </trkpt>
      <trkpt lat="43.384168" lon="-4.327343">
        <ele>7.020</ele>
        <time>2022-08-28T10:55:21Z</time>
      </trkpt>
      <trkpt lat="43.384181" lon="-4.327151">
        <ele>6.844</ele>
        <time>2022-08-28T10:55:23Z</time>
      </trkpt>
      <trkpt lat="43.384193" lon="-4.327058">
        <ele>6.705</ele>
        <time>2022-08-28T10:55:24Z</time>
      </trkpt>
      <trkpt lat="43.384215" lon="-4.326871">
        <ele>6.715</ele>
        <time>2022-08-28T10:55:26Z</time>
      </trkpt>
      <trkpt lat="43.384242" lon="-4.326681">
        <ele>6.909</ele>
        <time>2022-08-28T10:55:28Z</time>
      </trkpt>
      <trkpt lat="43.384250" lon="-4.326586">
        <ele>6.845</ele>
        <time>2022-08-28T10:55:29Z</time>
      </trkpt>
      <trkpt lat="43.384255" lon="-4.326491">
        <ele>6.755</ele>
        <time>2022-08-28T10:55:30Z</time>
      </trkpt>
      <trkpt lat="43.384263" lon="-4.326398">
        <ele>6.676</ele>
        <time>2022-08-28T10:55:31Z</time>
      </trkpt>
      <trkpt lat="43.384280" lon="-4.326215">
        <ele>7.034</ele>
        <time>2022-08-28T10:55:33Z</time>
      </trkpt>
      <trkpt lat="43.384298" lon="-4.326037">
        <ele>7.219</ele>
        <time>2022-08-28T10:55:35Z</time>
      </trkpt>
      <trkpt lat="43.384308" lon="-4.325947">
        <ele>7.323</ele>
        <time>2022-08-28T10:55:36Z</time>
      </trkpt>
      <trkpt lat="43.384320" lon="-4.325855">
        <ele>7.229</ele>
        <time>2022-08-28T10:55:37Z</time>
      </trkpt>
      <trkpt lat="43.384328" lon="-4.325765">
        <ele>7.242</ele>
        <time>2022-08-28T10:55:38Z</time>
      </trkpt>
      <trkpt lat="43.384336" lon="-4.325673">
        <ele>7.283</ele>
        <time>2022-08-28T10:55:39Z</time>
      </trkpt>
      <trkpt lat="43.384346" lon="-4.325498">
        <ele>7.396</ele>
        <time>2022-08-28T10:55:41Z</time>
      </trkpt>
      <trkpt lat="43.384351" lon="-4.325410">
        <ele>7.431</ele>
        <time>2022-08-28T10:55:42Z</time>
      </trkpt>
      <trkpt lat="43.384361" lon="-4.325235">
        <ele>7.524</ele>
        <time>2022-08-28T10:55:44Z</time>
      </trkpt>
      <trkpt lat="43.384366" lon="-4.325147">
        <ele>7.709</ele>
        <time>2022-08-28T10:55:45Z</time>
      </trkpt>
      <trkpt lat="43.384369" lon="-4.325059">
        <ele>7.850</ele>
        <time>2022-08-28T10:55:46Z</time>
      </trkpt>
      <trkpt lat="43.384377" lon="-4.324969">
        <ele>7.850</ele>
        <time>2022-08-28T10:55:47Z</time>
      </trkpt>
      <trkpt lat="43.384390" lon="-4.324791">
        <ele>7.611</ele>
        <time>2022-08-28T10:55:49Z</time>
      </trkpt>
      <trkpt lat="43.384397" lon="-4.324701">
        <ele>7.549</ele>
        <time>2022-08-28T10:55:50Z</time>
      </trkpt>
      <trkpt lat="43.384404" lon="-4.324611">
        <ele>7.694</ele>
        <time>2022-08-28T10:55:51Z</time>
      </trkpt>
      <trkpt lat="43.384424" lon="-4.324429">
        <ele>7.358</ele>
        <time>2022-08-28T10:55:53Z</time>
      </trkpt>
      <trkpt lat="43.384432" lon="-4.324342">
        <ele>7.154</ele>
        <time>2022-08-28T10:55:54Z</time>
      </trkpt>
      <trkpt lat="43.384445" lon="-4.324164">
        <ele>7.067</ele>
        <time>2022-08-28T10:55:56Z</time>
      </trkpt>
      <trkpt lat="43.384448" lon="-4.324076">
        <ele>7.398</ele>
        <time>2022-08-28T10:55:57Z</time>
      </trkpt>
      <trkpt lat="43.384456" lon="-4.323901">
        <ele>7.762</ele>
        <time>2022-08-28T10:55:59Z</time>
      </trkpt>
      <trkpt lat="43.384464" lon="-4.323813">
        <ele>8.183</ele>
        <time>2022-08-28T10:56:00Z</time>
      </trkpt>
      <trkpt lat="43.384474" lon="-4.323643">
        <ele>8.911</ele>
        <time>2022-08-28T10:56:02Z</time>
      </trkpt>
      <trkpt lat="43.384482" lon="-4.323561">
        <ele>9.309</ele>
        <time>2022-08-28T10:56:03Z</time>
      </trkpt>
      <trkpt lat="43.384497" lon="-4.323399">
        <ele>10.347</ele>
        <time>2022-08-28T10:56:05Z</time>
      </trkpt>
      <trkpt lat="43.384517" lon="-4.323239">
        <ele>10.617</ele>
        <time>2022-08-28T10:56:07Z</time>
      </trkpt>
      <trkpt lat="43.384525" lon="-4.323164">
        <ele>10.748</ele>
        <time>2022-08-28T10:56:08Z</time>
      </trkpt>
      <trkpt lat="43.384533" lon="-4.323091">
        <ele>10.726</ele>
        <time>2022-08-28T10:56:09Z</time>
      </trkpt>
      <trkpt lat="43.384551" lon="-4.322948">
        <ele>10.641</ele>
        <time>2022-08-28T10:56:11Z</time>
      </trkpt>
      <trkpt lat="43.384564" lon="-4.322811">
        <ele>10.855</ele>
        <time>2022-08-28T10:56:13Z</time>
      </trkpt>
      <trkpt lat="43.384569" lon="-4.322746">
        <ele>10.891</ele>
        <time>2022-08-28T10:56:14Z</time>
      </trkpt>
      <trkpt lat="43.384581" lon="-4.322616">
        <ele>10.714</ele>
        <time>2022-08-28T10:56:16Z</time>
      </trkpt>
      <trkpt lat="43.384594" lon="-4.322494">
        <ele>10.525</ele>
        <time>2022-08-28T10:56:18Z</time>
      </trkpt>
      <trkpt lat="43.384599" lon="-4.322384">
        <ele>10.636</ele>
        <time>2022-08-28T10:56:20Z</time>
      </trkpt>
      <trkpt lat="43.384607" lon="-4.322286">
        <ele>10.617</ele>
        <time>2022-08-28T10:56:22Z</time>
      </trkpt>
      <trkpt lat="43.384612" lon="-4.322174">
        <ele>10.718</ele>
        <time>2022-08-28T10:56:24Z</time>
      </trkpt>
      <trkpt lat="43.384612" lon="-4.322049">
        <ele>11.109</ele>
        <time>2022-08-28T10:56:26Z</time>
      </trkpt>
      <trkpt lat="43.384600" lon="-4.321917">
        <ele>11.954</ele>
        <time>2022-08-28T10:56:28Z</time>
      </trkpt>
      <trkpt lat="43.384587" lon="-4.321855">
        <ele>12.484</ele>
        <time>2022-08-28T10:56:29Z</time>
      </trkpt>
      <trkpt lat="43.384555" lon="-4.321748">
        <ele>13.275</ele>
        <time>2022-08-28T10:56:31Z</time>
      </trkpt>
      <trkpt lat="43.384518" lon="-4.321656">
        <ele>13.613</ele>
        <time>2022-08-28T10:56:33Z</time>
      </trkpt>
      <trkpt lat="43.384476" lon="-4.321573">
        <ele>13.518</ele>
        <time>2022-08-28T10:56:35Z</time>
      </trkpt>
      <trkpt lat="43.384426" lon="-4.321498">
        <ele>13.422</ele>
        <time>2022-08-28T10:56:37Z</time>
      </trkpt>
      <trkpt lat="43.384366" lon="-4.321441">
        <ele>13.558</ele>
        <time>2022-08-28T10:56:39Z</time>
      </trkpt>
      <trkpt lat="43.384301" lon="-4.321401">
        <ele>13.781</ele>
        <time>2022-08-28T10:56:41Z</time>
      </trkpt>
      <trkpt lat="43.384233" lon="-4.321368">
        <ele>13.952</ele>
        <time>2022-08-28T10:56:43Z</time>
      </trkpt>
      <trkpt lat="43.384165" lon="-4.321335">
        <ele>13.841</ele>
        <time>2022-08-28T10:56:45Z</time>
      </trkpt>
      <trkpt lat="43.384098" lon="-4.321313">
        <ele>13.781</ele>
        <time>2022-08-28T10:56:47Z</time>
      </trkpt>
      <trkpt lat="43.384026" lon="-4.321286">
        <ele>13.409</ele>
        <time>2022-08-28T10:56:49Z</time>
      </trkpt>
      <trkpt lat="43.383958" lon="-4.321269">
        <ele>13.309</ele>
        <time>2022-08-28T10:56:51Z</time>
      </trkpt>
      <trkpt lat="43.383878" lon="-4.321254">
        <ele>13.225</ele>
        <time>2022-08-28T10:56:53Z</time>
      </trkpt>
      <trkpt lat="43.383798" lon="-4.321239">
        <ele>13.015</ele>
        <time>2022-08-28T10:56:55Z</time>
      </trkpt>
      <trkpt lat="43.383713" lon="-4.321224">
        <ele>13.096</ele>
        <time>2022-08-28T10:56:57Z</time>
      </trkpt>
      <trkpt lat="43.383626" lon="-4.321221">
        <ele>13.364</ele>
        <time>2022-08-28T10:56:59Z</time>
      </trkpt>
      <trkpt lat="43.383533" lon="-4.321219">
        <ele>13.179</ele>
        <time>2022-08-28T10:57:01Z</time>
      </trkpt>
      <trkpt lat="43.383438" lon="-4.321226">
        <ele>13.073</ele>
        <time>2022-08-28T10:57:03Z</time>
      </trkpt>
      <trkpt lat="43.383388" lon="-4.321234">
        <ele>12.929</ele>
        <time>2022-08-28T10:57:04Z</time>
      </trkpt>
      <trkpt lat="43.383341" lon="-4.321251">
        <ele>13.082</ele>
        <time>2022-08-28T10:57:05Z</time>
      </trkpt>
      <trkpt lat="43.383293" lon="-4.321271">
        <ele>12.723</ele>
        <time>2022-08-28T10:57:06Z</time>
      </trkpt>
      <trkpt lat="43.383243" lon="-4.321298">
        <ele>12.483</ele>
        <time>2022-08-28T10:57:07Z</time>
      </trkpt>
      <trkpt lat="43.383143" lon="-4.321358">
        <ele>11.825</ele>
        <time>2022-08-28T10:57:09Z</time>
      </trkpt>
      <trkpt lat="43.383041" lon="-4.321430">
        <ele>11.317</ele>
        <time>2022-08-28T10:57:11Z</time>
      </trkpt>
      <trkpt lat="43.382989" lon="-4.321470">
        <ele>10.909</ele>
        <time>2022-08-28T10:57:12Z</time>
      </trkpt>
      <trkpt lat="43.382882" lon="-4.321547">
        <ele>9.869</ele>
        <time>2022-08-28T10:57:14Z</time>
      </trkpt>
      <trkpt lat="43.382764" lon="-4.321610">
        <ele>7.989</ele>
        <time>2022-08-28T10:57:16Z</time>
      </trkpt>
      <trkpt lat="43.382637" lon="-4.321645">
        <ele>7.570</ele>
        <time>2022-08-28T10:57:18Z</time>
      </trkpt>
      <trkpt lat="43.382572" lon="-4.321652">
        <ele>7.248</ele>
        <time>2022-08-28T10:57:19Z</time>
      </trkpt>
      <trkpt lat="43.382449" lon="-4.321642">
        <ele>7.163</ele>
        <time>2022-08-28T10:57:21Z</time>
      </trkpt>
      <trkpt lat="43.382384" lon="-4.321620">
        <ele>7.277</ele>
        <time>2022-08-28T10:57:22Z</time>
      </trkpt>
      <trkpt lat="43.382267" lon="-4.321540">
        <ele>7.443</ele>
        <time>2022-08-28T10:57:24Z</time>
      </trkpt>
      <trkpt lat="43.382214" lon="-4.321482">
        <ele>7.516</ele>
        <time>2022-08-28T10:57:25Z</time>
      </trkpt>
      <trkpt lat="43.382117" lon="-4.321354">
        <ele>8.357</ele>
        <time>2022-08-28T10:57:27Z</time>
      </trkpt>
      <trkpt lat="43.382042" lon="-4.321209">
        <ele>8.369</ele>
        <time>2022-08-28T10:57:29Z</time>
      </trkpt>
      <trkpt lat="43.381995" lon="-4.321052">
        <ele>8.504</ele>
        <time>2022-08-28T10:57:31Z</time>
      </trkpt>
      <trkpt lat="43.381978" lon="-4.320895">
        <ele>9.324</ele>
        <time>2022-08-28T10:57:33Z</time>
      </trkpt>
      <trkpt lat="43.381975" lon="-4.320817">
        <ele>9.609</ele>
        <time>2022-08-28T10:57:34Z</time>
      </trkpt>
      <trkpt lat="43.381972" lon="-4.320737">
        <ele>9.667</ele>
        <time>2022-08-28T10:57:35Z</time>
      </trkpt>
      <trkpt lat="43.381970" lon="-4.320575">
        <ele>9.637</ele>
        <time>2022-08-28T10:57:37Z</time>
      </trkpt>
      <trkpt lat="43.381972" lon="-4.320497">
        <ele>9.848</ele>
        <time>2022-08-28T10:57:38Z</time>
      </trkpt>
      <trkpt lat="43.381975" lon="-4.320345">
        <ele>10.236</ele>
        <time>2022-08-28T10:57:40Z</time>
      </trkpt>
      <trkpt lat="43.381977" lon="-4.320268">
        <ele>10.471</ele>
        <time>2022-08-28T10:57:41Z</time>
      </trkpt>
      <trkpt lat="43.381984" lon="-4.320115">
        <ele>9.915</ele>
        <time>2022-08-28T10:57:43Z</time>
      </trkpt>
      <trkpt lat="43.381994" lon="-4.319968">
        <ele>9.671</ele>
        <time>2022-08-28T10:57:45Z</time>
      </trkpt>
      <trkpt lat="43.382001" lon="-4.319898">
        <ele>9.834</ele>
        <time>2022-08-28T10:57:46Z</time>
      </trkpt>
      <trkpt lat="43.382008" lon="-4.319758">
        <ele>10.435</ele>
        <time>2022-08-28T10:57:48Z</time>
      </trkpt>
      <trkpt lat="43.382013" lon="-4.319620">
        <ele>11.063</ele>
        <time>2022-08-28T10:57:50Z</time>
      </trkpt>
      <trkpt lat="43.382015" lon="-4.319552">
        <ele>11.344</ele>
        <time>2022-08-28T10:57:51Z</time>
      </trkpt>
      <trkpt lat="43.382012" lon="-4.319407">
        <ele>11.818</ele>
        <time>2022-08-28T10:57:53Z</time>
      </trkpt>
      <trkpt lat="43.382004" lon="-4.319264">
        <ele>11.909</ele>
        <time>2022-08-28T10:57:55Z</time>
      </trkpt>
      <trkpt lat="43.381982" lon="-4.319124">
        <ele>11.937</ele>
        <time>2022-08-28T10:57:57Z</time>
      </trkpt>
      <trkpt lat="43.381940" lon="-4.318987">
        <ele>11.497</ele>
        <time>2022-08-28T10:57:59Z</time>
      </trkpt>
      <trkpt lat="43.381912" lon="-4.318915">
        <ele>11.338</ele>
        <time>2022-08-28T10:58:00Z</time>
      </trkpt>
      <trkpt lat="43.381877" lon="-4.318852">
        <ele>11.386</ele>
        <time>2022-08-28T10:58:01Z</time>
      </trkpt>
      <trkpt lat="43.381795" lon="-4.318735">
        <ele>10.911</ele>
        <time>2022-08-28T10:58:03Z</time>
      </trkpt>
      <trkpt lat="43.381748" lon="-4.318677">
        <ele>10.685</ele>
        <time>2022-08-28T10:58:04Z</time>
      </trkpt>
      <trkpt lat="43.381696" lon="-4.318622">
        <ele>10.191</ele>
        <time>2022-08-28T10:58:05Z</time>
      </trkpt>
      <trkpt lat="43.381639" lon="-4.318565">
        <ele>9.334</ele>
        <time>2022-08-28T10:58:06Z</time>
      </trkpt>
      <trkpt lat="43.381581" lon="-4.318508">
        <ele>8.885</ele>
        <time>2022-08-28T10:58:07Z</time>
      </trkpt>
      <trkpt lat="43.381463" lon="-4.318391">
        <ele>8.067</ele>
        <time>2022-08-28T10:58:09Z</time>
      </trkpt>
      <trkpt lat="43.381401" lon="-4.318333">
        <ele>7.881</ele>
        <time>2022-08-28T10:58:10Z</time>
      </trkpt>
      <trkpt lat="43.381254" lon="-4.318243">
        <ele>6.419</ele>
        <time>2022-08-28T10:58:12Z</time>
      </trkpt>
      <trkpt lat="43.381172" lon="-4.318215">
        <ele>6.109</ele>
        <time>2022-08-28T10:58:13Z</time>
      </trkpt>
      <trkpt lat="43.381005" lon="-4.318175">
        <ele>5.157</ele>
        <time>2022-08-28T10:58:15Z</time>
      </trkpt>
      <trkpt lat="43.380847" lon="-4.318130">
        <ele>4.177</ele>
        <time>2022-08-28T10:58:17Z</time>
      </trkpt>
      <trkpt lat="43.380699" lon="-4.318065">
        <ele>3.038</ele>
        <time>2022-08-28T10:58:19Z</time>
      </trkpt>
      <trkpt lat="43.380566" lon="-4.317983">
        <ele>2.596</ele>
        <time>2022-08-28T10:58:21Z</time>
      </trkpt>
      <trkpt lat="43.380506" lon="-4.317941">
        <ele>2.521</ele>
        <time>2022-08-28T10:58:22Z</time>
      </trkpt>
      <trkpt lat="43.380451" lon="-4.317903">
        <ele>2.365</ele>
        <time>2022-08-28T10:58:23Z</time>
      </trkpt>
      <trkpt lat="43.380341" lon="-4.317831">
        <ele>2.191</ele>
        <time>2022-08-28T10:58:25Z</time>
      </trkpt>
      <trkpt lat="43.380236" lon="-4.317759">
        <ele>1.864</ele>
        <time>2022-08-28T10:58:27Z</time>
      </trkpt>
      <trkpt lat="43.380138" lon="-4.317689">
        <ele>1.725</ele>
        <time>2022-08-28T10:58:29Z</time>
      </trkpt>
      <trkpt lat="43.380041" lon="-4.317617">
        <ele>2.027</ele>
        <time>2022-08-28T10:58:31Z</time>
      </trkpt>
      <trkpt lat="43.379991" lon="-4.317582">
        <ele>2.468</ele>
        <time>2022-08-28T10:58:32Z</time>
      </trkpt>
      <trkpt lat="43.379943" lon="-4.317545">
        <ele>2.614</ele>
        <time>2022-08-28T10:58:33Z</time>
      </trkpt>
      <trkpt lat="43.379853" lon="-4.317470">
        <ele>3.209</ele>
        <time>2022-08-28T10:58:35Z</time>
      </trkpt>
      <trkpt lat="43.379808" lon="-4.317432">
        <ele>3.533</ele>
        <time>2022-08-28T10:58:36Z</time>
      </trkpt>
      <trkpt lat="43.379765" lon="-4.317394">
        <ele>4.093</ele>
        <time>2022-08-28T10:58:37Z</time>
      </trkpt>
      <trkpt lat="43.379680" lon="-4.317312">
        <ele>4.914</ele>
        <time>2022-08-28T10:58:39Z</time>
      </trkpt>
      <trkpt lat="43.379640" lon="-4.317270">
        <ele>5.222</ele>
        <time>2022-08-28T10:58:40Z</time>
      </trkpt>
      <trkpt lat="43.379567" lon="-4.317193">
        <ele>5.637</ele>
        <time>2022-08-28T10:58:42Z</time>
      </trkpt>
      <trkpt lat="43.379502" lon="-4.317118">
        <ele>5.921</ele>
        <time>2022-08-28T10:58:44Z</time>
      </trkpt>
      <trkpt lat="43.379440" lon="-4.317040">
        <ele>6.317</ele>
        <time>2022-08-28T10:58:46Z</time>
      </trkpt>
      <trkpt lat="43.379372" lon="-4.316957">
        <ele>6.440</ele>
        <time>2022-08-28T10:58:48Z</time>
      </trkpt>
      <trkpt lat="43.379304" lon="-4.316867">
        <ele>6.821</ele>
        <time>2022-08-28T10:58:50Z</time>
      </trkpt>
      <trkpt lat="43.379246" lon="-4.316769">
        <ele>7.544</ele>
        <time>2022-08-28T10:58:52Z</time>
      </trkpt>
      <trkpt lat="43.379179" lon="-4.316659">
        <ele>8.105</ele>
        <time>2022-08-28T10:58:54Z</time>
      </trkpt>
      <trkpt lat="43.379116" lon="-4.316559">
        <ele>8.315</ele>
        <time>2022-08-28T10:58:56Z</time>
      </trkpt>
      <trkpt lat="43.379088" lon="-4.316507">
        <ele>8.509</ele>
        <time>2022-08-28T10:58:57Z</time>
      </trkpt>
      <trkpt lat="43.379033" lon="-4.316409">
        <ele>8.925</ele>
        <time>2022-08-28T10:58:59Z</time>
      </trkpt>
      <trkpt lat="43.378993" lon="-4.316297">
        <ele>9.495</ele>
        <time>2022-08-28T10:59:01Z</time>
      </trkpt>
      <trkpt lat="43.378961" lon="-4.316184">
        <ele>10.076</ele>
        <time>2022-08-28T10:59:03Z</time>
      </trkpt>
      <trkpt lat="43.378939" lon="-4.316074">
        <ele>10.574</ele>
        <time>2022-08-28T10:59:05Z</time>
      </trkpt>
      <trkpt lat="43.378912" lon="-4.315957">
        <ele>10.869</ele>
        <time>2022-08-28T10:59:07Z</time>
      </trkpt>
      <trkpt lat="43.378894" lon="-4.315847">
        <ele>11.073</ele>
        <time>2022-08-28T10:59:09Z</time>
      </trkpt>
      <trkpt lat="43.378877" lon="-4.315734">
        <ele>11.299</ele>
        <time>2022-08-28T10:59:11Z</time>
      </trkpt>
      <trkpt lat="43.378865" lon="-4.315622">
        <ele>11.412</ele>
        <time>2022-08-28T10:59:13Z</time>
      </trkpt>
      <trkpt lat="43.378857" lon="-4.315507">
        <ele>11.463</ele>
        <time>2022-08-28T10:59:15Z</time>
      </trkpt>
      <trkpt lat="43.378857" lon="-4.315389">
        <ele>11.415</ele>
        <time>2022-08-28T10:59:17Z</time>
      </trkpt>
      <trkpt lat="43.378862" lon="-4.315271">
        <ele>11.565</ele>
        <time>2022-08-28T10:59:19Z</time>
      </trkpt>
      <trkpt lat="43.378867" lon="-4.315153">
        <ele>11.611</ele>
        <time>2022-08-28T10:59:21Z</time>
      </trkpt>
      <trkpt lat="43.378875" lon="-4.315036">
        <ele>11.809</ele>
        <time>2022-08-28T10:59:23Z</time>
      </trkpt>
      <trkpt lat="43.378887" lon="-4.314926">
        <ele>12.032</ele>
        <time>2022-08-28T10:59:25Z</time>
      </trkpt>
      <trkpt lat="43.378902" lon="-4.314816">
        <ele>12.282</ele>
        <time>2022-08-28T10:59:27Z</time>
      </trkpt>
      <trkpt lat="43.378922" lon="-4.314701">
        <ele>12.553</ele>
        <time>2022-08-28T10:59:29Z</time>
      </trkpt>
      <trkpt lat="43.378952" lon="-4.314586">
        <ele>12.881</ele>
        <time>2022-08-28T10:59:31Z</time>
      </trkpt>
      <trkpt lat="43.378979" lon="-4.314479">
        <ele>13.026</ele>
        <time>2022-08-28T10:59:33Z</time>
      </trkpt>
      <trkpt lat="43.378997" lon="-4.314421">
        <ele>13.190</ele>
        <time>2022-08-28T10:59:34Z</time>
      </trkpt>
      <trkpt lat="43.379034" lon="-4.314308">
        <ele>13.376</ele>
        <time>2022-08-28T10:59:36Z</time>
      </trkpt>
      <trkpt lat="43.379066" lon="-4.314195">
        <ele>13.639</ele>
        <time>2022-08-28T10:59:38Z</time>
      </trkpt>
      <trkpt lat="43.379086" lon="-4.314137">
        <ele>13.790</ele>
        <time>2022-08-28T10:59:39Z</time>
      </trkpt>
      <trkpt lat="43.379126" lon="-4.314019">
        <ele>13.981</ele>
        <time>2022-08-28T10:59:41Z</time>
      </trkpt>
      <trkpt lat="43.379158" lon="-4.313904">
        <ele>13.961</ele>
        <time>2022-08-28T10:59:43Z</time>
      </trkpt>
      <trkpt lat="43.379175" lon="-4.313846">
        <ele>14.117</ele>
        <time>2022-08-28T10:59:44Z</time>
      </trkpt>
      <trkpt lat="43.379208" lon="-4.313723">
        <ele>14.409</ele>
        <time>2022-08-28T10:59:46Z</time>
      </trkpt>
      <trkpt lat="43.379240" lon="-4.313606">
        <ele>14.519</ele>
        <time>2022-08-28T10:59:48Z</time>
      </trkpt>
      <trkpt lat="43.379260" lon="-4.313548">
        <ele>14.619</ele>
        <time>2022-08-28T10:59:49Z</time>
      </trkpt>
      <trkpt lat="43.379293" lon="-4.313430">
        <ele>14.430</ele>
        <time>2022-08-28T10:59:51Z</time>
      </trkpt>
      <trkpt lat="43.379333" lon="-4.313308">
        <ele>14.478</ele>
        <time>2022-08-28T10:59:53Z</time>
      </trkpt>
      <trkpt lat="43.379358" lon="-4.313246">
        <ele>14.613</ele>
        <time>2022-08-28T10:59:54Z</time>
      </trkpt>
      <trkpt lat="43.379381" lon="-4.313188">
        <ele>14.747</ele>
        <time>2022-08-28T10:59:55Z</time>
      </trkpt>
      <trkpt lat="43.379403" lon="-4.313133">
        <ele>14.843</ele>
        <time>2022-08-28T10:59:56Z</time>
      </trkpt>
      <trkpt lat="43.379423" lon="-4.313075">
        <ele>14.776</ele>
        <time>2022-08-28T10:59:57Z</time>
      </trkpt>
      <trkpt lat="43.379470" lon="-4.312955">
        <ele>14.947</ele>
        <time>2022-08-28T10:59:59Z</time>
      </trkpt>
      <trkpt lat="43.379520" lon="-4.312832">
        <ele>15.139</ele>
        <time>2022-08-28T11:00:01Z</time>
      </trkpt>
      <trkpt lat="43.379547" lon="-4.312770">
        <ele>15.201</ele>
        <time>2022-08-28T11:00:02Z</time>
      </trkpt>
      <trkpt lat="43.379597" lon="-4.312643">
        <ele>15.321</ele>
        <time>2022-08-28T11:00:04Z</time>
      </trkpt>
      <trkpt lat="43.379644" lon="-4.312518">
        <ele>15.009</ele>
        <time>2022-08-28T11:00:06Z</time>
      </trkpt>
      <trkpt lat="43.379671" lon="-4.312455">
        <ele>15.024</ele>
        <time>2022-08-28T11:00:07Z</time>
      </trkpt>
      <trkpt lat="43.379694" lon="-4.312397">
        <ele>14.964</ele>
        <time>2022-08-28T11:00:08Z</time>
      </trkpt>
      <trkpt lat="43.379721" lon="-4.312344">
        <ele>14.955</ele>
        <time>2022-08-28T11:00:09Z</time>
      </trkpt>
      <trkpt lat="43.379781" lon="-4.312224">
        <ele>14.963</ele>
        <time>2022-08-28T11:00:11Z</time>
      </trkpt>
      <trkpt lat="43.379834" lon="-4.312109">
        <ele>14.828</ele>
        <time>2022-08-28T11:00:13Z</time>
      </trkpt>
      <trkpt lat="43.379891" lon="-4.311976">
        <ele>14.732</ele>
        <time>2022-08-28T11:00:15Z</time>
      </trkpt>
      <trkpt lat="43.379914" lon="-4.311911">
        <ele>14.698</ele>
        <time>2022-08-28T11:00:16Z</time>
      </trkpt>
      <trkpt lat="43.379961" lon="-4.311786">
        <ele>14.941</ele>
        <time>2022-08-28T11:00:18Z</time>
      </trkpt>
      <trkpt lat="43.379981" lon="-4.311729">
        <ele>15.052</ele>
        <time>2022-08-28T11:00:19Z</time>
      </trkpt>
      <trkpt lat="43.380019" lon="-4.311621">
        <ele>15.464</ele>
        <time>2022-08-28T11:00:21Z</time>
      </trkpt>
      <trkpt lat="43.380057" lon="-4.311518">
        <ele>16.206</ele>
        <time>2022-08-28T11:00:23Z</time>
      </trkpt>
      <trkpt lat="43.380094" lon="-4.311421">
        <ele>17.016</ele>
        <time>2022-08-28T11:00:25Z</time>
      </trkpt>
      <trkpt lat="43.380129" lon="-4.311326">
        <ele>17.509</ele>
        <time>2022-08-28T11:00:27Z</time>
      </trkpt>
      <trkpt lat="43.380159" lon="-4.311234">
        <ele>17.657</ele>
        <time>2022-08-28T11:00:29Z</time>
      </trkpt>
      <trkpt lat="43.380194" lon="-4.311147">
        <ele>17.757</ele>
        <time>2022-08-28T11:00:31Z</time>
      </trkpt>
      <trkpt lat="43.380232" lon="-4.311064">
        <ele>18.018</ele>
        <time>2022-08-28T11:00:33Z</time>
      </trkpt>
      <trkpt lat="43.380272" lon="-4.310972">
        <ele>18.476</ele>
        <time>2022-08-28T11:00:35Z</time>
      </trkpt>
      <trkpt lat="43.380307" lon="-4.310880">
        <ele>19.051</ele>
        <time>2022-08-28T11:00:37Z</time>
      </trkpt>
      <trkpt lat="43.380347" lon="-4.310798">
        <ele>19.895</ele>
        <time>2022-08-28T11:00:39Z</time>
      </trkpt>
      <trkpt lat="43.380379" lon="-4.310726">
        <ele>20.231</ele>
        <time>2022-08-28T11:00:41Z</time>
      </trkpt>
      <trkpt lat="43.380416" lon="-4.310649">
        <ele>20.774</ele>
        <time>2022-08-28T11:00:43Z</time>
      </trkpt>
      <trkpt lat="43.380458" lon="-4.310559">
        <ele>20.915</ele>
        <time>2022-08-28T11:00:45Z</time>
      </trkpt>
      <trkpt lat="43.380491" lon="-4.310464">
        <ele>21.095</ele>
        <time>2022-08-28T11:00:47Z</time>
      </trkpt>
      <trkpt lat="43.380531" lon="-4.310376">
        <ele>21.249</ele>
        <time>2022-08-28T11:00:49Z</time>
      </trkpt>
      <trkpt lat="43.380561" lon="-4.310291">
        <ele>21.223</ele>
        <time>2022-08-28T11:00:51Z</time>
      </trkpt>
      <trkpt lat="43.380598" lon="-4.310203">
        <ele>21.609</ele>
        <time>2022-08-28T11:00:53Z</time>
      </trkpt>
      <trkpt lat="43.380635" lon="-4.310115">
        <ele>22.120</ele>
        <time>2022-08-28T11:00:55Z</time>
      </trkpt>
      <trkpt lat="43.380672" lon="-4.310028">
        <ele>22.630</ele>
        <time>2022-08-28T11:00:57Z</time>
      </trkpt>
      <trkpt lat="43.380710" lon="-4.309936">
        <ele>22.751</ele>
        <time>2022-08-28T11:00:59Z</time>
      </trkpt>
      <trkpt lat="43.380745" lon="-4.309839">
        <ele>22.519</ele>
        <time>2022-08-28T11:01:01Z</time>
      </trkpt>
      <trkpt lat="43.380780" lon="-4.309732">
        <ele>22.194</ele>
        <time>2022-08-28T11:01:03Z</time>
      </trkpt>
      <trkpt lat="43.380803" lon="-4.309675">
        <ele>22.118</ele>
        <time>2022-08-28T11:01:04Z</time>
      </trkpt>
      <trkpt lat="43.380823" lon="-4.309617">
        <ele>22.194</ele>
        <time>2022-08-28T11:01:05Z</time>
      </trkpt>
      <trkpt lat="43.380846" lon="-4.309555">
        <ele>22.087</ele>
        <time>2022-08-28T11:01:06Z</time>
      </trkpt>
      <trkpt lat="43.380894" lon="-4.309438">
        <ele>21.648</ele>
        <time>2022-08-28T11:01:08Z</time>
      </trkpt>
      <trkpt lat="43.380921" lon="-4.309380">
        <ele>21.765</ele>
        <time>2022-08-28T11:01:09Z</time>
      </trkpt>
      <trkpt lat="43.380973" lon="-4.309257">
        <ele>21.868</ele>
        <time>2022-08-28T11:01:11Z</time>
      </trkpt>
      <trkpt lat="43.380995" lon="-4.309195">
        <ele>21.814</ele>
        <time>2022-08-28T11:01:12Z</time>
      </trkpt>
      <trkpt lat="43.381035" lon="-4.309082">
        <ele>21.909</ele>
        <time>2022-08-28T11:01:14Z</time>
      </trkpt>
      <trkpt lat="43.381055" lon="-4.309024">
        <ele>21.927</ele>
        <time>2022-08-28T11:01:15Z</time>
      </trkpt>
      <trkpt lat="43.381108" lon="-4.308899">
        <ele>22.047</ele>
        <time>2022-08-28T11:01:17Z</time>
      </trkpt>
      <trkpt lat="43.381158" lon="-4.308769">
        <ele>22.098</ele>
        <time>2022-08-28T11:01:19Z</time>
      </trkpt>
      <trkpt lat="43.381216" lon="-4.308636">
        <ele>22.446</ele>
        <time>2022-08-28T11:01:21Z</time>
      </trkpt>
      <trkpt lat="43.381274" lon="-4.308514">
        <ele>22.951</ele>
        <time>2022-08-28T11:01:23Z</time>
      </trkpt>
      <trkpt lat="43.381299" lon="-4.308447">
        <ele>22.985</ele>
        <time>2022-08-28T11:01:24Z</time>
      </trkpt>
      <trkpt lat="43.381326" lon="-4.308380">
        <ele>22.741</ele>
        <time>2022-08-28T11:01:25Z</time>
      </trkpt>
      <trkpt lat="43.381381" lon="-4.308248">
        <ele>22.334</ele>
        <time>2022-08-28T11:01:27Z</time>
      </trkpt>
      <trkpt lat="43.381433" lon="-4.308106">
        <ele>22.345</ele>
        <time>2022-08-28T11:01:29Z</time>
      </trkpt>
      <trkpt lat="43.381480" lon="-4.307963">
        <ele>22.511</ele>
        <time>2022-08-28T11:01:31Z</time>
      </trkpt>
      <trkpt lat="43.381508" lon="-4.307898">
        <ele>22.621</ele>
        <time>2022-08-28T11:01:32Z</time>
      </trkpt>
      <trkpt lat="43.381540" lon="-4.307833">
        <ele>22.503</ele>
        <time>2022-08-28T11:01:33Z</time>
      </trkpt>
      <trkpt lat="43.381602" lon="-4.307701">
        <ele>22.609</ele>
        <time>2022-08-28T11:01:35Z</time>
      </trkpt>
      <trkpt lat="43.381657" lon="-4.307573">
        <ele>23.072</ele>
        <time>2022-08-28T11:01:37Z</time>
      </trkpt>
      <trkpt lat="43.381709" lon="-4.307448">
        <ele>23.352</ele>
        <time>2022-08-28T11:01:39Z</time>
      </trkpt>
      <trkpt lat="43.381757" lon="-4.307330">
        <ele>23.943</ele>
        <time>2022-08-28T11:01:41Z</time>
      </trkpt>
      <trkpt lat="43.381805" lon="-4.307215">
        <ele>24.511</ele>
        <time>2022-08-28T11:01:43Z</time>
      </trkpt>
      <trkpt lat="43.381830" lon="-4.307160">
        <ele>24.796</ele>
        <time>2022-08-28T11:01:44Z</time>
      </trkpt>
      <trkpt lat="43.381865" lon="-4.307052">
        <ele>24.920</ele>
        <time>2022-08-28T11:01:46Z</time>
      </trkpt>
      <trkpt lat="43.381887" lon="-4.306995">
        <ele>25.096</ele>
        <time>2022-08-28T11:01:47Z</time>
      </trkpt>
      <trkpt lat="43.381920" lon="-4.306892">
        <ele>25.219</ele>
        <time>2022-08-28T11:01:49Z</time>
      </trkpt>
      <trkpt lat="43.381958" lon="-4.306795">
        <ele>25.670</ele>
        <time>2022-08-28T11:01:51Z</time>
      </trkpt>
      <trkpt lat="43.381991" lon="-4.306693">
        <ele>25.921</ele>
        <time>2022-08-28T11:01:53Z</time>
      </trkpt>
      <trkpt lat="43.382024" lon="-4.306596">
        <ele>26.241</ele>
        <time>2022-08-28T11:01:55Z</time>
      </trkpt>
      <trkpt lat="43.382056" lon="-4.306499">
        <ele>26.405</ele>
        <time>2022-08-28T11:01:57Z</time>
      </trkpt>
      <trkpt lat="43.382096" lon="-4.306409">
        <ele>26.409</ele>
        <time>2022-08-28T11:01:59Z</time>
      </trkpt>
      <trkpt lat="43.382134" lon="-4.306319">
        <ele>26.773</ele>
        <time>2022-08-28T11:02:01Z</time>
      </trkpt>
      <trkpt lat="43.382174" lon="-4.306224">
        <ele>27.383</ele>
        <time>2022-08-28T11:02:03Z</time>
      </trkpt>
      <trkpt lat="43.382212" lon="-4.306134">
        <ele>27.844</ele>
        <time>2022-08-28T11:02:05Z</time>
      </trkpt>
      <trkpt lat="43.382247" lon="-4.306044">
        <ele>28.322</ele>
        <time>2022-08-28T11:02:07Z</time>
      </trkpt>
      <trkpt lat="43.382285" lon="-4.305952">
        <ele>28.747</ele>
        <time>2022-08-28T11:02:09Z</time>
      </trkpt>
      <trkpt lat="43.382325" lon="-4.305857">
        <ele>28.941</ele>
        <time>2022-08-28T11:02:11Z</time>
      </trkpt>
      <trkpt lat="43.382357" lon="-4.305769">
        <ele>29.147</ele>
        <time>2022-08-28T11:02:13Z</time>
      </trkpt>
      <trkpt lat="43.382384" lon="-4.305686">
        <ele>29.370</ele>
        <time>2022-08-28T11:02:15Z</time>
      </trkpt>
      <trkpt lat="43.382412" lon="-4.305601">
        <ele>29.661</ele>
        <time>2022-08-28T11:02:17Z</time>
      </trkpt>
      <trkpt lat="43.382447" lon="-4.305514">
        <ele>30.013</ele>
        <time>2022-08-28T11:02:19Z</time>
      </trkpt>
      <trkpt lat="43.382477" lon="-4.305431">
        <ele>30.443</ele>
        <time>2022-08-28T11:02:21Z</time>
      </trkpt>
      <trkpt lat="43.382509" lon="-4.305353">
        <ele>30.807</ele>
        <time>2022-08-28T11:02:23Z</time>
      </trkpt>
      <trkpt lat="43.382534" lon="-4.305271">
        <ele>31.109</ele>
        <time>2022-08-28T11:02:25Z</time>
      </trkpt>
      <trkpt lat="43.382577" lon="-4.305198">
        <ele>31.592</ele>
        <time>2022-08-28T11:02:27Z</time>
      </trkpt>
      <trkpt lat="43.382612" lon="-4.305118">
        <ele>31.712</ele>
        <time>2022-08-28T11:02:29Z</time>
      </trkpt>
      <trkpt lat="43.382642" lon="-4.305041">
        <ele>31.943</ele>
        <time>2022-08-28T11:02:31Z</time>
      </trkpt>
      <trkpt lat="43.382674" lon="-4.304963">
        <ele>32.181</ele>
        <time>2022-08-28T11:02:33Z</time>
      </trkpt>
      <trkpt lat="43.382707" lon="-4.304875">
        <ele>32.596</ele>
        <time>2022-08-28T11:02:35Z</time>
      </trkpt>
      <trkpt lat="43.382739" lon="-4.304772">
        <ele>32.840</ele>
        <time>2022-08-28T11:02:37Z</time>
      </trkpt>
      <trkpt lat="43.382771" lon="-4.304674">
        <ele>33.266</ele>
        <time>2022-08-28T11:02:39Z</time>
      </trkpt>
      <trkpt lat="43.382798" lon="-4.304572">
        <ele>33.899</ele>
        <time>2022-08-28T11:02:41Z</time>
      </trkpt>
      <trkpt lat="43.382825" lon="-4.304475">
        <ele>34.590</ele>
        <time>2022-08-28T11:02:43Z</time>
      </trkpt>
      <trkpt lat="43.382842" lon="-4.304368">
        <ele>35.128</ele>
        <time>2022-08-28T11:02:45Z</time>
      </trkpt>
      <trkpt lat="43.382867" lon="-4.304260">
        <ele>35.789</ele>
        <time>2022-08-28T11:02:47Z</time>
      </trkpt>
      <trkpt lat="43.382887" lon="-4.304150">
        <ele>36.517</ele>
        <time>2022-08-28T11:02:49Z</time>
      </trkpt>
      <trkpt lat="43.382907" lon="-4.304042">
        <ele>37.509</ele>
        <time>2022-08-28T11:02:51Z</time>
      </trkpt>
      <trkpt lat="43.382930" lon="-4.303925">
        <ele>38.633</ele>
        <time>2022-08-28T11:02:53Z</time>
      </trkpt>
      <trkpt lat="43.382957" lon="-4.303812">
        <ele>39.223</ele>
        <time>2022-08-28T11:02:55Z</time>
      </trkpt>
      <trkpt lat="43.382979" lon="-4.303712">
        <ele>39.574</ele>
        <time>2022-08-28T11:02:57Z</time>
      </trkpt>
      <trkpt lat="43.382989" lon="-4.303602">
        <ele>39.512</ele>
        <time>2022-08-28T11:02:59Z</time>
      </trkpt>
      <trkpt lat="43.383012" lon="-4.303500">
        <ele>39.337</ele>
        <time>2022-08-28T11:03:01Z</time>
      </trkpt>
      <trkpt lat="43.383032" lon="-4.303397">
        <ele>39.111</ele>
        <time>2022-08-28T11:03:03Z</time>
      </trkpt>
      <trkpt lat="43.383059" lon="-4.303299">
        <ele>39.037</ele>
        <time>2022-08-28T11:03:05Z</time>
      </trkpt>
      <trkpt lat="43.383089" lon="-4.303194">
        <ele>39.930</ele>
        <time>2022-08-28T11:03:07Z</time>
      </trkpt>
      <trkpt lat="43.383127" lon="-4.303092">
        <ele>40.891</ele>
        <time>2022-08-28T11:03:09Z</time>
      </trkpt>
      <trkpt lat="43.383155" lon="-4.302987">
        <ele>41.379</ele>
        <time>2022-08-28T11:03:11Z</time>
      </trkpt>
      <trkpt lat="43.383190" lon="-4.302892">
        <ele>41.705</ele>
        <time>2022-08-28T11:03:13Z</time>
      </trkpt>
      <trkpt lat="43.383228" lon="-4.302787">
        <ele>41.625</ele>
        <time>2022-08-28T11:03:15Z</time>
      </trkpt>
      <trkpt lat="43.383260" lon="-4.302675">
        <ele>41.109</ele>
        <time>2022-08-28T11:03:17Z</time>
      </trkpt>
      <trkpt lat="43.383298" lon="-4.302562">
        <ele>40.518</ele>
        <time>2022-08-28T11:03:19Z</time>
      </trkpt>
      <trkpt lat="43.383315" lon="-4.302504">
        <ele>40.048</ele>
        <time>2022-08-28T11:03:20Z</time>
      </trkpt>
      <trkpt lat="43.383350" lon="-4.302389">
        <ele>40.149</ele>
        <time>2022-08-28T11:03:22Z</time>
      </trkpt>
      <trkpt lat="43.383365" lon="-4.302331">
        <ele>40.347</ele>
        <time>2022-08-28T11:03:23Z</time>
      </trkpt>
      <trkpt lat="43.383380" lon="-4.302271">
        <ele>40.412</ele>
        <time>2022-08-28T11:03:24Z</time>
      </trkpt>
      <trkpt lat="43.383403" lon="-4.302164">
        <ele>40.946</ele>
        <time>2022-08-28T11:03:26Z</time>
      </trkpt>
      <trkpt lat="43.383428" lon="-4.302061">
        <ele>41.692</ele>
        <time>2022-08-28T11:03:28Z</time>
      </trkpt>
      <trkpt lat="43.383450" lon="-4.301961">
        <ele>42.155</ele>
        <time>2022-08-28T11:03:30Z</time>
      </trkpt>
      <trkpt lat="43.383467" lon="-4.301874">
        <ele>42.296</ele>
        <time>2022-08-28T11:03:32Z</time>
      </trkpt>
      <trkpt lat="43.383490" lon="-4.301781">
        <ele>42.252</ele>
        <time>2022-08-28T11:03:34Z</time>
      </trkpt>
      <trkpt lat="43.383513" lon="-4.301688">
        <ele>42.053</ele>
        <time>2022-08-28T11:03:36Z</time>
      </trkpt>
      <trkpt lat="43.383538" lon="-4.301586">
        <ele>42.008</ele>
        <time>2022-08-28T11:03:38Z</time>
      </trkpt>
      <trkpt lat="43.383565" lon="-4.301491">
        <ele>42.009</ele>
        <time>2022-08-28T11:03:40Z</time>
      </trkpt>
      <trkpt lat="43.383588" lon="-4.301389">
        <ele>41.866</ele>
        <time>2022-08-28T11:03:42Z</time>
      </trkpt>
      <trkpt lat="43.383606" lon="-4.301289">
        <ele>41.636</ele>
        <time>2022-08-28T11:03:44Z</time>
      </trkpt>
      <trkpt lat="43.383629" lon="-4.301189">
        <ele>41.977</ele>
        <time>2022-08-28T11:03:46Z</time>
      </trkpt>
      <trkpt lat="43.383647" lon="-4.301081">
        <ele>42.165</ele>
        <time>2022-08-28T11:03:48Z</time>
      </trkpt>
      <trkpt lat="43.383665" lon="-4.300968">
        <ele>42.420</ele>
        <time>2022-08-28T11:03:50Z</time>
      </trkpt>
      <trkpt lat="43.383685" lon="-4.300848">
        <ele>42.634</ele>
        <time>2022-08-28T11:03:52Z</time>
      </trkpt>
      <trkpt lat="43.383708" lon="-4.300725">
        <ele>42.360</ele>
        <time>2022-08-28T11:03:54Z</time>
      </trkpt>
      <trkpt lat="43.383720" lon="-4.300658">
        <ele>42.013</ele>
        <time>2022-08-28T11:03:55Z</time>
      </trkpt>
      <trkpt lat="43.383747" lon="-4.300526">
        <ele>41.414</ele>
        <time>2022-08-28T11:03:57Z</time>
      </trkpt>
      <trkpt lat="43.383762" lon="-4.300454">
        <ele>41.369</ele>
        <time>2022-08-28T11:03:58Z</time>
      </trkpt>
      <trkpt lat="43.383792" lon="-4.300299">
        <ele>41.004</ele>
        <time>2022-08-28T11:04:00Z</time>
      </trkpt>
      <trkpt lat="43.383809" lon="-4.300217">
        <ele>40.824</ele>
        <time>2022-08-28T11:04:01Z</time>
      </trkpt>
      <trkpt lat="43.383846" lon="-4.300037">
        <ele>40.109</ele>
        <time>2022-08-28T11:04:03Z</time>
      </trkpt>
      <trkpt lat="43.383864" lon="-4.299942">
        <ele>39.517</ele>
        <time>2022-08-28T11:04:04Z</time>
      </trkpt>
      <trkpt lat="43.383901" lon="-4.299739">
        <ele>38.337</ele>
        <time>2022-08-28T11:04:06Z</time>
      </trkpt>
      <trkpt lat="43.383948" lon="-4.299524">
        <ele>36.938</ele>
        <time>2022-08-28T11:04:08Z</time>
      </trkpt>
      <trkpt lat="43.384000" lon="-4.299299">
        <ele>35.566</ele>
        <time>2022-08-28T11:04:10Z</time>
      </trkpt>
      <trkpt lat="43.384027" lon="-4.299186">
        <ele>34.621</ele>
        <time>2022-08-28T11:04:11Z</time>
      </trkpt>
      <trkpt lat="43.384077" lon="-4.298943">
        <ele>33.385</ele>
        <time>2022-08-28T11:04:13Z</time>
      </trkpt>
      <trkpt lat="43.384129" lon="-4.298690">
        <ele>32.551</ele>
        <time>2022-08-28T11:04:15Z</time>
      </trkpt>
      <trkpt lat="43.384154" lon="-4.298558">
        <ele>31.924</ele>
        <time>2022-08-28T11:04:16Z</time>
      </trkpt>
      <trkpt lat="43.384207" lon="-4.298301">
        <ele>30.915</ele>
        <time>2022-08-28T11:04:18Z</time>
      </trkpt>
      <trkpt lat="43.384235" lon="-4.298179">
        <ele>30.458</ele>
        <time>2022-08-28T11:04:19Z</time>
      </trkpt>
      <trkpt lat="43.384260" lon="-4.298061">
        <ele>30.052</ele>
        <time>2022-08-28T11:04:20Z</time>
      </trkpt>
      <trkpt lat="43.384285" lon="-4.297943">
        <ele>29.617</ele>
        <time>2022-08-28T11:04:21Z</time>
      </trkpt>
      <trkpt lat="43.384308" lon="-4.297825">
        <ele>29.209</ele>
        <time>2022-08-28T11:04:22Z</time>
      </trkpt>
      <trkpt lat="43.384350" lon="-4.297605">
        <ele>28.496</ele>
        <time>2022-08-28T11:04:24Z</time>
      </trkpt>
      <trkpt lat="43.384383" lon="-4.297400">
        <ele>28.036</ele>
        <time>2022-08-28T11:04:26Z</time>
      </trkpt>
      <trkpt lat="43.384396" lon="-4.297195">
        <ele>27.967</ele>
        <time>2022-08-28T11:04:28Z</time>
      </trkpt>
      <trkpt lat="43.384396" lon="-4.297095">
        <ele>27.575</ele>
        <time>2022-08-28T11:04:29Z</time>
      </trkpt>
      <trkpt lat="43.384406" lon="-4.296997">
        <ele>27.210</ele>
        <time>2022-08-28T11:04:30Z</time>
      </trkpt>
      <trkpt lat="43.384431" lon="-4.296905">
        <ele>26.934</ele>
        <time>2022-08-28T11:04:31Z</time>
      </trkpt>
      <trkpt lat="43.384496" lon="-4.296740">
        <ele>26.460</ele>
        <time>2022-08-28T11:04:33Z</time>
      </trkpt>
      <trkpt lat="43.384524" lon="-4.296655">
        <ele>26.283</ele>
        <time>2022-08-28T11:04:34Z</time>
      </trkpt>
      <trkpt lat="43.384549" lon="-4.296567">
        <ele>25.994</ele>
        <time>2022-08-28T11:04:35Z</time>
      </trkpt>
      <trkpt lat="43.384574" lon="-4.296469">
        <ele>25.487</ele>
        <time>2022-08-28T11:04:36Z</time>
      </trkpt>
      <trkpt lat="43.384616" lon="-4.296246">
        <ele>24.742</ele>
        <time>2022-08-28T11:04:38Z</time>
      </trkpt>
      <trkpt lat="43.384641" lon="-4.296126">
        <ele>24.326</ele>
        <time>2022-08-28T11:04:39Z</time>
      </trkpt>
      <trkpt lat="43.384693" lon="-4.295891">
        <ele>23.309</ele>
        <time>2022-08-28T11:04:41Z</time>
      </trkpt>
      <trkpt lat="43.384720" lon="-4.295778">
        <ele>22.899</ele>
        <time>2022-08-28T11:04:42Z</time>
      </trkpt>
      <trkpt lat="43.384742" lon="-4.295668">
        <ele>22.569</ele>
        <time>2022-08-28T11:04:43Z</time>
      </trkpt>
      <trkpt lat="43.384780" lon="-4.295471">
        <ele>21.890</ele>
        <time>2022-08-28T11:04:45Z</time>
      </trkpt>
      <trkpt lat="43.384828" lon="-4.295296">
        <ele>21.138</ele>
        <time>2022-08-28T11:04:47Z</time>
      </trkpt>
      <trkpt lat="43.384848" lon="-4.295213">
        <ele>20.973</ele>
        <time>2022-08-28T11:04:48Z</time>
      </trkpt>
      <trkpt lat="43.384888" lon="-4.295045">
        <ele>20.557</ele>
        <time>2022-08-28T11:04:50Z</time>
      </trkpt>
      <trkpt lat="43.384923" lon="-4.294885">
        <ele>20.273</ele>
        <time>2022-08-28T11:04:52Z</time>
      </trkpt>
      <trkpt lat="43.384941" lon="-4.294803">
        <ele>20.166</ele>
        <time>2022-08-28T11:04:53Z</time>
      </trkpt>
      <trkpt lat="43.384961" lon="-4.294720">
        <ele>20.027</ele>
        <time>2022-08-28T11:04:54Z</time>
      </trkpt>
      <trkpt lat="43.385003" lon="-4.294553">
        <ele>19.464</ele>
        <time>2022-08-28T11:04:56Z</time>
      </trkpt>
      <trkpt lat="43.385026" lon="-4.294470">
        <ele>19.206</ele>
        <time>2022-08-28T11:04:57Z</time>
      </trkpt>
      <trkpt lat="43.385041" lon="-4.294385">
        <ele>18.916</ele>
        <time>2022-08-28T11:04:58Z</time>
      </trkpt>
      <trkpt lat="43.385071" lon="-4.294215">
        <ele>18.409</ele>
        <time>2022-08-28T11:05:00Z</time>
      </trkpt>
      <trkpt lat="43.385104" lon="-4.294040">
        <ele>18.287</ele>
        <time>2022-08-28T11:05:02Z</time>
      </trkpt>
      <trkpt lat="43.385122" lon="-4.293960">
        <ele>18.137</ele>
        <time>2022-08-28T11:05:03Z</time>
      </trkpt>
      <trkpt lat="43.385160" lon="-4.293818">
        <ele>18.048</ele>
        <time>2022-08-28T11:05:05Z</time>
      </trkpt>
      <trkpt lat="43.385172" lon="-4.293756">
        <ele>18.066</ele>
        <time>2022-08-28T11:05:06Z</time>
      </trkpt>
      <trkpt lat="43.385194" lon="-4.293659">
        <ele>18.041</ele>
        <time>2022-08-28T11:05:08Z</time>
      </trkpt>
      <trkpt lat="43.385219" lon="-4.293579">
        <ele>17.925</ele>
        <time>2022-08-28T11:05:10Z</time>
      </trkpt>
      <trkpt lat="43.385229" lon="-4.293481">
        <ele>17.591</ele>
        <time>2022-08-28T11:05:12Z</time>
      </trkpt>
      <trkpt lat="43.385251" lon="-4.293371">
        <ele>17.184</ele>
        <time>2022-08-28T11:05:14Z</time>
      </trkpt>
      <trkpt lat="43.385278" lon="-4.293241">
        <ele>17.045</ele>
        <time>2022-08-28T11:05:16Z</time>
      </trkpt>
      <trkpt lat="43.385293" lon="-4.293178">
        <ele>17.015</ele>
        <time>2022-08-28T11:05:17Z</time>
      </trkpt>
      <trkpt lat="43.385310" lon="-4.293115">
        <ele>16.965</ele>
        <time>2022-08-28T11:05:18Z</time>
      </trkpt>
      <trkpt lat="43.385347" lon="-4.292998">
        <ele>16.811</ele>
        <time>2022-08-28T11:05:20Z</time>
      </trkpt>
      <trkpt lat="43.385379" lon="-4.292895">
        <ele>16.809</ele>
        <time>2022-08-28T11:05:22Z</time>
      </trkpt>
      <trkpt lat="43.385402" lon="-4.292808">
        <ele>17.042</ele>
        <time>2022-08-28T11:05:24Z</time>
      </trkpt>
      <trkpt lat="43.385424" lon="-4.292731">
        <ele>17.152</ele>
        <time>2022-08-28T11:05:26Z</time>
      </trkpt>
      <trkpt lat="43.385437" lon="-4.292658">
        <ele>17.283</ele>
        <time>2022-08-28T11:05:28Z</time>
      </trkpt>
      <trkpt lat="43.385450" lon="-4.292588">
        <ele>17.341</ele>
        <time>2022-08-28T11:05:30Z</time>
      </trkpt>
      <trkpt lat="43.385472" lon="-4.292523">
        <ele>17.396</ele>
        <time>2022-08-28T11:05:32Z</time>
      </trkpt>
      <trkpt lat="43.385499" lon="-4.292473">
        <ele>17.320</ele>
        <time>2022-08-28T11:05:34Z</time>
      </trkpt>
      <trkpt lat="43.385474" lon="-4.292400">
        <ele>17.536</ele>
        <time>2022-08-28T11:05:55Z</time>
      </trkpt>
      <trkpt lat="43.385529" lon="-4.292367">
        <ele>17.589</ele>
        <time>2022-08-28T11:06:11Z</time>
      </trkpt>
      <trkpt lat="43.385574" lon="-4.292299">
        <ele>17.880</ele>
        <time>2022-08-28T11:06:14Z</time>
      </trkpt>
      <trkpt lat="43.385609" lon="-4.292249">
        <ele>18.164</ele>
        <time>2022-08-28T11:06:16Z</time>
      </trkpt>
      <trkpt lat="43.385621" lon="-4.292176">
        <ele>18.306</ele>
        <time>2022-08-28T11:06:19Z</time>
      </trkpt>
      <trkpt lat="43.385578" lon="-4.292144">
        <ele>18.116</ele>
        <time>2022-08-28T11:06:21Z</time>
      </trkpt>
      <trkpt lat="43.385528" lon="-4.292104">
        <ele>18.009</ele>
        <time>2022-08-28T11:06:23Z</time>
      </trkpt>
      <trkpt lat="43.385506" lon="-4.292049">
        <ele>18.177</ele>
        <time>2022-08-28T11:06:25Z</time>
      </trkpt>
      <trkpt lat="43.385511" lon="-4.291977">
        <ele>18.127</ele>
        <time>2022-08-28T11:06:28Z</time>
      </trkpt>
      <trkpt lat="43.385534" lon="-4.291917">
        <ele>18.218</ele>
        <time>2022-08-28T11:06:32Z</time>
      </trkpt>
      <trkpt lat="43.385546" lon="-4.291845">
        <ele>18.456</ele>
        <time>2022-08-28T11:06:35Z</time>
      </trkpt>
      <trkpt lat="43.385573" lon="-4.291737">
        <ele>18.891</ele>
        <time>2022-08-28T11:06:40Z</time>
      </trkpt>
      <trkpt lat="43.385606" lon="-4.291687">
        <ele>19.145</ele>
        <time>2022-08-28T11:06:43Z</time>
      </trkpt>
      <trkpt lat="43.385639" lon="-4.291614">
        <ele>19.641</ele>
        <time>2022-08-28T11:06:46Z</time>
      </trkpt>
      <trkpt lat="43.385682" lon="-4.291552">
        <ele>20.144</ele>
        <time>2022-08-28T11:06:49Z</time>
      </trkpt>
      <trkpt lat="43.385714" lon="-4.291489">
        <ele>20.575</ele>
        <time>2022-08-28T11:06:52Z</time>
      </trkpt>
      <trkpt lat="43.385737" lon="-4.291427">
        <ele>20.859</ele>
        <time>2022-08-28T11:06:55Z</time>
      </trkpt>
      <trkpt lat="43.385757" lon="-4.291357">
        <ele>21.103</ele>
        <time>2022-08-28T11:06:58Z</time>
      </trkpt>
      <trkpt lat="43.385790" lon="-4.291315">
        <ele>21.323</ele>
        <time>2022-08-28T11:07:01Z</time>
      </trkpt>
      <trkpt lat="43.385840" lon="-4.291280">
        <ele>21.409</ele>
        <time>2022-08-28T11:07:04Z</time>
      </trkpt>
      <trkpt lat="43.385872" lon="-4.291223">
        <ele>21.766</ele>
        <time>2022-08-28T11:07:06Z</time>
      </trkpt>
      <trkpt lat="43.385872" lon="-4.291156">
        <ele>22.086</ele>
        <time>2022-08-28T11:07:08Z</time>
      </trkpt>
      <trkpt lat="43.385877" lon="-4.291094">
        <ele>22.227</ele>
        <time>2022-08-28T11:07:10Z</time>
      </trkpt>
      <trkpt lat="43.385895" lon="-4.291031">
        <ele>22.535</ele>
        <time>2022-08-28T11:07:13Z</time>
      </trkpt>
      <trkpt lat="43.385918" lon="-4.290959">
        <ele>22.920</ele>
        <time>2022-08-28T11:07:17Z</time>
      </trkpt>
      <trkpt lat="43.385958" lon="-4.290894">
        <ele>23.284</ele>
        <time>2022-08-28T11:07:20Z</time>
      </trkpt>
      <trkpt lat="43.386011" lon="-4.290864">
        <ele>23.590</ele>
        <time>2022-08-28T11:07:23Z</time>
      </trkpt>
      <trkpt lat="43.386053" lon="-4.290816">
        <ele>23.913</ele>
        <time>2022-08-28T11:07:26Z</time>
      </trkpt>
      <trkpt lat="43.386096" lon="-4.290776">
        <ele>24.224</ele>
        <time>2022-08-28T11:07:30Z</time>
      </trkpt>
      <trkpt lat="43.386131" lon="-4.290723">
        <ele>24.695</ele>
        <time>2022-08-28T11:07:34Z</time>
      </trkpt>
      <trkpt lat="43.386188" lon="-4.290711">
        <ele>25.149</ele>
        <time>2022-08-28T11:07:38Z</time>
      </trkpt>
      <trkpt lat="43.386265" lon="-4.290706">
        <ele>25.923</ele>
        <time>2022-08-28T11:07:44Z</time>
      </trkpt>
      <trkpt lat="43.386268" lon="-4.290574">
        <ele>26.109</ele>
        <time>2022-08-28T11:08:17Z</time>
      </trkpt>
      <trkpt lat="43.386751" lon="-4.288817">
        <ele>36.790</ele>
        <time>2022-08-28T11:40:56Z</time>
      </trkpt>
      <trkpt lat="43.386779" lon="-4.288742">
        <ele>36.930</ele>
        <time>2022-08-28T11:41:00Z</time>
      </trkpt>
      <trkpt lat="43.386789" lon="-4.288680">
        <ele>37.011</ele>
        <time>2022-08-28T11:41:02Z</time>
      </trkpt>
      <trkpt lat="43.386802" lon="-4.288588">
        <ele>37.169</ele>
        <time>2022-08-28T11:41:05Z</time>
      </trkpt>
      <trkpt lat="43.386810" lon="-4.288508">
        <ele>37.374</ele>
        <time>2022-08-28T11:41:07Z</time>
      </trkpt>
      <trkpt lat="43.386828" lon="-4.288425">
        <ele>37.388</ele>
        <time>2022-08-28T11:41:09Z</time>
      </trkpt>
      <trkpt lat="43.386838" lon="-4.288330">
        <ele>37.354</ele>
        <time>2022-08-28T11:41:11Z</time>
      </trkpt>
      <trkpt lat="43.386865" lon="-4.288213">
        <ele>37.297</ele>
        <time>2022-08-28T11:41:13Z</time>
      </trkpt>
      <trkpt lat="43.386875" lon="-4.288148">
        <ele>37.278</ele>
        <time>2022-08-28T11:41:14Z</time>
      </trkpt>
      <trkpt lat="43.386907" lon="-4.287996">
        <ele>35.861</ele>
        <time>2022-08-28T11:41:16Z</time>
      </trkpt>
      <trkpt lat="43.386927" lon="-4.287831">
        <ele>33.421</ele>
        <time>2022-08-28T11:41:18Z</time>
      </trkpt>
      <trkpt lat="43.386942" lon="-4.287651">
        <ele>32.113</ele>
        <time>2022-08-28T11:41:20Z</time>
      </trkpt>
      <trkpt lat="43.386954" lon="-4.287473">
        <ele>31.809</ele>
        <time>2022-08-28T11:41:22Z</time>
      </trkpt>
      <trkpt lat="43.386961" lon="-4.287396">
        <ele>31.667</ele>
        <time>2022-08-28T11:41:23Z</time>
      </trkpt>
      <trkpt lat="43.386974" lon="-4.287259">
        <ele>31.317</ele>
        <time>2022-08-28T11:41:25Z</time>
      </trkpt>
      <trkpt lat="43.386979" lon="-4.287182">
        <ele>31.218</ele>
        <time>2022-08-28T11:41:26Z</time>
      </trkpt>
      <trkpt lat="43.386991" lon="-4.287099">
        <ele>31.166</ele>
        <time>2022-08-28T11:41:27Z</time>
      </trkpt>
      <trkpt lat="43.387009" lon="-4.286916">
        <ele>31.041</ele>
        <time>2022-08-28T11:41:29Z</time>
      </trkpt>
      <trkpt lat="43.387036" lon="-4.286719">
        <ele>30.375</ele>
        <time>2022-08-28T11:41:31Z</time>
      </trkpt>
      <trkpt lat="43.387046" lon="-4.286616">
        <ele>30.261</ele>
        <time>2022-08-28T11:41:32Z</time>
      </trkpt>
      <trkpt lat="43.387059" lon="-4.286508">
        <ele>30.124</ele>
        <time>2022-08-28T11:41:33Z</time>
      </trkpt>
      <trkpt lat="43.387096" lon="-4.286300">
        <ele>29.175</ele>
        <time>2022-08-28T11:41:35Z</time>
      </trkpt>
      <trkpt lat="43.387129" lon="-4.286097">
        <ele>27.799</ele>
        <time>2022-08-28T11:41:37Z</time>
      </trkpt>
      <trkpt lat="43.387141" lon="-4.285995">
        <ele>27.307</ele>
        <time>2022-08-28T11:41:38Z</time>
      </trkpt>
      <trkpt lat="43.387164" lon="-4.285798">
        <ele>26.427</ele>
        <time>2022-08-28T11:41:40Z</time>
      </trkpt>
      <trkpt lat="43.387176" lon="-4.285595">
        <ele>25.809</ele>
        <time>2022-08-28T11:41:42Z</time>
      </trkpt>
      <trkpt lat="43.387174" lon="-4.285377">
        <ele>25.810</ele>
        <time>2022-08-28T11:41:44Z</time>
      </trkpt>
      <trkpt lat="43.387167" lon="-4.285267">
        <ele>26.180</ele>
        <time>2022-08-28T11:41:45Z</time>
      </trkpt>
      <trkpt lat="43.387162" lon="-4.285040">
        <ele>25.611</ele>
        <time>2022-08-28T11:41:47Z</time>
      </trkpt>
      <trkpt lat="43.387162" lon="-4.284812">
        <ele>24.549</ele>
        <time>2022-08-28T11:41:49Z</time>
      </trkpt>
      <trkpt lat="43.387154" lon="-4.284590">
        <ele>23.894</ele>
        <time>2022-08-28T11:41:51Z</time>
      </trkpt>
      <trkpt lat="43.387154" lon="-4.284365">
        <ele>23.128</ele>
        <time>2022-08-28T11:41:53Z</time>
      </trkpt>
      <trkpt lat="43.387159" lon="-4.284242">
        <ele>22.884</ele>
        <time>2022-08-28T11:41:54Z</time>
      </trkpt>
      <trkpt lat="43.387164" lon="-4.284122">
        <ele>22.487</ele>
        <time>2022-08-28T11:41:55Z</time>
      </trkpt>
      <trkpt lat="43.387166" lon="-4.283897">
        <ele>21.768</ele>
        <time>2022-08-28T11:41:57Z</time>
      </trkpt>
      <trkpt lat="43.387173" lon="-4.283779">
        <ele>21.378</ele>
        <time>2022-08-28T11:41:58Z</time>
      </trkpt>
      <trkpt lat="43.387175" lon="-4.283554">
        <ele>21.233</ele>
        <time>2022-08-28T11:42:00Z</time>
      </trkpt>
      <trkpt lat="43.387185" lon="-4.283324">
        <ele>20.926</ele>
        <time>2022-08-28T11:42:02Z</time>
      </trkpt>
      <trkpt lat="43.387192" lon="-4.283207">
        <ele>20.509</ele>
        <time>2022-08-28T11:42:03Z</time>
      </trkpt>
      <trkpt lat="43.387215" lon="-4.282967">
        <ele>19.788</ele>
        <time>2022-08-28T11:42:05Z</time>
      </trkpt>
      <trkpt lat="43.387225" lon="-4.282857">
        <ele>19.688</ele>
        <time>2022-08-28T11:42:06Z</time>
      </trkpt>
      <trkpt lat="43.387233" lon="-4.282760">
        <ele>19.759</ele>
        <time>2022-08-28T11:42:07Z</time>
      </trkpt>
      <trkpt lat="43.387248" lon="-4.282577">
        <ele>19.457</ele>
        <time>2022-08-28T11:42:09Z</time>
      </trkpt>
      <trkpt lat="43.387265" lon="-4.282422">
        <ele>18.942</ele>
        <time>2022-08-28T11:42:11Z</time>
      </trkpt>
      <trkpt lat="43.387287" lon="-4.282340">
        <ele>18.346</ele>
        <time>2022-08-28T11:42:12Z</time>
      </trkpt>
      <trkpt lat="43.387300" lon="-4.282257">
        <ele>17.932</ele>
        <time>2022-08-28T11:42:13Z</time>
      </trkpt>
      <trkpt lat="43.387293" lon="-4.282072">
        <ele>16.815</ele>
        <time>2022-08-28T11:42:15Z</time>
      </trkpt>
      <trkpt lat="43.387233" lon="-4.281917">
        <ele>16.726</ele>
        <time>2022-08-28T11:42:17Z</time>
      </trkpt>
      <trkpt lat="43.387201" lon="-4.281840">
        <ele>17.467</ele>
        <time>2022-08-28T11:42:18Z</time>
      </trkpt>
      <trkpt lat="43.387169" lon="-4.281763">
        <ele>18.181</ele>
        <time>2022-08-28T11:42:19Z</time>
      </trkpt>
      <trkpt lat="43.387106" lon="-4.281608">
        <ele>18.519</ele>
        <time>2022-08-28T11:42:21Z</time>
      </trkpt>
      <trkpt lat="43.387051" lon="-4.281448">
        <ele>16.909</ele>
        <time>2022-08-28T11:42:23Z</time>
      </trkpt>
      <trkpt lat="43.387021" lon="-4.281285">
        <ele>13.077</ele>
        <time>2022-08-28T11:42:25Z</time>
      </trkpt>
      <trkpt lat="43.387018" lon="-4.281123">
        <ele>8.057</ele>
        <time>2022-08-28T11:42:27Z</time>
      </trkpt>
      <trkpt lat="43.387023" lon="-4.281045">
        <ele>7.598</ele>
        <time>2022-08-28T11:42:28Z</time>
      </trkpt>
      <trkpt lat="43.387026" lon="-4.280963">
        <ele>7.426</ele>
        <time>2022-08-28T11:42:29Z</time>
      </trkpt>
      <trkpt lat="43.387051" lon="-4.280795">
        <ele>7.781</ele>
        <time>2022-08-28T11:42:31Z</time>
      </trkpt>
      <trkpt lat="43.387118" lon="-4.280638">
        <ele>10.675</ele>
        <time>2022-08-28T11:42:33Z</time>
      </trkpt>
      <trkpt lat="43.387216" lon="-4.280500">
        <ele>13.581</ele>
        <time>2022-08-28T11:42:35Z</time>
      </trkpt>
      <trkpt lat="43.387278" lon="-4.280445">
        <ele>14.064</ele>
        <time>2022-08-28T11:42:36Z</time>
      </trkpt>
      <trkpt lat="43.387400" lon="-4.280350">
        <ele>13.855</ele>
        <time>2022-08-28T11:42:38Z</time>
      </trkpt>
      <trkpt lat="43.387457" lon="-4.280290">
        <ele>14.192</ele>
        <time>2022-08-28T11:42:39Z</time>
      </trkpt>
      <trkpt lat="43.387507" lon="-4.280210">
        <ele>13.273</ele>
        <time>2022-08-28T11:42:40Z</time>
      </trkpt>
      <trkpt lat="43.387575" lon="-4.280023">
        <ele>11.920</ele>
        <time>2022-08-28T11:42:42Z</time>
      </trkpt>
      <trkpt lat="43.387603" lon="-4.279938">
        <ele>11.709</ele>
        <time>2022-08-28T11:42:43Z</time>
      </trkpt>
      <trkpt lat="43.387658" lon="-4.279793">
        <ele>11.420</ele>
        <time>2022-08-28T11:42:45Z</time>
      </trkpt>
      <trkpt lat="43.387721" lon="-4.279651">
        <ele>10.730</ele>
        <time>2022-08-28T11:42:47Z</time>
      </trkpt>
      <trkpt lat="43.387788" lon="-4.279498">
        <ele>10.251</ele>
        <time>2022-08-28T11:42:49Z</time>
      </trkpt>
      <trkpt lat="43.387826" lon="-4.279418">
        <ele>10.249</ele>
        <time>2022-08-28T11:42:50Z</time>
      </trkpt>
      <trkpt lat="43.387894" lon="-4.279263">
        <ele>9.894</ele>
        <time>2022-08-28T11:42:52Z</time>
      </trkpt>
      <trkpt lat="43.387964" lon="-4.279111">
        <ele>9.748</ele>
        <time>2022-08-28T11:42:54Z</time>
      </trkpt>
      <trkpt lat="43.388042" lon="-4.278964">
        <ele>10.314</ele>
        <time>2022-08-28T11:42:56Z</time>
      </trkpt>
      <trkpt lat="43.388077" lon="-4.278892">
        <ele>10.717</ele>
        <time>2022-08-28T11:42:57Z</time>
      </trkpt>
      <trkpt lat="43.388145" lon="-4.278745">
        <ele>11.938</ele>
        <time>2022-08-28T11:42:59Z</time>
      </trkpt>
      <trkpt lat="43.388202" lon="-4.278597">
        <ele>13.029</ele>
        <time>2022-08-28T11:43:01Z</time>
      </trkpt>
      <trkpt lat="43.388225" lon="-4.278524">
        <ele>13.200</ele>
        <time>2022-08-28T11:43:02Z</time>
      </trkpt>
      <trkpt lat="43.388247" lon="-4.278454">
        <ele>13.320</ele>
        <time>2022-08-28T11:43:03Z</time>
      </trkpt>
      <trkpt lat="43.388285" lon="-4.278312">
        <ele>13.309</ele>
        <time>2022-08-28T11:43:05Z</time>
      </trkpt>
      <trkpt lat="43.388305" lon="-4.278247">
        <ele>13.313</ele>
        <time>2022-08-28T11:43:06Z</time>
      </trkpt>
      <trkpt lat="43.388327" lon="-4.278182">
        <ele>13.293</ele>
        <time>2022-08-28T11:43:07Z</time>
      </trkpt>
      <trkpt lat="43.388339" lon="-4.278115">
        <ele>13.754</ele>
        <time>2022-08-28T11:43:08Z</time>
      </trkpt>
      <trkpt lat="43.388364" lon="-4.277985">
        <ele>14.852</ele>
        <time>2022-08-28T11:43:10Z</time>
      </trkpt>
      <trkpt lat="43.388379" lon="-4.277862">
        <ele>15.627</ele>
        <time>2022-08-28T11:43:12Z</time>
      </trkpt>
      <trkpt lat="43.388382" lon="-4.277797">
        <ele>16.081</ele>
        <time>2022-08-28T11:43:13Z</time>
      </trkpt>
      <trkpt lat="43.388387" lon="-4.277682">
        <ele>16.587</ele>
        <time>2022-08-28T11:43:15Z</time>
      </trkpt>
      <trkpt lat="43.388385" lon="-4.277572">
        <ele>16.950</ele>
        <time>2022-08-28T11:43:17Z</time>
      </trkpt>
      <trkpt lat="43.388377" lon="-4.277469">
        <ele>17.291</ele>
        <time>2022-08-28T11:43:19Z</time>
      </trkpt>
      <trkpt lat="43.388369" lon="-4.277379">
        <ele>17.673</ele>
        <time>2022-08-28T11:43:21Z</time>
      </trkpt>
      <trkpt lat="43.388359" lon="-4.277296">
        <ele>18.085</ele>
        <time>2022-08-28T11:43:23Z</time>
      </trkpt>
      <trkpt lat="43.388357" lon="-4.277218">
        <ele>18.513</ele>
        <time>2022-08-28T11:43:25Z</time>
      </trkpt>
      <trkpt lat="43.388345" lon="-4.277140">
        <ele>18.609</ele>
        <time>2022-08-28T11:43:27Z</time>
      </trkpt>
      <trkpt lat="43.388342" lon="-4.277062">
        <ele>18.828</ele>
        <time>2022-08-28T11:43:29Z</time>
      </trkpt>
      <trkpt lat="43.388340" lon="-4.276979">
        <ele>19.118</ele>
        <time>2022-08-28T11:43:31Z</time>
      </trkpt>
      <trkpt lat="43.388333" lon="-4.276894">
        <ele>19.049</ele>
        <time>2022-08-28T11:43:33Z</time>
      </trkpt>
      <trkpt lat="43.388328" lon="-4.276809">
        <ele>19.187</ele>
        <time>2022-08-28T11:43:35Z</time>
      </trkpt>
      <trkpt lat="43.388323" lon="-4.276717">
        <ele>19.322</ele>
        <time>2022-08-28T11:43:37Z</time>
      </trkpt>
      <trkpt lat="43.388315" lon="-4.276620">
        <ele>19.476</ele>
        <time>2022-08-28T11:43:39Z</time>
      </trkpt>
      <trkpt lat="43.388308" lon="-4.276530">
        <ele>19.412</ele>
        <time>2022-08-28T11:43:41Z</time>
      </trkpt>
      <trkpt lat="43.388308" lon="-4.276435">
        <ele>19.225</ele>
        <time>2022-08-28T11:43:43Z</time>
      </trkpt>
      <trkpt lat="43.388308" lon="-4.276333">
        <ele>19.186</ele>
        <time>2022-08-28T11:43:45Z</time>
      </trkpt>
      <trkpt lat="43.388303" lon="-4.276231">
        <ele>19.098</ele>
        <time>2022-08-28T11:43:47Z</time>
      </trkpt>
      <trkpt lat="43.388303" lon="-4.276124">
        <ele>18.915</ele>
        <time>2022-08-28T11:43:49Z</time>
      </trkpt>
      <trkpt lat="43.388300" lon="-4.276021">
        <ele>18.826</ele>
        <time>2022-08-28T11:43:51Z</time>
      </trkpt>
      <trkpt lat="43.388293" lon="-4.275916">
        <ele>18.809</ele>
        <time>2022-08-28T11:43:53Z</time>
      </trkpt>
      <trkpt lat="43.388293" lon="-4.275784">
        <ele>18.760</ele>
        <time>2022-08-28T11:43:55Z</time>
      </trkpt>
      <trkpt lat="43.388293" lon="-4.275716">
        <ele>18.760</ele>
        <time>2022-08-28T11:43:56Z</time>
      </trkpt>
      <trkpt lat="43.388288" lon="-4.275569">
        <ele>18.711</ele>
        <time>2022-08-28T11:43:58Z</time>
      </trkpt>
      <trkpt lat="43.388290" lon="-4.275411">
        <ele>18.289</ele>
        <time>2022-08-28T11:44:00Z</time>
      </trkpt>
      <trkpt lat="43.388285" lon="-4.275334">
        <ele>17.984</ele>
        <time>2022-08-28T11:44:01Z</time>
      </trkpt>
      <trkpt lat="43.388287" lon="-4.275177">
        <ele>17.458</ele>
        <time>2022-08-28T11:44:03Z</time>
      </trkpt>
      <trkpt lat="43.388279" lon="-4.275005">
        <ele>17.014</ele>
        <time>2022-08-28T11:44:05Z</time>
      </trkpt>
      <trkpt lat="43.388279" lon="-4.274917">
        <ele>16.857</ele>
        <time>2022-08-28T11:44:06Z</time>
      </trkpt>
      <trkpt lat="43.388274" lon="-4.274735">
        <ele>16.268</ele>
        <time>2022-08-28T11:44:08Z</time>
      </trkpt>
      <trkpt lat="43.388272" lon="-4.274553">
        <ele>15.766</ele>
        <time>2022-08-28T11:44:10Z</time>
      </trkpt>
      <trkpt lat="43.388269" lon="-4.274455">
        <ele>15.529</ele>
        <time>2022-08-28T11:44:11Z</time>
      </trkpt>
      <trkpt lat="43.388264" lon="-4.274262">
        <ele>15.521</ele>
        <time>2022-08-28T11:44:13Z</time>
      </trkpt>
      <trkpt lat="43.388261" lon="-4.274072">
        <ele>15.509</ele>
        <time>2022-08-28T11:44:15Z</time>
      </trkpt>
      <trkpt lat="43.388256" lon="-4.273977">
        <ele>15.677</ele>
        <time>2022-08-28T11:44:16Z</time>
      </trkpt>
      <trkpt lat="43.388248" lon="-4.273797">
        <ele>15.657</ele>
        <time>2022-08-28T11:44:18Z</time>
      </trkpt>
      <trkpt lat="43.388245" lon="-4.273707">
        <ele>15.658</ele>
        <time>2022-08-28T11:44:19Z</time>
      </trkpt>
      <trkpt lat="43.388238" lon="-4.273622">
        <ele>15.736</ele>
        <time>2022-08-28T11:44:20Z</time>
      </trkpt>
      <trkpt lat="43.388228" lon="-4.273455">
        <ele>16.161</ele>
        <time>2022-08-28T11:44:22Z</time>
      </trkpt>
      <trkpt lat="43.388225" lon="-4.273373">
        <ele>16.335</ele>
        <time>2022-08-28T11:44:23Z</time>
      </trkpt>
      <trkpt lat="43.388223" lon="-4.273295">
        <ele>16.551</ele>
        <time>2022-08-28T11:44:24Z</time>
      </trkpt>
      <trkpt lat="43.388218" lon="-4.273138">
        <ele>16.864</ele>
        <time>2022-08-28T11:44:26Z</time>
      </trkpt>
      <trkpt lat="43.388216" lon="-4.273058">
        <ele>17.025</ele>
        <time>2022-08-28T11:44:27Z</time>
      </trkpt>
      <trkpt lat="43.388214" lon="-4.272981">
        <ele>17.013</ele>
        <time>2022-08-28T11:44:28Z</time>
      </trkpt>
      <trkpt lat="43.388212" lon="-4.272904">
        <ele>17.043</ele>
        <time>2022-08-28T11:44:29Z</time>
      </trkpt>
      <trkpt lat="43.388207" lon="-4.272751">
        <ele>17.107</ele>
        <time>2022-08-28T11:44:31Z</time>
      </trkpt>
      <trkpt lat="43.388205" lon="-4.272606">
        <ele>17.309</ele>
        <time>2022-08-28T11:44:33Z</time>
      </trkpt>
      <trkpt lat="43.388207" lon="-4.272464">
        <ele>17.592</ele>
        <time>2022-08-28T11:44:35Z</time>
      </trkpt>
      <trkpt lat="43.388207" lon="-4.272329">
        <ele>17.542</ele>
        <time>2022-08-28T11:44:37Z</time>
      </trkpt>
      <trkpt lat="43.388205" lon="-4.272262">
        <ele>17.563</ele>
        <time>2022-08-28T11:44:38Z</time>
      </trkpt>
      <trkpt lat="43.388205" lon="-4.272197">
        <ele>17.691</ele>
        <time>2022-08-28T11:44:39Z</time>
      </trkpt>
      <trkpt lat="43.388205" lon="-4.272064">
        <ele>18.166</ele>
        <time>2022-08-28T11:44:41Z</time>
      </trkpt>
      <trkpt lat="43.388203" lon="-4.271997">
        <ele>18.320</ele>
        <time>2022-08-28T11:44:42Z</time>
      </trkpt>
      <trkpt lat="43.388200" lon="-4.271867">
        <ele>18.656</ele>
        <time>2022-08-28T11:44:44Z</time>
      </trkpt>
      <trkpt lat="43.388197" lon="-4.271739">
        <ele>18.949</ele>
        <time>2022-08-28T11:44:46Z</time>
      </trkpt>
      <trkpt lat="43.388194" lon="-4.271617">
        <ele>19.090</ele>
        <time>2022-08-28T11:44:48Z</time>
      </trkpt>
      <trkpt lat="43.388197" lon="-4.271499">
        <ele>19.012</ele>
        <time>2022-08-28T11:44:50Z</time>
      </trkpt>
      <trkpt lat="43.388197" lon="-4.271377">
        <ele>19.032</ele>
        <time>2022-08-28T11:44:52Z</time>
      </trkpt>
      <trkpt lat="43.388194" lon="-4.271257">
        <ele>19.205</ele>
        <time>2022-08-28T11:44:54Z</time>
      </trkpt>
      <trkpt lat="43.388194" lon="-4.271139">
        <ele>19.409</ele>
        <time>2022-08-28T11:44:56Z</time>
      </trkpt>
      <trkpt lat="43.388192" lon="-4.271022">
        <ele>19.782</ele>
        <time>2022-08-28T11:44:58Z</time>
      </trkpt>
      <trkpt lat="43.388189" lon="-4.270905">
        <ele>19.952</ele>
        <time>2022-08-28T11:45:00Z</time>
      </trkpt>
      <trkpt lat="43.388182" lon="-4.270788">
        <ele>20.193</ele>
        <time>2022-08-28T11:45:02Z</time>
      </trkpt>
      <trkpt lat="43.388177" lon="-4.270673">
        <ele>20.371</ele>
        <time>2022-08-28T11:45:04Z</time>
      </trkpt>
      <trkpt lat="43.388174" lon="-4.270556">
        <ele>20.476</ele>
        <time>2022-08-28T11:45:06Z</time>
      </trkpt>
      <trkpt lat="43.388171" lon="-4.270438">
        <ele>20.720</ele>
        <time>2022-08-28T11:45:08Z</time>
      </trkpt>
      <trkpt lat="43.388168" lon="-4.270323">
        <ele>20.996</ele>
        <time>2022-08-28T11:45:10Z</time>
      </trkpt>
      <trkpt lat="43.388165" lon="-4.270210">
        <ele>21.179</ele>
        <time>2022-08-28T11:45:12Z</time>
      </trkpt>
      <trkpt lat="43.388162" lon="-4.270100">
        <ele>21.230</ele>
        <time>2022-08-28T11:45:14Z</time>
      </trkpt>
      <trkpt lat="43.388159" lon="-4.269992">
        <ele>21.425</ele>
        <time>2022-08-28T11:45:16Z</time>
      </trkpt>
      <trkpt lat="43.388156" lon="-4.269884">
        <ele>21.626</ele>
        <time>2022-08-28T11:45:18Z</time>
      </trkpt>
      <trkpt lat="43.388156" lon="-4.269772">
        <ele>21.908</ele>
        <time>2022-08-28T11:45:20Z</time>
      </trkpt>
      <trkpt lat="43.388151" lon="-4.269659">
        <ele>22.009</ele>
        <time>2022-08-28T11:45:22Z</time>
      </trkpt>
      <trkpt lat="43.388143" lon="-4.269546">
        <ele>22.013</ele>
        <time>2022-08-28T11:45:24Z</time>
      </trkpt>
      <trkpt lat="43.388133" lon="-4.269439">
        <ele>22.063</ele>
        <time>2022-08-28T11:45:26Z</time>
      </trkpt>
      <trkpt lat="43.388125" lon="-4.269331">
        <ele>22.424</ele>
        <time>2022-08-28T11:45:28Z</time>
      </trkpt>
      <trkpt lat="43.388117" lon="-4.269226">
        <ele>22.812</ele>
        <time>2022-08-28T11:45:30Z</time>
      </trkpt>
      <trkpt lat="43.388109" lon="-4.269119">
        <ele>23.297</ele>
        <time>2022-08-28T11:45:32Z</time>
      </trkpt>
      <trkpt lat="43.388104" lon="-4.269017">
        <ele>23.591</ele>
        <time>2022-08-28T11:45:34Z</time>
      </trkpt>
      <trkpt lat="43.388104" lon="-4.268920">
        <ele>23.977</ele>
        <time>2022-08-28T11:45:36Z</time>
      </trkpt>
      <trkpt lat="43.388106" lon="-4.268818">
        <ele>24.330</ele>
        <time>2022-08-28T11:45:38Z</time>
      </trkpt>
      <trkpt lat="43.388111" lon="-4.268711">
        <ele>24.661</ele>
        <time>2022-08-28T11:45:40Z</time>
      </trkpt>
      <trkpt lat="43.388118" lon="-4.268603">
        <ele>25.019</ele>
        <time>2022-08-28T11:45:42Z</time>
      </trkpt>
      <trkpt lat="43.388123" lon="-4.268493">
        <ele>25.609</ele>
        <time>2022-08-28T11:45:44Z</time>
      </trkpt>
      <trkpt lat="43.388133" lon="-4.268388">
        <ele>26.319</ele>
        <time>2022-08-28T11:45:46Z</time>
      </trkpt>
      <trkpt lat="43.388145" lon="-4.268283">
        <ele>26.709</ele>
        <time>2022-08-28T11:45:48Z</time>
      </trkpt>
      <trkpt lat="43.388158" lon="-4.268175">
        <ele>26.912</ele>
        <time>2022-08-28T11:45:50Z</time>
      </trkpt>
      <trkpt lat="43.388176" lon="-4.268067">
        <ele>27.312</ele>
        <time>2022-08-28T11:45:52Z</time>
      </trkpt>
      <trkpt lat="43.388194" lon="-4.267955">
        <ele>27.313</ele>
        <time>2022-08-28T11:45:54Z</time>
      </trkpt>
      <trkpt lat="43.388221" lon="-4.267842">
        <ele>27.591</ele>
        <time>2022-08-28T11:45:56Z</time>
      </trkpt>
      <trkpt lat="43.388248" lon="-4.267727">
        <ele>27.536</ele>
        <time>2022-08-28T11:45:58Z</time>
      </trkpt>
      <trkpt lat="43.388281" lon="-4.267612">
        <ele>27.230</ele>
        <time>2022-08-28T11:46:00Z</time>
      </trkpt>
      <trkpt lat="43.388319" lon="-4.267489">
        <ele>26.816</ele>
        <time>2022-08-28T11:46:02Z</time>
      </trkpt>
      <trkpt lat="43.388356" lon="-4.267357">
        <ele>26.779</ele>
        <time>2022-08-28T11:46:04Z</time>
      </trkpt>
      <trkpt lat="43.388394" lon="-4.267215">
        <ele>26.450</ele>
        <time>2022-08-28T11:46:06Z</time>
      </trkpt>
      <trkpt lat="43.388412" lon="-4.267138">
        <ele>26.313</ele>
        <time>2022-08-28T11:46:07Z</time>
      </trkpt>
      <trkpt lat="43.388455" lon="-4.266980">
        <ele>26.043</ele>
        <time>2022-08-28T11:46:09Z</time>
      </trkpt>
      <trkpt lat="43.388503" lon="-4.266807">
        <ele>25.207</ele>
        <time>2022-08-28T11:46:11Z</time>
      </trkpt>
      <trkpt lat="43.388528" lon="-4.266717">
        <ele>24.809</ele>
        <time>2022-08-28T11:46:12Z</time>
      </trkpt>
      <trkpt lat="43.388578" lon="-4.266529">
        <ele>23.812</ele>
        <time>2022-08-28T11:46:14Z</time>
      </trkpt>
      <trkpt lat="43.388605" lon="-4.266431">
        <ele>23.312</ele>
        <time>2022-08-28T11:46:15Z</time>
      </trkpt>
      <trkpt lat="43.388662" lon="-4.266224">
        <ele>23.083</ele>
        <time>2022-08-28T11:46:17Z</time>
      </trkpt>
      <trkpt lat="43.388690" lon="-4.266116">
        <ele>22.931</ele>
        <time>2022-08-28T11:46:18Z</time>
      </trkpt>
      <trkpt lat="43.388748" lon="-4.265893">
        <ele>22.346</ele>
        <time>2022-08-28T11:46:20Z</time>
      </trkpt>
      <trkpt lat="43.388780" lon="-4.265778">
        <ele>21.810</ele>
        <time>2022-08-28T11:46:21Z</time>
      </trkpt>
      <trkpt lat="43.388843" lon="-4.265540">
        <ele>19.986</ele>
        <time>2022-08-28T11:46:23Z</time>
      </trkpt>
      <trkpt lat="43.388910" lon="-4.265290">
        <ele>18.759</ele>
        <time>2022-08-28T11:46:25Z</time>
      </trkpt>
      <trkpt lat="43.388943" lon="-4.265163">
        <ele>18.820</ele>
        <time>2022-08-28T11:46:26Z</time>
      </trkpt>
      <trkpt lat="43.389013" lon="-4.264908">
        <ele>17.735</ele>
        <time>2022-08-28T11:46:28Z</time>
      </trkpt>
      <trkpt lat="43.389081" lon="-4.264651">
        <ele>15.486</ele>
        <time>2022-08-28T11:46:30Z</time>
      </trkpt>
      <trkpt lat="43.389118" lon="-4.264524">
        <ele>15.114</ele>
        <time>2022-08-28T11:46:31Z</time>
      </trkpt>
      <trkpt lat="43.389181" lon="-4.264276">
        <ele>14.409</ele>
        <time>2022-08-28T11:46:33Z</time>
      </trkpt>
      <trkpt lat="43.389241" lon="-4.264046">
        <ele>14.714</ele>
        <time>2022-08-28T11:46:35Z</time>
      </trkpt>
      <trkpt lat="43.389268" lon="-4.263938">
        <ele>15.624</ele>
        <time>2022-08-28T11:46:36Z</time>
      </trkpt>
      <trkpt lat="43.389293" lon="-4.263833">
        <ele>16.235</ele>
        <time>2022-08-28T11:46:37Z</time>
      </trkpt>
      <trkpt lat="43.389341" lon="-4.263640">
        <ele>17.433</ele>
        <time>2022-08-28T11:46:39Z</time>
      </trkpt>
      <trkpt lat="43.389383" lon="-4.263468">
        <ele>18.898</ele>
        <time>2022-08-28T11:46:41Z</time>
      </trkpt>
      <trkpt lat="43.389401" lon="-4.263393">
        <ele>19.642</ele>
        <time>2022-08-28T11:46:42Z</time>
      </trkpt>
      <trkpt lat="43.389433" lon="-4.263256">
        <ele>20.588</ele>
        <time>2022-08-28T11:46:44Z</time>
      </trkpt>
      <trkpt lat="43.389446" lon="-4.263196">
        <ele>20.581</ele>
        <time>2022-08-28T11:46:45Z</time>
      </trkpt>
      <trkpt lat="43.389468" lon="-4.263094">
        <ele>20.722</ele>
        <time>2022-08-28T11:46:47Z</time>
      </trkpt>
      <trkpt lat="43.389483" lon="-4.262997">
        <ele>20.989</ele>
        <time>2022-08-28T11:46:49Z</time>
      </trkpt>
      <trkpt lat="43.389493" lon="-4.262905">
        <ele>21.106</ele>
        <time>2022-08-28T11:46:51Z</time>
      </trkpt>
      <trkpt lat="43.389510" lon="-4.262820">
        <ele>21.526</ele>
        <time>2022-08-28T11:46:53Z</time>
      </trkpt>
      <trkpt lat="43.389527" lon="-4.262743">
        <ele>21.709</ele>
        <time>2022-08-28T11:46:55Z</time>
      </trkpt>
      <trkpt lat="43.389542" lon="-4.262671">
        <ele>22.059</ele>
        <time>2022-08-28T11:46:57Z</time>
      </trkpt>
      <trkpt lat="43.389552" lon="-4.262598">
        <ele>22.249</ele>
        <time>2022-08-28T11:46:59Z</time>
      </trkpt>
      <trkpt lat="43.389560" lon="-4.262536">
        <ele>22.470</ele>
        <time>2022-08-28T11:47:01Z</time>
      </trkpt>
      <trkpt lat="43.389573" lon="-4.262471">
        <ele>22.778</ele>
        <time>2022-08-28T11:47:03Z</time>
      </trkpt>
      <trkpt lat="43.389588" lon="-4.262403">
        <ele>23.153</ele>
        <time>2022-08-28T11:47:05Z</time>
      </trkpt>
      <trkpt lat="43.389600" lon="-4.262333">
        <ele>23.527</ele>
        <time>2022-08-28T11:47:07Z</time>
      </trkpt>
      <trkpt lat="43.389615" lon="-4.262265">
        <ele>23.983</ele>
        <time>2022-08-28T11:47:09Z</time>
      </trkpt>
      <trkpt lat="43.389625" lon="-4.262198">
        <ele>24.336</ele>
        <time>2022-08-28T11:47:11Z</time>
      </trkpt>
      <trkpt lat="43.389637" lon="-4.262130">
        <ele>24.917</ele>
        <time>2022-08-28T11:47:13Z</time>
      </trkpt>
      <trkpt lat="43.389652" lon="-4.262060">
        <ele>25.632</ele>
        <time>2022-08-28T11:47:15Z</time>
      </trkpt>
      <trkpt lat="43.389664" lon="-4.261990">
        <ele>26.292</ele>
        <time>2022-08-28T11:47:17Z</time>
      </trkpt>
      <trkpt lat="43.389677" lon="-4.261920">
        <ele>26.711</ele>
        <time>2022-08-28T11:47:19Z</time>
      </trkpt>
      <trkpt lat="43.389689" lon="-4.261845">
        <ele>27.009</ele>
        <time>2022-08-28T11:47:21Z</time>
      </trkpt>
      <trkpt lat="43.389699" lon="-4.261773">
        <ele>27.224</ele>
        <time>2022-08-28T11:47:23Z</time>
      </trkpt>
      <trkpt lat="43.389711" lon="-4.261701">
        <ele>27.664</ele>
        <time>2022-08-28T11:47:25Z</time>
      </trkpt>
      <trkpt lat="43.389723" lon="-4.261633">
        <ele>27.945</ele>
        <time>2022-08-28T11:47:27Z</time>
      </trkpt>
      <trkpt lat="43.389733" lon="-4.261560">
        <ele>27.943</ele>
        <time>2022-08-28T11:47:29Z</time>
      </trkpt>
      <trkpt lat="43.389745" lon="-4.261488">
        <ele>28.068</ele>
        <time>2022-08-28T11:47:31Z</time>
      </trkpt>
      <trkpt lat="43.389757" lon="-4.261408">
        <ele>28.292</ele>
        <time>2022-08-28T11:47:33Z</time>
      </trkpt>
      <trkpt lat="43.389765" lon="-4.261325">
        <ele>28.418</ele>
        <time>2022-08-28T11:47:35Z</time>
      </trkpt>
      <trkpt lat="43.389775" lon="-4.261245">
        <ele>28.611</ele>
        <time>2022-08-28T11:47:37Z</time>
      </trkpt>
      <trkpt lat="43.389788" lon="-4.261165">
        <ele>28.942</ele>
        <time>2022-08-28T11:47:39Z</time>
      </trkpt>
      <trkpt lat="43.389800" lon="-4.261085">
        <ele>29.146</ele>
        <time>2022-08-28T11:47:41Z</time>
      </trkpt>
      <trkpt lat="43.389813" lon="-4.261005">
        <ele>29.288</ele>
        <time>2022-08-28T11:47:43Z</time>
      </trkpt>
      <trkpt lat="43.389830" lon="-4.260922">
        <ele>29.416</ele>
        <time>2022-08-28T11:47:45Z</time>
      </trkpt>
      <trkpt lat="43.389848" lon="-4.260830">
        <ele>29.609</ele>
        <time>2022-08-28T11:47:47Z</time>
      </trkpt>
      <trkpt lat="43.389866" lon="-4.260740">
        <ele>29.635</ele>
        <time>2022-08-28T11:47:49Z</time>
      </trkpt>
      <trkpt lat="43.389884" lon="-4.260652">
        <ele>29.725</ele>
        <time>2022-08-28T11:47:51Z</time>
      </trkpt>
      <trkpt lat="43.389901" lon="-4.260564">
        <ele>29.896</ele>
        <time>2022-08-28T11:47:53Z</time>
      </trkpt>
      <trkpt lat="43.389911" lon="-4.260482">
        <ele>30.234</ele>
        <time>2022-08-28T11:47:55Z</time>
      </trkpt>
      <trkpt lat="43.389921" lon="-4.260402">
        <ele>30.659</ele>
        <time>2022-08-28T11:47:57Z</time>
      </trkpt>
      <trkpt lat="43.389934" lon="-4.260317">
        <ele>31.173</ele>
        <time>2022-08-28T11:47:59Z</time>
      </trkpt>
      <trkpt lat="43.389949" lon="-4.260229">
        <ele>31.339</ele>
        <time>2022-08-28T11:48:01Z</time>
      </trkpt>
      <trkpt lat="43.389956" lon="-4.260141">
        <ele>31.252</ele>
        <time>2022-08-28T11:48:03Z</time>
      </trkpt>
      <trkpt lat="43.389966" lon="-4.260051">
        <ele>31.183</ele>
        <time>2022-08-28T11:48:05Z</time>
      </trkpt>
      <trkpt lat="43.389981" lon="-4.259956">
        <ele>31.438</ele>
        <time>2022-08-28T11:48:07Z</time>
      </trkpt>
      <trkpt lat="43.389999" lon="-4.259858">
        <ele>32.070</ele>
        <time>2022-08-28T11:48:09Z</time>
      </trkpt>
      <trkpt lat="43.390014" lon="-4.259761">
        <ele>32.417</ele>
        <time>2022-08-28T11:48:11Z</time>
      </trkpt>
      <trkpt lat="43.390026" lon="-4.259664">
        <ele>32.309</ele>
        <time>2022-08-28T11:48:13Z</time>
      </trkpt>
      <trkpt lat="43.390039" lon="-4.259567">
        <ele>32.114</ele>
        <time>2022-08-28T11:48:15Z</time>
      </trkpt>
      <trkpt lat="43.390051" lon="-4.259467">
        <ele>31.894</ele>
        <time>2022-08-28T11:48:17Z</time>
      </trkpt>
      <trkpt lat="43.390063" lon="-4.259365">
        <ele>32.025</ele>
        <time>2022-08-28T11:48:19Z</time>
      </trkpt>
      <trkpt lat="43.390076" lon="-4.259258">
        <ele>32.353</ele>
        <time>2022-08-28T11:48:21Z</time>
      </trkpt>
      <trkpt lat="43.390081" lon="-4.259155">
        <ele>32.328</ele>
        <time>2022-08-28T11:48:23Z</time>
      </trkpt>
      <trkpt lat="43.390089" lon="-4.259045">
        <ele>32.012</ele>
        <time>2022-08-28T11:48:25Z</time>
      </trkpt>
      <trkpt lat="43.390099" lon="-4.258937">
        <ele>31.798</ele>
        <time>2022-08-28T11:48:27Z</time>
      </trkpt>
      <trkpt lat="43.390109" lon="-4.258830">
        <ele>31.881</ele>
        <time>2022-08-28T11:48:29Z</time>
      </trkpt>
      <trkpt lat="43.390117" lon="-4.258723">
        <ele>31.912</ele>
        <time>2022-08-28T11:48:31Z</time>
      </trkpt>
      <trkpt lat="43.390119" lon="-4.258618">
        <ele>31.949</ele>
        <time>2022-08-28T11:48:33Z</time>
      </trkpt>
      <trkpt lat="43.390121" lon="-4.258511">
        <ele>32.002</ele>
        <time>2022-08-28T11:48:35Z</time>
      </trkpt>
      <trkpt lat="43.390121" lon="-4.258411">
        <ele>32.222</ele>
        <time>2022-08-28T11:48:37Z</time>
      </trkpt>
      <trkpt lat="43.390118" lon="-4.258304">
        <ele>32.409</ele>
        <time>2022-08-28T11:48:39Z</time>
      </trkpt>
      <trkpt lat="43.390116" lon="-4.258201">
        <ele>32.975</ele>
        <time>2022-08-28T11:48:41Z</time>
      </trkpt>
      <trkpt lat="43.390111" lon="-4.258098">
        <ele>33.215</ele>
        <time>2022-08-28T11:48:43Z</time>
      </trkpt>
      <trkpt lat="43.390104" lon="-4.258005">
        <ele>33.416</ele>
        <time>2022-08-28T11:48:45Z</time>
      </trkpt>
      <trkpt lat="43.390099" lon="-4.257912">
        <ele>33.774</ele>
        <time>2022-08-28T11:48:47Z</time>
      </trkpt>
      <trkpt lat="43.390094" lon="-4.257822">
        <ele>33.959</ele>
        <time>2022-08-28T11:48:49Z</time>
      </trkpt>
      <trkpt lat="43.390091" lon="-4.257734">
        <ele>34.133</ele>
        <time>2022-08-28T11:48:51Z</time>
      </trkpt>
      <trkpt lat="43.390088" lon="-4.257646">
        <ele>34.279</ele>
        <time>2022-08-28T11:48:53Z</time>
      </trkpt>
      <trkpt lat="43.390086" lon="-4.257561">
        <ele>34.322</ele>
        <time>2022-08-28T11:48:55Z</time>
      </trkpt>
      <trkpt lat="43.390086" lon="-4.257476">
        <ele>34.783</ele>
        <time>2022-08-28T11:48:57Z</time>
      </trkpt>
      <trkpt lat="43.390088" lon="-4.257401">
        <ele>35.335</ele>
        <time>2022-08-28T11:48:59Z</time>
      </trkpt>
      <trkpt lat="43.390088" lon="-4.257323">
        <ele>35.886</ele>
        <time>2022-08-28T11:49:01Z</time>
      </trkpt>
      <trkpt lat="43.390085" lon="-4.257243">
        <ele>36.414</ele>
        <time>2022-08-28T11:49:03Z</time>
      </trkpt>
      <trkpt lat="43.390078" lon="-4.257166">
        <ele>36.809</ele>
        <time>2022-08-28T11:49:05Z</time>
      </trkpt>
      <trkpt lat="43.390073" lon="-4.257083">
        <ele>37.254</ele>
        <time>2022-08-28T11:49:07Z</time>
      </trkpt>
      <trkpt lat="43.390071" lon="-4.256998">
        <ele>37.714</ele>
        <time>2022-08-28T11:49:09Z</time>
      </trkpt>
      <trkpt lat="43.390061" lon="-4.256921">
        <ele>38.085</ele>
        <time>2022-08-28T11:49:11Z</time>
      </trkpt>
      <trkpt lat="43.390061" lon="-4.256841">
        <ele>38.383</ele>
        <time>2022-08-28T11:49:13Z</time>
      </trkpt>
      <trkpt lat="43.390058" lon="-4.256759">
        <ele>38.648</ele>
        <time>2022-08-28T11:49:15Z</time>
      </trkpt>
      <trkpt lat="43.390058" lon="-4.256674">
        <ele>39.022</ele>
        <time>2022-08-28T11:49:17Z</time>
      </trkpt>
      <trkpt lat="43.390055" lon="-4.256592">
        <ele>39.448</ele>
        <time>2022-08-28T11:49:19Z</time>
      </trkpt>
      <trkpt lat="43.390052" lon="-4.256512">
        <ele>39.811</ele>
        <time>2022-08-28T11:49:21Z</time>
      </trkpt>
      <trkpt lat="43.390049" lon="-4.256430">
        <ele>40.382</ele>
        <time>2022-08-28T11:49:23Z</time>
      </trkpt>
      <trkpt lat="43.390046" lon="-4.256352">
        <ele>40.516</ele>
        <time>2022-08-28T11:49:25Z</time>
      </trkpt>
      <trkpt lat="43.390044" lon="-4.256270">
        <ele>40.476</ele>
        <time>2022-08-28T11:49:27Z</time>
      </trkpt>
      <trkpt lat="43.390042" lon="-4.256188">
        <ele>40.313</ele>
        <time>2022-08-28T11:49:29Z</time>
      </trkpt>
      <trkpt lat="43.390034" lon="-4.256101">
        <ele>40.209</ele>
        <time>2022-08-28T11:49:31Z</time>
      </trkpt>
      <trkpt lat="43.390031" lon="-4.256013">
        <ele>40.342</ele>
        <time>2022-08-28T11:49:33Z</time>
      </trkpt>
      <trkpt lat="43.390031" lon="-4.255918">
        <ele>40.372</ele>
        <time>2022-08-28T11:49:35Z</time>
      </trkpt>
      <trkpt lat="43.390028" lon="-4.255828">
        <ele>40.373</ele>
        <time>2022-08-28T11:49:37Z</time>
      </trkpt>
      <trkpt lat="43.390020" lon="-4.255726">
        <ele>40.661</ele>
        <time>2022-08-28T11:49:39Z</time>
      </trkpt>
      <trkpt lat="43.390015" lon="-4.255626">
        <ele>40.986</ele>
        <time>2022-08-28T11:49:41Z</time>
      </trkpt>
      <trkpt lat="43.390007" lon="-4.255521">
        <ele>41.140</ele>
        <time>2022-08-28T11:49:43Z</time>
      </trkpt>
      <trkpt lat="43.390005" lon="-4.255409">
        <ele>41.016</ele>
        <time>2022-08-28T11:49:45Z</time>
      </trkpt>
      <trkpt lat="43.390005" lon="-4.255294">
        <ele>41.139</ele>
        <time>2022-08-28T11:49:47Z</time>
      </trkpt>
      <trkpt lat="43.389998" lon="-4.255182">
        <ele>40.990</ele>
        <time>2022-08-28T11:49:49Z</time>
      </trkpt>
      <trkpt lat="43.389991" lon="-4.255062">
        <ele>40.713</ele>
        <time>2022-08-28T11:49:51Z</time>
      </trkpt>
      <trkpt lat="43.389983" lon="-4.254942">
        <ele>40.543</ele>
        <time>2022-08-28T11:49:53Z</time>
      </trkpt>
      <trkpt lat="43.389973" lon="-4.254815">
        <ele>40.107</ele>
        <time>2022-08-28T11:49:55Z</time>
      </trkpt>
      <trkpt lat="43.389966" lon="-4.254753">
        <ele>39.809</ele>
        <time>2022-08-28T11:49:56Z</time>
      </trkpt>
      <trkpt lat="43.389949" lon="-4.254625">
        <ele>39.242</ele>
        <time>2022-08-28T11:49:58Z</time>
      </trkpt>
      <trkpt lat="43.389929" lon="-4.254495">
        <ele>38.422</ele>
        <time>2022-08-28T11:50:00Z</time>
      </trkpt>
      <trkpt lat="43.389909" lon="-4.254365">
        <ele>37.963</ele>
        <time>2022-08-28T11:50:02Z</time>
      </trkpt>
      <trkpt lat="43.389899" lon="-4.254300">
        <ele>37.771</ele>
        <time>2022-08-28T11:50:03Z</time>
      </trkpt>
      <trkpt lat="43.389887" lon="-4.254232">
        <ele>37.646</ele>
        <time>2022-08-28T11:50:04Z</time>
      </trkpt>
      <trkpt lat="43.389865" lon="-4.254084">
        <ele>37.480</ele>
        <time>2022-08-28T11:50:06Z</time>
      </trkpt>
      <trkpt lat="43.389853" lon="-4.254006">
        <ele>37.496</ele>
        <time>2022-08-28T11:50:07Z</time>
      </trkpt>
      <trkpt lat="43.389840" lon="-4.253926">
        <ele>37.449</ele>
        <time>2022-08-28T11:50:08Z</time>
      </trkpt>
      <trkpt lat="43.389810" lon="-4.253756">
        <ele>37.780</ele>
        <time>2022-08-28T11:50:10Z</time>
      </trkpt>
      <trkpt lat="43.389793" lon="-4.253671">
        <ele>37.916</ele>
        <time>2022-08-28T11:50:11Z</time>
      </trkpt>
      <trkpt lat="43.389758" lon="-4.253501">
        <ele>38.076</ele>
        <time>2022-08-28T11:50:13Z</time>
      </trkpt>
      <trkpt lat="43.389721" lon="-4.253334">
        <ele>38.013</ele>
        <time>2022-08-28T11:50:15Z</time>
      </trkpt>
      <trkpt lat="43.389708" lon="-4.253247">
        <ele>38.009</ele>
        <time>2022-08-28T11:50:16Z</time>
      </trkpt>
      <trkpt lat="43.389673" lon="-4.253079">
        <ele>37.732</ele>
        <time>2022-08-28T11:50:18Z</time>
      </trkpt>
      <trkpt lat="43.389648" lon="-4.252899">
        <ele>37.052</ele>
        <time>2022-08-28T11:50:20Z</time>
      </trkpt>
      <trkpt lat="43.389620" lon="-4.252732">
        <ele>36.183</ele>
        <time>2022-08-28T11:50:22Z</time>
      </trkpt>
      <trkpt lat="43.389593" lon="-4.252565">
        <ele>35.651</ele>
        <time>2022-08-28T11:50:24Z</time>
      </trkpt>
      <trkpt lat="43.389581" lon="-4.252483">
        <ele>35.486</ele>
        <time>2022-08-28T11:50:25Z</time>
      </trkpt>
      <trkpt lat="43.389563" lon="-4.252313">
        <ele>34.820</ele>
        <time>2022-08-28T11:50:27Z</time>
      </trkpt>
      <trkpt lat="43.389553" lon="-4.252230">
        <ele>34.636</ele>
        <time>2022-08-28T11:50:28Z</time>
      </trkpt>
      <trkpt lat="43.389543" lon="-4.252148">
        <ele>34.429</ele>
        <time>2022-08-28T11:50:29Z</time>
      </trkpt>
      <trkpt lat="43.389530" lon="-4.251986">
        <ele>34.330</ele>
        <time>2022-08-28T11:50:31Z</time>
      </trkpt>
      <trkpt lat="43.389527" lon="-4.251906">
        <ele>34.169</ele>
        <time>2022-08-28T11:50:32Z</time>
      </trkpt>
      <trkpt lat="43.389524" lon="-4.251828">
        <ele>33.604</ele>
        <time>2022-08-28T11:50:33Z</time>
      </trkpt>
      <trkpt lat="43.389519" lon="-4.251673">
        <ele>32.624</ele>
        <time>2022-08-28T11:50:35Z</time>
      </trkpt>
      <trkpt lat="43.389514" lon="-4.251530">
        <ele>33.009</ele>
        <time>2022-08-28T11:50:37Z</time>
      </trkpt>
      <trkpt lat="43.389511" lon="-4.251463">
        <ele>33.287</ele>
        <time>2022-08-28T11:50:38Z</time>
      </trkpt>
      <trkpt lat="43.389511" lon="-4.251393">
        <ele>33.537</ele>
        <time>2022-08-28T11:50:39Z</time>
      </trkpt>
      <trkpt lat="43.389514" lon="-4.251261">
        <ele>34.178</ele>
        <time>2022-08-28T11:50:41Z</time>
      </trkpt>
      <trkpt lat="43.389519" lon="-4.251133">
        <ele>34.746</ele>
        <time>2022-08-28T11:50:43Z</time>
      </trkpt>
      <trkpt lat="43.389524" lon="-4.251066">
        <ele>35.321</ele>
        <time>2022-08-28T11:50:44Z</time>
      </trkpt>
      <trkpt lat="43.389532" lon="-4.250941">
        <ele>36.485</ele>
        <time>2022-08-28T11:50:46Z</time>
      </trkpt>
      <trkpt lat="43.389540" lon="-4.250828">
        <ele>37.331</ele>
        <time>2022-08-28T11:50:48Z</time>
      </trkpt>
      <trkpt lat="43.389548" lon="-4.250716">
        <ele>37.734</ele>
        <time>2022-08-28T11:50:50Z</time>
      </trkpt>
      <trkpt lat="43.389558" lon="-4.250611">
        <ele>38.015</ele>
        <time>2022-08-28T11:50:52Z</time>
      </trkpt>
      <trkpt lat="43.389566" lon="-4.250506">
        <ele>38.586</ele>
        <time>2022-08-28T11:50:54Z</time>
      </trkpt>
      <trkpt lat="43.389578" lon="-4.250401">
        <ele>39.260</ele>
        <time>2022-08-28T11:50:56Z</time>
      </trkpt>
      <trkpt lat="43.389596" lon="-4.250298">
        <ele>39.826</ele>
        <time>2022-08-28T11:50:58Z</time>
      </trkpt>
      <trkpt lat="43.389609" lon="-4.250198">
        <ele>40.609</ele>
        <time>2022-08-28T11:51:00Z</time>
      </trkpt>
      <trkpt lat="43.389626" lon="-4.250101">
        <ele>41.419</ele>
        <time>2022-08-28T11:51:02Z</time>
      </trkpt>
      <trkpt lat="43.389644" lon="-4.250004">
        <ele>42.189</ele>
        <time>2022-08-28T11:51:04Z</time>
      </trkpt>
      <trkpt lat="43.389659" lon="-4.249907">
        <ele>42.560</ele>
        <time>2022-08-28T11:51:06Z</time>
      </trkpt>
      <trkpt lat="43.389669" lon="-4.249810">
        <ele>43.048</ele>
        <time>2022-08-28T11:51:08Z</time>
      </trkpt>
      <trkpt lat="43.389681" lon="-4.249712">
        <ele>43.543</ele>
        <time>2022-08-28T11:51:10Z</time>
      </trkpt>
      <trkpt lat="43.389691" lon="-4.249612">
        <ele>43.897</ele>
        <time>2022-08-28T11:51:12Z</time>
      </trkpt>
      <trkpt lat="43.389699" lon="-4.249510">
        <ele>44.173</ele>
        <time>2022-08-28T11:51:14Z</time>
      </trkpt>
      <trkpt lat="43.389711" lon="-4.249413">
        <ele>44.326</ele>
        <time>2022-08-28T11:51:16Z</time>
      </trkpt>
      <trkpt lat="43.389721" lon="-4.249318">
        <ele>44.537</ele>
        <time>2022-08-28T11:51:18Z</time>
      </trkpt>
      <trkpt lat="43.389738" lon="-4.249218">
        <ele>44.827</ele>
        <time>2022-08-28T11:51:20Z</time>
      </trkpt>
      <trkpt lat="43.389755" lon="-4.249121">
        <ele>45.268</ele>
        <time>2022-08-28T11:51:22Z</time>
      </trkpt>
      <trkpt lat="43.389772" lon="-4.249019">
        <ele>45.514</ele>
        <time>2022-08-28T11:51:24Z</time>
      </trkpt>
      <trkpt lat="43.389789" lon="-4.248917">
        <ele>45.909</ele>
        <time>2022-08-28T11:51:26Z</time>
      </trkpt>
      <trkpt lat="43.389794" lon="-4.248852">
        <ele>46.033</ele>
        <time>2022-08-28T11:51:27Z</time>
      </trkpt>
      <trkpt lat="43.389796" lon="-4.248764">
        <ele>46.143</ele>
        <time>2022-08-28T11:51:29Z</time>
      </trkpt>
      <trkpt lat="43.389811" lon="-4.248676">
        <ele>46.264</ele>
        <time>2022-08-28T11:51:31Z</time>
      </trkpt>
      <trkpt lat="43.389819" lon="-4.248589">
        <ele>46.472</ele>
        <time>2022-08-28T11:51:33Z</time>
      </trkpt>
      <trkpt lat="43.389824" lon="-4.248504">
        <ele>46.817</ele>
        <time>2022-08-28T11:51:35Z</time>
      </trkpt>
      <trkpt lat="43.389829" lon="-4.248414">
        <ele>47.111</ele>
        <time>2022-08-28T11:51:37Z</time>
      </trkpt>
      <trkpt lat="43.389832" lon="-4.248327">
        <ele>47.497</ele>
        <time>2022-08-28T11:51:39Z</time>
      </trkpt>
      <trkpt lat="43.389835" lon="-4.248240">
        <ele>47.670</ele>
        <time>2022-08-28T11:51:41Z</time>
      </trkpt>
      <trkpt lat="43.389842" lon="-4.248148">
        <ele>47.821</ele>
        <time>2022-08-28T11:51:43Z</time>
      </trkpt>
      <trkpt lat="43.389842" lon="-4.248055">
        <ele>48.099</ele>
        <time>2022-08-28T11:51:45Z</time>
      </trkpt>
      <trkpt lat="43.389832" lon="-4.247960">
        <ele>48.207</ele>
        <time>2022-08-28T11:51:47Z</time>
      </trkpt>
      <trkpt lat="43.389822" lon="-4.247855">
        <ele>48.527</ele>
        <time>2022-08-28T11:51:49Z</time>
      </trkpt>
      <trkpt lat="43.389810" lon="-4.247753">
        <ele>48.809</ele>
        <time>2022-08-28T11:51:51Z</time>
      </trkpt>
      <trkpt lat="43.389797" lon="-4.247661">
        <ele>49.290</ele>
        <time>2022-08-28T11:51:53Z</time>
      </trkpt>
      <trkpt lat="43.389782" lon="-4.247576">
        <ele>49.590</ele>
        <time>2022-08-28T11:51:55Z</time>
      </trkpt>
      <trkpt lat="43.389772" lon="-4.247493">
        <ele>49.821</ele>
        <time>2022-08-28T11:51:57Z</time>
      </trkpt>
      <trkpt lat="43.389759" lon="-4.247413">
        <ele>50.229</ele>
        <time>2022-08-28T11:51:59Z</time>
      </trkpt>
      <trkpt lat="43.389742" lon="-4.247331">
        <ele>50.534</ele>
        <time>2022-08-28T11:52:01Z</time>
      </trkpt>
      <trkpt lat="43.389720" lon="-4.247244">
        <ele>50.998</ele>
        <time>2022-08-28T11:52:03Z</time>
      </trkpt>
      <trkpt lat="43.389698" lon="-4.247162">
        <ele>51.154</ele>
        <time>2022-08-28T11:52:05Z</time>
      </trkpt>
      <trkpt lat="43.389681" lon="-4.247082">
        <ele>51.457</ele>
        <time>2022-08-28T11:52:07Z</time>
      </trkpt>
      <trkpt lat="43.389663" lon="-4.247002">
        <ele>51.768</ele>
        <time>2022-08-28T11:52:09Z</time>
      </trkpt>
      <trkpt lat="43.389643" lon="-4.246924">
        <ele>52.173</ele>
        <time>2022-08-28T11:52:11Z</time>
      </trkpt>
      <trkpt lat="43.389625" lon="-4.246847">
        <ele>52.285</ele>
        <time>2022-08-28T11:52:13Z</time>
      </trkpt>
      <trkpt lat="43.389605" lon="-4.246770">
        <ele>52.413</ele>
        <time>2022-08-28T11:52:15Z</time>
      </trkpt>
      <trkpt lat="43.389588" lon="-4.246687">
        <ele>52.509</ele>
        <time>2022-08-28T11:52:17Z</time>
      </trkpt>
      <trkpt lat="43.389571" lon="-4.246602">
        <ele>52.738</ele>
        <time>2022-08-28T11:52:19Z</time>
      </trkpt>
      <trkpt lat="43.389551" lon="-4.246517">
        <ele>52.938</ele>
        <time>2022-08-28T11:52:21Z</time>
      </trkpt>
      <trkpt lat="43.389528" lon="-4.246434">
        <ele>53.189</ele>
        <time>2022-08-28T11:52:23Z</time>
      </trkpt>
      <trkpt lat="43.389506" lon="-4.246349">
        <ele>53.297</ele>
        <time>2022-08-28T11:52:25Z</time>
      </trkpt>
      <trkpt lat="43.389488" lon="-4.246257">
        <ele>53.242</ele>
        <time>2022-08-28T11:52:27Z</time>
      </trkpt>
      <trkpt lat="43.389470" lon="-4.246160">
        <ele>53.156</ele>
        <time>2022-08-28T11:52:29Z</time>
      </trkpt>
      <trkpt lat="43.389448" lon="-4.246068">
        <ele>53.212</ele>
        <time>2022-08-28T11:52:31Z</time>
      </trkpt>
      <trkpt lat="43.389426" lon="-4.245976">
        <ele>53.585</ele>
        <time>2022-08-28T11:52:33Z</time>
      </trkpt>
      <trkpt lat="43.389406" lon="-4.245884">
        <ele>53.796</ele>
        <time>2022-08-28T11:52:35Z</time>
      </trkpt>
      <trkpt lat="43.389379" lon="-4.245791">
        <ele>53.943</ele>
        <time>2022-08-28T11:52:37Z</time>
      </trkpt>
      <trkpt lat="43.389354" lon="-4.245691">
        <ele>54.064</ele>
        <time>2022-08-28T11:52:39Z</time>
      </trkpt>
      <trkpt lat="43.389332" lon="-4.245584">
        <ele>54.110</ele>
        <time>2022-08-28T11:52:41Z</time>
      </trkpt>
      <trkpt lat="43.389312" lon="-4.245482">
        <ele>54.209</ele>
        <time>2022-08-28T11:52:43Z</time>
      </trkpt>
      <trkpt lat="43.389289" lon="-4.245387">
        <ele>54.235</ele>
        <time>2022-08-28T11:52:45Z</time>
      </trkpt>
      <trkpt lat="43.389266" lon="-4.245290">
        <ele>54.355</ele>
        <time>2022-08-28T11:52:47Z</time>
      </trkpt>
      <trkpt lat="43.389241" lon="-4.245193">
        <ele>54.656</ele>
        <time>2022-08-28T11:52:49Z</time>
      </trkpt>
      <trkpt lat="43.389218" lon="-4.245096">
        <ele>54.874</ele>
        <time>2022-08-28T11:52:51Z</time>
      </trkpt>
      <trkpt lat="43.389198" lon="-4.244999">
        <ele>55.169</ele>
        <time>2022-08-28T11:52:53Z</time>
      </trkpt>
      <trkpt lat="43.389173" lon="-4.244906">
        <ele>55.453</ele>
        <time>2022-08-28T11:52:55Z</time>
      </trkpt>
      <trkpt lat="43.389151" lon="-4.244804">
        <ele>55.639</ele>
        <time>2022-08-28T11:52:57Z</time>
      </trkpt>
      <trkpt lat="43.389131" lon="-4.244699">
        <ele>56.092</ele>
        <time>2022-08-28T11:52:59Z</time>
      </trkpt>
      <trkpt lat="43.389108" lon="-4.244601">
        <ele>56.243</ele>
        <time>2022-08-28T11:53:01Z</time>
      </trkpt>
      <trkpt lat="43.389083" lon="-4.244503">
        <ele>56.535</ele>
        <time>2022-08-28T11:53:03Z</time>
      </trkpt>
      <trkpt lat="43.389060" lon="-4.244405">
        <ele>56.786</ele>
        <time>2022-08-28T11:53:05Z</time>
      </trkpt>
      <trkpt lat="43.389033" lon="-4.244305">
        <ele>56.814</ele>
        <time>2022-08-28T11:53:07Z</time>
      </trkpt>
      <trkpt lat="43.389008" lon="-4.244207">
        <ele>56.909</ele>
        <time>2022-08-28T11:53:09Z</time>
      </trkpt>
      <trkpt lat="43.388985" lon="-4.244107">
        <ele>57.164</ele>
        <time>2022-08-28T11:53:11Z</time>
      </trkpt>
      <trkpt lat="43.388963" lon="-4.244007">
        <ele>57.214</ele>
        <time>2022-08-28T11:53:13Z</time>
      </trkpt>
      <trkpt lat="43.388936" lon="-4.243905">
        <ele>57.275</ele>
        <time>2022-08-28T11:53:15Z</time>
      </trkpt>
      <trkpt lat="43.388911" lon="-4.243803">
        <ele>57.473</ele>
        <time>2022-08-28T11:53:17Z</time>
      </trkpt>
      <trkpt lat="43.388888" lon="-4.243706">
        <ele>57.728</ele>
        <time>2022-08-28T11:53:19Z</time>
      </trkpt>
      <trkpt lat="43.388863" lon="-4.243609">
        <ele>57.992</ele>
        <time>2022-08-28T11:53:21Z</time>
      </trkpt>
      <trkpt lat="43.388836" lon="-4.243509">
        <ele>58.298</ele>
        <time>2022-08-28T11:53:23Z</time>
      </trkpt>
      <trkpt lat="43.388813" lon="-4.243409">
        <ele>58.781</ele>
        <time>2022-08-28T11:53:25Z</time>
      </trkpt>
      <trkpt lat="43.388791" lon="-4.243311">
        <ele>59.192</ele>
        <time>2022-08-28T11:53:27Z</time>
      </trkpt>
      <trkpt lat="43.388766" lon="-4.243214">
        <ele>59.253</ele>
        <time>2022-08-28T11:53:29Z</time>
      </trkpt>
      <trkpt lat="43.388741" lon="-4.243116">
        <ele>59.404</ele>
        <time>2022-08-28T11:53:31Z</time>
      </trkpt>
      <trkpt lat="43.388711" lon="-4.243018">
        <ele>59.614</ele>
        <time>2022-08-28T11:53:33Z</time>
      </trkpt>
      <trkpt lat="43.388684" lon="-4.242918">
        <ele>60.009</ele>
        <time>2022-08-28T11:53:35Z</time>
      </trkpt>
      <trkpt lat="43.388652" lon="-4.242821">
        <ele>60.246</ele>
        <time>2022-08-28T11:53:37Z</time>
      </trkpt>
      <trkpt lat="43.388620" lon="-4.242718">
        <ele>60.516</ele>
        <time>2022-08-28T11:53:39Z</time>
      </trkpt>
      <trkpt lat="43.388582" lon="-4.242620">
        <ele>61.017</ele>
        <time>2022-08-28T11:53:41Z</time>
      </trkpt>
      <trkpt lat="43.388547" lon="-4.242522">
        <ele>61.415</ele>
        <time>2022-08-28T11:53:43Z</time>
      </trkpt>
      <trkpt lat="43.388510" lon="-4.242425">
        <ele>61.570</ele>
        <time>2022-08-28T11:53:45Z</time>
      </trkpt>
      <trkpt lat="43.388472" lon="-4.242330">
        <ele>61.624</ele>
        <time>2022-08-28T11:53:47Z</time>
      </trkpt>
      <trkpt lat="43.388430" lon="-4.242233">
        <ele>61.770</ele>
        <time>2022-08-28T11:53:49Z</time>
      </trkpt>
      <trkpt lat="43.388388" lon="-4.242136">
        <ele>61.333</ele>
        <time>2022-08-28T11:53:51Z</time>
      </trkpt>
      <trkpt lat="43.388345" lon="-4.242039">
        <ele>61.134</ele>
        <time>2022-08-28T11:53:53Z</time>
      </trkpt>
      <trkpt lat="43.388302" lon="-4.241942">
        <ele>60.812</ele>
        <time>2022-08-28T11:53:55Z</time>
      </trkpt>
      <trkpt lat="43.388255" lon="-4.241847">
        <ele>60.832</ele>
        <time>2022-08-28T11:53:57Z</time>
      </trkpt>
      <trkpt lat="43.388215" lon="-4.241745">
        <ele>60.905</ele>
        <time>2022-08-28T11:53:59Z</time>
      </trkpt>
      <trkpt lat="43.388175" lon="-4.241638">
        <ele>61.009</ele>
        <time>2022-08-28T11:54:01Z</time>
      </trkpt>
      <trkpt lat="43.388135" lon="-4.241528">
        <ele>61.142</ele>
        <time>2022-08-28T11:54:03Z</time>
      </trkpt>
      <trkpt lat="43.388097" lon="-4.241415">
        <ele>61.282</ele>
        <time>2022-08-28T11:54:05Z</time>
      </trkpt>
      <trkpt lat="43.388055" lon="-4.241305">
        <ele>61.343</ele>
        <time>2022-08-28T11:54:07Z</time>
      </trkpt>
      <trkpt lat="43.388035" lon="-4.241245">
        <ele>60.971</ele>
        <time>2022-08-28T11:54:08Z</time>
      </trkpt>
      <trkpt lat="43.388017" lon="-4.241185">
        <ele>60.576</ele>
        <time>2022-08-28T11:54:09Z</time>
      </trkpt>
      <trkpt lat="43.387982" lon="-4.241060">
        <ele>60.150</ele>
        <time>2022-08-28T11:54:11Z</time>
      </trkpt>
      <trkpt lat="43.387960" lon="-4.240995">
        <ele>60.066</ele>
        <time>2022-08-28T11:54:12Z</time>
      </trkpt>
      <trkpt lat="43.387938" lon="-4.240927">
        <ele>60.189</ele>
        <time>2022-08-28T11:54:13Z</time>
      </trkpt>
      <trkpt lat="43.387918" lon="-4.240859">
        <ele>60.330</ele>
        <time>2022-08-28T11:54:14Z</time>
      </trkpt>
      <trkpt lat="43.387871" lon="-4.240731">
        <ele>60.356</ele>
        <time>2022-08-28T11:54:16Z</time>
      </trkpt>
      <trkpt lat="43.387849" lon="-4.240666">
        <ele>60.459</ele>
        <time>2022-08-28T11:54:17Z</time>
      </trkpt>
      <trkpt lat="43.387807" lon="-4.240541">
        <ele>60.714</ele>
        <time>2022-08-28T11:54:19Z</time>
      </trkpt>
      <trkpt lat="43.387785" lon="-4.240478">
        <ele>60.709</ele>
        <time>2022-08-28T11:54:20Z</time>
      </trkpt>
      <trkpt lat="43.387747" lon="-4.240361">
        <ele>60.756</ele>
        <time>2022-08-28T11:54:22Z</time>
      </trkpt>
      <trkpt lat="43.387712" lon="-4.240253">
        <ele>60.986</ele>
        <time>2022-08-28T11:54:24Z</time>
      </trkpt>
      <trkpt lat="43.387682" lon="-4.240146">
        <ele>61.797</ele>
        <time>2022-08-28T11:54:26Z</time>
      </trkpt>
      <trkpt lat="43.387654" lon="-4.240041">
        <ele>62.415</ele>
        <time>2022-08-28T11:54:28Z</time>
      </trkpt>
      <trkpt lat="43.387619" lon="-4.239943">
        <ele>62.680</ele>
        <time>2022-08-28T11:54:30Z</time>
      </trkpt>
      <trkpt lat="43.387589" lon="-4.239838">
        <ele>62.894</ele>
        <time>2022-08-28T11:54:32Z</time>
      </trkpt>
      <trkpt lat="43.387559" lon="-4.239735">
        <ele>62.850</ele>
        <time>2022-08-28T11:54:34Z</time>
      </trkpt>
      <trkpt lat="43.387527" lon="-4.239633">
        <ele>62.873</ele>
        <time>2022-08-28T11:54:36Z</time>
      </trkpt>
      <trkpt lat="43.387495" lon="-4.239531">
        <ele>62.944</ele>
        <time>2022-08-28T11:54:38Z</time>
      </trkpt>
      <trkpt lat="43.387462" lon="-4.239433">
        <ele>62.991</ele>
        <time>2022-08-28T11:54:40Z</time>
      </trkpt>
      <trkpt lat="43.387427" lon="-4.239328">
        <ele>62.981</ele>
        <time>2022-08-28T11:54:42Z</time>
      </trkpt>
      <trkpt lat="43.387394" lon="-4.239221">
        <ele>63.019</ele>
        <time>2022-08-28T11:54:44Z</time>
      </trkpt>
      <trkpt lat="43.387361" lon="-4.239114">
        <ele>63.109</ele>
        <time>2022-08-28T11:54:46Z</time>
      </trkpt>
      <trkpt lat="43.387326" lon="-4.239006">
        <ele>63.190</ele>
        <time>2022-08-28T11:54:48Z</time>
      </trkpt>
      <trkpt lat="43.387291" lon="-4.238898">
        <ele>63.190</ele>
        <time>2022-08-28T11:54:50Z</time>
      </trkpt>
      <trkpt lat="43.387258" lon="-4.238788">
        <ele>63.211</ele>
        <time>2022-08-28T11:54:52Z</time>
      </trkpt>
      <trkpt lat="43.387223" lon="-4.238680">
        <ele>63.399</ele>
        <time>2022-08-28T11:54:54Z</time>
      </trkpt>
      <trkpt lat="43.387190" lon="-4.238572">
        <ele>63.564</ele>
        <time>2022-08-28T11:54:56Z</time>
      </trkpt>
      <trkpt lat="43.387157" lon="-4.238464">
        <ele>63.738</ele>
        <time>2022-08-28T11:54:58Z</time>
      </trkpt>
      <trkpt lat="43.387124" lon="-4.238354">
        <ele>64.084</ele>
        <time>2022-08-28T11:55:00Z</time>
      </trkpt>
      <trkpt lat="43.387092" lon="-4.238249">
        <ele>64.737</ele>
        <time>2022-08-28T11:55:02Z</time>
      </trkpt>
      <trkpt lat="43.387062" lon="-4.238146">
        <ele>65.418</ele>
        <time>2022-08-28T11:55:04Z</time>
      </trkpt>
      <trkpt lat="43.387034" lon="-4.238048">
        <ele>66.061</ele>
        <time>2022-08-28T11:55:06Z</time>
      </trkpt>
      <trkpt lat="43.387004" lon="-4.237955">
        <ele>66.221</ele>
        <time>2022-08-28T11:55:08Z</time>
      </trkpt>
      <trkpt lat="43.386974" lon="-4.237865">
        <ele>66.213</ele>
        <time>2022-08-28T11:55:10Z</time>
      </trkpt>
      <trkpt lat="43.386947" lon="-4.237777">
        <ele>66.109</ele>
        <time>2022-08-28T11:55:12Z</time>
      </trkpt>
      <trkpt lat="43.386924" lon="-4.237692">
        <ele>66.547</ele>
        <time>2022-08-28T11:55:14Z</time>
      </trkpt>
      <trkpt lat="43.386897" lon="-4.237607">
        <ele>66.847</ele>
        <time>2022-08-28T11:55:16Z</time>
      </trkpt>
      <trkpt lat="43.386877" lon="-4.237530">
        <ele>67.018</ele>
        <time>2022-08-28T11:55:18Z</time>
      </trkpt>
      <trkpt lat="43.386859" lon="-4.237457">
        <ele>67.366</ele>
        <time>2022-08-28T11:55:20Z</time>
      </trkpt>
      <trkpt lat="43.386837" lon="-4.237387">
        <ele>67.561</ele>
        <time>2022-08-28T11:55:22Z</time>
      </trkpt>
      <trkpt lat="43.386814" lon="-4.237307">
        <ele>67.885</ele>
        <time>2022-08-28T11:55:24Z</time>
      </trkpt>
      <trkpt lat="43.386791" lon="-4.237215">
        <ele>68.281</ele>
        <time>2022-08-28T11:55:26Z</time>
      </trkpt>
      <trkpt lat="43.386764" lon="-4.237115">
        <ele>68.664</ele>
        <time>2022-08-28T11:55:28Z</time>
      </trkpt>
      <trkpt lat="43.386736" lon="-4.237020">
        <ele>68.965</ele>
        <time>2022-08-28T11:55:30Z</time>
      </trkpt>
      <trkpt lat="43.386713" lon="-4.236937">
        <ele>69.239</ele>
        <time>2022-08-28T11:55:32Z</time>
      </trkpt>
      <trkpt lat="43.386690" lon="-4.236860">
        <ele>69.201</ele>
        <time>2022-08-28T11:55:34Z</time>
      </trkpt>
      <trkpt lat="43.386668" lon="-4.236783">
        <ele>69.221</ele>
        <time>2022-08-28T11:55:36Z</time>
      </trkpt>
      <trkpt lat="43.386650" lon="-4.236708">
        <ele>69.309</ele>
        <time>2022-08-28T11:55:38Z</time>
      </trkpt>
      <trkpt lat="43.386630" lon="-4.236635">
        <ele>69.534</ele>
        <time>2022-08-28T11:55:40Z</time>
      </trkpt>
      <trkpt lat="43.386612" lon="-4.236572">
        <ele>69.614</ele>
        <time>2022-08-28T11:55:42Z</time>
      </trkpt>
      <trkpt lat="43.386589" lon="-4.236487">
        <ele>69.895</ele>
        <time>2022-08-28T11:55:45Z</time>
      </trkpt>
      <trkpt lat="43.386577" lon="-4.236422">
        <ele>70.133</ele>
        <time>2022-08-28T11:55:47Z</time>
      </trkpt>
      <trkpt lat="43.386559" lon="-4.236354">
        <ele>70.248</ele>
        <time>2022-08-28T11:55:49Z</time>
      </trkpt>
      <trkpt lat="43.386539" lon="-4.236282">
        <ele>70.352</ele>
        <time>2022-08-28T11:55:51Z</time>
      </trkpt>
      <trkpt lat="43.386524" lon="-4.236199">
        <ele>70.598</ele>
        <time>2022-08-28T11:55:53Z</time>
      </trkpt>
      <trkpt lat="43.386512" lon="-4.236119">
        <ele>70.731</ele>
        <time>2022-08-28T11:55:55Z</time>
      </trkpt>
      <trkpt lat="43.386504" lon="-4.236037">
        <ele>71.212</ele>
        <time>2022-08-28T11:55:57Z</time>
      </trkpt>
      <trkpt lat="43.386497" lon="-4.235959">
        <ele>71.866</ele>
        <time>2022-08-28T11:55:59Z</time>
      </trkpt>
      <trkpt lat="43.386492" lon="-4.235884">
        <ele>72.329</ele>
        <time>2022-08-28T11:56:01Z</time>
      </trkpt>
      <trkpt lat="43.386492" lon="-4.235807">
        <ele>72.721</ele>
        <time>2022-08-28T11:56:03Z</time>
      </trkpt>
      <trkpt lat="43.386487" lon="-4.235730">
        <ele>72.609</ele>
        <time>2022-08-28T11:56:05Z</time>
      </trkpt>
      <trkpt lat="43.386487" lon="-4.235653">
        <ele>72.547</ele>
        <time>2022-08-28T11:56:07Z</time>
      </trkpt>
      <trkpt lat="43.386487" lon="-4.235576">
        <ele>72.457</ele>
        <time>2022-08-28T11:56:09Z</time>
      </trkpt>
      <trkpt lat="43.386492" lon="-4.235503">
        <ele>72.678</ele>
        <time>2022-08-28T11:56:11Z</time>
      </trkpt>
      <trkpt lat="43.386495" lon="-4.235430">
        <ele>72.956</ele>
        <time>2022-08-28T11:56:13Z</time>
      </trkpt>
      <trkpt lat="43.386502" lon="-4.235355">
        <ele>73.361</ele>
        <time>2022-08-28T11:56:15Z</time>
      </trkpt>
      <trkpt lat="43.386507" lon="-4.235277">
        <ele>73.745</ele>
        <time>2022-08-28T11:56:17Z</time>
      </trkpt>
      <trkpt lat="43.386519" lon="-4.235204">
        <ele>74.391</ele>
        <time>2022-08-28T11:56:19Z</time>
      </trkpt>
      <trkpt lat="43.386529" lon="-4.235127">
        <ele>74.834</ele>
        <time>2022-08-28T11:56:21Z</time>
      </trkpt>
      <trkpt lat="43.386539" lon="-4.235052">
        <ele>75.465</ele>
        <time>2022-08-28T11:56:23Z</time>
      </trkpt>
      <trkpt lat="43.386549" lon="-4.234977">
        <ele>75.961</ele>
        <time>2022-08-28T11:56:25Z</time>
      </trkpt>
      <trkpt lat="43.386564" lon="-4.234900">
        <ele>76.421</ele>
        <time>2022-08-28T11:56:27Z</time>
      </trkpt>
      <trkpt lat="43.386576" lon="-4.234830">
        <ele>76.813</ele>
        <time>2022-08-28T11:56:29Z</time>
      </trkpt>
      <trkpt lat="43.386586" lon="-4.234758">
        <ele>77.209</ele>
        <time>2022-08-28T11:56:31Z</time>
      </trkpt>
      <trkpt lat="43.386598" lon="-4.234688">
        <ele>77.617</ele>
        <time>2022-08-28T11:56:33Z</time>
      </trkpt>
      <trkpt lat="43.386611" lon="-4.234615">
        <ele>78.027</ele>
        <time>2022-08-28T11:56:35Z</time>
      </trkpt>
      <trkpt lat="43.386618" lon="-4.234545">
        <ele>78.228</ele>
        <time>2022-08-28T11:56:37Z</time>
      </trkpt>
      <trkpt lat="43.386623" lon="-4.234478">
        <ele>78.316</ele>
        <time>2022-08-28T11:56:39Z</time>
      </trkpt>
      <trkpt lat="43.386630" lon="-4.234415">
        <ele>78.671</ele>
        <time>2022-08-28T11:56:41Z</time>
      </trkpt>
      <trkpt lat="43.386645" lon="-4.234353">
        <ele>79.085</ele>
        <time>2022-08-28T11:56:43Z</time>
      </trkpt>
      <trkpt lat="43.386658" lon="-4.234290">
        <ele>79.471</ele>
        <time>2022-08-28T11:56:45Z</time>
      </trkpt>
      <trkpt lat="43.386673" lon="-4.234230">
        <ele>79.954</ele>
        <time>2022-08-28T11:56:47Z</time>
      </trkpt>
      <trkpt lat="43.386693" lon="-4.234158">
        <ele>80.485</ele>
        <time>2022-08-28T11:56:49Z</time>
      </trkpt>
      <trkpt lat="43.386721" lon="-4.234076">
        <ele>80.764</ele>
        <time>2022-08-28T11:56:51Z</time>
      </trkpt>
      <trkpt lat="43.386746" lon="-4.234004">
        <ele>81.006</ele>
        <time>2022-08-28T11:56:53Z</time>
      </trkpt>
      <trkpt lat="43.386773" lon="-4.233941">
        <ele>81.216</ele>
        <time>2022-08-28T11:56:55Z</time>
      </trkpt>
      <trkpt lat="43.386801" lon="-4.233888">
        <ele>81.509</ele>
        <time>2022-08-28T11:56:57Z</time>
      </trkpt>
      <trkpt lat="43.386828" lon="-4.233826">
        <ele>81.817</ele>
        <time>2022-08-28T11:56:59Z</time>
      </trkpt>
      <trkpt lat="43.386856" lon="-4.233769">
        <ele>82.257</ele>
        <time>2022-08-28T11:57:01Z</time>
      </trkpt>
      <trkpt lat="43.386883" lon="-4.233707">
        <ele>82.538</ele>
        <time>2022-08-28T11:57:03Z</time>
      </trkpt>
      <trkpt lat="43.386915" lon="-4.233645">
        <ele>82.816</ele>
        <time>2022-08-28T11:57:05Z</time>
      </trkpt>
      <trkpt lat="43.386950" lon="-4.233583">
        <ele>83.061</ele>
        <time>2022-08-28T11:57:07Z</time>
      </trkpt>
      <trkpt lat="43.386990" lon="-4.233520">
        <ele>83.395</ele>
        <time>2022-08-28T11:57:09Z</time>
      </trkpt>
      <trkpt lat="43.387032" lon="-4.233457">
        <ele>83.561</ele>
        <time>2022-08-28T11:57:11Z</time>
      </trkpt>
      <trkpt lat="43.387070" lon="-4.233395">
        <ele>83.684</ele>
        <time>2022-08-28T11:57:13Z</time>
      </trkpt>
      <trkpt lat="43.387107" lon="-4.233322">
        <ele>83.685</ele>
        <time>2022-08-28T11:57:15Z</time>
      </trkpt>
      <trkpt lat="43.387142" lon="-4.233242">
        <ele>83.713</ele>
        <time>2022-08-28T11:57:17Z</time>
      </trkpt>
      <trkpt lat="43.387190" lon="-4.233159">
        <ele>83.543</ele>
        <time>2022-08-28T11:57:19Z</time>
      </trkpt>
      <trkpt lat="43.387242" lon="-4.233062">
        <ele>82.907</ele>
        <time>2022-08-28T11:57:21Z</time>
      </trkpt>
      <trkpt lat="43.387305" lon="-4.232957">
        <ele>82.009</ele>
        <time>2022-08-28T11:57:23Z</time>
      </trkpt>
      <trkpt lat="43.387337" lon="-4.232904">
        <ele>81.622</ele>
        <time>2022-08-28T11:57:24Z</time>
      </trkpt>
      <trkpt lat="43.387369" lon="-4.232842">
        <ele>81.252</ele>
        <time>2022-08-28T11:57:25Z</time>
      </trkpt>
      <trkpt lat="43.387397" lon="-4.232775">
        <ele>80.793</ele>
        <time>2022-08-28T11:57:26Z</time>
      </trkpt>
      <trkpt lat="43.387454" lon="-4.232618">
        <ele>79.611</ele>
        <time>2022-08-28T11:57:28Z</time>
      </trkpt>
      <trkpt lat="43.387482" lon="-4.232528">
        <ele>79.136</ele>
        <time>2022-08-28T11:57:29Z</time>
      </trkpt>
      <trkpt lat="43.387535" lon="-4.232330">
        <ele>77.130</ele>
        <time>2022-08-28T11:57:31Z</time>
      </trkpt>
      <trkpt lat="43.387578" lon="-4.232098">
        <ele>74.876</ele>
        <time>2022-08-28T11:57:33Z</time>
      </trkpt>
      <trkpt lat="43.387595" lon="-4.231973">
        <ele>73.899</ele>
        <time>2022-08-28T11:57:34Z</time>
      </trkpt>
      <trkpt lat="43.387610" lon="-4.231713">
        <ele>72.440</ele>
        <time>2022-08-28T11:57:36Z</time>
      </trkpt>
      <trkpt lat="43.387598" lon="-4.231433">
        <ele>70.722</ele>
        <time>2022-08-28T11:57:38Z</time>
      </trkpt>
      <trkpt lat="43.387558" lon="-4.231146">
        <ele>68.662</ele>
        <time>2022-08-28T11:57:40Z</time>
      </trkpt>
      <trkpt lat="43.387490" lon="-4.230843">
        <ele>67.008</ele>
        <time>2022-08-28T11:57:42Z</time>
      </trkpt>
      <trkpt lat="43.387443" lon="-4.230690">
        <ele>65.509</ele>
        <time>2022-08-28T11:57:43Z</time>
      </trkpt>
      <trkpt lat="43.387395" lon="-4.230537">
        <ele>63.753</ele>
        <time>2022-08-28T11:57:44Z</time>
      </trkpt>
      <trkpt lat="43.387340" lon="-4.230382">
        <ele>62.223</ele>
        <time>2022-08-28T11:57:45Z</time>
      </trkpt>
      <trkpt lat="43.387218" lon="-4.230070">
        <ele>60.534</ele>
        <time>2022-08-28T11:57:47Z</time>
      </trkpt>
      <trkpt lat="43.387155" lon="-4.229910">
        <ele>58.612</ele>
        <time>2022-08-28T11:57:48Z</time>
      </trkpt>
      <trkpt lat="43.387025" lon="-4.229588">
        <ele>55.947</ele>
        <time>2022-08-28T11:57:50Z</time>
      </trkpt>
      <trkpt lat="43.386892" lon="-4.229256">
        <ele>55.291</ele>
        <time>2022-08-28T11:57:52Z</time>
      </trkpt>
      <trkpt lat="43.386755" lon="-4.228936">
        <ele>52.977</ele>
        <time>2022-08-28T11:57:54Z</time>
      </trkpt>
      <trkpt lat="43.386690" lon="-4.228774">
        <ele>51.840</ele>
        <time>2022-08-28T11:57:55Z</time>
      </trkpt>
      <trkpt lat="43.386625" lon="-4.228609">
        <ele>51.561</ele>
        <time>2022-08-28T11:57:56Z</time>
      </trkpt>
      <trkpt lat="43.386498" lon="-4.228279">
        <ele>50.131</ele>
        <time>2022-08-28T11:57:58Z</time>
      </trkpt>
      <trkpt lat="43.386423" lon="-4.228124">
        <ele>49.361</ele>
        <time>2022-08-28T11:57:59Z</time>
      </trkpt>
      <trkpt lat="43.386266" lon="-4.227819">
        <ele>48.107</ele>
        <time>2022-08-28T11:58:01Z</time>
      </trkpt>
      <trkpt lat="43.386098" lon="-4.227536">
        <ele>46.009</ele>
        <time>2022-08-28T11:58:03Z</time>
      </trkpt>
      <trkpt lat="43.386010" lon="-4.227401">
        <ele>45.714</ele>
        <time>2022-08-28T11:58:04Z</time>
      </trkpt>
      <trkpt lat="43.385823" lon="-4.227149">
        <ele>43.524</ele>
        <time>2022-08-28T11:58:06Z</time>
      </trkpt>
      <trkpt lat="43.385646" lon="-4.226889">
        <ele>42.345</ele>
        <time>2022-08-28T11:58:08Z</time>
      </trkpt>
      <trkpt lat="43.385563" lon="-4.226756">
        <ele>41.633</ele>
        <time>2022-08-28T11:58:09Z</time>
      </trkpt>
      <trkpt lat="43.385401" lon="-4.226478">
        <ele>43.098</ele>
        <time>2022-08-28T11:58:11Z</time>
      </trkpt>
      <trkpt lat="43.385331" lon="-4.226330">
        <ele>42.342</ele>
        <time>2022-08-28T11:58:12Z</time>
      </trkpt>
      <trkpt lat="43.385204" lon="-4.226023">
        <ele>40.458</ele>
        <time>2022-08-28T11:58:14Z</time>
      </trkpt>
      <trkpt lat="43.385144" lon="-4.225866">
        <ele>39.651</ele>
        <time>2022-08-28T11:58:15Z</time>
      </trkpt>
      <trkpt lat="43.385031" lon="-4.225558">
        <ele>36.522</ele>
        <time>2022-08-28T11:58:17Z</time>
      </trkpt>
      <trkpt lat="43.384983" lon="-4.225401">
        <ele>35.476</ele>
        <time>2022-08-28T11:58:18Z</time>
      </trkpt>
      <trkpt lat="43.384916" lon="-4.225079">
        <ele>33.190</ele>
        <time>2022-08-28T11:58:20Z</time>
      </trkpt>
      <trkpt lat="43.384911" lon="-4.224749">
        <ele>30.519</ele>
        <time>2022-08-28T11:58:22Z</time>
      </trkpt>
      <trkpt lat="43.384933" lon="-4.224591">
        <ele>29.609</ele>
        <time>2022-08-28T11:58:23Z</time>
      </trkpt>
      <trkpt lat="43.384970" lon="-4.224443">
        <ele>29.118</ele>
        <time>2022-08-28T11:58:24Z</time>
      </trkpt>
      <trkpt lat="43.385092" lon="-4.224171">
        <ele>27.628</ele>
        <time>2022-08-28T11:58:26Z</time>
      </trkpt>
      <trkpt lat="43.385260" lon="-4.223961">
        <ele>26.359</ele>
        <time>2022-08-28T11:58:28Z</time>
      </trkpt>
      <trkpt lat="43.385463" lon="-4.223818">
        <ele>24.117</ele>
        <time>2022-08-28T11:58:30Z</time>
      </trkpt>
      <trkpt lat="43.385681" lon="-4.223708">
        <ele>23.272</ele>
        <time>2022-08-28T11:58:32Z</time>
      </trkpt>
      <trkpt lat="43.385793" lon="-4.223655">
        <ele>23.546</ele>
        <time>2022-08-28T11:58:33Z</time>
      </trkpt>
      <trkpt lat="43.385900" lon="-4.223605">
        <ele>23.832</ele>
        <time>2022-08-28T11:58:34Z</time>
      </trkpt>
      <trkpt lat="43.386103" lon="-4.223512">
        <ele>23.885</ele>
        <time>2022-08-28T11:58:36Z</time>
      </trkpt>
      <trkpt lat="43.386306" lon="-4.223420">
        <ele>22.316</ele>
        <time>2022-08-28T11:58:38Z</time>
      </trkpt>
      <trkpt lat="43.386409" lon="-4.223373">
        <ele>21.723</ele>
        <time>2022-08-28T11:58:39Z</time>
      </trkpt>
      <trkpt lat="43.386601" lon="-4.223273">
        <ele>22.383</ele>
        <time>2022-08-28T11:58:41Z</time>
      </trkpt>
      <trkpt lat="43.386763" lon="-4.223146">
        <ele>22.211</ele>
        <time>2022-08-28T11:58:43Z</time>
      </trkpt>
      <trkpt lat="43.386830" lon="-4.223071">
        <ele>22.309</ele>
        <time>2022-08-28T11:58:44Z</time>
      </trkpt>
      <trkpt lat="43.386882" lon="-4.222994">
        <ele>23.263</ele>
        <time>2022-08-28T11:58:45Z</time>
      </trkpt>
      <trkpt lat="43.386932" lon="-4.222917">
        <ele>23.733</ele>
        <time>2022-08-28T11:58:46Z</time>
      </trkpt>
      <trkpt lat="43.386972" lon="-4.222835">
        <ele>24.214</ele>
        <time>2022-08-28T11:58:47Z</time>
      </trkpt>
      <trkpt lat="43.387047" lon="-4.222687">
        <ele>26.142</ele>
        <time>2022-08-28T11:58:49Z</time>
      </trkpt>
      <trkpt lat="43.387109" lon="-4.222552">
        <ele>27.637</ele>
        <time>2022-08-28T11:58:51Z</time>
      </trkpt>
      <trkpt lat="43.387132" lon="-4.222490">
        <ele>28.191</ele>
        <time>2022-08-28T11:58:52Z</time>
      </trkpt>
      <trkpt lat="43.387175" lon="-4.222387">
        <ele>28.247</ele>
        <time>2022-08-28T11:58:54Z</time>
      </trkpt>
      <trkpt lat="43.387217" lon="-4.222299">
        <ele>27.670</ele>
        <time>2022-08-28T11:58:56Z</time>
      </trkpt>
      <trkpt lat="43.387257" lon="-4.222217">
        <ele>27.731</ele>
        <time>2022-08-28T11:58:58Z</time>
      </trkpt>
      <trkpt lat="43.387285" lon="-4.222144">
        <ele>28.627</ele>
        <time>2022-08-28T11:59:00Z</time>
      </trkpt>
      <trkpt lat="43.387312" lon="-4.222074">
        <ele>29.468</ele>
        <time>2022-08-28T11:59:02Z</time>
      </trkpt>
      <trkpt lat="43.387339" lon="-4.222004">
        <ele>30.014</ele>
        <time>2022-08-28T11:59:04Z</time>
      </trkpt>
      <trkpt lat="43.387359" lon="-4.221926">
        <ele>30.709</ele>
        <time>2022-08-28T11:59:06Z</time>
      </trkpt>
      <trkpt lat="43.387376" lon="-4.221844">
        <ele>31.353</ele>
        <time>2022-08-28T11:59:08Z</time>
      </trkpt>
      <trkpt lat="43.387389" lon="-4.221769">
        <ele>31.883</ele>
        <time>2022-08-28T11:59:10Z</time>
      </trkpt>
      <trkpt lat="43.387394" lon="-4.221707">
        <ele>32.344</ele>
        <time>2022-08-28T11:59:12Z</time>
      </trkpt>
      <trkpt lat="43.387411" lon="-4.221622">
        <ele>32.562</ele>
        <time>2022-08-28T11:59:15Z</time>
      </trkpt>
      <trkpt lat="43.387418" lon="-4.221559">
        <ele>32.697</ele>
        <time>2022-08-28T11:59:17Z</time>
      </trkpt>
      <trkpt lat="43.387411" lon="-4.221492">
        <ele>33.111</ele>
        <time>2022-08-28T11:59:19Z</time>
      </trkpt>
      <trkpt lat="43.387408" lon="-4.221424">
        <ele>33.577</ele>
        <time>2022-08-28T11:59:21Z</time>
      </trkpt>
      <trkpt lat="43.387400" lon="-4.221332">
        <ele>33.820</ele>
        <time>2022-08-28T11:59:24Z</time>
      </trkpt>
      <trkpt lat="43.387392" lon="-4.221270">
        <ele>33.981</ele>
        <time>2022-08-28T11:59:26Z</time>
      </trkpt>
      <trkpt lat="43.387372" lon="-4.221177">
        <ele>34.361</ele>
        <time>2022-08-28T11:59:29Z</time>
      </trkpt>
      <trkpt lat="43.387354" lon="-4.221110">
        <ele>34.721</ele>
        <time>2022-08-28T11:59:31Z</time>
      </trkpt>
      <trkpt lat="43.387324" lon="-4.221050">
        <ele>34.913</ele>
        <time>2022-08-28T11:59:33Z</time>
      </trkpt>
      <trkpt lat="43.387294" lon="-4.220993">
        <ele>35.009</ele>
        <time>2022-08-28T11:59:35Z</time>
      </trkpt>
      <trkpt lat="43.387272" lon="-4.220935">
        <ele>35.097</ele>
        <time>2022-08-28T11:59:37Z</time>
      </trkpt>
      <trkpt lat="43.387227" lon="-4.220870">
        <ele>35.367</ele>
        <time>2022-08-28T11:59:40Z</time>
      </trkpt>
      <trkpt lat="43.387194" lon="-4.220827">
        <ele>35.848</ele>
        <time>2022-08-28T11:59:42Z</time>
      </trkpt>
      <trkpt lat="43.387157" lon="-4.220787">
        <ele>36.436</ele>
        <time>2022-08-28T11:59:44Z</time>
      </trkpt>
      <trkpt lat="43.387119" lon="-4.220747">
        <ele>36.931</ele>
        <time>2022-08-28T11:59:46Z</time>
      </trkpt>
      <trkpt lat="43.387072" lon="-4.220690">
        <ele>37.245</ele>
        <time>2022-08-28T11:59:49Z</time>
      </trkpt>
      <trkpt lat="43.387020" lon="-4.220638">
        <ele>37.481</ele>
        <time>2022-08-28T11:59:52Z</time>
      </trkpt>
      <trkpt lat="43.386978" lon="-4.220575">
        <ele>36.944</ele>
        <time>2022-08-28T11:59:55Z</time>
      </trkpt>
      <trkpt lat="43.386928" lon="-4.220515">
        <ele>37.335</ele>
        <time>2022-08-28T11:59:58Z</time>
      </trkpt>
      <trkpt lat="43.386868" lon="-4.220482">
        <ele>38.897</ele>
        <time>2022-08-28T12:00:01Z</time>
      </trkpt>
      <trkpt lat="43.386813" lon="-4.220440">
        <ele>39.923</ele>
        <time>2022-08-28T12:00:04Z</time>
      </trkpt>
      <trkpt lat="43.386770" lon="-4.220417">
        <ele>40.625</ele>
        <time>2022-08-28T12:00:06Z</time>
      </trkpt>
      <trkpt lat="43.386728" lon="-4.220389">
        <ele>41.109</ele>
        <time>2022-08-28T12:00:08Z</time>
      </trkpt>
      <trkpt lat="43.386681" lon="-4.220334">
        <ele>41.070</ele>
        <time>2022-08-28T12:00:11Z</time>
      </trkpt>
      <trkpt lat="43.386621" lon="-4.220294">
        <ele>41.510</ele>
        <time>2022-08-28T12:00:14Z</time>
      </trkpt>
      <trkpt lat="43.386578" lon="-4.220274">
        <ele>42.261</ele>
        <time>2022-08-28T12:00:16Z</time>
      </trkpt>
      <trkpt lat="43.386531" lon="-4.220249">
        <ele>43.169</ele>
        <time>2022-08-28T12:00:18Z</time>
      </trkpt>
      <trkpt lat="43.386493" lon="-4.220209">
        <ele>43.524</ele>
        <time>2022-08-28T12:00:20Z</time>
      </trkpt>
      <trkpt lat="43.386453" lon="-4.220172">
        <ele>43.828</ele>
        <time>2022-08-28T12:00:22Z</time>
      </trkpt>
      <trkpt lat="43.386398" lon="-4.220122">
        <ele>44.094</ele>
        <time>2022-08-28T12:00:25Z</time>
      </trkpt>
      <trkpt lat="43.386345" lon="-4.220070">
        <ele>44.787</ele>
        <time>2022-08-28T12:00:28Z</time>
      </trkpt>
      <trkpt lat="43.386292" lon="-4.220027">
        <ele>45.478</ele>
        <time>2022-08-28T12:00:31Z</time>
      </trkpt>
      <trkpt lat="43.386232" lon="-4.219987">
        <ele>46.332</ele>
        <time>2022-08-28T12:00:34Z</time>
      </trkpt>
      <trkpt lat="43.386190" lon="-4.219919">
        <ele>46.592</ele>
        <time>2022-08-28T12:00:37Z</time>
      </trkpt>
      <trkpt lat="43.386138" lon="-4.219861">
        <ele>46.911</ele>
        <time>2022-08-28T12:00:40Z</time>
      </trkpt>
      <trkpt lat="43.386096" lon="-4.219796">
        <ele>46.909</ele>
        <time>2022-08-28T12:00:43Z</time>
      </trkpt>
      <trkpt lat="43.386064" lon="-4.219734">
        <ele>46.814</ele>
        <time>2022-08-28T12:00:46Z</time>
      </trkpt>
      <trkpt lat="43.386026" lon="-4.219659">
        <ele>47.524</ele>
        <time>2022-08-28T12:00:49Z</time>
      </trkpt>
      <trkpt lat="43.385998" lon="-4.219581">
        <ele>48.045</ele>
        <time>2022-08-28T12:00:52Z</time>
      </trkpt>
      <trkpt lat="43.385983" lon="-4.219523">
        <ele>48.293</ele>
        <time>2022-08-28T12:00:54Z</time>
      </trkpt>
      <trkpt lat="43.385958" lon="-4.219471">
        <ele>48.528</ele>
        <time>2022-08-28T12:00:56Z</time>
      </trkpt>
      <trkpt lat="43.385943" lon="-4.219413">
        <ele>48.672</ele>
        <time>2022-08-28T12:00:58Z</time>
      </trkpt>
      <trkpt lat="43.385928" lon="-4.219338">
        <ele>48.828</ele>
        <time>2022-08-28T12:01:01Z</time>
      </trkpt>
      <trkpt lat="43.385923" lon="-4.219261">
        <ele>48.981</ele>
        <time>2022-08-28T12:01:04Z</time>
      </trkpt>
      <trkpt lat="43.385906" lon="-4.219186">
        <ele>49.282</ele>
        <time>2022-08-28T12:01:07Z</time>
      </trkpt>
      <trkpt lat="43.385898" lon="-4.219104">
        <ele>49.857</ele>
        <time>2022-08-28T12:01:10Z</time>
      </trkpt>
      <trkpt lat="43.385903" lon="-4.219017">
        <ele>50.200</ele>
        <time>2022-08-28T12:01:13Z</time>
      </trkpt>
      <trkpt lat="43.385913" lon="-4.218930">
        <ele>50.520</ele>
        <time>2022-08-28T12:01:16Z</time>
      </trkpt>
      <trkpt lat="43.385925" lon="-4.218863">
        <ele>50.709</ele>
        <time>2022-08-28T12:01:18Z</time>
      </trkpt>
      <trkpt lat="43.385950" lon="-4.218778">
        <ele>51.266</ele>
        <time>2022-08-28T12:01:21Z</time>
      </trkpt>
      <trkpt lat="43.385978" lon="-4.218698">
        <ele>51.656</ele>
        <time>2022-08-28T12:01:24Z</time>
      </trkpt>
      <trkpt lat="43.386013" lon="-4.218618">
        <ele>51.737</ele>
        <time>2022-08-28T12:01:27Z</time>
      </trkpt>
      <trkpt lat="43.386040" lon="-4.218568">
        <ele>51.625</ele>
        <time>2022-08-28T12:01:29Z</time>
      </trkpt>
      <trkpt lat="43.386063" lon="-4.218513">
        <ele>51.760</ele>
        <time>2022-08-28T12:01:31Z</time>
      </trkpt>
      <trkpt lat="43.386093" lon="-4.218456">
        <ele>51.734</ele>
        <time>2022-08-28T12:01:33Z</time>
      </trkpt>
      <trkpt lat="43.386118" lon="-4.218403">
        <ele>52.010</ele>
        <time>2022-08-28T12:01:35Z</time>
      </trkpt>
      <trkpt lat="43.386148" lon="-4.218355">
        <ele>52.893</ele>
        <time>2022-08-28T12:01:37Z</time>
      </trkpt>
      <trkpt lat="43.386195" lon="-4.218292">
        <ele>54.054</ele>
        <time>2022-08-28T12:01:40Z</time>
      </trkpt>
      <trkpt lat="43.386238" lon="-4.218252">
        <ele>54.735</ele>
        <time>2022-08-28T12:01:42Z</time>
      </trkpt>
      <trkpt lat="43.386285" lon="-4.218215">
        <ele>55.286</ele>
        <time>2022-08-28T12:01:44Z</time>
      </trkpt>
      <trkpt lat="43.386335" lon="-4.218173">
        <ele>55.814</ele>
        <time>2022-08-28T12:01:46Z</time>
      </trkpt>
      <trkpt lat="43.386387" lon="-4.218140">
        <ele>56.109</ele>
        <time>2022-08-28T12:01:48Z</time>
      </trkpt>
      <trkpt lat="43.386434" lon="-4.218103">
        <ele>56.474</ele>
        <time>2022-08-28T12:01:50Z</time>
      </trkpt>
      <trkpt lat="43.386484" lon="-4.218070">
        <ele>56.524</ele>
        <time>2022-08-28T12:01:52Z</time>
      </trkpt>
      <trkpt lat="43.386531" lon="-4.218040">
        <ele>56.885</ele>
        <time>2022-08-28T12:01:54Z</time>
      </trkpt>
      <trkpt lat="43.386573" lon="-4.218002">
        <ele>57.263</ele>
        <time>2022-08-28T12:01:57Z</time>
      </trkpt>
      <trkpt lat="43.386616" lon="-4.217975">
        <ele>57.388</ele>
        <time>2022-08-28T12:02:00Z</time>
      </trkpt>
      <trkpt lat="43.386659" lon="-4.217937">
        <ele>57.442</ele>
        <time>2022-08-28T12:02:03Z</time>
      </trkpt>
      <trkpt lat="43.386716" lon="-4.217887">
        <ele>57.878</ele>
        <time>2022-08-28T12:02:06Z</time>
      </trkpt>
      <trkpt lat="43.386761" lon="-4.217842">
        <ele>58.181</ele>
        <time>2022-08-28T12:02:08Z</time>
      </trkpt>
      <trkpt lat="43.386801" lon="-4.217794">
        <ele>58.442</ele>
        <time>2022-08-28T12:02:10Z</time>
      </trkpt>
      <trkpt lat="43.386831" lon="-4.217737">
        <ele>58.827</ele>
        <time>2022-08-28T12:02:12Z</time>
      </trkpt>
      <trkpt lat="43.386868" lon="-4.217672">
        <ele>59.168</ele>
        <time>2022-08-28T12:02:14Z</time>
      </trkpt>
      <trkpt lat="43.386911" lon="-4.217610">
        <ele>59.014</ele>
        <time>2022-08-28T12:02:16Z</time>
      </trkpt>
      <trkpt lat="43.386956" lon="-4.217548">
        <ele>58.609</ele>
        <time>2022-08-28T12:02:18Z</time>
      </trkpt>
      <trkpt lat="43.386988" lon="-4.217475">
        <ele>58.363</ele>
        <time>2022-08-28T12:02:20Z</time>
      </trkpt>
      <trkpt lat="43.387011" lon="-4.217400">
        <ele>57.913</ele>
        <time>2022-08-28T12:02:22Z</time>
      </trkpt>
      <trkpt lat="43.387026" lon="-4.217323">
        <ele>57.654</ele>
        <time>2022-08-28T12:02:24Z</time>
      </trkpt>
      <trkpt lat="43.387039" lon="-4.217240">
        <ele>57.312</ele>
        <time>2022-08-28T12:02:26Z</time>
      </trkpt>
      <trkpt lat="43.387037" lon="-4.217160">
        <ele>57.647</ele>
        <time>2022-08-28T12:02:28Z</time>
      </trkpt>
      <trkpt lat="43.387035" lon="-4.217073">
        <ele>57.971</ele>
        <time>2022-08-28T12:02:30Z</time>
      </trkpt>
      <trkpt lat="43.387037" lon="-4.216981">
        <ele>58.257</ele>
        <time>2022-08-28T12:02:32Z</time>
      </trkpt>
      <trkpt lat="43.387035" lon="-4.216883">
        <ele>58.450</ele>
        <time>2022-08-28T12:02:34Z</time>
      </trkpt>
      <trkpt lat="43.387035" lon="-4.216776">
        <ele>58.681</ele>
        <time>2022-08-28T12:02:36Z</time>
      </trkpt>
      <trkpt lat="43.387033" lon="-4.216666">
        <ele>58.742</ele>
        <time>2022-08-28T12:02:38Z</time>
      </trkpt>
      <trkpt lat="43.387035" lon="-4.216546">
        <ele>58.822</ele>
        <time>2022-08-28T12:02:40Z</time>
      </trkpt>
      <trkpt lat="43.387038" lon="-4.216424">
        <ele>58.914</ele>
        <time>2022-08-28T12:02:42Z</time>
      </trkpt>
      <trkpt lat="43.387045" lon="-4.216292">
        <ele>58.909</ele>
        <time>2022-08-28T12:02:44Z</time>
      </trkpt>
      <trkpt lat="43.387052" lon="-4.216224">
        <ele>58.835</ele>
        <time>2022-08-28T12:02:45Z</time>
      </trkpt>
      <trkpt lat="43.387062" lon="-4.216154">
        <ele>58.795</ele>
        <time>2022-08-28T12:02:46Z</time>
      </trkpt>
      <trkpt lat="43.387095" lon="-4.216017">
        <ele>58.446</ele>
        <time>2022-08-28T12:02:48Z</time>
      </trkpt>
      <trkpt lat="43.387115" lon="-4.215944">
        <ele>58.224</ele>
        <time>2022-08-28T12:02:49Z</time>
      </trkpt>
      <trkpt lat="43.387168" lon="-4.215797">
        <ele>57.489</ele>
        <time>2022-08-28T12:02:51Z</time>
      </trkpt>
      <trkpt lat="43.387223" lon="-4.215647">
        <ele>56.313</ele>
        <time>2022-08-28T12:02:53Z</time>
      </trkpt>
      <trkpt lat="43.387278" lon="-4.215497">
        <ele>55.889</ele>
        <time>2022-08-28T12:02:55Z</time>
      </trkpt>
      <trkpt lat="43.387308" lon="-4.215420">
        <ele>55.762</ele>
        <time>2022-08-28T12:02:56Z</time>
      </trkpt>
      <trkpt lat="43.387370" lon="-4.215260">
        <ele>55.543</ele>
        <time>2022-08-28T12:02:58Z</time>
      </trkpt>
      <trkpt lat="43.387403" lon="-4.215178">
        <ele>55.329</ele>
        <time>2022-08-28T12:02:59Z</time>
      </trkpt>
      <trkpt lat="43.387466" lon="-4.215013">
        <ele>55.100</ele>
        <time>2022-08-28T12:03:01Z</time>
      </trkpt>
      <trkpt lat="43.387533" lon="-4.214848">
        <ele>54.920</ele>
        <time>2022-08-28T12:03:03Z</time>
      </trkpt>
      <trkpt lat="43.387581" lon="-4.214686">
        <ele>55.109</ele>
        <time>2022-08-28T12:03:05Z</time>
      </trkpt>
      <trkpt lat="43.387618" lon="-4.214521">
        <ele>55.763</ele>
        <time>2022-08-28T12:03:07Z</time>
      </trkpt>
      <trkpt lat="43.387643" lon="-4.214364">
        <ele>56.173</ele>
        <time>2022-08-28T12:03:09Z</time>
      </trkpt>
      <trkpt lat="43.387653" lon="-4.214286">
        <ele>56.364</ele>
        <time>2022-08-28T12:03:10Z</time>
      </trkpt>
      <trkpt lat="43.387666" lon="-4.214131">
        <ele>56.442</ele>
        <time>2022-08-28T12:03:12Z</time>
      </trkpt>
      <trkpt lat="43.387668" lon="-4.214056">
        <ele>56.447</ele>
        <time>2022-08-28T12:03:13Z</time>
      </trkpt>
      <trkpt lat="43.387668" lon="-4.213981">
        <ele>56.431</ele>
        <time>2022-08-28T12:03:14Z</time>
      </trkpt>
      <trkpt lat="43.387665" lon="-4.213909">
        <ele>56.457</ele>
        <time>2022-08-28T12:03:15Z</time>
      </trkpt>
      <trkpt lat="43.387657" lon="-4.213767">
        <ele>56.420</ele>
        <time>2022-08-28T12:03:17Z</time>
      </trkpt>
      <trkpt lat="43.387652" lon="-4.213699">
        <ele>56.521</ele>
        <time>2022-08-28T12:03:18Z</time>
      </trkpt>
      <trkpt lat="43.387634" lon="-4.213569">
        <ele>56.516</ele>
        <time>2022-08-28T12:03:20Z</time>
      </trkpt>
      <trkpt lat="43.387617" lon="-4.213439">
        <ele>56.576</ele>
        <time>2022-08-28T12:03:22Z</time>
      </trkpt>
      <trkpt lat="43.387609" lon="-4.213372">
        <ele>56.413</ele>
        <time>2022-08-28T12:03:23Z</time>
      </trkpt>
      <trkpt lat="43.387586" lon="-4.213240">
        <ele>56.409</ele>
        <time>2022-08-28T12:03:25Z</time>
      </trkpt>
      <trkpt lat="43.387573" lon="-4.213175">
        <ele>56.412</ele>
        <time>2022-08-28T12:03:26Z</time>
      </trkpt>
      <trkpt lat="43.387558" lon="-4.213107">
        <ele>56.462</ele>
        <time>2022-08-28T12:03:27Z</time>
      </trkpt>
      <trkpt lat="43.387526" lon="-4.212970">
        <ele>56.263</ele>
        <time>2022-08-28T12:03:29Z</time>
      </trkpt>
      <trkpt lat="43.387489" lon="-4.212835">
        <ele>56.031</ele>
        <time>2022-08-28T12:03:31Z</time>
      </trkpt>
      <trkpt lat="43.387451" lon="-4.212697">
        <ele>56.136</ele>
        <time>2022-08-28T12:03:33Z</time>
      </trkpt>
      <trkpt lat="43.387413" lon="-4.212549">
        <ele>56.190</ele>
        <time>2022-08-28T12:03:35Z</time>
      </trkpt>
      <trkpt lat="43.387393" lon="-4.212474">
        <ele>55.966</ele>
        <time>2022-08-28T12:03:36Z</time>
      </trkpt>
      <trkpt lat="43.387371" lon="-4.212397">
        <ele>55.629</ele>
        <time>2022-08-28T12:03:37Z</time>
      </trkpt>
      <trkpt lat="43.387349" lon="-4.212320">
        <ele>55.410</ele>
        <time>2022-08-28T12:03:38Z</time>
      </trkpt>
      <trkpt lat="43.387309" lon="-4.212165">
        <ele>54.967</ele>
        <time>2022-08-28T12:03:40Z</time>
      </trkpt>
      <trkpt lat="43.387269" lon="-4.212008">
        <ele>54.481</ele>
        <time>2022-08-28T12:03:42Z</time>
      </trkpt>
      <trkpt lat="43.387231" lon="-4.211848">
        <ele>54.019</ele>
        <time>2022-08-28T12:03:44Z</time>
      </trkpt>
      <trkpt lat="43.387213" lon="-4.211768">
        <ele>54.109</ele>
        <time>2022-08-28T12:03:45Z</time>
      </trkpt>
      <trkpt lat="43.387175" lon="-4.211608">
        <ele>54.497</ele>
        <time>2022-08-28T12:03:47Z</time>
      </trkpt>
      <trkpt lat="43.387138" lon="-4.211450">
        <ele>54.847</ele>
        <time>2022-08-28T12:03:49Z</time>
      </trkpt>
      <trkpt lat="43.387098" lon="-4.211295">
        <ele>55.048</ele>
        <time>2022-08-28T12:03:51Z</time>
      </trkpt>
      <trkpt lat="43.387078" lon="-4.211220">
        <ele>55.076</ele>
        <time>2022-08-28T12:03:52Z</time>
      </trkpt>
      <trkpt lat="43.387058" lon="-4.211143">
        <ele>54.981</ele>
        <time>2022-08-28T12:03:53Z</time>
      </trkpt>
      <trkpt lat="43.387023" lon="-4.210995">
        <ele>55.095</ele>
        <time>2022-08-28T12:03:55Z</time>
      </trkpt>
      <trkpt lat="43.386988" lon="-4.210847">
        <ele>54.971</ele>
        <time>2022-08-28T12:03:57Z</time>
      </trkpt>
      <trkpt lat="43.386956" lon="-4.210694">
        <ele>55.064</ele>
        <time>2022-08-28T12:03:59Z</time>
      </trkpt>
      <trkpt lat="43.386924" lon="-4.210546">
        <ele>55.215</ele>
        <time>2022-08-28T12:04:01Z</time>
      </trkpt>
      <trkpt lat="43.386899" lon="-4.210391">
        <ele>54.941</ele>
        <time>2022-08-28T12:04:03Z</time>
      </trkpt>
      <trkpt lat="43.386886" lon="-4.210314">
        <ele>54.881</ele>
        <time>2022-08-28T12:04:04Z</time>
      </trkpt>
      <trkpt lat="43.386864" lon="-4.210159">
        <ele>54.409</ele>
        <time>2022-08-28T12:04:06Z</time>
      </trkpt>
      <trkpt lat="43.386844" lon="-4.210001">
        <ele>54.109</ele>
        <time>2022-08-28T12:04:08Z</time>
      </trkpt>
      <trkpt lat="43.386834" lon="-4.209919">
        <ele>53.645</ele>
        <time>2022-08-28T12:04:09Z</time>
      </trkpt>
      <trkpt lat="43.386824" lon="-4.209836">
        <ele>53.135</ele>
        <time>2022-08-28T12:04:10Z</time>
      </trkpt>
      <trkpt lat="43.386812" lon="-4.209751">
        <ele>52.696</ele>
        <time>2022-08-28T12:04:11Z</time>
      </trkpt>
      <trkpt lat="43.386805" lon="-4.209661">
        <ele>52.314</ele>
        <time>2022-08-28T12:04:12Z</time>
      </trkpt>
      <trkpt lat="43.386790" lon="-4.209476">
        <ele>51.819</ele>
        <time>2022-08-28T12:04:14Z</time>
      </trkpt>
      <trkpt lat="43.386778" lon="-4.209283">
        <ele>51.613</ele>
        <time>2022-08-28T12:04:16Z</time>
      </trkpt>
      <trkpt lat="43.386773" lon="-4.209183">
        <ele>51.549</ele>
        <time>2022-08-28T12:04:17Z</time>
      </trkpt>
      <trkpt lat="43.386771" lon="-4.208973">
        <ele>50.632</ele>
        <time>2022-08-28T12:04:19Z</time>
      </trkpt>
      <trkpt lat="43.386769" lon="-4.208750">
        <ele>49.883</ele>
        <time>2022-08-28T12:04:21Z</time>
      </trkpt>
      <trkpt lat="43.386772" lon="-4.208515">
        <ele>48.523</ele>
        <time>2022-08-28T12:04:23Z</time>
      </trkpt>
      <trkpt lat="43.386777" lon="-4.208395">
        <ele>47.583</ele>
        <time>2022-08-28T12:04:24Z</time>
      </trkpt>
      <trkpt lat="43.386784" lon="-4.208155">
        <ele>46.011</ele>
        <time>2022-08-28T12:04:26Z</time>
      </trkpt>
      <trkpt lat="43.386787" lon="-4.208037">
        <ele>45.409</ele>
        <time>2022-08-28T12:04:27Z</time>
      </trkpt>
      <trkpt lat="43.386789" lon="-4.207919">
        <ele>44.973</ele>
        <time>2022-08-28T12:04:28Z</time>
      </trkpt>
      <trkpt lat="43.386796" lon="-4.207684">
        <ele>44.333</ele>
        <time>2022-08-28T12:04:30Z</time>
      </trkpt>
      <trkpt lat="43.386801" lon="-4.207459">
        <ele>43.894</ele>
        <time>2022-08-28T12:04:32Z</time>
      </trkpt>
      <trkpt lat="43.386804" lon="-4.207347">
        <ele>43.492</ele>
        <time>2022-08-28T12:04:33Z</time>
      </trkpt>
      <trkpt lat="43.386807" lon="-4.207239">
        <ele>43.167</ele>
        <time>2022-08-28T12:04:34Z</time>
      </trkpt>
      <trkpt lat="43.386817" lon="-4.207032">
        <ele>42.881</ele>
        <time>2022-08-28T12:04:36Z</time>
      </trkpt>
      <trkpt lat="43.386822" lon="-4.206932">
        <ele>42.727</ele>
        <time>2022-08-28T12:04:37Z</time>
      </trkpt>
      <trkpt lat="43.386827" lon="-4.206834">
        <ele>43.030</ele>
        <time>2022-08-28T12:04:38Z</time>
      </trkpt>
      <trkpt lat="43.386840" lon="-4.206646">
        <ele>43.631</ele>
        <time>2022-08-28T12:04:40Z</time>
      </trkpt>
      <trkpt lat="43.386853" lon="-4.206476">
        <ele>44.613</ele>
        <time>2022-08-28T12:04:42Z</time>
      </trkpt>
      <trkpt lat="43.386860" lon="-4.206396">
        <ele>45.143</ele>
        <time>2022-08-28T12:04:43Z</time>
      </trkpt>
      <trkpt lat="43.386875" lon="-4.206241">
        <ele>45.407</ele>
        <time>2022-08-28T12:04:45Z</time>
      </trkpt>
      <trkpt lat="43.386893" lon="-4.206098">
        <ele>45.609</ele>
        <time>2022-08-28T12:04:47Z</time>
      </trkpt>
      <trkpt lat="43.386913" lon="-4.205970">
        <ele>45.892</ele>
        <time>2022-08-28T12:04:49Z</time>
      </trkpt>
      <trkpt lat="43.386931" lon="-4.205852">
        <ele>45.922</ele>
        <time>2022-08-28T12:04:51Z</time>
      </trkpt>
      <trkpt lat="43.386951" lon="-4.205735">
        <ele>46.153</ele>
        <time>2022-08-28T12:04:53Z</time>
      </trkpt>
      <trkpt lat="43.386963" lon="-4.205675">
        <ele>46.261</ele>
        <time>2022-08-28T12:04:54Z</time>
      </trkpt>
      <trkpt lat="43.386988" lon="-4.205550">
        <ele>46.556</ele>
        <time>2022-08-28T12:04:56Z</time>
      </trkpt>
      <trkpt lat="43.387015" lon="-4.205428">
        <ele>47.680</ele>
        <time>2022-08-28T12:04:58Z</time>
      </trkpt>
      <trkpt lat="43.387045" lon="-4.205328">
        <ele>48.496</ele>
        <time>2022-08-28T12:05:00Z</time>
      </trkpt>
      <trkpt lat="43.387070" lon="-4.205240">
        <ele>49.079</ele>
        <time>2022-08-28T12:05:02Z</time>
      </trkpt>
      <trkpt lat="43.387095" lon="-4.205158">
        <ele>49.380</ele>
        <time>2022-08-28T12:05:04Z</time>
      </trkpt>
      <trkpt lat="43.387122" lon="-4.205081">
        <ele>49.777</ele>
        <time>2022-08-28T12:05:06Z</time>
      </trkpt>
      <trkpt lat="43.387150" lon="-4.205003">
        <ele>50.261</ele>
        <time>2022-08-28T12:05:08Z</time>
      </trkpt>
      <trkpt lat="43.387175" lon="-4.204921">
        <ele>50.327</ele>
        <time>2022-08-28T12:05:10Z</time>
      </trkpt>
      <trkpt lat="43.387208" lon="-4.204834">
        <ele>50.309</ele>
        <time>2022-08-28T12:05:12Z</time>
      </trkpt>
      <trkpt lat="43.387245" lon="-4.204761">
        <ele>50.338</ele>
        <time>2022-08-28T12:05:14Z</time>
      </trkpt>
      <trkpt lat="43.387270" lon="-4.204678">
        <ele>50.248</ele>
        <time>2022-08-28T12:05:16Z</time>
      </trkpt>
      <trkpt lat="43.387302" lon="-4.204591">
        <ele>50.439</ele>
        <time>2022-08-28T12:05:18Z</time>
      </trkpt>
      <trkpt lat="43.387332" lon="-4.204508">
        <ele>50.617</ele>
        <time>2022-08-28T12:05:20Z</time>
      </trkpt>
      <trkpt lat="43.387365" lon="-4.204430">
        <ele>51.092</ele>
        <time>2022-08-28T12:05:22Z</time>
      </trkpt>
      <trkpt lat="43.387397" lon="-4.204343">
        <ele>51.346</ele>
        <time>2022-08-28T12:05:24Z</time>
      </trkpt>
      <trkpt lat="43.387434" lon="-4.204251">
        <ele>51.522</ele>
        <time>2022-08-28T12:05:26Z</time>
      </trkpt>
      <trkpt lat="43.387469" lon="-4.204163">
        <ele>51.725</ele>
        <time>2022-08-28T12:05:28Z</time>
      </trkpt>
      <trkpt lat="43.387504" lon="-4.204073">
        <ele>51.786</ele>
        <time>2022-08-28T12:05:30Z</time>
      </trkpt>
      <trkpt lat="43.387542" lon="-4.203985">
        <ele>51.387</ele>
        <time>2022-08-28T12:05:32Z</time>
      </trkpt>
      <trkpt lat="43.387580" lon="-4.203890">
        <ele>51.042</ele>
        <time>2022-08-28T12:05:34Z</time>
      </trkpt>
      <trkpt lat="43.387620" lon="-4.203788">
        <ele>50.826</ele>
        <time>2022-08-28T12:05:36Z</time>
      </trkpt>
      <trkpt lat="43.387663" lon="-4.203683">
        <ele>50.709</ele>
        <time>2022-08-28T12:05:38Z</time>
      </trkpt>
      <trkpt lat="43.387688" lon="-4.203630">
        <ele>50.749</ele>
        <time>2022-08-28T12:05:39Z</time>
      </trkpt>
      <trkpt lat="43.387738" lon="-4.203513">
        <ele>50.439</ele>
        <time>2022-08-28T12:05:41Z</time>
      </trkpt>
      <trkpt lat="43.387763" lon="-4.203453">
        <ele>50.360</ele>
        <time>2022-08-28T12:05:42Z</time>
      </trkpt>
      <trkpt lat="43.387790" lon="-4.203393">
        <ele>50.138</ele>
        <time>2022-08-28T12:05:43Z</time>
      </trkpt>
      <trkpt lat="43.387817" lon="-4.203330">
        <ele>49.793</ele>
        <time>2022-08-28T12:05:44Z</time>
      </trkpt>
      <trkpt lat="43.387845" lon="-4.203267">
        <ele>49.237</ele>
        <time>2022-08-28T12:05:45Z</time>
      </trkpt>
      <trkpt lat="43.387877" lon="-4.203199">
        <ele>48.833</ele>
        <time>2022-08-28T12:05:46Z</time>
      </trkpt>
      <trkpt lat="43.387939" lon="-4.203052">
        <ele>48.636</ele>
        <time>2022-08-28T12:05:48Z</time>
      </trkpt>
      <trkpt lat="43.388006" lon="-4.202902">
        <ele>48.737</ele>
        <time>2022-08-28T12:05:50Z</time>
      </trkpt>
      <trkpt lat="43.388078" lon="-4.202742">
        <ele>48.825</ele>
        <time>2022-08-28T12:05:52Z</time>
      </trkpt>
      <trkpt lat="43.388116" lon="-4.202657">
        <ele>48.426</ele>
        <time>2022-08-28T12:05:53Z</time>
      </trkpt>
      <trkpt lat="43.388191" lon="-4.202484">
        <ele>47.908</ele>
        <time>2022-08-28T12:05:55Z</time>
      </trkpt>
      <trkpt lat="43.388269" lon="-4.202312">
        <ele>47.209</ele>
        <time>2022-08-28T12:05:57Z</time>
      </trkpt>
      <trkpt lat="43.388307" lon="-4.202225">
        <ele>46.953</ele>
        <time>2022-08-28T12:05:58Z</time>
      </trkpt>
      <trkpt lat="43.388344" lon="-4.202140">
        <ele>46.663</ele>
        <time>2022-08-28T12:05:59Z</time>
      </trkpt>
      <trkpt lat="43.388416" lon="-4.201977">
        <ele>46.044</ele>
        <time>2022-08-28T12:06:01Z</time>
      </trkpt>
      <trkpt lat="43.388484" lon="-4.201819">
        <ele>46.292</ele>
        <time>2022-08-28T12:06:03Z</time>
      </trkpt>
      <trkpt lat="43.388552" lon="-4.201667">
        <ele>46.897</ele>
        <time>2022-08-28T12:06:05Z</time>
      </trkpt>
      <trkpt lat="43.388614" lon="-4.201522">
        <ele>47.031</ele>
        <time>2022-08-28T12:06:07Z</time>
      </trkpt>
      <trkpt lat="43.388667" lon="-4.201387">
        <ele>46.837</ele>
        <time>2022-08-28T12:06:09Z</time>
      </trkpt>
      <trkpt lat="43.388719" lon="-4.201264">
        <ele>47.030</ele>
        <time>2022-08-28T12:06:11Z</time>
      </trkpt>
      <trkpt lat="43.388746" lon="-4.201204">
        <ele>47.231</ele>
        <time>2022-08-28T12:06:12Z</time>
      </trkpt>
      <trkpt lat="43.388771" lon="-4.201149">
        <ele>47.412</ele>
        <time>2022-08-28T12:06:13Z</time>
      </trkpt>
      <trkpt lat="43.388819" lon="-4.201042">
        <ele>48.232</ele>
        <time>2022-08-28T12:06:15Z</time>
      </trkpt>
      <trkpt lat="43.388861" lon="-4.200945">
        <ele>49.105</ele>
        <time>2022-08-28T12:06:17Z</time>
      </trkpt>
      <trkpt lat="43.388898" lon="-4.200863">
        <ele>49.609</ele>
        <time>2022-08-28T12:06:19Z</time>
      </trkpt>
      <trkpt lat="43.388933" lon="-4.200786">
        <ele>49.682</ele>
        <time>2022-08-28T12:06:21Z</time>
      </trkpt>
      <trkpt lat="43.388963" lon="-4.200714">
        <ele>49.822</ele>
        <time>2022-08-28T12:06:23Z</time>
      </trkpt>
      <trkpt lat="43.388993" lon="-4.200646">
        <ele>50.083</ele>
        <time>2022-08-28T12:06:25Z</time>
      </trkpt>
      <trkpt lat="43.389023" lon="-4.200579">
        <ele>50.381</ele>
        <time>2022-08-28T12:06:27Z</time>
      </trkpt>
      <trkpt lat="43.389055" lon="-4.200504">
        <ele>50.816</ele>
        <time>2022-08-28T12:06:29Z</time>
      </trkpt>
      <trkpt lat="43.389090" lon="-4.200431">
        <ele>51.340</ele>
        <time>2022-08-28T12:06:31Z</time>
      </trkpt>
      <trkpt lat="43.389123" lon="-4.200356">
        <ele>51.796</ele>
        <time>2022-08-28T12:06:33Z</time>
      </trkpt>
      <trkpt lat="43.389160" lon="-4.200281">
        <ele>52.149</ele>
        <time>2022-08-28T12:06:35Z</time>
      </trkpt>
      <trkpt lat="43.389192" lon="-4.200211">
        <ele>52.550</ele>
        <time>2022-08-28T12:06:37Z</time>
      </trkpt>
      <trkpt lat="43.389219" lon="-4.200134">
        <ele>53.186</ele>
        <time>2022-08-28T12:06:39Z</time>
      </trkpt>
      <trkpt lat="43.389247" lon="-4.200061">
        <ele>53.560</ele>
        <time>2022-08-28T12:06:41Z</time>
      </trkpt>
      <trkpt lat="43.389274" lon="-4.199983">
        <ele>54.026</ele>
        <time>2022-08-28T12:06:43Z</time>
      </trkpt>
      <trkpt lat="43.389304" lon="-4.199910">
        <ele>54.209</ele>
        <time>2022-08-28T12:06:45Z</time>
      </trkpt>
      <trkpt lat="43.389332" lon="-4.199832">
        <ele>54.469</ele>
        <time>2022-08-28T12:06:47Z</time>
      </trkpt>
      <trkpt lat="43.389362" lon="-4.199764">
        <ele>54.679</ele>
        <time>2022-08-28T12:06:49Z</time>
      </trkpt>
      <trkpt lat="43.389392" lon="-4.199687">
        <ele>54.730</ele>
        <time>2022-08-28T12:06:51Z</time>
      </trkpt>
      <trkpt lat="43.389417" lon="-4.199605">
        <ele>54.728</ele>
        <time>2022-08-28T12:06:53Z</time>
      </trkpt>
      <trkpt lat="43.389440" lon="-4.199525">
        <ele>54.743</ele>
        <time>2022-08-28T12:06:55Z</time>
      </trkpt>
      <trkpt lat="43.389465" lon="-4.199445">
        <ele>55.077</ele>
        <time>2022-08-28T12:06:57Z</time>
      </trkpt>
      <trkpt lat="43.389490" lon="-4.199362">
        <ele>55.073</ele>
        <time>2022-08-28T12:06:59Z</time>
      </trkpt>
      <trkpt lat="43.389517" lon="-4.199275">
        <ele>55.016</ele>
        <time>2022-08-28T12:07:01Z</time>
      </trkpt>
      <trkpt lat="43.389544" lon="-4.199183">
        <ele>55.027</ele>
        <time>2022-08-28T12:07:03Z</time>
      </trkpt>
      <trkpt lat="43.389569" lon="-4.199088">
        <ele>54.889</ele>
        <time>2022-08-28T12:07:05Z</time>
      </trkpt>
      <trkpt lat="43.389592" lon="-4.198988">
        <ele>54.706</ele>
        <time>2022-08-28T12:07:07Z</time>
      </trkpt>
      <trkpt lat="43.389617" lon="-4.198881">
        <ele>54.526</ele>
        <time>2022-08-28T12:07:09Z</time>
      </trkpt>
      <trkpt lat="43.389645" lon="-4.198766">
        <ele>53.609</ele>
        <time>2022-08-28T12:07:11Z</time>
      </trkpt>
      <trkpt lat="43.389672" lon="-4.198648">
        <ele>52.879</ele>
        <time>2022-08-28T12:07:13Z</time>
      </trkpt>
      <trkpt lat="43.389687" lon="-4.198588">
        <ele>52.449</ele>
        <time>2022-08-28T12:07:14Z</time>
      </trkpt>
      <trkpt lat="43.389700" lon="-4.198525">
        <ele>52.180</ele>
        <time>2022-08-28T12:07:15Z</time>
      </trkpt>
      <trkpt lat="43.389715" lon="-4.198460">
        <ele>51.848</ele>
        <time>2022-08-28T12:07:16Z</time>
      </trkpt>
      <trkpt lat="43.389733" lon="-4.198392">
        <ele>51.613</ele>
        <time>2022-08-28T12:07:17Z</time>
      </trkpt>
      <trkpt lat="43.389750" lon="-4.198324">
        <ele>51.437</ele>
        <time>2022-08-28T12:07:18Z</time>
      </trkpt>
      <trkpt lat="43.389785" lon="-4.198174">
        <ele>51.113</ele>
        <time>2022-08-28T12:07:20Z</time>
      </trkpt>
      <trkpt lat="43.389825" lon="-4.198012">
        <ele>50.916</ele>
        <time>2022-08-28T12:07:22Z</time>
      </trkpt>
      <trkpt lat="43.389847" lon="-4.197930">
        <ele>50.687</ele>
        <time>2022-08-28T12:07:23Z</time>
      </trkpt>
      <trkpt lat="43.389872" lon="-4.197843">
        <ele>50.221</ele>
        <time>2022-08-28T12:07:24Z</time>
      </trkpt>
      <trkpt lat="43.389900" lon="-4.197756">
        <ele>49.841</ele>
        <time>2022-08-28T12:07:25Z</time>
      </trkpt>
      <trkpt lat="43.389962" lon="-4.197574">
        <ele>49.205</ele>
        <time>2022-08-28T12:07:27Z</time>
      </trkpt>
      <trkpt lat="43.390034" lon="-4.197392">
        <ele>49.209</ele>
        <time>2022-08-28T12:07:29Z</time>
      </trkpt>
      <trkpt lat="43.390076" lon="-4.197302">
        <ele>49.073</ele>
        <time>2022-08-28T12:07:30Z</time>
      </trkpt>
      <trkpt lat="43.390119" lon="-4.197210">
        <ele>48.493</ele>
        <time>2022-08-28T12:07:31Z</time>
      </trkpt>
      <trkpt lat="43.390216" lon="-4.197025">
        <ele>46.184</ele>
        <time>2022-08-28T12:07:33Z</time>
      </trkpt>
      <trkpt lat="43.390269" lon="-4.196933">
        <ele>44.972</ele>
        <time>2022-08-28T12:07:34Z</time>
      </trkpt>
      <trkpt lat="43.390386" lon="-4.196753">
        <ele>43.637</ele>
        <time>2022-08-28T12:07:36Z</time>
      </trkpt>
      <trkpt lat="43.390519" lon="-4.196575">
        <ele>41.921</ele>
        <time>2022-08-28T12:07:38Z</time>
      </trkpt>
      <trkpt lat="43.390591" lon="-4.196487">
        <ele>40.927</ele>
        <time>2022-08-28T12:07:39Z</time>
      </trkpt>
      <trkpt lat="43.390744" lon="-4.196310">
        <ele>39.480</ele>
        <time>2022-08-28T12:07:41Z</time>
      </trkpt>
      <trkpt lat="43.390902" lon="-4.196125">
        <ele>38.561</ele>
        <time>2022-08-28T12:07:43Z</time>
      </trkpt>
      <trkpt lat="43.390980" lon="-4.196032">
        <ele>37.745</ele>
        <time>2022-08-28T12:07:44Z</time>
      </trkpt>
      <trkpt lat="43.391133" lon="-4.195840">
        <ele>37.747</ele>
        <time>2022-08-28T12:07:46Z</time>
      </trkpt>
      <trkpt lat="43.391281" lon="-4.195647">
        <ele>37.011</ele>
        <time>2022-08-28T12:07:48Z</time>
      </trkpt>
      <trkpt lat="43.391421" lon="-4.195454">
        <ele>37.009</ele>
        <time>2022-08-28T12:07:50Z</time>
      </trkpt>
      <trkpt lat="43.391486" lon="-4.195359">
        <ele>36.525</ele>
        <time>2022-08-28T12:07:51Z</time>
      </trkpt>
      <trkpt lat="43.391614" lon="-4.195161">
        <ele>36.065</ele>
        <time>2022-08-28T12:07:53Z</time>
      </trkpt>
      <trkpt lat="43.391737" lon="-4.194966">
        <ele>35.516</ele>
        <time>2022-08-28T12:07:55Z</time>
      </trkpt>
      <trkpt lat="43.391855" lon="-4.194776">
        <ele>35.024</ele>
        <time>2022-08-28T12:07:57Z</time>
      </trkpt>
      <trkpt lat="43.391915" lon="-4.194683">
        <ele>34.869</ele>
        <time>2022-08-28T12:07:58Z</time>
      </trkpt>
      <trkpt lat="43.391973" lon="-4.194590">
        <ele>34.273</ele>
        <time>2022-08-28T12:07:59Z</time>
      </trkpt>
      <trkpt lat="43.392090" lon="-4.194403">
        <ele>33.889</ele>
        <time>2022-08-28T12:08:01Z</time>
      </trkpt>
      <trkpt lat="43.392150" lon="-4.194310">
        <ele>33.622</ele>
        <time>2022-08-28T12:08:02Z</time>
      </trkpt>
      <trkpt lat="43.392270" lon="-4.194127">
        <ele>33.323</ele>
        <time>2022-08-28T12:08:04Z</time>
      </trkpt>
      <trkpt lat="43.392330" lon="-4.194037">
        <ele>32.865</ele>
        <time>2022-08-28T12:08:05Z</time>
      </trkpt>
      <trkpt lat="43.392452" lon="-4.193870">
        <ele>32.068</ele>
        <time>2022-08-28T12:08:07Z</time>
      </trkpt>
      <trkpt lat="43.392582" lon="-4.193715">
        <ele>30.714</ele>
        <time>2022-08-28T12:08:09Z</time>
      </trkpt>
      <trkpt lat="43.392719" lon="-4.193578">
        <ele>30.209</ele>
        <time>2022-08-28T12:08:11Z</time>
      </trkpt>
      <trkpt lat="43.392861" lon="-4.193466">
        <ele>29.537</ele>
        <time>2022-08-28T12:08:13Z</time>
      </trkpt>
      <trkpt lat="43.393009" lon="-4.193371">
        <ele>29.047</ele>
        <time>2022-08-28T12:08:15Z</time>
      </trkpt>
      <trkpt lat="43.393087" lon="-4.193331">
        <ele>28.888</ele>
        <time>2022-08-28T12:08:16Z</time>
      </trkpt>
      <trkpt lat="43.393245" lon="-4.193269">
        <ele>28.216</ele>
        <time>2022-08-28T12:08:18Z</time>
      </trkpt>
      <trkpt lat="43.393328" lon="-4.193246">
        <ele>27.761</ele>
        <time>2022-08-28T12:08:19Z</time>
      </trkpt>
      <trkpt lat="43.393500" lon="-4.193221">
        <ele>26.625</ele>
        <time>2022-08-28T12:08:21Z</time>
      </trkpt>
      <trkpt lat="43.393587" lon="-4.193211">
        <ele>26.141</ele>
        <time>2022-08-28T12:08:22Z</time>
      </trkpt>
      <trkpt lat="43.393675" lon="-4.193206">
        <ele>25.614</ele>
        <time>2022-08-28T12:08:23Z</time>
      </trkpt>
      <trkpt lat="43.393762" lon="-4.193199">
        <ele>25.225</ele>
        <time>2022-08-28T12:08:24Z</time>
      </trkpt>
      <trkpt lat="43.393849" lon="-4.193192">
        <ele>24.724</ele>
        <time>2022-08-28T12:08:25Z</time>
      </trkpt>
      <trkpt lat="43.393931" lon="-4.193184">
        <ele>24.504</ele>
        <time>2022-08-28T12:08:26Z</time>
      </trkpt>
      <trkpt lat="43.394094" lon="-4.193166">
        <ele>24.614</ele>
        <time>2022-08-28T12:08:28Z</time>
      </trkpt>
      <trkpt lat="43.394172" lon="-4.193156">
        <ele>24.609</ele>
        <time>2022-08-28T12:08:29Z</time>
      </trkpt>
      <trkpt lat="43.394320" lon="-4.193128">
        <ele>24.723</ele>
        <time>2022-08-28T12:08:31Z</time>
      </trkpt>
      <trkpt lat="43.394458" lon="-4.193096">
        <ele>24.863</ele>
        <time>2022-08-28T12:08:33Z</time>
      </trkpt>
      <trkpt lat="43.394523" lon="-4.193079">
        <ele>24.964</ele>
        <time>2022-08-28T12:08:34Z</time>
      </trkpt>
      <trkpt lat="43.394585" lon="-4.193059">
        <ele>25.012</ele>
        <time>2022-08-28T12:08:35Z</time>
      </trkpt>
      <trkpt lat="43.394643" lon="-4.193031">
        <ele>25.017</ele>
        <time>2022-08-28T12:08:36Z</time>
      </trkpt>
      <trkpt lat="43.394750" lon="-4.192979">
        <ele>24.611</ele>
        <time>2022-08-28T12:08:38Z</time>
      </trkpt>
      <trkpt lat="43.394845" lon="-4.192914">
        <ele>24.337</ele>
        <time>2022-08-28T12:08:40Z</time>
      </trkpt>
      <trkpt lat="43.394887" lon="-4.192882">
        <ele>24.450</ele>
        <time>2022-08-28T12:08:41Z</time>
      </trkpt>
      <trkpt lat="43.394967" lon="-4.192817">
        <ele>25.371</ele>
        <time>2022-08-28T12:08:43Z</time>
      </trkpt>
      <trkpt lat="43.395040" lon="-4.192750">
        <ele>25.891</ele>
        <time>2022-08-28T12:08:45Z</time>
      </trkpt>
      <trkpt lat="43.395100" lon="-4.192685">
        <ele>25.681</ele>
        <time>2022-08-28T12:08:47Z</time>
      </trkpt>
      <trkpt lat="43.395152" lon="-4.192623">
        <ele>25.919</ele>
        <time>2022-08-28T12:08:49Z</time>
      </trkpt>
      <trkpt lat="43.395194" lon="-4.192556">
        <ele>26.409</ele>
        <time>2022-08-28T12:08:51Z</time>
      </trkpt>
      <trkpt lat="43.395239" lon="-4.192484">
        <ele>27.290</ele>
        <time>2022-08-28T12:08:53Z</time>
      </trkpt>
      <trkpt lat="43.395286" lon="-4.192414">
        <ele>27.880</ele>
        <time>2022-08-28T12:08:55Z</time>
      </trkpt>
      <trkpt lat="43.395331" lon="-4.192342">
        <ele>27.971</ele>
        <time>2022-08-28T12:08:57Z</time>
      </trkpt>
      <trkpt lat="43.395373" lon="-4.192254">
        <ele>28.159</ele>
        <time>2022-08-28T12:08:59Z</time>
      </trkpt>
      <trkpt lat="43.395406" lon="-4.192189">
        <ele>28.374</ele>
        <time>2022-08-28T12:09:01Z</time>
      </trkpt>
      <trkpt lat="43.395429" lon="-4.192131">
        <ele>28.598</ele>
        <time>2022-08-28T12:09:03Z</time>
      </trkpt>
      <trkpt lat="43.395457" lon="-4.192078">
        <ele>28.974</ele>
        <time>2022-08-28T12:09:05Z</time>
      </trkpt>
      <trkpt lat="43.395480" lon="-4.192025">
        <ele>29.357</ele>
        <time>2022-08-28T12:09:07Z</time>
      </trkpt>
      <trkpt lat="43.395503" lon="-4.191963">
        <ele>29.898</ele>
        <time>2022-08-28T12:09:09Z</time>
      </trkpt>
      <trkpt lat="43.395523" lon="-4.191898">
        <ele>30.363</ele>
        <time>2022-08-28T12:09:11Z</time>
      </trkpt>
      <trkpt lat="43.395541" lon="-4.191811">
        <ele>30.744</ele>
        <time>2022-08-28T12:09:14Z</time>
      </trkpt>
      <trkpt lat="43.395566" lon="-4.191724">
        <ele>31.218</ele>
        <time>2022-08-28T12:09:17Z</time>
      </trkpt>
      <trkpt lat="43.395584" lon="-4.191636">
        <ele>31.509</ele>
        <time>2022-08-28T12:09:20Z</time>
      </trkpt>
      <trkpt lat="43.395596" lon="-4.191576">
        <ele>31.767</ele>
        <time>2022-08-28T12:09:22Z</time>
      </trkpt>
      <trkpt lat="43.395609" lon="-4.191516">
        <ele>32.097</ele>
        <time>2022-08-28T12:09:24Z</time>
      </trkpt>
      <trkpt lat="43.395624" lon="-4.191453">
        <ele>32.288</ele>
        <time>2022-08-28T12:09:26Z</time>
      </trkpt>
      <trkpt lat="43.395637" lon="-4.191370">
        <ele>32.566</ele>
        <time>2022-08-28T12:09:29Z</time>
      </trkpt>
      <trkpt lat="43.395644" lon="-4.191275">
        <ele>32.671</ele>
        <time>2022-08-28T12:09:32Z</time>
      </trkpt>
      <trkpt lat="43.395654" lon="-4.191213">
        <ele>32.835</ele>
        <time>2022-08-28T12:09:34Z</time>
      </trkpt>
      <trkpt lat="43.395671" lon="-4.191121">
        <ele>33.191</ele>
        <time>2022-08-28T12:09:37Z</time>
      </trkpt>
      <trkpt lat="43.395691" lon="-4.191038">
        <ele>33.864</ele>
        <time>2022-08-28T12:09:40Z</time>
      </trkpt>
      <trkpt lat="43.395701" lon="-4.190948">
        <ele>34.535</ele>
        <time>2022-08-28T12:09:43Z</time>
      </trkpt>
      <trkpt lat="43.395709" lon="-4.190881">
        <ele>35.076</ele>
        <time>2022-08-28T12:09:45Z</time>
      </trkpt>
      <trkpt lat="43.395721" lon="-4.190814">
        <ele>35.590</ele>
        <time>2022-08-28T12:09:47Z</time>
      </trkpt>
      <trkpt lat="43.395729" lon="-4.190747">
        <ele>35.819</ele>
        <time>2022-08-28T12:09:49Z</time>
      </trkpt>
      <trkpt lat="43.395737" lon="-4.190675">
        <ele>36.209</ele>
        <time>2022-08-28T12:09:51Z</time>
      </trkpt>
      <trkpt lat="43.395747" lon="-4.190607">
        <ele>36.628</ele>
        <time>2022-08-28T12:09:53Z</time>
      </trkpt>
      <trkpt lat="43.395757" lon="-4.190544">
        <ele>36.918</ele>
        <time>2022-08-28T12:09:55Z</time>
      </trkpt>
      <trkpt lat="43.395769" lon="-4.190482">
        <ele>37.279</ele>
        <time>2022-08-28T12:09:57Z</time>
      </trkpt>
      <trkpt lat="43.395779" lon="-4.190414">
        <ele>37.497</ele>
        <time>2022-08-28T12:09:59Z</time>
      </trkpt>
      <trkpt lat="43.395791" lon="-4.190349">
        <ele>37.632</ele>
        <time>2022-08-28T12:10:01Z</time>
      </trkpt>
      <trkpt lat="43.395803" lon="-4.190284">
        <ele>37.866</ele>
        <time>2022-08-28T12:10:03Z</time>
      </trkpt>
      <trkpt lat="43.395813" lon="-4.190217">
        <ele>38.182</ele>
        <time>2022-08-28T12:10:05Z</time>
      </trkpt>
      <trkpt lat="43.395826" lon="-4.190157">
        <ele>38.425</ele>
        <time>2022-08-28T12:10:07Z</time>
      </trkpt>
      <trkpt lat="43.395836" lon="-4.190094">
        <ele>38.736</ele>
        <time>2022-08-28T12:10:09Z</time>
      </trkpt>
      <trkpt lat="43.395848" lon="-4.190031">
        <ele>38.988</ele>
        <time>2022-08-28T12:10:11Z</time>
      </trkpt>
      <trkpt lat="43.395860" lon="-4.189968">
        <ele>39.324</ele>
        <time>2022-08-28T12:10:13Z</time>
      </trkpt>
      <trkpt lat="43.395872" lon="-4.189903">
        <ele>39.826</ele>
        <time>2022-08-28T12:10:15Z</time>
      </trkpt>
      <trkpt lat="43.395882" lon="-4.189835">
        <ele>40.409</ele>
        <time>2022-08-28T12:10:17Z</time>
      </trkpt>
      <trkpt lat="43.395892" lon="-4.189767">
        <ele>40.999</ele>
        <time>2022-08-28T12:10:19Z</time>
      </trkpt>
      <trkpt lat="43.395909" lon="-4.189700">
        <ele>41.499</ele>
        <time>2022-08-28T12:10:21Z</time>
      </trkpt>
      <trkpt lat="43.395922" lon="-4.189633">
        <ele>41.660</ele>
        <time>2022-08-28T12:10:23Z</time>
      </trkpt>
      <trkpt lat="43.395939" lon="-4.189568">
        <ele>41.928</ele>
        <time>2022-08-28T12:10:25Z</time>
      </trkpt>
      <trkpt lat="43.395951" lon="-4.189506">
        <ele>42.263</ele>
        <time>2022-08-28T12:10:27Z</time>
      </trkpt>
      <trkpt lat="43.395963" lon="-4.189444">
        <ele>42.517</ele>
        <time>2022-08-28T12:10:29Z</time>
      </trkpt>
      <trkpt lat="43.395976" lon="-4.189382">
        <ele>42.833</ele>
        <time>2022-08-28T12:10:31Z</time>
      </trkpt>
      <trkpt lat="43.395991" lon="-4.189319">
        <ele>43.226</ele>
        <time>2022-08-28T12:10:33Z</time>
      </trkpt>
      <trkpt lat="43.396006" lon="-4.189256">
        <ele>43.657</ele>
        <time>2022-08-28T12:10:35Z</time>
      </trkpt>
      <trkpt lat="43.396019" lon="-4.189193">
        <ele>43.913</ele>
        <time>2022-08-28T12:10:37Z</time>
      </trkpt>
      <trkpt lat="43.396029" lon="-4.189126">
        <ele>44.143</ele>
        <time>2022-08-28T12:10:39Z</time>
      </trkpt>
      <trkpt lat="43.396042" lon="-4.189059">
        <ele>44.407</ele>
        <time>2022-08-28T12:10:41Z</time>
      </trkpt>
      <trkpt lat="43.396062" lon="-4.188992">
        <ele>44.609</ele>
        <time>2022-08-28T12:10:43Z</time>
      </trkpt>
      <trkpt lat="43.396080" lon="-4.188927">
        <ele>44.942</ele>
        <time>2022-08-28T12:10:45Z</time>
      </trkpt>
      <trkpt lat="43.396095" lon="-4.188860">
        <ele>45.172</ele>
        <time>2022-08-28T12:10:47Z</time>
      </trkpt>
      <trkpt lat="43.396115" lon="-4.188790">
        <ele>45.413</ele>
        <time>2022-08-28T12:10:49Z</time>
      </trkpt>
      <trkpt lat="43.396133" lon="-4.188722">
        <ele>45.661</ele>
        <time>2022-08-28T12:10:51Z</time>
      </trkpt>
      <trkpt lat="43.396150" lon="-4.188652">
        <ele>45.916</ele>
        <time>2022-08-28T12:10:53Z</time>
      </trkpt>
      <trkpt lat="43.396170" lon="-4.188580">
        <ele>46.110</ele>
        <time>2022-08-28T12:10:55Z</time>
      </trkpt>
      <trkpt lat="43.396190" lon="-4.188507">
        <ele>46.426</ele>
        <time>2022-08-28T12:10:57Z</time>
      </trkpt>
      <trkpt lat="43.396208" lon="-4.188437">
        <ele>46.639</ele>
        <time>2022-08-28T12:10:59Z</time>
      </trkpt>
      <trkpt lat="43.396226" lon="-4.188365">
        <ele>46.970</ele>
        <time>2022-08-28T12:11:01Z</time>
      </trkpt>
      <trkpt lat="43.396244" lon="-4.188295">
        <ele>47.144</ele>
        <time>2022-08-28T12:11:03Z</time>
      </trkpt>
      <trkpt lat="43.396261" lon="-4.188230">
        <ele>47.205</ele>
        <time>2022-08-28T12:11:05Z</time>
      </trkpt>
      <trkpt lat="43.396283" lon="-4.188163">
        <ele>47.415</ele>
        <time>2022-08-28T12:11:07Z</time>
      </trkpt>
      <trkpt lat="43.396301" lon="-4.188095">
        <ele>47.609</ele>
        <time>2022-08-28T12:11:09Z</time>
      </trkpt>
      <trkpt lat="43.396314" lon="-4.188028">
        <ele>47.845</ele>
        <time>2022-08-28T12:11:11Z</time>
      </trkpt>
      <trkpt lat="43.396331" lon="-4.187961">
        <ele>48.115</ele>
        <time>2022-08-28T12:11:13Z</time>
      </trkpt>
      <trkpt lat="43.396346" lon="-4.187894">
        <ele>48.316</ele>
        <time>2022-08-28T12:11:15Z</time>
      </trkpt>
      <trkpt lat="43.396363" lon="-4.187827">
        <ele>48.724</ele>
        <time>2022-08-28T12:11:17Z</time>
      </trkpt>
      <trkpt lat="43.396378" lon="-4.187755">
        <ele>48.969</ele>
        <time>2022-08-28T12:11:19Z</time>
      </trkpt>
      <trkpt lat="43.396391" lon="-4.187683">
        <ele>49.083</ele>
        <time>2022-08-28T12:11:21Z</time>
      </trkpt>
      <trkpt lat="43.396406" lon="-4.187606">
        <ele>49.219</ele>
        <time>2022-08-28T12:11:23Z</time>
      </trkpt>
      <trkpt lat="43.396418" lon="-4.187529">
        <ele>49.332</ele>
        <time>2022-08-28T12:11:25Z</time>
      </trkpt>
      <trkpt lat="43.396428" lon="-4.187451">
        <ele>49.423</ele>
        <time>2022-08-28T12:11:27Z</time>
      </trkpt>
      <trkpt lat="43.396438" lon="-4.187376">
        <ele>49.566</ele>
        <time>2022-08-28T12:11:29Z</time>
      </trkpt>
      <trkpt lat="43.396448" lon="-4.187303">
        <ele>49.629</ele>
        <time>2022-08-28T12:11:31Z</time>
      </trkpt>
      <trkpt lat="43.396455" lon="-4.187228">
        <ele>49.721</ele>
        <time>2022-08-28T12:11:33Z</time>
      </trkpt>
      <trkpt lat="43.396462" lon="-4.187153">
        <ele>49.909</ele>
        <time>2022-08-28T12:11:35Z</time>
      </trkpt>
      <trkpt lat="43.396467" lon="-4.187078">
        <ele>50.097</ele>
        <time>2022-08-28T12:11:37Z</time>
      </trkpt>
      <trkpt lat="43.396474" lon="-4.187001">
        <ele>50.247</ele>
        <time>2022-08-28T12:11:39Z</time>
      </trkpt>
      <trkpt lat="43.396479" lon="-4.186926">
        <ele>50.318</ele>
        <time>2022-08-28T12:11:41Z</time>
      </trkpt>
      <trkpt lat="43.396482" lon="-4.186849">
        <ele>50.166</ele>
        <time>2022-08-28T12:11:43Z</time>
      </trkpt>
      <trkpt lat="43.396485" lon="-4.186776">
        <ele>50.031</ele>
        <time>2022-08-28T12:11:45Z</time>
      </trkpt>
      <trkpt lat="43.396488" lon="-4.186698">
        <ele>49.855</ele>
        <time>2022-08-28T12:11:47Z</time>
      </trkpt>
      <trkpt lat="43.396491" lon="-4.186621">
        <ele>50.061</ele>
        <time>2022-08-28T12:11:49Z</time>
      </trkpt>
      <trkpt lat="43.396491" lon="-4.186544">
        <ele>50.364</ele>
        <time>2022-08-28T12:11:51Z</time>
      </trkpt>
      <trkpt lat="43.396496" lon="-4.186467">
        <ele>50.885</ele>
        <time>2022-08-28T12:11:53Z</time>
      </trkpt>
      <trkpt lat="43.396499" lon="-4.186390">
        <ele>51.263</ele>
        <time>2022-08-28T12:11:55Z</time>
      </trkpt>
      <trkpt lat="43.396502" lon="-4.186315">
        <ele>51.644</ele>
        <time>2022-08-28T12:11:57Z</time>
      </trkpt>
      <trkpt lat="43.396504" lon="-4.186243">
        <ele>52.018</ele>
        <time>2022-08-28T12:11:59Z</time>
      </trkpt>
      <trkpt lat="43.396507" lon="-4.186176">
        <ele>52.409</ele>
        <time>2022-08-28T12:12:01Z</time>
      </trkpt>
      <trkpt lat="43.396509" lon="-4.186111">
        <ele>52.767</ele>
        <time>2022-08-28T12:12:03Z</time>
      </trkpt>
      <trkpt lat="43.396514" lon="-4.186028">
        <ele>53.157</ele>
        <time>2022-08-28T12:12:05Z</time>
      </trkpt>
      <trkpt lat="43.396524" lon="-4.185948">
        <ele>53.578</ele>
        <time>2022-08-28T12:12:07Z</time>
      </trkpt>
      <trkpt lat="43.396532" lon="-4.185873">
        <ele>53.976</ele>
        <time>2022-08-28T12:12:09Z</time>
      </trkpt>
      <trkpt lat="43.396539" lon="-4.185791">
        <ele>54.211</ele>
        <time>2022-08-28T12:12:11Z</time>
      </trkpt>
      <trkpt lat="43.396547" lon="-4.185708">
        <ele>54.355</ele>
        <time>2022-08-28T12:12:13Z</time>
      </trkpt>
      <trkpt lat="43.396559" lon="-4.185626">
        <ele>54.641</ele>
        <time>2022-08-28T12:12:15Z</time>
      </trkpt>
      <trkpt lat="43.396576" lon="-4.185539">
        <ele>55.044</ele>
        <time>2022-08-28T12:12:17Z</time>
      </trkpt>
      <trkpt lat="43.396594" lon="-4.185461">
        <ele>55.375</ele>
        <time>2022-08-28T12:12:19Z</time>
      </trkpt>
      <trkpt lat="43.396607" lon="-4.185383">
        <ele>55.641</ele>
        <time>2022-08-28T12:12:21Z</time>
      </trkpt>
      <trkpt lat="43.396624" lon="-4.185303">
        <ele>55.981</ele>
        <time>2022-08-28T12:12:23Z</time>
      </trkpt>
      <trkpt lat="43.396642" lon="-4.185221">
        <ele>56.209</ele>
        <time>2022-08-28T12:12:25Z</time>
      </trkpt>
      <trkpt lat="43.396667" lon="-4.185143">
        <ele>56.509</ele>
        <time>2022-08-28T12:12:27Z</time>
      </trkpt>
      <trkpt lat="43.396689" lon="-4.185070">
        <ele>56.575</ele>
        <time>2022-08-28T12:12:29Z</time>
      </trkpt>
      <trkpt lat="43.396712" lon="-4.184998">
        <ele>56.545</ele>
        <time>2022-08-28T12:12:31Z</time>
      </trkpt>
      <trkpt lat="43.396739" lon="-4.184930">
        <ele>56.896</ele>
        <time>2022-08-28T12:12:33Z</time>
      </trkpt>
      <trkpt lat="43.396764" lon="-4.184855">
        <ele>57.134</ele>
        <time>2022-08-28T12:12:35Z</time>
      </trkpt>
      <trkpt lat="43.396791" lon="-4.184783">
        <ele>57.389</ele>
        <time>2022-08-28T12:12:37Z</time>
      </trkpt>
      <trkpt lat="43.396818" lon="-4.184715">
        <ele>57.673</ele>
        <time>2022-08-28T12:12:39Z</time>
      </trkpt>
      <trkpt lat="43.396843" lon="-4.184648">
        <ele>57.849</ele>
        <time>2022-08-28T12:12:41Z</time>
      </trkpt>
      <trkpt lat="43.396873" lon="-4.184580">
        <ele>58.182</ele>
        <time>2022-08-28T12:12:43Z</time>
      </trkpt>
      <trkpt lat="43.396900" lon="-4.184515">
        <ele>58.493</ele>
        <time>2022-08-28T12:12:45Z</time>
      </trkpt>
      <trkpt lat="43.396927" lon="-4.184455">
        <ele>58.888</ele>
        <time>2022-08-28T12:12:47Z</time>
      </trkpt>
      <trkpt lat="43.396952" lon="-4.184393">
        <ele>58.924</ele>
        <time>2022-08-28T12:12:49Z</time>
      </trkpt>
      <trkpt lat="43.396979" lon="-4.184331">
        <ele>59.026</ele>
        <time>2022-08-28T12:12:51Z</time>
      </trkpt>
      <trkpt lat="43.397004" lon="-4.184271">
        <ele>59.009</ele>
        <time>2022-08-28T12:12:53Z</time>
      </trkpt>
      <trkpt lat="43.397034" lon="-4.184209">
        <ele>59.179</ele>
        <time>2022-08-28T12:12:55Z</time>
      </trkpt>
      <trkpt lat="43.397061" lon="-4.184146">
        <ele>59.259</ele>
        <time>2022-08-28T12:12:57Z</time>
      </trkpt>
      <trkpt lat="43.397091" lon="-4.184086">
        <ele>59.480</ele>
        <time>2022-08-28T12:12:59Z</time>
      </trkpt>
      <trkpt lat="43.397119" lon="-4.184026">
        <ele>59.748</ele>
        <time>2022-08-28T12:13:01Z</time>
      </trkpt>
      <trkpt lat="43.397144" lon="-4.183961">
        <ele>59.963</ele>
        <time>2022-08-28T12:13:03Z</time>
      </trkpt>
      <trkpt lat="43.397171" lon="-4.183896">
        <ele>60.327</ele>
        <time>2022-08-28T12:13:05Z</time>
      </trkpt>
      <trkpt lat="43.397201" lon="-4.183828">
        <ele>60.473</ele>
        <time>2022-08-28T12:13:07Z</time>
      </trkpt>
      <trkpt lat="43.397236" lon="-4.183755">
        <ele>60.696</ele>
        <time>2022-08-28T12:13:09Z</time>
      </trkpt>
      <trkpt lat="43.397274" lon="-4.183677">
        <ele>60.647</ele>
        <time>2022-08-28T12:13:11Z</time>
      </trkpt>
      <trkpt lat="43.397309" lon="-4.183599">
        <ele>60.619</ele>
        <time>2022-08-28T12:13:13Z</time>
      </trkpt>
      <trkpt lat="43.397347" lon="-4.183521">
        <ele>60.509</ele>
        <time>2022-08-28T12:13:15Z</time>
      </trkpt>
      <trkpt lat="43.397379" lon="-4.183444">
        <ele>60.619</ele>
        <time>2022-08-28T12:13:17Z</time>
      </trkpt>
      <trkpt lat="43.397419" lon="-4.183361">
        <ele>60.909</ele>
        <time>2022-08-28T12:13:19Z</time>
      </trkpt>
      <trkpt lat="43.397457" lon="-4.183278">
        <ele>61.472</ele>
        <time>2022-08-28T12:13:21Z</time>
      </trkpt>
      <trkpt lat="43.397494" lon="-4.183196">
        <ele>61.932</ele>
        <time>2022-08-28T12:13:23Z</time>
      </trkpt>
      <trkpt lat="43.397527" lon="-4.183114">
        <ele>62.343</ele>
        <time>2022-08-28T12:13:25Z</time>
      </trkpt>
      <trkpt lat="43.397554" lon="-4.183032">
        <ele>62.581</ele>
        <time>2022-08-28T12:13:27Z</time>
      </trkpt>
      <trkpt lat="43.397581" lon="-4.182950">
        <ele>62.686</ele>
        <time>2022-08-28T12:13:29Z</time>
      </trkpt>
      <trkpt lat="43.397611" lon="-4.182867">
        <ele>62.820</ele>
        <time>2022-08-28T12:13:31Z</time>
      </trkpt>
      <trkpt lat="43.397636" lon="-4.182780">
        <ele>63.086</ele>
        <time>2022-08-28T12:13:33Z</time>
      </trkpt>
      <trkpt lat="43.397661" lon="-4.182692">
        <ele>63.129</ele>
        <time>2022-08-28T12:13:35Z</time>
      </trkpt>
      <trkpt lat="43.397683" lon="-4.182597">
        <ele>63.270</ele>
        <time>2022-08-28T12:13:37Z</time>
      </trkpt>
      <trkpt lat="43.397703" lon="-4.182497">
        <ele>63.461</ele>
        <time>2022-08-28T12:13:39Z</time>
      </trkpt>
      <trkpt lat="43.397723" lon="-4.182400">
        <ele>63.921</ele>
        <time>2022-08-28T12:13:41Z</time>
      </trkpt>
      <trkpt lat="43.397741" lon="-4.182308">
        <ele>64.313</ele>
        <time>2022-08-28T12:13:43Z</time>
      </trkpt>
      <trkpt lat="43.397756" lon="-4.182218">
        <ele>64.609</ele>
        <time>2022-08-28T12:13:45Z</time>
      </trkpt>
      <trkpt lat="43.397768" lon="-4.182128">
        <ele>64.847</ele>
        <time>2022-08-28T12:13:47Z</time>
      </trkpt>
      <trkpt lat="43.397778" lon="-4.182036">
        <ele>65.037</ele>
        <time>2022-08-28T12:13:49Z</time>
      </trkpt>
      <trkpt lat="43.397785" lon="-4.181941">
        <ele>65.038</ele>
        <time>2022-08-28T12:13:51Z</time>
      </trkpt>
      <trkpt lat="43.397792" lon="-4.181846">
        <ele>65.656</ele>
        <time>2022-08-28T12:13:53Z</time>
      </trkpt>
      <trkpt lat="43.397795" lon="-4.181751">
        <ele>66.281</ele>
        <time>2022-08-28T12:13:55Z</time>
      </trkpt>
      <trkpt lat="43.397795" lon="-4.181661">
        <ele>66.825</ele>
        <time>2022-08-28T12:13:57Z</time>
      </trkpt>
      <trkpt lat="43.397795" lon="-4.181571">
        <ele>67.131</ele>
        <time>2022-08-28T12:13:59Z</time>
      </trkpt>
      <trkpt lat="43.397795" lon="-4.181481">
        <ele>67.464</ele>
        <time>2022-08-28T12:14:01Z</time>
      </trkpt>
      <trkpt lat="43.397792" lon="-4.181393">
        <ele>67.725</ele>
        <time>2022-08-28T12:14:03Z</time>
      </trkpt>
      <trkpt lat="43.397785" lon="-4.181310">
        <ele>68.247</ele>
        <time>2022-08-28T12:14:05Z</time>
      </trkpt>
      <trkpt lat="43.397778" lon="-4.181227">
        <ele>68.629</ele>
        <time>2022-08-28T12:14:07Z</time>
      </trkpt>
      <trkpt lat="43.397771" lon="-4.181142">
        <ele>68.921</ele>
        <time>2022-08-28T12:14:09Z</time>
      </trkpt>
      <trkpt lat="43.397763" lon="-4.181059">
        <ele>69.409</ele>
        <time>2022-08-28T12:14:11Z</time>
      </trkpt>
      <trkpt lat="43.397751" lon="-4.180979">
        <ele>70.055</ele>
        <time>2022-08-28T12:14:13Z</time>
      </trkpt>
      <trkpt lat="43.397743" lon="-4.180897">
        <ele>70.795</ele>
        <time>2022-08-28T12:14:15Z</time>
      </trkpt>
      <trkpt lat="43.397728" lon="-4.180815">
        <ele>71.366</ele>
        <time>2022-08-28T12:14:17Z</time>
      </trkpt>
      <trkpt lat="43.397713" lon="-4.180740">
        <ele>71.954</ele>
        <time>2022-08-28T12:14:19Z</time>
      </trkpt>
      <trkpt lat="43.397695" lon="-4.180672">
        <ele>72.519</ele>
        <time>2022-08-28T12:14:21Z</time>
      </trkpt>
      <trkpt lat="43.397675" lon="-4.180604">
        <ele>73.073</ele>
        <time>2022-08-28T12:14:23Z</time>
      </trkpt>
      <trkpt lat="43.397657" lon="-4.180537">
        <ele>73.549</ele>
        <time>2022-08-28T12:14:25Z</time>
      </trkpt>
      <trkpt lat="43.397635" lon="-4.180469">
        <ele>74.042</ele>
        <time>2022-08-28T12:14:27Z</time>
      </trkpt>
      <trkpt lat="43.397613" lon="-4.180402">
        <ele>74.483</ele>
        <time>2022-08-28T12:14:29Z</time>
      </trkpt>
      <trkpt lat="43.397591" lon="-4.180339">
        <ele>74.768</ele>
        <time>2022-08-28T12:14:31Z</time>
      </trkpt>
      <trkpt lat="43.397564" lon="-4.180277">
        <ele>75.042</ele>
        <time>2022-08-28T12:14:33Z</time>
      </trkpt>
      <trkpt lat="43.397532" lon="-4.180217">
        <ele>75.226</ele>
        <time>2022-08-28T12:14:35Z</time>
      </trkpt>
      <trkpt lat="43.397510" lon="-4.180155">
        <ele>75.509</ele>
        <time>2022-08-28T12:14:37Z</time>
      </trkpt>
      <trkpt lat="43.397485" lon="-4.180087">
        <ele>75.697</ele>
        <time>2022-08-28T12:14:39Z</time>
      </trkpt>
      <trkpt lat="43.397463" lon="-4.180029">
        <ele>75.857</ele>
        <time>2022-08-28T12:14:41Z</time>
      </trkpt>
      <trkpt lat="43.397433" lon="-4.179967">
        <ele>76.128</ele>
        <time>2022-08-28T12:14:43Z</time>
      </trkpt>
      <trkpt lat="43.397403" lon="-4.179909">
        <ele>76.556</ele>
        <time>2022-08-28T12:14:45Z</time>
      </trkpt>
      <trkpt lat="43.397375" lon="-4.179857">
        <ele>76.911</ele>
        <time>2022-08-28T12:14:47Z</time>
      </trkpt>
      <trkpt lat="43.397347" lon="-4.179802">
        <ele>77.255</ele>
        <time>2022-08-28T12:14:49Z</time>
      </trkpt>
      <trkpt lat="43.397317" lon="-4.179745">
        <ele>77.521</ele>
        <time>2022-08-28T12:14:51Z</time>
      </trkpt>
      <trkpt lat="43.397289" lon="-4.179682">
        <ele>77.844</ele>
        <time>2022-08-28T12:14:53Z</time>
      </trkpt>
      <trkpt lat="43.397257" lon="-4.179625">
        <ele>78.045</ele>
        <time>2022-08-28T12:14:55Z</time>
      </trkpt>
      <trkpt lat="43.397230" lon="-4.179568">
        <ele>78.259</ele>
        <time>2022-08-28T12:14:57Z</time>
      </trkpt>
      <trkpt lat="43.397202" lon="-4.179510">
        <ele>78.603</ele>
        <time>2022-08-28T12:14:59Z</time>
      </trkpt>
      <trkpt lat="43.397170" lon="-4.179453">
        <ele>79.123</ele>
        <time>2022-08-28T12:15:01Z</time>
      </trkpt>
      <trkpt lat="43.397138" lon="-4.179395">
        <ele>79.609</ele>
        <time>2022-08-28T12:15:03Z</time>
      </trkpt>
      <trkpt lat="43.397106" lon="-4.179337">
        <ele>79.976</ele>
        <time>2022-08-28T12:15:05Z</time>
      </trkpt>
      <trkpt lat="43.397074" lon="-4.179274">
        <ele>80.116</ele>
        <time>2022-08-28T12:15:07Z</time>
      </trkpt>
      <trkpt lat="43.397042" lon="-4.179211">
        <ele>80.217</ele>
        <time>2022-08-28T12:15:09Z</time>
      </trkpt>
      <trkpt lat="43.397009" lon="-4.179139">
        <ele>80.365</ele>
        <time>2022-08-28T12:15:11Z</time>
      </trkpt>
      <trkpt lat="43.396979" lon="-4.179074">
        <ele>80.240</ele>
        <time>2022-08-28T12:15:13Z</time>
      </trkpt>
      <trkpt lat="43.396949" lon="-4.179009">
        <ele>80.024</ele>
        <time>2022-08-28T12:15:15Z</time>
      </trkpt>
      <trkpt lat="43.396919" lon="-4.178937">
        <ele>80.310</ele>
        <time>2022-08-28T12:15:17Z</time>
      </trkpt>
      <trkpt lat="43.396896" lon="-4.178862">
        <ele>80.673</ele>
        <time>2022-08-28T12:15:19Z</time>
      </trkpt>
      <trkpt lat="43.396864" lon="-4.178795">
        <ele>80.984</ele>
        <time>2022-08-28T12:15:21Z</time>
      </trkpt>
      <trkpt lat="43.396836" lon="-4.178720">
        <ele>81.186</ele>
        <time>2022-08-28T12:15:23Z</time>
      </trkpt>
      <trkpt lat="43.396809" lon="-4.178633">
        <ele>81.060</ele>
        <time>2022-08-28T12:15:25Z</time>
      </trkpt>
      <trkpt lat="43.396781" lon="-4.178538">
        <ele>81.126</ele>
        <time>2022-08-28T12:15:27Z</time>
      </trkpt>
      <trkpt lat="43.396751" lon="-4.178433">
        <ele>80.909</ele>
        <time>2022-08-28T12:15:29Z</time>
      </trkpt>
      <trkpt lat="43.396719" lon="-4.178313">
        <ele>80.129</ele>
        <time>2022-08-28T12:15:31Z</time>
      </trkpt>
      <trkpt lat="43.396681" lon="-4.178180">
        <ele>78.939</ele>
        <time>2022-08-28T12:15:33Z</time>
      </trkpt>
      <trkpt lat="43.396663" lon="-4.178108">
        <ele>78.240</ele>
        <time>2022-08-28T12:15:34Z</time>
      </trkpt>
      <trkpt lat="43.396633" lon="-4.177951">
        <ele>77.778</ele>
        <time>2022-08-28T12:15:36Z</time>
      </trkpt>
      <trkpt lat="43.396611" lon="-4.177776">
        <ele>77.483</ele>
        <time>2022-08-28T12:15:38Z</time>
      </trkpt>
      <trkpt lat="43.396598" lon="-4.177689">
        <ele>77.037</ele>
        <time>2022-08-28T12:15:39Z</time>
      </trkpt>
      <trkpt lat="43.396586" lon="-4.177601">
        <ele>76.643</ele>
        <time>2022-08-28T12:15:40Z</time>
      </trkpt>
      <trkpt lat="43.396578" lon="-4.177506">
        <ele>76.196</ele>
        <time>2022-08-28T12:15:41Z</time>
      </trkpt>
      <trkpt lat="43.396570" lon="-4.177303">
        <ele>75.087</ele>
        <time>2022-08-28T12:15:43Z</time>
      </trkpt>
      <trkpt lat="43.396565" lon="-4.177095">
        <ele>74.499</ele>
        <time>2022-08-28T12:15:45Z</time>
      </trkpt>
      <trkpt lat="43.396570" lon="-4.176880">
        <ele>74.107</ele>
        <time>2022-08-28T12:15:47Z</time>
      </trkpt>
      <trkpt lat="43.396572" lon="-4.176775">
        <ele>73.727</ele>
        <time>2022-08-28T12:15:48Z</time>
      </trkpt>
      <trkpt lat="43.396589" lon="-4.176565">
        <ele>73.309</ele>
        <time>2022-08-28T12:15:50Z</time>
      </trkpt>
      <trkpt lat="43.396612" lon="-4.176362">
        <ele>73.210</ele>
        <time>2022-08-28T12:15:52Z</time>
      </trkpt>
      <trkpt lat="43.396624" lon="-4.176262">
        <ele>72.650</ele>
        <time>2022-08-28T12:15:53Z</time>
      </trkpt>
      <trkpt lat="43.396639" lon="-4.176165">
        <ele>72.081</ele>
        <time>2022-08-28T12:15:54Z</time>
      </trkpt>
      <trkpt lat="43.396672" lon="-4.175980">
        <ele>71.629</ele>
        <time>2022-08-28T12:15:56Z</time>
      </trkpt>
      <trkpt lat="43.396690" lon="-4.175892">
        <ele>71.424</ele>
        <time>2022-08-28T12:15:57Z</time>
      </trkpt>
      <trkpt lat="43.396713" lon="-4.175805">
        <ele>71.228</ele>
        <time>2022-08-28T12:15:58Z</time>
      </trkpt>
      <trkpt lat="43.396763" lon="-4.175635">
        <ele>71.054</ele>
        <time>2022-08-28T12:16:00Z</time>
      </trkpt>
      <trkpt lat="43.396791" lon="-4.175553">
        <ele>70.927</ele>
        <time>2022-08-28T12:16:01Z</time>
      </trkpt>
      <trkpt lat="43.396848" lon="-4.175393">
        <ele>71.358</ele>
        <time>2022-08-28T12:16:03Z</time>
      </trkpt>
      <trkpt lat="43.396913" lon="-4.175238">
        <ele>71.782</ele>
        <time>2022-08-28T12:16:05Z</time>
      </trkpt>
      <trkpt lat="43.396971" lon="-4.175083">
        <ele>72.043</ele>
        <time>2022-08-28T12:16:07Z</time>
      </trkpt>
      <trkpt lat="43.396999" lon="-4.175008">
        <ele>72.017</ele>
        <time>2022-08-28T12:16:08Z</time>
      </trkpt>
      <trkpt lat="43.397031" lon="-4.174933">
        <ele>71.809</ele>
        <time>2022-08-28T12:16:09Z</time>
      </trkpt>
      <trkpt lat="43.397094" lon="-4.174785">
        <ele>71.659</ele>
        <time>2022-08-28T12:16:11Z</time>
      </trkpt>
      <trkpt lat="43.397126" lon="-4.174708">
        <ele>71.659</ele>
        <time>2022-08-28T12:16:12Z</time>
      </trkpt>
      <trkpt lat="43.397186" lon="-4.174560">
        <ele>71.160</ele>
        <time>2022-08-28T12:16:14Z</time>
      </trkpt>
      <trkpt lat="43.397214" lon="-4.174485">
        <ele>71.198</ele>
        <time>2022-08-28T12:16:15Z</time>
      </trkpt>
      <trkpt lat="43.397269" lon="-4.174338">
        <ele>70.863</ele>
        <time>2022-08-28T12:16:17Z</time>
      </trkpt>
      <trkpt lat="43.397324" lon="-4.174181">
        <ele>70.577</ele>
        <time>2022-08-28T12:16:19Z</time>
      </trkpt>
      <trkpt lat="43.397379" lon="-4.174009">
        <ele>69.653</ele>
        <time>2022-08-28T12:16:21Z</time>
      </trkpt>
      <trkpt lat="43.397404" lon="-4.173917">
        <ele>68.966</ele>
        <time>2022-08-28T12:16:22Z</time>
      </trkpt>
      <trkpt lat="43.397456" lon="-4.173725">
        <ele>68.537</ele>
        <time>2022-08-28T12:16:24Z</time>
      </trkpt>
      <trkpt lat="43.397478" lon="-4.173625">
        <ele>68.589</ele>
        <time>2022-08-28T12:16:25Z</time>
      </trkpt>
      <trkpt lat="43.397501" lon="-4.173520">
        <ele>68.006</ele>
        <time>2022-08-28T12:16:26Z</time>
      </trkpt>
      <trkpt lat="43.397541" lon="-4.173302">
        <ele>66.826</ele>
        <time>2022-08-28T12:16:28Z</time>
      </trkpt>
      <trkpt lat="43.397574" lon="-4.173072">
        <ele>66.009</ele>
        <time>2022-08-28T12:16:30Z</time>
      </trkpt>
      <trkpt lat="43.397602" lon="-4.172837">
        <ele>65.059</ele>
        <time>2022-08-28T12:16:32Z</time>
      </trkpt>
      <trkpt lat="43.397615" lon="-4.172717">
        <ele>64.639</ele>
        <time>2022-08-28T12:16:33Z</time>
      </trkpt>
      <trkpt lat="43.397647" lon="-4.172470">
        <ele>64.180</ele>
        <time>2022-08-28T12:16:35Z</time>
      </trkpt>
      <trkpt lat="43.397659" lon="-4.172347">
        <ele>63.948</ele>
        <time>2022-08-28T12:16:36Z</time>
      </trkpt>
      <trkpt lat="43.397689" lon="-4.172099">
        <ele>63.363</ele>
        <time>2022-08-28T12:16:38Z</time>
      </trkpt>
      <trkpt lat="43.397717" lon="-4.171847">
        <ele>62.627</ele>
        <time>2022-08-28T12:16:40Z</time>
      </trkpt>
      <trkpt lat="43.397730" lon="-4.171720">
        <ele>62.383</ele>
        <time>2022-08-28T12:16:41Z</time>
      </trkpt>
      <trkpt lat="43.397757" lon="-4.171463">
        <ele>61.316</ele>
        <time>2022-08-28T12:16:43Z</time>
      </trkpt>
      <trkpt lat="43.397769" lon="-4.171336">
        <ele>60.757</ele>
        <time>2022-08-28T12:16:44Z</time>
      </trkpt>
      <trkpt lat="43.397797" lon="-4.171091">
        <ele>60.386</ele>
        <time>2022-08-28T12:16:46Z</time>
      </trkpt>
      <trkpt lat="43.397807" lon="-4.170971">
        <ele>60.460</ele>
        <time>2022-08-28T12:16:47Z</time>
      </trkpt>
      <trkpt lat="43.397819" lon="-4.170853">
        <ele>60.626</ele>
        <time>2022-08-28T12:16:48Z</time>
      </trkpt>
      <trkpt lat="43.397842" lon="-4.170628">
        <ele>60.609</ele>
        <time>2022-08-28T12:16:50Z</time>
      </trkpt>
      <trkpt lat="43.397852" lon="-4.170520">
        <ele>60.649</ele>
        <time>2022-08-28T12:16:51Z</time>
      </trkpt>
      <trkpt lat="43.397864" lon="-4.170313">
        <ele>61.029</ele>
        <time>2022-08-28T12:16:53Z</time>
      </trkpt>
      <trkpt lat="43.397871" lon="-4.170215">
        <ele>61.080</ele>
        <time>2022-08-28T12:16:54Z</time>
      </trkpt>
      <trkpt lat="43.397878" lon="-4.170117">
        <ele>61.018</ele>
        <time>2022-08-28T12:16:55Z</time>
      </trkpt>
      <trkpt lat="43.397890" lon="-4.169932">
        <ele>61.213</ele>
        <time>2022-08-28T12:16:57Z</time>
      </trkpt>
      <trkpt lat="43.397907" lon="-4.169765">
        <ele>61.897</ele>
        <time>2022-08-28T12:16:59Z</time>
      </trkpt>
      <trkpt lat="43.397914" lon="-4.169687">
        <ele>62.153</ele>
        <time>2022-08-28T12:17:00Z</time>
      </trkpt>
      <trkpt lat="43.397926" lon="-4.169537">
        <ele>62.386</ele>
        <time>2022-08-28T12:17:02Z</time>
      </trkpt>
      <trkpt lat="43.397934" lon="-4.169464">
        <ele>62.477</ele>
        <time>2022-08-28T12:17:03Z</time>
      </trkpt>
      <trkpt lat="43.397947" lon="-4.169326">
        <ele>63.035</ele>
        <time>2022-08-28T12:17:05Z</time>
      </trkpt>
      <trkpt lat="43.397959" lon="-4.169204">
        <ele>63.586</ele>
        <time>2022-08-28T12:17:07Z</time>
      </trkpt>
      <trkpt lat="43.397969" lon="-4.169099">
        <ele>64.114</ele>
        <time>2022-08-28T12:17:09Z</time>
      </trkpt>
      <trkpt lat="43.397979" lon="-4.169006">
        <ele>64.709</ele>
        <time>2022-08-28T12:17:11Z</time>
      </trkpt>
      <trkpt lat="43.397987" lon="-4.168921">
        <ele>65.384</ele>
        <time>2022-08-28T12:17:13Z</time>
      </trkpt>
      <trkpt lat="43.397994" lon="-4.168841">
        <ele>65.794</ele>
        <time>2022-08-28T12:17:15Z</time>
      </trkpt>
      <trkpt lat="43.398001" lon="-4.168763">
        <ele>66.115</ele>
        <time>2022-08-28T12:17:17Z</time>
      </trkpt>
      <trkpt lat="43.398009" lon="-4.168683">
        <ele>66.443</ele>
        <time>2022-08-28T12:17:19Z</time>
      </trkpt>
      <trkpt lat="43.398017" lon="-4.168608">
        <ele>66.718</ele>
        <time>2022-08-28T12:17:21Z</time>
      </trkpt>
      <trkpt lat="43.398027" lon="-4.168536">
        <ele>67.112</ele>
        <time>2022-08-28T12:17:23Z</time>
      </trkpt>
      <trkpt lat="43.398035" lon="-4.168461">
        <ele>67.548</ele>
        <time>2022-08-28T12:17:25Z</time>
      </trkpt>
      <trkpt lat="43.398043" lon="-4.168386">
        <ele>67.971</ele>
        <time>2022-08-28T12:17:27Z</time>
      </trkpt>
      <trkpt lat="43.398051" lon="-4.168316">
        <ele>68.262</ele>
        <time>2022-08-28T12:17:29Z</time>
      </trkpt>
      <trkpt lat="43.398056" lon="-4.168249">
        <ele>68.621</ele>
        <time>2022-08-28T12:17:31Z</time>
      </trkpt>
      <trkpt lat="43.398061" lon="-4.168186">
        <ele>69.041</ele>
        <time>2022-08-28T12:17:33Z</time>
      </trkpt>
      <trkpt lat="43.398073" lon="-4.168123">
        <ele>69.305</ele>
        <time>2022-08-28T12:17:35Z</time>
      </trkpt>
      <trkpt lat="43.398081" lon="-4.168048">
        <ele>69.809</ele>
        <time>2022-08-28T12:17:37Z</time>
      </trkpt>
      <trkpt lat="43.398086" lon="-4.167973">
        <ele>70.353</ele>
        <time>2022-08-28T12:17:39Z</time>
      </trkpt>
      <trkpt lat="43.398093" lon="-4.167908">
        <ele>70.723</ele>
        <time>2022-08-28T12:17:41Z</time>
      </trkpt>
      <trkpt lat="43.398098" lon="-4.167845">
        <ele>71.184</ele>
        <time>2022-08-28T12:17:43Z</time>
      </trkpt>
      <trkpt lat="43.398101" lon="-4.167758">
        <ele>71.682</ele>
        <time>2022-08-28T12:17:46Z</time>
      </trkpt>
      <trkpt lat="43.398109" lon="-4.167678">
        <ele>71.827</ele>
        <time>2022-08-28T12:17:49Z</time>
      </trkpt>
      <trkpt lat="43.398114" lon="-4.167591">
        <ele>72.031</ele>
        <time>2022-08-28T12:17:52Z</time>
      </trkpt>
      <trkpt lat="43.398116" lon="-4.167503">
        <ele>72.387</ele>
        <time>2022-08-28T12:17:55Z</time>
      </trkpt>
      <trkpt lat="43.398116" lon="-4.167413">
        <ele>73.040</ele>
        <time>2022-08-28T12:17:58Z</time>
      </trkpt>
      <trkpt lat="43.398118" lon="-4.167350">
        <ele>73.421</ele>
        <time>2022-08-28T12:18:00Z</time>
      </trkpt>
      <trkpt lat="43.398120" lon="-4.167260">
        <ele>74.061</ele>
        <time>2022-08-28T12:18:03Z</time>
      </trkpt>
      <trkpt lat="43.398120" lon="-4.167195">
        <ele>74.421</ele>
        <time>2022-08-28T12:18:05Z</time>
      </trkpt>
      <trkpt lat="43.398118" lon="-4.167132">
        <ele>74.713</ele>
        <time>2022-08-28T12:18:07Z</time>
      </trkpt>
      <trkpt lat="43.398116" lon="-4.167044">
        <ele>75.109</ele>
        <time>2022-08-28T12:18:10Z</time>
      </trkpt>
      <trkpt lat="43.398114" lon="-4.166981">
        <ele>75.417</ele>
        <time>2022-08-28T12:18:12Z</time>
      </trkpt>
      <trkpt lat="43.398112" lon="-4.166911">
        <ele>75.717</ele>
        <time>2022-08-28T12:18:14Z</time>
      </trkpt>
      <trkpt lat="43.398107" lon="-4.166844">
        <ele>76.028</ele>
        <time>2022-08-28T12:18:16Z</time>
      </trkpt>
      <trkpt lat="43.398104" lon="-4.166777">
        <ele>76.316</ele>
        <time>2022-08-28T12:18:18Z</time>
      </trkpt>
      <trkpt lat="43.398099" lon="-4.166714">
        <ele>76.521</ele>
        <time>2022-08-28T12:18:20Z</time>
      </trkpt>
      <trkpt lat="43.398091" lon="-4.166621">
        <ele>76.965</ele>
        <time>2022-08-28T12:18:23Z</time>
      </trkpt>
      <trkpt lat="43.398086" lon="-4.166556">
        <ele>77.291</ele>
        <time>2022-08-28T12:18:25Z</time>
      </trkpt>
      <trkpt lat="43.398076" lon="-4.166461">
        <ele>77.634</ele>
        <time>2022-08-28T12:18:28Z</time>
      </trkpt>
      <trkpt lat="43.398068" lon="-4.166384">
        <ele>78.015</ele>
        <time>2022-08-28T12:18:30Z</time>
      </trkpt>
      <trkpt lat="43.398058" lon="-4.166311">
        <ele>78.023</ele>
        <time>2022-08-28T12:18:32Z</time>
      </trkpt>
      <trkpt lat="43.398048" lon="-4.166233">
        <ele>78.283</ele>
        <time>2022-08-28T12:18:34Z</time>
      </trkpt>
      <trkpt lat="43.398041" lon="-4.166150">
        <ele>78.511</ele>
        <time>2022-08-28T12:18:36Z</time>
      </trkpt>
      <trkpt lat="43.398021" lon="-4.166072">
        <ele>79.209</ele>
        <time>2022-08-28T12:18:38Z</time>
      </trkpt>
      <trkpt lat="43.398006" lon="-4.165990">
        <ele>79.883</ele>
        <time>2022-08-28T12:18:40Z</time>
      </trkpt>
      <trkpt lat="43.397994" lon="-4.165898">
        <ele>80.363</ele>
        <time>2022-08-28T12:18:42Z</time>
      </trkpt>
      <trkpt lat="43.397977" lon="-4.165803">
        <ele>80.714</ele>
        <time>2022-08-28T12:18:44Z</time>
      </trkpt>
      <trkpt lat="43.397959" lon="-4.165710">
        <ele>81.142</ele>
        <time>2022-08-28T12:18:46Z</time>
      </trkpt>
      <trkpt lat="43.397936" lon="-4.165603">
        <ele>81.397</ele>
        <time>2022-08-28T12:18:48Z</time>
      </trkpt>
      <trkpt lat="43.397904" lon="-4.165488">
        <ele>81.211</ele>
        <time>2022-08-28T12:18:50Z</time>
      </trkpt>
      <trkpt lat="43.397887" lon="-4.165430">
        <ele>80.997</ele>
        <time>2022-08-28T12:18:51Z</time>
      </trkpt>
      <trkpt lat="43.397850" lon="-4.165300">
        <ele>79.710</ele>
        <time>2022-08-28T12:18:53Z</time>
      </trkpt>
      <trkpt lat="43.397802" lon="-4.165162">
        <ele>77.771</ele>
        <time>2022-08-28T12:18:55Z</time>
      </trkpt>
      <trkpt lat="43.397777" lon="-4.165085">
        <ele>76.291</ele>
        <time>2022-08-28T12:18:56Z</time>
      </trkpt>
      <trkpt lat="43.397714" lon="-4.164925">
        <ele>75.881</ele>
        <time>2022-08-28T12:18:58Z</time>
      </trkpt>
      <trkpt lat="43.397647" lon="-4.164750">
        <ele>76.019</ele>
        <time>2022-08-28T12:19:00Z</time>
      </trkpt>
      <trkpt lat="43.397610" lon="-4.164655">
        <ele>75.709</ele>
        <time>2022-08-28T12:19:01Z</time>
      </trkpt>
      <trkpt lat="43.397578" lon="-4.164560">
        <ele>74.990</ele>
        <time>2022-08-28T12:19:02Z</time>
      </trkpt>
      <trkpt lat="43.397540" lon="-4.164460">
        <ele>73.660</ele>
        <time>2022-08-28T12:19:03Z</time>
      </trkpt>
      <trkpt lat="43.397452" lon="-4.164237">
        <ele>70.051</ele>
        <time>2022-08-28T12:19:05Z</time>
      </trkpt>
      <trkpt lat="43.397364" lon="-4.164002">
        <ele>66.139</ele>
        <time>2022-08-28T12:19:07Z</time>
      </trkpt>
      <trkpt lat="43.397266" lon="-4.163754">
        <ele>63.274</ele>
        <time>2022-08-28T12:19:09Z</time>
      </trkpt>
      <trkpt lat="43.397216" lon="-4.163622">
        <ele>62.878</ele>
        <time>2022-08-28T12:19:10Z</time>
      </trkpt>
      <trkpt lat="43.397163" lon="-4.163487">
        <ele>60.884</ele>
        <time>2022-08-28T12:19:11Z</time>
      </trkpt>
      <trkpt lat="43.397053" lon="-4.163207">
        <ele>57.337</ele>
        <time>2022-08-28T12:19:13Z</time>
      </trkpt>
      <trkpt lat="43.396998" lon="-4.163065">
        <ele>56.838</ele>
        <time>2022-08-28T12:19:14Z</time>
      </trkpt>
      <trkpt lat="43.396943" lon="-4.162922">
        <ele>57.414</ele>
        <time>2022-08-28T12:19:15Z</time>
      </trkpt>
      <trkpt lat="43.396831" lon="-4.162630">
        <ele>53.954</ele>
        <time>2022-08-28T12:19:17Z</time>
      </trkpt>
      <trkpt lat="43.396718" lon="-4.162335">
        <ele>52.909</ele>
        <time>2022-08-28T12:19:19Z</time>
      </trkpt>
      <trkpt lat="43.396661" lon="-4.162187">
        <ele>53.609</ele>
        <time>2022-08-28T12:19:20Z</time>
      </trkpt>
      <trkpt lat="43.396548" lon="-4.161887">
        <ele>49.912</ele>
        <time>2022-08-28T12:19:22Z</time>
      </trkpt>
      <trkpt lat="43.396435" lon="-4.161592">
        <ele>48.762</ele>
        <time>2022-08-28T12:19:24Z</time>
      </trkpt>
      <trkpt lat="43.396380" lon="-4.161445">
        <ele>48.983</ele>
        <time>2022-08-28T12:19:25Z</time>
      </trkpt>
      <trkpt lat="43.396275" lon="-4.161153">
        <ele>47.271</ele>
        <time>2022-08-28T12:19:27Z</time>
      </trkpt>
      <trkpt lat="43.396225" lon="-4.161008">
        <ele>46.736</ele>
        <time>2022-08-28T12:19:28Z</time>
      </trkpt>
      <trkpt lat="43.396133" lon="-4.160715">
        <ele>46.470</ele>
        <time>2022-08-28T12:19:30Z</time>
      </trkpt>
      <trkpt lat="43.396091" lon="-4.160573">
        <ele>46.326</ele>
        <time>2022-08-28T12:19:31Z</time>
      </trkpt>
      <trkpt lat="43.396011" lon="-4.160296">
        <ele>46.789</ele>
        <time>2022-08-28T12:19:33Z</time>
      </trkpt>
      <trkpt lat="43.395979" lon="-4.160161">
        <ele>46.710</ele>
        <time>2022-08-28T12:19:34Z</time>
      </trkpt>
      <trkpt lat="43.395954" lon="-4.160028">
        <ele>46.746</ele>
        <time>2022-08-28T12:19:35Z</time>
      </trkpt>
      <trkpt lat="43.395932" lon="-4.159893">
        <ele>47.188</ele>
        <time>2022-08-28T12:19:36Z</time>
      </trkpt>
      <trkpt lat="43.395887" lon="-4.159643">
        <ele>47.616</ele>
        <time>2022-08-28T12:19:38Z</time>
      </trkpt>
      <trkpt lat="43.395859" lon="-4.159403">
        <ele>48.009</ele>
        <time>2022-08-28T12:19:40Z</time>
      </trkpt>
      <trkpt lat="43.395847" lon="-4.159288">
        <ele>48.545</ele>
        <time>2022-08-28T12:19:41Z</time>
      </trkpt>
      <trkpt lat="43.395824" lon="-4.159080">
        <ele>49.235</ele>
        <time>2022-08-28T12:19:43Z</time>
      </trkpt>
      <trkpt lat="43.395817" lon="-4.158983">
        <ele>49.436</ele>
        <time>2022-08-28T12:19:44Z</time>
      </trkpt>
      <trkpt lat="43.395810" lon="-4.158891">
        <ele>49.534</ele>
        <time>2022-08-28T12:19:45Z</time>
      </trkpt>
      <trkpt lat="43.395800" lon="-4.158721">
        <ele>50.489</ele>
        <time>2022-08-28T12:19:47Z</time>
      </trkpt>
      <trkpt lat="43.395800" lon="-4.158641">
        <ele>50.733</ele>
        <time>2022-08-28T12:19:48Z</time>
      </trkpt>
      <trkpt lat="43.395793" lon="-4.158488">
        <ele>51.069</ele>
        <time>2022-08-28T12:19:50Z</time>
      </trkpt>
      <trkpt lat="43.395793" lon="-4.158338">
        <ele>51.042</ele>
        <time>2022-08-28T12:19:52Z</time>
      </trkpt>
      <trkpt lat="43.395803" lon="-4.158195">
        <ele>50.833</ele>
        <time>2022-08-28T12:19:54Z</time>
      </trkpt>
      <trkpt lat="43.395808" lon="-4.158058">
        <ele>50.672</ele>
        <time>2022-08-28T12:19:56Z</time>
      </trkpt>
      <trkpt lat="43.395811" lon="-4.157988">
        <ele>50.813</ele>
        <time>2022-08-28T12:19:57Z</time>
      </trkpt>
      <trkpt lat="43.395821" lon="-4.157848">
        <ele>51.014</ele>
        <time>2022-08-28T12:19:59Z</time>
      </trkpt>
      <trkpt lat="43.395828" lon="-4.157713">
        <ele>51.109</ele>
        <time>2022-08-28T12:20:01Z</time>
      </trkpt>
      <trkpt lat="43.395838" lon="-4.157573">
        <ele>51.068</ele>
        <time>2022-08-28T12:20:03Z</time>
      </trkpt>
      <trkpt lat="43.395850" lon="-4.157431">
        <ele>51.018</ele>
        <time>2022-08-28T12:20:05Z</time>
      </trkpt>
      <trkpt lat="43.395865" lon="-4.157291">
        <ele>50.969</ele>
        <time>2022-08-28T12:20:07Z</time>
      </trkpt>
      <trkpt lat="43.395878" lon="-4.157146">
        <ele>50.687</ele>
        <time>2022-08-28T12:20:09Z</time>
      </trkpt>
      <trkpt lat="43.395886" lon="-4.157069">
        <ele>50.492</ele>
        <time>2022-08-28T12:20:10Z</time>
      </trkpt>
      <trkpt lat="43.395908" lon="-4.156917">
        <ele>50.166</ele>
        <time>2022-08-28T12:20:12Z</time>
      </trkpt>
      <trkpt lat="43.395933" lon="-4.156752">
        <ele>50.432</ele>
        <time>2022-08-28T12:20:14Z</time>
      </trkpt>
      <trkpt lat="43.395958" lon="-4.156569">
        <ele>50.695</ele>
        <time>2022-08-28T12:20:16Z</time>
      </trkpt>
      <trkpt lat="43.395971" lon="-4.156471">
        <ele>50.576</ele>
        <time>2022-08-28T12:20:17Z</time>
      </trkpt>
      <trkpt lat="43.395984" lon="-4.156373">
        <ele>50.359</ele>
        <time>2022-08-28T12:20:18Z</time>
      </trkpt>
      <trkpt lat="43.396009" lon="-4.156178">
        <ele>49.303</ele>
        <time>2022-08-28T12:20:20Z</time>
      </trkpt>
      <trkpt lat="43.396037" lon="-4.155978">
        <ele>48.123</ele>
        <time>2022-08-28T12:20:22Z</time>
      </trkpt>
      <trkpt lat="43.396064" lon="-4.155778">
        <ele>46.609</ele>
        <time>2022-08-28T12:20:24Z</time>
      </trkpt>
      <trkpt lat="43.396077" lon="-4.155676">
        <ele>46.076</ele>
        <time>2022-08-28T12:20:25Z</time>
      </trkpt>
      <trkpt lat="43.396104" lon="-4.155479">
        <ele>45.166</ele>
        <time>2022-08-28T12:20:27Z</time>
      </trkpt>
      <trkpt lat="43.396129" lon="-4.155284">
        <ele>44.957</ele>
        <time>2022-08-28T12:20:29Z</time>
      </trkpt>
      <trkpt lat="43.396141" lon="-4.155189">
        <ele>44.915</ele>
        <time>2022-08-28T12:20:30Z</time>
      </trkpt>
      <trkpt lat="43.396163" lon="-4.155004">
        <ele>44.860</ele>
        <time>2022-08-28T12:20:32Z</time>
      </trkpt>
      <trkpt lat="43.396183" lon="-4.154834">
        <ele>44.914</ele>
        <time>2022-08-28T12:20:34Z</time>
      </trkpt>
      <trkpt lat="43.396193" lon="-4.154756">
        <ele>45.050</ele>
        <time>2022-08-28T12:20:35Z</time>
      </trkpt>
      <trkpt lat="43.396213" lon="-4.154608">
        <ele>45.353</ele>
        <time>2022-08-28T12:20:37Z</time>
      </trkpt>
      <trkpt lat="43.396218" lon="-4.154535">
        <ele>45.434</ele>
        <time>2022-08-28T12:20:38Z</time>
      </trkpt>
      <trkpt lat="43.396225" lon="-4.154467">
        <ele>45.536</ele>
        <time>2022-08-28T12:20:39Z</time>
      </trkpt>
      <trkpt lat="43.396233" lon="-4.154402">
        <ele>45.817</ele>
        <time>2022-08-28T12:20:40Z</time>
      </trkpt>
      <trkpt lat="43.396255" lon="-4.154277">
        <ele>46.418</ele>
        <time>2022-08-28T12:20:42Z</time>
      </trkpt>
      <trkpt lat="43.396272" lon="-4.154159">
        <ele>47.009</ele>
        <time>2022-08-28T12:20:44Z</time>
      </trkpt>
      <trkpt lat="43.396285" lon="-4.154051">
        <ele>47.454</ele>
        <time>2022-08-28T12:20:46Z</time>
      </trkpt>
      <trkpt lat="43.396307" lon="-4.153951">
        <ele>47.854</ele>
        <time>2022-08-28T12:20:48Z</time>
      </trkpt>
      <trkpt lat="43.396320" lon="-4.153858">
        <ele>48.195</ele>
        <time>2022-08-28T12:20:50Z</time>
      </trkpt>
      <trkpt lat="43.396333" lon="-4.153766">
        <ele>48.493</ele>
        <time>2022-08-28T12:20:52Z</time>
      </trkpt>
      <trkpt lat="43.396341" lon="-4.153676">
        <ele>48.858</ele>
        <time>2022-08-28T12:20:54Z</time>
      </trkpt>
      <trkpt lat="43.396358" lon="-4.153593">
        <ele>49.172</ele>
        <time>2022-08-28T12:20:56Z</time>
      </trkpt>
      <trkpt lat="43.396366" lon="-4.153516">
        <ele>49.318</ele>
        <time>2022-08-28T12:20:58Z</time>
      </trkpt>
      <trkpt lat="43.396381" lon="-4.153438">
        <ele>49.691</ele>
        <time>2022-08-28T12:21:00Z</time>
      </trkpt>
      <trkpt lat="43.396398" lon="-4.153358">
        <ele>49.842</ele>
        <time>2022-08-28T12:21:02Z</time>
      </trkpt>
      <trkpt lat="43.396408" lon="-4.153268">
        <ele>50.369</ele>
        <time>2022-08-28T12:21:04Z</time>
      </trkpt>
      <trkpt lat="43.396416" lon="-4.153176">
        <ele>50.904</ele>
        <time>2022-08-28T12:21:06Z</time>
      </trkpt>
      <trkpt lat="43.396418" lon="-4.153103">
        <ele>51.424</ele>
        <time>2022-08-28T12:21:08Z</time>
      </trkpt>
      <trkpt lat="43.396425" lon="-4.153020">
        <ele>51.809</ele>
        <time>2022-08-28T12:21:11Z</time>
      </trkpt>
      <trkpt lat="43.396430" lon="-4.152952">
        <ele>52.027</ele>
        <time>2022-08-28T12:21:14Z</time>
      </trkpt>
      <trkpt lat="43.396440" lon="-4.152875">
        <ele>52.247</ele>
        <time>2022-08-28T12:21:17Z</time>
      </trkpt>
      <trkpt lat="43.396452" lon="-4.152788">
        <ele>52.548</ele>
        <time>2022-08-28T12:21:20Z</time>
      </trkpt>
      <trkpt lat="43.396462" lon="-4.152696">
        <ele>52.956</ele>
        <time>2022-08-28T12:21:23Z</time>
      </trkpt>
      <trkpt lat="43.396469" lon="-4.152631">
        <ele>53.341</ele>
        <time>2022-08-28T12:21:25Z</time>
      </trkpt>
      <trkpt lat="43.396482" lon="-4.152546">
        <ele>53.735</ele>
        <time>2022-08-28T12:21:28Z</time>
      </trkpt>
      <trkpt lat="43.396492" lon="-4.152466">
        <ele>54.371</ele>
        <time>2022-08-28T12:21:31Z</time>
      </trkpt>
      <trkpt lat="43.396499" lon="-4.152378">
        <ele>55.144</ele>
        <time>2022-08-28T12:21:34Z</time>
      </trkpt>
      <trkpt lat="43.396501" lon="-4.152315">
        <ele>55.665</ele>
        <time>2022-08-28T12:21:36Z</time>
      </trkpt>
      <trkpt lat="43.396511" lon="-4.152225">
        <ele>56.477</ele>
        <time>2022-08-28T12:21:39Z</time>
      </trkpt>
      <trkpt lat="43.396518" lon="-4.152137">
        <ele>57.161</ele>
        <time>2022-08-28T12:21:42Z</time>
      </trkpt>
      <trkpt lat="43.396525" lon="-4.152055">
        <ele>57.727</ele>
        <time>2022-08-28T12:21:45Z</time>
      </trkpt>
      <trkpt lat="43.396532" lon="-4.151967">
        <ele>58.409</ele>
        <time>2022-08-28T12:21:48Z</time>
      </trkpt>
      <trkpt lat="43.396534" lon="-4.151884">
        <ele>58.918</ele>
        <time>2022-08-28T12:21:51Z</time>
      </trkpt>
      <trkpt lat="43.396534" lon="-4.151799">
        <ele>59.368</ele>
        <time>2022-08-28T12:21:54Z</time>
      </trkpt>
      <trkpt lat="43.396534" lon="-4.151716">
        <ele>59.849</ele>
        <time>2022-08-28T12:21:57Z</time>
      </trkpt>
      <trkpt lat="43.396539" lon="-4.151633">
        <ele>60.437</ele>
        <time>2022-08-28T12:22:00Z</time>
      </trkpt>
      <trkpt lat="43.396536" lon="-4.151550">
        <ele>61.122</ele>
        <time>2022-08-28T12:22:03Z</time>
      </trkpt>
      <trkpt lat="43.396531" lon="-4.151462">
        <ele>61.956</ele>
        <time>2022-08-28T12:22:06Z</time>
      </trkpt>
      <trkpt lat="43.396528" lon="-4.151377">
        <ele>62.582</ele>
        <time>2022-08-28T12:22:09Z</time>
      </trkpt>
      <trkpt lat="43.396530" lon="-4.151294">
        <ele>62.965</ele>
        <time>2022-08-28T12:22:12Z</time>
      </trkpt>
      <trkpt lat="43.396528" lon="-4.151212">
        <ele>63.116</ele>
        <time>2022-08-28T12:22:15Z</time>
      </trkpt>
      <trkpt lat="43.396526" lon="-4.151132">
        <ele>63.495</ele>
        <time>2022-08-28T12:22:18Z</time>
      </trkpt>
      <trkpt lat="43.396519" lon="-4.151042">
        <ele>64.049</ele>
        <time>2022-08-28T12:22:21Z</time>
      </trkpt>
      <trkpt lat="43.396516" lon="-4.150955">
        <ele>64.623</ele>
        <time>2022-08-28T12:22:24Z</time>
      </trkpt>
      <trkpt lat="43.396513" lon="-4.150868">
        <ele>65.209</ele>
        <time>2022-08-28T12:22:27Z</time>
      </trkpt>
      <trkpt lat="43.396515" lon="-4.150805">
        <ele>65.660</ele>
        <time>2022-08-28T12:22:29Z</time>
      </trkpt>
      <trkpt lat="43.396515" lon="-4.150740">
        <ele>65.840</ele>
        <time>2022-08-28T12:22:31Z</time>
      </trkpt>
      <trkpt lat="43.396508" lon="-4.150645">
        <ele>66.121</ele>
        <time>2022-08-28T12:22:34Z</time>
      </trkpt>
      <trkpt lat="43.396503" lon="-4.150582">
        <ele>66.329</ele>
        <time>2022-08-28T12:22:36Z</time>
      </trkpt>
      <trkpt lat="43.396495" lon="-4.150515">
        <ele>66.874</ele>
        <time>2022-08-28T12:22:38Z</time>
      </trkpt>
      <trkpt lat="43.396483" lon="-4.150452">
        <ele>67.388</ele>
        <time>2022-08-28T12:22:40Z</time>
      </trkpt>
      <trkpt lat="43.396475" lon="-4.150382">
        <ele>68.034</ele>
        <time>2022-08-28T12:22:42Z</time>
      </trkpt>
      <trkpt lat="43.396465" lon="-4.150295">
        <ele>68.847</ele>
        <time>2022-08-28T12:22:45Z</time>
      </trkpt>
      <trkpt lat="43.396455" lon="-4.150212">
        <ele>69.388</ele>
        <time>2022-08-28T12:22:48Z</time>
      </trkpt>
      <trkpt lat="43.396448" lon="-4.150150">
        <ele>69.615</ele>
        <time>2022-08-28T12:22:50Z</time>
      </trkpt>
      <trkpt lat="43.396438" lon="-4.150060">
        <ele>69.965</ele>
        <time>2022-08-28T12:22:53Z</time>
      </trkpt>
      <trkpt lat="43.396433" lon="-4.149975">
        <ele>70.311</ele>
        <time>2022-08-28T12:22:56Z</time>
      </trkpt>
      <trkpt lat="43.396423" lon="-4.149888">
        <ele>70.609</ele>
        <time>2022-08-28T12:22:59Z</time>
      </trkpt>
      <trkpt lat="43.396418" lon="-4.149826">
        <ele>70.842</ele>
        <time>2022-08-28T12:23:01Z</time>
      </trkpt>
      <trkpt lat="43.396413" lon="-4.149759">
        <ele>71.032</ele>
        <time>2022-08-28T12:23:03Z</time>
      </trkpt>
      <trkpt lat="43.396415" lon="-4.149692">
        <ele>71.433</ele>
        <time>2022-08-28T12:23:05Z</time>
      </trkpt>
      <trkpt lat="43.396412" lon="-4.149605">
        <ele>72.011</ele>
        <time>2022-08-28T12:23:08Z</time>
      </trkpt>
      <trkpt lat="43.396404" lon="-4.149515">
        <ele>72.656</ele>
        <time>2022-08-28T12:23:11Z</time>
      </trkpt>
      <trkpt lat="43.396402" lon="-4.149450">
        <ele>73.070</ele>
        <time>2022-08-28T12:23:13Z</time>
      </trkpt>
      <trkpt lat="43.396397" lon="-4.149375">
        <ele>73.356</ele>
        <time>2022-08-28T12:23:15Z</time>
      </trkpt>
      <trkpt lat="43.396392" lon="-4.149303">
        <ele>73.579</ele>
        <time>2022-08-28T12:23:17Z</time>
      </trkpt>
      <trkpt lat="43.396389" lon="-4.149235">
        <ele>73.860</ele>
        <time>2022-08-28T12:23:19Z</time>
      </trkpt>
      <trkpt lat="43.396386" lon="-4.149168">
        <ele>74.014</ele>
        <time>2022-08-28T12:23:21Z</time>
      </trkpt>
      <trkpt lat="43.396384" lon="-4.149100">
        <ele>74.254</ele>
        <time>2022-08-28T12:23:23Z</time>
      </trkpt>
      <trkpt lat="43.396376" lon="-4.149030">
        <ele>74.409</ele>
        <time>2022-08-28T12:23:25Z</time>
      </trkpt>
      <trkpt lat="43.396379" lon="-4.148957">
        <ele>74.709</ele>
        <time>2022-08-28T12:23:27Z</time>
      </trkpt>
      <trkpt lat="43.396371" lon="-4.148890">
        <ele>74.972</ele>
        <time>2022-08-28T12:23:29Z</time>
      </trkpt>
      <trkpt lat="43.396359" lon="-4.148820">
        <ele>75.172</ele>
        <time>2022-08-28T12:23:31Z</time>
      </trkpt>
      <trkpt lat="43.396347" lon="-4.148745">
        <ele>75.463</ele>
        <time>2022-08-28T12:23:33Z</time>
      </trkpt>
      <trkpt lat="43.396337" lon="-4.148672">
        <ele>75.611</ele>
        <time>2022-08-28T12:23:35Z</time>
      </trkpt>
      <trkpt lat="43.396327" lon="-4.148595">
        <ele>75.866</ele>
        <time>2022-08-28T12:23:37Z</time>
      </trkpt>
      <trkpt lat="43.396319" lon="-4.148522">
        <ele>75.710</ele>
        <time>2022-08-28T12:23:39Z</time>
      </trkpt>
      <trkpt lat="43.396307" lon="-4.148447">
        <ele>75.736</ele>
        <time>2022-08-28T12:23:41Z</time>
      </trkpt>
      <trkpt lat="43.396299" lon="-4.148365">
        <ele>75.759</ele>
        <time>2022-08-28T12:23:43Z</time>
      </trkpt>
      <trkpt lat="43.396289" lon="-4.148282">
        <ele>75.830</ele>
        <time>2022-08-28T12:23:45Z</time>
      </trkpt>
      <trkpt lat="43.396282" lon="-4.148204">
        <ele>76.175</ele>
        <time>2022-08-28T12:23:47Z</time>
      </trkpt>
      <trkpt lat="43.396270" lon="-4.148134">
        <ele>76.328</ele>
        <time>2022-08-28T12:23:49Z</time>
      </trkpt>
      <trkpt lat="43.396262" lon="-4.148061">
        <ele>76.520</ele>
        <time>2022-08-28T12:23:51Z</time>
      </trkpt>
      <trkpt lat="43.396254" lon="-4.147986">
        <ele>76.809</ele>
        <time>2022-08-28T12:23:53Z</time>
      </trkpt>
      <trkpt lat="43.396239" lon="-4.147908">
        <ele>77.028</ele>
        <time>2022-08-28T12:23:55Z</time>
      </trkpt>
      <trkpt lat="43.396231" lon="-4.147833">
        <ele>77.248</ele>
        <time>2022-08-28T12:23:57Z</time>
      </trkpt>
      <trkpt lat="43.396223" lon="-4.147761">
        <ele>77.529</ele>
        <time>2022-08-28T12:23:59Z</time>
      </trkpt>
      <trkpt lat="43.396213" lon="-4.147688">
        <ele>77.747</ele>
        <time>2022-08-28T12:24:01Z</time>
      </trkpt>
      <trkpt lat="43.396203" lon="-4.147620">
        <ele>77.912</ele>
        <time>2022-08-28T12:24:03Z</time>
      </trkpt>
      <trkpt lat="43.396196" lon="-4.147550">
        <ele>78.196</ele>
        <time>2022-08-28T12:24:05Z</time>
      </trkpt>
      <trkpt lat="43.396188" lon="-4.147480">
        <ele>78.382</ele>
        <time>2022-08-28T12:24:07Z</time>
      </trkpt>
      <trkpt lat="43.396181" lon="-4.147407">
        <ele>78.315</ele>
        <time>2022-08-28T12:24:09Z</time>
      </trkpt>
      <trkpt lat="43.396183" lon="-4.147335">
        <ele>78.386</ele>
        <time>2022-08-28T12:24:11Z</time>
      </trkpt>
      <trkpt lat="43.396180" lon="-4.147258">
        <ele>78.262</ele>
        <time>2022-08-28T12:24:13Z</time>
      </trkpt>
      <trkpt lat="43.396175" lon="-4.147183">
        <ele>78.383</ele>
        <time>2022-08-28T12:24:15Z</time>
      </trkpt>
      <trkpt lat="43.396170" lon="-4.147101">
        <ele>78.611</ele>
        <time>2022-08-28T12:24:17Z</time>
      </trkpt>
      <trkpt lat="43.396167" lon="-4.147014">
        <ele>78.809</ele>
        <time>2022-08-28T12:24:19Z</time>
      </trkpt>
      <trkpt lat="43.396174" lon="-4.146926">
        <ele>79.087</ele>
        <time>2022-08-28T12:24:21Z</time>
      </trkpt>
      <trkpt lat="43.396176" lon="-4.146819">
        <ele>79.057</ele>
        <time>2022-08-28T12:24:23Z</time>
      </trkpt>
      <trkpt lat="43.396178" lon="-4.146719">
        <ele>79.048</ele>
        <time>2022-08-28T12:24:25Z</time>
      </trkpt>
      <trkpt lat="43.396180" lon="-4.146629">
        <ele>78.946</ele>
        <time>2022-08-28T12:24:27Z</time>
      </trkpt>
      <trkpt lat="43.396190" lon="-4.146534">
        <ele>78.711</ele>
        <time>2022-08-28T12:24:29Z</time>
      </trkpt>
      <trkpt lat="43.396203" lon="-4.146437">
        <ele>78.445</ele>
        <time>2022-08-28T12:24:31Z</time>
      </trkpt>
      <trkpt lat="43.396215" lon="-4.146334">
        <ele>78.441</ele>
        <time>2022-08-28T12:24:33Z</time>
      </trkpt>
      <trkpt lat="43.396232" lon="-4.146226">
        <ele>78.484</ele>
        <time>2022-08-28T12:24:35Z</time>
      </trkpt>
      <trkpt lat="43.396249" lon="-4.146108">
        <ele>78.515</ele>
        <time>2022-08-28T12:24:37Z</time>
      </trkpt>
      <trkpt lat="43.396269" lon="-4.145983">
        <ele>78.342</ele>
        <time>2022-08-28T12:24:39Z</time>
      </trkpt>
      <trkpt lat="43.396281" lon="-4.145915">
        <ele>78.222</ele>
        <time>2022-08-28T12:24:40Z</time>
      </trkpt>
      <trkpt lat="43.396293" lon="-4.145840">
        <ele>78.014</ele>
        <time>2022-08-28T12:24:41Z</time>
      </trkpt>
      <trkpt lat="43.396320" lon="-4.145680">
        <ele>76.909</ele>
        <time>2022-08-28T12:24:43Z</time>
      </trkpt>
      <trkpt lat="43.396347" lon="-4.145498">
        <ele>75.685</ele>
        <time>2022-08-28T12:24:45Z</time>
      </trkpt>
      <trkpt lat="43.396360" lon="-4.145398">
        <ele>74.975</ele>
        <time>2022-08-28T12:24:46Z</time>
      </trkpt>
      <trkpt lat="43.396372" lon="-4.145293">
        <ele>74.136</ele>
        <time>2022-08-28T12:24:47Z</time>
      </trkpt>
      <trkpt lat="43.396382" lon="-4.145181">
        <ele>73.784</ele>
        <time>2022-08-28T12:24:48Z</time>
      </trkpt>
      <trkpt lat="43.396400" lon="-4.144938">
        <ele>72.589</ele>
        <time>2022-08-28T12:24:50Z</time>
      </trkpt>
      <trkpt lat="43.396407" lon="-4.144813">
        <ele>71.653</ele>
        <time>2022-08-28T12:24:51Z</time>
      </trkpt>
      <trkpt lat="43.396404" lon="-4.144560">
        <ele>70.489</ele>
        <time>2022-08-28T12:24:53Z</time>
      </trkpt>
      <trkpt lat="43.396396" lon="-4.144430">
        <ele>69.942</ele>
        <time>2022-08-28T12:24:54Z</time>
      </trkpt>
      <trkpt lat="43.396366" lon="-4.144172">
        <ele>70.663</ele>
        <time>2022-08-28T12:24:56Z</time>
      </trkpt>
      <trkpt lat="43.396328" lon="-4.143919">
        <ele>70.653</ele>
        <time>2022-08-28T12:24:58Z</time>
      </trkpt>
      <trkpt lat="43.396290" lon="-4.143662">
        <ele>68.604</ele>
        <time>2022-08-28T12:25:00Z</time>
      </trkpt>
      <trkpt lat="43.396252" lon="-4.143405">
        <ele>66.314</ele>
        <time>2022-08-28T12:25:02Z</time>
      </trkpt>
      <trkpt lat="43.396234" lon="-4.143272">
        <ele>65.309</ele>
        <time>2022-08-28T12:25:03Z</time>
      </trkpt>
      <trkpt lat="43.396194" lon="-4.143012">
        <ele>64.746</ele>
        <time>2022-08-28T12:25:05Z</time>
      </trkpt>
      <trkpt lat="43.396174" lon="-4.142889">
        <ele>64.876</ele>
        <time>2022-08-28T12:25:06Z</time>
      </trkpt>
      <trkpt lat="43.396134" lon="-4.142641">
        <ele>64.437</ele>
        <time>2022-08-28T12:25:08Z</time>
      </trkpt>
      <trkpt lat="43.396094" lon="-4.142398">
        <ele>63.445</ele>
        <time>2022-08-28T12:25:10Z</time>
      </trkpt>
      <trkpt lat="43.396074" lon="-4.142273">
        <ele>62.640</ele>
        <time>2022-08-28T12:25:11Z</time>
      </trkpt>
      <trkpt lat="43.396036" lon="-4.142033">
        <ele>61.794</ele>
        <time>2022-08-28T12:25:13Z</time>
      </trkpt>
      <trkpt lat="43.396016" lon="-4.141913">
        <ele>61.350</ele>
        <time>2022-08-28T12:25:14Z</time>
      </trkpt>
      <trkpt lat="43.395979" lon="-4.141671">
        <ele>61.073</ele>
        <time>2022-08-28T12:25:16Z</time>
      </trkpt>
      <trkpt lat="43.395939" lon="-4.141428">
        <ele>60.784</ele>
        <time>2022-08-28T12:25:18Z</time>
      </trkpt>
      <trkpt lat="43.395921" lon="-4.141305">
        <ele>60.432</ele>
        <time>2022-08-28T12:25:19Z</time>
      </trkpt>
      <trkpt lat="43.395903" lon="-4.141178">
        <ele>60.092</ele>
        <time>2022-08-28T12:25:20Z</time>
      </trkpt>
      <trkpt lat="43.395883" lon="-4.141053">
        <ele>59.611</ele>
        <time>2022-08-28T12:25:21Z</time>
      </trkpt>
      <trkpt lat="43.395845" lon="-4.140805">
        <ele>59.009</ele>
        <time>2022-08-28T12:25:23Z</time>
      </trkpt>
      <trkpt lat="43.395827" lon="-4.140683">
        <ele>59.354</ele>
        <time>2022-08-28T12:25:24Z</time>
      </trkpt>
      <trkpt lat="43.395809" lon="-4.140563">
        <ele>60.154</ele>
        <time>2022-08-28T12:25:25Z</time>
      </trkpt>
      <trkpt lat="43.395769" lon="-4.140336">
        <ele>62.065</ele>
        <time>2022-08-28T12:25:27Z</time>
      </trkpt>
      <trkpt lat="43.395749" lon="-4.140229">
        <ele>62.833</ele>
        <time>2022-08-28T12:25:28Z</time>
      </trkpt>
      <trkpt lat="43.395707" lon="-4.140024">
        <ele>63.228</ele>
        <time>2022-08-28T12:25:30Z</time>
      </trkpt>
      <trkpt lat="43.395664" lon="-4.139827">
        <ele>62.662</ele>
        <time>2022-08-28T12:25:32Z</time>
      </trkpt>
      <trkpt lat="43.395637" lon="-4.139732">
        <ele>62.188</ele>
        <time>2022-08-28T12:25:33Z</time>
      </trkpt>
      <trkpt lat="43.395612" lon="-4.139640">
        <ele>61.631</ele>
        <time>2022-08-28T12:25:34Z</time>
      </trkpt>
      <trkpt lat="43.395560" lon="-4.139467">
        <ele>60.352</ele>
        <time>2022-08-28T12:25:36Z</time>
      </trkpt>
      <trkpt lat="43.395508" lon="-4.139305">
        <ele>61.398</ele>
        <time>2022-08-28T12:25:38Z</time>
      </trkpt>
      <trkpt lat="43.395481" lon="-4.139227">
        <ele>61.515</ele>
        <time>2022-08-28T12:25:39Z</time>
      </trkpt>
      <trkpt lat="43.395428" lon="-4.139080">
        <ele>61.326</ele>
        <time>2022-08-28T12:25:41Z</time>
      </trkpt>
      <trkpt lat="43.395376" lon="-4.138940">
        <ele>60.609</ele>
        <time>2022-08-28T12:25:43Z</time>
      </trkpt>
      <trkpt lat="43.395351" lon="-4.138870">
        <ele>60.150</ele>
        <time>2022-08-28T12:25:44Z</time>
      </trkpt>
      <trkpt lat="43.395326" lon="-4.138802">
        <ele>60.230</ele>
        <time>2022-08-28T12:25:45Z</time>
      </trkpt>
      <trkpt lat="43.395274" lon="-4.138672">
        <ele>60.351</ele>
        <time>2022-08-28T12:25:47Z</time>
      </trkpt>
      <trkpt lat="43.395227" lon="-4.138542">
        <ele>60.779</ele>
        <time>2022-08-28T12:25:49Z</time>
      </trkpt>
      <trkpt lat="43.395205" lon="-4.138479">
        <ele>60.834</ele>
        <time>2022-08-28T12:25:50Z</time>
      </trkpt>
      <trkpt lat="43.395182" lon="-4.138416">
        <ele>61.088</ele>
        <time>2022-08-28T12:25:51Z</time>
      </trkpt>
      <trkpt lat="43.395159" lon="-4.138353">
        <ele>61.294</ele>
        <time>2022-08-28T12:25:52Z</time>
      </trkpt>
      <trkpt lat="43.395112" lon="-4.138233">
        <ele>61.457</ele>
        <time>2022-08-28T12:25:54Z</time>
      </trkpt>
      <trkpt lat="43.395092" lon="-4.138170">
        <ele>61.458</ele>
        <time>2022-08-28T12:25:55Z</time>
      </trkpt>
      <trkpt lat="43.395052" lon="-4.138047">
        <ele>61.264</ele>
        <time>2022-08-28T12:25:57Z</time>
      </trkpt>
      <trkpt lat="43.395010" lon="-4.137924">
        <ele>60.906</ele>
        <time>2022-08-28T12:25:59Z</time>
      </trkpt>
      <trkpt lat="43.394993" lon="-4.137859">
        <ele>60.716</ele>
        <time>2022-08-28T12:26:00Z</time>
      </trkpt>
      <trkpt lat="43.394971" lon="-4.137794">
        <ele>60.609</ele>
        <time>2022-08-28T12:26:01Z</time>
      </trkpt>
      <trkpt lat="43.394929" lon="-4.137662">
        <ele>60.577</ele>
        <time>2022-08-28T12:26:03Z</time>
      </trkpt>
      <trkpt lat="43.394909" lon="-4.137597">
        <ele>60.487</ele>
        <time>2022-08-28T12:26:04Z</time>
      </trkpt>
      <trkpt lat="43.394887" lon="-4.137530">
        <ele>60.438</ele>
        <time>2022-08-28T12:26:05Z</time>
      </trkpt>
      <trkpt lat="43.394845" lon="-4.137393">
        <ele>60.316</ele>
        <time>2022-08-28T12:26:07Z</time>
      </trkpt>
      <trkpt lat="43.394825" lon="-4.137321">
        <ele>60.221</ele>
        <time>2022-08-28T12:26:08Z</time>
      </trkpt>
      <trkpt lat="43.394783" lon="-4.137171">
        <ele>60.225</ele>
        <time>2022-08-28T12:26:10Z</time>
      </trkpt>
      <trkpt lat="43.394761" lon="-4.137094">
        <ele>60.251</ele>
        <time>2022-08-28T12:26:11Z</time>
      </trkpt>
      <trkpt lat="43.394714" lon="-4.136939">
        <ele>60.014</ele>
        <time>2022-08-28T12:26:13Z</time>
      </trkpt>
      <trkpt lat="43.394689" lon="-4.136861">
        <ele>59.975</ele>
        <time>2022-08-28T12:26:14Z</time>
      </trkpt>
      <trkpt lat="43.394659" lon="-4.136788">
        <ele>59.943</ele>
        <time>2022-08-28T12:26:15Z</time>
      </trkpt>
      <trkpt lat="43.394609" lon="-4.136635">
        <ele>59.764</ele>
        <time>2022-08-28T12:26:17Z</time>
      </trkpt>
      <trkpt lat="43.394587" lon="-4.136555">
        <ele>59.610</ele>
        <time>2022-08-28T12:26:18Z</time>
      </trkpt>
      <trkpt lat="43.394544" lon="-4.136393">
        <ele>59.309</ele>
        <time>2022-08-28T12:26:20Z</time>
      </trkpt>
      <trkpt lat="43.394497" lon="-4.136236">
        <ele>59.125</ele>
        <time>2022-08-28T12:26:22Z</time>
      </trkpt>
      <trkpt lat="43.394474" lon="-4.136158">
        <ele>59.025</ele>
        <time>2022-08-28T12:26:23Z</time>
      </trkpt>
      <trkpt lat="43.394449" lon="-4.136080">
        <ele>58.996</ele>
        <time>2022-08-28T12:26:24Z</time>
      </trkpt>
      <trkpt lat="43.394426" lon="-4.136002">
        <ele>58.744</ele>
        <time>2022-08-28T12:26:25Z</time>
      </trkpt>
      <trkpt lat="43.394379" lon="-4.135844">
        <ele>58.559</ele>
        <time>2022-08-28T12:26:27Z</time>
      </trkpt>
      <trkpt lat="43.394329" lon="-4.135689">
        <ele>58.613</ele>
        <time>2022-08-28T12:26:29Z</time>
      </trkpt>
      <trkpt lat="43.394284" lon="-4.135529">
        <ele>58.559</ele>
        <time>2022-08-28T12:26:31Z</time>
      </trkpt>
      <trkpt lat="43.394262" lon="-4.135449">
        <ele>58.382</ele>
        <time>2022-08-28T12:26:32Z</time>
      </trkpt>
      <trkpt lat="43.394215" lon="-4.135287">
        <ele>57.923</ele>
        <time>2022-08-28T12:26:34Z</time>
      </trkpt>
      <trkpt lat="43.394192" lon="-4.135205">
        <ele>57.754</ele>
        <time>2022-08-28T12:26:35Z</time>
      </trkpt>
      <trkpt lat="43.394169" lon="-4.135120">
        <ele>57.456</ele>
        <time>2022-08-28T12:26:36Z</time>
      </trkpt>
      <trkpt lat="43.394122" lon="-4.134957">
        <ele>57.011</ele>
        <time>2022-08-28T12:26:38Z</time>
      </trkpt>
      <trkpt lat="43.394070" lon="-4.134799">
        <ele>57.309</ele>
        <time>2022-08-28T12:26:40Z</time>
      </trkpt>
      <trkpt lat="43.394010" lon="-4.134649">
        <ele>57.676</ele>
        <time>2022-08-28T12:26:42Z</time>
      </trkpt>
      <trkpt lat="43.393987" lon="-4.134574">
        <ele>57.686</ele>
        <time>2022-08-28T12:26:43Z</time>
      </trkpt>
      <trkpt lat="43.393942" lon="-4.134426">
        <ele>57.847</ele>
        <time>2022-08-28T12:26:45Z</time>
      </trkpt>
      <trkpt lat="43.393919" lon="-4.134356">
        <ele>57.945</ele>
        <time>2022-08-28T12:26:46Z</time>
      </trkpt>
      <trkpt lat="43.393899" lon="-4.134284">
        <ele>58.040</ele>
        <time>2022-08-28T12:26:47Z</time>
      </trkpt>
      <trkpt lat="43.393857" lon="-4.134152">
        <ele>58.254</ele>
        <time>2022-08-28T12:26:49Z</time>
      </trkpt>
      <trkpt lat="43.393815" lon="-4.134030">
        <ele>58.690</ele>
        <time>2022-08-28T12:26:51Z</time>
      </trkpt>
      <trkpt lat="43.393795" lon="-4.133970">
        <ele>58.873</ele>
        <time>2022-08-28T12:26:52Z</time>
      </trkpt>
      <trkpt lat="43.393757" lon="-4.133852">
        <ele>59.134</ele>
        <time>2022-08-28T12:26:54Z</time>
      </trkpt>
      <trkpt lat="43.393739" lon="-4.133795">
        <ele>59.211</ele>
        <time>2022-08-28T12:26:55Z</time>
      </trkpt>
      <trkpt lat="43.393707" lon="-4.133685">
        <ele>59.521</ele>
        <time>2022-08-28T12:26:57Z</time>
      </trkpt>
      <trkpt lat="43.393674" lon="-4.133578">
        <ele>59.803</ele>
        <time>2022-08-28T12:26:59Z</time>
      </trkpt>
      <trkpt lat="43.393644" lon="-4.133478">
        <ele>59.909</ele>
        <time>2022-08-28T12:27:01Z</time>
      </trkpt>
      <trkpt lat="43.393616" lon="-4.133381">
        <ele>60.062</ele>
        <time>2022-08-28T12:27:03Z</time>
      </trkpt>
      <trkpt lat="43.393589" lon="-4.133288">
        <ele>60.412</ele>
        <time>2022-08-28T12:27:05Z</time>
      </trkpt>
      <trkpt lat="43.393562" lon="-4.133196">
        <ele>61.163</ele>
        <time>2022-08-28T12:27:07Z</time>
      </trkpt>
      <trkpt lat="43.393537" lon="-4.133114">
        <ele>61.661</ele>
        <time>2022-08-28T12:27:09Z</time>
      </trkpt>
      <trkpt lat="43.393514" lon="-4.133034">
        <ele>62.316</ele>
        <time>2022-08-28T12:27:11Z</time>
      </trkpt>
      <trkpt lat="43.393487" lon="-4.132944">
        <ele>63.380</ele>
        <time>2022-08-28T12:27:13Z</time>
      </trkpt>
      <trkpt lat="43.393464" lon="-4.132852">
        <ele>64.126</ele>
        <time>2022-08-28T12:27:15Z</time>
      </trkpt>
      <trkpt lat="43.393442" lon="-4.132772">
        <ele>64.699</ele>
        <time>2022-08-28T12:27:17Z</time>
      </trkpt>
      <trkpt lat="43.393420" lon="-4.132704">
        <ele>64.960</ele>
        <time>2022-08-28T12:27:19Z</time>
      </trkpt>
      <trkpt lat="43.393400" lon="-4.132637">
        <ele>65.196</ele>
        <time>2022-08-28T12:27:21Z</time>
      </trkpt>
      <trkpt lat="43.393385" lon="-4.132575">
        <ele>65.331</ele>
        <time>2022-08-28T12:27:23Z</time>
      </trkpt>
      <trkpt lat="43.393367" lon="-4.132515">
        <ele>65.524</ele>
        <time>2022-08-28T12:27:25Z</time>
      </trkpt>
      <trkpt lat="43.393352" lon="-4.132453">
        <ele>66.009</ele>
        <time>2022-08-28T12:27:27Z</time>
      </trkpt>
      <trkpt lat="43.393334" lon="-4.132395">
        <ele>66.540</ele>
        <time>2022-08-28T12:27:29Z</time>
      </trkpt>
      <trkpt lat="43.393314" lon="-4.132335">
        <ele>67.110</ele>
        <time>2022-08-28T12:27:31Z</time>
      </trkpt>
      <trkpt lat="43.393294" lon="-4.132277">
        <ele>67.661</ele>
        <time>2022-08-28T12:27:33Z</time>
      </trkpt>
      <trkpt lat="43.393274" lon="-4.132219">
        <ele>68.029</ele>
        <time>2022-08-28T12:27:35Z</time>
      </trkpt>
      <trkpt lat="43.393257" lon="-4.132161">
        <ele>68.224</ele>
        <time>2022-08-28T12:27:37Z</time>
      </trkpt>
      <trkpt lat="43.393239" lon="-4.132104">
        <ele>68.468</ele>
        <time>2022-08-28T12:27:39Z</time>
      </trkpt>
      <trkpt lat="43.393217" lon="-4.132024">
        <ele>68.744</ele>
        <time>2022-08-28T12:27:42Z</time>
      </trkpt>
      <trkpt lat="43.393199" lon="-4.131967">
        <ele>68.997</ele>
        <time>2022-08-28T12:27:44Z</time>
      </trkpt>
      <trkpt lat="43.393167" lon="-4.131885">
        <ele>68.938</ele>
        <time>2022-08-28T12:27:47Z</time>
      </trkpt>
      <trkpt lat="43.393149" lon="-4.131820">
        <ele>68.913</ele>
        <time>2022-08-28T12:27:49Z</time>
      </trkpt>
      <trkpt lat="43.393129" lon="-4.131732">
        <ele>69.043</ele>
        <time>2022-08-28T12:27:52Z</time>
      </trkpt>
      <trkpt lat="43.393112" lon="-4.131672">
        <ele>68.807</ele>
        <time>2022-08-28T12:27:54Z</time>
      </trkpt>
      <trkpt lat="43.393090" lon="-4.131589">
        <ele>68.909</ele>
        <time>2022-08-28T12:27:57Z</time>
      </trkpt>
      <trkpt lat="43.393082" lon="-4.131527">
        <ele>69.312</ele>
        <time>2022-08-28T12:27:59Z</time>
      </trkpt>
      <trkpt lat="43.393072" lon="-4.131465">
        <ele>69.782</ele>
        <time>2022-08-28T12:28:01Z</time>
      </trkpt>
      <trkpt lat="43.393060" lon="-4.131380">
        <ele>70.223</ele>
        <time>2022-08-28T12:28:04Z</time>
      </trkpt>
      <trkpt lat="43.393053" lon="-4.131317">
        <ele>70.261</ele>
        <time>2022-08-28T12:28:06Z</time>
      </trkpt>
      <trkpt lat="43.393050" lon="-4.131250">
        <ele>70.466</ele>
        <time>2022-08-28T12:28:08Z</time>
      </trkpt>
      <trkpt lat="43.393047" lon="-4.131187">
        <ele>70.650</ele>
        <time>2022-08-28T12:28:10Z</time>
      </trkpt>
      <trkpt lat="43.393049" lon="-4.131124">
        <ele>70.896</ele>
        <time>2022-08-28T12:28:12Z</time>
      </trkpt>
      <trkpt lat="43.393054" lon="-4.131036">
        <ele>71.249</ele>
        <time>2022-08-28T12:28:15Z</time>
      </trkpt>
      <trkpt lat="43.393054" lon="-4.130944">
        <ele>71.620</ele>
        <time>2022-08-28T12:28:18Z</time>
      </trkpt>
      <trkpt lat="43.393059" lon="-4.130876">
        <ele>71.926</ele>
        <time>2022-08-28T12:28:20Z</time>
      </trkpt>
      <trkpt lat="43.393067" lon="-4.130813">
        <ele>72.147</ele>
        <time>2022-08-28T12:28:22Z</time>
      </trkpt>
      <trkpt lat="43.393070" lon="-4.130746">
        <ele>72.311</ele>
        <time>2022-08-28T12:28:24Z</time>
      </trkpt>
      <trkpt lat="43.393075" lon="-4.130683">
        <ele>72.509</ele>
        <time>2022-08-28T12:28:26Z</time>
      </trkpt>
      <trkpt lat="43.393080" lon="-4.130618">
        <ele>72.793</ele>
        <time>2022-08-28T12:28:28Z</time>
      </trkpt>
      <trkpt lat="43.393085" lon="-4.130551">
        <ele>73.143</ele>
        <time>2022-08-28T12:28:30Z</time>
      </trkpt>
      <trkpt lat="43.393093" lon="-4.130483">
        <ele>73.494</ele>
        <time>2022-08-28T12:28:32Z</time>
      </trkpt>
      <trkpt lat="43.393100" lon="-4.130418">
        <ele>73.722</ele>
        <time>2022-08-28T12:28:34Z</time>
      </trkpt>
      <trkpt lat="43.393108" lon="-4.130351">
        <ele>74.037</ele>
        <time>2022-08-28T12:28:36Z</time>
      </trkpt>
      <trkpt lat="43.393113" lon="-4.130289">
        <ele>74.361</ele>
        <time>2022-08-28T12:28:38Z</time>
      </trkpt>
      <trkpt lat="43.393116" lon="-4.130222">
        <ele>74.677</ele>
        <time>2022-08-28T12:28:40Z</time>
      </trkpt>
      <trkpt lat="43.393119" lon="-4.130159">
        <ele>74.980</ele>
        <time>2022-08-28T12:28:42Z</time>
      </trkpt>
      <trkpt lat="43.393124" lon="-4.130066">
        <ele>75.531</ele>
        <time>2022-08-28T12:28:45Z</time>
      </trkpt>
      <trkpt lat="43.393132" lon="-4.129973">
        <ele>76.167</ele>
        <time>2022-08-28T12:28:48Z</time>
      </trkpt>
      <trkpt lat="43.393139" lon="-4.129911">
        <ele>76.681</ele>
        <time>2022-08-28T12:28:50Z</time>
      </trkpt>
      <trkpt lat="43.393147" lon="-4.129844">
        <ele>77.219</ele>
        <time>2022-08-28T12:28:52Z</time>
      </trkpt>
      <trkpt lat="43.393154" lon="-4.129779">
        <ele>77.709</ele>
        <time>2022-08-28T12:28:54Z</time>
      </trkpt>
      <trkpt lat="43.393156" lon="-4.129716">
        <ele>78.077</ele>
        <time>2022-08-28T12:28:56Z</time>
      </trkpt>
      <trkpt lat="43.393158" lon="-4.129651">
        <ele>78.567</ele>
        <time>2022-08-28T12:28:58Z</time>
      </trkpt>
      <trkpt lat="43.393158" lon="-4.129588">
        <ele>78.868</ele>
        <time>2022-08-28T12:29:00Z</time>
      </trkpt>
      <trkpt lat="43.393158" lon="-4.129525">
        <ele>79.266</ele>
        <time>2022-08-28T12:29:02Z</time>
      </trkpt>
      <trkpt lat="43.393158" lon="-4.129437">
        <ele>79.721</ele>
        <time>2022-08-28T12:29:05Z</time>
      </trkpt>
      <trkpt lat="43.393153" lon="-4.129345">
        <ele>80.225</ele>
        <time>2022-08-28T12:29:08Z</time>
      </trkpt>
      <trkpt lat="43.393153" lon="-4.129257">
        <ele>80.921</ele>
        <time>2022-08-28T12:29:11Z</time>
      </trkpt>
      <trkpt lat="43.393153" lon="-4.129169">
        <ele>81.594</ele>
        <time>2022-08-28T12:29:14Z</time>
      </trkpt>
      <trkpt lat="43.393146" lon="-4.129081">
        <ele>81.635</ele>
        <time>2022-08-28T12:29:17Z</time>
      </trkpt>
      <trkpt lat="43.393141" lon="-4.128991">
        <ele>81.783</ele>
        <time>2022-08-28T12:29:20Z</time>
      </trkpt>
      <trkpt lat="43.393134" lon="-4.128906">
        <ele>81.825</ele>
        <time>2022-08-28T12:29:23Z</time>
      </trkpt>
      <trkpt lat="43.393127" lon="-4.128818">
        <ele>82.017</ele>
        <time>2022-08-28T12:29:26Z</time>
      </trkpt>
      <trkpt lat="43.393117" lon="-4.128731">
        <ele>82.109</ele>
        <time>2022-08-28T12:29:29Z</time>
      </trkpt>
      <trkpt lat="43.393110" lon="-4.128669">
        <ele>82.229</ele>
        <time>2022-08-28T12:29:31Z</time>
      </trkpt>
      <trkpt lat="43.393102" lon="-4.128584">
        <ele>82.739</ele>
        <time>2022-08-28T12:29:34Z</time>
      </trkpt>
      <trkpt lat="43.393090" lon="-4.128497">
        <ele>83.460</ele>
        <time>2022-08-28T12:29:37Z</time>
      </trkpt>
      <trkpt lat="43.393088" lon="-4.128434">
        <ele>84.178</ele>
        <time>2022-08-28T12:29:39Z</time>
      </trkpt>
      <trkpt lat="43.393090" lon="-4.128369">
        <ele>84.953</ele>
        <time>2022-08-28T12:29:41Z</time>
      </trkpt>
      <trkpt lat="43.393090" lon="-4.128306">
        <ele>85.877</ele>
        <time>2022-08-28T12:29:43Z</time>
      </trkpt>
      <trkpt lat="43.393077" lon="-4.128218">
        <ele>86.673</ele>
        <time>2022-08-28T12:29:46Z</time>
      </trkpt>
      <trkpt lat="43.393065" lon="-4.128133">
        <ele>87.386</ele>
        <time>2022-08-28T12:29:49Z</time>
      </trkpt>
      <trkpt lat="43.393050" lon="-4.128045">
        <ele>88.037</ele>
        <time>2022-08-28T12:29:52Z</time>
      </trkpt>
      <trkpt lat="43.393030" lon="-4.127958">
        <ele>88.565</ele>
        <time>2022-08-28T12:29:55Z</time>
      </trkpt>
      <trkpt lat="43.393008" lon="-4.127875">
        <ele>89.068</ele>
        <time>2022-08-28T12:29:58Z</time>
      </trkpt>
      <trkpt lat="43.392986" lon="-4.127787">
        <ele>89.614</ele>
        <time>2022-08-28T12:30:01Z</time>
      </trkpt>
      <trkpt lat="43.392964" lon="-4.127699">
        <ele>89.909</ele>
        <time>2022-08-28T12:30:04Z</time>
      </trkpt>
      <trkpt lat="43.392937" lon="-4.127617">
        <ele>89.947</ele>
        <time>2022-08-28T12:30:07Z</time>
      </trkpt>
      <trkpt lat="43.392914" lon="-4.127537">
        <ele>89.777</ele>
        <time>2022-08-28T12:30:10Z</time>
      </trkpt>
      <trkpt lat="43.392886" lon="-4.127455">
        <ele>89.318</ele>
        <time>2022-08-28T12:30:13Z</time>
      </trkpt>
      <trkpt lat="43.392866" lon="-4.127370">
        <ele>89.246</ele>
        <time>2022-08-28T12:30:16Z</time>
      </trkpt>
      <trkpt lat="43.392843" lon="-4.127285">
        <ele>89.191</ele>
        <time>2022-08-28T12:30:19Z</time>
      </trkpt>
      <trkpt lat="43.392811" lon="-4.127210">
        <ele>88.885</ele>
        <time>2022-08-28T12:30:22Z</time>
      </trkpt>
      <trkpt lat="43.392793" lon="-4.127150">
        <ele>89.111</ele>
        <time>2022-08-28T12:30:24Z</time>
      </trkpt>
      <trkpt lat="43.392766" lon="-4.127067">
        <ele>89.534</ele>
        <time>2022-08-28T12:30:27Z</time>
      </trkpt>
      <trkpt lat="43.392743" lon="-4.127012">
        <ele>89.725</ele>
        <time>2022-08-28T12:30:29Z</time>
      </trkpt>
      <trkpt lat="43.392723" lon="-4.126949">
        <ele>90.262</ele>
        <time>2022-08-28T12:30:31Z</time>
      </trkpt>
      <trkpt lat="43.392703" lon="-4.126889">
        <ele>90.683</ele>
        <time>2022-08-28T12:30:33Z</time>
      </trkpt>
      <trkpt lat="43.392676" lon="-4.126811">
        <ele>91.211</ele>
        <time>2022-08-28T12:30:36Z</time>
      </trkpt>
      <trkpt lat="43.392649" lon="-4.126751">
        <ele>91.609</ele>
        <time>2022-08-28T12:30:39Z</time>
      </trkpt>
      <trkpt lat="43.392611" lon="-4.126669">
        <ele>92.267</ele>
        <time>2022-08-28T12:30:42Z</time>
      </trkpt>
      <trkpt lat="43.392576" lon="-4.126599">
        <ele>92.457</ele>
        <time>2022-08-28T12:30:44Z</time>
      </trkpt>
      <trkpt lat="43.392551" lon="-4.126537">
        <ele>92.828</ele>
        <time>2022-08-28T12:30:46Z</time>
      </trkpt>
      <trkpt lat="43.392519" lon="-4.126464">
        <ele>93.316</ele>
        <time>2022-08-28T12:30:49Z</time>
      </trkpt>
      <trkpt lat="43.392484" lon="-4.126391">
        <ele>94.051</ele>
        <time>2022-08-28T12:30:52Z</time>
      </trkpt>
      <trkpt lat="43.392457" lon="-4.126341">
        <ele>94.145</ele>
        <time>2022-08-28T12:30:54Z</time>
      </trkpt>
      <trkpt lat="43.392422" lon="-4.126268">
        <ele>94.471</ele>
        <time>2022-08-28T12:30:57Z</time>
      </trkpt>
      <trkpt lat="43.392397" lon="-4.126205">
        <ele>94.764</ele>
        <time>2022-08-28T12:31:00Z</time>
      </trkpt>
      <trkpt lat="43.392372" lon="-4.126142">
        <ele>95.245</ele>
        <time>2022-08-28T12:31:03Z</time>
      </trkpt>
      <trkpt lat="43.392349" lon="-4.126075">
        <ele>95.837</ele>
        <time>2022-08-28T12:31:06Z</time>
      </trkpt>
      <trkpt lat="43.392314" lon="-4.126007">
        <ele>96.549</ele>
        <time>2022-08-28T12:31:09Z</time>
      </trkpt>
      <trkpt lat="43.392292" lon="-4.125942">
        <ele>97.213</ele>
        <time>2022-08-28T12:31:12Z</time>
      </trkpt>
      <trkpt lat="43.392272" lon="-4.125884">
        <ele>97.809</ele>
        <time>2022-08-28T12:31:15Z</time>
      </trkpt>
      <trkpt lat="43.392249" lon="-4.125821">
        <ele>98.644</ele>
        <time>2022-08-28T12:31:18Z</time>
      </trkpt>
      <trkpt lat="43.392227" lon="-4.125753">
        <ele>99.544</ele>
        <time>2022-08-28T12:31:21Z</time>
      </trkpt>
      <trkpt lat="43.392207" lon="-4.125686">
        <ele>100.085</ele>
        <time>2022-08-28T12:31:24Z</time>
      </trkpt>
      <trkpt lat="43.392189" lon="-4.125614">
        <ele>100.473</ele>
        <time>2022-08-28T12:31:27Z</time>
      </trkpt>
      <trkpt lat="43.392181" lon="-4.125536">
        <ele>101.138</ele>
        <time>2022-08-28T12:31:30Z</time>
      </trkpt>
      <trkpt lat="43.392168" lon="-4.125458">
        <ele>101.922</ele>
        <time>2022-08-28T12:31:33Z</time>
      </trkpt>
      <trkpt lat="43.392163" lon="-4.125381">
        <ele>102.878</ele>
        <time>2022-08-28T12:31:36Z</time>
      </trkpt>
      <trkpt lat="43.392155" lon="-4.125303">
        <ele>103.711</ele>
        <time>2022-08-28T12:31:39Z</time>
      </trkpt>
      <trkpt lat="43.392148" lon="-4.125215">
        <ele>104.652</ele>
        <time>2022-08-28T12:31:42Z</time>
      </trkpt>
      <trkpt lat="43.392150" lon="-4.125127">
        <ele>105.561</ele>
        <time>2022-08-28T12:31:45Z</time>
      </trkpt>
      <trkpt lat="43.392155" lon="-4.125054">
        <ele>106.221</ele>
        <time>2022-08-28T12:31:48Z</time>
      </trkpt>
      <trkpt lat="43.392158" lon="-4.124977">
        <ele>106.913</ele>
        <time>2022-08-28T12:31:51Z</time>
      </trkpt>
      <trkpt lat="43.392166" lon="-4.124897">
        <ele>107.509</ele>
        <time>2022-08-28T12:31:54Z</time>
      </trkpt>
      <trkpt lat="43.392179" lon="-4.124819">
        <ele>108.037</ele>
        <time>2022-08-28T12:31:57Z</time>
      </trkpt>
      <trkpt lat="43.392194" lon="-4.124749">
        <ele>108.387</ele>
        <time>2022-08-28T12:32:00Z</time>
      </trkpt>
      <trkpt lat="43.392212" lon="-4.124677">
        <ele>108.788</ele>
        <time>2022-08-28T12:32:03Z</time>
      </trkpt>
      <trkpt lat="43.392232" lon="-4.124604">
        <ele>109.396</ele>
        <time>2022-08-28T12:32:06Z</time>
      </trkpt>
      <trkpt lat="43.392255" lon="-4.124532">
        <ele>110.091</ele>
        <time>2022-08-28T12:32:09Z</time>
      </trkpt>
      <trkpt lat="43.392280" lon="-4.124462">
        <ele>110.415</ele>
        <time>2022-08-28T12:32:12Z</time>
      </trkpt>
      <trkpt lat="43.392313" lon="-4.124385">
        <ele>111.081</ele>
        <time>2022-08-28T12:32:15Z</time>
      </trkpt>
      <trkpt lat="43.392346" lon="-4.124313">
        <ele>111.424</ele>
        <time>2022-08-28T12:32:18Z</time>
      </trkpt>
      <trkpt lat="43.392378" lon="-4.124245">
        <ele>111.515</ele>
        <time>2022-08-28T12:32:21Z</time>
      </trkpt>
      <trkpt lat="43.392406" lon="-4.124173">
        <ele>111.654</ele>
        <time>2022-08-28T12:32:24Z</time>
      </trkpt>
      <trkpt lat="43.392438" lon="-4.124113">
        <ele>111.856</ele>
        <time>2022-08-28T12:32:27Z</time>
      </trkpt>
      <trkpt lat="43.392468" lon="-4.124050">
        <ele>112.211</ele>
        <time>2022-08-28T12:32:30Z</time>
      </trkpt>
      <trkpt lat="43.392496" lon="-4.123992">
        <ele>112.609</ele>
        <time>2022-08-28T12:32:33Z</time>
      </trkpt>
      <trkpt lat="43.392521" lon="-4.123929">
        <ele>113.376</ele>
        <time>2022-08-28T12:32:36Z</time>
      </trkpt>
      <trkpt lat="43.392549" lon="-4.123869">
        <ele>113.966</ele>
        <time>2022-08-28T12:32:39Z</time>
      </trkpt>
      <trkpt lat="43.392579" lon="-4.123801">
        <ele>114.437</ele>
        <time>2022-08-28T12:32:42Z</time>
      </trkpt>
      <trkpt lat="43.392609" lon="-4.123724">
        <ele>115.065</ele>
        <time>2022-08-28T12:32:45Z</time>
      </trkpt>
      <trkpt lat="43.392639" lon="-4.123641">
        <ele>115.750</ele>
        <time>2022-08-28T12:32:48Z</time>
      </trkpt>
      <trkpt lat="43.392656" lon="-4.123578">
        <ele>116.224</ele>
        <time>2022-08-28T12:32:50Z</time>
      </trkpt>
      <trkpt lat="43.392678" lon="-4.123515">
        <ele>116.410</ele>
        <time>2022-08-28T12:32:52Z</time>
      </trkpt>
      <trkpt lat="43.392701" lon="-4.123432">
        <ele>116.783</ele>
        <time>2022-08-28T12:32:55Z</time>
      </trkpt>
      <trkpt lat="43.392714" lon="-4.123372">
        <ele>116.924</ele>
        <time>2022-08-28T12:32:57Z</time>
      </trkpt>
      <trkpt lat="43.392731" lon="-4.123277">
        <ele>117.584</ele>
        <time>2022-08-28T12:33:00Z</time>
      </trkpt>
      <trkpt lat="43.392744" lon="-4.123210">
        <ele>118.007</ele>
        <time>2022-08-28T12:33:02Z</time>
      </trkpt>
      <trkpt lat="43.392754" lon="-4.123148">
        <ele>118.517</ele>
        <time>2022-08-28T12:33:04Z</time>
      </trkpt>
      <trkpt lat="43.392762" lon="-4.123086">
        <ele>119.009</ele>
        <time>2022-08-28T12:33:06Z</time>
      </trkpt>
      <trkpt lat="43.392769" lon="-4.123011">
        <ele>119.749</ele>
        <time>2022-08-28T12:33:09Z</time>
      </trkpt>
      <trkpt lat="43.392772" lon="-4.122931">
        <ele>120.589</ele>
        <time>2022-08-28T12:33:12Z</time>
      </trkpt>
      <trkpt lat="43.392774" lon="-4.122864">
        <ele>121.270</ele>
        <time>2022-08-28T12:33:14Z</time>
      </trkpt>
      <trkpt lat="43.392784" lon="-4.122794">
        <ele>121.748</ele>
        <time>2022-08-28T12:33:16Z</time>
      </trkpt>
      <trkpt lat="43.392786" lon="-4.122727">
        <ele>122.473</ele>
        <time>2022-08-28T12:33:19Z</time>
      </trkpt>
      <trkpt lat="43.392794" lon="-4.122642">
        <ele>123.177</ele>
        <time>2022-08-28T12:33:23Z</time>
      </trkpt>
      <trkpt lat="43.392799" lon="-4.122574">
        <ele>123.783</ele>
        <time>2022-08-28T12:33:26Z</time>
      </trkpt>
      <trkpt lat="43.392812" lon="-4.122509">
        <ele>124.086</ele>
        <time>2022-08-28T12:33:29Z</time>
      </trkpt>
      <trkpt lat="43.392824" lon="-4.122437">
        <ele>124.547</ele>
        <time>2022-08-28T12:33:32Z</time>
      </trkpt>
      <trkpt lat="43.392836" lon="-4.122365">
        <ele>125.031</ele>
        <time>2022-08-28T12:33:35Z</time>
      </trkpt>
      <trkpt lat="43.392838" lon="-4.122287">
        <ele>125.861</ele>
        <time>2022-08-28T12:33:38Z</time>
      </trkpt>
      <trkpt lat="43.392861" lon="-4.122214">
        <ele>126.007</ele>
        <time>2022-08-28T12:33:41Z</time>
      </trkpt>
      <trkpt lat="43.392879" lon="-4.122141">
        <ele>126.809</ele>
        <time>2022-08-28T12:33:44Z</time>
      </trkpt>
      <trkpt lat="43.392897" lon="-4.122068">
        <ele>127.774</ele>
        <time>2022-08-28T12:33:47Z</time>
      </trkpt>
      <trkpt lat="43.392919" lon="-4.121991">
        <ele>128.674</ele>
        <time>2022-08-28T12:33:50Z</time>
      </trkpt>
      <trkpt lat="43.392939" lon="-4.121908">
        <ele>129.515</ele>
        <time>2022-08-28T12:33:53Z</time>
      </trkpt>
      <trkpt lat="43.392957" lon="-4.121838">
        <ele>129.853</ele>
        <time>2022-08-28T12:33:56Z</time>
      </trkpt>
      <trkpt lat="43.392984" lon="-4.121763">
        <ele>129.828</ele>
        <time>2022-08-28T12:33:59Z</time>
      </trkpt>
      <trkpt lat="43.393011" lon="-4.121695">
        <ele>129.452</ele>
        <time>2022-08-28T12:34:02Z</time>
      </trkpt>
      <trkpt lat="43.393044" lon="-4.121625">
        <ele>129.238</ele>
        <time>2022-08-28T12:34:05Z</time>
      </trkpt>
      <trkpt lat="43.393074" lon="-4.121550">
        <ele>129.941</ele>
        <time>2022-08-28T12:34:08Z</time>
      </trkpt>
      <trkpt lat="43.393106" lon="-4.121480">
        <ele>130.882</ele>
        <time>2022-08-28T12:34:11Z</time>
      </trkpt>
      <trkpt lat="43.393133" lon="-4.121408">
        <ele>131.629</ele>
        <time>2022-08-28T12:34:14Z</time>
      </trkpt>
      <trkpt lat="43.393166" lon="-4.121335">
        <ele>132.500</ele>
        <time>2022-08-28T12:34:17Z</time>
      </trkpt>
      <trkpt lat="43.393199" lon="-4.121258">
        <ele>133.320</ele>
        <time>2022-08-28T12:34:20Z</time>
      </trkpt>
      <trkpt lat="43.393222" lon="-4.121205">
        <ele>133.709</ele>
        <time>2022-08-28T12:34:22Z</time>
      </trkpt>
      <trkpt lat="43.393249" lon="-4.121147">
        <ele>133.963</ele>
        <time>2022-08-28T12:34:24Z</time>
      </trkpt>
      <trkpt lat="43.393284" lon="-4.121065">
        <ele>134.053</ele>
        <time>2022-08-28T12:34:27Z</time>
      </trkpt>
      <trkpt lat="43.393311" lon="-4.121005">
        <ele>133.954</ele>
        <time>2022-08-28T12:34:29Z</time>
      </trkpt>
      <trkpt lat="43.393348" lon="-4.120938">
        <ele>133.812</ele>
        <time>2022-08-28T12:34:31Z</time>
      </trkpt>
      <trkpt lat="43.393385" lon="-4.120871">
        <ele>134.257</ele>
        <time>2022-08-28T12:34:33Z</time>
      </trkpt>
      <trkpt lat="43.393423" lon="-4.120808">
        <ele>134.831</ele>
        <time>2022-08-28T12:34:35Z</time>
      </trkpt>
      <trkpt lat="43.393461" lon="-4.120740">
        <ele>135.597</ele>
        <time>2022-08-28T12:34:37Z</time>
      </trkpt>
      <trkpt lat="43.393491" lon="-4.120675">
        <ele>136.070</ele>
        <time>2022-08-28T12:34:39Z</time>
      </trkpt>
      <trkpt lat="43.393514" lon="-4.120618">
        <ele>136.341</ele>
        <time>2022-08-28T12:34:41Z</time>
      </trkpt>
      <trkpt lat="43.393534" lon="-4.120555">
        <ele>136.776</ele>
        <time>2022-08-28T12:34:43Z</time>
      </trkpt>
      <trkpt lat="43.393552" lon="-4.120493">
        <ele>136.790</ele>
        <time>2022-08-28T12:34:45Z</time>
      </trkpt>
      <trkpt lat="43.393570" lon="-4.120426">
        <ele>136.719</ele>
        <time>2022-08-28T12:34:47Z</time>
      </trkpt>
      <trkpt lat="43.393583" lon="-4.120359">
        <ele>136.709</ele>
        <time>2022-08-28T12:34:49Z</time>
      </trkpt>
      <trkpt lat="43.393595" lon="-4.120289">
        <ele>136.698</ele>
        <time>2022-08-28T12:34:51Z</time>
      </trkpt>
      <trkpt lat="43.393613" lon="-4.120222">
        <ele>136.458</ele>
        <time>2022-08-28T12:34:53Z</time>
      </trkpt>
      <trkpt lat="43.393626" lon="-4.120154">
        <ele>136.889</ele>
        <time>2022-08-28T12:34:55Z</time>
      </trkpt>
      <trkpt lat="43.393639" lon="-4.120082">
        <ele>137.397</ele>
        <time>2022-08-28T12:34:57Z</time>
      </trkpt>
      <trkpt lat="43.393647" lon="-4.120009">
        <ele>137.822</ele>
        <time>2022-08-28T12:34:59Z</time>
      </trkpt>
      <trkpt lat="43.393657" lon="-4.119934">
        <ele>138.376</ele>
        <time>2022-08-28T12:35:01Z</time>
      </trkpt>
      <trkpt lat="43.393657" lon="-4.119861">
        <ele>138.852</ele>
        <time>2022-08-28T12:35:03Z</time>
      </trkpt>
      <trkpt lat="43.393654" lon="-4.119783">
        <ele>139.475</ele>
        <time>2022-08-28T12:35:05Z</time>
      </trkpt>
      <trkpt lat="43.393656" lon="-4.119701">
        <ele>139.876</ele>
        <time>2022-08-28T12:35:07Z</time>
      </trkpt>
      <trkpt lat="43.393664" lon="-4.119619">
        <ele>139.954</ele>
        <time>2022-08-28T12:35:09Z</time>
      </trkpt>
      <trkpt lat="43.393656" lon="-4.119539">
        <ele>139.856</ele>
        <time>2022-08-28T12:35:11Z</time>
      </trkpt>
      <trkpt lat="43.393643" lon="-4.119454">
        <ele>139.611</ele>
        <time>2022-08-28T12:35:13Z</time>
      </trkpt>
      <trkpt lat="43.393633" lon="-4.119367">
        <ele>139.509</ele>
        <time>2022-08-28T12:35:15Z</time>
      </trkpt>
      <trkpt lat="43.393616" lon="-4.119282">
        <ele>139.166</ele>
        <time>2022-08-28T12:35:17Z</time>
      </trkpt>
      <trkpt lat="43.393598" lon="-4.119192">
        <ele>139.486</ele>
        <time>2022-08-28T12:35:19Z</time>
      </trkpt>
      <trkpt lat="43.393576" lon="-4.119099">
        <ele>140.027</ele>
        <time>2022-08-28T12:35:21Z</time>
      </trkpt>
      <trkpt lat="43.393551" lon="-4.119004">
        <ele>140.695</ele>
        <time>2022-08-28T12:35:23Z</time>
      </trkpt>
      <trkpt lat="43.393526" lon="-4.118912">
        <ele>140.980</ele>
        <time>2022-08-28T12:35:25Z</time>
      </trkpt>
      <trkpt lat="43.393503" lon="-4.118822">
        <ele>141.264</ele>
        <time>2022-08-28T12:35:27Z</time>
      </trkpt>
      <trkpt lat="43.393478" lon="-4.118722">
        <ele>141.360</ele>
        <time>2022-08-28T12:35:29Z</time>
      </trkpt>
      <trkpt lat="43.393446" lon="-4.118620">
        <ele>141.223</ele>
        <time>2022-08-28T12:35:31Z</time>
      </trkpt>
      <trkpt lat="43.393414" lon="-4.118520">
        <ele>140.934</ele>
        <time>2022-08-28T12:35:33Z</time>
      </trkpt>
      <trkpt lat="43.393386" lon="-4.118423">
        <ele>140.273</ele>
        <time>2022-08-28T12:35:35Z</time>
      </trkpt>
      <trkpt lat="43.393368" lon="-4.118335">
        <ele>139.485</ele>
        <time>2022-08-28T12:35:37Z</time>
      </trkpt>
      <trkpt lat="43.393356" lon="-4.118245">
        <ele>138.913</ele>
        <time>2022-08-28T12:35:39Z</time>
      </trkpt>
      <trkpt lat="43.393353" lon="-4.118152">
        <ele>138.609</ele>
        <time>2022-08-28T12:35:41Z</time>
      </trkpt>
      <trkpt lat="43.393351" lon="-4.118050">
        <ele>138.258</ele>
        <time>2022-08-28T12:35:43Z</time>
      </trkpt>
      <trkpt lat="43.393346" lon="-4.117945">
        <ele>137.748</ele>
        <time>2022-08-28T12:35:45Z</time>
      </trkpt>
      <trkpt lat="43.393321" lon="-4.117838">
        <ele>137.219</ele>
        <time>2022-08-28T12:35:47Z</time>
      </trkpt>
      <trkpt lat="43.393294" lon="-4.117786">
        <ele>137.057</ele>
        <time>2022-08-28T12:35:48Z</time>
      </trkpt>
      <trkpt lat="43.393262" lon="-4.117736">
        <ele>137.082</ele>
        <time>2022-08-28T12:35:49Z</time>
      </trkpt>
      <trkpt lat="43.393207" lon="-4.117628">
        <ele>136.886</ele>
        <time>2022-08-28T12:35:51Z</time>
      </trkpt>
      <trkpt lat="43.393180" lon="-4.117500">
        <ele>136.392</ele>
        <time>2022-08-28T12:35:53Z</time>
      </trkpt>
      <trkpt lat="43.393177" lon="-4.117432">
        <ele>136.185</ele>
        <time>2022-08-28T12:35:54Z</time>
      </trkpt>
      <trkpt lat="43.393184" lon="-4.117364">
        <ele>135.946</ele>
        <time>2022-08-28T12:35:55Z</time>
      </trkpt>
      <trkpt lat="43.393217" lon="-4.117234">
        <ele>135.856</ele>
        <time>2022-08-28T12:35:57Z</time>
      </trkpt>
      <trkpt lat="43.393247" lon="-4.117111">
        <ele>135.359</ele>
        <time>2022-08-28T12:35:59Z</time>
      </trkpt>
      <trkpt lat="43.393254" lon="-4.116983">
        <ele>134.514</ele>
        <time>2022-08-28T12:36:01Z</time>
      </trkpt>
      <trkpt lat="43.393254" lon="-4.116850">
        <ele>133.509</ele>
        <time>2022-08-28T12:36:03Z</time>
      </trkpt>
      <trkpt lat="43.393264" lon="-4.116777">
        <ele>133.146</ele>
        <time>2022-08-28T12:36:04Z</time>
      </trkpt>
      <trkpt lat="43.393311" lon="-4.116622">
        <ele>133.086</ele>
        <time>2022-08-28T12:36:06Z</time>
      </trkpt>
      <trkpt lat="43.393343" lon="-4.116537">
        <ele>132.747</ele>
        <time>2022-08-28T12:36:07Z</time>
      </trkpt>
      <trkpt lat="43.393401" lon="-4.116349">
        <ele>131.445</ele>
        <time>2022-08-28T12:36:09Z</time>
      </trkpt>
      <trkpt lat="43.393434" lon="-4.116116">
        <ele>128.960</ele>
        <time>2022-08-28T12:36:11Z</time>
      </trkpt>
      <trkpt lat="43.393436" lon="-4.115988">
        <ele>129.054</ele>
        <time>2022-08-28T12:36:12Z</time>
      </trkpt>
      <trkpt lat="43.393424" lon="-4.115860">
        <ele>128.920</ele>
        <time>2022-08-28T12:36:13Z</time>
      </trkpt>
      <trkpt lat="43.393401" lon="-4.115730">
        <ele>128.463</ele>
        <time>2022-08-28T12:36:14Z</time>
      </trkpt>
      <trkpt lat="43.393369" lon="-4.115600">
        <ele>127.744</ele>
        <time>2022-08-28T12:36:15Z</time>
      </trkpt>
      <trkpt lat="43.393302" lon="-4.115338">
        <ele>126.356</ele>
        <time>2022-08-28T12:36:17Z</time>
      </trkpt>
      <trkpt lat="43.393232" lon="-4.115068">
        <ele>124.059</ele>
        <time>2022-08-28T12:36:19Z</time>
      </trkpt>
      <trkpt lat="43.393160" lon="-4.114790">
        <ele>121.714</ele>
        <time>2022-08-28T12:36:21Z</time>
      </trkpt>
      <trkpt lat="43.393122" lon="-4.114648">
        <ele>120.909</ele>
        <time>2022-08-28T12:36:22Z</time>
      </trkpt>
      <trkpt lat="43.393084" lon="-4.114508">
        <ele>120.386</ele>
        <time>2022-08-28T12:36:23Z</time>
      </trkpt>
      <trkpt lat="43.393006" lon="-4.114235">
        <ele>119.236</ele>
        <time>2022-08-28T12:36:25Z</time>
      </trkpt>
      <trkpt lat="43.392913" lon="-4.113975">
        <ele>117.837</ele>
        <time>2022-08-28T12:36:27Z</time>
      </trkpt>
      <trkpt lat="43.392863" lon="-4.113845">
        <ele>117.255</ele>
        <time>2022-08-28T12:36:28Z</time>
      </trkpt>
      <trkpt lat="43.392815" lon="-4.113718">
        <ele>116.560</ele>
        <time>2022-08-28T12:36:29Z</time>
      </trkpt>
      <trkpt lat="43.392703" lon="-4.113481">
        <ele>114.834</ele>
        <time>2022-08-28T12:36:31Z</time>
      </trkpt>
      <trkpt lat="43.392638" lon="-4.113371">
        <ele>113.950</ele>
        <time>2022-08-28T12:36:32Z</time>
      </trkpt>
      <trkpt lat="43.392488" lon="-4.113166">
        <ele>111.893</ele>
        <time>2022-08-28T12:36:34Z</time>
      </trkpt>
      <trkpt lat="43.392315" lon="-4.112983">
        <ele>109.754</ele>
        <time>2022-08-28T12:36:36Z</time>
      </trkpt>
      <trkpt lat="43.392223" lon="-4.112895">
        <ele>108.642</ele>
        <time>2022-08-28T12:36:37Z</time>
      </trkpt>
      <trkpt lat="43.392030" lon="-4.112722">
        <ele>106.622</ele>
        <time>2022-08-28T12:36:39Z</time>
      </trkpt>
      <trkpt lat="43.391930" lon="-4.112637">
        <ele>105.814</ele>
        <time>2022-08-28T12:36:40Z</time>
      </trkpt>
      <trkpt lat="43.391730" lon="-4.112464">
        <ele>104.109</ele>
        <time>2022-08-28T12:36:42Z</time>
      </trkpt>
      <trkpt lat="43.391632" lon="-4.112377">
        <ele>103.315</ele>
        <time>2022-08-28T12:36:43Z</time>
      </trkpt>
      <trkpt lat="43.391435" lon="-4.112205">
        <ele>101.815</ele>
        <time>2022-08-28T12:36:45Z</time>
      </trkpt>
      <trkpt lat="43.391233" lon="-4.112035">
        <ele>100.676</ele>
        <time>2022-08-28T12:36:47Z</time>
      </trkpt>
      <trkpt lat="43.391036" lon="-4.111863">
        <ele>99.094</ele>
        <time>2022-08-28T12:36:49Z</time>
      </trkpt>
      <trkpt lat="43.390936" lon="-4.111775">
        <ele>97.849</ele>
        <time>2022-08-28T12:36:50Z</time>
      </trkpt>
      <trkpt lat="43.390734" lon="-4.111597">
        <ele>96.263</ele>
        <time>2022-08-28T12:36:52Z</time>
      </trkpt>
      <trkpt lat="43.390552" lon="-4.111392">
        <ele>95.969</ele>
        <time>2022-08-28T12:36:54Z</time>
      </trkpt>
      <trkpt lat="43.390394" lon="-4.111149">
        <ele>93.692</ele>
        <time>2022-08-28T12:36:56Z</time>
      </trkpt>
      <trkpt lat="43.390322" lon="-4.111021">
        <ele>92.653</ele>
        <time>2022-08-28T12:36:57Z</time>
      </trkpt>
      <trkpt lat="43.390255" lon="-4.110894">
        <ele>91.582</ele>
        <time>2022-08-28T12:36:58Z</time>
      </trkpt>
      <trkpt lat="43.390192" lon="-4.110764">
        <ele>90.143</ele>
        <time>2022-08-28T12:36:59Z</time>
      </trkpt>
      <trkpt lat="43.390055" lon="-4.110521">
        <ele>87.917</ele>
        <time>2022-08-28T12:37:01Z</time>
      </trkpt>
      <trkpt lat="43.389978" lon="-4.110409">
        <ele>87.209</ele>
        <time>2022-08-28T12:37:02Z</time>
      </trkpt>
      <trkpt lat="43.389806" lon="-4.110222">
        <ele>85.399</ele>
        <time>2022-08-28T12:37:04Z</time>
      </trkpt>
      <trkpt lat="43.389613" lon="-4.110054">
        <ele>83.559</ele>
        <time>2022-08-28T12:37:06Z</time>
      </trkpt>
      <trkpt lat="43.389428" lon="-4.109892">
        <ele>82.310</ele>
        <time>2022-08-28T12:37:08Z</time>
      </trkpt>
      <trkpt lat="43.389291" lon="-4.109709">
        <ele>82.588</ele>
        <time>2022-08-28T12:37:10Z</time>
      </trkpt>
      <trkpt lat="43.389179" lon="-4.109497">
        <ele>82.993</ele>
        <time>2022-08-28T12:37:12Z</time>
      </trkpt>
      <trkpt lat="43.389127" lon="-4.109385">
        <ele>82.727</ele>
        <time>2022-08-28T12:37:13Z</time>
      </trkpt>
      <trkpt lat="43.389077" lon="-4.109267">
        <ele>82.483</ele>
        <time>2022-08-28T12:37:14Z</time>
      </trkpt>
      <trkpt lat="43.388989" lon="-4.109037">
        <ele>82.096</ele>
        <time>2022-08-28T12:37:16Z</time>
      </trkpt>
      <trkpt lat="43.388959" lon="-4.108924">
        <ele>82.277</ele>
        <time>2022-08-28T12:37:17Z</time>
      </trkpt>
      <trkpt lat="43.388911" lon="-4.108742">
        <ele>82.692</ele>
        <time>2022-08-28T12:37:19Z</time>
      </trkpt>
      <trkpt lat="43.388904" lon="-4.108634">
        <ele>82.973</ele>
        <time>2022-08-28T12:37:21Z</time>
      </trkpt>
      <trkpt lat="43.388947" lon="-4.108701">
        <ele>82.720</ele>
        <time>2022-08-28T12:37:24Z</time>
      </trkpt>
      <trkpt lat="43.388964" lon="-4.108773">
        <ele>82.609</ele>
        <time>2022-08-28T12:37:26Z</time>
      </trkpt>
      <trkpt lat="43.388991" lon="-4.108863">
        <ele>82.470</ele>
        <time>2022-08-28T12:37:28Z</time>
      </trkpt>
      <trkpt lat="43.389018" lon="-4.108950">
        <ele>82.350</ele>
        <time>2022-08-28T12:37:30Z</time>
      </trkpt>
      <trkpt lat="43.389048" lon="-4.109043">
        <ele>82.331</ele>
        <time>2022-08-28T12:37:32Z</time>
      </trkpt>
      <trkpt lat="43.389071" lon="-4.109116">
        <ele>82.449</ele>
        <time>2022-08-28T12:37:34Z</time>
      </trkpt>
      <trkpt lat="43.389109" lon="-4.109058">
        <ele>82.714</ele>
        <time>2022-08-28T12:37:46Z</time>
      </trkpt>
      <trkpt lat="43.389156" lon="-4.109043">
        <ele>82.968</ele>
        <time>2022-08-28T12:37:49Z</time>
      </trkpt>
      <trkpt lat="43.389209" lon="-4.109013">
        <ele>83.264</ele>
        <time>2022-08-28T12:37:52Z</time>
      </trkpt>
      <trkpt lat="43.389269" lon="-4.108981">
        <ele>83.457</ele>
        <time>2022-08-28T12:37:55Z</time>
      </trkpt>
      <trkpt lat="43.389321" lon="-4.108943">
        <ele>83.668</ele>
        <time>2022-08-28T12:37:58Z</time>
      </trkpt>
      <trkpt lat="43.389366" lon="-4.108910">
        <ele>83.759</ele>
        <time>2022-08-28T12:38:01Z</time>
      </trkpt>
      <trkpt lat="43.389418" lon="-4.108887">
        <ele>83.903</ele>
        <time>2022-08-28T12:38:05Z</time>
      </trkpt>
      <trkpt lat="43.389471" lon="-4.108872">
        <ele>84.223</ele>
        <time>2022-08-28T12:38:09Z</time>
      </trkpt>
      <trkpt lat="43.389519" lon="-4.108850">
        <ele>84.509</ele>
        <time>2022-08-28T12:38:12Z</time>
      </trkpt>
      <trkpt lat="43.389526" lon="-4.108712">
        <ele>84.426</ele>
        <time>2022-08-28T12:38:42Z</time>
      </trkpt>
      <trkpt lat="43.389544" lon="-4.108835">
        <ele>84.626</ele>
        <time>2022-08-28T12:39:07Z</time>
      </trkpt>
      <trkpt lat="43.389566" lon="-4.108780">
        <ele>84.787</ele>
        <time>2022-08-28T12:41:10Z</time>
      </trkpt>
      <trkpt lat="43.389609" lon="-4.108747">
        <ele>84.965</ele>
        <time>2022-08-28T12:41:13Z</time>
      </trkpt>
      <trkpt lat="43.389647" lon="-4.108702">
        <ele>85.010</ele>
        <time>2022-08-28T12:41:16Z</time>
      </trkpt>
      <trkpt lat="43.389685" lon="-4.108642">
        <ele>85.034</ele>
        <time>2022-08-28T12:41:19Z</time>
      </trkpt>
      <trkpt lat="43.389710" lon="-4.108574">
        <ele>85.090</ele>
        <time>2022-08-28T12:41:22Z</time>
      </trkpt>
      <trkpt lat="43.389758" lon="-4.108501">
        <ele>85.363</ele>
        <time>2022-08-28T12:41:25Z</time>
      </trkpt>
      <trkpt lat="43.389801" lon="-4.108471">
        <ele>85.654</ele>
        <time>2022-08-28T12:41:29Z</time>
      </trkpt>
      <trkpt lat="43.389826" lon="-4.108418">
        <ele>85.737</ele>
        <time>2022-08-28T12:41:32Z</time>
      </trkpt>
      <trkpt lat="43.389799" lon="-4.108361">
        <ele>85.649</ele>
        <time>2022-08-28T12:41:35Z</time>
      </trkpt>
      <trkpt lat="43.389749" lon="-4.108296">
        <ele>85.113</ele>
        <time>2022-08-28T12:41:38Z</time>
      </trkpt>
      <trkpt lat="43.389709" lon="-4.108249">
        <ele>84.609</ele>
        <time>2022-08-28T12:41:40Z</time>
      </trkpt>
      <trkpt lat="43.389681" lon="-4.108191">
        <ele>84.374</ele>
        <time>2022-08-28T12:41:42Z</time>
      </trkpt>
      <trkpt lat="43.389653" lon="-4.108129">
        <ele>84.074</ele>
        <time>2022-08-28T12:41:44Z</time>
      </trkpt>
      <trkpt lat="43.389626" lon="-4.108072">
        <ele>83.725</ele>
        <time>2022-08-28T12:41:46Z</time>
      </trkpt>
      <trkpt lat="43.389596" lon="-4.108025">
        <ele>83.593</ele>
        <time>2022-08-28T12:41:48Z</time>
      </trkpt>
      <trkpt lat="43.389564" lon="-4.107975">
        <ele>83.468</ele>
        <time>2022-08-28T12:41:50Z</time>
      </trkpt>
      <trkpt lat="43.389524" lon="-4.107915">
        <ele>83.392</ele>
        <time>2022-08-28T12:41:53Z</time>
      </trkpt>
      <trkpt lat="43.389492" lon="-4.107843">
        <ele>83.258</ele>
        <time>2022-08-28T12:41:56Z</time>
      </trkpt>
      <trkpt lat="43.389525" lon="-4.107793">
        <ele>83.341</ele>
        <time>2022-08-28T12:42:00Z</time>
      </trkpt>
      <trkpt lat="43.389568" lon="-4.107728">
        <ele>83.222</ele>
        <time>2022-08-28T12:42:03Z</time>
      </trkpt>
      <trkpt lat="43.389615" lon="-4.107681">
        <ele>83.159</ele>
        <time>2022-08-28T12:42:05Z</time>
      </trkpt>
      <trkpt lat="43.389665" lon="-4.107633">
        <ele>83.203</ele>
        <time>2022-08-28T12:42:08Z</time>
      </trkpt>
      <trkpt lat="43.389708" lon="-4.107595">
        <ele>83.323</ele>
        <time>2022-08-28T12:42:11Z</time>
      </trkpt>
      <trkpt lat="43.389755" lon="-4.107552">
        <ele>83.509</ele>
        <time>2022-08-28T12:42:15Z</time>
      </trkpt>
      <trkpt lat="43.389797" lon="-4.107494">
        <ele>83.846</ele>
        <time>2022-08-28T12:42:18Z</time>
      </trkpt>
      <trkpt lat="43.389830" lon="-4.107452">
        <ele>84.116</ele>
        <time>2022-08-28T12:42:20Z</time>
      </trkpt>
      <trkpt lat="43.389870" lon="-4.107385">
        <ele>84.427</ele>
        <time>2022-08-28T12:42:23Z</time>
      </trkpt>
      <trkpt lat="43.389900" lon="-4.107338">
        <ele>84.585</ele>
        <time>2022-08-28T12:42:25Z</time>
      </trkpt>
      <trkpt lat="43.389937" lon="-4.107275">
        <ele>84.740</ele>
        <time>2022-08-28T12:42:28Z</time>
      </trkpt>
      <trkpt lat="43.389974" lon="-4.107227">
        <ele>84.884</ele>
        <time>2022-08-28T12:42:30Z</time>
      </trkpt>
      <trkpt lat="43.390009" lon="-4.107165">
        <ele>84.850</ele>
        <time>2022-08-28T12:42:33Z</time>
      </trkpt>
      <trkpt lat="43.390056" lon="-4.107127">
        <ele>84.923</ele>
        <time>2022-08-28T12:42:37Z</time>
      </trkpt>
      <trkpt lat="43.390104" lon="-4.107077">
        <ele>84.884</ele>
        <time>2022-08-28T12:42:41Z</time>
      </trkpt>
      <trkpt lat="43.390137" lon="-4.107020">
        <ele>84.542</ele>
        <time>2022-08-28T12:42:44Z</time>
      </trkpt>
      <trkpt lat="43.390190" lon="-4.106990">
        <ele>84.422</ele>
        <time>2022-08-28T12:42:47Z</time>
      </trkpt>
      <trkpt lat="43.390243" lon="-4.106902">
        <ele>83.814</ele>
        <time>2022-08-28T12:42:51Z</time>
      </trkpt>
      <trkpt lat="43.390290" lon="-4.106872">
        <ele>83.709</ele>
        <time>2022-08-28T12:42:53Z</time>
      </trkpt>
      <trkpt lat="43.390325" lon="-4.106827">
        <ele>83.665</ele>
        <time>2022-08-28T12:42:55Z</time>
      </trkpt>
      <trkpt lat="43.390373" lon="-4.106789">
        <ele>83.455</ele>
        <time>2022-08-28T12:42:57Z</time>
      </trkpt>
      <trkpt lat="43.390425" lon="-4.106749">
        <ele>83.386</ele>
        <time>2022-08-28T12:43:00Z</time>
      </trkpt>
      <trkpt lat="43.390463" lon="-4.106697">
        <ele>83.164</ele>
        <time>2022-08-28T12:43:05Z</time>
      </trkpt>
      <trkpt lat="43.390530" lon="-4.106660">
        <ele>82.959</ele>
        <time>2022-08-28T12:43:19Z</time>
      </trkpt>
      <trkpt lat="43.390562" lon="-4.106615">
        <ele>82.473</ele>
        <time>2022-08-28T12:43:40Z</time>
      </trkpt>
      <trkpt lat="43.390415" lon="-4.106778">
        <ele>83.455</ele>
        <time>2022-08-28T13:45:54Z</time>
      </trkpt>
      <trkpt lat="43.390363" lon="-4.106796">
        <ele>83.407</ele>
        <time>2022-08-28T13:46:01Z</time>
      </trkpt>
      <trkpt lat="43.390306" lon="-4.106859">
        <ele>83.717</ele>
        <time>2022-08-28T13:46:04Z</time>
      </trkpt>
      <trkpt lat="43.390258" lon="-4.106889">
        <ele>83.609</ele>
        <time>2022-08-28T13:46:06Z</time>
      </trkpt>
      <trkpt lat="43.390221" lon="-4.106937">
        <ele>83.676</ele>
        <time>2022-08-28T13:46:08Z</time>
      </trkpt>
      <trkpt lat="43.390179" lon="-4.106982">
        <ele>83.536</ele>
        <time>2022-08-28T13:46:10Z</time>
      </trkpt>
      <trkpt lat="43.390137" lon="-4.107022">
        <ele>83.687</ele>
        <time>2022-08-28T13:46:12Z</time>
      </trkpt>
      <trkpt lat="43.390094" lon="-4.107084">
        <ele>83.626</ele>
        <time>2022-08-28T13:46:15Z</time>
      </trkpt>
      <trkpt lat="43.390047" lon="-4.107136">
        <ele>83.615</ele>
        <time>2022-08-28T13:46:18Z</time>
      </trkpt>
      <trkpt lat="43.390009" lon="-4.107178">
        <ele>83.693</ele>
        <time>2022-08-28T13:46:20Z</time>
      </trkpt>
      <trkpt lat="43.389962" lon="-4.107226">
        <ele>83.627</ele>
        <time>2022-08-28T13:46:22Z</time>
      </trkpt>
      <trkpt lat="43.389917" lon="-4.107279">
        <ele>83.686</ele>
        <time>2022-08-28T13:46:24Z</time>
      </trkpt>
      <trkpt lat="43.389879" lon="-4.107331">
        <ele>83.482</ele>
        <time>2022-08-28T13:46:26Z</time>
      </trkpt>
      <trkpt lat="43.389836" lon="-4.107396">
        <ele>82.967</ele>
        <time>2022-08-28T13:46:28Z</time>
      </trkpt>
      <trkpt lat="43.389796" lon="-4.107469">
        <ele>82.781</ele>
        <time>2022-08-28T13:46:30Z</time>
      </trkpt>
      <trkpt lat="43.389749" lon="-4.107541">
        <ele>82.519</ele>
        <time>2022-08-28T13:46:32Z</time>
      </trkpt>
      <trkpt lat="43.389712" lon="-4.107608">
        <ele>82.709</ele>
        <time>2022-08-28T13:46:34Z</time>
      </trkpt>
      <trkpt lat="43.389669" lon="-4.107671">
        <ele>82.637</ele>
        <time>2022-08-28T13:46:36Z</time>
      </trkpt>
      <trkpt lat="43.389616" lon="-4.107731">
        <ele>82.617</ele>
        <time>2022-08-28T13:46:38Z</time>
      </trkpt>
      <trkpt lat="43.389564" lon="-4.107783">
        <ele>82.678</ele>
        <time>2022-08-28T13:46:40Z</time>
      </trkpt>
      <trkpt lat="43.389507" lon="-4.107810">
        <ele>81.747</ele>
        <time>2022-08-28T13:46:42Z</time>
      </trkpt>
      <trkpt lat="43.389450" lon="-4.107815">
        <ele>81.526</ele>
        <time>2022-08-28T13:46:44Z</time>
      </trkpt>
      <trkpt lat="43.389402" lon="-4.107827">
        <ele>81.554</ele>
        <time>2022-08-28T13:46:46Z</time>
      </trkpt>
      <trkpt lat="43.389337" lon="-4.107827">
        <ele>81.318</ele>
        <time>2022-08-28T13:46:49Z</time>
      </trkpt>
      <trkpt lat="43.389290" lon="-4.107819">
        <ele>81.127</ele>
        <time>2022-08-28T13:46:51Z</time>
      </trkpt>
      <trkpt lat="43.389228" lon="-4.107827">
        <ele>80.813</ele>
        <time>2022-08-28T13:46:54Z</time>
      </trkpt>
      <trkpt lat="43.389160" lon="-4.107830">
        <ele>80.644</ele>
        <time>2022-08-28T13:46:57Z</time>
      </trkpt>
      <trkpt lat="43.389105" lon="-4.107853">
        <ele>80.405</ele>
        <time>2022-08-28T13:46:59Z</time>
      </trkpt>
      <trkpt lat="43.389052" lon="-4.107883">
        <ele>80.315</ele>
        <time>2022-08-28T13:47:01Z</time>
      </trkpt>
      <trkpt lat="43.389009" lon="-4.107903">
        <ele>80.409</ele>
        <time>2022-08-28T13:47:03Z</time>
      </trkpt>
      <trkpt lat="43.388966" lon="-4.107946">
        <ele>81.065</ele>
        <time>2022-08-28T13:47:06Z</time>
      </trkpt>
      <trkpt lat="43.388916" lon="-4.107964">
        <ele>84.685</ele>
        <time>2022-08-28T13:47:09Z</time>
      </trkpt>
      <trkpt lat="43.388879" lon="-4.108002">
        <ele>85.156</ele>
        <time>2022-08-28T13:47:12Z</time>
      </trkpt>
      <trkpt lat="43.388829" lon="-4.108039">
        <ele>84.395</ele>
        <time>2022-08-28T13:47:16Z</time>
      </trkpt>
      <trkpt lat="43.388796" lon="-4.108084">
        <ele>83.954</ele>
        <time>2022-08-28T13:47:20Z</time>
      </trkpt>
      <trkpt lat="43.388734" lon="-4.108086">
        <ele>85.252</ele>
        <time>2022-08-28T13:48:05Z</time>
      </trkpt>
      <trkpt lat="43.388689" lon="-4.108044">
        <ele>85.216</ele>
        <time>2022-08-28T13:48:07Z</time>
      </trkpt>
      <trkpt lat="43.388649" lon="-4.107962">
        <ele>85.255</ele>
        <time>2022-08-28T13:48:09Z</time>
      </trkpt>
      <trkpt lat="43.388621" lon="-4.107877">
        <ele>85.211</ele>
        <time>2022-08-28T13:48:11Z</time>
      </trkpt>
      <trkpt lat="43.388603" lon="-4.107795">
        <ele>88.036</ele>
        <time>2022-08-28T13:48:13Z</time>
      </trkpt>
      <trkpt lat="43.388580" lon="-4.107735">
        <ele>88.117</ele>
        <time>2022-08-28T13:48:15Z</time>
      </trkpt>
      <trkpt lat="43.388557" lon="-4.107672">
        <ele>88.218</ele>
        <time>2022-08-28T13:48:17Z</time>
      </trkpt>
      <trkpt lat="43.388532" lon="-4.107612">
        <ele>88.209</ele>
        <time>2022-08-28T13:48:19Z</time>
      </trkpt>
      <trkpt lat="43.388502" lon="-4.107530">
        <ele>88.444</ele>
        <time>2022-08-28T13:48:22Z</time>
      </trkpt>
      <trkpt lat="43.388480" lon="-4.107468">
        <ele>88.744</ele>
        <time>2022-08-28T13:48:24Z</time>
      </trkpt>
      <trkpt lat="43.388457" lon="-4.107413">
        <ele>89.285</ele>
        <time>2022-08-28T13:48:26Z</time>
      </trkpt>
      <trkpt lat="43.388442" lon="-4.107348">
        <ele>89.324</ele>
        <time>2022-08-28T13:48:28Z</time>
      </trkpt>
      <trkpt lat="43.388414" lon="-4.107268">
        <ele>89.853</ele>
        <time>2022-08-28T13:48:31Z</time>
      </trkpt>
      <trkpt lat="43.388396" lon="-4.107206">
        <ele>90.341</ele>
        <time>2022-08-28T13:48:33Z</time>
      </trkpt>
      <trkpt lat="43.388374" lon="-4.107146">
        <ele>90.885</ele>
        <time>2022-08-28T13:48:35Z</time>
      </trkpt>
      <trkpt lat="43.388346" lon="-4.107063">
        <ele>92.114</ele>
        <time>2022-08-28T13:48:38Z</time>
      </trkpt>
      <trkpt lat="43.388329" lon="-4.107005">
        <ele>92.360</ele>
        <time>2022-08-28T13:48:40Z</time>
      </trkpt>
      <trkpt lat="43.388299" lon="-4.106925">
        <ele>92.593</ele>
        <time>2022-08-28T13:48:43Z</time>
      </trkpt>
      <trkpt lat="43.388274" lon="-4.106865">
        <ele>93.065</ele>
        <time>2022-08-28T13:48:45Z</time>
      </trkpt>
      <trkpt lat="43.388252" lon="-4.106805">
        <ele>93.321</ele>
        <time>2022-08-28T13:48:47Z</time>
      </trkpt>
      <trkpt lat="43.388230" lon="-4.106742">
        <ele>93.509</ele>
        <time>2022-08-28T13:48:49Z</time>
      </trkpt>
      <trkpt lat="43.388210" lon="-4.106685">
        <ele>94.260</ele>
        <time>2022-08-28T13:48:51Z</time>
      </trkpt>
      <trkpt lat="43.388192" lon="-4.106623">
        <ele>95.350</ele>
        <time>2022-08-28T13:48:53Z</time>
      </trkpt>
      <trkpt lat="43.388167" lon="-4.106560">
        <ele>95.781</ele>
        <time>2022-08-28T13:48:55Z</time>
      </trkpt>
      <trkpt lat="43.388145" lon="-4.106498">
        <ele>96.040</ele>
        <time>2022-08-28T13:48:57Z</time>
      </trkpt>
      <trkpt lat="43.388125" lon="-4.106438">
        <ele>96.329</ele>
        <time>2022-08-28T13:48:59Z</time>
      </trkpt>
      <trkpt lat="43.388102" lon="-4.106381">
        <ele>96.557</ele>
        <time>2022-08-28T13:49:01Z</time>
      </trkpt>
      <trkpt lat="43.388084" lon="-4.106316">
        <ele>96.561</ele>
        <time>2022-08-28T13:49:03Z</time>
      </trkpt>
      <trkpt lat="43.388069" lon="-4.106244">
        <ele>96.680</ele>
        <time>2022-08-28T13:49:05Z</time>
      </trkpt>
      <trkpt lat="43.388049" lon="-4.106181">
        <ele>97.876</ele>
        <time>2022-08-28T13:49:07Z</time>
      </trkpt>
      <trkpt lat="43.388022" lon="-4.106123">
        <ele>98.524</ele>
        <time>2022-08-28T13:49:09Z</time>
      </trkpt>
      <trkpt lat="43.387997" lon="-4.106061">
        <ele>98.604</ele>
        <time>2022-08-28T13:49:11Z</time>
      </trkpt>
      <trkpt lat="43.387974" lon="-4.105996">
        <ele>98.814</ele>
        <time>2022-08-28T13:49:13Z</time>
      </trkpt>
      <trkpt lat="43.387954" lon="-4.105929">
        <ele>98.809</ele>
        <time>2022-08-28T13:49:15Z</time>
      </trkpt>
      <trkpt lat="43.387931" lon="-4.105862">
        <ele>98.883</ele>
        <time>2022-08-28T13:49:17Z</time>
      </trkpt>
      <trkpt lat="43.387911" lon="-4.105799">
        <ele>99.163</ele>
        <time>2022-08-28T13:49:19Z</time>
      </trkpt>
      <trkpt lat="43.387893" lon="-4.105737">
        <ele>99.384</ele>
        <time>2022-08-28T13:49:21Z</time>
      </trkpt>
      <trkpt lat="43.387873" lon="-4.105675">
        <ele>99.613</ele>
        <time>2022-08-28T13:49:23Z</time>
      </trkpt>
      <trkpt lat="43.387843" lon="-4.105613">
        <ele>100.012</ele>
        <time>2022-08-28T13:49:25Z</time>
      </trkpt>
      <trkpt lat="43.387818" lon="-4.105550">
        <ele>100.630</ele>
        <time>2022-08-28T13:49:27Z</time>
      </trkpt>
      <trkpt lat="43.387795" lon="-4.105478">
        <ele>101.114</ele>
        <time>2022-08-28T13:49:29Z</time>
      </trkpt>
      <trkpt lat="43.387773" lon="-4.105408">
        <ele>101.143</ele>
        <time>2022-08-28T13:49:31Z</time>
      </trkpt>
      <trkpt lat="43.387753" lon="-4.105341">
        <ele>101.339</ele>
        <time>2022-08-28T13:49:33Z</time>
      </trkpt>
      <trkpt lat="43.387733" lon="-4.105273">
        <ele>101.253</ele>
        <time>2022-08-28T13:49:35Z</time>
      </trkpt>
      <trkpt lat="43.387713" lon="-4.105208">
        <ele>101.204</ele>
        <time>2022-08-28T13:49:37Z</time>
      </trkpt>
      <trkpt lat="43.387693" lon="-4.105140">
        <ele>101.214</ele>
        <time>2022-08-28T13:49:39Z</time>
      </trkpt>
      <trkpt lat="43.387671" lon="-4.105072">
        <ele>101.209</ele>
        <time>2022-08-28T13:49:41Z</time>
      </trkpt>
      <trkpt lat="43.387649" lon="-4.105000">
        <ele>101.246</ele>
        <time>2022-08-28T13:49:43Z</time>
      </trkpt>
      <trkpt lat="43.387631" lon="-4.104925">
        <ele>102.056</ele>
        <time>2022-08-28T13:49:45Z</time>
      </trkpt>
      <trkpt lat="43.387609" lon="-4.104848">
        <ele>103.677</ele>
        <time>2022-08-28T13:49:47Z</time>
      </trkpt>
      <trkpt lat="43.387597" lon="-4.104775">
        <ele>105.556</ele>
        <time>2022-08-28T13:49:49Z</time>
      </trkpt>
      <trkpt lat="43.387609" lon="-4.104710">
        <ele>106.825</ele>
        <time>2022-08-28T13:49:51Z</time>
      </trkpt>
      <trkpt lat="43.387616" lon="-4.104637">
        <ele>106.883</ele>
        <time>2022-08-28T13:49:53Z</time>
      </trkpt>
      <trkpt lat="43.387613" lon="-4.104565">
        <ele>106.877</ele>
        <time>2022-08-28T13:49:55Z</time>
      </trkpt>
      <trkpt lat="43.387620" lon="-4.104493">
        <ele>106.426</ele>
        <time>2022-08-28T13:49:57Z</time>
      </trkpt>
      <trkpt lat="43.387618" lon="-4.104398">
        <ele>106.172</ele>
        <time>2022-08-28T13:50:00Z</time>
      </trkpt>
      <trkpt lat="43.387621" lon="-4.104326">
        <ele>105.487</ele>
        <time>2022-08-28T13:50:02Z</time>
      </trkpt>
      <trkpt lat="43.387633" lon="-4.104256">
        <ele>105.442</ele>
        <time>2022-08-28T13:50:04Z</time>
      </trkpt>
      <trkpt lat="43.387645" lon="-4.104181">
        <ele>105.426</ele>
        <time>2022-08-28T13:50:06Z</time>
      </trkpt>
      <trkpt lat="43.387663" lon="-4.104116">
        <ele>106.209</ele>
        <time>2022-08-28T13:50:08Z</time>
      </trkpt>
      <trkpt lat="43.387683" lon="-4.104048">
        <ele>106.319</ele>
        <time>2022-08-28T13:50:10Z</time>
      </trkpt>
      <trkpt lat="43.387703" lon="-4.103980">
        <ele>106.329</ele>
        <time>2022-08-28T13:50:12Z</time>
      </trkpt>
      <trkpt lat="43.387721" lon="-4.103905">
        <ele>106.320</ele>
        <time>2022-08-28T13:50:14Z</time>
      </trkpt>
      <trkpt lat="43.387739" lon="-4.103835">
        <ele>105.839</ele>
        <time>2022-08-28T13:50:16Z</time>
      </trkpt>
      <trkpt lat="43.387762" lon="-4.103777">
        <ele>105.878</ele>
        <time>2022-08-28T13:50:18Z</time>
      </trkpt>
      <trkpt lat="43.387774" lon="-4.103715">
        <ele>105.846</ele>
        <time>2022-08-28T13:50:20Z</time>
      </trkpt>
      <trkpt lat="43.387797" lon="-4.103643">
        <ele>105.840</ele>
        <time>2022-08-28T13:50:23Z</time>
      </trkpt>
      <trkpt lat="43.387815" lon="-4.103555">
        <ele>105.989</ele>
        <time>2022-08-28T13:50:26Z</time>
      </trkpt>
      <trkpt lat="43.387827" lon="-4.103483">
        <ele>106.575</ele>
        <time>2022-08-28T13:50:28Z</time>
      </trkpt>
      <trkpt lat="43.387842" lon="-4.103418">
        <ele>107.049</ele>
        <time>2022-08-28T13:50:30Z</time>
      </trkpt>
      <trkpt lat="43.387857" lon="-4.103350">
        <ele>108.002</ele>
        <time>2022-08-28T13:50:32Z</time>
      </trkpt>
      <trkpt lat="43.387867" lon="-4.103287">
        <ele>108.622</ele>
        <time>2022-08-28T13:50:34Z</time>
      </trkpt>
      <trkpt lat="43.387875" lon="-4.103220">
        <ele>109.609</ele>
        <time>2022-08-28T13:50:36Z</time>
      </trkpt>
      <trkpt lat="43.387885" lon="-4.103155">
        <ele>109.815</ele>
        <time>2022-08-28T13:50:38Z</time>
      </trkpt>
      <trkpt lat="43.387892" lon="-4.103087">
        <ele>110.145</ele>
        <time>2022-08-28T13:50:40Z</time>
      </trkpt>
      <trkpt lat="43.387900" lon="-4.103017">
        <ele>111.156</ele>
        <time>2022-08-28T13:50:42Z</time>
      </trkpt>
      <trkpt lat="43.387902" lon="-4.102942">
        <ele>111.785</ele>
        <time>2022-08-28T13:50:44Z</time>
      </trkpt>
      <trkpt lat="43.387909" lon="-4.102870">
        <ele>112.164</ele>
        <time>2022-08-28T13:50:46Z</time>
      </trkpt>
      <trkpt lat="43.387916" lon="-4.102800">
        <ele>112.242</ele>
        <time>2022-08-28T13:50:48Z</time>
      </trkpt>
      <trkpt lat="43.387916" lon="-4.102733">
        <ele>112.826</ele>
        <time>2022-08-28T13:50:50Z</time>
      </trkpt>
      <trkpt lat="43.387916" lon="-4.102660">
        <ele>113.045</ele>
        <time>2022-08-28T13:50:52Z</time>
      </trkpt>
      <trkpt lat="43.387913" lon="-4.102567">
        <ele>113.111</ele>
        <time>2022-08-28T13:50:55Z</time>
      </trkpt>
      <trkpt lat="43.387908" lon="-4.102492">
        <ele>113.297</ele>
        <time>2022-08-28T13:50:57Z</time>
      </trkpt>
      <trkpt lat="43.387896" lon="-4.102422">
        <ele>113.523</ele>
        <time>2022-08-28T13:50:59Z</time>
      </trkpt>
      <trkpt lat="43.387876" lon="-4.102354">
        <ele>113.825</ele>
        <time>2022-08-28T13:51:01Z</time>
      </trkpt>
      <trkpt lat="43.387859" lon="-4.102271">
        <ele>113.909</ele>
        <time>2022-08-28T13:51:03Z</time>
      </trkpt>
      <trkpt lat="43.387841" lon="-4.102188">
        <ele>114.270</ele>
        <time>2022-08-28T13:51:05Z</time>
      </trkpt>
      <trkpt lat="43.387819" lon="-4.102115">
        <ele>114.370</ele>
        <time>2022-08-28T13:51:07Z</time>
      </trkpt>
      <trkpt lat="43.387794" lon="-4.102047">
        <ele>114.381</ele>
        <time>2022-08-28T13:51:09Z</time>
      </trkpt>
      <trkpt lat="43.387776" lon="-4.101989">
        <ele>114.450</ele>
        <time>2022-08-28T13:51:11Z</time>
      </trkpt>
      <trkpt lat="43.387753" lon="-4.101919">
        <ele>114.739</ele>
        <time>2022-08-28T13:51:13Z</time>
      </trkpt>
      <trkpt lat="43.387725" lon="-4.101851">
        <ele>115.247</ele>
        <time>2022-08-28T13:51:15Z</time>
      </trkpt>
      <trkpt lat="43.387698" lon="-4.101779">
        <ele>115.281</ele>
        <time>2022-08-28T13:51:17Z</time>
      </trkpt>
      <trkpt lat="43.387665" lon="-4.101684">
        <ele>115.280</ele>
        <time>2022-08-28T13:51:19Z</time>
      </trkpt>
      <trkpt lat="43.387620" lon="-4.101606">
        <ele>114.626</ele>
        <time>2022-08-28T13:51:21Z</time>
      </trkpt>
      <trkpt lat="43.387582" lon="-4.101523">
        <ele>114.698</ele>
        <time>2022-08-28T13:51:23Z</time>
      </trkpt>
      <trkpt lat="43.387544" lon="-4.101441">
        <ele>114.815</ele>
        <time>2022-08-28T13:51:25Z</time>
      </trkpt>
      <trkpt lat="43.387502" lon="-4.101366">
        <ele>115.026</ele>
        <time>2022-08-28T13:51:27Z</time>
      </trkpt>
      <trkpt lat="43.387469" lon="-4.101284">
        <ele>115.009</ele>
        <time>2022-08-28T13:51:29Z</time>
      </trkpt>
      <trkpt lat="43.387434" lon="-4.101209">
        <ele>114.870</ele>
        <time>2022-08-28T13:51:31Z</time>
      </trkpt>
      <trkpt lat="43.387396" lon="-4.101141">
        <ele>114.560</ele>
        <time>2022-08-28T13:51:33Z</time>
      </trkpt>
      <trkpt lat="43.387359" lon="-4.101068">
        <ele>114.231</ele>
        <time>2022-08-28T13:51:35Z</time>
      </trkpt>
      <trkpt lat="43.387321" lon="-4.100990">
        <ele>113.770</ele>
        <time>2022-08-28T13:51:37Z</time>
      </trkpt>
      <trkpt lat="43.387284" lon="-4.100907">
        <ele>112.549</ele>
        <time>2022-08-28T13:51:39Z</time>
      </trkpt>
      <trkpt lat="43.387237" lon="-4.100824">
        <ele>112.357</ele>
        <time>2022-08-28T13:51:41Z</time>
      </trkpt>
      <trkpt lat="43.387189" lon="-4.100742">
        <ele>112.151</ele>
        <time>2022-08-28T13:51:43Z</time>
      </trkpt>
      <trkpt lat="43.387144" lon="-4.100662">
        <ele>112.020</ele>
        <time>2022-08-28T13:51:45Z</time>
      </trkpt>
      <trkpt lat="43.387106" lon="-4.100582">
        <ele>111.756</ele>
        <time>2022-08-28T13:51:47Z</time>
      </trkpt>
      <trkpt lat="43.387068" lon="-4.100499">
        <ele>111.549</ele>
        <time>2022-08-28T13:51:49Z</time>
      </trkpt>
      <trkpt lat="43.387023" lon="-4.100417">
        <ele>111.502</ele>
        <time>2022-08-28T13:51:51Z</time>
      </trkpt>
      <trkpt lat="43.386981" lon="-4.100337">
        <ele>111.822</ele>
        <time>2022-08-28T13:51:53Z</time>
      </trkpt>
      <trkpt lat="43.386946" lon="-4.100245">
        <ele>112.209</ele>
        <time>2022-08-28T13:51:55Z</time>
      </trkpt>
      <trkpt lat="43.386909" lon="-4.100155">
        <ele>112.575</ele>
        <time>2022-08-28T13:51:57Z</time>
      </trkpt>
      <trkpt lat="43.386871" lon="-4.100092">
        <ele>113.715</ele>
        <time>2022-08-28T13:51:59Z</time>
      </trkpt>
      <trkpt lat="43.386833" lon="-4.100022">
        <ele>114.516</ele>
        <time>2022-08-28T13:52:01Z</time>
      </trkpt>
      <trkpt lat="43.386793" lon="-4.099942">
        <ele>114.925</ele>
        <time>2022-08-28T13:52:03Z</time>
      </trkpt>
      <trkpt lat="43.386751" lon="-4.099859">
        <ele>115.074</ele>
        <time>2022-08-28T13:52:05Z</time>
      </trkpt>
      <trkpt lat="43.386718" lon="-4.099781">
        <ele>115.752</ele>
        <time>2022-08-28T13:52:07Z</time>
      </trkpt>
      <trkpt lat="43.386676" lon="-4.099693">
        <ele>116.656</ele>
        <time>2022-08-28T13:52:09Z</time>
      </trkpt>
      <trkpt lat="43.386631" lon="-4.099610">
        <ele>117.485</ele>
        <time>2022-08-28T13:52:11Z</time>
      </trkpt>
      <trkpt lat="43.386588" lon="-4.099523">
        <ele>117.641</ele>
        <time>2022-08-28T13:52:13Z</time>
      </trkpt>
      <trkpt lat="43.386545" lon="-4.099435">
        <ele>118.214</ele>
        <time>2022-08-28T13:52:15Z</time>
      </trkpt>
      <trkpt lat="43.386502" lon="-4.099358">
        <ele>118.554</ele>
        <time>2022-08-28T13:52:17Z</time>
      </trkpt>
      <trkpt lat="43.386464" lon="-4.099275">
        <ele>118.709</ele>
        <time>2022-08-28T13:52:19Z</time>
      </trkpt>
      <trkpt lat="43.386422" lon="-4.099192">
        <ele>118.809</ele>
        <time>2022-08-28T13:52:21Z</time>
      </trkpt>
      <trkpt lat="43.386375" lon="-4.099112">
        <ele>118.772</ele>
        <time>2022-08-28T13:52:23Z</time>
      </trkpt>
      <trkpt lat="43.386337" lon="-4.099025">
        <ele>118.962</ele>
        <time>2022-08-28T13:52:25Z</time>
      </trkpt>
      <trkpt lat="43.386309" lon="-4.098945">
        <ele>118.963</ele>
        <time>2022-08-28T13:52:27Z</time>
      </trkpt>
      <trkpt lat="43.386272" lon="-4.098870">
        <ele>118.712</ele>
        <time>2022-08-28T13:52:29Z</time>
      </trkpt>
      <trkpt lat="43.386235" lon="-4.098798">
        <ele>118.631</ele>
        <time>2022-08-28T13:52:31Z</time>
      </trkpt>
      <trkpt lat="43.386197" lon="-4.098715">
        <ele>118.529</ele>
        <time>2022-08-28T13:52:33Z</time>
      </trkpt>
      <trkpt lat="43.386160" lon="-4.098640">
        <ele>118.513</ele>
        <time>2022-08-28T13:52:35Z</time>
      </trkpt>
      <trkpt lat="43.386123" lon="-4.098563">
        <ele>118.532</ele>
        <time>2022-08-28T13:52:37Z</time>
      </trkpt>
      <trkpt lat="43.386091" lon="-4.098480">
        <ele>118.678</ele>
        <time>2022-08-28T13:52:39Z</time>
      </trkpt>
      <trkpt lat="43.386058" lon="-4.098392">
        <ele>119.173</ele>
        <time>2022-08-28T13:52:41Z</time>
      </trkpt>
      <trkpt lat="43.386026" lon="-4.098300">
        <ele>120.085</ele>
        <time>2022-08-28T13:52:43Z</time>
      </trkpt>
      <trkpt lat="43.386001" lon="-4.098205">
        <ele>120.813</ele>
        <time>2022-08-28T13:52:45Z</time>
      </trkpt>
      <trkpt lat="43.385976" lon="-4.098115">
        <ele>121.509</ele>
        <time>2022-08-28T13:52:47Z</time>
      </trkpt>
      <trkpt lat="43.385954" lon="-4.098033">
        <ele>121.598</ele>
        <time>2022-08-28T13:52:49Z</time>
      </trkpt>
      <trkpt lat="43.385932" lon="-4.097936">
        <ele>121.548</ele>
        <time>2022-08-28T13:52:51Z</time>
      </trkpt>
      <trkpt lat="43.385910" lon="-4.097838">
        <ele>121.559</ele>
        <time>2022-08-28T13:52:53Z</time>
      </trkpt>
      <trkpt lat="43.385888" lon="-4.097741">
        <ele>121.988</ele>
        <time>2022-08-28T13:52:55Z</time>
      </trkpt>
      <trkpt lat="43.385868" lon="-4.097653">
        <ele>122.287</ele>
        <time>2022-08-28T13:52:57Z</time>
      </trkpt>
      <trkpt lat="43.385851" lon="-4.097563">
        <ele>122.895</ele>
        <time>2022-08-28T13:52:59Z</time>
      </trkpt>
      <trkpt lat="43.385829" lon="-4.097473">
        <ele>122.819</ele>
        <time>2022-08-28T13:53:01Z</time>
      </trkpt>
      <trkpt lat="43.385807" lon="-4.097380">
        <ele>122.958</ele>
        <time>2022-08-28T13:53:03Z</time>
      </trkpt>
      <trkpt lat="43.385787" lon="-4.097285">
        <ele>123.034</ele>
        <time>2022-08-28T13:53:05Z</time>
      </trkpt>
      <trkpt lat="43.385767" lon="-4.097187">
        <ele>123.259</ele>
        <time>2022-08-28T13:53:07Z</time>
      </trkpt>
      <trkpt lat="43.385742" lon="-4.097089">
        <ele>123.303</ele>
        <time>2022-08-28T13:53:09Z</time>
      </trkpt>
      <trkpt lat="43.385724" lon="-4.096986">
        <ele>123.523</ele>
        <time>2022-08-28T13:53:11Z</time>
      </trkpt>
      <trkpt lat="43.385704" lon="-4.096889">
        <ele>124.009</ele>
        <time>2022-08-28T13:53:13Z</time>
      </trkpt>
      <trkpt lat="43.385689" lon="-4.096801">
        <ele>125.436</ele>
        <time>2022-08-28T13:53:15Z</time>
      </trkpt>
      <trkpt lat="43.385667" lon="-4.096706">
        <ele>126.116</ele>
        <time>2022-08-28T13:53:17Z</time>
      </trkpt>
      <trkpt lat="43.385642" lon="-4.096628">
        <ele>126.537</ele>
        <time>2022-08-28T13:53:19Z</time>
      </trkpt>
      <trkpt lat="43.385630" lon="-4.096561">
        <ele>127.086</ele>
        <time>2022-08-28T13:53:21Z</time>
      </trkpt>
      <trkpt lat="43.385615" lon="-4.096479">
        <ele>127.065</ele>
        <time>2022-08-28T13:53:24Z</time>
      </trkpt>
      <trkpt lat="43.385607" lon="-4.096411">
        <ele>127.023</ele>
        <time>2022-08-28T13:53:27Z</time>
      </trkpt>
      <trkpt lat="43.385575" lon="-4.096336">
        <ele>126.767</ele>
        <time>2022-08-28T13:53:31Z</time>
      </trkpt>
      <trkpt lat="43.385562" lon="-4.096273">
        <ele>126.136</ele>
        <time>2022-08-28T13:53:34Z</time>
      </trkpt>
      <trkpt lat="43.385534" lon="-4.096220">
        <ele>124.652</ele>
        <time>2022-08-28T13:53:54Z</time>
      </trkpt>
      <trkpt lat="43.385482" lon="-4.096185">
        <ele>124.319</ele>
        <time>2022-08-28T13:53:57Z</time>
      </trkpt>
      <trkpt lat="43.385429" lon="-4.096147">
        <ele>123.409</ele>
        <time>2022-08-28T13:54:00Z</time>
      </trkpt>
      <trkpt lat="43.385382" lon="-4.096130">
        <ele>123.319</ele>
        <time>2022-08-28T13:54:02Z</time>
      </trkpt>
      <trkpt lat="43.385332" lon="-4.096100">
        <ele>123.109</ele>
        <time>2022-08-28T13:54:04Z</time>
      </trkpt>
      <trkpt lat="43.385275" lon="-4.096060">
        <ele>123.172</ele>
        <time>2022-08-28T13:54:06Z</time>
      </trkpt>
      <trkpt lat="43.385220" lon="-4.095997">
        <ele>123.992</ele>
        <time>2022-08-28T13:54:08Z</time>
      </trkpt>
      <trkpt lat="43.385170" lon="-4.095919">
        <ele>124.593</ele>
        <time>2022-08-28T13:54:10Z</time>
      </trkpt>
      <trkpt lat="43.385137" lon="-4.095832">
        <ele>124.762</ele>
        <time>2022-08-28T13:54:12Z</time>
      </trkpt>
      <trkpt lat="43.385119" lon="-4.095750">
        <ele>124.741</ele>
        <time>2022-08-28T13:54:14Z</time>
      </trkpt>
      <trkpt lat="43.385122" lon="-4.095678">
        <ele>125.129</ele>
        <time>2022-08-28T13:54:16Z</time>
      </trkpt>
      <trkpt lat="43.385139" lon="-4.095615">
        <ele>125.343</ele>
        <time>2022-08-28T13:54:18Z</time>
      </trkpt>
      <trkpt lat="43.385151" lon="-4.095547">
        <ele>125.152</ele>
        <time>2022-08-28T13:54:20Z</time>
      </trkpt>
      <trkpt lat="43.385144" lon="-4.095455">
        <ele>124.928</ele>
        <time>2022-08-28T13:54:23Z</time>
      </trkpt>
      <trkpt lat="43.385127" lon="-4.095387">
        <ele>124.752</ele>
        <time>2022-08-28T13:54:25Z</time>
      </trkpt>
      <trkpt lat="43.385107" lon="-4.095304">
        <ele>123.753</ele>
        <time>2022-08-28T13:54:27Z</time>
      </trkpt>
      <trkpt lat="43.385077" lon="-4.095214">
        <ele>123.708</ele>
        <time>2022-08-28T13:54:29Z</time>
      </trkpt>
      <trkpt lat="43.385034" lon="-4.095131">
        <ele>123.709</ele>
        <time>2022-08-28T13:54:31Z</time>
      </trkpt>
      <trkpt lat="43.384984" lon="-4.095039">
        <ele>123.996</ele>
        <time>2022-08-28T13:54:33Z</time>
      </trkpt>
      <trkpt lat="43.384954" lon="-4.094991">
        <ele>123.926</ele>
        <time>2022-08-28T13:54:34Z</time>
      </trkpt>
      <trkpt lat="43.384927" lon="-4.094941">
        <ele>123.927</ele>
        <time>2022-08-28T13:54:35Z</time>
      </trkpt>
      <trkpt lat="43.384865" lon="-4.094828">
        <ele>123.896</ele>
        <time>2022-08-28T13:54:37Z</time>
      </trkpt>
      <trkpt lat="43.384833" lon="-4.094771">
        <ele>123.435</ele>
        <time>2022-08-28T13:54:38Z</time>
      </trkpt>
      <trkpt lat="43.384801" lon="-4.094714">
        <ele>123.213</ele>
        <time>2022-08-28T13:54:39Z</time>
      </trkpt>
      <trkpt lat="43.384733" lon="-4.094586">
        <ele>122.397</ele>
        <time>2022-08-28T13:54:41Z</time>
      </trkpt>
      <trkpt lat="43.384658" lon="-4.094453">
        <ele>121.576</ele>
        <time>2022-08-28T13:54:43Z</time>
      </trkpt>
      <trkpt lat="43.384570" lon="-4.094296">
        <ele>120.792</ele>
        <time>2022-08-28T13:54:45Z</time>
      </trkpt>
      <trkpt lat="43.384488" lon="-4.094144">
        <ele>120.225</ele>
        <time>2022-08-28T13:54:47Z</time>
      </trkpt>
      <trkpt lat="43.384451" lon="-4.094064">
        <ele>119.926</ele>
        <time>2022-08-28T13:54:48Z</time>
      </trkpt>
      <trkpt lat="43.384416" lon="-4.093982">
        <ele>119.908</ele>
        <time>2022-08-28T13:54:49Z</time>
      </trkpt>
      <trkpt lat="43.384353" lon="-4.093812">
        <ele>119.509</ele>
        <time>2022-08-28T13:54:51Z</time>
      </trkpt>
      <trkpt lat="43.384323" lon="-4.093722">
        <ele>119.093</ele>
        <time>2022-08-28T13:54:52Z</time>
      </trkpt>
      <trkpt lat="43.384295" lon="-4.093625">
        <ele>118.533</ele>
        <time>2022-08-28T13:54:53Z</time>
      </trkpt>
      <trkpt lat="43.384268" lon="-4.093532">
        <ele>118.034</ele>
        <time>2022-08-28T13:54:54Z</time>
      </trkpt>
      <trkpt lat="43.384215" lon="-4.093335">
        <ele>117.073</ele>
        <time>2022-08-28T13:54:56Z</time>
      </trkpt>
      <trkpt lat="43.384157" lon="-4.093135">
        <ele>116.282</ele>
        <time>2022-08-28T13:54:58Z</time>
      </trkpt>
      <trkpt lat="43.384127" lon="-4.093035">
        <ele>115.960</ele>
        <time>2022-08-28T13:54:59Z</time>
      </trkpt>
      <trkpt lat="43.384095" lon="-4.092935">
        <ele>115.614</ele>
        <time>2022-08-28T13:55:00Z</time>
      </trkpt>
      <trkpt lat="43.384035" lon="-4.092730">
        <ele>114.743</ele>
        <time>2022-08-28T13:55:02Z</time>
      </trkpt>
      <trkpt lat="43.384002" lon="-4.092627">
        <ele>114.259</ele>
        <time>2022-08-28T13:55:03Z</time>
      </trkpt>
      <trkpt lat="43.383935" lon="-4.092419">
        <ele>113.152</ele>
        <time>2022-08-28T13:55:05Z</time>
      </trkpt>
      <trkpt lat="43.383857" lon="-4.092209">
        <ele>112.253</ele>
        <time>2022-08-28T13:55:07Z</time>
      </trkpt>
      <trkpt lat="43.383770" lon="-4.091994">
        <ele>111.508</ele>
        <time>2022-08-28T13:55:09Z</time>
      </trkpt>
      <trkpt lat="43.383727" lon="-4.091886">
        <ele>111.209</ele>
        <time>2022-08-28T13:55:10Z</time>
      </trkpt>
      <trkpt lat="43.383684" lon="-4.091776">
        <ele>110.886</ele>
        <time>2022-08-28T13:55:11Z</time>
      </trkpt>
      <trkpt lat="43.383596" lon="-4.091568">
        <ele>110.416</ele>
        <time>2022-08-28T13:55:13Z</time>
      </trkpt>
      <trkpt lat="43.383553" lon="-4.091466">
        <ele>110.097</ele>
        <time>2022-08-28T13:55:14Z</time>
      </trkpt>
      <trkpt lat="43.383508" lon="-4.091366">
        <ele>109.366</ele>
        <time>2022-08-28T13:55:15Z</time>
      </trkpt>
      <trkpt lat="43.383418" lon="-4.091146">
        <ele>107.855</ele>
        <time>2022-08-28T13:55:17Z</time>
      </trkpt>
      <trkpt lat="43.383318" lon="-4.090913">
        <ele>106.713</ele>
        <time>2022-08-28T13:55:19Z</time>
      </trkpt>
      <trkpt lat="43.383268" lon="-4.090798">
        <ele>106.557</ele>
        <time>2022-08-28T13:55:20Z</time>
      </trkpt>
      <trkpt lat="43.383223" lon="-4.090675">
        <ele>106.076</ele>
        <time>2022-08-28T13:55:21Z</time>
      </trkpt>
      <trkpt lat="43.383131" lon="-4.090437">
        <ele>104.932</ele>
        <time>2022-08-28T13:55:23Z</time>
      </trkpt>
      <trkpt lat="43.383036" lon="-4.090207">
        <ele>103.298</ele>
        <time>2022-08-28T13:55:25Z</time>
      </trkpt>
      <trkpt lat="43.382986" lon="-4.090087">
        <ele>102.515</ele>
        <time>2022-08-28T13:55:26Z</time>
      </trkpt>
      <trkpt lat="43.382889" lon="-4.089847">
        <ele>100.826</ele>
        <time>2022-08-28T13:55:28Z</time>
      </trkpt>
      <trkpt lat="43.382794" lon="-4.089604">
        <ele>99.709</ele>
        <time>2022-08-28T13:55:30Z</time>
      </trkpt>
      <trkpt lat="43.382702" lon="-4.089362">
        <ele>98.970</ele>
        <time>2022-08-28T13:55:32Z</time>
      </trkpt>
      <trkpt lat="43.382617" lon="-4.089117">
        <ele>97.970</ele>
        <time>2022-08-28T13:55:34Z</time>
      </trkpt>
      <trkpt lat="43.382575" lon="-4.088995">
        <ele>97.831</ele>
        <time>2022-08-28T13:55:35Z</time>
      </trkpt>
      <trkpt lat="43.382533" lon="-4.088873">
        <ele>97.120</ele>
        <time>2022-08-28T13:55:36Z</time>
      </trkpt>
      <trkpt lat="43.382458" lon="-4.088623">
        <ele>95.869</ele>
        <time>2022-08-28T13:55:38Z</time>
      </trkpt>
      <trkpt lat="43.382390" lon="-4.088368">
        <ele>94.797</ele>
        <time>2022-08-28T13:55:40Z</time>
      </trkpt>
      <trkpt lat="43.382328" lon="-4.088113">
        <ele>93.361</ele>
        <time>2022-08-28T13:55:42Z</time>
      </trkpt>
      <trkpt lat="43.382266" lon="-4.087856">
        <ele>92.440</ele>
        <time>2022-08-28T13:55:44Z</time>
      </trkpt>
      <trkpt lat="43.382236" lon="-4.087724">
        <ele>91.766</ele>
        <time>2022-08-28T13:55:45Z</time>
      </trkpt>
      <trkpt lat="43.382174" lon="-4.087461">
        <ele>90.585</ele>
        <time>2022-08-28T13:55:47Z</time>
      </trkpt>
      <trkpt lat="43.382142" lon="-4.087324">
        <ele>90.089</ele>
        <time>2022-08-28T13:55:48Z</time>
      </trkpt>
      <trkpt lat="43.382072" lon="-4.087059">
        <ele>89.217</ele>
        <time>2022-08-28T13:55:50Z</time>
      </trkpt>
      <trkpt lat="43.382034" lon="-4.086924">
        <ele>88.609</ele>
        <time>2022-08-28T13:55:51Z</time>
      </trkpt>
      <trkpt lat="43.381969" lon="-4.086659">
        <ele>88.079</ele>
        <time>2022-08-28T13:55:53Z</time>
      </trkpt>
      <trkpt lat="43.381937" lon="-4.086527">
        <ele>87.419</ele>
        <time>2022-08-28T13:55:54Z</time>
      </trkpt>
      <trkpt lat="43.381877" lon="-4.086265">
        <ele>85.870</ele>
        <time>2022-08-28T13:55:56Z</time>
      </trkpt>
      <trkpt lat="43.381847" lon="-4.086130">
        <ele>84.919</ele>
        <time>2022-08-28T13:55:57Z</time>
      </trkpt>
      <trkpt lat="43.381787" lon="-4.085860">
        <ele>82.728</ele>
        <time>2022-08-28T13:55:59Z</time>
      </trkpt>
      <trkpt lat="43.381759" lon="-4.085722">
        <ele>81.596</ele>
        <time>2022-08-28T13:56:00Z</time>
      </trkpt>
      <trkpt lat="43.381697" lon="-4.085459">
        <ele>78.860</ele>
        <time>2022-08-28T13:56:02Z</time>
      </trkpt>
      <trkpt lat="43.381634" lon="-4.085191">
        <ele>77.329</ele>
        <time>2022-08-28T13:56:04Z</time>
      </trkpt>
      <trkpt lat="43.381604" lon="-4.085051">
        <ele>77.185</ele>
        <time>2022-08-28T13:56:05Z</time>
      </trkpt>
      <trkpt lat="43.381574" lon="-4.084908">
        <ele>76.986</ele>
        <time>2022-08-28T13:56:06Z</time>
      </trkpt>
      <trkpt lat="43.381516" lon="-4.084638">
        <ele>76.660</ele>
        <time>2022-08-28T13:56:08Z</time>
      </trkpt>
      <trkpt lat="43.381486" lon="-4.084501">
        <ele>76.126</ele>
        <time>2022-08-28T13:56:09Z</time>
      </trkpt>
      <trkpt lat="43.381419" lon="-4.084231">
        <ele>75.309</ele>
        <time>2022-08-28T13:56:11Z</time>
      </trkpt>
      <trkpt lat="43.381352" lon="-4.083949">
        <ele>74.139</ele>
        <time>2022-08-28T13:56:13Z</time>
      </trkpt>
      <trkpt lat="43.381325" lon="-4.083814">
        <ele>73.339</ele>
        <time>2022-08-28T13:56:14Z</time>
      </trkpt>
      <trkpt lat="43.381290" lon="-4.083551">
        <ele>72.220</ele>
        <time>2022-08-28T13:56:16Z</time>
      </trkpt>
      <trkpt lat="43.381277" lon="-4.083416">
        <ele>72.229</ele>
        <time>2022-08-28T13:56:17Z</time>
      </trkpt>
      <trkpt lat="43.381269" lon="-4.083283">
        <ele>72.258</ele>
        <time>2022-08-28T13:56:18Z</time>
      </trkpt>
      <trkpt lat="43.381254" lon="-4.083001">
        <ele>71.936</ele>
        <time>2022-08-28T13:56:20Z</time>
      </trkpt>
      <trkpt lat="43.381249" lon="-4.082859">
        <ele>71.440</ele>
        <time>2022-08-28T13:56:21Z</time>
      </trkpt>
      <trkpt lat="43.381246" lon="-4.082584">
        <ele>70.269</ele>
        <time>2022-08-28T13:56:23Z</time>
      </trkpt>
      <trkpt lat="43.381241" lon="-4.082306">
        <ele>69.035</ele>
        <time>2022-08-28T13:56:25Z</time>
      </trkpt>
      <trkpt lat="43.381236" lon="-4.082168">
        <ele>68.414</ele>
        <time>2022-08-28T13:56:26Z</time>
      </trkpt>
      <trkpt lat="43.381223" lon="-4.081888">
        <ele>67.254</ele>
        <time>2022-08-28T13:56:28Z</time>
      </trkpt>
      <trkpt lat="43.381215" lon="-4.081750">
        <ele>66.609</ele>
        <time>2022-08-28T13:56:29Z</time>
      </trkpt>
      <trkpt lat="43.381185" lon="-4.081477">
        <ele>65.009</ele>
        <time>2022-08-28T13:56:31Z</time>
      </trkpt>
      <trkpt lat="43.381138" lon="-4.081210">
        <ele>63.622</ele>
        <time>2022-08-28T13:56:33Z</time>
      </trkpt>
      <trkpt lat="43.381108" lon="-4.081080">
        <ele>63.032</ele>
        <time>2022-08-28T13:56:34Z</time>
      </trkpt>
      <trkpt lat="43.381041" lon="-4.080820">
        <ele>61.653</ele>
        <time>2022-08-28T13:56:36Z</time>
      </trkpt>
      <trkpt lat="43.380971" lon="-4.080562">
        <ele>60.532</ele>
        <time>2022-08-28T13:56:38Z</time>
      </trkpt>
      <trkpt lat="43.380934" lon="-4.080437">
        <ele>60.081</ele>
        <time>2022-08-28T13:56:39Z</time>
      </trkpt>
      <trkpt lat="43.380854" lon="-4.080185">
        <ele>58.989</ele>
        <time>2022-08-28T13:56:41Z</time>
      </trkpt>
      <trkpt lat="43.380774" lon="-4.079930">
        <ele>57.963</ele>
        <time>2022-08-28T13:56:43Z</time>
      </trkpt>
      <trkpt lat="43.380739" lon="-4.079798">
        <ele>57.842</ele>
        <time>2022-08-28T13:56:44Z</time>
      </trkpt>
      <trkpt lat="43.380671" lon="-4.079545">
        <ele>57.138</ele>
        <time>2022-08-28T13:56:46Z</time>
      </trkpt>
      <trkpt lat="43.380604" lon="-4.079288">
        <ele>55.788</ele>
        <time>2022-08-28T13:56:48Z</time>
      </trkpt>
      <trkpt lat="43.380571" lon="-4.079161">
        <ele>55.024</ele>
        <time>2022-08-28T13:56:49Z</time>
      </trkpt>
      <trkpt lat="43.380538" lon="-4.079038">
        <ele>54.326</ele>
        <time>2022-08-28T13:56:50Z</time>
      </trkpt>
      <trkpt lat="43.380498" lon="-4.078906">
        <ele>53.309</ele>
        <time>2022-08-28T13:56:51Z</time>
      </trkpt>
      <trkpt lat="43.380421" lon="-4.078648">
        <ele>52.579</ele>
        <time>2022-08-28T13:56:53Z</time>
      </trkpt>
      <trkpt lat="43.380381" lon="-4.078518">
        <ele>52.279</ele>
        <time>2022-08-28T13:56:54Z</time>
      </trkpt>
      <trkpt lat="43.380299" lon="-4.078256">
        <ele>51.830</ele>
        <time>2022-08-28T13:56:56Z</time>
      </trkpt>
      <trkpt lat="43.380219" lon="-4.077993">
        <ele>51.659</ele>
        <time>2022-08-28T13:56:58Z</time>
      </trkpt>
      <trkpt lat="43.380181" lon="-4.077858">
        <ele>51.598</ele>
        <time>2022-08-28T13:56:59Z</time>
      </trkpt>
      <trkpt lat="43.380103" lon="-4.077588">
        <ele>51.496</ele>
        <time>2022-08-28T13:57:01Z</time>
      </trkpt>
      <trkpt lat="43.380066" lon="-4.077456">
        <ele>51.320</ele>
        <time>2022-08-28T13:57:02Z</time>
      </trkpt>
      <trkpt lat="43.380031" lon="-4.077329">
        <ele>51.159</ele>
        <time>2022-08-28T13:57:03Z</time>
      </trkpt>
      <trkpt lat="43.379999" lon="-4.077199">
        <ele>50.815</ele>
        <time>2022-08-28T13:57:04Z</time>
      </trkpt>
      <trkpt lat="43.379946" lon="-4.076954">
        <ele>50.052</ele>
        <time>2022-08-28T13:57:06Z</time>
      </trkpt>
      <trkpt lat="43.379924" lon="-4.076827">
        <ele>49.753</ele>
        <time>2022-08-28T13:57:07Z</time>
      </trkpt>
      <trkpt lat="43.379911" lon="-4.076700">
        <ele>49.308</ele>
        <time>2022-08-28T13:57:08Z</time>
      </trkpt>
      <trkpt lat="43.379898" lon="-4.076575">
        <ele>48.809</ele>
        <time>2022-08-28T13:57:09Z</time>
      </trkpt>
      <trkpt lat="43.379885" lon="-4.076315">
        <ele>47.626</ele>
        <time>2022-08-28T13:57:11Z</time>
      </trkpt>
      <trkpt lat="43.379890" lon="-4.076053">
        <ele>46.156</ele>
        <time>2022-08-28T13:57:13Z</time>
      </trkpt>
      <trkpt lat="43.379897" lon="-4.075920">
        <ele>44.877</ele>
        <time>2022-08-28T13:57:14Z</time>
      </trkpt>
      <trkpt lat="43.379914" lon="-4.075660">
        <ele>43.276</ele>
        <time>2022-08-28T13:57:16Z</time>
      </trkpt>
      <trkpt lat="43.379922" lon="-4.075528">
        <ele>42.585</ele>
        <time>2022-08-28T13:57:17Z</time>
      </trkpt>
      <trkpt lat="43.379940" lon="-4.075258">
        <ele>41.363</ele>
        <time>2022-08-28T13:57:19Z</time>
      </trkpt>
      <trkpt lat="43.379948" lon="-4.074986">
        <ele>40.057</ele>
        <time>2022-08-28T13:57:21Z</time>
      </trkpt>
      <trkpt lat="43.379931" lon="-4.074719">
        <ele>38.776</ele>
        <time>2022-08-28T13:57:23Z</time>
      </trkpt>
      <trkpt lat="43.379911" lon="-4.074587">
        <ele>38.332</ele>
        <time>2022-08-28T13:57:24Z</time>
      </trkpt>
      <trkpt lat="43.379849" lon="-4.074330">
        <ele>37.632</ele>
        <time>2022-08-28T13:57:26Z</time>
      </trkpt>
      <trkpt lat="43.379807" lon="-4.074203">
        <ele>37.092</ele>
        <time>2022-08-28T13:57:27Z</time>
      </trkpt>
      <trkpt lat="43.379767" lon="-4.074075">
        <ele>36.911</ele>
        <time>2022-08-28T13:57:28Z</time>
      </trkpt>
      <trkpt lat="43.379694" lon="-4.073815">
        <ele>36.509</ele>
        <time>2022-08-28T13:57:30Z</time>
      </trkpt>
      <trkpt lat="43.379621" lon="-4.073577">
        <ele>35.774</ele>
        <time>2022-08-28T13:57:32Z</time>
      </trkpt>
      <trkpt lat="43.379554" lon="-4.073345">
        <ele>34.524</ele>
        <time>2022-08-28T13:57:34Z</time>
      </trkpt>
      <trkpt lat="43.379532" lon="-4.073235">
        <ele>34.435</ele>
        <time>2022-08-28T13:57:35Z</time>
      </trkpt>
      <trkpt lat="43.379517" lon="-4.073127">
        <ele>34.494</ele>
        <time>2022-08-28T13:57:36Z</time>
      </trkpt>
      <trkpt lat="43.379504" lon="-4.072914">
        <ele>34.593</ele>
        <time>2022-08-28T13:57:38Z</time>
      </trkpt>
      <trkpt lat="43.379502" lon="-4.072809">
        <ele>34.651</ele>
        <time>2022-08-28T13:57:39Z</time>
      </trkpt>
      <trkpt lat="43.379507" lon="-4.072611">
        <ele>34.955</ele>
        <time>2022-08-28T13:57:41Z</time>
      </trkpt>
      <trkpt lat="43.379514" lon="-4.072513">
        <ele>35.044</ele>
        <time>2022-08-28T13:57:42Z</time>
      </trkpt>
      <trkpt lat="43.379536" lon="-4.072311">
        <ele>35.290</ele>
        <time>2022-08-28T13:57:44Z</time>
      </trkpt>
      <trkpt lat="43.379564" lon="-4.072109">
        <ele>35.231</ele>
        <time>2022-08-28T13:57:46Z</time>
      </trkpt>
      <trkpt lat="43.379576" lon="-4.072012">
        <ele>35.161</ele>
        <time>2022-08-28T13:57:47Z</time>
      </trkpt>
      <trkpt lat="43.379584" lon="-4.071919">
        <ele>35.007</ele>
        <time>2022-08-28T13:57:48Z</time>
      </trkpt>
      <trkpt lat="43.379607" lon="-4.071732">
        <ele>34.809</ele>
        <time>2022-08-28T13:57:50Z</time>
      </trkpt>
      <trkpt lat="43.379630" lon="-4.071552">
        <ele>34.784</ele>
        <time>2022-08-28T13:57:52Z</time>
      </trkpt>
      <trkpt lat="43.379638" lon="-4.071464">
        <ele>34.664</ele>
        <time>2022-08-28T13:57:53Z</time>
      </trkpt>
      <trkpt lat="43.379648" lon="-4.071377">
        <ele>34.535</ele>
        <time>2022-08-28T13:57:54Z</time>
      </trkpt>
      <trkpt lat="43.379673" lon="-4.071202">
        <ele>34.044</ele>
        <time>2022-08-28T13:57:56Z</time>
      </trkpt>
      <trkpt lat="43.379691" lon="-4.071024">
        <ele>33.473</ele>
        <time>2022-08-28T13:57:58Z</time>
      </trkpt>
      <trkpt lat="43.379708" lon="-4.070851">
        <ele>33.071</ele>
        <time>2022-08-28T13:58:00Z</time>
      </trkpt>
      <trkpt lat="43.379728" lon="-4.070674">
        <ele>32.645</ele>
        <time>2022-08-28T13:58:02Z</time>
      </trkpt>
      <trkpt lat="43.379750" lon="-4.070492">
        <ele>32.524</ele>
        <time>2022-08-28T13:58:04Z</time>
      </trkpt>
      <trkpt lat="43.379760" lon="-4.070399">
        <ele>32.510</ele>
        <time>2022-08-28T13:58:05Z</time>
      </trkpt>
      <trkpt lat="43.379770" lon="-4.070304">
        <ele>32.599</ele>
        <time>2022-08-28T13:58:06Z</time>
      </trkpt>
      <trkpt lat="43.379787" lon="-4.070124">
        <ele>32.507</ele>
        <time>2022-08-28T13:58:08Z</time>
      </trkpt>
      <trkpt lat="43.379795" lon="-4.070032">
        <ele>32.427</ele>
        <time>2022-08-28T13:58:09Z</time>
      </trkpt>
      <trkpt lat="43.379800" lon="-4.069840">
        <ele>32.309</ele>
        <time>2022-08-28T13:58:11Z</time>
      </trkpt>
      <trkpt lat="43.379805" lon="-4.069747">
        <ele>32.380</ele>
        <time>2022-08-28T13:58:12Z</time>
      </trkpt>
      <trkpt lat="43.379807" lon="-4.069652">
        <ele>32.430</ele>
        <time>2022-08-28T13:58:13Z</time>
      </trkpt>
      <trkpt lat="43.379805" lon="-4.069559">
        <ele>32.751</ele>
        <time>2022-08-28T13:58:14Z</time>
      </trkpt>
      <trkpt lat="43.379792" lon="-4.069377">
        <ele>33.090</ele>
        <time>2022-08-28T13:58:16Z</time>
      </trkpt>
      <trkpt lat="43.379784" lon="-4.069285">
        <ele>32.929</ele>
        <time>2022-08-28T13:58:17Z</time>
      </trkpt>
      <trkpt lat="43.379766" lon="-4.069095">
        <ele>32.747</ele>
        <time>2022-08-28T13:58:19Z</time>
      </trkpt>
      <trkpt lat="43.379746" lon="-4.068895">
        <ele>32.751</ele>
        <time>2022-08-28T13:58:21Z</time>
      </trkpt>
      <trkpt lat="43.379716" lon="-4.068707">
        <ele>33.060</ele>
        <time>2022-08-28T13:58:23Z</time>
      </trkpt>
      <trkpt lat="43.379701" lon="-4.068619">
        <ele>33.246</ele>
        <time>2022-08-28T13:58:24Z</time>
      </trkpt>
      <trkpt lat="43.379668" lon="-4.068444">
        <ele>33.335</ele>
        <time>2022-08-28T13:58:26Z</time>
      </trkpt>
      <trkpt lat="43.379650" lon="-4.068357">
        <ele>33.386</ele>
        <time>2022-08-28T13:58:27Z</time>
      </trkpt>
      <trkpt lat="43.379615" lon="-4.068189">
        <ele>33.214</ele>
        <time>2022-08-28T13:58:29Z</time>
      </trkpt>
      <trkpt lat="43.379598" lon="-4.068106">
        <ele>33.209</ele>
        <time>2022-08-28T13:58:30Z</time>
      </trkpt>
      <trkpt lat="43.379581" lon="-4.068028">
        <ele>33.284</ele>
        <time>2022-08-28T13:58:31Z</time>
      </trkpt>
      <trkpt lat="43.379546" lon="-4.067871">
        <ele>32.924</ele>
        <time>2022-08-28T13:58:33Z</time>
      </trkpt>
      <trkpt lat="43.379524" lon="-4.067794">
        <ele>32.895</ele>
        <time>2022-08-28T13:58:34Z</time>
      </trkpt>
      <trkpt lat="43.379499" lon="-4.067719">
        <ele>32.734</ele>
        <time>2022-08-28T13:58:35Z</time>
      </trkpt>
      <trkpt lat="43.379474" lon="-4.067644">
        <ele>32.653</ele>
        <time>2022-08-28T13:58:36Z</time>
      </trkpt>
      <trkpt lat="43.379431" lon="-4.067484">
        <ele>32.161</ele>
        <time>2022-08-28T13:58:38Z</time>
      </trkpt>
      <trkpt lat="43.379401" lon="-4.067317">
        <ele>32.145</ele>
        <time>2022-08-28T13:58:40Z</time>
      </trkpt>
      <trkpt lat="43.379393" lon="-4.067230">
        <ele>32.324</ele>
        <time>2022-08-28T13:58:41Z</time>
      </trkpt>
      <trkpt lat="43.379383" lon="-4.067143">
        <ele>32.370</ele>
        <time>2022-08-28T13:58:42Z</time>
      </trkpt>
      <trkpt lat="43.379373" lon="-4.066976">
        <ele>32.325</ele>
        <time>2022-08-28T13:58:44Z</time>
      </trkpt>
      <trkpt lat="43.379385" lon="-4.066794">
        <ele>32.126</ele>
        <time>2022-08-28T13:58:46Z</time>
      </trkpt>
      <trkpt lat="43.379397" lon="-4.066694">
        <ele>31.808</ele>
        <time>2022-08-28T13:58:47Z</time>
      </trkpt>
      <trkpt lat="43.379422" lon="-4.066489">
        <ele>30.609</ele>
        <time>2022-08-28T13:58:49Z</time>
      </trkpt>
      <trkpt lat="43.379457" lon="-4.066276">
        <ele>30.193</ele>
        <time>2022-08-28T13:58:51Z</time>
      </trkpt>
      <trkpt lat="43.379487" lon="-4.066056">
        <ele>29.873</ele>
        <time>2022-08-28T13:58:53Z</time>
      </trkpt>
      <trkpt lat="43.379505" lon="-4.065829">
        <ele>29.014</ele>
        <time>2022-08-28T13:58:55Z</time>
      </trkpt>
      <trkpt lat="43.379510" lon="-4.065594">
        <ele>28.643</ele>
        <time>2022-08-28T13:58:57Z</time>
      </trkpt>
      <trkpt lat="43.379498" lon="-4.065476">
        <ele>28.422</ele>
        <time>2022-08-28T13:58:58Z</time>
      </trkpt>
      <trkpt lat="43.379450" lon="-4.065244">
        <ele>28.290</ele>
        <time>2022-08-28T13:59:00Z</time>
      </trkpt>
      <trkpt lat="43.379370" lon="-4.065009">
        <ele>27.924</ele>
        <time>2022-08-28T13:59:02Z</time>
      </trkpt>
      <trkpt lat="43.379320" lon="-4.064897">
        <ele>27.313</ele>
        <time>2022-08-28T13:59:03Z</time>
      </trkpt>
      <trkpt lat="43.379208" lon="-4.064679">
        <ele>26.959</ele>
        <time>2022-08-28T13:59:05Z</time>
      </trkpt>
      <trkpt lat="43.379153" lon="-4.064571">
        <ele>26.847</ele>
        <time>2022-08-28T13:59:06Z</time>
      </trkpt>
      <trkpt lat="43.379050" lon="-4.064348">
        <ele>26.429</ele>
        <time>2022-08-28T13:59:08Z</time>
      </trkpt>
      <trkpt lat="43.378960" lon="-4.064126">
        <ele>26.021</ele>
        <time>2022-08-28T13:59:10Z</time>
      </trkpt>
      <trkpt lat="43.378925" lon="-4.064011">
        <ele>25.909</ele>
        <time>2022-08-28T13:59:11Z</time>
      </trkpt>
      <trkpt lat="43.378897" lon="-4.063893">
        <ele>25.665</ele>
        <time>2022-08-28T13:59:12Z</time>
      </trkpt>
      <trkpt lat="43.378865" lon="-4.063648">
        <ele>25.245</ele>
        <time>2022-08-28T13:59:14Z</time>
      </trkpt>
      <trkpt lat="43.378860" lon="-4.063400">
        <ele>24.466</ele>
        <time>2022-08-28T13:59:16Z</time>
      </trkpt>
      <trkpt lat="43.378863" lon="-4.063273">
        <ele>24.055</ele>
        <time>2022-08-28T13:59:17Z</time>
      </trkpt>
      <trkpt lat="43.378881" lon="-4.063021">
        <ele>23.374</ele>
        <time>2022-08-28T13:59:19Z</time>
      </trkpt>
      <trkpt lat="43.378893" lon="-4.062771">
        <ele>22.942</ele>
        <time>2022-08-28T13:59:21Z</time>
      </trkpt>
      <trkpt lat="43.378898" lon="-4.062651">
        <ele>22.866</ele>
        <time>2022-08-28T13:59:22Z</time>
      </trkpt>
      <trkpt lat="43.378891" lon="-4.062418">
        <ele>22.945</ele>
        <time>2022-08-28T13:59:24Z</time>
      </trkpt>
      <trkpt lat="43.378874" lon="-4.062308">
        <ele>23.071</ele>
        <time>2022-08-28T13:59:25Z</time>
      </trkpt>
      <trkpt lat="43.378826" lon="-4.062106">
        <ele>24.093</ele>
        <time>2022-08-28T13:59:27Z</time>
      </trkpt>
      <trkpt lat="43.378768" lon="-4.061911">
        <ele>24.265</ele>
        <time>2022-08-28T13:59:29Z</time>
      </trkpt>
      <trkpt lat="43.378741" lon="-4.061821">
        <ele>24.321</ele>
        <time>2022-08-28T13:59:30Z</time>
      </trkpt>
      <trkpt lat="43.378684" lon="-4.061653">
        <ele>24.609</ele>
        <time>2022-08-28T13:59:32Z</time>
      </trkpt>
      <trkpt lat="43.378656" lon="-4.061573">
        <ele>24.850</ele>
        <time>2022-08-28T13:59:33Z</time>
      </trkpt>
      <trkpt lat="43.378599" lon="-4.061418">
        <ele>25.160</ele>
        <time>2022-08-28T13:59:35Z</time>
      </trkpt>
      <trkpt lat="43.378549" lon="-4.061266">
        <ele>25.581</ele>
        <time>2022-08-28T13:59:37Z</time>
      </trkpt>
      <trkpt lat="43.378526" lon="-4.061191">
        <ele>25.880</ele>
        <time>2022-08-28T13:59:38Z</time>
      </trkpt>
      <trkpt lat="43.378504" lon="-4.061118">
        <ele>26.039</ele>
        <time>2022-08-28T13:59:39Z</time>
      </trkpt>
      <trkpt lat="43.378479" lon="-4.061043">
        <ele>26.177</ele>
        <time>2022-08-28T13:59:40Z</time>
      </trkpt>
      <trkpt lat="43.378426" lon="-4.060890">
        <ele>26.421</ele>
        <time>2022-08-28T13:59:42Z</time>
      </trkpt>
      <trkpt lat="43.378399" lon="-4.060813">
        <ele>26.470</ele>
        <time>2022-08-28T13:59:43Z</time>
      </trkpt>
      <trkpt lat="43.378374" lon="-4.060740">
        <ele>26.476</ele>
        <time>2022-08-28T13:59:44Z</time>
      </trkpt>
      <trkpt lat="43.378322" lon="-4.060592">
        <ele>26.284</ele>
        <time>2022-08-28T13:59:46Z</time>
      </trkpt>
      <trkpt lat="43.378299" lon="-4.060519">
        <ele>26.107</ele>
        <time>2022-08-28T13:59:47Z</time>
      </trkpt>
      <trkpt lat="43.378249" lon="-4.060376">
        <ele>25.917</ele>
        <time>2022-08-28T13:59:49Z</time>
      </trkpt>
      <trkpt lat="43.378224" lon="-4.060304">
        <ele>25.709</ele>
        <time>2022-08-28T13:59:50Z</time>
      </trkpt>
      <trkpt lat="43.378176" lon="-4.060159">
        <ele>25.749</ele>
        <time>2022-08-28T13:59:52Z</time>
      </trkpt>
      <trkpt lat="43.378133" lon="-4.060012">
        <ele>25.729</ele>
        <time>2022-08-28T13:59:54Z</time>
      </trkpt>
      <trkpt lat="43.378105" lon="-4.059944">
        <ele>25.830</ele>
        <time>2022-08-28T13:59:55Z</time>
      </trkpt>
      <trkpt lat="43.378080" lon="-4.059874">
        <ele>26.039</ele>
        <time>2022-08-28T13:59:56Z</time>
      </trkpt>
      <trkpt lat="43.378060" lon="-4.059806">
        <ele>26.698</ele>
        <time>2022-08-28T13:59:57Z</time>
      </trkpt>
      <trkpt lat="43.378017" lon="-4.059668">
        <ele>27.056</ele>
        <time>2022-08-28T13:59:59Z</time>
      </trkpt>
      <trkpt lat="43.377994" lon="-4.059600">
        <ele>27.080</ele>
        <time>2022-08-28T14:00:00Z</time>
      </trkpt>
      <trkpt lat="43.377972" lon="-4.059535">
        <ele>27.019</ele>
        <time>2022-08-28T14:00:01Z</time>
      </trkpt>
      <trkpt lat="43.377930" lon="-4.059405">
        <ele>27.175</ele>
        <time>2022-08-28T14:00:03Z</time>
      </trkpt>
      <trkpt lat="43.377907" lon="-4.059337">
        <ele>27.479</ele>
        <time>2022-08-28T14:00:04Z</time>
      </trkpt>
      <trkpt lat="43.377884" lon="-4.059270">
        <ele>27.805</ele>
        <time>2022-08-28T14:00:05Z</time>
      </trkpt>
      <trkpt lat="43.377837" lon="-4.059133">
        <ele>28.625</ele>
        <time>2022-08-28T14:00:07Z</time>
      </trkpt>
      <trkpt lat="43.377792" lon="-4.059001">
        <ele>29.209</ele>
        <time>2022-08-28T14:00:09Z</time>
      </trkpt>
      <trkpt lat="43.377744" lon="-4.058876">
        <ele>29.368</ele>
        <time>2022-08-28T14:00:11Z</time>
      </trkpt>
      <trkpt lat="43.377721" lon="-4.058811">
        <ele>29.338</ele>
        <time>2022-08-28T14:00:12Z</time>
      </trkpt>
      <trkpt lat="43.377671" lon="-4.058679">
        <ele>29.379</ele>
        <time>2022-08-28T14:00:14Z</time>
      </trkpt>
      <trkpt lat="43.377646" lon="-4.058614">
        <ele>29.098</ele>
        <time>2022-08-28T14:00:15Z</time>
      </trkpt>
      <trkpt lat="43.377593" lon="-4.058479">
        <ele>28.187</ele>
        <time>2022-08-28T14:00:17Z</time>
      </trkpt>
      <trkpt lat="43.377565" lon="-4.058414">
        <ele>27.845</ele>
        <time>2022-08-28T14:00:18Z</time>
      </trkpt>
      <trkpt lat="43.377535" lon="-4.058346">
        <ele>27.439</ele>
        <time>2022-08-28T14:00:19Z</time>
      </trkpt>
      <trkpt lat="43.377472" lon="-4.058221">
        <ele>27.428</ele>
        <time>2022-08-28T14:00:21Z</time>
      </trkpt>
      <trkpt lat="43.377437" lon="-4.058161">
        <ele>27.544</ele>
        <time>2022-08-28T14:00:22Z</time>
      </trkpt>
      <trkpt lat="43.377359" lon="-4.058049">
        <ele>27.552</ele>
        <time>2022-08-28T14:00:24Z</time>
      </trkpt>
      <trkpt lat="43.377319" lon="-4.057994">
        <ele>27.653</ele>
        <time>2022-08-28T14:00:25Z</time>
      </trkpt>
      <trkpt lat="43.377229" lon="-4.057899">
        <ele>27.808</ele>
        <time>2022-08-28T14:00:27Z</time>
      </trkpt>
      <trkpt lat="43.377141" lon="-4.057811">
        <ele>27.709</ele>
        <time>2022-08-28T14:00:29Z</time>
      </trkpt>
      <trkpt lat="43.377094" lon="-4.057768">
        <ele>27.796</ele>
        <time>2022-08-28T14:00:30Z</time>
      </trkpt>
      <trkpt lat="43.377047" lon="-4.057726">
        <ele>27.586</ele>
        <time>2022-08-28T14:00:31Z</time>
      </trkpt>
      <trkpt lat="43.376999" lon="-4.057684">
        <ele>27.417</ele>
        <time>2022-08-28T14:00:32Z</time>
      </trkpt>
      <trkpt lat="43.376902" lon="-4.057599">
        <ele>27.036</ele>
        <time>2022-08-28T14:00:34Z</time>
      </trkpt>
      <trkpt lat="43.376855" lon="-4.057554">
        <ele>27.025</ele>
        <time>2022-08-28T14:00:35Z</time>
      </trkpt>
      <trkpt lat="43.376805" lon="-4.057509">
        <ele>26.943</ele>
        <time>2022-08-28T14:00:36Z</time>
      </trkpt>
      <trkpt lat="43.376703" lon="-4.057419">
        <ele>26.747</ele>
        <time>2022-08-28T14:00:38Z</time>
      </trkpt>
      <trkpt lat="43.376653" lon="-4.057374">
        <ele>26.586</ele>
        <time>2022-08-28T14:00:39Z</time>
      </trkpt>
      <trkpt lat="43.376603" lon="-4.057329">
        <ele>26.522</ele>
        <time>2022-08-28T14:00:40Z</time>
      </trkpt>
      <trkpt lat="43.376553" lon="-4.057284">
        <ele>26.495</ele>
        <time>2022-08-28T14:00:41Z</time>
      </trkpt>
      <trkpt lat="43.376458" lon="-4.057196">
        <ele>26.249</ele>
        <time>2022-08-28T14:00:43Z</time>
      </trkpt>
      <trkpt lat="43.376411" lon="-4.057156">
        <ele>26.123</ele>
        <time>2022-08-28T14:00:44Z</time>
      </trkpt>
      <trkpt lat="43.376363" lon="-4.057113">
        <ele>26.009</ele>
        <time>2022-08-28T14:00:45Z</time>
      </trkpt>
      <trkpt lat="43.376316" lon="-4.057070">
        <ele>25.890</ele>
        <time>2022-08-28T14:00:46Z</time>
      </trkpt>
      <trkpt lat="43.376273" lon="-4.057022">
        <ele>25.650</ele>
        <time>2022-08-28T14:00:47Z</time>
      </trkpt>
      <trkpt lat="43.376190" lon="-4.056924">
        <ele>25.151</ele>
        <time>2022-08-28T14:00:49Z</time>
      </trkpt>
      <trkpt lat="43.376148" lon="-4.056872">
        <ele>25.180</ele>
        <time>2022-08-28T14:00:50Z</time>
      </trkpt>
      <trkpt lat="43.376103" lon="-4.056819">
        <ele>25.129</ele>
        <time>2022-08-28T14:00:51Z</time>
      </trkpt>
      <trkpt lat="43.376061" lon="-4.056762">
        <ele>25.027</ele>
        <time>2022-08-28T14:00:52Z</time>
      </trkpt>
      <trkpt lat="43.375969" lon="-4.056639">
        <ele>24.781</ele>
        <time>2022-08-28T14:00:54Z</time>
      </trkpt>
      <trkpt lat="43.375929" lon="-4.056561">
        <ele>24.440</ele>
        <time>2022-08-28T14:00:55Z</time>
      </trkpt>
      <trkpt lat="43.375847" lon="-4.056409">
        <ele>24.236</ele>
        <time>2022-08-28T14:00:57Z</time>
      </trkpt>
      <trkpt lat="43.375805" lon="-4.056332">
        <ele>24.276</ele>
        <time>2022-08-28T14:00:58Z</time>
      </trkpt>
      <trkpt lat="43.375727" lon="-4.056159">
        <ele>24.290</ele>
        <time>2022-08-28T14:01:00Z</time>
      </trkpt>
      <trkpt lat="43.375687" lon="-4.056072">
        <ele>24.219</ele>
        <time>2022-08-28T14:01:01Z</time>
      </trkpt>
      <trkpt lat="43.375645" lon="-4.055985">
        <ele>24.109</ele>
        <time>2022-08-28T14:01:02Z</time>
      </trkpt>
      <trkpt lat="43.375607" lon="-4.055893">
        <ele>24.058</ele>
        <time>2022-08-28T14:01:03Z</time>
      </trkpt>
      <trkpt lat="43.375539" lon="-4.055706">
        <ele>24.098</ele>
        <time>2022-08-28T14:01:05Z</time>
      </trkpt>
      <trkpt lat="43.375507" lon="-4.055609">
        <ele>24.089</ele>
        <time>2022-08-28T14:01:06Z</time>
      </trkpt>
      <trkpt lat="43.375480" lon="-4.055509">
        <ele>24.098</ele>
        <time>2022-08-28T14:01:07Z</time>
      </trkpt>
      <trkpt lat="43.375438" lon="-4.055304">
        <ele>23.777</ele>
        <time>2022-08-28T14:01:09Z</time>
      </trkpt>
      <trkpt lat="43.375428" lon="-4.055199">
        <ele>23.625</ele>
        <time>2022-08-28T14:01:10Z</time>
      </trkpt>
      <trkpt lat="43.375420" lon="-4.054982">
        <ele>23.399</ele>
        <time>2022-08-28T14:01:12Z</time>
      </trkpt>
      <trkpt lat="43.375423" lon="-4.054879">
        <ele>23.198</ele>
        <time>2022-08-28T14:01:13Z</time>
      </trkpt>
      <trkpt lat="43.375433" lon="-4.054779">
        <ele>22.994</ele>
        <time>2022-08-28T14:01:14Z</time>
      </trkpt>
      <trkpt lat="43.375470" lon="-4.054587">
        <ele>22.254</ele>
        <time>2022-08-28T14:01:16Z</time>
      </trkpt>
      <trkpt lat="43.375493" lon="-4.054490">
        <ele>21.656</ele>
        <time>2022-08-28T14:01:17Z</time>
      </trkpt>
      <trkpt lat="43.375563" lon="-4.054305">
        <ele>20.111</ele>
        <time>2022-08-28T14:01:19Z</time>
      </trkpt>
      <trkpt lat="43.375648" lon="-4.054120">
        <ele>19.609</ele>
        <time>2022-08-28T14:01:21Z</time>
      </trkpt>
      <trkpt lat="43.375748" lon="-4.053942">
        <ele>19.536</ele>
        <time>2022-08-28T14:01:23Z</time>
      </trkpt>
      <trkpt lat="43.375800" lon="-4.053857">
        <ele>19.586</ele>
        <time>2022-08-28T14:01:24Z</time>
      </trkpt>
      <trkpt lat="43.375855" lon="-4.053767">
        <ele>19.487</ele>
        <time>2022-08-28T14:01:25Z</time>
      </trkpt>
      <trkpt lat="43.375913" lon="-4.053679">
        <ele>19.036</ele>
        <time>2022-08-28T14:01:26Z</time>
      </trkpt>
      <trkpt lat="43.376031" lon="-4.053511">
        <ele>17.455</ele>
        <time>2022-08-28T14:01:28Z</time>
      </trkpt>
      <trkpt lat="43.376134" lon="-4.053336">
        <ele>15.753</ele>
        <time>2022-08-28T14:01:30Z</time>
      </trkpt>
      <trkpt lat="43.376176" lon="-4.053246">
        <ele>15.137</ele>
        <time>2022-08-28T14:01:31Z</time>
      </trkpt>
      <trkpt lat="43.376236" lon="-4.053061">
        <ele>14.016</ele>
        <time>2022-08-28T14:01:33Z</time>
      </trkpt>
      <trkpt lat="43.376259" lon="-4.052969">
        <ele>13.692</ele>
        <time>2022-08-28T14:01:34Z</time>
      </trkpt>
      <trkpt lat="43.376277" lon="-4.052881">
        <ele>13.359</ele>
        <time>2022-08-28T14:01:35Z</time>
      </trkpt>
      <trkpt lat="43.376302" lon="-4.052721">
        <ele>13.203</ele>
        <time>2022-08-28T14:01:37Z</time>
      </trkpt>
      <trkpt lat="43.376317" lon="-4.052568">
        <ele>13.323</ele>
        <time>2022-08-28T14:01:39Z</time>
      </trkpt>
      <trkpt lat="43.376312" lon="-4.052471">
        <ele>13.309</ele>
        <time>2022-08-28T14:01:40Z</time>
      </trkpt>
      <trkpt lat="43.376255" lon="-4.052349">
        <ele>14.376</ele>
        <time>2022-08-28T14:01:42Z</time>
      </trkpt>
      <trkpt lat="43.376268" lon="-4.052199">
        <ele>15.866</ele>
        <time>2022-08-28T14:01:44Z</time>
      </trkpt>
      <trkpt lat="43.376286" lon="-4.052081">
        <ele>32.267</ele>
        <time>2022-08-28T14:01:46Z</time>
      </trkpt>
      <trkpt lat="43.376293" lon="-4.051958">
        <ele>32.256</ele>
        <time>2022-08-28T14:01:48Z</time>
      </trkpt>
      <trkpt lat="43.376300" lon="-4.051845">
        <ele>30.675</ele>
        <time>2022-08-28T14:01:50Z</time>
      </trkpt>
      <trkpt lat="43.376308" lon="-4.051732">
        <ele>29.643</ele>
        <time>2022-08-28T14:01:52Z</time>
      </trkpt>
      <trkpt lat="43.376318" lon="-4.051619">
        <ele>28.317</ele>
        <time>2022-08-28T14:01:54Z</time>
      </trkpt>
      <trkpt lat="43.376336" lon="-4.051504">
        <ele>26.416</ele>
        <time>2022-08-28T14:01:56Z</time>
      </trkpt>
      <trkpt lat="43.376356" lon="-4.051389">
        <ele>26.072</ele>
        <time>2022-08-28T14:01:58Z</time>
      </trkpt>
      <trkpt lat="43.376383" lon="-4.051276">
        <ele>25.487</ele>
        <time>2022-08-28T14:02:00Z</time>
      </trkpt>
      <trkpt lat="43.376418" lon="-4.051168">
        <ele>24.942</ele>
        <time>2022-08-28T14:02:02Z</time>
      </trkpt>
      <trkpt lat="43.376463" lon="-4.051066">
        <ele>24.526</ele>
        <time>2022-08-28T14:02:04Z</time>
      </trkpt>
      <trkpt lat="43.376505" lon="-4.050973">
        <ele>24.109</ele>
        <time>2022-08-28T14:02:06Z</time>
      </trkpt>
      <trkpt lat="43.376553" lon="-4.050880">
        <ele>23.499</ele>
        <time>2022-08-28T14:02:08Z</time>
      </trkpt>
      <trkpt lat="43.376606" lon="-4.050783">
        <ele>22.859</ele>
        <time>2022-08-28T14:02:10Z</time>
      </trkpt>
      <trkpt lat="43.376659" lon="-4.050686">
        <ele>22.370</ele>
        <time>2022-08-28T14:02:12Z</time>
      </trkpt>
      <trkpt lat="43.376714" lon="-4.050589">
        <ele>22.379</ele>
        <time>2022-08-28T14:02:14Z</time>
      </trkpt>
      <trkpt lat="43.376767" lon="-4.050489">
        <ele>22.458</ele>
        <time>2022-08-28T14:02:16Z</time>
      </trkpt>
      <trkpt lat="43.376825" lon="-4.050394">
        <ele>22.826</ele>
        <time>2022-08-28T14:02:18Z</time>
      </trkpt>
      <trkpt lat="43.376877" lon="-4.050299">
        <ele>23.110</ele>
        <time>2022-08-28T14:02:20Z</time>
      </trkpt>
      <trkpt lat="43.376927" lon="-4.050204">
        <ele>23.329</ele>
        <time>2022-08-28T14:02:22Z</time>
      </trkpt>
      <trkpt lat="43.376975" lon="-4.050112">
        <ele>23.495</ele>
        <time>2022-08-28T14:02:24Z</time>
      </trkpt>
      <trkpt lat="43.377025" lon="-4.050025">
        <ele>23.514</ele>
        <time>2022-08-28T14:02:26Z</time>
      </trkpt>
      <trkpt lat="43.377075" lon="-4.049932">
        <ele>23.554</ele>
        <time>2022-08-28T14:02:28Z</time>
      </trkpt>
      <trkpt lat="43.377107" lon="-4.049887">
        <ele>23.609</ele>
        <time>2022-08-28T14:02:29Z</time>
      </trkpt>
      <trkpt lat="43.377160" lon="-4.049790">
        <ele>24.209</ele>
        <time>2022-08-28T14:02:31Z</time>
      </trkpt>
      <trkpt lat="43.377210" lon="-4.049702">
        <ele>25.062</ele>
        <time>2022-08-28T14:02:33Z</time>
      </trkpt>
      <trkpt lat="43.377258" lon="-4.049615">
        <ele>25.012</ele>
        <time>2022-08-28T14:02:35Z</time>
      </trkpt>
      <trkpt lat="43.377305" lon="-4.049527">
        <ele>24.713</ele>
        <time>2022-08-28T14:02:37Z</time>
      </trkpt>
      <trkpt lat="43.377348" lon="-4.049449">
        <ele>24.732</ele>
        <time>2022-08-28T14:02:39Z</time>
      </trkpt>
      <trkpt lat="43.377398" lon="-4.049376">
        <ele>24.631</ele>
        <time>2022-08-28T14:02:41Z</time>
      </trkpt>
      <trkpt lat="43.377445" lon="-4.049293">
        <ele>24.659</ele>
        <time>2022-08-28T14:02:43Z</time>
      </trkpt>
      <trkpt lat="43.377490" lon="-4.049210">
        <ele>24.213</ele>
        <time>2022-08-28T14:02:45Z</time>
      </trkpt>
      <trkpt lat="43.377540" lon="-4.049135">
        <ele>23.852</ele>
        <time>2022-08-28T14:02:47Z</time>
      </trkpt>
      <trkpt lat="43.377590" lon="-4.049060">
        <ele>23.448</ele>
        <time>2022-08-28T14:02:49Z</time>
      </trkpt>
      <trkpt lat="43.377638" lon="-4.048990">
        <ele>23.229</ele>
        <time>2022-08-28T14:02:51Z</time>
      </trkpt>
      <trkpt lat="43.377678" lon="-4.048908">
        <ele>23.200</ele>
        <time>2022-08-28T14:02:53Z</time>
      </trkpt>
      <trkpt lat="43.377730" lon="-4.048825">
        <ele>23.420</ele>
        <time>2022-08-28T14:02:55Z</time>
      </trkpt>
      <trkpt lat="43.377760" lon="-4.048733">
        <ele>23.409</ele>
        <time>2022-08-28T14:02:57Z</time>
      </trkpt>
      <trkpt lat="43.377750" lon="-4.048645">
        <ele>23.443</ele>
        <time>2022-08-28T14:02:59Z</time>
      </trkpt>
      <trkpt lat="43.377730" lon="-4.048568">
        <ele>23.313</ele>
        <time>2022-08-28T14:03:01Z</time>
      </trkpt>
      <trkpt lat="43.377715" lon="-4.048480">
        <ele>23.254</ele>
        <time>2022-08-28T14:03:03Z</time>
      </trkpt>
      <trkpt lat="43.377717" lon="-4.048382">
        <ele>23.263</ele>
        <time>2022-08-28T14:03:05Z</time>
      </trkpt>
      <trkpt lat="43.377732" lon="-4.048314">
        <ele>23.122</ele>
        <time>2022-08-28T14:03:07Z</time>
      </trkpt>
      <trkpt lat="43.377745" lon="-4.048242">
        <ele>23.170</ele>
        <time>2022-08-28T14:03:09Z</time>
      </trkpt>
      <trkpt lat="43.377757" lon="-4.048182">
        <ele>23.384</ele>
        <time>2022-08-28T14:03:11Z</time>
      </trkpt>
      <trkpt lat="43.377754" lon="-4.048105">
        <ele>23.353</ele>
        <time>2022-08-28T14:03:13Z</time>
      </trkpt>
      <trkpt lat="43.377724" lon="-4.048007">
        <ele>23.579</ele>
        <time>2022-08-28T14:03:15Z</time>
      </trkpt>
      <trkpt lat="43.377702" lon="-4.047952">
        <ele>23.898</ele>
        <time>2022-08-28T14:03:16Z</time>
      </trkpt>
      <trkpt lat="43.377647" lon="-4.047820">
        <ele>24.215</ele>
        <time>2022-08-28T14:03:18Z</time>
      </trkpt>
      <trkpt lat="43.377580" lon="-4.047680">
        <ele>24.126</ele>
        <time>2022-08-28T14:03:20Z</time>
      </trkpt>
      <trkpt lat="43.377543" lon="-4.047607">
        <ele>23.909</ele>
        <time>2022-08-28T14:03:21Z</time>
      </trkpt>
      <trkpt lat="43.377468" lon="-4.047460">
        <ele>23.290</ele>
        <time>2022-08-28T14:03:23Z</time>
      </trkpt>
      <trkpt lat="43.377430" lon="-4.047382">
        <ele>23.050</ele>
        <time>2022-08-28T14:03:24Z</time>
      </trkpt>
      <trkpt lat="43.377397" lon="-4.047307">
        <ele>23.061</ele>
        <time>2022-08-28T14:03:25Z</time>
      </trkpt>
      <trkpt lat="43.377330" lon="-4.047172">
        <ele>21.930</ele>
        <time>2022-08-28T14:03:27Z</time>
      </trkpt>
      <trkpt lat="43.377260" lon="-4.047050">
        <ele>20.949</ele>
        <time>2022-08-28T14:03:29Z</time>
      </trkpt>
      <trkpt lat="43.377228" lon="-4.046988">
        <ele>20.697</ele>
        <time>2022-08-28T14:03:30Z</time>
      </trkpt>
      <trkpt lat="43.377196" lon="-4.046925">
        <ele>20.481</ele>
        <time>2022-08-28T14:03:31Z</time>
      </trkpt>
      <trkpt lat="43.377129" lon="-4.046798">
        <ele>20.110</ele>
        <time>2022-08-28T14:03:33Z</time>
      </trkpt>
      <trkpt lat="43.377062" lon="-4.046675">
        <ele>19.686</ele>
        <time>2022-08-28T14:03:35Z</time>
      </trkpt>
      <trkpt lat="43.376995" lon="-4.046547">
        <ele>19.084</ele>
        <time>2022-08-28T14:03:37Z</time>
      </trkpt>
      <trkpt lat="43.376962" lon="-4.046482">
        <ele>18.807</ele>
        <time>2022-08-28T14:03:38Z</time>
      </trkpt>
      <trkpt lat="43.376927" lon="-4.046412">
        <ele>18.617</ele>
        <time>2022-08-28T14:03:39Z</time>
      </trkpt>
      <trkpt lat="43.376860" lon="-4.046274">
        <ele>18.109</ele>
        <time>2022-08-28T14:03:41Z</time>
      </trkpt>
      <trkpt lat="43.376795" lon="-4.046139">
        <ele>18.129</ele>
        <time>2022-08-28T14:03:43Z</time>
      </trkpt>
      <trkpt lat="43.376758" lon="-4.046079">
        <ele>18.359</ele>
        <time>2022-08-28T14:03:44Z</time>
      </trkpt>
      <trkpt lat="43.376688" lon="-4.045951">
        <ele>18.380</ele>
        <time>2022-08-28T14:03:46Z</time>
      </trkpt>
      <trkpt lat="43.376648" lon="-4.045883">
        <ele>18.489</ele>
        <time>2022-08-28T14:03:47Z</time>
      </trkpt>
      <trkpt lat="43.376575" lon="-4.045743">
        <ele>18.818</ele>
        <time>2022-08-28T14:03:49Z</time>
      </trkpt>
      <trkpt lat="43.376538" lon="-4.045668">
        <ele>19.196</ele>
        <time>2022-08-28T14:03:50Z</time>
      </trkpt>
      <trkpt lat="43.376500" lon="-4.045590">
        <ele>19.330</ele>
        <time>2022-08-28T14:03:51Z</time>
      </trkpt>
      <trkpt lat="43.376425" lon="-4.045435">
        <ele>19.519</ele>
        <time>2022-08-28T14:03:53Z</time>
      </trkpt>
      <trkpt lat="43.376385" lon="-4.045357">
        <ele>19.515</ele>
        <time>2022-08-28T14:03:54Z</time>
      </trkpt>
      <trkpt lat="43.376308" lon="-4.045202">
        <ele>19.294</ele>
        <time>2022-08-28T14:03:56Z</time>
      </trkpt>
      <trkpt lat="43.376236" lon="-4.045055">
        <ele>19.057</ele>
        <time>2022-08-28T14:03:58Z</time>
      </trkpt>
      <trkpt lat="43.376163" lon="-4.044912">
        <ele>18.722</ele>
        <time>2022-08-28T14:04:00Z</time>
      </trkpt>
      <trkpt lat="43.376088" lon="-4.044762">
        <ele>18.609</ele>
        <time>2022-08-28T14:04:02Z</time>
      </trkpt>
      <trkpt lat="43.376020" lon="-4.044620">
        <ele>18.620</ele>
        <time>2022-08-28T14:04:04Z</time>
      </trkpt>
      <trkpt lat="43.375983" lon="-4.044548">
        <ele>18.610</ele>
        <time>2022-08-28T14:04:05Z</time>
      </trkpt>
      <trkpt lat="43.375948" lon="-4.044480">
        <ele>18.661</ele>
        <time>2022-08-28T14:04:06Z</time>
      </trkpt>
      <trkpt lat="43.375881" lon="-4.044340">
        <ele>18.810</ele>
        <time>2022-08-28T14:04:08Z</time>
      </trkpt>
      <trkpt lat="43.375848" lon="-4.044268">
        <ele>19.049</ele>
        <time>2022-08-28T14:04:09Z</time>
      </trkpt>
      <trkpt lat="43.375780" lon="-4.044145">
        <ele>19.287</ele>
        <time>2022-08-28T14:04:11Z</time>
      </trkpt>
      <trkpt lat="43.375748" lon="-4.044087">
        <ele>19.231</ele>
        <time>2022-08-28T14:04:12Z</time>
      </trkpt>
      <trkpt lat="43.375715" lon="-4.044030">
        <ele>19.280</ele>
        <time>2022-08-28T14:04:13Z</time>
      </trkpt>
      <trkpt lat="43.375680" lon="-4.043968">
        <ele>19.296</ele>
        <time>2022-08-28T14:04:14Z</time>
      </trkpt>
      <trkpt lat="43.375607" lon="-4.043853">
        <ele>18.894</ele>
        <time>2022-08-28T14:04:16Z</time>
      </trkpt>
      <trkpt lat="43.375525" lon="-4.043736">
        <ele>18.257</ele>
        <time>2022-08-28T14:04:18Z</time>
      </trkpt>
      <trkpt lat="43.375425" lon="-4.043633">
        <ele>17.822</ele>
        <time>2022-08-28T14:04:20Z</time>
      </trkpt>
      <trkpt lat="43.375368" lon="-4.043593">
        <ele>17.509</ele>
        <time>2022-08-28T14:04:21Z</time>
      </trkpt>
      <trkpt lat="43.375308" lon="-4.043558">
        <ele>17.210</ele>
        <time>2022-08-28T14:04:22Z</time>
      </trkpt>
      <trkpt lat="43.375181" lon="-4.043508">
        <ele>17.250</ele>
        <time>2022-08-28T14:04:24Z</time>
      </trkpt>
      <trkpt lat="43.375051" lon="-4.043468">
        <ele>17.661</ele>
        <time>2022-08-28T14:04:26Z</time>
      </trkpt>
      <trkpt lat="43.374923" lon="-4.043431">
        <ele>18.250</ele>
        <time>2022-08-28T14:04:28Z</time>
      </trkpt>
      <trkpt lat="43.374860" lon="-4.043418">
        <ele>18.849</ele>
        <time>2022-08-28T14:04:29Z</time>
      </trkpt>
      <trkpt lat="43.374735" lon="-4.043386">
        <ele>19.447</ele>
        <time>2022-08-28T14:04:31Z</time>
      </trkpt>
      <trkpt lat="43.374675" lon="-4.043371">
        <ele>19.461</ele>
        <time>2022-08-28T14:04:32Z</time>
      </trkpt>
      <trkpt lat="43.374557" lon="-4.043346">
        <ele>19.410</ele>
        <time>2022-08-28T14:04:34Z</time>
      </trkpt>
      <trkpt lat="43.374444" lon="-4.043319">
        <ele>19.516</ele>
        <time>2022-08-28T14:04:36Z</time>
      </trkpt>
      <trkpt lat="43.374386" lon="-4.043299">
        <ele>19.661</ele>
        <time>2022-08-28T14:04:37Z</time>
      </trkpt>
      <trkpt lat="43.374278" lon="-4.043277">
        <ele>19.721</ele>
        <time>2022-08-28T14:04:39Z</time>
      </trkpt>
      <trkpt lat="43.374226" lon="-4.043262">
        <ele>20.113</ele>
        <time>2022-08-28T14:04:40Z</time>
      </trkpt>
      <trkpt lat="43.374174" lon="-4.043247">
        <ele>20.409</ele>
        <time>2022-08-28T14:04:41Z</time>
      </trkpt>
      <trkpt lat="43.374071" lon="-4.043215">
        <ele>20.917</ele>
        <time>2022-08-28T14:04:43Z</time>
      </trkpt>
      <trkpt lat="43.374021" lon="-4.043200">
        <ele>21.377</ele>
        <time>2022-08-28T14:04:44Z</time>
      </trkpt>
      <trkpt lat="43.373926" lon="-4.043167">
        <ele>21.998</ele>
        <time>2022-08-28T14:04:46Z</time>
      </trkpt>
      <trkpt lat="43.373839" lon="-4.043120">
        <ele>22.747</ele>
        <time>2022-08-28T14:04:48Z</time>
      </trkpt>
      <trkpt lat="43.373757" lon="-4.043052">
        <ele>23.546</ele>
        <time>2022-08-28T14:04:50Z</time>
      </trkpt>
      <trkpt lat="43.373684" lon="-4.042979">
        <ele>23.944</ele>
        <time>2022-08-28T14:04:52Z</time>
      </trkpt>
      <trkpt lat="43.373654" lon="-4.042929">
        <ele>24.258</ele>
        <time>2022-08-28T14:04:53Z</time>
      </trkpt>
      <trkpt lat="43.373601" lon="-4.042822">
        <ele>24.767</ele>
        <time>2022-08-28T14:04:55Z</time>
      </trkpt>
      <trkpt lat="43.373559" lon="-4.042707">
        <ele>24.883</ele>
        <time>2022-08-28T14:04:57Z</time>
      </trkpt>
      <trkpt lat="43.373541" lon="-4.042649">
        <ele>25.098</ele>
        <time>2022-08-28T14:04:58Z</time>
      </trkpt>
      <trkpt lat="43.373526" lon="-4.042591">
        <ele>25.115</ele>
        <time>2022-08-28T14:04:59Z</time>
      </trkpt>
      <trkpt lat="43.373494" lon="-4.042479">
        <ele>25.126</ele>
        <time>2022-08-28T14:05:01Z</time>
      </trkpt>
      <trkpt lat="43.373464" lon="-4.042376">
        <ele>25.109</ele>
        <time>2022-08-28T14:05:03Z</time>
      </trkpt>
      <trkpt lat="43.373434" lon="-4.042274">
        <ele>24.770</ele>
        <time>2022-08-28T14:05:05Z</time>
      </trkpt>
      <trkpt lat="43.373397" lon="-4.042169">
        <ele>24.420</ele>
        <time>2022-08-28T14:05:07Z</time>
      </trkpt>
      <trkpt lat="43.373354" lon="-4.042054">
        <ele>24.341</ele>
        <time>2022-08-28T14:05:09Z</time>
      </trkpt>
      <trkpt lat="43.373329" lon="-4.041989">
        <ele>24.310</ele>
        <time>2022-08-28T14:05:10Z</time>
      </trkpt>
      <trkpt lat="43.373302" lon="-4.041917">
        <ele>24.259</ele>
        <time>2022-08-28T14:05:11Z</time>
      </trkpt>
      <trkpt lat="43.373274" lon="-4.041844">
        <ele>24.257</ele>
        <time>2022-08-28T14:05:12Z</time>
      </trkpt>
      <trkpt lat="43.373246" lon="-4.041766">
        <ele>23.871</ele>
        <time>2022-08-28T14:05:13Z</time>
      </trkpt>
      <trkpt lat="43.373174" lon="-4.041614">
        <ele>22.710</ele>
        <time>2022-08-28T14:05:15Z</time>
      </trkpt>
      <trkpt lat="43.373057" lon="-4.041502">
        <ele>21.446</ele>
        <time>2022-08-28T14:05:17Z</time>
      </trkpt>
      <trkpt lat="43.372940" lon="-4.041397">
        <ele>19.978</ele>
        <time>2022-08-28T14:05:19Z</time>
      </trkpt>
      <trkpt lat="43.372900" lon="-4.041224">
        <ele>19.533</ele>
        <time>2022-08-28T14:05:21Z</time>
      </trkpt>
      <trkpt lat="43.372918" lon="-4.041136">
        <ele>19.526</ele>
        <time>2022-08-28T14:05:22Z</time>
      </trkpt>
      <trkpt lat="43.372953" lon="-4.041066">
        <ele>19.609</ele>
        <time>2022-08-28T14:05:23Z</time>
      </trkpt>
      <trkpt lat="43.373021" lon="-4.040976">
        <ele>19.678</ele>
        <time>2022-08-28T14:05:25Z</time>
      </trkpt>
      <trkpt lat="43.373078" lon="-4.040966">
        <ele>19.678</ele>
        <time>2022-08-28T14:05:27Z</time>
      </trkpt>
      <trkpt lat="43.373125" lon="-4.040999">
        <ele>20.659</ele>
        <time>2022-08-28T14:05:39Z</time>
      </trkpt>
      <trkpt lat="43.373173" lon="-4.041006">
        <ele>20.698</ele>
        <time>2022-08-28T14:05:41Z</time>
      </trkpt>
      <trkpt lat="43.373241" lon="-4.040994">
        <ele>20.697</ele>
        <time>2022-08-28T14:05:43Z</time>
      </trkpt>
      <trkpt lat="43.373328" lon="-4.040954">
        <ele>20.695</ele>
        <time>2022-08-28T14:05:45Z</time>
      </trkpt>
      <trkpt lat="43.373428" lon="-4.040896">
        <ele>21.179</ele>
        <time>2022-08-28T14:05:47Z</time>
      </trkpt>
      <trkpt lat="43.373535" lon="-4.040854">
        <ele>21.218</ele>
        <time>2022-08-28T14:05:49Z</time>
      </trkpt>
      <trkpt lat="43.373588" lon="-4.040831">
        <ele>21.154</ele>
        <time>2022-08-28T14:05:50Z</time>
      </trkpt>
      <trkpt lat="43.373691" lon="-4.040784">
        <ele>20.867</ele>
        <time>2022-08-28T14:05:52Z</time>
      </trkpt>
      <trkpt lat="43.373806" lon="-4.040744">
        <ele>20.781</ele>
        <time>2022-08-28T14:05:54Z</time>
      </trkpt>
      <trkpt lat="43.373918" lon="-4.040697">
        <ele>19.719</ele>
        <time>2022-08-28T14:05:56Z</time>
      </trkpt>
      <trkpt lat="43.373978" lon="-4.040674">
        <ele>19.209</ele>
        <time>2022-08-28T14:05:57Z</time>
      </trkpt>
      <trkpt lat="43.374095" lon="-4.040627">
        <ele>18.987</ele>
        <time>2022-08-28T14:05:59Z</time>
      </trkpt>
      <trkpt lat="43.374213" lon="-4.040579">
        <ele>18.587</ele>
        <time>2022-08-28T14:06:01Z</time>
      </trkpt>
      <trkpt lat="43.374275" lon="-4.040556">
        <ele>18.078</ele>
        <time>2022-08-28T14:06:02Z</time>
      </trkpt>
      <trkpt lat="43.374393" lon="-4.040498">
        <ele>17.027</ele>
        <time>2022-08-28T14:06:04Z</time>
      </trkpt>
      <trkpt lat="43.374456" lon="-4.040476">
        <ele>16.656</ele>
        <time>2022-08-28T14:06:05Z</time>
      </trkpt>
      <trkpt lat="43.374578" lon="-4.040433">
        <ele>16.444</ele>
        <time>2022-08-28T14:06:07Z</time>
      </trkpt>
      <trkpt lat="43.374700" lon="-4.040385">
        <ele>16.358</ele>
        <time>2022-08-28T14:06:09Z</time>
      </trkpt>
      <trkpt lat="43.374822" lon="-4.040335">
        <ele>15.527</ele>
        <time>2022-08-28T14:06:11Z</time>
      </trkpt>
      <trkpt lat="43.374882" lon="-4.040310">
        <ele>15.163</ele>
        <time>2022-08-28T14:06:12Z</time>
      </trkpt>
      <trkpt lat="43.374939" lon="-4.040282">
        <ele>14.773</ele>
        <time>2022-08-28T14:06:13Z</time>
      </trkpt>
      <trkpt lat="43.374997" lon="-4.040255">
        <ele>14.785</ele>
        <time>2022-08-28T14:06:14Z</time>
      </trkpt>
      <trkpt lat="43.375114" lon="-4.040205">
        <ele>14.513</ele>
        <time>2022-08-28T14:06:16Z</time>
      </trkpt>
      <trkpt lat="43.375172" lon="-4.040180">
        <ele>14.109</ele>
        <time>2022-08-28T14:06:17Z</time>
      </trkpt>
      <trkpt lat="43.375232" lon="-4.040152">
        <ele>13.978</ele>
        <time>2022-08-28T14:06:18Z</time>
      </trkpt>
      <trkpt lat="43.375292" lon="-4.040120">
        <ele>13.928</ele>
        <time>2022-08-28T14:06:19Z</time>
      </trkpt>
      <trkpt lat="43.375350" lon="-4.040093">
        <ele>13.959</ele>
        <time>2022-08-28T14:06:20Z</time>
      </trkpt>
      <trkpt lat="43.375468" lon="-4.040045">
        <ele>14.168</ele>
        <time>2022-08-28T14:06:22Z</time>
      </trkpt>
      <trkpt lat="43.375531" lon="-4.040025">
        <ele>14.147</ele>
        <time>2022-08-28T14:06:23Z</time>
      </trkpt>
      <trkpt lat="43.375593" lon="-4.040000">
        <ele>14.275</ele>
        <time>2022-08-28T14:06:24Z</time>
      </trkpt>
      <trkpt lat="43.375715" lon="-4.039950">
        <ele>14.599</ele>
        <time>2022-08-28T14:06:26Z</time>
      </trkpt>
      <trkpt lat="43.375840" lon="-4.039902">
        <ele>14.888</ele>
        <time>2022-08-28T14:06:28Z</time>
      </trkpt>
      <trkpt lat="43.375903" lon="-4.039882">
        <ele>14.844</ele>
        <time>2022-08-28T14:06:29Z</time>
      </trkpt>
      <trkpt lat="43.375966" lon="-4.039862">
        <ele>14.994</ele>
        <time>2022-08-28T14:06:30Z</time>
      </trkpt>
      <trkpt lat="43.376091" lon="-4.039820">
        <ele>15.057</ele>
        <time>2022-08-28T14:06:32Z</time>
      </trkpt>
      <trkpt lat="43.376213" lon="-4.039772">
        <ele>15.122</ele>
        <time>2022-08-28T14:06:34Z</time>
      </trkpt>
      <trkpt lat="43.376270" lon="-4.039747">
        <ele>15.109</ele>
        <time>2022-08-28T14:06:35Z</time>
      </trkpt>
      <trkpt lat="43.376383" lon="-4.039694">
        <ele>15.020</ele>
        <time>2022-08-28T14:06:37Z</time>
      </trkpt>
      <trkpt lat="43.376495" lon="-4.039649">
        <ele>15.390</ele>
        <time>2022-08-28T14:06:39Z</time>
      </trkpt>
      <trkpt lat="43.376550" lon="-4.039622">
        <ele>15.841</ele>
        <time>2022-08-28T14:06:40Z</time>
      </trkpt>
      <trkpt lat="43.376663" lon="-4.039557">
        <ele>16.020</ele>
        <time>2022-08-28T14:06:42Z</time>
      </trkpt>
      <trkpt lat="43.376721" lon="-4.039529">
        <ele>16.049</ele>
        <time>2022-08-28T14:06:43Z</time>
      </trkpt>
      <trkpt lat="43.376779" lon="-4.039506">
        <ele>15.647</ele>
        <time>2022-08-28T14:06:44Z</time>
      </trkpt>
      <trkpt lat="43.376892" lon="-4.039454">
        <ele>14.361</ele>
        <time>2022-08-28T14:06:46Z</time>
      </trkpt>
      <trkpt lat="43.377007" lon="-4.039399">
        <ele>13.890</ele>
        <time>2022-08-28T14:06:48Z</time>
      </trkpt>
      <trkpt lat="43.377065" lon="-4.039367">
        <ele>13.516</ele>
        <time>2022-08-28T14:06:49Z</time>
      </trkpt>
      <trkpt lat="43.377125" lon="-4.039340">
        <ele>13.348</ele>
        <time>2022-08-28T14:06:50Z</time>
      </trkpt>
      <trkpt lat="43.377245" lon="-4.039285">
        <ele>12.861</ele>
        <time>2022-08-28T14:06:52Z</time>
      </trkpt>
      <trkpt lat="43.377305" lon="-4.039260">
        <ele>12.817</ele>
        <time>2022-08-28T14:06:53Z</time>
      </trkpt>
      <trkpt lat="43.377428" lon="-4.039212">
        <ele>12.909</ele>
        <time>2022-08-28T14:06:55Z</time>
      </trkpt>
      <trkpt lat="43.377488" lon="-4.039187">
        <ele>13.245</ele>
        <time>2022-08-28T14:06:56Z</time>
      </trkpt>
      <trkpt lat="43.377600" lon="-4.039137">
        <ele>13.865</ele>
        <time>2022-08-28T14:06:58Z</time>
      </trkpt>
      <trkpt lat="43.377715" lon="-4.039085">
        <ele>14.046</ele>
        <time>2022-08-28T14:07:00Z</time>
      </trkpt>
      <trkpt lat="43.377832" lon="-4.039035">
        <ele>14.595</ele>
        <time>2022-08-28T14:07:02Z</time>
      </trkpt>
      <trkpt lat="43.377890" lon="-4.039012">
        <ele>14.944</ele>
        <time>2022-08-28T14:07:03Z</time>
      </trkpt>
      <trkpt lat="43.377950" lon="-4.038989">
        <ele>14.992</ele>
        <time>2022-08-28T14:07:04Z</time>
      </trkpt>
      <trkpt lat="43.378012" lon="-4.038971">
        <ele>14.986</ele>
        <time>2022-08-28T14:07:05Z</time>
      </trkpt>
      <trkpt lat="43.378069" lon="-4.038944">
        <ele>14.965</ele>
        <time>2022-08-28T14:07:06Z</time>
      </trkpt>
      <trkpt lat="43.378184" lon="-4.038896">
        <ele>14.661</ele>
        <time>2022-08-28T14:07:08Z</time>
      </trkpt>
      <trkpt lat="43.378299" lon="-4.038844">
        <ele>14.269</ele>
        <time>2022-08-28T14:07:10Z</time>
      </trkpt>
      <trkpt lat="43.378356" lon="-4.038816">
        <ele>14.104</ele>
        <time>2022-08-28T14:07:11Z</time>
      </trkpt>
      <trkpt lat="43.378466" lon="-4.038761">
        <ele>14.024</ele>
        <time>2022-08-28T14:07:13Z</time>
      </trkpt>
      <trkpt lat="43.378523" lon="-4.038736">
        <ele>13.809</ele>
        <time>2022-08-28T14:07:14Z</time>
      </trkpt>
      <trkpt lat="43.378636" lon="-4.038689">
        <ele>13.357</ele>
        <time>2022-08-28T14:07:16Z</time>
      </trkpt>
      <trkpt lat="43.378693" lon="-4.038662">
        <ele>13.197</ele>
        <time>2022-08-28T14:07:17Z</time>
      </trkpt>
      <trkpt lat="43.378808" lon="-4.038614">
        <ele>13.138</ele>
        <time>2022-08-28T14:07:19Z</time>
      </trkpt>
      <trkpt lat="43.378921" lon="-4.038562">
        <ele>13.727</ele>
        <time>2022-08-28T14:07:21Z</time>
      </trkpt>
      <trkpt lat="43.379034" lon="-4.038510">
        <ele>14.276</ele>
        <time>2022-08-28T14:07:23Z</time>
      </trkpt>
      <trkpt lat="43.379089" lon="-4.038487">
        <ele>14.424</ele>
        <time>2022-08-28T14:07:24Z</time>
      </trkpt>
      <trkpt lat="43.379202" lon="-4.038439">
        <ele>14.958</ele>
        <time>2022-08-28T14:07:26Z</time>
      </trkpt>
      <trkpt lat="43.379312" lon="-4.038387">
        <ele>15.417</ele>
        <time>2022-08-28T14:07:28Z</time>
      </trkpt>
      <trkpt lat="43.379367" lon="-4.038359">
        <ele>15.553</ele>
        <time>2022-08-28T14:07:29Z</time>
      </trkpt>
      <trkpt lat="43.379424" lon="-4.038336">
        <ele>15.627</ele>
        <time>2022-08-28T14:07:30Z</time>
      </trkpt>
      <trkpt lat="43.379544" lon="-4.038294">
        <ele>15.668</ele>
        <time>2022-08-28T14:07:32Z</time>
      </trkpt>
      <trkpt lat="43.379602" lon="-4.038272">
        <ele>15.614</ele>
        <time>2022-08-28T14:07:33Z</time>
      </trkpt>
      <trkpt lat="43.379715" lon="-4.038224">
        <ele>15.609</ele>
        <time>2022-08-28T14:07:35Z</time>
      </trkpt>
      <trkpt lat="43.379830" lon="-4.038171">
        <ele>15.713</ele>
        <time>2022-08-28T14:07:37Z</time>
      </trkpt>
      <trkpt lat="43.379892" lon="-4.038149">
        <ele>15.843</ele>
        <time>2022-08-28T14:07:38Z</time>
      </trkpt>
      <trkpt lat="43.379949" lon="-4.038124">
        <ele>16.054</ele>
        <time>2022-08-28T14:07:39Z</time>
      </trkpt>
      <trkpt lat="43.380057" lon="-4.038076">
        <ele>16.063</ele>
        <time>2022-08-28T14:07:41Z</time>
      </trkpt>
      <trkpt lat="43.380107" lon="-4.038041">
        <ele>15.912</ele>
        <time>2022-08-28T14:07:42Z</time>
      </trkpt>
      <trkpt lat="43.380204" lon="-4.037968">
        <ele>15.460</ele>
        <time>2022-08-28T14:07:44Z</time>
      </trkpt>
      <trkpt lat="43.380251" lon="-4.037923">
        <ele>15.024</ele>
        <time>2022-08-28T14:07:45Z</time>
      </trkpt>
      <trkpt lat="43.380341" lon="-4.037826">
        <ele>14.643</ele>
        <time>2022-08-28T14:07:47Z</time>
      </trkpt>
      <trkpt lat="43.380381" lon="-4.037773">
        <ele>14.659</ele>
        <time>2022-08-28T14:07:48Z</time>
      </trkpt>
      <trkpt lat="43.380454" lon="-4.037655">
        <ele>14.356</ele>
        <time>2022-08-28T14:07:50Z</time>
      </trkpt>
      <trkpt lat="43.380477" lon="-4.037590">
        <ele>14.359</ele>
        <time>2022-08-28T14:07:51Z</time>
      </trkpt>
      <trkpt lat="43.380512" lon="-4.037463">
        <ele>14.314</ele>
        <time>2022-08-28T14:07:53Z</time>
      </trkpt>
      <trkpt lat="43.380572" lon="-4.037376">
        <ele>14.409</ele>
        <time>2022-08-28T14:07:55Z</time>
      </trkpt>
      <trkpt lat="43.380655" lon="-4.037324">
        <ele>14.966</ele>
        <time>2022-08-28T14:07:57Z</time>
      </trkpt>
      <trkpt lat="43.380700" lon="-4.037304">
        <ele>14.946</ele>
        <time>2022-08-28T14:07:58Z</time>
      </trkpt>
      <trkpt lat="43.380788" lon="-4.037246">
        <ele>14.757</ele>
        <time>2022-08-28T14:08:00Z</time>
      </trkpt>
      <trkpt lat="43.380823" lon="-4.037206">
        <ele>14.786</ele>
        <time>2022-08-28T14:08:01Z</time>
      </trkpt>
      <trkpt lat="43.380890" lon="-4.037114">
        <ele>14.715</ele>
        <time>2022-08-28T14:08:03Z</time>
      </trkpt>
      <trkpt lat="43.380922" lon="-4.037066">
        <ele>15.083</ele>
        <time>2022-08-28T14:08:04Z</time>
      </trkpt>
      <trkpt lat="43.380955" lon="-4.037019">
        <ele>15.367</ele>
        <time>2022-08-28T14:08:05Z</time>
      </trkpt>
      <trkpt lat="43.381015" lon="-4.036929">
        <ele>15.926</ele>
        <time>2022-08-28T14:08:07Z</time>
      </trkpt>
      <trkpt lat="43.381045" lon="-4.036881">
        <ele>15.962</ele>
        <time>2022-08-28T14:08:08Z</time>
      </trkpt>
      <trkpt lat="43.381100" lon="-4.036786">
        <ele>15.959</ele>
        <time>2022-08-28T14:08:10Z</time>
      </trkpt>
      <trkpt lat="43.381158" lon="-4.036693">
        <ele>16.003</ele>
        <time>2022-08-28T14:08:12Z</time>
      </trkpt>
      <trkpt lat="43.381213" lon="-4.036600">
        <ele>16.023</ele>
        <time>2022-08-28T14:08:14Z</time>
      </trkpt>
      <trkpt lat="43.381270" lon="-4.036512">
        <ele>16.709</ele>
        <time>2022-08-28T14:08:16Z</time>
      </trkpt>
      <trkpt lat="43.381323" lon="-4.036422">
        <ele>17.176</ele>
        <time>2022-08-28T14:08:18Z</time>
      </trkpt>
      <trkpt lat="43.381378" lon="-4.036330">
        <ele>17.486</ele>
        <time>2022-08-28T14:08:20Z</time>
      </trkpt>
      <trkpt lat="43.381428" lon="-4.036238">
        <ele>17.467</ele>
        <time>2022-08-28T14:08:22Z</time>
      </trkpt>
      <trkpt lat="43.381478" lon="-4.036156">
        <ele>17.456</ele>
        <time>2022-08-28T14:08:24Z</time>
      </trkpt>
      <trkpt lat="43.381528" lon="-4.036078">
        <ele>17.465</ele>
        <time>2022-08-28T14:08:26Z</time>
      </trkpt>
      <trkpt lat="43.381578" lon="-4.036000">
        <ele>17.823</ele>
        <time>2022-08-28T14:08:28Z</time>
      </trkpt>
      <trkpt lat="43.381626" lon="-4.035923">
        <ele>18.487</ele>
        <time>2022-08-28T14:08:30Z</time>
      </trkpt>
      <trkpt lat="43.381674" lon="-4.035848">
        <ele>19.286</ele>
        <time>2022-08-28T14:08:32Z</time>
      </trkpt>
      <trkpt lat="43.381724" lon="-4.035775">
        <ele>19.872</ele>
        <time>2022-08-28T14:08:34Z</time>
      </trkpt>
      <trkpt lat="43.381774" lon="-4.035702">
        <ele>20.497</ele>
        <time>2022-08-28T14:08:36Z</time>
      </trkpt>
      <trkpt lat="43.381822" lon="-4.035632">
        <ele>20.623</ele>
        <time>2022-08-28T14:08:38Z</time>
      </trkpt>
      <trkpt lat="43.381875" lon="-4.035557">
        <ele>21.025</ele>
        <time>2022-08-28T14:08:40Z</time>
      </trkpt>
      <trkpt lat="43.381928" lon="-4.035484">
        <ele>21.309</ele>
        <time>2022-08-28T14:08:42Z</time>
      </trkpt>
      <trkpt lat="43.381985" lon="-4.035412">
        <ele>22.120</ele>
        <time>2022-08-28T14:08:44Z</time>
      </trkpt>
      <trkpt lat="43.382037" lon="-4.035339">
        <ele>22.490</ele>
        <time>2022-08-28T14:08:46Z</time>
      </trkpt>
      <trkpt lat="43.382094" lon="-4.035271">
        <ele>22.811</ele>
        <time>2022-08-28T14:08:48Z</time>
      </trkpt>
      <trkpt lat="43.382149" lon="-4.035201">
        <ele>22.990</ele>
        <time>2022-08-28T14:08:50Z</time>
      </trkpt>
      <trkpt lat="43.382206" lon="-4.035133">
        <ele>22.979</ele>
        <time>2022-08-28T14:08:52Z</time>
      </trkpt>
      <trkpt lat="43.382266" lon="-4.035066">
        <ele>22.977</ele>
        <time>2022-08-28T14:08:54Z</time>
      </trkpt>
      <trkpt lat="43.382331" lon="-4.035001">
        <ele>22.921</ele>
        <time>2022-08-28T14:08:56Z</time>
      </trkpt>
      <trkpt lat="43.382393" lon="-4.034931">
        <ele>22.990</ele>
        <time>2022-08-28T14:08:58Z</time>
      </trkpt>
      <trkpt lat="43.382461" lon="-4.034859">
        <ele>22.966</ele>
        <time>2022-08-28T14:09:00Z</time>
      </trkpt>
      <trkpt lat="43.382528" lon="-4.034784">
        <ele>23.137</ele>
        <time>2022-08-28T14:09:02Z</time>
      </trkpt>
      <trkpt lat="43.382593" lon="-4.034712">
        <ele>23.749</ele>
        <time>2022-08-28T14:09:04Z</time>
      </trkpt>
      <trkpt lat="43.382658" lon="-4.034637">
        <ele>24.113</ele>
        <time>2022-08-28T14:09:06Z</time>
      </trkpt>
      <trkpt lat="43.382720" lon="-4.034557">
        <ele>24.209</ele>
        <time>2022-08-28T14:09:08Z</time>
      </trkpt>
      <trkpt lat="43.382783" lon="-4.034485">
        <ele>24.464</ele>
        <time>2022-08-28T14:09:10Z</time>
      </trkpt>
      <trkpt lat="43.382866" lon="-4.034417">
        <ele>24.424</ele>
        <time>2022-08-28T14:09:12Z</time>
      </trkpt>
      <trkpt lat="43.382904" lon="-4.034360">
        <ele>25.015</ele>
        <time>2022-08-28T14:09:14Z</time>
      </trkpt>
      <trkpt lat="43.382959" lon="-4.034298">
        <ele>25.074</ele>
        <time>2022-08-28T14:09:16Z</time>
      </trkpt>
      <trkpt lat="43.383019" lon="-4.034236">
        <ele>25.233</ele>
        <time>2022-08-28T14:09:18Z</time>
      </trkpt>
      <trkpt lat="43.383076" lon="-4.034178">
        <ele>25.241</ele>
        <time>2022-08-28T14:09:20Z</time>
      </trkpt>
      <trkpt lat="43.383128" lon="-4.034113">
        <ele>25.025</ele>
        <time>2022-08-28T14:09:22Z</time>
      </trkpt>
      <trkpt lat="43.383186" lon="-4.034046">
        <ele>24.964</ele>
        <time>2022-08-28T14:09:24Z</time>
      </trkpt>
      <trkpt lat="43.383248" lon="-4.033978">
        <ele>24.860</ele>
        <time>2022-08-28T14:09:26Z</time>
      </trkpt>
      <trkpt lat="43.383311" lon="-4.033915">
        <ele>24.754</ele>
        <time>2022-08-28T14:09:28Z</time>
      </trkpt>
      <trkpt lat="43.383369" lon="-4.033852">
        <ele>24.656</ele>
        <time>2022-08-28T14:09:30Z</time>
      </trkpt>
      <trkpt lat="43.383424" lon="-4.033787">
        <ele>24.511</ele>
        <time>2022-08-28T14:09:32Z</time>
      </trkpt>
      <trkpt lat="43.383486" lon="-4.033730">
        <ele>24.509</ele>
        <time>2022-08-28T14:09:34Z</time>
      </trkpt>
      <trkpt lat="43.383543" lon="-4.033665">
        <ele>25.086</ele>
        <time>2022-08-28T14:09:36Z</time>
      </trkpt>
      <trkpt lat="43.383601" lon="-4.033600">
        <ele>25.036</ele>
        <time>2022-08-28T14:09:38Z</time>
      </trkpt>
      <trkpt lat="43.383654" lon="-4.033527">
        <ele>25.467</ele>
        <time>2022-08-28T14:09:40Z</time>
      </trkpt>
      <trkpt lat="43.383706" lon="-4.033455">
        <ele>25.566</ele>
        <time>2022-08-28T14:09:42Z</time>
      </trkpt>
      <trkpt lat="43.383766" lon="-4.033388">
        <ele>25.595</ele>
        <time>2022-08-28T14:09:44Z</time>
      </trkpt>
      <trkpt lat="43.383829" lon="-4.033326">
        <ele>25.663</ele>
        <time>2022-08-28T14:09:46Z</time>
      </trkpt>
      <trkpt lat="43.383889" lon="-4.033258">
        <ele>25.617</ele>
        <time>2022-08-28T14:09:48Z</time>
      </trkpt>
      <trkpt lat="43.383946" lon="-4.033201">
        <ele>26.136</ele>
        <time>2022-08-28T14:09:50Z</time>
      </trkpt>
      <trkpt lat="43.384004" lon="-4.033144">
        <ele>26.872</ele>
        <time>2022-08-28T14:09:52Z</time>
      </trkpt>
      <trkpt lat="43.384066" lon="-4.033096">
        <ele>26.926</ele>
        <time>2022-08-28T14:09:54Z</time>
      </trkpt>
      <trkpt lat="43.384121" lon="-4.033043">
        <ele>27.247</ele>
        <time>2022-08-28T14:09:56Z</time>
      </trkpt>
      <trkpt lat="43.384176" lon="-4.032991">
        <ele>27.611</ele>
        <time>2022-08-28T14:09:58Z</time>
      </trkpt>
      <trkpt lat="43.384229" lon="-4.032944">
        <ele>27.909</ele>
        <time>2022-08-28T14:10:00Z</time>
      </trkpt>
      <trkpt lat="43.384284" lon="-4.032906">
        <ele>27.893</ele>
        <time>2022-08-28T14:10:02Z</time>
      </trkpt>
      <trkpt lat="43.384351" lon="-4.032879">
        <ele>27.813</ele>
        <time>2022-08-28T14:10:04Z</time>
      </trkpt>
      <trkpt lat="43.384419" lon="-4.032861">
        <ele>27.634</ele>
        <time>2022-08-28T14:10:06Z</time>
      </trkpt>
      <trkpt lat="43.384484" lon="-4.032844">
        <ele>27.623</ele>
        <time>2022-08-28T14:10:08Z</time>
      </trkpt>
      <trkpt lat="43.384551" lon="-4.032832">
        <ele>27.942</ele>
        <time>2022-08-28T14:10:10Z</time>
      </trkpt>
      <trkpt lat="43.384624" lon="-4.032829">
        <ele>28.070</ele>
        <time>2022-08-28T14:10:12Z</time>
      </trkpt>
      <trkpt lat="43.384692" lon="-4.032826">
        <ele>28.154</ele>
        <time>2022-08-28T14:10:14Z</time>
      </trkpt>
      <trkpt lat="43.384755" lon="-4.032818">
        <ele>28.253</ele>
        <time>2022-08-28T14:10:16Z</time>
      </trkpt>
      <trkpt lat="43.384818" lon="-4.032808">
        <ele>28.719</ele>
        <time>2022-08-28T14:10:18Z</time>
      </trkpt>
      <trkpt lat="43.384893" lon="-4.032808">
        <ele>29.748</ele>
        <time>2022-08-28T14:10:20Z</time>
      </trkpt>
      <trkpt lat="43.384968" lon="-4.032803">
        <ele>30.561</ele>
        <time>2022-08-28T14:10:22Z</time>
      </trkpt>
      <trkpt lat="43.385035" lon="-4.032796">
        <ele>31.317</ele>
        <time>2022-08-28T14:10:24Z</time>
      </trkpt>
      <trkpt lat="43.385105" lon="-4.032798">
        <ele>32.309</ele>
        <time>2022-08-28T14:10:26Z</time>
      </trkpt>
      <trkpt lat="43.385177" lon="-4.032793">
        <ele>33.315</ele>
        <time>2022-08-28T14:10:28Z</time>
      </trkpt>
      <trkpt lat="43.385249" lon="-4.032781">
        <ele>33.555</ele>
        <time>2022-08-28T14:10:30Z</time>
      </trkpt>
      <trkpt lat="43.385321" lon="-4.032773">
        <ele>33.726</ele>
        <time>2022-08-28T14:10:32Z</time>
      </trkpt>
      <trkpt lat="43.385396" lon="-4.032768">
        <ele>33.685</ele>
        <time>2022-08-28T14:10:34Z</time>
      </trkpt>
      <trkpt lat="43.385466" lon="-4.032760">
        <ele>33.744</ele>
        <time>2022-08-28T14:10:36Z</time>
      </trkpt>
      <trkpt lat="43.385534" lon="-4.032757">
        <ele>33.822</ele>
        <time>2022-08-28T14:10:38Z</time>
      </trkpt>
      <trkpt lat="43.385606" lon="-4.032755">
        <ele>33.856</ele>
        <time>2022-08-28T14:10:40Z</time>
      </trkpt>
      <trkpt lat="43.385679" lon="-4.032747">
        <ele>33.885</ele>
        <time>2022-08-28T14:10:42Z</time>
      </trkpt>
      <trkpt lat="43.385754" lon="-4.032737">
        <ele>33.871</ele>
        <time>2022-08-28T14:10:44Z</time>
      </trkpt>
      <trkpt lat="43.385831" lon="-4.032724">
        <ele>33.738</ele>
        <time>2022-08-28T14:10:46Z</time>
      </trkpt>
      <trkpt lat="43.385904" lon="-4.032712">
        <ele>33.370</ele>
        <time>2022-08-28T14:10:48Z</time>
      </trkpt>
      <trkpt lat="43.385976" lon="-4.032697">
        <ele>33.017</ele>
        <time>2022-08-28T14:10:50Z</time>
      </trkpt>
      <trkpt lat="43.386056" lon="-4.032684">
        <ele>32.909</ele>
        <time>2022-08-28T14:10:52Z</time>
      </trkpt>
      <trkpt lat="43.386138" lon="-4.032672">
        <ele>32.384</ele>
        <time>2022-08-28T14:10:54Z</time>
      </trkpt>
      <trkpt lat="43.386210" lon="-4.032625">
        <ele>32.014</ele>
        <time>2022-08-28T14:10:56Z</time>
      </trkpt>
      <trkpt lat="43.386290" lon="-4.032570">
        <ele>31.845</ele>
        <time>2022-08-28T14:10:58Z</time>
      </trkpt>
      <trkpt lat="43.386333" lon="-4.032542">
        <ele>31.834</ele>
        <time>2022-08-28T14:10:59Z</time>
      </trkpt>
      <trkpt lat="43.386371" lon="-4.032509">
        <ele>31.873</ele>
        <time>2022-08-28T14:11:00Z</time>
      </trkpt>
      <trkpt lat="43.386444" lon="-4.032436">
        <ele>31.931</ele>
        <time>2022-08-28T14:11:02Z</time>
      </trkpt>
      <trkpt lat="43.386511" lon="-4.032354">
        <ele>31.915</ele>
        <time>2022-08-28T14:11:04Z</time>
      </trkpt>
      <trkpt lat="43.386574" lon="-4.032266">
        <ele>31.974</ele>
        <time>2022-08-28T14:11:06Z</time>
      </trkpt>
      <trkpt lat="43.386607" lon="-4.032221">
        <ele>31.810</ele>
        <time>2022-08-28T14:11:07Z</time>
      </trkpt>
      <trkpt lat="43.386677" lon="-4.032123">
        <ele>31.569</ele>
        <time>2022-08-28T14:11:09Z</time>
      </trkpt>
      <trkpt lat="43.386710" lon="-4.032073">
        <ele>31.404</ele>
        <time>2022-08-28T14:11:10Z</time>
      </trkpt>
      <trkpt lat="43.386780" lon="-4.031963">
        <ele>31.424</ele>
        <time>2022-08-28T14:11:12Z</time>
      </trkpt>
      <trkpt lat="43.386838" lon="-4.031848">
        <ele>31.509</ele>
        <time>2022-08-28T14:11:14Z</time>
      </trkpt>
      <trkpt lat="43.386866" lon="-4.031790">
        <ele>31.647</ele>
        <time>2022-08-28T14:11:15Z</time>
      </trkpt>
      <trkpt lat="43.386913" lon="-4.031667">
        <ele>32.047</ele>
        <time>2022-08-28T14:11:17Z</time>
      </trkpt>
      <trkpt lat="43.386958" lon="-4.031544">
        <ele>32.368</ele>
        <time>2022-08-28T14:11:19Z</time>
      </trkpt>
      <trkpt lat="43.386981" lon="-4.031482">
        <ele>32.447</ele>
        <time>2022-08-28T14:11:20Z</time>
      </trkpt>
      <trkpt lat="43.387033" lon="-4.031362">
        <ele>32.446</ele>
        <time>2022-08-28T14:11:22Z</time>
      </trkpt>
      <trkpt lat="43.387083" lon="-4.031239">
        <ele>32.334</ele>
        <time>2022-08-28T14:11:24Z</time>
      </trkpt>
      <trkpt lat="43.387108" lon="-4.031177">
        <ele>32.228</ele>
        <time>2022-08-28T14:11:25Z</time>
      </trkpt>
      <trkpt lat="43.387158" lon="-4.031047">
        <ele>32.247</ele>
        <time>2022-08-28T14:11:27Z</time>
      </trkpt>
      <trkpt lat="43.387185" lon="-4.030984">
        <ele>32.293</ele>
        <time>2022-08-28T14:11:28Z</time>
      </trkpt>
      <trkpt lat="43.387238" lon="-4.030862">
        <ele>32.144</ele>
        <time>2022-08-28T14:11:30Z</time>
      </trkpt>
      <trkpt lat="43.387288" lon="-4.030740">
        <ele>31.705</ele>
        <time>2022-08-28T14:11:32Z</time>
      </trkpt>
      <trkpt lat="43.387343" lon="-4.030623">
        <ele>31.515</ele>
        <time>2022-08-28T14:11:34Z</time>
      </trkpt>
      <trkpt lat="43.387371" lon="-4.030563">
        <ele>31.409</ele>
        <time>2022-08-28T14:11:35Z</time>
      </trkpt>
      <trkpt lat="43.387396" lon="-4.030503">
        <ele>31.255</ele>
        <time>2022-08-28T14:11:36Z</time>
      </trkpt>
      <trkpt lat="43.387443" lon="-4.030373">
        <ele>31.115</ele>
        <time>2022-08-28T14:11:38Z</time>
      </trkpt>
      <trkpt lat="43.387463" lon="-4.030306">
        <ele>31.166</ele>
        <time>2022-08-28T14:11:39Z</time>
      </trkpt>
      <trkpt lat="43.387486" lon="-4.030243">
        <ele>31.195</ele>
        <time>2022-08-28T14:11:40Z</time>
      </trkpt>
      <trkpt lat="43.387531" lon="-4.030111">
        <ele>31.384</ele>
        <time>2022-08-28T14:11:42Z</time>
      </trkpt>
      <trkpt lat="43.387578" lon="-4.029981">
        <ele>31.852</ele>
        <time>2022-08-28T14:11:44Z</time>
      </trkpt>
      <trkpt lat="43.387600" lon="-4.029916">
        <ele>31.926</ele>
        <time>2022-08-28T14:11:45Z</time>
      </trkpt>
      <trkpt lat="43.387643" lon="-4.029791">
        <ele>32.195</ele>
        <time>2022-08-28T14:11:47Z</time>
      </trkpt>
      <trkpt lat="43.387690" lon="-4.029668">
        <ele>32.181</ele>
        <time>2022-08-28T14:11:49Z</time>
      </trkpt>
      <trkpt lat="43.387713" lon="-4.029606">
        <ele>32.162</ele>
        <time>2022-08-28T14:11:50Z</time>
      </trkpt>
      <trkpt lat="43.387760" lon="-4.029486">
        <ele>32.283</ele>
        <time>2022-08-28T14:11:52Z</time>
      </trkpt>
      <trkpt lat="43.387785" lon="-4.029429">
        <ele>32.311</ele>
        <time>2022-08-28T14:11:53Z</time>
      </trkpt>
      <trkpt lat="43.387838" lon="-4.029321">
        <ele>32.609</ele>
        <time>2022-08-28T14:11:55Z</time>
      </trkpt>
      <trkpt lat="43.387903" lon="-4.029226">
        <ele>32.647</ele>
        <time>2022-08-28T14:11:57Z</time>
      </trkpt>
      <trkpt lat="43.387940" lon="-4.029179">
        <ele>32.527</ele>
        <time>2022-08-28T14:11:58Z</time>
      </trkpt>
      <trkpt lat="43.388025" lon="-4.029099">
        <ele>32.438</ele>
        <time>2022-08-28T14:12:00Z</time>
      </trkpt>
      <trkpt lat="43.388123" lon="-4.029019">
        <ele>31.867</ele>
        <time>2022-08-28T14:12:02Z</time>
      </trkpt>
      <trkpt lat="43.388175" lon="-4.028979">
        <ele>31.646</ele>
        <time>2022-08-28T14:12:03Z</time>
      </trkpt>
      <trkpt lat="43.388278" lon="-4.028902">
        <ele>31.364</ele>
        <time>2022-08-28T14:12:05Z</time>
      </trkpt>
      <trkpt lat="43.388386" lon="-4.028820">
        <ele>31.058</ele>
        <time>2022-08-28T14:12:07Z</time>
      </trkpt>
      <trkpt lat="43.388499" lon="-4.028728">
        <ele>30.077</ele>
        <time>2022-08-28T14:12:09Z</time>
      </trkpt>
      <trkpt lat="43.388617" lon="-4.028638">
        <ele>29.233</ele>
        <time>2022-08-28T14:12:11Z</time>
      </trkpt>
      <trkpt lat="43.388679" lon="-4.028591">
        <ele>28.655</ele>
        <time>2022-08-28T14:12:12Z</time>
      </trkpt>
      <trkpt lat="43.388742" lon="-4.028546">
        <ele>28.407</ele>
        <time>2022-08-28T14:12:13Z</time>
      </trkpt>
      <trkpt lat="43.388805" lon="-4.028499">
        <ele>28.117</ele>
        <time>2022-08-28T14:12:14Z</time>
      </trkpt>
      <trkpt lat="43.388933" lon="-4.028399">
        <ele>27.309</ele>
        <time>2022-08-28T14:12:16Z</time>
      </trkpt>
      <trkpt lat="43.389060" lon="-4.028299">
        <ele>26.856</ele>
        <time>2022-08-28T14:12:18Z</time>
      </trkpt>
      <trkpt lat="43.389125" lon="-4.028247">
        <ele>26.416</ele>
        <time>2022-08-28T14:12:19Z</time>
      </trkpt>
      <trkpt lat="43.389250" lon="-4.028144">
        <ele>25.877</ele>
        <time>2022-08-28T14:12:21Z</time>
      </trkpt>
      <trkpt lat="43.389375" lon="-4.028037">
        <ele>24.936</ele>
        <time>2022-08-28T14:12:23Z</time>
      </trkpt>
      <trkpt lat="43.389488" lon="-4.027914">
        <ele>23.955</ele>
        <time>2022-08-28T14:12:25Z</time>
      </trkpt>
      <trkpt lat="43.389588" lon="-4.027774">
        <ele>23.033</ele>
        <time>2022-08-28T14:12:27Z</time>
      </trkpt>
      <trkpt lat="43.389631" lon="-4.027699">
        <ele>22.477</ele>
        <time>2022-08-28T14:12:28Z</time>
      </trkpt>
      <trkpt lat="43.389673" lon="-4.027624">
        <ele>21.976</ele>
        <time>2022-08-28T14:12:29Z</time>
      </trkpt>
      <trkpt lat="43.389761" lon="-4.027482">
        <ele>20.772</ele>
        <time>2022-08-28T14:12:31Z</time>
      </trkpt>
      <trkpt lat="43.389808" lon="-4.027405">
        <ele>20.587</ele>
        <time>2022-08-28T14:12:32Z</time>
      </trkpt>
      <trkpt lat="43.389908" lon="-4.027258">
        <ele>20.642</ele>
        <time>2022-08-28T14:12:34Z</time>
      </trkpt>
      <trkpt lat="43.389955" lon="-4.027180">
        <ele>20.726</ele>
        <time>2022-08-28T14:12:35Z</time>
      </trkpt>
      <trkpt lat="43.390043" lon="-4.027017">
        <ele>20.309</ele>
        <time>2022-08-28T14:12:37Z</time>
      </trkpt>
      <trkpt lat="43.390090" lon="-4.026935">
        <ele>19.719</ele>
        <time>2022-08-28T14:12:38Z</time>
      </trkpt>
      <trkpt lat="43.390190" lon="-4.026765">
        <ele>18.649</ele>
        <time>2022-08-28T14:12:40Z</time>
      </trkpt>
      <trkpt lat="43.390245" lon="-4.026678">
        <ele>18.130</ele>
        <time>2022-08-28T14:12:41Z</time>
      </trkpt>
      <trkpt lat="43.390355" lon="-4.026498">
        <ele>17.229</ele>
        <time>2022-08-28T14:12:43Z</time>
      </trkpt>
      <trkpt lat="43.390413" lon="-4.026405">
        <ele>16.828</ele>
        <time>2022-08-28T14:12:44Z</time>
      </trkpt>
      <trkpt lat="43.390526" lon="-4.026217">
        <ele>15.826</ele>
        <time>2022-08-28T14:12:46Z</time>
      </trkpt>
      <trkpt lat="43.390578" lon="-4.026119">
        <ele>15.410</ele>
        <time>2022-08-28T14:12:47Z</time>
      </trkpt>
      <trkpt lat="43.390626" lon="-4.026014">
        <ele>15.039</ele>
        <time>2022-08-28T14:12:48Z</time>
      </trkpt>
      <trkpt lat="43.390696" lon="-4.025801">
        <ele>14.685</ele>
        <time>2022-08-28T14:12:50Z</time>
      </trkpt>
      <trkpt lat="43.390723" lon="-4.025696">
        <ele>14.518</ele>
        <time>2022-08-28T14:12:51Z</time>
      </trkpt>
      <trkpt lat="43.390740" lon="-4.025594">
        <ele>14.498</ele>
        <time>2022-08-28T14:12:52Z</time>
      </trkpt>
      <trkpt lat="43.390757" lon="-4.025494">
        <ele>14.317</ele>
        <time>2022-08-28T14:12:53Z</time>
      </trkpt>
      <trkpt lat="43.390787" lon="-4.025311">
        <ele>14.309</ele>
        <time>2022-08-28T14:12:55Z</time>
      </trkpt>
      <trkpt lat="43.390814" lon="-4.025141">
        <ele>14.652</ele>
        <time>2022-08-28T14:12:57Z</time>
      </trkpt>
      <trkpt lat="43.390842" lon="-4.024976">
        <ele>15.022</ele>
        <time>2022-08-28T14:12:59Z</time>
      </trkpt>
      <trkpt lat="43.390872" lon="-4.024824">
        <ele>15.983</ele>
        <time>2022-08-28T14:13:01Z</time>
      </trkpt>
      <trkpt lat="43.390900" lon="-4.024674">
        <ele>17.062</ele>
        <time>2022-08-28T14:13:03Z</time>
      </trkpt>
      <trkpt lat="43.390923" lon="-4.024534">
        <ele>17.641</ele>
        <time>2022-08-28T14:13:05Z</time>
      </trkpt>
      <trkpt lat="43.390948" lon="-4.024406">
        <ele>18.019</ele>
        <time>2022-08-28T14:13:07Z</time>
      </trkpt>
      <trkpt lat="43.390971" lon="-4.024289">
        <ele>19.143</ele>
        <time>2022-08-28T14:13:09Z</time>
      </trkpt>
      <trkpt lat="43.390994" lon="-4.024177">
        <ele>19.352</ele>
        <time>2022-08-28T14:13:11Z</time>
      </trkpt>
      <trkpt lat="43.391011" lon="-4.024074">
        <ele>19.318</ele>
        <time>2022-08-28T14:13:13Z</time>
      </trkpt>
      <trkpt lat="43.391029" lon="-4.023971">
        <ele>19.317</ele>
        <time>2022-08-28T14:13:15Z</time>
      </trkpt>
      <trkpt lat="43.391047" lon="-4.023869">
        <ele>19.287</ele>
        <time>2022-08-28T14:13:17Z</time>
      </trkpt>
      <trkpt lat="43.391067" lon="-4.023767">
        <ele>19.315</ele>
        <time>2022-08-28T14:13:19Z</time>
      </trkpt>
      <trkpt lat="43.391084" lon="-4.023664">
        <ele>19.409</ele>
        <time>2022-08-28T14:13:21Z</time>
      </trkpt>
      <trkpt lat="43.391101" lon="-4.023562">
        <ele>19.542</ele>
        <time>2022-08-28T14:13:23Z</time>
      </trkpt>
      <trkpt lat="43.391114" lon="-4.023465">
        <ele>19.772</ele>
        <time>2022-08-28T14:13:25Z</time>
      </trkpt>
      <trkpt lat="43.391124" lon="-4.023367">
        <ele>20.263</ele>
        <time>2022-08-28T14:13:27Z</time>
      </trkpt>
      <trkpt lat="43.391136" lon="-4.023260">
        <ele>20.342</ele>
        <time>2022-08-28T14:13:29Z</time>
      </trkpt>
      <trkpt lat="43.391149" lon="-4.023153">
        <ele>20.491</ele>
        <time>2022-08-28T14:13:31Z</time>
      </trkpt>
      <trkpt lat="43.391154" lon="-4.023048">
        <ele>20.639</ele>
        <time>2022-08-28T14:13:33Z</time>
      </trkpt>
      <trkpt lat="43.391162" lon="-4.022943">
        <ele>20.623</ele>
        <time>2022-08-28T14:13:35Z</time>
      </trkpt>
      <trkpt lat="43.391172" lon="-4.022838">
        <ele>20.742</ele>
        <time>2022-08-28T14:13:37Z</time>
      </trkpt>
      <trkpt lat="43.391169" lon="-4.022745">
        <ele>20.778</ele>
        <time>2022-08-28T14:13:39Z</time>
      </trkpt>
      <trkpt lat="43.391172" lon="-4.022677">
        <ele>21.114</ele>
        <time>2022-08-28T14:13:41Z</time>
      </trkpt>
      <trkpt lat="43.391185" lon="-4.022592">
        <ele>21.554</ele>
        <time>2022-08-28T14:14:37Z</time>
      </trkpt>
      <trkpt lat="43.391188" lon="-4.022519">
        <ele>21.509</ele>
        <time>2022-08-28T14:14:39Z</time>
      </trkpt>
      <trkpt lat="43.391191" lon="-4.022419">
        <ele>21.509</ele>
        <time>2022-08-28T14:14:41Z</time>
      </trkpt>
      <trkpt lat="43.391186" lon="-4.022324">
        <ele>21.512</ele>
        <time>2022-08-28T14:14:43Z</time>
      </trkpt>
      <trkpt lat="43.391181" lon="-4.022229">
        <ele>20.872</ele>
        <time>2022-08-28T14:14:45Z</time>
      </trkpt>
      <trkpt lat="43.391166" lon="-4.022156">
        <ele>20.823</ele>
        <time>2022-08-28T14:14:47Z</time>
      </trkpt>
      <trkpt lat="43.391148" lon="-4.022099">
        <ele>20.922</ele>
        <time>2022-08-28T14:14:49Z</time>
      </trkpt>
      <trkpt lat="43.391125" lon="-4.022042">
        <ele>21.431</ele>
        <time>2022-08-28T14:14:51Z</time>
      </trkpt>
      <trkpt lat="43.391108" lon="-4.021962">
        <ele>22.289</ele>
        <time>2022-08-28T14:14:53Z</time>
      </trkpt>
      <trkpt lat="43.391103" lon="-4.021865">
        <ele>22.913</ele>
        <time>2022-08-28T14:14:55Z</time>
      </trkpt>
      <trkpt lat="43.391128" lon="-4.021763">
        <ele>23.262</ele>
        <time>2022-08-28T14:14:57Z</time>
      </trkpt>
      <trkpt lat="43.391190" lon="-4.021678">
        <ele>23.618</ele>
        <time>2022-08-28T14:14:59Z</time>
      </trkpt>
      <trkpt lat="43.391263" lon="-4.021615">
        <ele>23.737</ele>
        <time>2022-08-28T14:15:01Z</time>
      </trkpt>
      <trkpt lat="43.391335" lon="-4.021543">
        <ele>23.249</ele>
        <time>2022-08-28T14:15:03Z</time>
      </trkpt>
      <trkpt lat="43.391367" lon="-4.021490">
        <ele>23.213</ele>
        <time>2022-08-28T14:15:04Z</time>
      </trkpt>
      <trkpt lat="43.391420" lon="-4.021377">
        <ele>23.509</ele>
        <time>2022-08-28T14:15:06Z</time>
      </trkpt>
      <trkpt lat="43.391437" lon="-4.021319">
        <ele>23.894</ele>
        <time>2022-08-28T14:15:07Z</time>
      </trkpt>
      <trkpt lat="43.391465" lon="-4.021192">
        <ele>23.884</ele>
        <time>2022-08-28T14:15:09Z</time>
      </trkpt>
      <trkpt lat="43.391477" lon="-4.021125">
        <ele>23.765</ele>
        <time>2022-08-28T14:15:10Z</time>
      </trkpt>
      <trkpt lat="43.391492" lon="-4.021060">
        <ele>23.644</ele>
        <time>2022-08-28T14:15:11Z</time>
      </trkpt>
      <trkpt lat="43.391509" lon="-4.020993">
        <ele>23.693</ele>
        <time>2022-08-28T14:15:12Z</time>
      </trkpt>
      <trkpt lat="43.391541" lon="-4.020861">
        <ele>23.641</ele>
        <time>2022-08-28T14:15:14Z</time>
      </trkpt>
      <trkpt lat="43.391571" lon="-4.020729">
        <ele>23.565</ele>
        <time>2022-08-28T14:15:16Z</time>
      </trkpt>
      <trkpt lat="43.391603" lon="-4.020607">
        <ele>23.454</ele>
        <time>2022-08-28T14:15:18Z</time>
      </trkpt>
      <trkpt lat="43.391621" lon="-4.020547">
        <ele>23.430</ele>
        <time>2022-08-28T14:15:19Z</time>
      </trkpt>
      <trkpt lat="43.391644" lon="-4.020489">
        <ele>23.569</ele>
        <time>2022-08-28T14:15:20Z</time>
      </trkpt>
      <trkpt lat="43.391697" lon="-4.020374">
        <ele>23.704</ele>
        <time>2022-08-28T14:15:22Z</time>
      </trkpt>
      <trkpt lat="43.391729" lon="-4.020316">
        <ele>23.724</ele>
        <time>2022-08-28T14:15:23Z</time>
      </trkpt>
      <trkpt lat="43.391761" lon="-4.020258">
        <ele>23.709</ele>
        <time>2022-08-28T14:15:24Z</time>
      </trkpt>
      <trkpt lat="43.391796" lon="-4.020196">
        <ele>23.797</ele>
        <time>2022-08-28T14:15:25Z</time>
      </trkpt>
      <trkpt lat="43.391879" lon="-4.020074">
        <ele>22.977</ele>
        <time>2022-08-28T14:15:27Z</time>
      </trkpt>
      <trkpt lat="43.391922" lon="-4.020016">
        <ele>22.768</ele>
        <time>2022-08-28T14:15:28Z</time>
      </trkpt>
      <trkpt lat="43.392012" lon="-4.019894">
        <ele>22.337</ele>
        <time>2022-08-28T14:15:30Z</time>
      </trkpt>
      <trkpt lat="43.392102" lon="-4.019766">
        <ele>21.986</ele>
        <time>2022-08-28T14:15:32Z</time>
      </trkpt>
      <trkpt lat="43.392189" lon="-4.019629">
        <ele>21.544</ele>
        <time>2022-08-28T14:15:34Z</time>
      </trkpt>
      <trkpt lat="43.392231" lon="-4.019554">
        <ele>20.928</ele>
        <time>2022-08-28T14:15:35Z</time>
      </trkpt>
      <trkpt lat="43.392276" lon="-4.019479">
        <ele>20.787</ele>
        <time>2022-08-28T14:15:36Z</time>
      </trkpt>
      <trkpt lat="43.392356" lon="-4.019334">
        <ele>20.373</ele>
        <time>2022-08-28T14:15:38Z</time>
      </trkpt>
      <trkpt lat="43.392448" lon="-4.019189">
        <ele>19.811</ele>
        <time>2022-08-28T14:15:40Z</time>
      </trkpt>
      <trkpt lat="43.392491" lon="-4.019117">
        <ele>19.721</ele>
        <time>2022-08-28T14:15:41Z</time>
      </trkpt>
      <trkpt lat="43.392574" lon="-4.018965">
        <ele>19.703</ele>
        <time>2022-08-28T14:15:43Z</time>
      </trkpt>
      <trkpt lat="43.392671" lon="-4.018818">
        <ele>19.609</ele>
        <time>2022-08-28T14:15:45Z</time>
      </trkpt>
      <trkpt lat="43.392771" lon="-4.018663">
        <ele>18.582</ele>
        <time>2022-08-28T14:15:47Z</time>
      </trkpt>
      <trkpt lat="43.392871" lon="-4.018501">
        <ele>17.642</ele>
        <time>2022-08-28T14:15:49Z</time>
      </trkpt>
      <trkpt lat="43.392919" lon="-4.018416">
        <ele>17.463</ele>
        <time>2022-08-28T14:15:50Z</time>
      </trkpt>
      <trkpt lat="43.392969" lon="-4.018331">
        <ele>17.332</ele>
        <time>2022-08-28T14:15:51Z</time>
      </trkpt>
      <trkpt lat="43.393014" lon="-4.018241">
        <ele>17.111</ele>
        <time>2022-08-28T14:15:52Z</time>
      </trkpt>
      <trkpt lat="43.393106" lon="-4.018066">
        <ele>16.919</ele>
        <time>2022-08-28T14:15:54Z</time>
      </trkpt>
      <trkpt lat="43.393151" lon="-4.017984">
        <ele>16.973</ele>
        <time>2022-08-28T14:15:55Z</time>
      </trkpt>
      <trkpt lat="43.393196" lon="-4.017904">
        <ele>17.072</ele>
        <time>2022-08-28T14:15:56Z</time>
      </trkpt>
      <trkpt lat="43.393283" lon="-4.017751">
        <ele>17.018</ele>
        <time>2022-08-28T14:15:58Z</time>
      </trkpt>
      <trkpt lat="43.393370" lon="-4.017603">
        <ele>16.672</ele>
        <time>2022-08-28T14:16:00Z</time>
      </trkpt>
      <trkpt lat="43.393448" lon="-4.017440">
        <ele>16.513</ele>
        <time>2022-08-28T14:16:02Z</time>
      </trkpt>
      <trkpt lat="43.393485" lon="-4.017352">
        <ele>16.514</ele>
        <time>2022-08-28T14:16:03Z</time>
      </trkpt>
      <trkpt lat="43.393545" lon="-4.017165">
        <ele>16.409</ele>
        <time>2022-08-28T14:16:05Z</time>
      </trkpt>
      <trkpt lat="43.393575" lon="-4.017068">
        <ele>16.058</ele>
        <time>2022-08-28T14:16:06Z</time>
      </trkpt>
      <trkpt lat="43.393602" lon="-4.016971">
        <ele>15.588</ele>
        <time>2022-08-28T14:16:07Z</time>
      </trkpt>
      <trkpt lat="43.393654" lon="-4.016773">
        <ele>14.739</ele>
        <time>2022-08-28T14:16:09Z</time>
      </trkpt>
      <trkpt lat="43.393721" lon="-4.016586">
        <ele>14.458</ele>
        <time>2022-08-28T14:16:11Z</time>
      </trkpt>
      <trkpt lat="43.393759" lon="-4.016496">
        <ele>14.427</ele>
        <time>2022-08-28T14:16:12Z</time>
      </trkpt>
      <trkpt lat="43.393801" lon="-4.016408">
        <ele>14.525</ele>
        <time>2022-08-28T14:16:13Z</time>
      </trkpt>
      <trkpt lat="43.393841" lon="-4.016323">
        <ele>14.569</ele>
        <time>2022-08-28T14:16:14Z</time>
      </trkpt>
      <trkpt lat="43.393916" lon="-4.016141">
        <ele>14.128</ele>
        <time>2022-08-28T14:16:16Z</time>
      </trkpt>
      <trkpt lat="43.393951" lon="-4.016053">
        <ele>14.134</ele>
        <time>2022-08-28T14:16:17Z</time>
      </trkpt>
      <trkpt lat="43.393988" lon="-4.015970">
        <ele>14.297</ele>
        <time>2022-08-28T14:16:18Z</time>
      </trkpt>
      <trkpt lat="43.394060" lon="-4.015815">
        <ele>14.623</ele>
        <time>2022-08-28T14:16:20Z</time>
      </trkpt>
      <trkpt lat="43.394122" lon="-4.015672">
        <ele>14.925</ele>
        <time>2022-08-28T14:16:22Z</time>
      </trkpt>
      <trkpt lat="43.394167" lon="-4.015535">
        <ele>15.409</ele>
        <time>2022-08-28T14:16:24Z</time>
      </trkpt>
      <trkpt lat="43.394184" lon="-4.015400">
        <ele>15.610</ele>
        <time>2022-08-28T14:16:26Z</time>
      </trkpt>
      <trkpt lat="43.394176" lon="-4.015282">
        <ele>16.250</ele>
        <time>2022-08-28T14:16:28Z</time>
      </trkpt>
      <trkpt lat="43.394141" lon="-4.015174">
        <ele>17.141</ele>
        <time>2022-08-28T14:16:30Z</time>
      </trkpt>
      <trkpt lat="43.394113" lon="-4.015124">
        <ele>17.420</ele>
        <time>2022-08-28T14:16:31Z</time>
      </trkpt>
      <trkpt lat="43.394043" lon="-4.015031">
        <ele>17.979</ele>
        <time>2022-08-28T14:16:33Z</time>
      </trkpt>
      <trkpt lat="43.393981" lon="-4.014933">
        <ele>18.347</ele>
        <time>2022-08-28T14:16:35Z</time>
      </trkpt>
      <trkpt lat="43.393921" lon="-4.014833">
        <ele>18.451</ele>
        <time>2022-08-28T14:16:37Z</time>
      </trkpt>
      <trkpt lat="43.393891" lon="-4.014783">
        <ele>18.450</ele>
        <time>2022-08-28T14:16:38Z</time>
      </trkpt>
      <trkpt lat="43.393859" lon="-4.014735">
        <ele>18.486</ele>
        <time>2022-08-28T14:16:39Z</time>
      </trkpt>
      <trkpt lat="43.393799" lon="-4.014647">
        <ele>18.749</ele>
        <time>2022-08-28T14:16:41Z</time>
      </trkpt>
      <trkpt lat="43.393746" lon="-4.014567">
        <ele>19.102</ele>
        <time>2022-08-28T14:16:43Z</time>
      </trkpt>
      <trkpt lat="43.393696" lon="-4.014522">
        <ele>20.022</ele>
        <time>2022-08-28T14:16:45Z</time>
      </trkpt>
      <trkpt lat="43.393638" lon="-4.014462">
        <ele>21.209</ele>
        <time>2022-08-28T14:16:47Z</time>
      </trkpt>
      <trkpt lat="43.393595" lon="-4.014397">
        <ele>21.895</ele>
        <time>2022-08-28T14:16:49Z</time>
      </trkpt>
      <trkpt lat="43.393558" lon="-4.014325">
        <ele>21.975</ele>
        <time>2022-08-28T14:16:51Z</time>
      </trkpt>
      <trkpt lat="43.393505" lon="-4.014278">
        <ele>21.956</ele>
        <time>2022-08-28T14:16:53Z</time>
      </trkpt>
      <trkpt lat="43.393465" lon="-4.014223">
        <ele>21.855</ele>
        <time>2022-08-28T14:16:55Z</time>
      </trkpt>
      <trkpt lat="43.393460" lon="-4.014143">
        <ele>21.374</ele>
        <time>2022-08-28T14:16:57Z</time>
      </trkpt>
      <trkpt lat="43.393432" lon="-4.014076">
        <ele>20.892</ele>
        <time>2022-08-28T14:17:02Z</time>
      </trkpt>
      <trkpt lat="43.393400" lon="-4.014021">
        <ele>20.856</ele>
        <time>2022-08-28T14:17:04Z</time>
      </trkpt>
      <trkpt lat="43.393372" lon="-4.013971">
        <ele>20.865</ele>
        <time>2022-08-28T14:17:06Z</time>
      </trkpt>
      <trkpt lat="43.393350" lon="-4.013889">
        <ele>20.891</ele>
        <time>2022-08-28T14:17:08Z</time>
      </trkpt>
      <trkpt lat="43.393308" lon="-4.013834">
        <ele>20.972</ele>
        <time>2022-08-28T14:17:11Z</time>
      </trkpt>
      <trkpt lat="43.393280" lon="-4.013749">
        <ele>23.913</ele>
        <time>2022-08-28T14:17:14Z</time>
      </trkpt>
      <trkpt lat="43.393262" lon="-4.013679">
        <ele>25.414</ele>
        <time>2022-08-28T14:17:16Z</time>
      </trkpt>
      <trkpt lat="43.393242" lon="-4.013614">
        <ele>26.309</ele>
        <time>2022-08-28T14:17:18Z</time>
      </trkpt>
      <trkpt lat="43.393229" lon="-4.013547">
        <ele>27.528</ele>
        <time>2022-08-28T14:17:20Z</time>
      </trkpt>
      <trkpt lat="43.393217" lon="-4.013485">
        <ele>28.638</ele>
        <time>2022-08-28T14:17:22Z</time>
      </trkpt>
      <trkpt lat="43.393207" lon="-4.013395">
        <ele>30.419</ele>
        <time>2022-08-28T14:17:25Z</time>
      </trkpt>
      <trkpt lat="43.393200" lon="-4.013330">
        <ele>31.318</ele>
        <time>2022-08-28T14:17:27Z</time>
      </trkpt>
      <trkpt lat="43.393200" lon="-4.013262">
        <ele>32.967</ele>
        <time>2022-08-28T14:17:29Z</time>
      </trkpt>
      <trkpt lat="43.393200" lon="-4.013192">
        <ele>34.595</ele>
        <time>2022-08-28T14:17:31Z</time>
      </trkpt>
      <trkpt lat="43.393197" lon="-4.013127">
        <ele>35.399</ele>
        <time>2022-08-28T14:17:33Z</time>
      </trkpt>
      <trkpt lat="43.393199" lon="-4.013059">
        <ele>35.658</ele>
        <time>2022-08-28T14:17:35Z</time>
      </trkpt>
      <trkpt lat="43.393207" lon="-4.012994">
        <ele>35.764</ele>
        <time>2022-08-28T14:17:37Z</time>
      </trkpt>
      <trkpt lat="43.393215" lon="-4.012931">
        <ele>35.774</ele>
        <time>2022-08-28T14:17:39Z</time>
      </trkpt>
      <trkpt lat="43.393230" lon="-4.012858">
        <ele>35.756</ele>
        <time>2022-08-28T14:17:41Z</time>
      </trkpt>
      <trkpt lat="43.393248" lon="-4.012775">
        <ele>35.721</ele>
        <time>2022-08-28T14:17:44Z</time>
      </trkpt>
      <trkpt lat="43.393263" lon="-4.012702">
        <ele>35.509</ele>
        <time>2022-08-28T14:17:47Z</time>
      </trkpt>
      <trkpt lat="43.393281" lon="-4.012629">
        <ele>34.868</ele>
        <time>2022-08-28T14:17:50Z</time>
      </trkpt>
      <trkpt lat="43.393298" lon="-4.012571">
        <ele>34.418</ele>
        <time>2022-08-28T14:17:52Z</time>
      </trkpt>
      <trkpt lat="43.393326" lon="-4.012491">
        <ele>34.279</ele>
        <time>2022-08-28T14:17:55Z</time>
      </trkpt>
      <trkpt lat="43.393353" lon="-4.012441">
        <ele>34.288</ele>
        <time>2022-08-28T14:17:57Z</time>
      </trkpt>
      <trkpt lat="43.393391" lon="-4.012371">
        <ele>34.357</ele>
        <time>2022-08-28T14:18:00Z</time>
      </trkpt>
      <trkpt lat="43.393433" lon="-4.012303">
        <ele>36.165</ele>
        <time>2022-08-28T14:18:03Z</time>
      </trkpt>
      <trkpt lat="43.393473" lon="-4.012233">
        <ele>37.269</ele>
        <time>2022-08-28T14:18:06Z</time>
      </trkpt>
      <trkpt lat="43.393511" lon="-4.012171">
        <ele>38.978</ele>
        <time>2022-08-28T14:18:09Z</time>
      </trkpt>
      <trkpt lat="43.393559" lon="-4.012111">
        <ele>40.014</ele>
        <time>2022-08-28T14:18:12Z</time>
      </trkpt>
      <trkpt lat="43.393604" lon="-4.012046">
        <ele>41.113</ele>
        <time>2022-08-28T14:18:15Z</time>
      </trkpt>
      <trkpt lat="43.393657" lon="-4.011998">
        <ele>41.543</ele>
        <time>2022-08-28T14:18:18Z</time>
      </trkpt>
      <trkpt lat="43.393717" lon="-4.011945">
        <ele>41.707</ele>
        <time>2022-08-28T14:18:21Z</time>
      </trkpt>
      <trkpt lat="43.393760" lon="-4.011895">
        <ele>41.909</ele>
        <time>2022-08-28T14:18:24Z</time>
      </trkpt>
      <trkpt lat="43.393805" lon="-4.011843">
        <ele>42.822</ele>
        <time>2022-08-28T14:18:27Z</time>
      </trkpt>
      <trkpt lat="43.393850" lon="-4.011796">
        <ele>42.992</ele>
        <time>2022-08-28T14:18:30Z</time>
      </trkpt>
      <trkpt lat="43.393897" lon="-4.011738">
        <ele>43.273</ele>
        <time>2022-08-28T14:18:33Z</time>
      </trkpt>
      <trkpt lat="43.393930" lon="-4.011695">
        <ele>43.272</ele>
        <time>2022-08-28T14:18:35Z</time>
      </trkpt>
      <trkpt lat="43.393972" lon="-4.011652">
        <ele>43.171</ele>
        <time>2022-08-28T14:18:37Z</time>
      </trkpt>
      <trkpt lat="43.394014" lon="-4.011604">
        <ele>42.939</ele>
        <time>2022-08-28T14:18:39Z</time>
      </trkpt>
      <trkpt lat="43.394056" lon="-4.011556">
        <ele>42.933</ele>
        <time>2022-08-28T14:18:41Z</time>
      </trkpt>
      <trkpt lat="43.394093" lon="-4.011501">
        <ele>42.992</ele>
        <time>2022-08-28T14:18:43Z</time>
      </trkpt>
      <trkpt lat="43.394130" lon="-4.011441">
        <ele>42.978</ele>
        <time>2022-08-28T14:18:45Z</time>
      </trkpt>
      <trkpt lat="43.394170" lon="-4.011384">
        <ele>42.946</ele>
        <time>2022-08-28T14:18:47Z</time>
      </trkpt>
      <trkpt lat="43.394197" lon="-4.011321">
        <ele>43.388</ele>
        <time>2022-08-28T14:18:49Z</time>
      </trkpt>
      <trkpt lat="43.394220" lon="-4.011259">
        <ele>44.516</ele>
        <time>2022-08-28T14:18:51Z</time>
      </trkpt>
      <trkpt lat="43.394245" lon="-4.011199">
        <ele>45.309</ele>
        <time>2022-08-28T14:18:53Z</time>
      </trkpt>
      <trkpt lat="43.394268" lon="-4.011136">
        <ele>45.475</ele>
        <time>2022-08-28T14:18:55Z</time>
      </trkpt>
      <trkpt lat="43.394291" lon="-4.011074">
        <ele>45.545</ele>
        <time>2022-08-28T14:18:57Z</time>
      </trkpt>
      <trkpt lat="43.394314" lon="-4.011007">
        <ele>45.686</ele>
        <time>2022-08-28T14:18:59Z</time>
      </trkpt>
      <trkpt lat="43.394341" lon="-4.010940">
        <ele>45.725</ele>
        <time>2022-08-28T14:19:01Z</time>
      </trkpt>
      <trkpt lat="43.394371" lon="-4.010878">
        <ele>45.874</ele>
        <time>2022-08-28T14:19:03Z</time>
      </trkpt>
      <trkpt lat="43.394394" lon="-4.010815">
        <ele>45.912</ele>
        <time>2022-08-28T14:19:05Z</time>
      </trkpt>
      <trkpt lat="43.394417" lon="-4.010750">
        <ele>46.166</ele>
        <time>2022-08-28T14:19:07Z</time>
      </trkpt>
      <trkpt lat="43.394444" lon="-4.010692">
        <ele>46.485</ele>
        <time>2022-08-28T14:19:09Z</time>
      </trkpt>
      <trkpt lat="43.394472" lon="-4.010632">
        <ele>46.581</ele>
        <time>2022-08-28T14:19:11Z</time>
      </trkpt>
      <trkpt lat="43.394495" lon="-4.010574">
        <ele>46.569</ele>
        <time>2022-08-28T14:19:13Z</time>
      </trkpt>
      <trkpt lat="43.394518" lon="-4.010512">
        <ele>46.804</ele>
        <time>2022-08-28T14:19:15Z</time>
      </trkpt>
      <trkpt lat="43.394540" lon="-4.010447">
        <ele>47.024</ele>
        <time>2022-08-28T14:19:17Z</time>
      </trkpt>
      <trkpt lat="43.394567" lon="-4.010384">
        <ele>47.009</ele>
        <time>2022-08-28T14:19:19Z</time>
      </trkpt>
      <trkpt lat="43.394592" lon="-4.010321">
        <ele>47.087</ele>
        <time>2022-08-28T14:19:21Z</time>
      </trkpt>
      <trkpt lat="43.394617" lon="-4.010253">
        <ele>47.097</ele>
        <time>2022-08-28T14:19:23Z</time>
      </trkpt>
      <trkpt lat="43.394642" lon="-4.010183">
        <ele>47.048</ele>
        <time>2022-08-28T14:19:25Z</time>
      </trkpt>
      <trkpt lat="43.394665" lon="-4.010115">
        <ele>47.047</ele>
        <time>2022-08-28T14:19:27Z</time>
      </trkpt>
      <trkpt lat="43.394687" lon="-4.010045">
        <ele>47.126</ele>
        <time>2022-08-28T14:19:29Z</time>
      </trkpt>
      <trkpt lat="43.394710" lon="-4.009972">
        <ele>47.194</ele>
        <time>2022-08-28T14:19:31Z</time>
      </trkpt>
      <trkpt lat="43.394733" lon="-4.009894">
        <ele>47.178</ele>
        <time>2022-08-28T14:19:33Z</time>
      </trkpt>
      <trkpt lat="43.394758" lon="-4.009812">
        <ele>47.057</ele>
        <time>2022-08-28T14:19:35Z</time>
      </trkpt>
      <trkpt lat="43.394781" lon="-4.009725">
        <ele>47.063</ele>
        <time>2022-08-28T14:19:37Z</time>
      </trkpt>
      <trkpt lat="43.394809" lon="-4.009635">
        <ele>47.045</ele>
        <time>2022-08-28T14:19:39Z</time>
      </trkpt>
      <trkpt lat="43.394832" lon="-4.009543">
        <ele>47.147</ele>
        <time>2022-08-28T14:19:41Z</time>
      </trkpt>
      <trkpt lat="43.394857" lon="-4.009446">
        <ele>47.411</ele>
        <time>2022-08-28T14:19:43Z</time>
      </trkpt>
      <trkpt lat="43.394885" lon="-4.009341">
        <ele>47.509</ele>
        <time>2022-08-28T14:19:45Z</time>
      </trkpt>
      <trkpt lat="43.394908" lon="-4.009229">
        <ele>47.575</ele>
        <time>2022-08-28T14:19:47Z</time>
      </trkpt>
      <trkpt lat="43.394928" lon="-4.009109">
        <ele>47.575</ele>
        <time>2022-08-28T14:19:49Z</time>
      </trkpt>
      <trkpt lat="43.394948" lon="-4.008982">
        <ele>47.426</ele>
        <time>2022-08-28T14:19:51Z</time>
      </trkpt>
      <trkpt lat="43.394970" lon="-4.008852">
        <ele>47.395</ele>
        <time>2022-08-28T14:19:53Z</time>
      </trkpt>
      <trkpt lat="43.394982" lon="-4.008785">
        <ele>47.174</ele>
        <time>2022-08-28T14:19:54Z</time>
      </trkpt>
      <trkpt lat="43.394992" lon="-4.008713">
        <ele>46.962</ele>
        <time>2022-08-28T14:19:55Z</time>
      </trkpt>
      <trkpt lat="43.395012" lon="-4.008570">
        <ele>46.756</ele>
        <time>2022-08-28T14:19:57Z</time>
      </trkpt>
      <trkpt lat="43.395037" lon="-4.008427">
        <ele>46.545</ele>
        <time>2022-08-28T14:19:59Z</time>
      </trkpt>
      <trkpt lat="43.395047" lon="-4.008355">
        <ele>46.481</ele>
        <time>2022-08-28T14:20:00Z</time>
      </trkpt>
      <trkpt lat="43.395070" lon="-4.008208">
        <ele>46.491</ele>
        <time>2022-08-28T14:20:02Z</time>
      </trkpt>
      <trkpt lat="43.395080" lon="-4.008135">
        <ele>46.381</ele>
        <time>2022-08-28T14:20:03Z</time>
      </trkpt>
      <trkpt lat="43.395103" lon="-4.007990">
        <ele>46.319</ele>
        <time>2022-08-28T14:20:05Z</time>
      </trkpt>
      <trkpt lat="43.395130" lon="-4.007845">
        <ele>46.109</ele>
        <time>2022-08-28T14:20:07Z</time>
      </trkpt>
      <trkpt lat="43.395155" lon="-4.007702">
        <ele>46.110</ele>
        <time>2022-08-28T14:20:09Z</time>
      </trkpt>
      <trkpt lat="43.395185" lon="-4.007567">
        <ele>46.280</ele>
        <time>2022-08-28T14:20:11Z</time>
      </trkpt>
      <trkpt lat="43.395208" lon="-4.007507">
        <ele>46.231</ele>
        <time>2022-08-28T14:20:12Z</time>
      </trkpt>
      <trkpt lat="43.395271" lon="-4.007404">
        <ele>46.410</ele>
        <time>2022-08-28T14:20:14Z</time>
      </trkpt>
      <trkpt lat="43.395353" lon="-4.007326">
        <ele>46.429</ele>
        <time>2022-08-28T14:20:16Z</time>
      </trkpt>
      <trkpt lat="43.395400" lon="-4.007289">
        <ele>46.427</ele>
        <time>2022-08-28T14:20:17Z</time>
      </trkpt>
      <trkpt lat="43.395447" lon="-4.007251">
        <ele>46.471</ele>
        <time>2022-08-28T14:20:18Z</time>
      </trkpt>
      <trkpt lat="43.395545" lon="-4.007171">
        <ele>46.220</ele>
        <time>2022-08-28T14:20:20Z</time>
      </trkpt>
      <trkpt lat="43.395597" lon="-4.007129">
        <ele>46.016</ele>
        <time>2022-08-28T14:20:21Z</time>
      </trkpt>
      <trkpt lat="43.395702" lon="-4.007034">
        <ele>45.852</ele>
        <time>2022-08-28T14:20:23Z</time>
      </trkpt>
      <trkpt lat="43.395810" lon="-4.006934">
        <ele>45.453</ele>
        <time>2022-08-28T14:20:25Z</time>
      </trkpt>
      <trkpt lat="43.395918" lon="-4.006829">
        <ele>44.808</ele>
        <time>2022-08-28T14:20:27Z</time>
      </trkpt>
      <trkpt lat="43.395973" lon="-4.006772">
        <ele>44.509</ele>
        <time>2022-08-28T14:20:28Z</time>
      </trkpt>
      <trkpt lat="43.396085" lon="-4.006654">
        <ele>43.326</ele>
        <time>2022-08-28T14:20:30Z</time>
      </trkpt>
      <trkpt lat="43.396140" lon="-4.006591">
        <ele>42.926</ele>
        <time>2022-08-28T14:20:31Z</time>
      </trkpt>
      <trkpt lat="43.396242" lon="-4.006449">
        <ele>42.027</ele>
        <time>2022-08-28T14:20:33Z</time>
      </trkpt>
      <trkpt lat="43.396334" lon="-4.006287">
        <ele>41.166</ele>
        <time>2022-08-28T14:20:35Z</time>
      </trkpt>
      <trkpt lat="43.396379" lon="-4.006202">
        <ele>40.795</ele>
        <time>2022-08-28T14:20:36Z</time>
      </trkpt>
      <trkpt lat="43.396424" lon="-4.006114">
        <ele>40.583</ele>
        <time>2022-08-28T14:20:37Z</time>
      </trkpt>
      <trkpt lat="43.396471" lon="-4.006024">
        <ele>40.377</ele>
        <time>2022-08-28T14:20:38Z</time>
      </trkpt>
      <trkpt lat="43.396556" lon="-4.005839">
        <ele>39.726</ele>
        <time>2022-08-28T14:20:40Z</time>
      </trkpt>
      <trkpt lat="43.396631" lon="-4.005636">
        <ele>38.982</ele>
        <time>2022-08-28T14:20:42Z</time>
      </trkpt>
      <trkpt lat="43.396669" lon="-4.005408">
        <ele>37.969</ele>
        <time>2022-08-28T14:20:44Z</time>
      </trkpt>
      <trkpt lat="43.396681" lon="-4.005165">
        <ele>37.004</ele>
        <time>2022-08-28T14:20:46Z</time>
      </trkpt>
      <trkpt lat="43.396681" lon="-4.005042">
        <ele>36.624</ele>
        <time>2022-08-28T14:20:47Z</time>
      </trkpt>
      <trkpt lat="43.396666" lon="-4.004919">
        <ele>36.209</ele>
        <time>2022-08-28T14:20:48Z</time>
      </trkpt>
      <trkpt lat="43.396576" lon="-4.004702">
        <ele>35.277</ele>
        <time>2022-08-28T14:20:50Z</time>
      </trkpt>
      <trkpt lat="43.396508" lon="-4.004617">
        <ele>34.857</ele>
        <time>2022-08-28T14:20:51Z</time>
      </trkpt>
      <trkpt lat="43.396363" lon="-4.004477">
        <ele>34.548</ele>
        <time>2022-08-28T14:20:53Z</time>
      </trkpt>
      <trkpt lat="43.396293" lon="-4.004407">
        <ele>34.457</ele>
        <time>2022-08-28T14:20:54Z</time>
      </trkpt>
      <trkpt lat="43.396156" lon="-4.004262">
        <ele>34.226</ele>
        <time>2022-08-28T14:20:56Z</time>
      </trkpt>
      <trkpt lat="43.396086" lon="-4.004194">
        <ele>34.174</ele>
        <time>2022-08-28T14:20:57Z</time>
      </trkpt>
      <trkpt lat="43.395948" lon="-4.004056">
        <ele>33.948</ele>
        <time>2022-08-28T14:20:59Z</time>
      </trkpt>
      <trkpt lat="43.395825" lon="-4.003913">
        <ele>33.797</ele>
        <time>2022-08-28T14:21:01Z</time>
      </trkpt>
      <trkpt lat="43.395728" lon="-4.003748">
        <ele>33.283</ele>
        <time>2022-08-28T14:21:03Z</time>
      </trkpt>
      <trkpt lat="43.395698" lon="-4.003650">
        <ele>33.221</ele>
        <time>2022-08-28T14:21:04Z</time>
      </trkpt>
      <trkpt lat="43.395648" lon="-4.003447">
        <ele>33.241</ele>
        <time>2022-08-28T14:21:06Z</time>
      </trkpt>
      <trkpt lat="43.395623" lon="-4.003347">
        <ele>33.205</ele>
        <time>2022-08-28T14:21:07Z</time>
      </trkpt>
      <trkpt lat="43.395570" lon="-4.003159">
        <ele>33.109</ele>
        <time>2022-08-28T14:21:09Z</time>
      </trkpt>
      <trkpt lat="43.395518" lon="-4.002974">
        <ele>33.183</ele>
        <time>2022-08-28T14:21:11Z</time>
      </trkpt>
      <trkpt lat="43.395491" lon="-4.002882">
        <ele>33.033</ele>
        <time>2022-08-28T14:21:12Z</time>
      </trkpt>
      <trkpt lat="43.395424" lon="-4.002715">
        <ele>32.564</ele>
        <time>2022-08-28T14:21:14Z</time>
      </trkpt>
      <trkpt lat="43.395316" lon="-4.002602">
        <ele>32.033</ele>
        <time>2022-08-28T14:21:16Z</time>
      </trkpt>
      <trkpt lat="43.395183" lon="-4.002545">
        <ele>31.832</ele>
        <time>2022-08-28T14:21:18Z</time>
      </trkpt>
      <trkpt lat="43.395040" lon="-4.002493">
        <ele>31.130</ele>
        <time>2022-08-28T14:21:20Z</time>
      </trkpt>
      <trkpt lat="43.394967" lon="-4.002471">
        <ele>30.884</ele>
        <time>2022-08-28T14:21:21Z</time>
      </trkpt>
      <trkpt lat="43.394894" lon="-4.002448">
        <ele>30.383</ele>
        <time>2022-08-28T14:21:22Z</time>
      </trkpt>
      <trkpt lat="43.394747" lon="-4.002385">
        <ele>29.629</ele>
        <time>2022-08-28T14:21:24Z</time>
      </trkpt>
      <trkpt lat="43.394682" lon="-4.002332">
        <ele>29.354</ele>
        <time>2022-08-28T14:21:25Z</time>
      </trkpt>
      <trkpt lat="43.394589" lon="-4.002155">
        <ele>28.456</ele>
        <time>2022-08-28T14:21:27Z</time>
      </trkpt>
      <trkpt lat="43.394546" lon="-4.001917">
        <ele>27.811</ele>
        <time>2022-08-28T14:21:29Z</time>
      </trkpt>
      <trkpt lat="43.394516" lon="-4.001667">
        <ele>26.409</ele>
        <time>2022-08-28T14:21:31Z</time>
      </trkpt>
      <trkpt lat="43.394489" lon="-4.001409">
        <ele>25.366</ele>
        <time>2022-08-28T14:21:33Z</time>
      </trkpt>
      <trkpt lat="43.394469" lon="-4.001156">
        <ele>25.176</ele>
        <time>2022-08-28T14:21:35Z</time>
      </trkpt>
      <trkpt lat="43.394471" lon="-4.001028">
        <ele>25.097</ele>
        <time>2022-08-28T14:21:36Z</time>
      </trkpt>
      <trkpt lat="43.394503" lon="-4.000786">
        <ele>25.156</ele>
        <time>2022-08-28T14:21:38Z</time>
      </trkpt>
      <trkpt lat="43.394555" lon="-4.000564">
        <ele>25.025</ele>
        <time>2022-08-28T14:21:40Z</time>
      </trkpt>
      <trkpt lat="43.394622" lon="-4.000361">
        <ele>24.733</ele>
        <time>2022-08-28T14:21:42Z</time>
      </trkpt>
      <trkpt lat="43.394692" lon="-4.000161">
        <ele>24.847</ele>
        <time>2022-08-28T14:21:44Z</time>
      </trkpt>
      <trkpt lat="43.394755" lon="-3.999969">
        <ele>24.736</ele>
        <time>2022-08-28T14:21:46Z</time>
      </trkpt>
      <trkpt lat="43.394785" lon="-3.999872">
        <ele>24.552</ele>
        <time>2022-08-28T14:21:47Z</time>
      </trkpt>
      <trkpt lat="43.394818" lon="-3.999780">
        <ele>24.491</ele>
        <time>2022-08-28T14:21:48Z</time>
      </trkpt>
      <trkpt lat="43.394848" lon="-3.999698">
        <ele>24.481</ele>
        <time>2022-08-28T14:21:49Z</time>
      </trkpt>
      <trkpt lat="43.394876" lon="-3.999621">
        <ele>24.519</ele>
        <time>2022-08-28T14:21:50Z</time>
      </trkpt>
      <trkpt lat="43.394924" lon="-3.999473">
        <ele>24.609</ele>
        <time>2022-08-28T14:21:52Z</time>
      </trkpt>
      <trkpt lat="43.394947" lon="-3.999406">
        <ele>25.050</ele>
        <time>2022-08-28T14:21:53Z</time>
      </trkpt>
      <trkpt lat="43.394969" lon="-3.999346">
        <ele>25.240</ele>
        <time>2022-08-28T14:21:54Z</time>
      </trkpt>
      <trkpt lat="43.395007" lon="-3.999236">
        <ele>25.811</ele>
        <time>2022-08-28T14:21:56Z</time>
      </trkpt>
      <trkpt lat="43.395042" lon="-3.999138">
        <ele>26.590</ele>
        <time>2022-08-28T14:21:58Z</time>
      </trkpt>
      <trkpt lat="43.395072" lon="-3.999038">
        <ele>27.039</ele>
        <time>2022-08-28T14:22:00Z</time>
      </trkpt>
      <trkpt lat="43.395102" lon="-3.998935">
        <ele>27.517</ele>
        <time>2022-08-28T14:22:02Z</time>
      </trkpt>
      <trkpt lat="43.395129" lon="-3.998852">
        <ele>27.931</ele>
        <time>2022-08-28T14:22:04Z</time>
      </trkpt>
      <trkpt lat="43.395159" lon="-3.998775">
        <ele>28.550</ele>
        <time>2022-08-28T14:22:06Z</time>
      </trkpt>
      <trkpt lat="43.395181" lon="-3.998698">
        <ele>29.246</ele>
        <time>2022-08-28T14:22:08Z</time>
      </trkpt>
      <trkpt lat="43.395204" lon="-3.998625">
        <ele>29.283</ele>
        <time>2022-08-28T14:22:10Z</time>
      </trkpt>
      <trkpt lat="43.395227" lon="-3.998553">
        <ele>29.225</ele>
        <time>2022-08-28T14:22:12Z</time>
      </trkpt>
      <trkpt lat="43.395252" lon="-3.998480">
        <ele>29.317</ele>
        <time>2022-08-28T14:22:14Z</time>
      </trkpt>
      <trkpt lat="43.395274" lon="-3.998407">
        <ele>29.309</ele>
        <time>2022-08-28T14:22:16Z</time>
      </trkpt>
      <trkpt lat="43.395301" lon="-3.998339">
        <ele>29.659</ele>
        <time>2022-08-28T14:22:18Z</time>
      </trkpt>
      <trkpt lat="43.395326" lon="-3.998272">
        <ele>29.789</ele>
        <time>2022-08-28T14:22:20Z</time>
      </trkpt>
      <trkpt lat="43.395348" lon="-3.998209">
        <ele>29.870</ele>
        <time>2022-08-28T14:22:22Z</time>
      </trkpt>
      <trkpt lat="43.395368" lon="-3.998144">
        <ele>30.089</ele>
        <time>2022-08-28T14:22:24Z</time>
      </trkpt>
      <trkpt lat="43.395388" lon="-3.998079">
        <ele>30.228</ele>
        <time>2022-08-28T14:22:26Z</time>
      </trkpt>
      <trkpt lat="43.395406" lon="-3.998014">
        <ele>30.566</ele>
        <time>2022-08-28T14:22:28Z</time>
      </trkpt>
      <trkpt lat="43.395429" lon="-3.997952">
        <ele>30.590</ele>
        <time>2022-08-28T14:22:30Z</time>
      </trkpt>
      <trkpt lat="43.395449" lon="-3.997887">
        <ele>30.639</ele>
        <time>2022-08-28T14:22:32Z</time>
      </trkpt>
      <trkpt lat="43.395471" lon="-3.997822">
        <ele>30.765</ele>
        <time>2022-08-28T14:22:34Z</time>
      </trkpt>
      <trkpt lat="43.395491" lon="-3.997755">
        <ele>31.359</ele>
        <time>2022-08-28T14:22:36Z</time>
      </trkpt>
      <trkpt lat="43.395519" lon="-3.997680">
        <ele>31.503</ele>
        <time>2022-08-28T14:22:38Z</time>
      </trkpt>
      <trkpt lat="43.395547" lon="-3.997613">
        <ele>31.623</ele>
        <time>2022-08-28T14:22:40Z</time>
      </trkpt>
      <trkpt lat="43.395565" lon="-3.997553">
        <ele>31.709</ele>
        <time>2022-08-28T14:22:42Z</time>
      </trkpt>
      <trkpt lat="43.395593" lon="-3.997465">
        <ele>32.496</ele>
        <time>2022-08-28T14:22:45Z</time>
      </trkpt>
      <trkpt lat="43.395613" lon="-3.997408">
        <ele>32.636</ele>
        <time>2022-08-28T14:22:47Z</time>
      </trkpt>
      <trkpt lat="43.395631" lon="-3.997350">
        <ele>32.857</ele>
        <time>2022-08-28T14:22:49Z</time>
      </trkpt>
      <trkpt lat="43.395653" lon="-3.997287">
        <ele>33.276</ele>
        <time>2022-08-28T14:22:51Z</time>
      </trkpt>
      <trkpt lat="43.395675" lon="-3.997227">
        <ele>33.645</ele>
        <time>2022-08-28T14:22:53Z</time>
      </trkpt>
      <trkpt lat="43.395692" lon="-3.997169">
        <ele>34.223</ele>
        <time>2022-08-28T14:22:55Z</time>
      </trkpt>
      <trkpt lat="43.395709" lon="-3.997111">
        <ele>34.717</ele>
        <time>2022-08-28T14:22:57Z</time>
      </trkpt>
      <trkpt lat="43.395734" lon="-3.997034">
        <ele>35.016</ele>
        <time>2022-08-28T14:23:00Z</time>
      </trkpt>
      <trkpt lat="43.395764" lon="-3.996951">
        <ele>35.042</ele>
        <time>2022-08-28T14:23:03Z</time>
      </trkpt>
      <trkpt lat="43.395789" lon="-3.996869">
        <ele>35.281</ele>
        <time>2022-08-28T14:23:06Z</time>
      </trkpt>
      <trkpt lat="43.395819" lon="-3.996794">
        <ele>35.961</ele>
        <time>2022-08-28T14:23:09Z</time>
      </trkpt>
      <trkpt lat="43.395842" lon="-3.996736">
        <ele>36.417</ele>
        <time>2022-08-28T14:23:11Z</time>
      </trkpt>
      <trkpt lat="43.395862" lon="-3.996676">
        <ele>36.509</ele>
        <time>2022-08-28T14:23:13Z</time>
      </trkpt>
      <trkpt lat="43.395887" lon="-3.996624">
        <ele>36.689</ele>
        <time>2022-08-28T14:23:15Z</time>
      </trkpt>
      <trkpt lat="43.395907" lon="-3.996561">
        <ele>36.889</ele>
        <time>2022-08-28T14:23:17Z</time>
      </trkpt>
      <trkpt lat="43.395935" lon="-3.996481">
        <ele>37.150</ele>
        <time>2022-08-28T14:23:20Z</time>
      </trkpt>
      <trkpt lat="43.395953" lon="-3.996418">
        <ele>37.149</ele>
        <time>2022-08-28T14:23:22Z</time>
      </trkpt>
      <trkpt lat="43.395973" lon="-3.996353">
        <ele>37.228</ele>
        <time>2022-08-28T14:23:24Z</time>
      </trkpt>
      <trkpt lat="43.395991" lon="-3.996288">
        <ele>37.676</ele>
        <time>2022-08-28T14:23:26Z</time>
      </trkpt>
      <trkpt lat="43.396011" lon="-3.996230">
        <ele>38.020</ele>
        <time>2022-08-28T14:23:28Z</time>
      </trkpt>
      <trkpt lat="43.396041" lon="-3.996147">
        <ele>38.649</ele>
        <time>2022-08-28T14:23:31Z</time>
      </trkpt>
      <trkpt lat="43.396059" lon="-3.996087">
        <ele>38.855</ele>
        <time>2022-08-28T14:23:33Z</time>
      </trkpt>
      <trkpt lat="43.396072" lon="-3.996024">
        <ele>39.017</ele>
        <time>2022-08-28T14:23:35Z</time>
      </trkpt>
      <trkpt lat="43.396097" lon="-3.995966">
        <ele>39.587</ele>
        <time>2022-08-28T14:23:37Z</time>
      </trkpt>
      <trkpt lat="43.396117" lon="-3.995903">
        <ele>39.615</ele>
        <time>2022-08-28T14:23:39Z</time>
      </trkpt>
      <trkpt lat="43.396142" lon="-3.995845">
        <ele>39.809</ele>
        <time>2022-08-28T14:23:41Z</time>
      </trkpt>
      <trkpt lat="43.396169" lon="-3.995762">
        <ele>40.752</ele>
        <time>2022-08-28T14:23:44Z</time>
      </trkpt>
      <trkpt lat="43.396197" lon="-3.995685">
        <ele>41.192</ele>
        <time>2022-08-28T14:23:47Z</time>
      </trkpt>
      <trkpt lat="43.396230" lon="-3.995603">
        <ele>41.283</ele>
        <time>2022-08-28T14:23:50Z</time>
      </trkpt>
      <trkpt lat="43.396253" lon="-3.995545">
        <ele>41.382</ele>
        <time>2022-08-28T14:23:52Z</time>
      </trkpt>
      <trkpt lat="43.396275" lon="-3.995465">
        <ele>41.411</ele>
        <time>2022-08-28T14:23:55Z</time>
      </trkpt>
      <trkpt lat="43.396310" lon="-3.995392">
        <ele>41.839</ele>
        <time>2022-08-28T14:23:58Z</time>
      </trkpt>
      <trkpt lat="43.396335" lon="-3.995337">
        <ele>42.173</ele>
        <time>2022-08-28T14:24:00Z</time>
      </trkpt>
      <trkpt lat="43.396362" lon="-3.995264">
        <ele>42.882</ele>
        <time>2022-08-28T14:24:03Z</time>
      </trkpt>
      <trkpt lat="43.396379" lon="-3.995206">
        <ele>43.798</ele>
        <time>2022-08-28T14:24:05Z</time>
      </trkpt>
      <trkpt lat="43.396406" lon="-3.995129">
        <ele>44.484</ele>
        <time>2022-08-28T14:24:08Z</time>
      </trkpt>
      <trkpt lat="43.396434" lon="-3.995061">
        <ele>45.407</ele>
        <time>2022-08-28T14:24:11Z</time>
      </trkpt>
      <trkpt lat="43.396459" lon="-3.994988">
        <ele>46.017</ele>
        <time>2022-08-28T14:24:14Z</time>
      </trkpt>
      <trkpt lat="43.396489" lon="-3.994920">
        <ele>46.309</ele>
        <time>2022-08-28T14:24:17Z</time>
      </trkpt>
      <trkpt lat="43.396521" lon="-3.994858">
        <ele>46.889</ele>
        <time>2022-08-28T14:24:20Z</time>
      </trkpt>
      <trkpt lat="43.396541" lon="-3.994793">
        <ele>47.119</ele>
        <time>2022-08-28T14:24:23Z</time>
      </trkpt>
      <trkpt lat="43.396576" lon="-3.994726">
        <ele>47.850</ele>
        <time>2022-08-28T14:24:26Z</time>
      </trkpt>
      <trkpt lat="43.396609" lon="-3.994676">
        <ele>48.049</ele>
        <time>2022-08-28T14:24:28Z</time>
      </trkpt>
      <trkpt lat="43.396637" lon="-3.994618">
        <ele>48.068</ele>
        <time>2022-08-28T14:24:31Z</time>
      </trkpt>
      <trkpt lat="43.396669" lon="-3.994568">
        <ele>48.066</ele>
        <time>2022-08-28T14:24:34Z</time>
      </trkpt>
      <trkpt lat="43.396707" lon="-3.994513">
        <ele>49.620</ele>
        <time>2022-08-28T14:24:37Z</time>
      </trkpt>
      <trkpt lat="43.396750" lon="-3.994460">
        <ele>51.219</ele>
        <time>2022-08-28T14:24:40Z</time>
      </trkpt>
      <trkpt lat="43.396785" lon="-3.994403">
        <ele>52.175</ele>
        <time>2022-08-28T14:24:43Z</time>
      </trkpt>
      <trkpt lat="43.396818" lon="-3.994330">
        <ele>52.971</ele>
        <time>2022-08-28T14:24:46Z</time>
      </trkpt>
      <trkpt lat="43.396845" lon="-3.994280">
        <ele>52.941</ele>
        <time>2022-08-28T14:24:48Z</time>
      </trkpt>
      <trkpt lat="43.396875" lon="-3.994232">
        <ele>53.015</ele>
        <time>2022-08-28T14:24:50Z</time>
      </trkpt>
      <trkpt lat="43.396910" lon="-3.994164">
        <ele>53.409</ele>
        <time>2022-08-28T14:24:53Z</time>
      </trkpt>
      <trkpt lat="43.396947" lon="-3.994097">
        <ele>54.698</ele>
        <time>2022-08-28T14:24:56Z</time>
      </trkpt>
      <trkpt lat="43.396975" lon="-3.994045">
        <ele>55.528</ele>
        <time>2022-08-28T14:24:58Z</time>
      </trkpt>
      <trkpt lat="43.397010" lon="-3.993998">
        <ele>56.379</ele>
        <time>2022-08-28T14:25:00Z</time>
      </trkpt>
      <trkpt lat="43.397042" lon="-3.993946">
        <ele>56.968</ele>
        <time>2022-08-28T14:25:02Z</time>
      </trkpt>
      <trkpt lat="43.397075" lon="-3.993899">
        <ele>57.887</ele>
        <time>2022-08-28T14:25:04Z</time>
      </trkpt>
      <trkpt lat="43.397100" lon="-3.993837">
        <ele>58.145</ele>
        <time>2022-08-28T14:25:06Z</time>
      </trkpt>
      <trkpt lat="43.397123" lon="-3.993774">
        <ele>58.379</ele>
        <time>2022-08-28T14:25:08Z</time>
      </trkpt>
      <trkpt lat="43.397146" lon="-3.993707">
        <ele>58.588</ele>
        <time>2022-08-28T14:25:10Z</time>
      </trkpt>
      <trkpt lat="43.397171" lon="-3.993637">
        <ele>58.524</ele>
        <time>2022-08-28T14:25:12Z</time>
      </trkpt>
      <trkpt lat="43.397196" lon="-3.993565">
        <ele>58.597</ele>
        <time>2022-08-28T14:25:14Z</time>
      </trkpt>
      <trkpt lat="43.397221" lon="-3.993495">
        <ele>58.523</ele>
        <time>2022-08-28T14:25:16Z</time>
      </trkpt>
      <trkpt lat="43.397249" lon="-3.993427">
        <ele>58.525</ele>
        <time>2022-08-28T14:25:18Z</time>
      </trkpt>
      <trkpt lat="43.397274" lon="-3.993359">
        <ele>58.409</ele>
        <time>2022-08-28T14:25:20Z</time>
      </trkpt>
      <trkpt lat="43.397294" lon="-3.993286">
        <ele>58.220</ele>
        <time>2022-08-28T14:25:22Z</time>
      </trkpt>
      <trkpt lat="43.397316" lon="-3.993213">
        <ele>57.990</ele>
        <time>2022-08-28T14:25:24Z</time>
      </trkpt>
      <trkpt lat="43.397336" lon="-3.993143">
        <ele>57.561</ele>
        <time>2022-08-28T14:25:26Z</time>
      </trkpt>
      <trkpt lat="43.397358" lon="-3.993075">
        <ele>57.460</ele>
        <time>2022-08-28T14:25:28Z</time>
      </trkpt>
      <trkpt lat="43.397380" lon="-3.993002">
        <ele>57.349</ele>
        <time>2022-08-28T14:25:30Z</time>
      </trkpt>
      <trkpt lat="43.397398" lon="-3.992927">
        <ele>56.977</ele>
        <time>2022-08-28T14:25:32Z</time>
      </trkpt>
      <trkpt lat="43.397421" lon="-3.992854">
        <ele>56.951</ele>
        <time>2022-08-28T14:25:34Z</time>
      </trkpt>
      <trkpt lat="43.397443" lon="-3.992786">
        <ele>56.960</ele>
        <time>2022-08-28T14:25:36Z</time>
      </trkpt>
      <trkpt lat="43.397458" lon="-3.992718">
        <ele>57.286</ele>
        <time>2022-08-28T14:25:38Z</time>
      </trkpt>
      <trkpt lat="43.397473" lon="-3.992651">
        <ele>57.323</ele>
        <time>2022-08-28T14:25:40Z</time>
      </trkpt>
      <trkpt lat="43.397488" lon="-3.992583">
        <ele>57.583</ele>
        <time>2022-08-28T14:25:42Z</time>
      </trkpt>
      <trkpt lat="43.397508" lon="-3.992495">
        <ele>58.511</ele>
        <time>2022-08-28T14:25:45Z</time>
      </trkpt>
      <trkpt lat="43.397523" lon="-3.992435">
        <ele>59.209</ele>
        <time>2022-08-28T14:25:47Z</time>
      </trkpt>
      <trkpt lat="43.397540" lon="-3.992375">
        <ele>59.653</ele>
        <time>2022-08-28T14:25:49Z</time>
      </trkpt>
      <trkpt lat="43.397555" lon="-3.992313">
        <ele>60.163</ele>
        <time>2022-08-28T14:25:51Z</time>
      </trkpt>
      <trkpt lat="43.397577" lon="-3.992226">
        <ele>60.714</ele>
        <time>2022-08-28T14:25:54Z</time>
      </trkpt>
      <trkpt lat="43.397590" lon="-3.992166">
        <ele>60.923</ele>
        <time>2022-08-28T14:25:56Z</time>
      </trkpt>
      <trkpt lat="43.397603" lon="-3.992104">
        <ele>61.222</ele>
        <time>2022-08-28T14:25:58Z</time>
      </trkpt>
      <trkpt lat="43.397616" lon="-3.992016">
        <ele>62.150</ele>
        <time>2022-08-28T14:26:01Z</time>
      </trkpt>
      <trkpt lat="43.397623" lon="-3.991928">
        <ele>62.664</ele>
        <time>2022-08-28T14:26:04Z</time>
      </trkpt>
      <trkpt lat="43.397635" lon="-3.991843">
        <ele>62.813</ele>
        <time>2022-08-28T14:26:07Z</time>
      </trkpt>
      <trkpt lat="43.397640" lon="-3.991761">
        <ele>63.419</ele>
        <time>2022-08-28T14:26:10Z</time>
      </trkpt>
      <trkpt lat="43.397638" lon="-3.991681">
        <ele>64.224</ele>
        <time>2022-08-28T14:26:13Z</time>
      </trkpt>
      <trkpt lat="43.397640" lon="-3.991598">
        <ele>64.704</ele>
        <time>2022-08-28T14:26:16Z</time>
      </trkpt>
      <trkpt lat="43.397638" lon="-3.991515">
        <ele>65.014</ele>
        <time>2022-08-28T14:26:19Z</time>
      </trkpt>
      <trkpt lat="43.397638" lon="-3.991437">
        <ele>65.109</ele>
        <time>2022-08-28T14:26:22Z</time>
      </trkpt>
      <trkpt lat="43.397636" lon="-3.991355">
        <ele>65.353</ele>
        <time>2022-08-28T14:26:25Z</time>
      </trkpt>
      <trkpt lat="43.397639" lon="-3.991275">
        <ele>65.843</ele>
        <time>2022-08-28T14:26:28Z</time>
      </trkpt>
      <trkpt lat="43.397647" lon="-3.991195">
        <ele>66.494</ele>
        <time>2022-08-28T14:26:31Z</time>
      </trkpt>
      <trkpt lat="43.397657" lon="-3.991117">
        <ele>66.863</ele>
        <time>2022-08-28T14:26:34Z</time>
      </trkpt>
      <trkpt lat="43.397670" lon="-3.991035">
        <ele>67.542</ele>
        <time>2022-08-28T14:26:37Z</time>
      </trkpt>
      <trkpt lat="43.397677" lon="-3.990960">
        <ele>68.050</ele>
        <time>2022-08-28T14:26:40Z</time>
      </trkpt>
      <trkpt lat="43.397682" lon="-3.990887">
        <ele>68.994</ele>
        <time>2022-08-28T14:26:43Z</time>
      </trkpt>
      <trkpt lat="43.397684" lon="-3.990814">
        <ele>69.643</ele>
        <time>2022-08-28T14:26:46Z</time>
      </trkpt>
      <trkpt lat="43.397687" lon="-3.990739">
        <ele>70.989</ele>
        <time>2022-08-28T14:26:49Z</time>
      </trkpt>
      <trkpt lat="43.397692" lon="-3.990667">
        <ele>71.491</ele>
        <time>2022-08-28T14:26:52Z</time>
      </trkpt>
      <trkpt lat="43.397695" lon="-3.990600">
        <ele>72.581</ele>
        <time>2022-08-28T14:26:55Z</time>
      </trkpt>
      <trkpt lat="43.397697" lon="-3.990533">
        <ele>73.519</ele>
        <time>2022-08-28T14:26:58Z</time>
      </trkpt>
      <trkpt lat="43.397695" lon="-3.990463">
        <ele>74.609</ele>
        <time>2022-08-28T14:27:01Z</time>
      </trkpt>
      <trkpt lat="43.397695" lon="-3.990390">
        <ele>75.480</ele>
        <time>2022-08-28T14:27:04Z</time>
      </trkpt>
      <trkpt lat="43.397693" lon="-3.990302">
        <ele>75.760</ele>
        <time>2022-08-28T14:27:08Z</time>
      </trkpt>
      <trkpt lat="43.397686" lon="-3.990235">
        <ele>76.051</ele>
        <time>2022-08-28T14:27:11Z</time>
      </trkpt>
      <trkpt lat="43.397684" lon="-3.990163">
        <ele>76.720</ele>
        <time>2022-08-28T14:27:14Z</time>
      </trkpt>
      <trkpt lat="43.397689" lon="-3.990090">
        <ele>76.979</ele>
        <time>2022-08-28T14:27:17Z</time>
      </trkpt>
      <trkpt lat="43.397684" lon="-3.990010">
        <ele>77.057</ele>
        <time>2022-08-28T14:27:20Z</time>
      </trkpt>
      <trkpt lat="43.397682" lon="-3.989938">
        <ele>77.351</ele>
        <time>2022-08-28T14:27:23Z</time>
      </trkpt>
      <trkpt lat="43.397682" lon="-3.989863">
        <ele>78.070</ele>
        <time>2022-08-28T14:27:26Z</time>
      </trkpt>
      <trkpt lat="43.397692" lon="-3.989801">
        <ele>78.856</ele>
        <time>2022-08-28T14:27:29Z</time>
      </trkpt>
      <trkpt lat="43.397710" lon="-3.989731">
        <ele>79.768</ele>
        <time>2022-08-28T14:27:32Z</time>
      </trkpt>
      <trkpt lat="43.397727" lon="-3.989656">
        <ele>81.442</ele>
        <time>2022-08-28T14:27:36Z</time>
      </trkpt>
      <trkpt lat="43.397749" lon="-3.989591">
        <ele>82.626</ele>
        <time>2022-08-28T14:27:39Z</time>
      </trkpt>
      <trkpt lat="43.397772" lon="-3.989523">
        <ele>82.809</ele>
        <time>2022-08-28T14:27:42Z</time>
      </trkpt>
      <trkpt lat="43.397802" lon="-3.989458">
        <ele>82.967</ele>
        <time>2022-08-28T14:27:46Z</time>
      </trkpt>
      <trkpt lat="43.397839" lon="-3.989396">
        <ele>83.517</ele>
        <time>2022-08-28T14:27:50Z</time>
      </trkpt>
      <trkpt lat="43.397882" lon="-3.989338">
        <ele>84.548</ele>
        <time>2022-08-28T14:27:54Z</time>
      </trkpt>
      <trkpt lat="43.397924" lon="-3.989298">
        <ele>85.087</ele>
        <time>2022-08-28T14:27:57Z</time>
      </trkpt>
      <trkpt lat="43.397964" lon="-3.989253">
        <ele>85.326</ele>
        <time>2022-08-28T14:28:00Z</time>
      </trkpt>
      <trkpt lat="43.398006" lon="-3.989211">
        <ele>86.324</ele>
        <time>2022-08-28T14:28:03Z</time>
      </trkpt>
      <trkpt lat="43.398051" lon="-3.989169">
        <ele>87.368</ele>
        <time>2022-08-28T14:28:06Z</time>
      </trkpt>
      <trkpt lat="43.398089" lon="-3.989129">
        <ele>88.277</ele>
        <time>2022-08-28T14:28:09Z</time>
      </trkpt>
      <trkpt lat="43.398132" lon="-3.989084">
        <ele>89.063</ele>
        <time>2022-08-28T14:28:12Z</time>
      </trkpt>
      <trkpt lat="43.398179" lon="-3.989036">
        <ele>89.622</ele>
        <time>2022-08-28T14:28:15Z</time>
      </trkpt>
      <trkpt lat="43.398222" lon="-3.988993">
        <ele>89.962</ele>
        <time>2022-08-28T14:28:18Z</time>
      </trkpt>
      <trkpt lat="43.398265" lon="-3.988956">
        <ele>90.108</ele>
        <time>2022-08-28T14:28:21Z</time>
      </trkpt>
      <trkpt lat="43.398312" lon="-3.988914">
        <ele>90.309</ele>
        <time>2022-08-28T14:28:24Z</time>
      </trkpt>
      <trkpt lat="43.398360" lon="-3.988871">
        <ele>90.443</ele>
        <time>2022-08-28T14:28:27Z</time>
      </trkpt>
      <trkpt lat="43.398412" lon="-3.988824">
        <ele>90.673</ele>
        <time>2022-08-28T14:28:30Z</time>
      </trkpt>
      <trkpt lat="43.398464" lon="-3.988786">
        <ele>91.444</ele>
        <time>2022-08-28T14:28:33Z</time>
      </trkpt>
      <trkpt lat="43.398514" lon="-3.988744">
        <ele>92.683</ele>
        <time>2022-08-28T14:28:36Z</time>
      </trkpt>
      <trkpt lat="43.398559" lon="-3.988699">
        <ele>92.952</ele>
        <time>2022-08-28T14:28:39Z</time>
      </trkpt>
      <trkpt lat="43.398602" lon="-3.988654">
        <ele>92.990</ele>
        <time>2022-08-28T14:28:42Z</time>
      </trkpt>
      <trkpt lat="43.398644" lon="-3.988599">
        <ele>92.954</ele>
        <time>2022-08-28T14:28:45Z</time>
      </trkpt>
      <trkpt lat="43.398691" lon="-3.988549">
        <ele>92.863</ele>
        <time>2022-08-28T14:28:48Z</time>
      </trkpt>
      <trkpt lat="43.398734" lon="-3.988494">
        <ele>92.969</ele>
        <time>2022-08-28T14:28:51Z</time>
      </trkpt>
      <trkpt lat="43.398769" lon="-3.988426">
        <ele>92.933</ele>
        <time>2022-08-28T14:28:54Z</time>
      </trkpt>
      <trkpt lat="43.398802" lon="-3.988359">
        <ele>93.023</ele>
        <time>2022-08-28T14:28:57Z</time>
      </trkpt>
      <trkpt lat="43.398844" lon="-3.988287">
        <ele>94.315</ele>
        <time>2022-08-28T14:29:00Z</time>
      </trkpt>
      <trkpt lat="43.398877" lon="-3.988212">
        <ele>94.409</ele>
        <time>2022-08-28T14:29:03Z</time>
      </trkpt>
      <trkpt lat="43.398905" lon="-3.988154">
        <ele>94.644</ele>
        <time>2022-08-28T14:29:06Z</time>
      </trkpt>
      <trkpt lat="43.398927" lon="-3.988086">
        <ele>96.164</ele>
        <time>2022-08-28T14:29:09Z</time>
      </trkpt>
      <trkpt lat="43.398964" lon="-3.988028">
        <ele>96.645</ele>
        <time>2022-08-28T14:29:12Z</time>
      </trkpt>
      <trkpt lat="43.398992" lon="-3.987971">
        <ele>96.894</ele>
        <time>2022-08-28T14:29:15Z</time>
      </trkpt>
      <trkpt lat="43.398990" lon="-3.987904">
        <ele>97.173</ele>
        <time>2022-08-28T14:29:18Z</time>
      </trkpt>
      <trkpt lat="43.398975" lon="-3.987832">
        <ele>99.311</ele>
        <time>2022-08-28T14:29:21Z</time>
      </trkpt>
      <trkpt lat="43.398963" lon="-3.987760">
        <ele>100.315</ele>
        <time>2022-08-28T14:29:24Z</time>
      </trkpt>
      <trkpt lat="43.398963" lon="-3.987685">
        <ele>100.914</ele>
        <time>2022-08-28T14:29:27Z</time>
      </trkpt>
      <trkpt lat="43.398976" lon="-3.987623">
        <ele>100.960</ele>
        <time>2022-08-28T14:29:30Z</time>
      </trkpt>
      <trkpt lat="43.398993" lon="-3.987550">
        <ele>100.975</ele>
        <time>2022-08-28T14:29:34Z</time>
      </trkpt>
      <trkpt lat="43.399020" lon="-3.987455">
        <ele>100.028</ele>
        <time>2022-08-28T14:29:45Z</time>
      </trkpt>
      <trkpt lat="43.399073" lon="-3.987443">
        <ele>99.920</ele>
        <time>2022-08-28T14:29:48Z</time>
      </trkpt>
      <trkpt lat="43.399125" lon="-3.987450">
        <ele>99.909</ele>
        <time>2022-08-28T14:29:51Z</time>
      </trkpt>
      <trkpt lat="43.399172" lon="-3.987450">
        <ele>99.928</ele>
        <time>2022-08-28T14:29:54Z</time>
      </trkpt>
      <trkpt lat="43.399220" lon="-3.987443">
        <ele>99.888</ele>
        <time>2022-08-28T14:29:57Z</time>
      </trkpt>
      <trkpt lat="43.399797" lon="-3.986133">
        <ele>100.869</ele>
        <time>2022-08-28T14:39:44Z</time>
      </trkpt>
      <trkpt lat="43.399870" lon="-3.986023">
        <ele>101.868</ele>
        <time>2022-08-28T14:39:46Z</time>
      </trkpt>
      <trkpt lat="43.399842" lon="-3.985911">
        <ele>106.757</ele>
        <time>2022-08-28T14:39:48Z</time>
      </trkpt>
      <trkpt lat="43.399822" lon="-3.985774">
        <ele>107.055</ele>
        <time>2022-08-28T14:39:50Z</time>
      </trkpt>
      <trkpt lat="43.399815" lon="-3.985642">
        <ele>107.219</ele>
        <time>2022-08-28T14:39:52Z</time>
      </trkpt>
      <trkpt lat="43.399833" lon="-3.985507">
        <ele>107.088</ele>
        <time>2022-08-28T14:39:54Z</time>
      </trkpt>
      <trkpt lat="43.399846" lon="-3.985442">
        <ele>106.414</ele>
        <time>2022-08-28T14:39:55Z</time>
      </trkpt>
      <trkpt lat="43.399869" lon="-3.985322">
        <ele>105.858</ele>
        <time>2022-08-28T14:39:57Z</time>
      </trkpt>
      <trkpt lat="43.399894" lon="-3.985199">
        <ele>105.552</ele>
        <time>2022-08-28T14:39:59Z</time>
      </trkpt>
      <trkpt lat="43.399926" lon="-3.985066">
        <ele>105.617</ele>
        <time>2022-08-28T14:40:01Z</time>
      </trkpt>
      <trkpt lat="43.399946" lon="-3.984923">
        <ele>105.309</ele>
        <time>2022-08-28T14:40:03Z</time>
      </trkpt>
      <trkpt lat="43.399968" lon="-3.984781">
        <ele>104.616</ele>
        <time>2022-08-28T14:40:05Z</time>
      </trkpt>
      <trkpt lat="43.399995" lon="-3.984631">
        <ele>103.346</ele>
        <time>2022-08-28T14:40:07Z</time>
      </trkpt>
      <trkpt lat="43.400008" lon="-3.984558">
        <ele>102.997</ele>
        <time>2022-08-28T14:40:08Z</time>
      </trkpt>
      <trkpt lat="43.400030" lon="-3.984415">
        <ele>102.876</ele>
        <time>2022-08-28T14:40:10Z</time>
      </trkpt>
      <trkpt lat="43.400060" lon="-3.984280">
        <ele>103.025</ele>
        <time>2022-08-28T14:40:12Z</time>
      </trkpt>
      <trkpt lat="43.400078" lon="-3.984215">
        <ele>103.113</ele>
        <time>2022-08-28T14:40:13Z</time>
      </trkpt>
      <trkpt lat="43.400098" lon="-3.984152">
        <ele>103.147</ele>
        <time>2022-08-28T14:40:14Z</time>
      </trkpt>
      <trkpt lat="43.400143" lon="-3.984042">
        <ele>103.086</ele>
        <time>2022-08-28T14:40:16Z</time>
      </trkpt>
      <trkpt lat="43.400193" lon="-3.983934">
        <ele>102.562</ele>
        <time>2022-08-28T14:40:18Z</time>
      </trkpt>
      <trkpt lat="43.400243" lon="-3.983822">
        <ele>102.291</ele>
        <time>2022-08-28T14:40:20Z</time>
      </trkpt>
      <trkpt lat="43.400298" lon="-3.983712">
        <ele>101.781</ele>
        <time>2022-08-28T14:40:22Z</time>
      </trkpt>
      <trkpt lat="43.400350" lon="-3.983595">
        <ele>101.219</ele>
        <time>2022-08-28T14:40:24Z</time>
      </trkpt>
      <trkpt lat="43.400400" lon="-3.983470">
        <ele>100.709</ele>
        <time>2022-08-28T14:40:26Z</time>
      </trkpt>
      <trkpt lat="43.400427" lon="-3.983408">
        <ele>100.530</ele>
        <time>2022-08-28T14:40:27Z</time>
      </trkpt>
      <trkpt lat="43.400480" lon="-3.983280">
        <ele>100.440</ele>
        <time>2022-08-28T14:40:29Z</time>
      </trkpt>
      <trkpt lat="43.400532" lon="-3.983160">
        <ele>100.491</ele>
        <time>2022-08-28T14:40:31Z</time>
      </trkpt>
      <trkpt lat="43.400557" lon="-3.983105">
        <ele>100.470</ele>
        <time>2022-08-28T14:40:32Z</time>
      </trkpt>
      <trkpt lat="43.400582" lon="-3.983047">
        <ele>100.429</ele>
        <time>2022-08-28T14:40:33Z</time>
      </trkpt>
      <trkpt lat="43.400635" lon="-3.982930">
        <ele>100.897</ele>
        <time>2022-08-28T14:40:35Z</time>
      </trkpt>
      <trkpt lat="43.400660" lon="-3.982870">
        <ele>101.261</ele>
        <time>2022-08-28T14:40:36Z</time>
      </trkpt>
      <trkpt lat="43.400683" lon="-3.982812">
        <ele>101.510</ele>
        <time>2022-08-28T14:40:37Z</time>
      </trkpt>
      <trkpt lat="43.400731" lon="-3.982685">
        <ele>101.686</ele>
        <time>2022-08-28T14:40:39Z</time>
      </trkpt>
      <trkpt lat="43.400779" lon="-3.982555">
        <ele>101.796</ele>
        <time>2022-08-28T14:40:41Z</time>
      </trkpt>
      <trkpt lat="43.400829" lon="-3.982425">
        <ele>101.931</ele>
        <time>2022-08-28T14:40:43Z</time>
      </trkpt>
      <trkpt lat="43.400872" lon="-3.982295">
        <ele>101.924</ele>
        <time>2022-08-28T14:40:45Z</time>
      </trkpt>
      <trkpt lat="43.400915" lon="-3.982162">
        <ele>102.009</ele>
        <time>2022-08-28T14:40:47Z</time>
      </trkpt>
      <trkpt lat="43.400937" lon="-3.982095">
        <ele>102.060</ele>
        <time>2022-08-28T14:40:48Z</time>
      </trkpt>
      <trkpt lat="43.400974" lon="-3.981965">
        <ele>102.060</ele>
        <time>2022-08-28T14:40:50Z</time>
      </trkpt>
      <trkpt lat="43.401017" lon="-3.981837">
        <ele>102.061</ele>
        <time>2022-08-28T14:40:52Z</time>
      </trkpt>
      <trkpt lat="43.401035" lon="-3.981774">
        <ele>102.070</ele>
        <time>2022-08-28T14:40:53Z</time>
      </trkpt>
      <trkpt lat="43.401078" lon="-3.981647">
        <ele>102.219</ele>
        <time>2022-08-28T14:40:55Z</time>
      </trkpt>
      <trkpt lat="43.401125" lon="-3.981519">
        <ele>102.427</ele>
        <time>2022-08-28T14:40:57Z</time>
      </trkpt>
      <trkpt lat="43.401168" lon="-3.981394">
        <ele>102.451</ele>
        <time>2022-08-28T14:40:59Z</time>
      </trkpt>
      <trkpt lat="43.401188" lon="-3.981331">
        <ele>102.250</ele>
        <time>2022-08-28T14:41:00Z</time>
      </trkpt>
      <trkpt lat="43.401208" lon="-3.981271">
        <ele>101.896</ele>
        <time>2022-08-28T14:41:01Z</time>
      </trkpt>
      <trkpt lat="43.401246" lon="-3.981146">
        <ele>101.477</ele>
        <time>2022-08-28T14:41:03Z</time>
      </trkpt>
      <trkpt lat="43.401266" lon="-3.981084">
        <ele>101.461</ele>
        <time>2022-08-28T14:41:04Z</time>
      </trkpt>
      <trkpt lat="43.401288" lon="-3.981019">
        <ele>101.227</ele>
        <time>2022-08-28T14:41:05Z</time>
      </trkpt>
      <trkpt lat="43.401336" lon="-3.980892">
        <ele>100.509</ele>
        <time>2022-08-28T14:41:07Z</time>
      </trkpt>
      <trkpt lat="43.401358" lon="-3.980827">
        <ele>100.378</ele>
        <time>2022-08-28T14:41:08Z</time>
      </trkpt>
      <trkpt lat="43.401410" lon="-3.980697">
        <ele>100.118</ele>
        <time>2022-08-28T14:41:10Z</time>
      </trkpt>
      <trkpt lat="43.401437" lon="-3.980632">
        <ele>100.129</ele>
        <time>2022-08-28T14:41:11Z</time>
      </trkpt>
      <trkpt lat="43.401492" lon="-3.980507">
        <ele>100.118</ele>
        <time>2022-08-28T14:41:13Z</time>
      </trkpt>
      <trkpt lat="43.401524" lon="-3.980447">
        <ele>100.057</ele>
        <time>2022-08-28T14:41:14Z</time>
      </trkpt>
      <trkpt lat="43.401589" lon="-3.980327">
        <ele>99.595</ele>
        <time>2022-08-28T14:41:16Z</time>
      </trkpt>
      <trkpt lat="43.401622" lon="-3.980267">
        <ele>99.389</ele>
        <time>2022-08-28T14:41:17Z</time>
      </trkpt>
      <trkpt lat="43.401692" lon="-3.980150">
        <ele>98.858</ele>
        <time>2022-08-28T14:41:19Z</time>
      </trkpt>
      <trkpt lat="43.401725" lon="-3.980092">
        <ele>98.844</ele>
        <time>2022-08-28T14:41:20Z</time>
      </trkpt>
      <trkpt lat="43.401792" lon="-3.979972">
        <ele>98.753</ele>
        <time>2022-08-28T14:41:22Z</time>
      </trkpt>
      <trkpt lat="43.401859" lon="-3.979854">
        <ele>98.504</ele>
        <time>2022-08-28T14:41:24Z</time>
      </trkpt>
      <trkpt lat="43.401901" lon="-3.979796">
        <ele>98.114</ele>
        <time>2022-08-28T14:41:25Z</time>
      </trkpt>
      <trkpt lat="43.401983" lon="-3.979673">
        <ele>97.709</ele>
        <time>2022-08-28T14:41:27Z</time>
      </trkpt>
      <trkpt lat="43.402021" lon="-3.979606">
        <ele>97.766</ele>
        <time>2022-08-28T14:41:28Z</time>
      </trkpt>
      <trkpt lat="43.402061" lon="-3.979541">
        <ele>97.626</ele>
        <time>2022-08-28T14:41:29Z</time>
      </trkpt>
      <trkpt lat="43.402103" lon="-3.979474">
        <ele>97.657</ele>
        <time>2022-08-28T14:41:30Z</time>
      </trkpt>
      <trkpt lat="43.402143" lon="-3.979406">
        <ele>97.546</ele>
        <time>2022-08-28T14:41:31Z</time>
      </trkpt>
      <trkpt lat="43.402220" lon="-3.979271">
        <ele>97.385</ele>
        <time>2022-08-28T14:41:33Z</time>
      </trkpt>
      <trkpt lat="43.402258" lon="-3.979199">
        <ele>97.243</ele>
        <time>2022-08-28T14:41:34Z</time>
      </trkpt>
      <trkpt lat="43.402340" lon="-3.979061">
        <ele>97.077</ele>
        <time>2022-08-28T14:41:36Z</time>
      </trkpt>
      <trkpt lat="43.402387" lon="-3.978996">
        <ele>96.966</ele>
        <time>2022-08-28T14:41:37Z</time>
      </trkpt>
      <trkpt lat="43.402432" lon="-3.978931">
        <ele>96.982</ele>
        <time>2022-08-28T14:41:38Z</time>
      </trkpt>
      <trkpt lat="43.402519" lon="-3.978796">
        <ele>96.817</ele>
        <time>2022-08-28T14:41:40Z</time>
      </trkpt>
      <trkpt lat="43.402604" lon="-3.978653">
        <ele>96.387</ele>
        <time>2022-08-28T14:41:42Z</time>
      </trkpt>
      <trkpt lat="43.402651" lon="-3.978581">
        <ele>96.315</ele>
        <time>2022-08-28T14:41:43Z</time>
      </trkpt>
      <trkpt lat="43.402698" lon="-3.978513">
        <ele>96.409</ele>
        <time>2022-08-28T14:41:44Z</time>
      </trkpt>
      <trkpt lat="43.402780" lon="-3.978375">
        <ele>96.282</ele>
        <time>2022-08-28T14:41:46Z</time>
      </trkpt>
      <trkpt lat="43.402827" lon="-3.978305">
        <ele>96.262</ele>
        <time>2022-08-28T14:41:47Z</time>
      </trkpt>
      <trkpt lat="43.402874" lon="-3.978238">
        <ele>96.013</ele>
        <time>2022-08-28T14:41:48Z</time>
      </trkpt>
      <trkpt lat="43.402961" lon="-3.978093">
        <ele>95.762</ele>
        <time>2022-08-28T14:41:50Z</time>
      </trkpt>
      <trkpt lat="43.403001" lon="-3.978015">
        <ele>95.791</ele>
        <time>2022-08-28T14:41:51Z</time>
      </trkpt>
      <trkpt lat="43.403044" lon="-3.977945">
        <ele>95.779</ele>
        <time>2022-08-28T14:41:52Z</time>
      </trkpt>
      <trkpt lat="43.403129" lon="-3.977797">
        <ele>95.573</ele>
        <time>2022-08-28T14:41:54Z</time>
      </trkpt>
      <trkpt lat="43.403221" lon="-3.977652">
        <ele>95.032</ele>
        <time>2022-08-28T14:41:56Z</time>
      </trkpt>
      <trkpt lat="43.403268" lon="-3.977580">
        <ele>94.888</ele>
        <time>2022-08-28T14:41:57Z</time>
      </trkpt>
      <trkpt lat="43.403316" lon="-3.977508">
        <ele>94.693</ele>
        <time>2022-08-28T14:41:58Z</time>
      </trkpt>
      <trkpt lat="43.403409" lon="-3.977361">
        <ele>94.565</ele>
        <time>2022-08-28T14:42:00Z</time>
      </trkpt>
      <trkpt lat="43.403454" lon="-3.977286">
        <ele>94.521</ele>
        <time>2022-08-28T14:42:01Z</time>
      </trkpt>
      <trkpt lat="43.403501" lon="-3.977211">
        <ele>94.409</ele>
        <time>2022-08-28T14:42:02Z</time>
      </trkpt>
      <trkpt lat="43.403594" lon="-3.977064">
        <ele>94.280</ele>
        <time>2022-08-28T14:42:04Z</time>
      </trkpt>
      <trkpt lat="43.403641" lon="-3.976989">
        <ele>94.080</ele>
        <time>2022-08-28T14:42:05Z</time>
      </trkpt>
      <trkpt lat="43.403689" lon="-3.976916">
        <ele>93.841</ele>
        <time>2022-08-28T14:42:06Z</time>
      </trkpt>
      <trkpt lat="43.403784" lon="-3.976769">
        <ele>93.620</ele>
        <time>2022-08-28T14:42:08Z</time>
      </trkpt>
      <trkpt lat="43.403872" lon="-3.976626">
        <ele>93.529</ele>
        <time>2022-08-28T14:42:10Z</time>
      </trkpt>
      <trkpt lat="43.403919" lon="-3.976554">
        <ele>93.417</ele>
        <time>2022-08-28T14:42:11Z</time>
      </trkpt>
      <trkpt lat="43.404009" lon="-3.976404">
        <ele>93.341</ele>
        <time>2022-08-28T14:42:13Z</time>
      </trkpt>
      <trkpt lat="43.404099" lon="-3.976261">
        <ele>93.380</ele>
        <time>2022-08-28T14:42:15Z</time>
      </trkpt>
      <trkpt lat="43.404179" lon="-3.976113">
        <ele>93.246</ele>
        <time>2022-08-28T14:42:17Z</time>
      </trkpt>
      <trkpt lat="43.404264" lon="-3.975966">
        <ele>92.834</ele>
        <time>2022-08-28T14:42:19Z</time>
      </trkpt>
      <trkpt lat="43.404352" lon="-3.975821">
        <ele>92.555</ele>
        <time>2022-08-28T14:42:21Z</time>
      </trkpt>
      <trkpt lat="43.404397" lon="-3.975749">
        <ele>92.510</ele>
        <time>2022-08-28T14:42:22Z</time>
      </trkpt>
      <trkpt lat="43.404489" lon="-3.975607">
        <ele>92.009</ele>
        <time>2022-08-28T14:42:24Z</time>
      </trkpt>
      <trkpt lat="43.404579" lon="-3.975462">
        <ele>91.614</ele>
        <time>2022-08-28T14:42:26Z</time>
      </trkpt>
      <trkpt lat="43.404622" lon="-3.975389">
        <ele>91.394</ele>
        <time>2022-08-28T14:42:27Z</time>
      </trkpt>
      <trkpt lat="43.404664" lon="-3.975314">
        <ele>90.945</ele>
        <time>2022-08-28T14:42:28Z</time>
      </trkpt>
      <trkpt lat="43.404707" lon="-3.975241">
        <ele>90.584</ele>
        <time>2022-08-28T14:42:29Z</time>
      </trkpt>
      <trkpt lat="43.404749" lon="-3.975171">
        <ele>90.233</ele>
        <time>2022-08-28T14:42:30Z</time>
      </trkpt>
      <trkpt lat="43.404831" lon="-3.975024">
        <ele>89.851</ele>
        <time>2022-08-28T14:42:32Z</time>
      </trkpt>
      <trkpt lat="43.404871" lon="-3.974952">
        <ele>89.855</ele>
        <time>2022-08-28T14:42:33Z</time>
      </trkpt>
      <trkpt lat="43.404913" lon="-3.974877">
        <ele>89.784</ele>
        <time>2022-08-28T14:42:34Z</time>
      </trkpt>
      <trkpt lat="43.404988" lon="-3.974730">
        <ele>89.380</ele>
        <time>2022-08-28T14:42:36Z</time>
      </trkpt>
      <trkpt lat="43.405020" lon="-3.974655">
        <ele>89.353</ele>
        <time>2022-08-28T14:42:37Z</time>
      </trkpt>
      <trkpt lat="43.405090" lon="-3.974503">
        <ele>88.904</ele>
        <time>2022-08-28T14:42:39Z</time>
      </trkpt>
      <trkpt lat="43.405122" lon="-3.974425">
        <ele>88.914</ele>
        <time>2022-08-28T14:42:40Z</time>
      </trkpt>
      <trkpt lat="43.405185" lon="-3.974260">
        <ele>88.709</ele>
        <time>2022-08-28T14:42:42Z</time>
      </trkpt>
      <trkpt lat="43.405213" lon="-3.974175">
        <ele>88.796</ele>
        <time>2022-08-28T14:42:43Z</time>
      </trkpt>
      <trkpt lat="43.405266" lon="-3.974002">
        <ele>89.016</ele>
        <time>2022-08-28T14:42:45Z</time>
      </trkpt>
      <trkpt lat="43.405318" lon="-3.973822">
        <ele>89.327</ele>
        <time>2022-08-28T14:42:47Z</time>
      </trkpt>
      <trkpt lat="43.405345" lon="-3.973729">
        <ele>89.526</ele>
        <time>2022-08-28T14:42:48Z</time>
      </trkpt>
      <trkpt lat="43.405393" lon="-3.973541">
        <ele>89.685</ele>
        <time>2022-08-28T14:42:50Z</time>
      </trkpt>
      <trkpt lat="43.405416" lon="-3.973449">
        <ele>89.663</ele>
        <time>2022-08-28T14:42:51Z</time>
      </trkpt>
      <trkpt lat="43.405463" lon="-3.973259">
        <ele>89.647</ele>
        <time>2022-08-28T14:42:53Z</time>
      </trkpt>
      <trkpt lat="43.405488" lon="-3.973167">
        <ele>89.536</ele>
        <time>2022-08-28T14:42:54Z</time>
      </trkpt>
      <trkpt lat="43.405510" lon="-3.973072">
        <ele>89.352</ele>
        <time>2022-08-28T14:42:55Z</time>
      </trkpt>
      <trkpt lat="43.405533" lon="-3.972975">
        <ele>89.146</ele>
        <time>2022-08-28T14:42:56Z</time>
      </trkpt>
      <trkpt lat="43.405580" lon="-3.972778">
        <ele>88.888</ele>
        <time>2022-08-28T14:42:58Z</time>
      </trkpt>
      <trkpt lat="43.405602" lon="-3.972678">
        <ele>88.716</ele>
        <time>2022-08-28T14:42:59Z</time>
      </trkpt>
      <trkpt lat="43.405622" lon="-3.972575">
        <ele>88.709</ele>
        <time>2022-08-28T14:43:00Z</time>
      </trkpt>
      <trkpt lat="43.405670" lon="-3.972370">
        <ele>88.525</ele>
        <time>2022-08-28T14:43:02Z</time>
      </trkpt>
      <trkpt lat="43.405695" lon="-3.972267">
        <ele>88.545</ele>
        <time>2022-08-28T14:43:03Z</time>
      </trkpt>
      <trkpt lat="43.405745" lon="-3.972059">
        <ele>88.126</ele>
        <time>2022-08-28T14:43:05Z</time>
      </trkpt>
      <trkpt lat="43.405800" lon="-3.971847">
        <ele>87.655</ele>
        <time>2022-08-28T14:43:07Z</time>
      </trkpt>
      <trkpt lat="43.405847" lon="-3.971637">
        <ele>87.324</ele>
        <time>2022-08-28T14:43:09Z</time>
      </trkpt>
      <trkpt lat="43.405870" lon="-3.971534">
        <ele>87.292</ele>
        <time>2022-08-28T14:43:10Z</time>
      </trkpt>
      <trkpt lat="43.405922" lon="-3.971322">
        <ele>86.746</ele>
        <time>2022-08-28T14:43:12Z</time>
      </trkpt>
      <trkpt lat="43.405945" lon="-3.971215">
        <ele>86.385</ele>
        <time>2022-08-28T14:43:13Z</time>
      </trkpt>
      <trkpt lat="43.405967" lon="-3.971110">
        <ele>85.841</ele>
        <time>2022-08-28T14:43:14Z</time>
      </trkpt>
      <trkpt lat="43.406005" lon="-3.970897">
        <ele>84.831</ele>
        <time>2022-08-28T14:43:16Z</time>
      </trkpt>
      <trkpt lat="43.406047" lon="-3.970684">
        <ele>83.761</ele>
        <time>2022-08-28T14:43:18Z</time>
      </trkpt>
      <trkpt lat="43.406065" lon="-3.970577">
        <ele>83.507</ele>
        <time>2022-08-28T14:43:19Z</time>
      </trkpt>
      <trkpt lat="43.406097" lon="-3.970357">
        <ele>83.009</ele>
        <time>2022-08-28T14:43:21Z</time>
      </trkpt>
      <trkpt lat="43.406112" lon="-3.970247">
        <ele>82.894</ele>
        <time>2022-08-28T14:43:22Z</time>
      </trkpt>
      <trkpt lat="43.406132" lon="-3.970024">
        <ele>82.594</ele>
        <time>2022-08-28T14:43:24Z</time>
      </trkpt>
      <trkpt lat="43.406142" lon="-3.969796">
        <ele>82.165</ele>
        <time>2022-08-28T14:43:26Z</time>
      </trkpt>
      <trkpt lat="43.406149" lon="-3.969569">
        <ele>81.544</ele>
        <time>2022-08-28T14:43:28Z</time>
      </trkpt>
      <trkpt lat="43.406146" lon="-3.969456">
        <ele>81.393</ele>
        <time>2022-08-28T14:43:29Z</time>
      </trkpt>
      <trkpt lat="43.406139" lon="-3.969236">
        <ele>81.141</ele>
        <time>2022-08-28T14:43:31Z</time>
      </trkpt>
      <trkpt lat="43.406127" lon="-3.969019">
        <ele>81.165</ele>
        <time>2022-08-28T14:43:33Z</time>
      </trkpt>
      <trkpt lat="43.406119" lon="-3.968912">
        <ele>81.134</ele>
        <time>2022-08-28T14:43:34Z</time>
      </trkpt>
      <trkpt lat="43.406111" lon="-3.968807">
        <ele>81.050</ele>
        <time>2022-08-28T14:43:35Z</time>
      </trkpt>
      <trkpt lat="43.406103" lon="-3.968704">
        <ele>80.899</ele>
        <time>2022-08-28T14:43:36Z</time>
      </trkpt>
      <trkpt lat="43.406095" lon="-3.968606">
        <ele>80.607</ele>
        <time>2022-08-28T14:43:37Z</time>
      </trkpt>
      <trkpt lat="43.406078" lon="-3.968413">
        <ele>80.027</ele>
        <time>2022-08-28T14:43:39Z</time>
      </trkpt>
      <trkpt lat="43.406065" lon="-3.968218">
        <ele>80.009</ele>
        <time>2022-08-28T14:43:41Z</time>
      </trkpt>
      <trkpt lat="43.406058" lon="-3.968121">
        <ele>80.060</ele>
        <time>2022-08-28T14:43:42Z</time>
      </trkpt>
      <trkpt lat="43.406050" lon="-3.968023">
        <ele>79.920</ele>
        <time>2022-08-28T14:43:43Z</time>
      </trkpt>
      <trkpt lat="43.406038" lon="-3.967826">
        <ele>79.491</ele>
        <time>2022-08-28T14:43:45Z</time>
      </trkpt>
      <trkpt lat="43.406031" lon="-3.967724">
        <ele>78.970</ele>
        <time>2022-08-28T14:43:46Z</time>
      </trkpt>
      <trkpt lat="43.406024" lon="-3.967619">
        <ele>78.419</ele>
        <time>2022-08-28T14:43:47Z</time>
      </trkpt>
      <trkpt lat="43.406012" lon="-3.967409">
        <ele>77.737</ele>
        <time>2022-08-28T14:43:49Z</time>
      </trkpt>
      <trkpt lat="43.406007" lon="-3.967297">
        <ele>77.261</ele>
        <time>2022-08-28T14:43:50Z</time>
      </trkpt>
      <trkpt lat="43.406000" lon="-3.967180">
        <ele>76.520</ele>
        <time>2022-08-28T14:43:51Z</time>
      </trkpt>
      <trkpt lat="43.405985" lon="-3.966932">
        <ele>75.596</ele>
        <time>2022-08-28T14:43:53Z</time>
      </trkpt>
      <trkpt lat="43.405963" lon="-3.966669">
        <ele>73.519</ele>
        <time>2022-08-28T14:43:55Z</time>
      </trkpt>
      <trkpt lat="43.405941" lon="-3.966392">
        <ele>72.109</ele>
        <time>2022-08-28T14:43:57Z</time>
      </trkpt>
      <trkpt lat="43.405918" lon="-3.966110">
        <ele>70.619</ele>
        <time>2022-08-28T14:43:59Z</time>
      </trkpt>
      <trkpt lat="43.405896" lon="-3.965827">
        <ele>69.209</ele>
        <time>2022-08-28T14:44:01Z</time>
      </trkpt>
      <trkpt lat="43.405884" lon="-3.965684">
        <ele>68.422</ele>
        <time>2022-08-28T14:44:02Z</time>
      </trkpt>
      <trkpt lat="43.405872" lon="-3.965541">
        <ele>67.982</ele>
        <time>2022-08-28T14:44:03Z</time>
      </trkpt>
      <trkpt lat="43.405852" lon="-3.965251">
        <ele>66.833</ele>
        <time>2022-08-28T14:44:05Z</time>
      </trkpt>
      <trkpt lat="43.405840" lon="-3.965106">
        <ele>66.582</ele>
        <time>2022-08-28T14:44:06Z</time>
      </trkpt>
      <trkpt lat="43.405828" lon="-3.964961">
        <ele>66.391</ele>
        <time>2022-08-28T14:44:07Z</time>
      </trkpt>
      <trkpt lat="43.405816" lon="-3.964814">
        <ele>65.899</ele>
        <time>2022-08-28T14:44:08Z</time>
      </trkpt>
      <trkpt lat="43.405791" lon="-3.964514">
        <ele>64.623</ele>
        <time>2022-08-28T14:44:10Z</time>
      </trkpt>
      <trkpt lat="43.405761" lon="-3.964204">
        <ele>63.652</ele>
        <time>2022-08-28T14:44:12Z</time>
      </trkpt>
      <trkpt lat="43.405731" lon="-3.963884">
        <ele>61.798</ele>
        <time>2022-08-28T14:44:14Z</time>
      </trkpt>
      <trkpt lat="43.405709" lon="-3.963724">
        <ele>60.887</ele>
        <time>2022-08-28T14:44:15Z</time>
      </trkpt>
      <trkpt lat="43.405649" lon="-3.963409">
        <ele>59.442</ele>
        <time>2022-08-28T14:44:17Z</time>
      </trkpt>
      <trkpt lat="43.405584" lon="-3.963107">
        <ele>58.426</ele>
        <time>2022-08-28T14:44:19Z</time>
      </trkpt>
      <trkpt lat="43.405517" lon="-3.962804">
        <ele>57.709</ele>
        <time>2022-08-28T14:44:21Z</time>
      </trkpt>
      <trkpt lat="43.405439" lon="-3.962519">
        <ele>56.369</ele>
        <time>2022-08-28T14:44:23Z</time>
      </trkpt>
      <trkpt lat="43.405332" lon="-3.962254">
        <ele>54.919</ele>
        <time>2022-08-28T14:44:25Z</time>
      </trkpt>
      <trkpt lat="43.405190" lon="-3.962016">
        <ele>53.820</ele>
        <time>2022-08-28T14:44:27Z</time>
      </trkpt>
      <trkpt lat="43.405108" lon="-3.961903">
        <ele>53.069</ele>
        <time>2022-08-28T14:44:28Z</time>
      </trkpt>
      <trkpt lat="43.404950" lon="-3.961673">
        <ele>51.618</ele>
        <time>2022-08-28T14:44:30Z</time>
      </trkpt>
      <trkpt lat="43.404878" lon="-3.961553">
        <ele>50.756</ele>
        <time>2022-08-28T14:44:31Z</time>
      </trkpt>
      <trkpt lat="43.404741" lon="-3.961296">
        <ele>48.680</ele>
        <time>2022-08-28T14:44:33Z</time>
      </trkpt>
      <trkpt lat="43.404679" lon="-3.961153">
        <ele>47.579</ele>
        <time>2022-08-28T14:44:34Z</time>
      </trkpt>
      <trkpt lat="43.404627" lon="-3.961001">
        <ele>46.655</ele>
        <time>2022-08-28T14:44:35Z</time>
      </trkpt>
      <trkpt lat="43.404530" lon="-3.960684">
        <ele>44.556</ele>
        <time>2022-08-28T14:44:37Z</time>
      </trkpt>
      <trkpt lat="43.404445" lon="-3.960364">
        <ele>43.859</ele>
        <time>2022-08-28T14:44:39Z</time>
      </trkpt>
      <trkpt lat="43.404368" lon="-3.960044">
        <ele>42.414</ele>
        <time>2022-08-28T14:44:41Z</time>
      </trkpt>
      <trkpt lat="43.404330" lon="-3.959887">
        <ele>41.509</ele>
        <time>2022-08-28T14:44:42Z</time>
      </trkpt>
      <trkpt lat="43.404293" lon="-3.959734">
        <ele>41.086</ele>
        <time>2022-08-28T14:44:43Z</time>
      </trkpt>
      <trkpt lat="43.404221" lon="-3.959436">
        <ele>40.066</ele>
        <time>2022-08-28T14:44:45Z</time>
      </trkpt>
      <trkpt lat="43.404188" lon="-3.959289">
        <ele>39.437</ele>
        <time>2022-08-28T14:44:46Z</time>
      </trkpt>
      <trkpt lat="43.404156" lon="-3.959142">
        <ele>38.726</ele>
        <time>2022-08-28T14:44:47Z</time>
      </trkpt>
      <trkpt lat="43.404098" lon="-3.958857">
        <ele>37.795</ele>
        <time>2022-08-28T14:44:49Z</time>
      </trkpt>
      <trkpt lat="43.404071" lon="-3.958715">
        <ele>37.293</ele>
        <time>2022-08-28T14:44:50Z</time>
      </trkpt>
      <trkpt lat="43.404043" lon="-3.958577">
        <ele>36.657</ele>
        <time>2022-08-28T14:44:51Z</time>
      </trkpt>
      <trkpt lat="43.404010" lon="-3.958442">
        <ele>35.846</ele>
        <time>2022-08-28T14:44:52Z</time>
      </trkpt>
      <trkpt lat="43.403908" lon="-3.958197">
        <ele>34.582</ele>
        <time>2022-08-28T14:44:54Z</time>
      </trkpt>
      <trkpt lat="43.403850" lon="-3.958080">
        <ele>33.845</ele>
        <time>2022-08-28T14:44:55Z</time>
      </trkpt>
      <trkpt lat="43.403733" lon="-3.957847">
        <ele>32.847</ele>
        <time>2022-08-28T14:44:57Z</time>
      </trkpt>
      <trkpt lat="43.403615" lon="-3.957609">
        <ele>31.811</ele>
        <time>2022-08-28T14:44:59Z</time>
      </trkpt>
      <trkpt lat="43.403495" lon="-3.957364">
        <ele>31.009</ele>
        <time>2022-08-28T14:45:01Z</time>
      </trkpt>
      <trkpt lat="43.403435" lon="-3.957241">
        <ele>30.415</ele>
        <time>2022-08-28T14:45:02Z</time>
      </trkpt>
      <trkpt lat="43.403312" lon="-3.956991">
        <ele>29.255</ele>
        <time>2022-08-28T14:45:04Z</time>
      </trkpt>
      <trkpt lat="43.403252" lon="-3.956868">
        <ele>28.776</ele>
        <time>2022-08-28T14:45:05Z</time>
      </trkpt>
      <trkpt lat="43.403192" lon="-3.956745">
        <ele>28.025</ele>
        <time>2022-08-28T14:45:06Z</time>
      </trkpt>
      <trkpt lat="43.403082" lon="-3.956490">
        <ele>26.724</ele>
        <time>2022-08-28T14:45:08Z</time>
      </trkpt>
      <trkpt lat="43.402999" lon="-3.956212">
        <ele>25.322</ele>
        <time>2022-08-28T14:45:10Z</time>
      </trkpt>
      <trkpt lat="43.402971" lon="-3.956067">
        <ele>25.176</ele>
        <time>2022-08-28T14:45:11Z</time>
      </trkpt>
      <trkpt lat="43.402943" lon="-3.955759">
        <ele>24.715</ele>
        <time>2022-08-28T14:45:13Z</time>
      </trkpt>
      <trkpt lat="43.402920" lon="-3.955456">
        <ele>24.191</ele>
        <time>2022-08-28T14:45:15Z</time>
      </trkpt>
      <trkpt lat="43.402912" lon="-3.955299">
        <ele>23.826</ele>
        <time>2022-08-28T14:45:16Z</time>
      </trkpt>
      <trkpt lat="43.402887" lon="-3.954999">
        <ele>23.447</ele>
        <time>2022-08-28T14:45:18Z</time>
      </trkpt>
      <trkpt lat="43.402874" lon="-3.954849">
        <ele>22.611</ele>
        <time>2022-08-28T14:45:19Z</time>
      </trkpt>
      <trkpt lat="43.402862" lon="-3.954696">
        <ele>21.909</ele>
        <time>2022-08-28T14:45:20Z</time>
      </trkpt>
      <trkpt lat="43.402850" lon="-3.954549">
        <ele>21.323</ele>
        <time>2022-08-28T14:45:21Z</time>
      </trkpt>
      <trkpt lat="43.402823" lon="-3.954252">
        <ele>20.153</ele>
        <time>2022-08-28T14:45:23Z</time>
      </trkpt>
      <trkpt lat="43.402798" lon="-3.953950">
        <ele>19.174</ele>
        <time>2022-08-28T14:45:25Z</time>
      </trkpt>
      <trkpt lat="43.402785" lon="-3.953798">
        <ele>18.483</ele>
        <time>2022-08-28T14:45:26Z</time>
      </trkpt>
      <trkpt lat="43.402775" lon="-3.953651">
        <ele>17.672</ele>
        <time>2022-08-28T14:45:27Z</time>
      </trkpt>
      <trkpt lat="43.402755" lon="-3.953368">
        <ele>16.890</ele>
        <time>2022-08-28T14:45:29Z</time>
      </trkpt>
      <trkpt lat="43.402742" lon="-3.953235">
        <ele>16.314</ele>
        <time>2022-08-28T14:45:30Z</time>
      </trkpt>
      <trkpt lat="43.402720" lon="-3.952982">
        <ele>15.933</ele>
        <time>2022-08-28T14:45:32Z</time>
      </trkpt>
      <trkpt lat="43.402708" lon="-3.952859">
        <ele>15.969</ele>
        <time>2022-08-28T14:45:33Z</time>
      </trkpt>
      <trkpt lat="43.402686" lon="-3.952627">
        <ele>15.992</ele>
        <time>2022-08-28T14:45:35Z</time>
      </trkpt>
      <trkpt lat="43.402668" lon="-3.952404">
        <ele>15.973</ele>
        <time>2022-08-28T14:45:37Z</time>
      </trkpt>
      <trkpt lat="43.402663" lon="-3.952297">
        <ele>15.820</ele>
        <time>2022-08-28T14:45:38Z</time>
      </trkpt>
      <trkpt lat="43.402661" lon="-3.952192">
        <ele>15.609</ele>
        <time>2022-08-28T14:45:39Z</time>
      </trkpt>
      <trkpt lat="43.402669" lon="-3.951984">
        <ele>15.350</ele>
        <time>2022-08-28T14:45:41Z</time>
      </trkpt>
      <trkpt lat="43.402697" lon="-3.951786">
        <ele>14.710</ele>
        <time>2022-08-28T14:45:43Z</time>
      </trkpt>
      <trkpt lat="43.402754" lon="-3.951601">
        <ele>14.241</ele>
        <time>2022-08-28T14:45:45Z</time>
      </trkpt>
      <trkpt lat="43.402819" lon="-3.951421">
        <ele>13.510</ele>
        <time>2022-08-28T14:45:47Z</time>
      </trkpt>
      <trkpt lat="43.402866" lon="-3.951244">
        <ele>13.369</ele>
        <time>2022-08-28T14:45:49Z</time>
      </trkpt>
      <trkpt lat="43.402931" lon="-3.951091">
        <ele>13.297</ele>
        <time>2022-08-28T14:45:51Z</time>
      </trkpt>
      <trkpt lat="43.403009" lon="-3.950956">
        <ele>13.321</ele>
        <time>2022-08-28T14:45:53Z</time>
      </trkpt>
      <trkpt lat="43.403049" lon="-3.950894">
        <ele>13.760</ele>
        <time>2022-08-28T14:45:54Z</time>
      </trkpt>
      <trkpt lat="43.403131" lon="-3.950784">
        <ele>14.586</ele>
        <time>2022-08-28T14:45:56Z</time>
      </trkpt>
      <trkpt lat="43.403214" lon="-3.950689">
        <ele>14.787</ele>
        <time>2022-08-28T14:45:58Z</time>
      </trkpt>
      <trkpt lat="43.403294" lon="-3.950597">
        <ele>15.242</ele>
        <time>2022-08-28T14:46:00Z</time>
      </trkpt>
      <trkpt lat="43.403374" lon="-3.950517">
        <ele>15.826</ele>
        <time>2022-08-28T14:46:02Z</time>
      </trkpt>
      <trkpt lat="43.403412" lon="-3.950480">
        <ele>15.909</ele>
        <time>2022-08-28T14:46:03Z</time>
      </trkpt>
      <trkpt lat="43.403490" lon="-3.950413">
        <ele>16.079</ele>
        <time>2022-08-28T14:46:05Z</time>
      </trkpt>
      <trkpt lat="43.403563" lon="-3.950348">
        <ele>16.369</ele>
        <time>2022-08-28T14:46:07Z</time>
      </trkpt>
      <trkpt lat="43.403635" lon="-3.950280">
        <ele>16.420</ele>
        <time>2022-08-28T14:46:09Z</time>
      </trkpt>
      <trkpt lat="43.403710" lon="-3.950210">
        <ele>16.539</ele>
        <time>2022-08-28T14:46:11Z</time>
      </trkpt>
      <trkpt lat="43.403748" lon="-3.950173">
        <ele>16.558</ele>
        <time>2022-08-28T14:46:12Z</time>
      </trkpt>
      <trkpt lat="43.403823" lon="-3.950101">
        <ele>16.546</ele>
        <time>2022-08-28T14:46:14Z</time>
      </trkpt>
      <trkpt lat="43.403900" lon="-3.950029">
        <ele>16.520</ele>
        <time>2022-08-28T14:46:16Z</time>
      </trkpt>
      <trkpt lat="43.403938" lon="-3.949989">
        <ele>16.529</ele>
        <time>2022-08-28T14:46:17Z</time>
      </trkpt>
      <trkpt lat="43.403976" lon="-3.949952">
        <ele>16.585</ele>
        <time>2022-08-28T14:46:18Z</time>
      </trkpt>
      <trkpt lat="43.404016" lon="-3.949915">
        <ele>16.534</ele>
        <time>2022-08-28T14:46:19Z</time>
      </trkpt>
      <trkpt lat="43.404096" lon="-3.949842">
        <ele>16.955</ele>
        <time>2022-08-28T14:46:21Z</time>
      </trkpt>
      <trkpt lat="43.404174" lon="-3.949764">
        <ele>17.110</ele>
        <time>2022-08-28T14:46:23Z</time>
      </trkpt>
      <trkpt lat="43.404212" lon="-3.949724">
        <ele>17.109</ele>
        <time>2022-08-28T14:46:24Z</time>
      </trkpt>
      <trkpt lat="43.404249" lon="-3.949687">
        <ele>17.184</ele>
        <time>2022-08-28T14:46:25Z</time>
      </trkpt>
      <trkpt lat="43.404322" lon="-3.949619">
        <ele>17.094</ele>
        <time>2022-08-28T14:46:27Z</time>
      </trkpt>
      <trkpt lat="43.404399" lon="-3.949552">
        <ele>16.815</ele>
        <time>2022-08-28T14:46:29Z</time>
      </trkpt>
      <trkpt lat="43.404472" lon="-3.949477">
        <ele>16.274</ele>
        <time>2022-08-28T14:46:31Z</time>
      </trkpt>
      <trkpt lat="43.404544" lon="-3.949402">
        <ele>15.573</ele>
        <time>2022-08-28T14:46:33Z</time>
      </trkpt>
      <trkpt lat="43.404614" lon="-3.949334">
        <ele>15.061</ele>
        <time>2022-08-28T14:46:35Z</time>
      </trkpt>
      <trkpt lat="43.404691" lon="-3.949264">
        <ele>14.955</ele>
        <time>2022-08-28T14:46:37Z</time>
      </trkpt>
      <trkpt lat="43.404729" lon="-3.949226">
        <ele>14.764</ele>
        <time>2022-08-28T14:46:38Z</time>
      </trkpt>
      <trkpt lat="43.404767" lon="-3.949189">
        <ele>14.470</ele>
        <time>2022-08-28T14:46:39Z</time>
      </trkpt>
      <trkpt lat="43.404807" lon="-3.949154">
        <ele>14.353</ele>
        <time>2022-08-28T14:46:40Z</time>
      </trkpt>
      <trkpt lat="43.404889" lon="-3.949079">
        <ele>14.204</ele>
        <time>2022-08-28T14:46:42Z</time>
      </trkpt>
      <trkpt lat="43.404929" lon="-3.949039">
        <ele>14.214</ele>
        <time>2022-08-28T14:46:43Z</time>
      </trkpt>
      <trkpt lat="43.405006" lon="-3.948959">
        <ele>13.809</ele>
        <time>2022-08-28T14:46:45Z</time>
      </trkpt>
      <trkpt lat="43.405083" lon="-3.948881">
        <ele>13.356</ele>
        <time>2022-08-28T14:46:47Z</time>
      </trkpt>
      <trkpt lat="43.405126" lon="-3.948839">
        <ele>13.216</ele>
        <time>2022-08-28T14:46:48Z</time>
      </trkpt>
      <trkpt lat="43.405166" lon="-3.948797">
        <ele>13.157</ele>
        <time>2022-08-28T14:46:49Z</time>
      </trkpt>
      <trkpt lat="43.405204" lon="-3.948757">
        <ele>13.096</ele>
        <time>2022-08-28T14:46:50Z</time>
      </trkpt>
      <trkpt lat="43.405246" lon="-3.948719">
        <ele>13.025</ele>
        <time>2022-08-28T14:46:51Z</time>
      </trkpt>
      <trkpt lat="43.405328" lon="-3.948634">
        <ele>13.193</ele>
        <time>2022-08-28T14:46:53Z</time>
      </trkpt>
      <trkpt lat="43.405368" lon="-3.948589">
        <ele>13.317</ele>
        <time>2022-08-28T14:46:54Z</time>
      </trkpt>
      <trkpt lat="43.405451" lon="-3.948504">
        <ele>13.616</ele>
        <time>2022-08-28T14:46:56Z</time>
      </trkpt>
      <trkpt lat="43.405539" lon="-3.948422">
        <ele>13.652</ele>
        <time>2022-08-28T14:46:58Z</time>
      </trkpt>
      <trkpt lat="43.405582" lon="-3.948384">
        <ele>13.616</ele>
        <time>2022-08-28T14:46:59Z</time>
      </trkpt>
      <trkpt lat="43.405672" lon="-3.948307">
        <ele>13.676</ele>
        <time>2022-08-28T14:47:01Z</time>
      </trkpt>
      <trkpt lat="43.405760" lon="-3.948234">
        <ele>13.613</ele>
        <time>2022-08-28T14:47:03Z</time>
      </trkpt>
      <trkpt lat="43.405845" lon="-3.948164">
        <ele>14.209</ele>
        <time>2022-08-28T14:47:05Z</time>
      </trkpt>
      <trkpt lat="43.405940" lon="-3.948097">
        <ele>14.492</ele>
        <time>2022-08-28T14:47:07Z</time>
      </trkpt>
      <trkpt lat="43.405987" lon="-3.948064">
        <ele>14.512</ele>
        <time>2022-08-28T14:47:08Z</time>
      </trkpt>
      <trkpt lat="43.406079" lon="-3.947994">
        <ele>14.693</ele>
        <time>2022-08-28T14:47:10Z</time>
      </trkpt>
      <trkpt lat="43.406172" lon="-3.947927">
        <ele>14.672</ele>
        <time>2022-08-28T14:47:12Z</time>
      </trkpt>
      <trkpt lat="43.406220" lon="-3.947892">
        <ele>14.561</ele>
        <time>2022-08-28T14:47:13Z</time>
      </trkpt>
      <trkpt lat="43.406267" lon="-3.947857">
        <ele>14.479</ele>
        <time>2022-08-28T14:47:14Z</time>
      </trkpt>
      <trkpt lat="43.406362" lon="-3.947777">
        <ele>14.093</ele>
        <time>2022-08-28T14:47:16Z</time>
      </trkpt>
      <trkpt lat="43.406410" lon="-3.947739">
        <ele>13.882</ele>
        <time>2022-08-28T14:47:17Z</time>
      </trkpt>
      <trkpt lat="43.406455" lon="-3.947699">
        <ele>13.898</ele>
        <time>2022-08-28T14:47:18Z</time>
      </trkpt>
      <trkpt lat="43.406547" lon="-3.947624">
        <ele>13.717</ele>
        <time>2022-08-28T14:47:20Z</time>
      </trkpt>
      <trkpt lat="43.406640" lon="-3.947547">
        <ele>13.687</ele>
        <time>2022-08-28T14:47:22Z</time>
      </trkpt>
      <trkpt lat="43.406687" lon="-3.947509">
        <ele>13.615</ele>
        <time>2022-08-28T14:47:23Z</time>
      </trkpt>
      <trkpt lat="43.406779" lon="-3.947432">
        <ele>13.609</ele>
        <time>2022-08-28T14:47:25Z</time>
      </trkpt>
      <trkpt lat="43.406872" lon="-3.947359">
        <ele>13.362</ele>
        <time>2022-08-28T14:47:27Z</time>
      </trkpt>
      <trkpt lat="43.406917" lon="-3.947319">
        <ele>13.242</ele>
        <time>2022-08-28T14:47:28Z</time>
      </trkpt>
      <trkpt lat="43.407012" lon="-3.947237">
        <ele>12.953</ele>
        <time>2022-08-28T14:47:30Z</time>
      </trkpt>
      <trkpt lat="43.407059" lon="-3.947194">
        <ele>12.952</ele>
        <time>2022-08-28T14:47:31Z</time>
      </trkpt>
      <trkpt lat="43.407151" lon="-3.947106">
        <ele>13.391</ele>
        <time>2022-08-28T14:47:33Z</time>
      </trkpt>
      <trkpt lat="43.407199" lon="-3.947064">
        <ele>13.399</ele>
        <time>2022-08-28T14:47:34Z</time>
      </trkpt>
      <trkpt lat="43.407246" lon="-3.947021">
        <ele>13.333</ele>
        <time>2022-08-28T14:47:35Z</time>
      </trkpt>
      <trkpt lat="43.407296" lon="-3.946978">
        <ele>13.372</ele>
        <time>2022-08-28T14:47:36Z</time>
      </trkpt>
      <trkpt lat="43.407349" lon="-3.946940">
        <ele>13.238</ele>
        <time>2022-08-28T14:47:37Z</time>
      </trkpt>
      <trkpt lat="43.407399" lon="-3.946902">
        <ele>13.181</ele>
        <time>2022-08-28T14:47:38Z</time>
      </trkpt>
      <trkpt lat="43.407497" lon="-3.946822">
        <ele>13.061</ele>
        <time>2022-08-28T14:47:40Z</time>
      </trkpt>
      <trkpt lat="43.407595" lon="-3.946747">
        <ele>12.917</ele>
        <time>2022-08-28T14:47:42Z</time>
      </trkpt>
      <trkpt lat="43.407645" lon="-3.946709">
        <ele>12.809</ele>
        <time>2022-08-28T14:47:43Z</time>
      </trkpt>
      <trkpt lat="43.407692" lon="-3.946669">
        <ele>12.899</ele>
        <time>2022-08-28T14:47:44Z</time>
      </trkpt>
      <trkpt lat="43.407739" lon="-3.946629">
        <ele>12.829</ele>
        <time>2022-08-28T14:47:45Z</time>
      </trkpt>
      <trkpt lat="43.407831" lon="-3.946549">
        <ele>12.550</ele>
        <time>2022-08-28T14:47:47Z</time>
      </trkpt>
      <trkpt lat="43.407879" lon="-3.946512">
        <ele>12.319</ele>
        <time>2022-08-28T14:47:48Z</time>
      </trkpt>
      <trkpt lat="43.407926" lon="-3.946472">
        <ele>12.138</ele>
        <time>2022-08-28T14:47:49Z</time>
      </trkpt>
      <trkpt lat="43.408019" lon="-3.946394">
        <ele>11.956</ele>
        <time>2022-08-28T14:47:51Z</time>
      </trkpt>
      <trkpt lat="43.408066" lon="-3.946356">
        <ele>11.920</ele>
        <time>2022-08-28T14:47:52Z</time>
      </trkpt>
      <trkpt lat="43.408158" lon="-3.946278">
        <ele>11.849</ele>
        <time>2022-08-28T14:47:54Z</time>
      </trkpt>
      <trkpt lat="43.408201" lon="-3.946240">
        <ele>11.625</ele>
        <time>2022-08-28T14:47:55Z</time>
      </trkpt>
      <trkpt lat="43.408293" lon="-3.946160">
        <ele>11.633</ele>
        <time>2022-08-28T14:47:57Z</time>
      </trkpt>
      <trkpt lat="43.408390" lon="-3.946082">
        <ele>11.723</ele>
        <time>2022-08-28T14:47:59Z</time>
      </trkpt>
      <trkpt lat="43.408437" lon="-3.946042">
        <ele>11.815</ele>
        <time>2022-08-28T14:48:00Z</time>
      </trkpt>
      <trkpt lat="43.408485" lon="-3.946002">
        <ele>11.809</ele>
        <time>2022-08-28T14:48:01Z</time>
      </trkpt>
      <trkpt lat="43.408585" lon="-3.945920">
        <ele>11.614</ele>
        <time>2022-08-28T14:48:03Z</time>
      </trkpt>
      <trkpt lat="43.408687" lon="-3.945838">
        <ele>11.314</ele>
        <time>2022-08-28T14:48:05Z</time>
      </trkpt>
      <trkpt lat="43.408737" lon="-3.945800">
        <ele>11.345</ele>
        <time>2022-08-28T14:48:06Z</time>
      </trkpt>
      <trkpt lat="43.408785" lon="-3.945760">
        <ele>11.214</ele>
        <time>2022-08-28T14:48:07Z</time>
      </trkpt>
      <trkpt lat="43.408882" lon="-3.945683">
        <ele>11.383</ele>
        <time>2022-08-28T14:48:09Z</time>
      </trkpt>
      <trkpt lat="43.408929" lon="-3.945648">
        <ele>11.491</ele>
        <time>2022-08-28T14:48:10Z</time>
      </trkpt>
      <trkpt lat="43.409014" lon="-3.945578">
        <ele>11.735</ele>
        <time>2022-08-28T14:48:12Z</time>
      </trkpt>
      <trkpt lat="43.409089" lon="-3.945523">
        <ele>12.594</ele>
        <time>2022-08-28T14:48:14Z</time>
      </trkpt>
      <trkpt lat="43.409156" lon="-3.945473">
        <ele>13.920</ele>
        <time>2022-08-28T14:48:16Z</time>
      </trkpt>
      <trkpt lat="43.409216" lon="-3.945431">
        <ele>15.194</ele>
        <time>2022-08-28T14:48:18Z</time>
      </trkpt>
      <trkpt lat="43.409273" lon="-3.945388">
        <ele>16.057</ele>
        <time>2022-08-28T14:48:20Z</time>
      </trkpt>
      <trkpt lat="43.409330" lon="-3.945336">
        <ele>16.722</ele>
        <time>2022-08-28T14:48:22Z</time>
      </trkpt>
      <trkpt lat="43.409382" lon="-3.945274">
        <ele>17.409</ele>
        <time>2022-08-28T14:48:24Z</time>
      </trkpt>
      <trkpt lat="43.409430" lon="-3.945201">
        <ele>17.910</ele>
        <time>2022-08-28T14:48:26Z</time>
      </trkpt>
      <trkpt lat="43.409473" lon="-3.945131">
        <ele>18.480</ele>
        <time>2022-08-28T14:48:28Z</time>
      </trkpt>
      <trkpt lat="43.409505" lon="-3.945061">
        <ele>18.491</ele>
        <time>2022-08-28T14:48:30Z</time>
      </trkpt>
      <trkpt lat="43.409535" lon="-3.944993">
        <ele>18.430</ele>
        <time>2022-08-28T14:48:32Z</time>
      </trkpt>
      <trkpt lat="43.409568" lon="-3.944920">
        <ele>18.459</ele>
        <time>2022-08-28T14:48:34Z</time>
      </trkpt>
      <trkpt lat="43.409600" lon="-3.944850">
        <ele>18.467</ele>
        <time>2022-08-28T14:48:36Z</time>
      </trkpt>
      <trkpt lat="43.409625" lon="-3.944778">
        <ele>18.461</ele>
        <time>2022-08-28T14:48:38Z</time>
      </trkpt>
      <trkpt lat="43.409653" lon="-3.944708">
        <ele>18.510</ele>
        <time>2022-08-28T14:48:40Z</time>
      </trkpt>
      <trkpt lat="43.409683" lon="-3.944640">
        <ele>18.686</ele>
        <time>2022-08-28T14:48:42Z</time>
      </trkpt>
      <trkpt lat="43.409708" lon="-3.944562">
        <ele>18.995</ele>
        <time>2022-08-28T14:48:44Z</time>
      </trkpt>
      <trkpt lat="43.409741" lon="-3.944485">
        <ele>19.549</ele>
        <time>2022-08-28T14:48:46Z</time>
      </trkpt>
      <trkpt lat="43.409764" lon="-3.944397">
        <ele>20.423</ele>
        <time>2022-08-28T14:48:48Z</time>
      </trkpt>
      <trkpt lat="43.409784" lon="-3.944307">
        <ele>20.609</ele>
        <time>2022-08-28T14:48:50Z</time>
      </trkpt>
      <trkpt lat="43.409801" lon="-3.944232">
        <ele>21.050</ele>
        <time>2022-08-28T14:48:52Z</time>
      </trkpt>
      <trkpt lat="43.409826" lon="-3.944180">
        <ele>20.530</ele>
        <time>2022-08-28T14:50:00Z</time>
      </trkpt>
      <trkpt lat="43.409826" lon="-3.944107">
        <ele>20.461</ele>
        <time>2022-08-28T14:53:19Z</time>
      </trkpt>
      <trkpt lat="43.409838" lon="-3.944010">
        <ele>20.480</ele>
        <time>2022-08-28T14:53:22Z</time>
      </trkpt>
      <trkpt lat="43.409840" lon="-3.943918">
        <ele>20.479</ele>
        <time>2022-08-28T14:53:24Z</time>
      </trkpt>
      <trkpt lat="43.409828" lon="-3.943805">
        <ele>20.457</ele>
        <time>2022-08-28T14:53:26Z</time>
      </trkpt>
      <trkpt lat="43.409810" lon="-3.943678">
        <ele>19.431</ele>
        <time>2022-08-28T14:53:28Z</time>
      </trkpt>
      <trkpt lat="43.409797" lon="-3.943605">
        <ele>19.440</ele>
        <time>2022-08-28T14:53:29Z</time>
      </trkpt>
      <trkpt lat="43.409780" lon="-3.943537">
        <ele>19.416</ele>
        <time>2022-08-28T14:53:30Z</time>
      </trkpt>
      <trkpt lat="43.409758" lon="-3.943467">
        <ele>19.378</ele>
        <time>2022-08-28T14:53:31Z</time>
      </trkpt>
      <trkpt lat="43.409715" lon="-3.943324">
        <ele>19.033</ele>
        <time>2022-08-28T14:53:33Z</time>
      </trkpt>
      <trkpt lat="43.409697" lon="-3.943246">
        <ele>18.726</ele>
        <time>2022-08-28T14:53:34Z</time>
      </trkpt>
      <trkpt lat="43.409682" lon="-3.943168">
        <ele>18.309</ele>
        <time>2022-08-28T14:53:35Z</time>
      </trkpt>
      <trkpt lat="43.409662" lon="-3.943013">
        <ele>17.988</ele>
        <time>2022-08-28T14:53:37Z</time>
      </trkpt>
      <trkpt lat="43.409655" lon="-3.942928">
        <ele>17.728</ele>
        <time>2022-08-28T14:53:38Z</time>
      </trkpt>
      <trkpt lat="43.409652" lon="-3.942843">
        <ele>17.469</ele>
        <time>2022-08-28T14:53:39Z</time>
      </trkpt>
      <trkpt lat="43.409649" lon="-3.942676">
        <ele>17.218</ele>
        <time>2022-08-28T14:53:41Z</time>
      </trkpt>
      <trkpt lat="43.409651" lon="-3.942503">
        <ele>16.987</ele>
        <time>2022-08-28T14:53:43Z</time>
      </trkpt>
      <trkpt lat="43.409653" lon="-3.942411">
        <ele>16.665</ele>
        <time>2022-08-28T14:53:44Z</time>
      </trkpt>
      <trkpt lat="43.409653" lon="-3.942319">
        <ele>16.379</ele>
        <time>2022-08-28T14:53:45Z</time>
      </trkpt>
      <trkpt lat="43.409663" lon="-3.942132">
        <ele>16.018</ele>
        <time>2022-08-28T14:53:47Z</time>
      </trkpt>
      <trkpt lat="43.409681" lon="-3.941947">
        <ele>15.914</ele>
        <time>2022-08-28T14:53:49Z</time>
      </trkpt>
      <trkpt lat="43.409716" lon="-3.941762">
        <ele>15.834</ele>
        <time>2022-08-28T14:53:51Z</time>
      </trkpt>
      <trkpt lat="43.409729" lon="-3.941669">
        <ele>15.755</ele>
        <time>2022-08-28T14:53:52Z</time>
      </trkpt>
      <trkpt lat="43.409774" lon="-3.941486">
        <ele>15.710</ele>
        <time>2022-08-28T14:53:54Z</time>
      </trkpt>
      <trkpt lat="43.409814" lon="-3.941303">
        <ele>15.509</ele>
        <time>2022-08-28T14:53:56Z</time>
      </trkpt>
      <trkpt lat="43.409827" lon="-3.941210">
        <ele>15.324</ele>
        <time>2022-08-28T14:53:57Z</time>
      </trkpt>
      <trkpt lat="43.409840" lon="-3.941033">
        <ele>14.934</ele>
        <time>2022-08-28T14:53:59Z</time>
      </trkpt>
      <trkpt lat="43.409848" lon="-3.940873">
        <ele>14.925</ele>
        <time>2022-08-28T14:54:01Z</time>
      </trkpt>
      <trkpt lat="43.409863" lon="-3.940800">
        <ele>15.094</ele>
        <time>2022-08-28T14:54:02Z</time>
      </trkpt>
      <trkpt lat="43.409928" lon="-3.940690">
        <ele>15.293</ele>
        <time>2022-08-28T14:54:04Z</time>
      </trkpt>
      <trkpt lat="43.410026" lon="-3.940617">
        <ele>14.831</ele>
        <time>2022-08-28T14:54:06Z</time>
      </trkpt>
      <trkpt lat="43.410124" lon="-3.940532">
        <ele>14.285</ele>
        <time>2022-08-28T14:54:08Z</time>
      </trkpt>
      <trkpt lat="43.410171" lon="-3.940484">
        <ele>14.194</ele>
        <time>2022-08-28T14:54:09Z</time>
      </trkpt>
      <trkpt lat="43.410216" lon="-3.940436">
        <ele>14.040</ele>
        <time>2022-08-28T14:54:10Z</time>
      </trkpt>
      <trkpt lat="43.410258" lon="-3.940383">
        <ele>13.854</ele>
        <time>2022-08-28T14:54:11Z</time>
      </trkpt>
      <trkpt lat="43.410298" lon="-3.940331">
        <ele>13.556</ele>
        <time>2022-08-28T14:54:12Z</time>
      </trkpt>
      <trkpt lat="43.410340" lon="-3.940279">
        <ele>13.411</ele>
        <time>2022-08-28T14:54:13Z</time>
      </trkpt>
      <trkpt lat="43.410423" lon="-3.940171">
        <ele>13.209</ele>
        <time>2022-08-28T14:54:15Z</time>
      </trkpt>
      <trkpt lat="43.410491" lon="-3.940073">
        <ele>13.196</ele>
        <time>2022-08-28T14:54:17Z</time>
      </trkpt>
      <trkpt lat="43.410544" lon="-3.939985">
        <ele>13.156</ele>
        <time>2022-08-28T14:54:19Z</time>
      </trkpt>
      <trkpt lat="43.410596" lon="-3.939907">
        <ele>13.177</ele>
        <time>2022-08-28T14:54:21Z</time>
      </trkpt>
      <trkpt lat="43.410646" lon="-3.939835">
        <ele>13.026</ele>
        <time>2022-08-28T14:54:23Z</time>
      </trkpt>
      <trkpt lat="43.410691" lon="-3.939760">
        <ele>13.025</ele>
        <time>2022-08-28T14:54:25Z</time>
      </trkpt>
      <trkpt lat="43.410744" lon="-3.939690">
        <ele>13.073</ele>
        <time>2022-08-28T14:54:27Z</time>
      </trkpt>
      <trkpt lat="43.410799" lon="-3.939620">
        <ele>13.077</ele>
        <time>2022-08-28T14:54:29Z</time>
      </trkpt>
      <trkpt lat="43.410861" lon="-3.939555">
        <ele>13.576</ele>
        <time>2022-08-28T14:54:31Z</time>
      </trkpt>
      <trkpt lat="43.410918" lon="-3.939485">
        <ele>14.432</ele>
        <time>2022-08-28T14:54:33Z</time>
      </trkpt>
      <trkpt lat="43.410975" lon="-3.939420">
        <ele>15.212</ele>
        <time>2022-08-28T14:54:35Z</time>
      </trkpt>
      <trkpt lat="43.411030" lon="-3.939358">
        <ele>15.832</ele>
        <time>2022-08-28T14:54:37Z</time>
      </trkpt>
      <trkpt lat="43.411080" lon="-3.939296">
        <ele>15.905</ele>
        <time>2022-08-28T14:54:39Z</time>
      </trkpt>
      <trkpt lat="43.411128" lon="-3.939234">
        <ele>15.909</ele>
        <time>2022-08-28T14:54:41Z</time>
      </trkpt>
      <trkpt lat="43.411176" lon="-3.939171">
        <ele>15.962</ele>
        <time>2022-08-28T14:54:43Z</time>
      </trkpt>
      <trkpt lat="43.411219" lon="-3.939108">
        <ele>16.042</ele>
        <time>2022-08-28T14:54:45Z</time>
      </trkpt>
      <trkpt lat="43.411269" lon="-3.939048">
        <ele>16.383</ele>
        <time>2022-08-28T14:54:47Z</time>
      </trkpt>
      <trkpt lat="43.411322" lon="-3.938986">
        <ele>16.772</ele>
        <time>2022-08-28T14:54:49Z</time>
      </trkpt>
      <trkpt lat="43.411372" lon="-3.938919">
        <ele>17.381</ele>
        <time>2022-08-28T14:54:51Z</time>
      </trkpt>
      <trkpt lat="43.411424" lon="-3.938852">
        <ele>17.449</ele>
        <time>2022-08-28T14:54:53Z</time>
      </trkpt>
      <trkpt lat="43.411474" lon="-3.938782">
        <ele>17.923</ele>
        <time>2022-08-28T14:54:55Z</time>
      </trkpt>
      <trkpt lat="43.411524" lon="-3.938712">
        <ele>18.122</ele>
        <time>2022-08-28T14:54:57Z</time>
      </trkpt>
      <trkpt lat="43.411571" lon="-3.938650">
        <ele>18.148</ele>
        <time>2022-08-28T14:54:59Z</time>
      </trkpt>
      <trkpt lat="43.411619" lon="-3.938582">
        <ele>18.155</ele>
        <time>2022-08-28T14:55:01Z</time>
      </trkpt>
      <trkpt lat="43.411671" lon="-3.938510">
        <ele>18.307</ele>
        <time>2022-08-28T14:55:03Z</time>
      </trkpt>
      <trkpt lat="43.411721" lon="-3.938440">
        <ele>18.317</ele>
        <time>2022-08-28T14:55:05Z</time>
      </trkpt>
      <trkpt lat="43.411771" lon="-3.938373">
        <ele>18.409</ele>
        <time>2022-08-28T14:55:07Z</time>
      </trkpt>
      <trkpt lat="43.411821" lon="-3.938308">
        <ele>18.756</ele>
        <time>2022-08-28T14:55:09Z</time>
      </trkpt>
      <trkpt lat="43.411879" lon="-3.938256">
        <ele>19.126</ele>
        <time>2022-08-28T14:55:11Z</time>
      </trkpt>
      <trkpt lat="43.411937" lon="-3.938198">
        <ele>19.517</ele>
        <time>2022-08-28T14:55:13Z</time>
      </trkpt>
      <trkpt lat="43.411994" lon="-3.938140">
        <ele>20.216</ele>
        <time>2022-08-28T14:55:15Z</time>
      </trkpt>
      <trkpt lat="43.412051" lon="-3.938085">
        <ele>20.585</ele>
        <time>2022-08-28T14:55:17Z</time>
      </trkpt>
      <trkpt lat="43.412106" lon="-3.938033">
        <ele>20.553</ele>
        <time>2022-08-28T14:55:19Z</time>
      </trkpt>
      <trkpt lat="43.412163" lon="-3.937980">
        <ele>20.437</ele>
        <time>2022-08-28T14:55:21Z</time>
      </trkpt>
      <trkpt lat="43.412221" lon="-3.937925">
        <ele>20.446</ele>
        <time>2022-08-28T14:55:23Z</time>
      </trkpt>
      <trkpt lat="43.412276" lon="-3.937870">
        <ele>20.422</ele>
        <time>2022-08-28T14:55:25Z</time>
      </trkpt>
      <trkpt lat="43.412341" lon="-3.937817">
        <ele>20.773</ele>
        <time>2022-08-28T14:55:27Z</time>
      </trkpt>
      <trkpt lat="43.412399" lon="-3.937759">
        <ele>21.085</ele>
        <time>2022-08-28T14:55:29Z</time>
      </trkpt>
      <trkpt lat="43.412461" lon="-3.937702">
        <ele>21.113</ele>
        <time>2022-08-28T14:55:31Z</time>
      </trkpt>
      <trkpt lat="43.412529" lon="-3.937652">
        <ele>21.309</ele>
        <time>2022-08-28T14:55:33Z</time>
      </trkpt>
      <trkpt lat="43.412591" lon="-3.937600">
        <ele>21.898</ele>
        <time>2022-08-28T14:55:35Z</time>
      </trkpt>
      <trkpt lat="43.412649" lon="-3.937547">
        <ele>22.538</ele>
        <time>2022-08-28T14:55:37Z</time>
      </trkpt>
      <trkpt lat="43.412709" lon="-3.937490">
        <ele>22.849</ele>
        <time>2022-08-28T14:55:39Z</time>
      </trkpt>
      <trkpt lat="43.412774" lon="-3.937428">
        <ele>23.018</ele>
        <time>2022-08-28T14:55:41Z</time>
      </trkpt>
      <trkpt lat="43.412836" lon="-3.937370">
        <ele>23.027</ele>
        <time>2022-08-28T14:55:43Z</time>
      </trkpt>
      <trkpt lat="43.412901" lon="-3.937313">
        <ele>23.425</ele>
        <time>2022-08-28T14:55:45Z</time>
      </trkpt>
      <trkpt lat="43.412961" lon="-3.937258">
        <ele>23.619</ele>
        <time>2022-08-28T14:55:47Z</time>
      </trkpt>
      <trkpt lat="43.413024" lon="-3.937205">
        <ele>23.728</ele>
        <time>2022-08-28T14:55:49Z</time>
      </trkpt>
      <trkpt lat="43.413082" lon="-3.937150">
        <ele>23.614</ele>
        <time>2022-08-28T14:55:51Z</time>
      </trkpt>
      <trkpt lat="43.413145" lon="-3.937093">
        <ele>23.548</ele>
        <time>2022-08-28T14:55:53Z</time>
      </trkpt>
      <trkpt lat="43.413213" lon="-3.937040">
        <ele>23.661</ele>
        <time>2022-08-28T14:55:55Z</time>
      </trkpt>
      <trkpt lat="43.413273" lon="-3.936987">
        <ele>23.917</ele>
        <time>2022-08-28T14:55:57Z</time>
      </trkpt>
      <trkpt lat="43.413335" lon="-3.936932">
        <ele>24.409</ele>
        <time>2022-08-28T14:55:59Z</time>
      </trkpt>
      <trkpt lat="43.413402" lon="-3.936879">
        <ele>24.685</ele>
        <time>2022-08-28T14:56:01Z</time>
      </trkpt>
      <trkpt lat="43.413469" lon="-3.936822">
        <ele>24.765</ele>
        <time>2022-08-28T14:56:03Z</time>
      </trkpt>
      <trkpt lat="43.413536" lon="-3.936762">
        <ele>24.976</ele>
        <time>2022-08-28T14:56:05Z</time>
      </trkpt>
      <trkpt lat="43.413604" lon="-3.936707">
        <ele>25.025</ele>
        <time>2022-08-28T14:56:07Z</time>
      </trkpt>
      <trkpt lat="43.413671" lon="-3.936652">
        <ele>25.134</ele>
        <time>2022-08-28T14:56:09Z</time>
      </trkpt>
      <trkpt lat="43.413736" lon="-3.936594">
        <ele>25.322</ele>
        <time>2022-08-28T14:56:11Z</time>
      </trkpt>
      <trkpt lat="43.413799" lon="-3.936534">
        <ele>25.396</ele>
        <time>2022-08-28T14:56:13Z</time>
      </trkpt>
      <trkpt lat="43.413864" lon="-3.936474">
        <ele>25.315</ele>
        <time>2022-08-28T14:56:15Z</time>
      </trkpt>
      <trkpt lat="43.413927" lon="-3.936417">
        <ele>25.321</ele>
        <time>2022-08-28T14:56:17Z</time>
      </trkpt>
      <trkpt lat="43.413987" lon="-3.936360">
        <ele>25.886</ele>
        <time>2022-08-28T14:56:19Z</time>
      </trkpt>
      <trkpt lat="43.414040" lon="-3.936310">
        <ele>26.360</ele>
        <time>2022-08-28T14:56:21Z</time>
      </trkpt>
      <trkpt lat="43.414093" lon="-3.936260">
        <ele>26.926</ele>
        <time>2022-08-28T14:56:23Z</time>
      </trkpt>
      <trkpt lat="43.414148" lon="-3.936215">
        <ele>27.009</ele>
        <time>2022-08-28T14:56:25Z</time>
      </trkpt>
      <trkpt lat="43.414198" lon="-3.936170">
        <ele>27.369</ele>
        <time>2022-08-28T14:56:27Z</time>
      </trkpt>
      <trkpt lat="43.414251" lon="-3.936128">
        <ele>28.319</ele>
        <time>2022-08-28T14:56:29Z</time>
      </trkpt>
      <trkpt lat="43.414301" lon="-3.936086">
        <ele>28.560</ele>
        <time>2022-08-28T14:56:31Z</time>
      </trkpt>
      <trkpt lat="43.414353" lon="-3.936039">
        <ele>29.179</ele>
        <time>2022-08-28T14:56:33Z</time>
      </trkpt>
      <trkpt lat="43.414405" lon="-3.935992">
        <ele>29.728</ele>
        <time>2022-08-28T14:56:35Z</time>
      </trkpt>
      <trkpt lat="43.414460" lon="-3.935947">
        <ele>30.286</ele>
        <time>2022-08-28T14:56:37Z</time>
      </trkpt>
      <trkpt lat="43.414508" lon="-3.935905">
        <ele>30.530</ele>
        <time>2022-08-28T14:56:39Z</time>
      </trkpt>
      <trkpt lat="43.414553" lon="-3.935860">
        <ele>31.249</ele>
        <time>2022-08-28T14:56:41Z</time>
      </trkpt>
      <trkpt lat="43.414600" lon="-3.935813">
        <ele>31.245</ele>
        <time>2022-08-28T14:56:43Z</time>
      </trkpt>
      <trkpt lat="43.414645" lon="-3.935770">
        <ele>31.526</ele>
        <time>2022-08-28T14:56:45Z</time>
      </trkpt>
      <trkpt lat="43.414690" lon="-3.935728">
        <ele>31.547</ele>
        <time>2022-08-28T14:56:47Z</time>
      </trkpt>
      <trkpt lat="43.414733" lon="-3.935691">
        <ele>31.511</ele>
        <time>2022-08-28T14:56:49Z</time>
      </trkpt>
      <trkpt lat="43.414791" lon="-3.935641">
        <ele>31.509</ele>
        <time>2022-08-28T14:56:52Z</time>
      </trkpt>
      <trkpt lat="43.414844" lon="-3.935588">
        <ele>31.573</ele>
        <time>2022-08-28T14:56:55Z</time>
      </trkpt>
      <trkpt lat="43.414891" lon="-3.935548">
        <ele>31.993</ele>
        <time>2022-08-28T14:56:58Z</time>
      </trkpt>
      <trkpt lat="43.414941" lon="-3.935508">
        <ele>32.544</ele>
        <time>2022-08-28T14:57:01Z</time>
      </trkpt>
      <trkpt lat="43.414989" lon="-3.935473">
        <ele>33.263</ele>
        <time>2022-08-28T14:57:04Z</time>
      </trkpt>
      <trkpt lat="43.415031" lon="-3.935450">
        <ele>33.212</ele>
        <time>2022-08-28T14:57:07Z</time>
      </trkpt>
      <trkpt lat="43.415079" lon="-3.935472">
        <ele>33.160</ele>
        <time>2022-08-28T14:57:11Z</time>
      </trkpt>
      <trkpt lat="43.415129" lon="-3.935492">
        <ele>32.924</ele>
        <time>2022-08-28T14:57:15Z</time>
      </trkpt>
      <trkpt lat="43.415181" lon="-3.935540">
        <ele>32.823</ele>
        <time>2022-08-28T14:57:59Z</time>
      </trkpt>
      <trkpt lat="43.415233" lon="-3.935620">
        <ele>32.869</ele>
        <time>2022-08-28T14:58:10Z</time>
      </trkpt>
      <trkpt lat="43.415281" lon="-3.935653">
        <ele>32.867</ele>
        <time>2022-08-28T14:58:13Z</time>
      </trkpt>
      <trkpt lat="43.415321" lon="-3.935691">
        <ele>32.881</ele>
        <time>2022-08-28T14:58:16Z</time>
      </trkpt>
      <trkpt lat="43.415364" lon="-3.935744">
        <ele>32.819</ele>
        <time>2022-08-28T14:58:19Z</time>
      </trkpt>
      <trkpt lat="43.415416" lon="-3.935792">
        <ele>34.709</ele>
        <time>2022-08-28T14:58:22Z</time>
      </trkpt>
      <trkpt lat="43.415459" lon="-3.935832">
        <ele>36.817</ele>
        <time>2022-08-28T14:58:24Z</time>
      </trkpt>
      <trkpt lat="43.415501" lon="-3.935879">
        <ele>37.747</ele>
        <time>2022-08-28T14:58:26Z</time>
      </trkpt>
      <trkpt lat="43.415533" lon="-3.935936">
        <ele>37.878</ele>
        <time>2022-08-28T14:58:28Z</time>
      </trkpt>
      <trkpt lat="43.415558" lon="-3.936013">
        <ele>38.057</ele>
        <time>2022-08-28T14:58:30Z</time>
      </trkpt>
      <trkpt lat="43.415571" lon="-3.936095">
        <ele>38.156</ele>
        <time>2022-08-28T14:58:32Z</time>
      </trkpt>
      <trkpt lat="43.415578" lon="-3.936180">
        <ele>38.744</ele>
        <time>2022-08-28T14:58:34Z</time>
      </trkpt>
      <trkpt lat="43.415581" lon="-3.936268">
        <ele>39.088</ele>
        <time>2022-08-28T14:58:36Z</time>
      </trkpt>
      <trkpt lat="43.415586" lon="-3.936348">
        <ele>40.767</ele>
        <time>2022-08-28T14:58:38Z</time>
      </trkpt>
      <trkpt lat="43.415594" lon="-3.936423">
        <ele>41.633</ele>
        <time>2022-08-28T14:58:40Z</time>
      </trkpt>
      <trkpt lat="43.415597" lon="-3.936490">
        <ele>41.695</ele>
        <time>2022-08-28T14:58:42Z</time>
      </trkpt>
      <trkpt lat="43.415597" lon="-3.936560">
        <ele>41.649</ele>
        <time>2022-08-28T14:58:44Z</time>
      </trkpt>
      <trkpt lat="43.415599" lon="-3.936637">
        <ele>41.423</ele>
        <time>2022-08-28T14:58:46Z</time>
      </trkpt>
      <trkpt lat="43.415602" lon="-3.936712">
        <ele>41.209</ele>
        <time>2022-08-28T14:58:48Z</time>
      </trkpt>
      <trkpt lat="43.415600" lon="-3.936792">
        <ele>41.160</ele>
        <time>2022-08-28T14:58:50Z</time>
      </trkpt>
      <trkpt lat="43.415588" lon="-3.936869">
        <ele>41.180</ele>
        <time>2022-08-28T14:58:52Z</time>
      </trkpt>
      <trkpt lat="43.415558" lon="-3.936949">
        <ele>41.181</ele>
        <time>2022-08-28T14:58:54Z</time>
      </trkpt>
      <trkpt lat="43.415516" lon="-3.937019">
        <ele>41.170</ele>
        <time>2022-08-28T14:58:56Z</time>
      </trkpt>
      <trkpt lat="43.415494" lon="-3.937084">
        <ele>41.099</ele>
        <time>2022-08-28T14:58:58Z</time>
      </trkpt>
      <trkpt lat="43.415482" lon="-3.937174">
        <ele>40.397</ele>
        <time>2022-08-28T14:59:00Z</time>
      </trkpt>
      <trkpt lat="43.415482" lon="-3.937264">
        <ele>39.871</ele>
        <time>2022-08-28T14:59:02Z</time>
      </trkpt>
      <trkpt lat="43.415494" lon="-3.937346">
        <ele>39.690</ele>
        <time>2022-08-28T14:59:04Z</time>
      </trkpt>
      <trkpt lat="43.415519" lon="-3.937421">
        <ele>39.696</ele>
        <time>2022-08-28T14:59:06Z</time>
      </trkpt>
      <trkpt lat="43.415554" lon="-3.937494">
        <ele>39.716</ele>
        <time>2022-08-28T14:59:08Z</time>
      </trkpt>
      <trkpt lat="43.415591" lon="-3.937559">
        <ele>40.776</ele>
        <time>2022-08-28T14:59:10Z</time>
      </trkpt>
      <trkpt lat="43.415633" lon="-3.937621">
        <ele>41.613</ele>
        <time>2022-08-28T14:59:12Z</time>
      </trkpt>
      <trkpt lat="43.415676" lon="-3.937661">
        <ele>41.709</ele>
        <time>2022-08-28T14:59:14Z</time>
      </trkpt>
      <trkpt lat="43.415724" lon="-3.937674">
        <ele>42.552</ele>
        <time>2022-08-28T14:59:16Z</time>
      </trkpt>
      <trkpt lat="43.415782" lon="-3.937716">
        <ele>43.472</ele>
        <time>2022-08-28T14:59:19Z</time>
      </trkpt>
      <trkpt lat="43.415834" lon="-3.937746">
        <ele>43.963</ele>
        <time>2022-08-28T14:59:22Z</time>
      </trkpt>
      <trkpt lat="43.415887" lon="-3.937776">
        <ele>44.222</ele>
        <time>2022-08-28T14:59:25Z</time>
      </trkpt>
      <trkpt lat="43.415945" lon="-3.937814">
        <ele>44.261</ele>
        <time>2022-08-28T14:59:28Z</time>
      </trkpt>
      <trkpt lat="43.415988" lon="-3.937874">
        <ele>44.239</ele>
        <time>2022-08-28T14:59:31Z</time>
      </trkpt>
      <trkpt lat="43.416018" lon="-3.937924">
        <ele>44.373</ele>
        <time>2022-08-28T14:59:33Z</time>
      </trkpt>
      <trkpt lat="43.416051" lon="-3.937996">
        <ele>44.292</ele>
        <time>2022-08-28T14:59:36Z</time>
      </trkpt>
      <trkpt lat="43.416076" lon="-3.938071">
        <ele>44.748</ele>
        <time>2022-08-28T14:59:39Z</time>
      </trkpt>
      <trkpt lat="43.416028" lon="-3.938053">
        <ele>45.933</ele>
        <time>2022-08-28T14:59:45Z</time>
      </trkpt>
      <trkpt lat="43.416001" lon="-3.937976">
        <ele>46.923</ele>
        <time>2022-08-28T14:59:48Z</time>
      </trkpt>
      <trkpt lat="43.415969" lon="-3.937919">
        <ele>47.615</ele>
        <time>2022-08-28T14:59:50Z</time>
      </trkpt>
      <trkpt lat="43.415934" lon="-3.937874">
        <ele>47.709</ele>
        <time>2022-08-28T14:59:52Z</time>
      </trkpt>
      <trkpt lat="43.415889" lon="-3.937826">
        <ele>47.894</ele>
        <time>2022-08-28T14:59:54Z</time>
      </trkpt>
      <trkpt lat="43.415837" lon="-3.937791">
        <ele>48.444</ele>
        <time>2022-08-28T14:59:56Z</time>
      </trkpt>
      <trkpt lat="43.415789" lon="-3.937764">
        <ele>48.475</ele>
        <time>2022-08-28T14:59:58Z</time>
      </trkpt>
      <trkpt lat="43.415732" lon="-3.937741">
        <ele>48.484</ele>
        <time>2022-08-28T15:00:00Z</time>
      </trkpt>
      <trkpt lat="43.415669" lon="-3.937713">
        <ele>48.393</ele>
        <time>2022-08-28T15:00:02Z</time>
      </trkpt>
      <trkpt lat="43.415609" lon="-3.937671">
        <ele>47.591</ele>
        <time>2022-08-28T15:00:04Z</time>
      </trkpt>
      <trkpt lat="43.415562" lon="-3.937619">
        <ele>47.095</ele>
        <time>2022-08-28T15:00:06Z</time>
      </trkpt>
      <trkpt lat="43.415519" lon="-3.937567">
        <ele>46.414</ele>
        <time>2022-08-28T15:00:08Z</time>
      </trkpt>
      <trkpt lat="43.415494" lon="-3.937492">
        <ele>45.940</ele>
        <time>2022-08-28T15:00:10Z</time>
      </trkpt>
      <trkpt lat="43.415471" lon="-3.937399">
        <ele>45.826</ele>
        <time>2022-08-28T15:00:12Z</time>
      </trkpt>
      <trkpt lat="43.415444" lon="-3.937289">
        <ele>45.547</ele>
        <time>2022-08-28T15:00:14Z</time>
      </trkpt>
      <trkpt lat="43.415449" lon="-3.937149">
        <ele>44.911</ele>
        <time>2022-08-28T15:00:16Z</time>
      </trkpt>
      <trkpt lat="43.415466" lon="-3.937076">
        <ele>44.409</ele>
        <time>2022-08-28T15:00:17Z</time>
      </trkpt>
      <trkpt lat="43.415511" lon="-3.936939">
        <ele>42.953</ele>
        <time>2022-08-28T15:00:19Z</time>
      </trkpt>
      <trkpt lat="43.415536" lon="-3.936872">
        <ele>42.543</ele>
        <time>2022-08-28T15:00:20Z</time>
      </trkpt>
      <trkpt lat="43.415564" lon="-3.936742">
        <ele>41.494</ele>
        <time>2022-08-28T15:00:22Z</time>
      </trkpt>
      <trkpt lat="43.415569" lon="-3.936680">
        <ele>41.193</ele>
        <time>2022-08-28T15:00:23Z</time>
      </trkpt>
      <trkpt lat="43.415569" lon="-3.936617">
        <ele>40.612</ele>
        <time>2022-08-28T15:00:24Z</time>
      </trkpt>
      <trkpt lat="43.415564" lon="-3.936495">
        <ele>39.920</ele>
        <time>2022-08-28T15:00:26Z</time>
      </trkpt>
      <trkpt lat="43.415559" lon="-3.936355">
        <ele>39.724</ele>
        <time>2022-08-28T15:00:28Z</time>
      </trkpt>
      <trkpt lat="43.415549" lon="-3.936218">
        <ele>39.893</ele>
        <time>2022-08-28T15:00:30Z</time>
      </trkpt>
      <trkpt lat="43.415542" lon="-3.936150">
        <ele>40.339</ele>
        <time>2022-08-28T15:00:31Z</time>
      </trkpt>
      <trkpt lat="43.415529" lon="-3.936082">
        <ele>40.633</ele>
        <time>2022-08-28T15:00:32Z</time>
      </trkpt>
      <trkpt lat="43.415511" lon="-3.936015">
        <ele>40.923</ele>
        <time>2022-08-28T15:00:33Z</time>
      </trkpt>
      <trkpt lat="43.415459" lon="-3.935883">
        <ele>41.215</ele>
        <time>2022-08-28T15:00:35Z</time>
      </trkpt>
      <trkpt lat="43.415414" lon="-3.935833">
        <ele>41.309</ele>
        <time>2022-08-28T15:00:36Z</time>
      </trkpt>
      <trkpt lat="43.415326" lon="-3.935751">
        <ele>41.634</ele>
        <time>2022-08-28T15:00:38Z</time>
      </trkpt>
      <trkpt lat="43.415281" lon="-3.935713">
        <ele>41.654</ele>
        <time>2022-08-28T15:00:39Z</time>
      </trkpt>
      <trkpt lat="43.415238" lon="-3.935673">
        <ele>41.635</ele>
        <time>2022-08-28T15:00:40Z</time>
      </trkpt>
      <trkpt lat="43.415161" lon="-3.935605">
        <ele>41.344</ele>
        <time>2022-08-28T15:00:42Z</time>
      </trkpt>
      <trkpt lat="43.415106" lon="-3.935553">
        <ele>40.713</ele>
        <time>2022-08-28T15:00:44Z</time>
      </trkpt>
      <trkpt lat="43.415046" lon="-3.935498">
        <ele>38.381</ele>
        <time>2022-08-28T15:00:50Z</time>
      </trkpt>
      <trkpt lat="43.415079" lon="-3.935416">
        <ele>37.495</ele>
        <time>2022-08-28T15:00:53Z</time>
      </trkpt>
      <trkpt lat="43.415134" lon="-3.935351">
        <ele>37.154</ele>
        <time>2022-08-28T15:00:55Z</time>
      </trkpt>
      <trkpt lat="43.415199" lon="-3.935291">
        <ele>37.070</ele>
        <time>2022-08-28T15:00:57Z</time>
      </trkpt>
      <trkpt lat="43.415266" lon="-3.935231">
        <ele>36.646</ele>
        <time>2022-08-28T15:00:59Z</time>
      </trkpt>
      <trkpt lat="43.415336" lon="-3.935168">
        <ele>36.088</ele>
        <time>2022-08-28T15:01:01Z</time>
      </trkpt>
      <trkpt lat="43.415418" lon="-3.935098">
        <ele>35.116</ele>
        <time>2022-08-28T15:01:03Z</time>
      </trkpt>
      <trkpt lat="43.415460" lon="-3.935061">
        <ele>34.409</ele>
        <time>2022-08-28T15:01:04Z</time>
      </trkpt>
      <trkpt lat="43.415502" lon="-3.935021">
        <ele>34.195</ele>
        <time>2022-08-28T15:01:05Z</time>
      </trkpt>
      <trkpt lat="43.415545" lon="-3.934988">
        <ele>33.625</ele>
        <time>2022-08-28T15:01:06Z</time>
      </trkpt>
      <trkpt lat="43.415588" lon="-3.934953">
        <ele>33.276</ele>
        <time>2022-08-28T15:01:07Z</time>
      </trkpt>
      <trkpt lat="43.415668" lon="-3.934866">
        <ele>32.675</ele>
        <time>2022-08-28T15:01:09Z</time>
      </trkpt>
      <trkpt lat="43.415708" lon="-3.934823">
        <ele>32.134</ele>
        <time>2022-08-28T15:01:10Z</time>
      </trkpt>
      <trkpt lat="43.415750" lon="-3.934786">
        <ele>31.572</ele>
        <time>2022-08-28T15:01:11Z</time>
      </trkpt>
      <trkpt lat="43.415793" lon="-3.934748">
        <ele>31.266</ele>
        <time>2022-08-28T15:01:12Z</time>
      </trkpt>
      <trkpt lat="43.415880" lon="-3.934671">
        <ele>31.165</ele>
        <time>2022-08-28T15:01:14Z</time>
      </trkpt>
      <trkpt lat="43.415927" lon="-3.934629">
        <ele>31.021</ele>
        <time>2022-08-28T15:01:15Z</time>
      </trkpt>
      <trkpt lat="43.416014" lon="-3.934539">
        <ele>30.775</ele>
        <time>2022-08-28T15:01:17Z</time>
      </trkpt>
      <trkpt lat="43.416056" lon="-3.934494">
        <ele>30.628</ele>
        <time>2022-08-28T15:01:18Z</time>
      </trkpt>
      <trkpt lat="43.416143" lon="-3.934411">
        <ele>30.520</ele>
        <time>2022-08-28T15:01:20Z</time>
      </trkpt>
      <trkpt lat="43.416230" lon="-3.934328">
        <ele>30.609</ele>
        <time>2022-08-28T15:01:22Z</time>
      </trkpt>
      <trkpt lat="43.416317" lon="-3.934248">
        <ele>30.768</ele>
        <time>2022-08-28T15:01:24Z</time>
      </trkpt>
      <trkpt lat="43.416359" lon="-3.934210">
        <ele>30.878</ele>
        <time>2022-08-28T15:01:25Z</time>
      </trkpt>
      <trkpt lat="43.416446" lon="-3.934132">
        <ele>31.149</ele>
        <time>2022-08-28T15:01:27Z</time>
      </trkpt>
      <trkpt lat="43.416534" lon="-3.934064">
        <ele>31.578</ele>
        <time>2022-08-28T15:01:29Z</time>
      </trkpt>
      <trkpt lat="43.416579" lon="-3.934029">
        <ele>31.517</ele>
        <time>2022-08-28T15:01:30Z</time>
      </trkpt>
      <trkpt lat="43.416619" lon="-3.933991">
        <ele>31.685</ele>
        <time>2022-08-28T15:01:31Z</time>
      </trkpt>
      <trkpt lat="43.416659" lon="-3.933956">
        <ele>31.749</ele>
        <time>2022-08-28T15:01:32Z</time>
      </trkpt>
      <trkpt lat="43.416701" lon="-3.933923">
        <ele>31.848</ele>
        <time>2022-08-28T15:01:33Z</time>
      </trkpt>
      <trkpt lat="43.416774" lon="-3.933853">
        <ele>31.974</ele>
        <time>2022-08-28T15:01:35Z</time>
      </trkpt>
      <trkpt lat="43.416846" lon="-3.933790">
        <ele>32.429</ele>
        <time>2022-08-28T15:01:37Z</time>
      </trkpt>
      <trkpt lat="43.416918" lon="-3.933735">
        <ele>33.000</ele>
        <time>2022-08-28T15:01:39Z</time>
      </trkpt>
      <trkpt lat="43.416981" lon="-3.933680">
        <ele>33.520</ele>
        <time>2022-08-28T15:01:41Z</time>
      </trkpt>
      <trkpt lat="43.417036" lon="-3.933630">
        <ele>34.609</ele>
        <time>2022-08-28T15:01:43Z</time>
      </trkpt>
      <trkpt lat="43.417089" lon="-3.933585">
        <ele>35.363</ele>
        <time>2022-08-28T15:01:45Z</time>
      </trkpt>
      <trkpt lat="43.417142" lon="-3.933538">
        <ele>36.033</ele>
        <time>2022-08-28T15:01:47Z</time>
      </trkpt>
      <trkpt lat="43.417200" lon="-3.933483">
        <ele>36.564</ele>
        <time>2022-08-28T15:01:49Z</time>
      </trkpt>
      <trkpt lat="43.417258" lon="-3.933435">
        <ele>36.993</ele>
        <time>2022-08-28T15:01:51Z</time>
      </trkpt>
      <trkpt lat="43.417318" lon="-3.933390">
        <ele>37.242</ele>
        <time>2022-08-28T15:01:53Z</time>
      </trkpt>
      <trkpt lat="43.417376" lon="-3.933343">
        <ele>37.810</ele>
        <time>2022-08-28T15:01:55Z</time>
      </trkpt>
      <trkpt lat="43.417428" lon="-3.933305">
        <ele>38.454</ele>
        <time>2022-08-28T15:01:57Z</time>
      </trkpt>
      <trkpt lat="43.417471" lon="-3.933265">
        <ele>39.383</ele>
        <time>2022-08-28T15:01:59Z</time>
      </trkpt>
      <trkpt lat="43.417513" lon="-3.933222">
        <ele>39.439</ele>
        <time>2022-08-28T15:02:01Z</time>
      </trkpt>
      <trkpt lat="43.417555" lon="-3.933182">
        <ele>39.563</ele>
        <time>2022-08-28T15:02:03Z</time>
      </trkpt>
      <trkpt lat="43.417598" lon="-3.933144">
        <ele>39.544</ele>
        <time>2022-08-28T15:02:05Z</time>
      </trkpt>
      <trkpt lat="43.417641" lon="-3.933104">
        <ele>39.518</ele>
        <time>2022-08-28T15:02:07Z</time>
      </trkpt>
      <trkpt lat="43.417689" lon="-3.933067">
        <ele>39.609</ele>
        <time>2022-08-28T15:02:09Z</time>
      </trkpt>
      <trkpt lat="43.417742" lon="-3.933012">
        <ele>39.957</ele>
        <time>2022-08-28T15:02:12Z</time>
      </trkpt>
      <trkpt lat="43.417782" lon="-3.932974">
        <ele>40.167</ele>
        <time>2022-08-28T15:02:14Z</time>
      </trkpt>
      <trkpt lat="43.417824" lon="-3.932941">
        <ele>40.278</ele>
        <time>2022-08-28T15:02:16Z</time>
      </trkpt>
      <trkpt lat="43.417864" lon="-3.932904">
        <ele>40.387</ele>
        <time>2022-08-28T15:02:18Z</time>
      </trkpt>
      <trkpt lat="43.417906" lon="-3.932869">
        <ele>40.336</ele>
        <time>2022-08-28T15:02:20Z</time>
      </trkpt>
      <trkpt lat="43.417944" lon="-3.932836">
        <ele>40.994</ele>
        <time>2022-08-28T15:02:22Z</time>
      </trkpt>
      <trkpt lat="43.417982" lon="-3.932803">
        <ele>41.368</ele>
        <time>2022-08-28T15:02:24Z</time>
      </trkpt>
      <trkpt lat="43.418022" lon="-3.932770">
        <ele>41.497</ele>
        <time>2022-08-28T15:02:26Z</time>
      </trkpt>
      <trkpt lat="43.418062" lon="-3.932730">
        <ele>41.663</ele>
        <time>2022-08-28T15:02:28Z</time>
      </trkpt>
      <trkpt lat="43.418107" lon="-3.932675">
        <ele>41.748</ele>
        <time>2022-08-28T15:02:31Z</time>
      </trkpt>
      <trkpt lat="43.418144" lon="-3.932635">
        <ele>41.861</ele>
        <time>2022-08-28T15:02:33Z</time>
      </trkpt>
      <trkpt lat="43.418199" lon="-3.932602">
        <ele>42.117</ele>
        <time>2022-08-28T15:02:36Z</time>
      </trkpt>
      <trkpt lat="43.418249" lon="-3.932564">
        <ele>43.009</ele>
        <time>2022-08-28T15:02:39Z</time>
      </trkpt>
      <trkpt lat="43.418299" lon="-3.932514">
        <ele>44.135</ele>
        <time>2022-08-28T15:02:42Z</time>
      </trkpt>
      <trkpt lat="43.418352" lon="-3.932461">
        <ele>45.085</ele>
        <time>2022-08-28T15:02:45Z</time>
      </trkpt>
      <trkpt lat="43.418400" lon="-3.932404">
        <ele>46.096</ele>
        <time>2022-08-28T15:02:48Z</time>
      </trkpt>
      <trkpt lat="43.418448" lon="-3.932354">
        <ele>46.135</ele>
        <time>2022-08-28T15:02:51Z</time>
      </trkpt>
      <trkpt lat="43.418490" lon="-3.932306">
        <ele>46.324</ele>
        <time>2022-08-28T15:02:54Z</time>
      </trkpt>
      <trkpt lat="43.418535" lon="-3.932254">
        <ele>46.472</ele>
        <time>2022-08-28T15:02:57Z</time>
      </trkpt>
      <trkpt lat="43.418577" lon="-3.932196">
        <ele>47.086</ele>
        <time>2022-08-28T15:03:00Z</time>
      </trkpt>
      <trkpt lat="43.418620" lon="-3.932138">
        <ele>47.865</ele>
        <time>2022-08-28T15:03:03Z</time>
      </trkpt>
      <trkpt lat="43.418660" lon="-3.932075">
        <ele>48.611</ele>
        <time>2022-08-28T15:03:06Z</time>
      </trkpt>
      <trkpt lat="43.418692" lon="-3.932005">
        <ele>49.593</ele>
        <time>2022-08-28T15:03:09Z</time>
      </trkpt>
      <trkpt lat="43.418725" lon="-3.931935">
        <ele>50.165</ele>
        <time>2022-08-28T15:03:12Z</time>
      </trkpt>
      <trkpt lat="43.418755" lon="-3.931857">
        <ele>50.421</ele>
        <time>2022-08-28T15:03:15Z</time>
      </trkpt>
      <trkpt lat="43.418780" lon="-3.931779">
        <ele>50.709</ele>
        <time>2022-08-28T15:03:18Z</time>
      </trkpt>
      <trkpt lat="43.418803" lon="-3.931696">
        <ele>51.330</ele>
        <time>2022-08-28T15:03:21Z</time>
      </trkpt>
      <trkpt lat="43.418821" lon="-3.931613">
        <ele>52.590</ele>
        <time>2022-08-28T15:03:24Z</time>
      </trkpt>
      <trkpt lat="43.418836" lon="-3.931520">
        <ele>54.581</ele>
        <time>2022-08-28T15:03:27Z</time>
      </trkpt>
      <trkpt lat="43.418844" lon="-3.931457">
        <ele>55.770</ele>
        <time>2022-08-28T15:03:29Z</time>
      </trkpt>
      <trkpt lat="43.418847" lon="-3.931372">
        <ele>57.699</ele>
        <time>2022-08-28T15:03:32Z</time>
      </trkpt>
      <trkpt lat="43.418850" lon="-3.931304">
        <ele>58.597</ele>
        <time>2022-08-28T15:03:34Z</time>
      </trkpt>
      <trkpt lat="43.418850" lon="-3.931216">
        <ele>59.151</ele>
        <time>2022-08-28T15:03:37Z</time>
      </trkpt>
      <trkpt lat="43.418847" lon="-3.931126">
        <ele>59.440</ele>
        <time>2022-08-28T15:03:40Z</time>
      </trkpt>
      <trkpt lat="43.418837" lon="-3.931044">
        <ele>59.796</ele>
        <time>2022-08-28T15:03:43Z</time>
      </trkpt>
      <trkpt lat="43.418829" lon="-3.930954">
        <ele>60.987</ele>
        <time>2022-08-28T15:03:46Z</time>
      </trkpt>
      <trkpt lat="43.418826" lon="-3.930869">
        <ele>61.142</ele>
        <time>2022-08-28T15:03:49Z</time>
      </trkpt>
      <trkpt lat="43.418824" lon="-3.930777">
        <ele>61.626</ele>
        <time>2022-08-28T15:03:52Z</time>
      </trkpt>
      <trkpt lat="43.418822" lon="-3.930705">
        <ele>62.409</ele>
        <time>2022-08-28T15:03:54Z</time>
      </trkpt>
      <trkpt lat="43.418825" lon="-3.930617">
        <ele>62.719</ele>
        <time>2022-08-28T15:03:57Z</time>
      </trkpt>
      <trkpt lat="43.418818" lon="-3.930539">
        <ele>63.179</ele>
        <time>2022-08-28T15:04:00Z</time>
      </trkpt>
      <trkpt lat="43.418815" lon="-3.930457">
        <ele>63.170</ele>
        <time>2022-08-28T15:04:03Z</time>
      </trkpt>
      <trkpt lat="43.418828" lon="-3.930369">
        <ele>63.039</ele>
        <time>2022-08-28T15:04:06Z</time>
      </trkpt>
      <trkpt lat="43.418833" lon="-3.930304">
        <ele>63.018</ele>
        <time>2022-08-28T15:04:08Z</time>
      </trkpt>
      <trkpt lat="43.418843" lon="-3.930242">
        <ele>63.076</ele>
        <time>2022-08-28T15:04:10Z</time>
      </trkpt>
      <trkpt lat="43.418856" lon="-3.930179">
        <ele>63.020</ele>
        <time>2022-08-28T15:04:12Z</time>
      </trkpt>
      <trkpt lat="43.418873" lon="-3.930114">
        <ele>63.239</ele>
        <time>2022-08-28T15:04:14Z</time>
      </trkpt>
      <trkpt lat="43.418888" lon="-3.930049">
        <ele>63.275</ele>
        <time>2022-08-28T15:04:16Z</time>
      </trkpt>
      <trkpt lat="43.418905" lon="-3.929987">
        <ele>63.282</ele>
        <time>2022-08-28T15:04:18Z</time>
      </trkpt>
      <trkpt lat="43.418923" lon="-3.929927">
        <ele>63.343</ele>
        <time>2022-08-28T15:04:20Z</time>
      </trkpt>
      <trkpt lat="43.418943" lon="-3.929865">
        <ele>63.317</ele>
        <time>2022-08-28T15:04:22Z</time>
      </trkpt>
      <trkpt lat="43.418968" lon="-3.929805">
        <ele>63.409</ele>
        <time>2022-08-28T15:04:24Z</time>
      </trkpt>
      <trkpt lat="43.418986" lon="-3.929748">
        <ele>63.999</ele>
        <time>2022-08-28T15:04:26Z</time>
      </trkpt>
      <trkpt lat="43.419008" lon="-3.929688">
        <ele>65.069</ele>
        <time>2022-08-28T15:04:28Z</time>
      </trkpt>
      <trkpt lat="43.419030" lon="-3.929628">
        <ele>65.220</ele>
        <time>2022-08-28T15:04:30Z</time>
      </trkpt>
      <trkpt lat="43.419057" lon="-3.929568">
        <ele>65.229</ele>
        <time>2022-08-28T15:04:32Z</time>
      </trkpt>
      <trkpt lat="43.419084" lon="-3.929510">
        <ele>65.238</ele>
        <time>2022-08-28T15:04:34Z</time>
      </trkpt>
      <trkpt lat="43.419112" lon="-3.929458">
        <ele>65.136</ele>
        <time>2022-08-28T15:04:36Z</time>
      </trkpt>
      <trkpt lat="43.419142" lon="-3.929411">
        <ele>65.010</ele>
        <time>2022-08-28T15:04:38Z</time>
      </trkpt>
      <trkpt lat="43.419185" lon="-3.929346">
        <ele>65.039</ele>
        <time>2022-08-28T15:04:41Z</time>
      </trkpt>
      <trkpt lat="43.419227" lon="-3.929276">
        <ele>65.565</ele>
        <time>2022-08-28T15:04:44Z</time>
      </trkpt>
      <trkpt lat="43.419254" lon="-3.929226">
        <ele>65.518</ele>
        <time>2022-08-28T15:04:46Z</time>
      </trkpt>
      <trkpt lat="43.419289" lon="-3.929186">
        <ele>65.798</ele>
        <time>2022-08-28T15:04:48Z</time>
      </trkpt>
      <trkpt lat="43.419342" lon="-3.929136">
        <ele>66.117</ele>
        <time>2022-08-28T15:04:51Z</time>
      </trkpt>
      <trkpt lat="43.419390" lon="-3.929081">
        <ele>67.009</ele>
        <time>2022-08-28T15:04:54Z</time>
      </trkpt>
      <trkpt lat="43.419442" lon="-3.929021">
        <ele>68.352</ele>
        <time>2022-08-28T15:04:57Z</time>
      </trkpt>
      <trkpt lat="43.419472" lon="-3.928974">
        <ele>68.372</ele>
        <time>2022-08-28T15:04:59Z</time>
      </trkpt>
      <trkpt lat="43.419505" lon="-3.928932">
        <ele>68.323</ele>
        <time>2022-08-28T15:05:01Z</time>
      </trkpt>
      <trkpt lat="43.419555" lon="-3.928870">
        <ele>68.462</ele>
        <time>2022-08-28T15:05:04Z</time>
      </trkpt>
      <trkpt lat="43.419590" lon="-3.928830">
        <ele>68.691</ele>
        <time>2022-08-28T15:05:06Z</time>
      </trkpt>
      <trkpt lat="43.419625" lon="-3.928788">
        <ele>69.259</ele>
        <time>2022-08-28T15:05:08Z</time>
      </trkpt>
      <trkpt lat="43.419658" lon="-3.928746">
        <ele>69.553</ele>
        <time>2022-08-28T15:05:10Z</time>
      </trkpt>
      <trkpt lat="43.419690" lon="-3.928701">
        <ele>69.752</ele>
        <time>2022-08-28T15:05:12Z</time>
      </trkpt>
      <trkpt lat="43.419733" lon="-3.928651">
        <ele>70.018</ele>
        <time>2022-08-28T15:05:15Z</time>
      </trkpt>
      <trkpt lat="43.419785" lon="-3.928599">
        <ele>70.237</ele>
        <time>2022-08-28T15:05:18Z</time>
      </trkpt>
      <trkpt lat="43.419833" lon="-3.928546">
        <ele>70.349</ele>
        <time>2022-08-28T15:05:21Z</time>
      </trkpt>
      <trkpt lat="43.419878" lon="-3.928494">
        <ele>70.413</ele>
        <time>2022-08-28T15:05:24Z</time>
      </trkpt>
      <trkpt lat="43.419916" lon="-3.928444">
        <ele>71.009</ele>
        <time>2022-08-28T15:05:27Z</time>
      </trkpt>
      <trkpt lat="43.419954" lon="-3.928391">
        <ele>72.014</ele>
        <time>2022-08-28T15:05:30Z</time>
      </trkpt>
      <trkpt lat="43.419991" lon="-3.928341">
        <ele>72.354</ele>
        <time>2022-08-28T15:05:33Z</time>
      </trkpt>
      <trkpt lat="43.420034" lon="-3.928296">
        <ele>72.585</ele>
        <time>2022-08-28T15:05:36Z</time>
      </trkpt>
      <trkpt lat="43.420069" lon="-3.928239">
        <ele>72.594</ele>
        <time>2022-08-28T15:05:39Z</time>
      </trkpt>
      <trkpt lat="43.420112" lon="-3.928192">
        <ele>72.773</ele>
        <time>2022-08-28T15:05:42Z</time>
      </trkpt>
      <trkpt lat="43.420142" lon="-3.928139">
        <ele>73.361</ele>
        <time>2022-08-28T15:05:45Z</time>
      </trkpt>
      <trkpt lat="43.420174" lon="-3.928094">
        <ele>73.945</ele>
        <time>2022-08-28T15:05:48Z</time>
      </trkpt>
      <trkpt lat="43.420214" lon="-3.928059">
        <ele>74.274</ele>
        <time>2022-08-28T15:05:51Z</time>
      </trkpt>
      <trkpt lat="43.420254" lon="-3.928024">
        <ele>74.440</ele>
        <time>2022-08-28T15:05:54Z</time>
      </trkpt>
      <trkpt lat="43.420292" lon="-3.927989">
        <ele>74.716</ele>
        <time>2022-08-28T15:05:57Z</time>
      </trkpt>
      <trkpt lat="43.420334" lon="-3.927957">
        <ele>75.376</ele>
        <time>2022-08-28T15:06:00Z</time>
      </trkpt>
      <trkpt lat="43.420377" lon="-3.927924">
        <ele>76.613</ele>
        <time>2022-08-28T15:06:03Z</time>
      </trkpt>
      <trkpt lat="43.420420" lon="-3.927882">
        <ele>77.709</ele>
        <time>2022-08-28T15:06:06Z</time>
      </trkpt>
      <trkpt lat="43.420473" lon="-3.927852">
        <ele>78.262</ele>
        <time>2022-08-28T15:06:09Z</time>
      </trkpt>
      <trkpt lat="43.420520" lon="-3.927814">
        <ele>78.822</ele>
        <time>2022-08-28T15:06:12Z</time>
      </trkpt>
      <trkpt lat="43.420563" lon="-3.927759">
        <ele>79.023</ele>
        <time>2022-08-28T15:06:15Z</time>
      </trkpt>
      <trkpt lat="43.420613" lon="-3.927711">
        <ele>79.162</ele>
        <time>2022-08-28T15:06:18Z</time>
      </trkpt>
      <trkpt lat="43.420668" lon="-3.927661">
        <ele>79.231</ele>
        <time>2022-08-28T15:06:21Z</time>
      </trkpt>
      <trkpt lat="43.420723" lon="-3.927619">
        <ele>79.569</ele>
        <time>2022-08-28T15:06:24Z</time>
      </trkpt>
      <trkpt lat="43.420780" lon="-3.927577">
        <ele>80.343</ele>
        <time>2022-08-28T15:06:27Z</time>
      </trkpt>
      <trkpt lat="43.420832" lon="-3.927540">
        <ele>80.892</ele>
        <time>2022-08-28T15:06:30Z</time>
      </trkpt>
      <trkpt lat="43.420887" lon="-3.927503">
        <ele>81.848</ele>
        <time>2022-08-28T15:06:33Z</time>
      </trkpt>
      <trkpt lat="43.420945" lon="-3.927463">
        <ele>82.168</ele>
        <time>2022-08-28T15:06:36Z</time>
      </trkpt>
      <trkpt lat="43.420988" lon="-3.927441">
        <ele>82.342</ele>
        <time>2022-08-28T15:06:38Z</time>
      </trkpt>
      <trkpt lat="43.421031" lon="-3.927419">
        <ele>82.426</ele>
        <time>2022-08-28T15:06:40Z</time>
      </trkpt>
      <trkpt lat="43.421076" lon="-3.927402">
        <ele>82.509</ele>
        <time>2022-08-28T15:06:42Z</time>
      </trkpt>
      <trkpt lat="43.421123" lon="-3.927382">
        <ele>82.837</ele>
        <time>2022-08-28T15:06:44Z</time>
      </trkpt>
      <trkpt lat="43.421181" lon="-3.927352">
        <ele>83.827</ele>
        <time>2022-08-28T15:06:47Z</time>
      </trkpt>
      <trkpt lat="43.421236" lon="-3.927319">
        <ele>85.118</ele>
        <time>2022-08-28T15:06:50Z</time>
      </trkpt>
      <trkpt lat="43.421291" lon="-3.927286">
        <ele>87.157</ele>
        <time>2022-08-28T15:06:53Z</time>
      </trkpt>
      <trkpt lat="43.421348" lon="-3.927263">
        <ele>87.896</ele>
        <time>2022-08-28T15:06:56Z</time>
      </trkpt>
      <trkpt lat="43.421396" lon="-3.927238">
        <ele>88.294</ele>
        <time>2022-08-28T15:06:59Z</time>
      </trkpt>
      <trkpt lat="43.421453" lon="-3.927208">
        <ele>89.098</ele>
        <time>2022-08-28T15:07:02Z</time>
      </trkpt>
      <trkpt lat="43.421510" lon="-3.927173">
        <ele>89.347</ele>
        <time>2022-08-28T15:07:05Z</time>
      </trkpt>
      <trkpt lat="43.421572" lon="-3.927136">
        <ele>89.383</ele>
        <time>2022-08-28T15:07:08Z</time>
      </trkpt>
      <trkpt lat="43.421627" lon="-3.927098">
        <ele>89.334</ele>
        <time>2022-08-28T15:07:11Z</time>
      </trkpt>
      <trkpt lat="43.421682" lon="-3.927055">
        <ele>89.255</ele>
        <time>2022-08-28T15:07:14Z</time>
      </trkpt>
      <trkpt lat="43.421737" lon="-3.927002">
        <ele>89.110</ele>
        <time>2022-08-28T15:07:17Z</time>
      </trkpt>
      <trkpt lat="43.421795" lon="-3.926955">
        <ele>89.109</ele>
        <time>2022-08-28T15:07:20Z</time>
      </trkpt>
      <trkpt lat="43.421835" lon="-3.926917">
        <ele>88.924</ele>
        <time>2022-08-28T15:07:22Z</time>
      </trkpt>
      <trkpt lat="43.421872" lon="-3.926877">
        <ele>89.094</ele>
        <time>2022-08-28T15:07:24Z</time>
      </trkpt>
      <trkpt lat="43.421919" lon="-3.926814">
        <ele>89.065</ele>
        <time>2022-08-28T15:07:27Z</time>
      </trkpt>
      <trkpt lat="43.421964" lon="-3.926754">
        <ele>89.784</ele>
        <time>2022-08-28T15:07:30Z</time>
      </trkpt>
      <trkpt lat="43.421999" lon="-3.926712">
        <ele>90.243</ele>
        <time>2022-08-28T15:07:32Z</time>
      </trkpt>
      <trkpt lat="43.422042" lon="-3.926640">
        <ele>90.541</ele>
        <time>2022-08-28T15:07:35Z</time>
      </trkpt>
      <trkpt lat="43.422069" lon="-3.926590">
        <ele>90.515</ele>
        <time>2022-08-28T15:07:37Z</time>
      </trkpt>
      <trkpt lat="43.422096" lon="-3.926540">
        <ele>90.694</ele>
        <time>2022-08-28T15:07:39Z</time>
      </trkpt>
      <trkpt lat="43.422124" lon="-3.926488">
        <ele>90.860</ele>
        <time>2022-08-28T15:07:41Z</time>
      </trkpt>
      <trkpt lat="43.422146" lon="-3.926431">
        <ele>91.839</ele>
        <time>2022-08-28T15:07:43Z</time>
      </trkpt>
      <trkpt lat="43.422169" lon="-3.926374">
        <ele>92.601</ele>
        <time>2022-08-28T15:07:45Z</time>
      </trkpt>
      <trkpt lat="43.422192" lon="-3.926319">
        <ele>93.021</ele>
        <time>2022-08-28T15:07:47Z</time>
      </trkpt>
      <trkpt lat="43.422222" lon="-3.926266">
        <ele>93.109</ele>
        <time>2022-08-28T15:07:49Z</time>
      </trkpt>
      <trkpt lat="43.422249" lon="-3.926214">
        <ele>93.544</ele>
        <time>2022-08-28T15:07:51Z</time>
      </trkpt>
      <trkpt lat="43.422266" lon="-3.926154">
        <ele>93.654</ele>
        <time>2022-08-28T15:07:53Z</time>
      </trkpt>
      <trkpt lat="43.422281" lon="-3.926091">
        <ele>93.915</ele>
        <time>2022-08-28T15:07:55Z</time>
      </trkpt>
      <trkpt lat="43.422299" lon="-3.926003">
        <ele>94.254</ele>
        <time>2022-08-28T15:07:58Z</time>
      </trkpt>
      <trkpt lat="43.422307" lon="-3.925941">
        <ele>94.553</ele>
        <time>2022-08-28T15:08:00Z</time>
      </trkpt>
      <trkpt lat="43.422319" lon="-3.925874">
        <ele>94.551</ele>
        <time>2022-08-28T15:08:02Z</time>
      </trkpt>
      <trkpt lat="43.422324" lon="-3.925802">
        <ele>94.675</ele>
        <time>2022-08-28T15:08:04Z</time>
      </trkpt>
      <trkpt lat="43.422334" lon="-3.925734">
        <ele>94.874</ele>
        <time>2022-08-28T15:08:06Z</time>
      </trkpt>
      <trkpt lat="43.422347" lon="-3.925667">
        <ele>95.520</ele>
        <time>2022-08-28T15:08:08Z</time>
      </trkpt>
      <trkpt lat="43.422355" lon="-3.925602">
        <ele>96.547</ele>
        <time>2022-08-28T15:08:10Z</time>
      </trkpt>
      <trkpt lat="43.422355" lon="-3.925510">
        <ele>98.529</ele>
        <time>2022-08-28T15:08:13Z</time>
      </trkpt>
      <trkpt lat="43.422362" lon="-3.925422">
        <ele>99.721</ele>
        <time>2022-08-28T15:08:16Z</time>
      </trkpt>
      <trkpt lat="43.422367" lon="-3.925337">
        <ele>100.409</ele>
        <time>2022-08-28T15:08:19Z</time>
      </trkpt>
      <trkpt lat="43.422370" lon="-3.925242">
        <ele>100.825</ele>
        <time>2022-08-28T15:08:22Z</time>
      </trkpt>
      <trkpt lat="43.422368" lon="-3.925177">
        <ele>101.025</ele>
        <time>2022-08-28T15:08:24Z</time>
      </trkpt>
      <trkpt lat="43.422371" lon="-3.925112">
        <ele>101.196</ele>
        <time>2022-08-28T15:08:26Z</time>
      </trkpt>
      <trkpt lat="43.422371" lon="-3.925049">
        <ele>101.145</ele>
        <time>2022-08-28T15:08:28Z</time>
      </trkpt>
      <trkpt lat="43.422373" lon="-3.924984">
        <ele>101.224</ele>
        <time>2022-08-28T15:08:30Z</time>
      </trkpt>
      <trkpt lat="43.422375" lon="-3.924897">
        <ele>102.362</ele>
        <time>2022-08-28T15:08:33Z</time>
      </trkpt>
      <trkpt lat="43.422377" lon="-3.924812">
        <ele>102.966</ele>
        <time>2022-08-28T15:08:36Z</time>
      </trkpt>
      <trkpt lat="43.422379" lon="-3.924730">
        <ele>103.725</ele>
        <time>2022-08-28T15:08:39Z</time>
      </trkpt>
      <trkpt lat="43.422377" lon="-3.924638">
        <ele>104.751</ele>
        <time>2022-08-28T15:08:42Z</time>
      </trkpt>
      <trkpt lat="43.422382" lon="-3.924563">
        <ele>105.464</ele>
        <time>2022-08-28T15:08:44Z</time>
      </trkpt>
      <trkpt lat="43.422389" lon="-3.924500">
        <ele>106.506</ele>
        <time>2022-08-28T15:08:46Z</time>
      </trkpt>
      <trkpt lat="43.422391" lon="-3.924413">
        <ele>108.016</ele>
        <time>2022-08-28T15:08:49Z</time>
      </trkpt>
      <trkpt lat="43.422398" lon="-3.924338">
        <ele>109.609</ele>
        <time>2022-08-28T15:08:52Z</time>
      </trkpt>
      <trkpt lat="43.422408" lon="-3.924275">
        <ele>110.577</ele>
        <time>2022-08-28T15:08:54Z</time>
      </trkpt>
      <trkpt lat="43.422416" lon="-3.924183">
        <ele>110.867</ele>
        <time>2022-08-28T15:08:57Z</time>
      </trkpt>
      <trkpt lat="43.422424" lon="-3.924105">
        <ele>111.778</ele>
        <time>2022-08-28T15:09:00Z</time>
      </trkpt>
      <trkpt lat="43.422431" lon="-3.924037">
        <ele>111.957</ele>
        <time>2022-08-28T15:09:03Z</time>
      </trkpt>
      <trkpt lat="43.422438" lon="-3.923960">
        <ele>111.946</ele>
        <time>2022-08-28T15:09:06Z</time>
      </trkpt>
      <trkpt lat="43.422453" lon="-3.923883">
        <ele>111.984</ele>
        <time>2022-08-28T15:09:09Z</time>
      </trkpt>
      <trkpt lat="43.422465" lon="-3.923815">
        <ele>111.678</ele>
        <time>2022-08-28T15:09:12Z</time>
      </trkpt>
      <trkpt lat="43.422478" lon="-3.923742">
        <ele>111.247</ele>
        <time>2022-08-28T15:09:15Z</time>
      </trkpt>
      <trkpt lat="43.422490" lon="-3.923672">
        <ele>110.873</ele>
        <time>2022-08-28T15:09:18Z</time>
      </trkpt>
      <trkpt lat="43.422505" lon="-3.923597">
        <ele>110.723</ele>
        <time>2022-08-28T15:09:21Z</time>
      </trkpt>
      <trkpt lat="43.422522" lon="-3.923519">
        <ele>110.583</ele>
        <time>2022-08-28T15:09:24Z</time>
      </trkpt>
      <trkpt lat="43.422539" lon="-3.923457">
        <ele>110.511</ele>
        <time>2022-08-28T15:09:27Z</time>
      </trkpt>
      <trkpt lat="43.422559" lon="-3.923395">
        <ele>110.509</ele>
        <time>2022-08-28T15:09:30Z</time>
      </trkpt>
      <trkpt lat="43.422574" lon="-3.923323">
        <ele>110.683</ele>
        <time>2022-08-28T15:09:33Z</time>
      </trkpt>
      <trkpt lat="43.422596" lon="-3.923253">
        <ele>111.173</ele>
        <time>2022-08-28T15:09:36Z</time>
      </trkpt>
      <trkpt lat="43.422621" lon="-3.923171">
        <ele>111.334</ele>
        <time>2022-08-28T15:09:39Z</time>
      </trkpt>
      <trkpt lat="43.422651" lon="-3.923096">
        <ele>111.323</ele>
        <time>2022-08-28T15:09:42Z</time>
      </trkpt>
      <trkpt lat="43.422673" lon="-3.923041">
        <ele>111.452</ele>
        <time>2022-08-28T15:09:44Z</time>
      </trkpt>
      <trkpt lat="43.422705" lon="-3.922968">
        <ele>111.470</ele>
        <time>2022-08-28T15:09:47Z</time>
      </trkpt>
      <trkpt lat="43.422738" lon="-3.922895">
        <ele>111.554</ele>
        <time>2022-08-28T15:09:50Z</time>
      </trkpt>
      <trkpt lat="43.422773" lon="-3.922823">
        <ele>112.063</ele>
        <time>2022-08-28T15:09:53Z</time>
      </trkpt>
      <trkpt lat="43.422801" lon="-3.922751">
        <ele>112.769</ele>
        <time>2022-08-28T15:09:56Z</time>
      </trkpt>
      <trkpt lat="43.422838" lon="-3.922684">
        <ele>113.394</ele>
        <time>2022-08-28T15:09:59Z</time>
      </trkpt>
      <trkpt lat="43.422875" lon="-3.922624">
        <ele>113.757</ele>
        <time>2022-08-28T15:10:02Z</time>
      </trkpt>
      <trkpt lat="43.422913" lon="-3.922564">
        <ele>114.022</ele>
        <time>2022-08-28T15:10:05Z</time>
      </trkpt>
      <trkpt lat="43.422948" lon="-3.922491">
        <ele>114.509</ele>
        <time>2022-08-28T15:10:08Z</time>
      </trkpt>
      <trkpt lat="43.422981" lon="-3.922426">
        <ele>115.030</ele>
        <time>2022-08-28T15:10:11Z</time>
      </trkpt>
      <trkpt lat="43.423021" lon="-3.922373">
        <ele>115.470</ele>
        <time>2022-08-28T15:10:14Z</time>
      </trkpt>
      <trkpt lat="43.423058" lon="-3.922320">
        <ele>115.561</ele>
        <time>2022-08-28T15:10:17Z</time>
      </trkpt>
      <trkpt lat="43.423100" lon="-3.922272">
        <ele>115.680</ele>
        <time>2022-08-28T15:10:20Z</time>
      </trkpt>
      <trkpt lat="43.423138" lon="-3.922217">
        <ele>116.449</ele>
        <time>2022-08-28T15:10:23Z</time>
      </trkpt>
      <trkpt lat="43.423183" lon="-3.922165">
        <ele>116.947</ele>
        <time>2022-08-28T15:10:26Z</time>
      </trkpt>
      <trkpt lat="43.423226" lon="-3.922107">
        <ele>117.451</ele>
        <time>2022-08-28T15:10:29Z</time>
      </trkpt>
      <trkpt lat="43.423268" lon="-3.922050">
        <ele>118.030</ele>
        <time>2022-08-28T15:10:32Z</time>
      </trkpt>
      <trkpt lat="43.423313" lon="-3.922012">
        <ele>119.676</ele>
        <time>2022-08-28T15:10:35Z</time>
      </trkpt>
      <trkpt lat="43.423361" lon="-3.921974">
        <ele>120.772</ele>
        <time>2022-08-28T15:10:38Z</time>
      </trkpt>
      <trkpt lat="43.423416" lon="-3.921931">
        <ele>121.113</ele>
        <time>2022-08-28T15:10:41Z</time>
      </trkpt>
      <trkpt lat="43.423466" lon="-3.921886">
        <ele>122.014</ele>
        <time>2022-08-28T15:10:44Z</time>
      </trkpt>
      <trkpt lat="43.423516" lon="-3.921843">
        <ele>122.809</ele>
        <time>2022-08-28T15:10:47Z</time>
      </trkpt>
      <trkpt lat="43.423569" lon="-3.921803">
        <ele>122.948</ele>
        <time>2022-08-28T15:10:50Z</time>
      </trkpt>
      <trkpt lat="43.423621" lon="-3.921751">
        <ele>122.958</ele>
        <time>2022-08-28T15:10:53Z</time>
      </trkpt>
      <trkpt lat="43.423671" lon="-3.921706">
        <ele>122.849</ele>
        <time>2022-08-28T15:10:56Z</time>
      </trkpt>
      <trkpt lat="43.423716" lon="-3.921663">
        <ele>122.458</ele>
        <time>2022-08-28T15:10:59Z</time>
      </trkpt>
      <trkpt lat="43.423763" lon="-3.921610">
        <ele>121.827</ele>
        <time>2022-08-28T15:11:02Z</time>
      </trkpt>
      <trkpt lat="43.423798" lon="-3.921543">
        <ele>121.835</ele>
        <time>2022-08-28T15:11:05Z</time>
      </trkpt>
      <trkpt lat="43.423826" lon="-3.921473">
        <ele>121.869</ele>
        <time>2022-08-28T15:11:08Z</time>
      </trkpt>
      <trkpt lat="43.423853" lon="-3.921398">
        <ele>121.848</ele>
        <time>2022-08-28T15:11:11Z</time>
      </trkpt>
      <trkpt lat="43.423888" lon="-3.921351">
        <ele>121.874</ele>
        <time>2022-08-28T15:11:13Z</time>
      </trkpt>
      <trkpt lat="43.423933" lon="-3.921326">
        <ele>121.828</ele>
        <time>2022-08-28T15:11:15Z</time>
      </trkpt>
      <trkpt lat="43.423995" lon="-3.921304">
        <ele>122.089</ele>
        <time>2022-08-28T15:11:18Z</time>
      </trkpt>
      <trkpt lat="43.424057" lon="-3.921287">
        <ele>122.017</ele>
        <time>2022-08-28T15:11:21Z</time>
      </trkpt>
      <trkpt lat="43.424112" lon="-3.921275">
        <ele>122.809</ele>
        <time>2022-08-28T15:11:24Z</time>
      </trkpt>
      <trkpt lat="43.424167" lon="-3.921245">
        <ele>123.563</ele>
        <time>2022-08-28T15:11:27Z</time>
      </trkpt>
      <trkpt lat="43.424200" lon="-3.921200">
        <ele>125.053</ele>
        <time>2022-08-28T15:18:47Z</time>
      </trkpt>
      <trkpt lat="43.424252" lon="-3.921167">
        <ele>125.024</ele>
        <time>2022-08-28T15:18:50Z</time>
      </trkpt>
      <trkpt lat="43.424289" lon="-3.921130">
        <ele>125.043</ele>
        <time>2022-08-28T15:18:53Z</time>
      </trkpt>
      <trkpt lat="43.424332" lon="-3.921105">
        <ele>124.372</ele>
        <time>2022-08-28T15:18:56Z</time>
      </trkpt>
      <trkpt lat="43.424377" lon="-3.921065">
        <ele>124.350</ele>
        <time>2022-08-28T15:18:58Z</time>
      </trkpt>
      <trkpt lat="43.424442" lon="-3.921007">
        <ele>123.214</ele>
        <time>2022-08-28T15:19:00Z</time>
      </trkpt>
      <trkpt lat="43.424479" lon="-3.920964">
        <ele>123.283</ele>
        <time>2022-08-28T15:19:01Z</time>
      </trkpt>
      <trkpt lat="43.424584" lon="-3.920879">
        <ele>123.099</ele>
        <time>2022-08-28T15:19:03Z</time>
      </trkpt>
      <trkpt lat="43.424712" lon="-3.920784">
        <ele>122.287</ele>
        <time>2022-08-28T15:19:05Z</time>
      </trkpt>
      <trkpt lat="43.424844" lon="-3.920667">
        <ele>120.742</ele>
        <time>2022-08-28T15:19:07Z</time>
      </trkpt>
      <trkpt lat="43.424914" lon="-3.920605">
        <ele>119.926</ele>
        <time>2022-08-28T15:19:08Z</time>
      </trkpt>
      <trkpt lat="43.424989" lon="-3.920542">
        <ele>119.009</ele>
        <time>2022-08-28T15:19:09Z</time>
      </trkpt>
      <trkpt lat="43.425146" lon="-3.920407">
        <ele>117.389</ele>
        <time>2022-08-28T15:19:11Z</time>
      </trkpt>
      <trkpt lat="43.425319" lon="-3.920259">
        <ele>114.779</ele>
        <time>2022-08-28T15:19:13Z</time>
      </trkpt>
      <trkpt lat="43.425412" lon="-3.920179">
        <ele>113.570</ele>
        <time>2022-08-28T15:19:14Z</time>
      </trkpt>
      <trkpt lat="43.425512" lon="-3.920107">
        <ele>112.349</ele>
        <time>2022-08-28T15:19:15Z</time>
      </trkpt>
      <trkpt lat="43.425612" lon="-3.920024">
        <ele>110.688</ele>
        <time>2022-08-28T15:19:16Z</time>
      </trkpt>
      <trkpt lat="43.425712" lon="-3.919939">
        <ele>109.546</ele>
        <time>2022-08-28T15:19:17Z</time>
      </trkpt>
      <trkpt lat="43.425915" lon="-3.919766">
        <ele>107.380</ele>
        <time>2022-08-28T15:19:19Z</time>
      </trkpt>
      <trkpt lat="43.426020" lon="-3.919681">
        <ele>106.529</ele>
        <time>2022-08-28T15:19:20Z</time>
      </trkpt>
      <trkpt lat="43.426125" lon="-3.919598">
        <ele>105.585</ele>
        <time>2022-08-28T15:19:21Z</time>
      </trkpt>
      <trkpt lat="43.426327" lon="-3.919428">
        <ele>103.766</ele>
        <time>2022-08-28T15:19:23Z</time>
      </trkpt>
      <trkpt lat="43.426427" lon="-3.919346">
        <ele>103.029</ele>
        <time>2022-08-28T15:19:24Z</time>
      </trkpt>
      <trkpt lat="43.426615" lon="-3.919191">
        <ele>102.121</ele>
        <time>2022-08-28T15:19:26Z</time>
      </trkpt>
      <trkpt lat="43.426707" lon="-3.919118">
        <ele>101.709</ele>
        <time>2022-08-28T15:19:27Z</time>
      </trkpt>
      <trkpt lat="43.426899" lon="-3.918970">
        <ele>100.557</ele>
        <time>2022-08-28T15:19:29Z</time>
      </trkpt>
      <trkpt lat="43.427091" lon="-3.918818">
        <ele>99.187</ele>
        <time>2022-08-28T15:19:31Z</time>
      </trkpt>
      <trkpt lat="43.427184" lon="-3.918746">
        <ele>98.668</ele>
        <time>2022-08-28T15:19:32Z</time>
      </trkpt>
      <trkpt lat="43.427276" lon="-3.918676">
        <ele>98.297</ele>
        <time>2022-08-28T15:19:33Z</time>
      </trkpt>
      <trkpt lat="43.427451" lon="-3.918544">
        <ele>97.916</ele>
        <time>2022-08-28T15:19:35Z</time>
      </trkpt>
      <trkpt lat="43.427609" lon="-3.918426">
        <ele>98.164</ele>
        <time>2022-08-28T15:19:37Z</time>
      </trkpt>
      <trkpt lat="43.427766" lon="-3.918331">
        <ele>97.918</ele>
        <time>2022-08-28T15:19:39Z</time>
      </trkpt>
      <trkpt lat="43.427928" lon="-3.918258">
        <ele>97.797</ele>
        <time>2022-08-28T15:19:41Z</time>
      </trkpt>
      <trkpt lat="43.428081" lon="-3.918195">
        <ele>97.253</ele>
        <time>2022-08-28T15:19:43Z</time>
      </trkpt>
      <trkpt lat="43.428224" lon="-3.918137">
        <ele>97.392</ele>
        <time>2022-08-28T15:19:45Z</time>
      </trkpt>
      <trkpt lat="43.428361" lon="-3.918077">
        <ele>97.673</ele>
        <time>2022-08-28T15:19:47Z</time>
      </trkpt>
      <trkpt lat="43.428429" lon="-3.918055">
        <ele>97.720</ele>
        <time>2022-08-28T15:19:48Z</time>
      </trkpt>
      <trkpt lat="43.428496" lon="-3.918035">
        <ele>97.709</ele>
        <time>2022-08-28T15:19:49Z</time>
      </trkpt>
      <trkpt lat="43.428634" lon="-3.917990">
        <ele>97.790</ele>
        <time>2022-08-28T15:19:51Z</time>
      </trkpt>
      <trkpt lat="43.428772" lon="-3.917937">
        <ele>97.110</ele>
        <time>2022-08-28T15:19:53Z</time>
      </trkpt>
      <trkpt lat="43.428850" lon="-3.917910">
        <ele>96.711</ele>
        <time>2022-08-28T15:19:54Z</time>
      </trkpt>
      <trkpt lat="43.429015" lon="-3.917847">
        <ele>96.060</ele>
        <time>2022-08-28T15:19:56Z</time>
      </trkpt>
      <trkpt lat="43.429100" lon="-3.917814">
        <ele>95.419</ele>
        <time>2022-08-28T15:19:57Z</time>
      </trkpt>
      <trkpt lat="43.429273" lon="-3.917741">
        <ele>93.997</ele>
        <time>2022-08-28T15:19:59Z</time>
      </trkpt>
      <trkpt lat="43.429453" lon="-3.917656">
        <ele>91.941</ele>
        <time>2022-08-28T15:20:01Z</time>
      </trkpt>
      <trkpt lat="43.429630" lon="-3.917559">
        <ele>90.590</ele>
        <time>2022-08-28T15:20:03Z</time>
      </trkpt>
      <trkpt lat="43.429792" lon="-3.917467">
        <ele>88.436</ele>
        <time>2022-08-28T15:20:05Z</time>
      </trkpt>
      <trkpt lat="43.429945" lon="-3.917380">
        <ele>86.847</ele>
        <time>2022-08-28T15:20:07Z</time>
      </trkpt>
      <trkpt lat="43.430017" lon="-3.917338">
        <ele>85.629</ele>
        <time>2022-08-28T15:20:08Z</time>
      </trkpt>
      <trkpt lat="43.430159" lon="-3.917258">
        <ele>83.321</ele>
        <time>2022-08-28T15:20:10Z</time>
      </trkpt>
      <trkpt lat="43.430227" lon="-3.917221">
        <ele>82.309</ele>
        <time>2022-08-28T15:20:11Z</time>
      </trkpt>
      <trkpt lat="43.430290" lon="-3.917183">
        <ele>81.485</ele>
        <time>2022-08-28T15:20:12Z</time>
      </trkpt>
      <trkpt lat="43.430412" lon="-3.917115">
        <ele>79.785</ele>
        <time>2022-08-28T15:20:14Z</time>
      </trkpt>
      <trkpt lat="43.430467" lon="-3.917083">
        <ele>79.156</ele>
        <time>2022-08-28T15:20:15Z</time>
      </trkpt>
      <trkpt lat="43.430515" lon="-3.917053">
        <ele>78.865</ele>
        <time>2022-08-28T15:20:16Z</time>
      </trkpt>
      <trkpt lat="43.430607" lon="-3.917000">
        <ele>77.444</ele>
        <time>2022-08-28T15:20:18Z</time>
      </trkpt>
      <trkpt lat="43.430649" lon="-3.916973">
        <ele>76.812</ele>
        <time>2022-08-28T15:20:19Z</time>
      </trkpt>
      <trkpt lat="43.430726" lon="-3.916920">
        <ele>75.916</ele>
        <time>2022-08-28T15:20:21Z</time>
      </trkpt>
      <trkpt lat="43.430786" lon="-3.916872">
        <ele>75.155</ele>
        <time>2022-08-28T15:20:23Z</time>
      </trkpt>
      <trkpt lat="43.430828" lon="-3.916830">
        <ele>74.081</ele>
        <time>2022-08-28T15:20:25Z</time>
      </trkpt>
      <trkpt lat="43.430875" lon="-3.916770">
        <ele>72.985</ele>
        <time>2022-08-28T15:20:28Z</time>
      </trkpt>
      <trkpt lat="43.430922" lon="-3.916712">
        <ele>72.189</ele>
        <time>2022-08-28T15:20:32Z</time>
      </trkpt>
      <trkpt lat="43.430975" lon="-3.916670">
        <ele>71.517</ele>
        <time>2022-08-28T15:20:34Z</time>
      </trkpt>
      <trkpt lat="43.431040" lon="-3.916632">
        <ele>71.309</ele>
        <time>2022-08-28T15:20:36Z</time>
      </trkpt>
      <trkpt lat="43.431095" lon="-3.916575">
        <ele>71.049</ele>
        <time>2022-08-28T15:20:38Z</time>
      </trkpt>
      <trkpt lat="43.431158" lon="-3.916493">
        <ele>70.949</ele>
        <time>2022-08-28T15:20:40Z</time>
      </trkpt>
      <trkpt lat="43.431231" lon="-3.916396">
        <ele>70.340</ele>
        <time>2022-08-28T15:20:42Z</time>
      </trkpt>
      <trkpt lat="43.431269" lon="-3.916341">
        <ele>70.399</ele>
        <time>2022-08-28T15:20:43Z</time>
      </trkpt>
      <trkpt lat="43.431349" lon="-3.916231">
        <ele>69.878</ele>
        <time>2022-08-28T15:20:45Z</time>
      </trkpt>
      <trkpt lat="43.431386" lon="-3.916171">
        <ele>69.716</ele>
        <time>2022-08-28T15:20:46Z</time>
      </trkpt>
      <trkpt lat="43.431463" lon="-3.916058">
        <ele>69.320</ele>
        <time>2022-08-28T15:20:48Z</time>
      </trkpt>
      <trkpt lat="43.431536" lon="-3.915946">
        <ele>69.329</ele>
        <time>2022-08-28T15:20:50Z</time>
      </trkpt>
      <trkpt lat="43.431606" lon="-3.915833">
        <ele>69.615</ele>
        <time>2022-08-28T15:20:52Z</time>
      </trkpt>
      <trkpt lat="43.431669" lon="-3.915726">
        <ele>69.856</ele>
        <time>2022-08-28T15:20:54Z</time>
      </trkpt>
      <trkpt lat="43.431699" lon="-3.915674">
        <ele>70.159</ele>
        <time>2022-08-28T15:20:55Z</time>
      </trkpt>
      <trkpt lat="43.431759" lon="-3.915577">
        <ele>70.814</ele>
        <time>2022-08-28T15:20:57Z</time>
      </trkpt>
      <trkpt lat="43.431819" lon="-3.915482">
        <ele>71.109</ele>
        <time>2022-08-28T15:20:59Z</time>
      </trkpt>
      <trkpt lat="43.431849" lon="-3.915434">
        <ele>71.326</ele>
        <time>2022-08-28T15:21:00Z</time>
      </trkpt>
      <trkpt lat="43.431904" lon="-3.915332">
        <ele>71.586</ele>
        <time>2022-08-28T15:21:02Z</time>
      </trkpt>
      <trkpt lat="43.431962" lon="-3.915219">
        <ele>71.547</ele>
        <time>2022-08-28T15:21:04Z</time>
      </trkpt>
      <trkpt lat="43.431992" lon="-3.915159">
        <ele>71.516</ele>
        <time>2022-08-28T15:21:05Z</time>
      </trkpt>
      <trkpt lat="43.432022" lon="-3.915104">
        <ele>71.535</ele>
        <time>2022-08-28T15:21:06Z</time>
      </trkpt>
      <trkpt lat="43.432082" lon="-3.914991">
        <ele>71.543</ele>
        <time>2022-08-28T15:21:08Z</time>
      </trkpt>
      <trkpt lat="43.432112" lon="-3.914938">
        <ele>71.567</ele>
        <time>2022-08-28T15:21:09Z</time>
      </trkpt>
      <trkpt lat="43.432170" lon="-3.914826">
        <ele>71.476</ele>
        <time>2022-08-28T15:21:11Z</time>
      </trkpt>
      <trkpt lat="43.432230" lon="-3.914716">
        <ele>71.232</ele>
        <time>2022-08-28T15:21:13Z</time>
      </trkpt>
      <trkpt lat="43.432288" lon="-3.914606">
        <ele>71.234</ele>
        <time>2022-08-28T15:21:15Z</time>
      </trkpt>
      <trkpt lat="43.432346" lon="-3.914493">
        <ele>71.255</ele>
        <time>2022-08-28T15:21:17Z</time>
      </trkpt>
      <trkpt lat="43.432406" lon="-3.914383">
        <ele>71.310</ele>
        <time>2022-08-28T15:21:19Z</time>
      </trkpt>
      <trkpt lat="43.432436" lon="-3.914331">
        <ele>71.309</ele>
        <time>2022-08-28T15:21:20Z</time>
      </trkpt>
      <trkpt lat="43.432494" lon="-3.914234">
        <ele>71.484</ele>
        <time>2022-08-28T15:21:22Z</time>
      </trkpt>
      <trkpt lat="43.432521" lon="-3.914184">
        <ele>71.584</ele>
        <time>2022-08-28T15:21:23Z</time>
      </trkpt>
      <trkpt lat="43.432571" lon="-3.914087">
        <ele>71.885</ele>
        <time>2022-08-28T15:21:25Z</time>
      </trkpt>
      <trkpt lat="43.432619" lon="-3.914004">
        <ele>72.484</ele>
        <time>2022-08-28T15:21:27Z</time>
      </trkpt>
      <trkpt lat="43.432664" lon="-3.913926">
        <ele>73.013</ele>
        <time>2022-08-28T15:21:29Z</time>
      </trkpt>
      <trkpt lat="43.432711" lon="-3.913848">
        <ele>73.551</ele>
        <time>2022-08-28T15:21:31Z</time>
      </trkpt>
      <trkpt lat="43.432753" lon="-3.913768">
        <ele>73.915</ele>
        <time>2022-08-28T15:21:33Z</time>
      </trkpt>
      <trkpt lat="43.432793" lon="-3.913693">
        <ele>74.294</ele>
        <time>2022-08-28T15:21:35Z</time>
      </trkpt>
      <trkpt lat="43.432841" lon="-3.913626">
        <ele>74.610</ele>
        <time>2022-08-28T15:21:37Z</time>
      </trkpt>
      <trkpt lat="43.432881" lon="-3.913561">
        <ele>74.629</ele>
        <time>2022-08-28T15:21:39Z</time>
      </trkpt>
      <trkpt lat="43.432926" lon="-3.913518">
        <ele>74.600</ele>
        <time>2022-08-28T15:21:41Z</time>
      </trkpt>
      <trkpt lat="43.432971" lon="-3.913485">
        <ele>74.620</ele>
        <time>2022-08-28T15:21:43Z</time>
      </trkpt>
      <trkpt lat="43.433023" lon="-3.913442">
        <ele>74.609</ele>
        <time>2022-08-28T15:21:45Z</time>
      </trkpt>
      <trkpt lat="43.433086" lon="-3.913450">
        <ele>74.633</ele>
        <time>2022-08-28T15:21:47Z</time>
      </trkpt>
      <trkpt lat="43.433134" lon="-3.913497">
        <ele>74.673</ele>
        <time>2022-08-28T15:21:49Z</time>
      </trkpt>
      <trkpt lat="43.433169" lon="-3.913549">
        <ele>74.634</ele>
        <time>2022-08-28T15:21:51Z</time>
      </trkpt>
      <trkpt lat="43.433214" lon="-3.913604">
        <ele>74.413</ele>
        <time>2022-08-28T15:21:53Z</time>
      </trkpt>
      <trkpt lat="43.433274" lon="-3.913654">
        <ele>74.252</ele>
        <time>2022-08-28T15:21:55Z</time>
      </trkpt>
      <trkpt lat="43.433342" lon="-3.913702">
        <ele>74.180</ele>
        <time>2022-08-28T15:21:57Z</time>
      </trkpt>
      <trkpt lat="43.433397" lon="-3.913755">
        <ele>73.784</ele>
        <time>2022-08-28T15:21:59Z</time>
      </trkpt>
      <trkpt lat="43.433447" lon="-3.913813">
        <ele>73.133</ele>
        <time>2022-08-28T15:22:01Z</time>
      </trkpt>
      <trkpt lat="43.433497" lon="-3.913858">
        <ele>72.849</ele>
        <time>2022-08-28T15:22:03Z</time>
      </trkpt>
      <trkpt lat="43.433547" lon="-3.913905">
        <ele>72.864</ele>
        <time>2022-08-28T15:22:05Z</time>
      </trkpt>
      <trkpt lat="43.433595" lon="-3.913953">
        <ele>72.506</ele>
        <time>2022-08-28T15:22:07Z</time>
      </trkpt>
      <trkpt lat="43.433635" lon="-3.914005">
        <ele>72.016</ele>
        <time>2022-08-28T15:22:09Z</time>
      </trkpt>
      <trkpt lat="43.433637" lon="-3.914077">
        <ele>70.809</ele>
        <time>2022-08-28T15:22:12Z</time>
      </trkpt>
      <trkpt lat="43.433589" lon="-3.914090">
        <ele>69.887</ele>
        <time>2022-08-28T15:22:14Z</time>
      </trkpt>
      <trkpt lat="43.433539" lon="-3.914075">
        <ele>68.967</ele>
        <time>2022-08-28T15:22:16Z</time>
      </trkpt>
      <trkpt lat="43.433494" lon="-3.914060">
        <ele>68.638</ele>
        <time>2022-08-28T15:22:18Z</time>
      </trkpt>
      <trkpt lat="43.433449" lon="-3.914037">
        <ele>68.767</ele>
        <time>2022-08-28T15:22:20Z</time>
      </trkpt>
      <trkpt lat="43.433406" lon="-3.914012">
        <ele>68.776</ele>
        <time>2022-08-28T15:22:22Z</time>
      </trkpt>
      <trkpt lat="43.433359" lon="-3.913990">
        <ele>68.784</ele>
        <time>2022-08-28T15:22:24Z</time>
      </trkpt>
      <trkpt lat="43.433306" lon="-3.913965">
        <ele>70.878</ele>
        <time>2022-08-28T15:22:26Z</time>
      </trkpt>
      <trkpt lat="43.433253" lon="-3.913937">
        <ele>73.037</ele>
        <time>2022-08-28T15:22:28Z</time>
      </trkpt>
      <trkpt lat="43.433205" lon="-3.913905">
        <ele>74.043</ele>
        <time>2022-08-28T15:22:30Z</time>
      </trkpt>
      <trkpt lat="43.433160" lon="-3.913882">
        <ele>75.088</ele>
        <time>2022-08-28T15:22:32Z</time>
      </trkpt>
      <trkpt lat="43.433110" lon="-3.913874">
        <ele>76.024</ele>
        <time>2022-08-28T15:22:35Z</time>
      </trkpt>
      <trkpt lat="43.433000" lon="-3.913891">
        <ele>74.426</ele>
        <time>2022-08-28T15:23:38Z</time>
      </trkpt>
      <trkpt lat="43.432957" lon="-3.913944">
        <ele>74.409</ele>
        <time>2022-08-28T15:23:41Z</time>
      </trkpt>
      <trkpt lat="43.432904" lon="-3.913952">
        <ele>74.429</ele>
        <time>2022-08-28T15:23:43Z</time>
      </trkpt>
      <trkpt lat="43.432856" lon="-3.913947">
        <ele>74.459</ele>
        <time>2022-08-28T15:23:45Z</time>
      </trkpt>
      <trkpt lat="43.432804" lon="-3.913920">
        <ele>77.240</ele>
        <time>2022-08-28T15:23:48Z</time>
      </trkpt>
      <trkpt lat="43.432806" lon="-3.913830">
        <ele>77.719</ele>
        <time>2022-08-28T15:23:51Z</time>
      </trkpt>
      <trkpt lat="43.432826" lon="-3.913762">
        <ele>78.148</ele>
        <time>2022-08-28T15:23:53Z</time>
      </trkpt>
      <trkpt lat="43.432853" lon="-3.913682">
        <ele>78.196</ele>
        <time>2022-08-28T15:23:55Z</time>
      </trkpt>
      <trkpt lat="43.432875" lon="-3.913604">
        <ele>78.210</ele>
        <time>2022-08-28T15:23:57Z</time>
      </trkpt>
      <trkpt lat="43.432913" lon="-3.913522">
        <ele>77.759</ele>
        <time>2022-08-28T15:23:59Z</time>
      </trkpt>
      <trkpt lat="43.432955" lon="-3.913445">
        <ele>76.555</ele>
        <time>2022-08-28T15:24:01Z</time>
      </trkpt>
      <trkpt lat="43.433007" lon="-3.913353">
        <ele>75.828</ele>
        <time>2022-08-28T15:24:03Z</time>
      </trkpt>
      <trkpt lat="43.433064" lon="-3.913246">
        <ele>74.489</ele>
        <time>2022-08-28T15:24:05Z</time>
      </trkpt>
      <trkpt lat="43.433127" lon="-3.913126">
        <ele>73.317</ele>
        <time>2022-08-28T15:24:07Z</time>
      </trkpt>
      <trkpt lat="43.433160" lon="-3.913061">
        <ele>72.709</ele>
        <time>2022-08-28T15:24:08Z</time>
      </trkpt>
      <trkpt lat="43.433233" lon="-3.912921">
        <ele>71.793</ele>
        <time>2022-08-28T15:24:10Z</time>
      </trkpt>
      <trkpt lat="43.433318" lon="-3.912773">
        <ele>70.833</ele>
        <time>2022-08-28T15:24:12Z</time>
      </trkpt>
      <trkpt lat="43.433360" lon="-3.912691">
        <ele>70.344</ele>
        <time>2022-08-28T15:24:13Z</time>
      </trkpt>
      <trkpt lat="43.433448" lon="-3.912519">
        <ele>69.183</ele>
        <time>2022-08-28T15:24:15Z</time>
      </trkpt>
      <trkpt lat="43.433548" lon="-3.912332">
        <ele>68.442</ele>
        <time>2022-08-28T15:24:17Z</time>
      </trkpt>
      <trkpt lat="43.433663" lon="-3.912132">
        <ele>67.670</ele>
        <time>2022-08-28T15:24:19Z</time>
      </trkpt>
      <trkpt lat="43.433721" lon="-3.912032">
        <ele>67.134</ele>
        <time>2022-08-28T15:24:20Z</time>
      </trkpt>
      <trkpt lat="43.433843" lon="-3.911814">
        <ele>66.363</ele>
        <time>2022-08-28T15:24:22Z</time>
      </trkpt>
      <trkpt lat="43.433908" lon="-3.911699">
        <ele>65.989</ele>
        <time>2022-08-28T15:24:23Z</time>
      </trkpt>
      <trkpt lat="43.434040" lon="-3.911467">
        <ele>64.841</ele>
        <time>2022-08-28T15:24:25Z</time>
      </trkpt>
      <trkpt lat="43.434185" lon="-3.911227">
        <ele>64.281</ele>
        <time>2022-08-28T15:24:27Z</time>
      </trkpt>
      <trkpt lat="43.434257" lon="-3.911102">
        <ele>64.009</ele>
        <time>2022-08-28T15:24:28Z</time>
      </trkpt>
      <trkpt lat="43.434395" lon="-3.910842">
        <ele>63.109</ele>
        <time>2022-08-28T15:24:30Z</time>
      </trkpt>
      <trkpt lat="43.434530" lon="-3.910584">
        <ele>61.925</ele>
        <time>2022-08-28T15:24:32Z</time>
      </trkpt>
      <trkpt lat="43.434595" lon="-3.910461">
        <ele>61.365</ele>
        <time>2022-08-28T15:24:33Z</time>
      </trkpt>
      <trkpt lat="43.434723" lon="-3.910213">
        <ele>60.126</ele>
        <time>2022-08-28T15:24:35Z</time>
      </trkpt>
      <trkpt lat="43.434788" lon="-3.910088">
        <ele>59.855</ele>
        <time>2022-08-28T15:24:36Z</time>
      </trkpt>
      <trkpt lat="43.434915" lon="-3.909840">
        <ele>59.064</ele>
        <time>2022-08-28T15:24:38Z</time>
      </trkpt>
      <trkpt lat="43.434978" lon="-3.909718">
        <ele>58.532</ele>
        <time>2022-08-28T15:24:39Z</time>
      </trkpt>
      <trkpt lat="43.435101" lon="-3.909480">
        <ele>57.576</ele>
        <time>2022-08-28T15:24:41Z</time>
      </trkpt>
      <trkpt lat="43.435163" lon="-3.909368">
        <ele>57.135</ele>
        <time>2022-08-28T15:24:42Z</time>
      </trkpt>
      <trkpt lat="43.435286" lon="-3.909161">
        <ele>56.791</ele>
        <time>2022-08-28T15:24:44Z</time>
      </trkpt>
      <trkpt lat="43.435398" lon="-3.908963">
        <ele>56.059</ele>
        <time>2022-08-28T15:24:46Z</time>
      </trkpt>
      <trkpt lat="43.435501" lon="-3.908763">
        <ele>55.203</ele>
        <time>2022-08-28T15:24:48Z</time>
      </trkpt>
      <trkpt lat="43.435603" lon="-3.908558">
        <ele>54.223</ele>
        <time>2022-08-28T15:24:50Z</time>
      </trkpt>
      <trkpt lat="43.435653" lon="-3.908453">
        <ele>53.709</ele>
        <time>2022-08-28T15:24:51Z</time>
      </trkpt>
      <trkpt lat="43.435750" lon="-3.908251">
        <ele>52.456</ele>
        <time>2022-08-28T15:24:53Z</time>
      </trkpt>
      <trkpt lat="43.435838" lon="-3.908059">
        <ele>51.926</ele>
        <time>2022-08-28T15:24:55Z</time>
      </trkpt>
      <trkpt lat="43.435918" lon="-3.907877">
        <ele>51.297</ele>
        <time>2022-08-28T15:24:57Z</time>
      </trkpt>
      <trkpt lat="43.435996" lon="-3.907709">
        <ele>50.676</ele>
        <time>2022-08-28T15:24:59Z</time>
      </trkpt>
      <trkpt lat="43.436033" lon="-3.907629">
        <ele>50.445</ele>
        <time>2022-08-28T15:25:00Z</time>
      </trkpt>
      <trkpt lat="43.436066" lon="-3.907552">
        <ele>50.493</ele>
        <time>2022-08-28T15:25:01Z</time>
      </trkpt>
      <trkpt lat="43.436123" lon="-3.907405">
        <ele>50.547</ele>
        <time>2022-08-28T15:25:03Z</time>
      </trkpt>
      <trkpt lat="43.436151" lon="-3.907332">
        <ele>50.746</ele>
        <time>2022-08-28T15:25:04Z</time>
      </trkpt>
      <trkpt lat="43.436203" lon="-3.907179">
        <ele>51.142</ele>
        <time>2022-08-28T15:25:06Z</time>
      </trkpt>
      <trkpt lat="43.436238" lon="-3.907006">
        <ele>51.451</ele>
        <time>2022-08-28T15:25:08Z</time>
      </trkpt>
      <trkpt lat="43.436256" lon="-3.906918">
        <ele>51.401</ele>
        <time>2022-08-28T15:25:09Z</time>
      </trkpt>
      <trkpt lat="43.436306" lon="-3.906738">
        <ele>51.111</ele>
        <time>2022-08-28T15:25:11Z</time>
      </trkpt>
      <trkpt lat="43.436329" lon="-3.906641">
        <ele>50.509</ele>
        <time>2022-08-28T15:25:12Z</time>
      </trkpt>
      <trkpt lat="43.436367" lon="-3.906439">
        <ele>49.886</ele>
        <time>2022-08-28T15:25:14Z</time>
      </trkpt>
      <trkpt lat="43.436387" lon="-3.906332">
        <ele>49.266</ele>
        <time>2022-08-28T15:25:15Z</time>
      </trkpt>
      <trkpt lat="43.436429" lon="-3.906107">
        <ele>48.097</ele>
        <time>2022-08-28T15:25:17Z</time>
      </trkpt>
      <trkpt lat="43.436452" lon="-3.905994">
        <ele>47.546</ele>
        <time>2022-08-28T15:25:18Z</time>
      </trkpt>
      <trkpt lat="43.436494" lon="-3.905762">
        <ele>46.835</ele>
        <time>2022-08-28T15:25:20Z</time>
      </trkpt>
      <trkpt lat="43.436516" lon="-3.905647">
        <ele>46.753</ele>
        <time>2022-08-28T15:25:21Z</time>
      </trkpt>
      <trkpt lat="43.436559" lon="-3.905417">
        <ele>46.277</ele>
        <time>2022-08-28T15:25:23Z</time>
      </trkpt>
      <trkpt lat="43.436582" lon="-3.905302">
        <ele>46.086</ele>
        <time>2022-08-28T15:25:24Z</time>
      </trkpt>
      <trkpt lat="43.436630" lon="-3.905070">
        <ele>45.462</ele>
        <time>2022-08-28T15:25:26Z</time>
      </trkpt>
      <trkpt lat="43.436655" lon="-3.904957">
        <ele>45.391</ele>
        <time>2022-08-28T15:25:27Z</time>
      </trkpt>
      <trkpt lat="43.436678" lon="-3.904844">
        <ele>45.181</ele>
        <time>2022-08-28T15:25:28Z</time>
      </trkpt>
      <trkpt lat="43.436726" lon="-3.904619">
        <ele>44.719</ele>
        <time>2022-08-28T15:25:30Z</time>
      </trkpt>
      <trkpt lat="43.436749" lon="-3.904509">
        <ele>44.509</ele>
        <time>2022-08-28T15:25:31Z</time>
      </trkpt>
      <trkpt lat="43.436797" lon="-3.904286">
        <ele>44.370</ele>
        <time>2022-08-28T15:25:33Z</time>
      </trkpt>
      <trkpt lat="43.436854" lon="-3.904081">
        <ele>43.810</ele>
        <time>2022-08-28T15:25:35Z</time>
      </trkpt>
      <trkpt lat="43.436901" lon="-3.903873">
        <ele>43.341</ele>
        <time>2022-08-28T15:25:37Z</time>
      </trkpt>
      <trkpt lat="43.436921" lon="-3.903768">
        <ele>43.280</ele>
        <time>2022-08-28T15:25:38Z</time>
      </trkpt>
      <trkpt lat="43.436973" lon="-3.903558">
        <ele>43.299</ele>
        <time>2022-08-28T15:25:40Z</time>
      </trkpt>
      <trkpt lat="43.436996" lon="-3.903451">
        <ele>43.277</ele>
        <time>2022-08-28T15:25:41Z</time>
      </trkpt>
      <trkpt lat="43.437034" lon="-3.903243">
        <ele>43.321</ele>
        <time>2022-08-28T15:25:43Z</time>
      </trkpt>
      <trkpt lat="43.437077" lon="-3.903043">
        <ele>43.370</ele>
        <time>2022-08-28T15:25:45Z</time>
      </trkpt>
      <trkpt lat="43.437097" lon="-3.902946">
        <ele>43.316</ele>
        <time>2022-08-28T15:25:46Z</time>
      </trkpt>
      <trkpt lat="43.437147" lon="-3.902758">
        <ele>43.316</ele>
        <time>2022-08-28T15:25:48Z</time>
      </trkpt>
      <trkpt lat="43.437169" lon="-3.902665">
        <ele>43.476</ele>
        <time>2022-08-28T15:25:49Z</time>
      </trkpt>
      <trkpt lat="43.437211" lon="-3.902480">
        <ele>43.813</ele>
        <time>2022-08-28T15:25:51Z</time>
      </trkpt>
      <trkpt lat="43.437254" lon="-3.902292">
        <ele>43.909</ele>
        <time>2022-08-28T15:25:53Z</time>
      </trkpt>
      <trkpt lat="43.437276" lon="-3.902199">
        <ele>44.052</ele>
        <time>2022-08-28T15:25:54Z</time>
      </trkpt>
      <trkpt lat="43.437294" lon="-3.902106">
        <ele>44.262</ele>
        <time>2022-08-28T15:25:55Z</time>
      </trkpt>
      <trkpt lat="43.437312" lon="-3.902016">
        <ele>44.513</ele>
        <time>2022-08-28T15:25:56Z</time>
      </trkpt>
      <trkpt lat="43.437354" lon="-3.901848">
        <ele>45.052</ele>
        <time>2022-08-28T15:25:58Z</time>
      </trkpt>
      <trkpt lat="43.437372" lon="-3.901765">
        <ele>45.091</ele>
        <time>2022-08-28T15:25:59Z</time>
      </trkpt>
      <trkpt lat="43.437412" lon="-3.901602">
        <ele>45.099</ele>
        <time>2022-08-28T15:26:01Z</time>
      </trkpt>
      <trkpt lat="43.437432" lon="-3.901519">
        <ele>44.473</ele>
        <time>2022-08-28T15:26:02Z</time>
      </trkpt>
      <trkpt lat="43.437464" lon="-3.901351">
        <ele>44.372</ele>
        <time>2022-08-28T15:26:04Z</time>
      </trkpt>
      <trkpt lat="43.437484" lon="-3.901268">
        <ele>44.348</ele>
        <time>2022-08-28T15:26:05Z</time>
      </trkpt>
      <trkpt lat="43.437524" lon="-3.901100">
        <ele>44.333</ele>
        <time>2022-08-28T15:26:07Z</time>
      </trkpt>
      <trkpt lat="43.437542" lon="-3.901015">
        <ele>44.423</ele>
        <time>2022-08-28T15:26:08Z</time>
      </trkpt>
      <trkpt lat="43.437577" lon="-3.900848">
        <ele>44.415</ele>
        <time>2022-08-28T15:26:10Z</time>
      </trkpt>
      <trkpt lat="43.437599" lon="-3.900763">
        <ele>44.209</ele>
        <time>2022-08-28T15:26:11Z</time>
      </trkpt>
      <trkpt lat="43.437641" lon="-3.900586">
        <ele>43.414</ele>
        <time>2022-08-28T15:26:13Z</time>
      </trkpt>
      <trkpt lat="43.437678" lon="-3.900403">
        <ele>42.954</ele>
        <time>2022-08-28T15:26:15Z</time>
      </trkpt>
      <trkpt lat="43.437698" lon="-3.900310">
        <ele>42.415</ele>
        <time>2022-08-28T15:26:16Z</time>
      </trkpt>
      <trkpt lat="43.437716" lon="-3.900215">
        <ele>42.124</ele>
        <time>2022-08-28T15:26:17Z</time>
      </trkpt>
      <trkpt lat="43.437746" lon="-3.900013">
        <ele>42.073</ele>
        <time>2022-08-28T15:26:19Z</time>
      </trkpt>
      <trkpt lat="43.437756" lon="-3.899915">
        <ele>41.931</ele>
        <time>2022-08-28T15:26:20Z</time>
      </trkpt>
      <trkpt lat="43.437766" lon="-3.899817">
        <ele>41.815</ele>
        <time>2022-08-28T15:26:21Z</time>
      </trkpt>
      <trkpt lat="43.437771" lon="-3.899719">
        <ele>41.734</ele>
        <time>2022-08-28T15:26:22Z</time>
      </trkpt>
      <trkpt lat="43.437773" lon="-3.899524">
        <ele>41.650</ele>
        <time>2022-08-28T15:26:24Z</time>
      </trkpt>
      <trkpt lat="43.437775" lon="-3.899339">
        <ele>41.664</ele>
        <time>2022-08-28T15:26:26Z</time>
      </trkpt>
      <trkpt lat="43.437773" lon="-3.899249">
        <ele>41.706</ele>
        <time>2022-08-28T15:26:27Z</time>
      </trkpt>
      <trkpt lat="43.437775" lon="-3.899087">
        <ele>42.016</ele>
        <time>2022-08-28T15:26:29Z</time>
      </trkpt>
      <trkpt lat="43.437772" lon="-3.899007">
        <ele>42.009</ele>
        <time>2022-08-28T15:26:30Z</time>
      </trkpt>
      <trkpt lat="43.437762" lon="-3.898862">
        <ele>42.217</ele>
        <time>2022-08-28T15:26:32Z</time>
      </trkpt>
      <trkpt lat="43.437752" lon="-3.898732">
        <ele>42.257</ele>
        <time>2022-08-28T15:26:34Z</time>
      </trkpt>
      <trkpt lat="43.437750" lon="-3.898667">
        <ele>42.278</ele>
        <time>2022-08-28T15:26:35Z</time>
      </trkpt>
      <trkpt lat="43.437745" lon="-3.898602">
        <ele>42.327</ele>
        <time>2022-08-28T15:26:36Z</time>
      </trkpt>
      <trkpt lat="43.437742" lon="-3.898465">
        <ele>42.426</ele>
        <time>2022-08-28T15:26:38Z</time>
      </trkpt>
      <trkpt lat="43.437742" lon="-3.898393">
        <ele>42.444</ele>
        <time>2022-08-28T15:26:39Z</time>
      </trkpt>
      <trkpt lat="43.437740" lon="-3.898323">
        <ele>42.538</ele>
        <time>2022-08-28T15:26:40Z</time>
      </trkpt>
      <trkpt lat="43.437738" lon="-3.898250">
        <ele>42.747</ele>
        <time>2022-08-28T15:26:41Z</time>
      </trkpt>
      <trkpt lat="43.437733" lon="-3.898103">
        <ele>43.253</ele>
        <time>2022-08-28T15:26:43Z</time>
      </trkpt>
      <trkpt lat="43.437730" lon="-3.898030">
        <ele>43.594</ele>
        <time>2022-08-28T15:26:44Z</time>
      </trkpt>
      <trkpt lat="43.437725" lon="-3.897955">
        <ele>43.657</ele>
        <time>2022-08-28T15:26:45Z</time>
      </trkpt>
      <trkpt lat="43.437718" lon="-3.897798">
        <ele>43.922</ele>
        <time>2022-08-28T15:26:47Z</time>
      </trkpt>
      <trkpt lat="43.437715" lon="-3.897636">
        <ele>44.009</ele>
        <time>2022-08-28T15:26:49Z</time>
      </trkpt>
      <trkpt lat="43.437712" lon="-3.897554">
        <ele>44.190</ele>
        <time>2022-08-28T15:26:50Z</time>
      </trkpt>
      <trkpt lat="43.437707" lon="-3.897387">
        <ele>44.340</ele>
        <time>2022-08-28T15:26:52Z</time>
      </trkpt>
      <trkpt lat="43.437707" lon="-3.897220">
        <ele>44.571</ele>
        <time>2022-08-28T15:26:54Z</time>
      </trkpt>
      <trkpt lat="43.437704" lon="-3.897137">
        <ele>44.540</ele>
        <time>2022-08-28T15:26:55Z</time>
      </trkpt>
      <trkpt lat="43.437697" lon="-3.896974">
        <ele>44.419</ele>
        <time>2022-08-28T15:26:57Z</time>
      </trkpt>
      <trkpt lat="43.437692" lon="-3.896804">
        <ele>44.237</ele>
        <time>2022-08-28T15:26:59Z</time>
      </trkpt>
      <trkpt lat="43.437690" lon="-3.896721">
        <ele>44.281</ele>
        <time>2022-08-28T15:27:00Z</time>
      </trkpt>
      <trkpt lat="43.437688" lon="-3.896641">
        <ele>44.190</ele>
        <time>2022-08-28T15:27:01Z</time>
      </trkpt>
      <trkpt lat="43.437685" lon="-3.896559">
        <ele>43.896</ele>
        <time>2022-08-28T15:27:02Z</time>
      </trkpt>
      <trkpt lat="43.437682" lon="-3.896397">
        <ele>43.362</ele>
        <time>2022-08-28T15:27:04Z</time>
      </trkpt>
      <trkpt lat="43.437684" lon="-3.896317">
        <ele>43.283</ele>
        <time>2022-08-28T15:27:05Z</time>
      </trkpt>
      <trkpt lat="43.437689" lon="-3.896232">
        <ele>43.011</ele>
        <time>2022-08-28T15:27:06Z</time>
      </trkpt>
      <trkpt lat="43.437697" lon="-3.896149">
        <ele>42.909</ele>
        <time>2022-08-28T15:27:07Z</time>
      </trkpt>
      <trkpt lat="43.437729" lon="-3.895981">
        <ele>42.237</ele>
        <time>2022-08-28T15:27:09Z</time>
      </trkpt>
      <trkpt lat="43.437774" lon="-3.895818">
        <ele>40.987</ele>
        <time>2022-08-28T15:27:11Z</time>
      </trkpt>
      <trkpt lat="43.437822" lon="-3.895653">
        <ele>39.948</ele>
        <time>2022-08-28T15:27:13Z</time>
      </trkpt>
      <trkpt lat="43.437847" lon="-3.895571">
        <ele>39.367</ele>
        <time>2022-08-28T15:27:14Z</time>
      </trkpt>
      <trkpt lat="43.437899" lon="-3.895406">
        <ele>38.486</ele>
        <time>2022-08-28T15:27:16Z</time>
      </trkpt>
      <trkpt lat="43.437926" lon="-3.895326">
        <ele>38.064</ele>
        <time>2022-08-28T15:27:17Z</time>
      </trkpt>
      <trkpt lat="43.437951" lon="-3.895248">
        <ele>37.788</ele>
        <time>2022-08-28T15:27:18Z</time>
      </trkpt>
      <trkpt lat="43.438003" lon="-3.895091">
        <ele>37.717</ele>
        <time>2022-08-28T15:27:20Z</time>
      </trkpt>
      <trkpt lat="43.438025" lon="-3.895019">
        <ele>37.743</ele>
        <time>2022-08-28T15:27:21Z</time>
      </trkpt>
      <trkpt lat="43.438043" lon="-3.894951">
        <ele>37.876</ele>
        <time>2022-08-28T15:27:22Z</time>
      </trkpt>
      <trkpt lat="43.438085" lon="-3.894824">
        <ele>37.990</ele>
        <time>2022-08-28T15:27:24Z</time>
      </trkpt>
      <trkpt lat="43.438103" lon="-3.894764">
        <ele>38.219</ele>
        <time>2022-08-28T15:27:25Z</time>
      </trkpt>
      <trkpt lat="43.438141" lon="-3.894654">
        <ele>38.609</ele>
        <time>2022-08-28T15:27:27Z</time>
      </trkpt>
      <trkpt lat="43.438178" lon="-3.894547">
        <ele>39.388</ele>
        <time>2022-08-28T15:27:29Z</time>
      </trkpt>
      <trkpt lat="43.438211" lon="-3.894447">
        <ele>39.848</ele>
        <time>2022-08-28T15:27:31Z</time>
      </trkpt>
      <trkpt lat="43.438243" lon="-3.894352">
        <ele>40.189</ele>
        <time>2022-08-28T15:27:33Z</time>
      </trkpt>
      <trkpt lat="43.438280" lon="-3.894255">
        <ele>40.598</ele>
        <time>2022-08-28T15:27:35Z</time>
      </trkpt>
      <trkpt lat="43.438310" lon="-3.894157">
        <ele>40.587</ele>
        <time>2022-08-28T15:27:37Z</time>
      </trkpt>
      <trkpt lat="43.438340" lon="-3.894050">
        <ele>40.795</ele>
        <time>2022-08-28T15:27:39Z</time>
      </trkpt>
      <trkpt lat="43.438367" lon="-3.893942">
        <ele>40.929</ele>
        <time>2022-08-28T15:27:41Z</time>
      </trkpt>
      <trkpt lat="43.438400" lon="-3.893832">
        <ele>41.478</ele>
        <time>2022-08-28T15:27:43Z</time>
      </trkpt>
      <trkpt lat="43.438435" lon="-3.893715">
        <ele>41.514</ele>
        <time>2022-08-28T15:27:45Z</time>
      </trkpt>
      <trkpt lat="43.438455" lon="-3.893652">
        <ele>41.591</ele>
        <time>2022-08-28T15:27:46Z</time>
      </trkpt>
      <trkpt lat="43.438475" lon="-3.893584">
        <ele>41.481</ele>
        <time>2022-08-28T15:27:47Z</time>
      </trkpt>
      <trkpt lat="43.438498" lon="-3.893514">
        <ele>41.419</ele>
        <time>2022-08-28T15:27:48Z</time>
      </trkpt>
      <trkpt lat="43.438521" lon="-3.893437">
        <ele>41.409</ele>
        <time>2022-08-28T15:27:49Z</time>
      </trkpt>
      <trkpt lat="43.438544" lon="-3.893359">
        <ele>41.440</ele>
        <time>2022-08-28T15:27:50Z</time>
      </trkpt>
      <trkpt lat="43.438569" lon="-3.893277">
        <ele>41.310</ele>
        <time>2022-08-28T15:27:51Z</time>
      </trkpt>
      <trkpt lat="43.438616" lon="-3.893119">
        <ele>40.581</ele>
        <time>2022-08-28T15:27:53Z</time>
      </trkpt>
      <trkpt lat="43.438639" lon="-3.893041">
        <ele>40.220</ele>
        <time>2022-08-28T15:27:54Z</time>
      </trkpt>
      <trkpt lat="43.438687" lon="-3.892884">
        <ele>40.039</ele>
        <time>2022-08-28T15:27:56Z</time>
      </trkpt>
      <trkpt lat="43.438710" lon="-3.892807">
        <ele>40.077</ele>
        <time>2022-08-28T15:27:57Z</time>
      </trkpt>
      <trkpt lat="43.438732" lon="-3.892732">
        <ele>39.931</ele>
        <time>2022-08-28T15:27:58Z</time>
      </trkpt>
      <trkpt lat="43.438755" lon="-3.892659">
        <ele>39.990</ele>
        <time>2022-08-28T15:27:59Z</time>
      </trkpt>
      <trkpt lat="43.438798" lon="-3.892514">
        <ele>39.916</ele>
        <time>2022-08-28T15:28:01Z</time>
      </trkpt>
      <trkpt lat="43.438818" lon="-3.892439">
        <ele>40.039</ele>
        <time>2022-08-28T15:28:02Z</time>
      </trkpt>
      <trkpt lat="43.438838" lon="-3.892364">
        <ele>40.001</ele>
        <time>2022-08-28T15:28:03Z</time>
      </trkpt>
      <trkpt lat="43.438880" lon="-3.892214">
        <ele>39.821</ele>
        <time>2022-08-28T15:28:05Z</time>
      </trkpt>
      <trkpt lat="43.438900" lon="-3.892139">
        <ele>39.509</ele>
        <time>2022-08-28T15:28:06Z</time>
      </trkpt>
      <trkpt lat="43.438938" lon="-3.891997">
        <ele>39.284</ele>
        <time>2022-08-28T15:28:08Z</time>
      </trkpt>
      <trkpt lat="43.438955" lon="-3.891929">
        <ele>38.974</ele>
        <time>2022-08-28T15:28:09Z</time>
      </trkpt>
      <trkpt lat="43.438992" lon="-3.891796">
        <ele>38.325</ele>
        <time>2022-08-28T15:28:11Z</time>
      </trkpt>
      <trkpt lat="43.439009" lon="-3.891729">
        <ele>38.314</ele>
        <time>2022-08-28T15:28:12Z</time>
      </trkpt>
      <trkpt lat="43.439041" lon="-3.891601">
        <ele>38.313</ele>
        <time>2022-08-28T15:28:14Z</time>
      </trkpt>
      <trkpt lat="43.439059" lon="-3.891539">
        <ele>38.411</ele>
        <time>2022-08-28T15:28:15Z</time>
      </trkpt>
      <trkpt lat="43.439086" lon="-3.891429">
        <ele>38.865</ele>
        <time>2022-08-28T15:28:17Z</time>
      </trkpt>
      <trkpt lat="43.439116" lon="-3.891321">
        <ele>39.964</ele>
        <time>2022-08-28T15:28:19Z</time>
      </trkpt>
      <trkpt lat="43.439143" lon="-3.891203">
        <ele>40.350</ele>
        <time>2022-08-28T15:28:21Z</time>
      </trkpt>
      <trkpt lat="43.439161" lon="-3.891090">
        <ele>40.594</ele>
        <time>2022-08-28T15:28:23Z</time>
      </trkpt>
      <trkpt lat="43.439181" lon="-3.890980">
        <ele>40.657</ele>
        <time>2022-08-28T15:28:25Z</time>
      </trkpt>
      <trkpt lat="43.439176" lon="-3.890867">
        <ele>40.622</ele>
        <time>2022-08-28T15:28:27Z</time>
      </trkpt>
      <trkpt lat="43.439163" lon="-3.890749">
        <ele>40.509</ele>
        <time>2022-08-28T15:28:29Z</time>
      </trkpt>
      <trkpt lat="43.439150" lon="-3.890624">
        <ele>40.450</ele>
        <time>2022-08-28T15:28:31Z</time>
      </trkpt>
      <trkpt lat="43.439162" lon="-3.890497">
        <ele>40.410</ele>
        <time>2022-08-28T15:28:33Z</time>
      </trkpt>
      <trkpt lat="43.439182" lon="-3.890439">
        <ele>40.421</ele>
        <time>2022-08-28T15:28:34Z</time>
      </trkpt>
      <trkpt lat="43.439239" lon="-3.890347">
        <ele>39.770</ele>
        <time>2022-08-28T15:28:36Z</time>
      </trkpt>
      <trkpt lat="43.439272" lon="-3.890304">
        <ele>39.589</ele>
        <time>2022-08-28T15:28:37Z</time>
      </trkpt>
      <trkpt lat="43.439342" lon="-3.890229">
        <ele>39.557</ele>
        <time>2022-08-28T15:28:39Z</time>
      </trkpt>
      <trkpt lat="43.439377" lon="-3.890187">
        <ele>39.471</ele>
        <time>2022-08-28T15:28:40Z</time>
      </trkpt>
      <trkpt lat="43.439412" lon="-3.890139">
        <ele>39.420</ele>
        <time>2022-08-28T15:28:41Z</time>
      </trkpt>
      <trkpt lat="43.439444" lon="-3.890087">
        <ele>39.476</ele>
        <time>2022-08-28T15:28:42Z</time>
      </trkpt>
      <trkpt lat="43.439491" lon="-3.889969">
        <ele>39.088</ele>
        <time>2022-08-28T15:28:44Z</time>
      </trkpt>
      <trkpt lat="43.439511" lon="-3.889912">
        <ele>38.824</ele>
        <time>2022-08-28T15:28:45Z</time>
      </trkpt>
      <trkpt lat="43.439546" lon="-3.889799">
        <ele>38.626</ele>
        <time>2022-08-28T15:28:47Z</time>
      </trkpt>
      <trkpt lat="43.439561" lon="-3.889739">
        <ele>38.609</ele>
        <time>2022-08-28T15:28:48Z</time>
      </trkpt>
      <trkpt lat="43.439579" lon="-3.889682">
        <ele>38.639</ele>
        <time>2022-08-28T15:28:49Z</time>
      </trkpt>
      <trkpt lat="43.439617" lon="-3.889575">
        <ele>38.689</ele>
        <time>2022-08-28T15:28:51Z</time>
      </trkpt>
      <trkpt lat="43.439640" lon="-3.889462">
        <ele>39.030</ele>
        <time>2022-08-28T15:28:53Z</time>
      </trkpt>
      <trkpt lat="43.439667" lon="-3.889347">
        <ele>39.469</ele>
        <time>2022-08-28T15:28:55Z</time>
      </trkpt>
      <trkpt lat="43.439687" lon="-3.889229">
        <ele>39.488</ele>
        <time>2022-08-28T15:28:57Z</time>
      </trkpt>
      <trkpt lat="43.439705" lon="-3.889162">
        <ele>39.286</ele>
        <time>2022-08-28T15:28:58Z</time>
      </trkpt>
      <trkpt lat="43.439743" lon="-3.889037">
        <ele>37.170</ele>
        <time>2022-08-28T15:29:00Z</time>
      </trkpt>
      <trkpt lat="43.439766" lon="-3.888924">
        <ele>37.129</ele>
        <time>2022-08-28T15:29:02Z</time>
      </trkpt>
      <trkpt lat="43.439768" lon="-3.888816">
        <ele>37.535</ele>
        <time>2022-08-28T15:29:04Z</time>
      </trkpt>
      <trkpt lat="43.439753" lon="-3.888708">
        <ele>37.716</ele>
        <time>2022-08-28T15:29:06Z</time>
      </trkpt>
      <trkpt lat="43.439721" lon="-3.888615">
        <ele>37.976</ele>
        <time>2022-08-28T15:29:08Z</time>
      </trkpt>
      <trkpt lat="43.439678" lon="-3.888532">
        <ele>38.313</ele>
        <time>2022-08-28T15:29:10Z</time>
      </trkpt>
      <trkpt lat="43.439633" lon="-3.888442">
        <ele>38.409</ele>
        <time>2022-08-28T15:29:12Z</time>
      </trkpt>
      <trkpt lat="43.439600" lon="-3.888349">
        <ele>38.432</ele>
        <time>2022-08-28T15:29:14Z</time>
      </trkpt>
      <trkpt lat="43.439582" lon="-3.888232">
        <ele>38.222</ele>
        <time>2022-08-28T15:29:16Z</time>
      </trkpt>
      <trkpt lat="43.439602" lon="-3.888119">
        <ele>38.283</ele>
        <time>2022-08-28T15:29:18Z</time>
      </trkpt>
      <trkpt lat="43.439654" lon="-3.888019">
        <ele>38.142</ele>
        <time>2022-08-28T15:29:20Z</time>
      </trkpt>
      <trkpt lat="43.439691" lon="-3.887981">
        <ele>38.081</ele>
        <time>2022-08-28T15:29:21Z</time>
      </trkpt>
      <trkpt lat="43.439781" lon="-3.887924">
        <ele>37.939</ele>
        <time>2022-08-28T15:29:23Z</time>
      </trkpt>
      <trkpt lat="43.439829" lon="-3.887907">
        <ele>37.873</ele>
        <time>2022-08-28T15:29:24Z</time>
      </trkpt>
      <trkpt lat="43.439917" lon="-3.887880">
        <ele>37.422</ele>
        <time>2022-08-28T15:29:26Z</time>
      </trkpt>
      <trkpt lat="43.439959" lon="-3.887857">
        <ele>37.248</ele>
        <time>2022-08-28T15:29:27Z</time>
      </trkpt>
      <trkpt lat="43.440034" lon="-3.887795">
        <ele>36.957</ele>
        <time>2022-08-28T15:29:29Z</time>
      </trkpt>
      <trkpt lat="43.440097" lon="-3.887712">
        <ele>36.900</ele>
        <time>2022-08-28T15:29:31Z</time>
      </trkpt>
      <trkpt lat="43.440144" lon="-3.887622">
        <ele>37.020</ele>
        <time>2022-08-28T15:29:33Z</time>
      </trkpt>
      <trkpt lat="43.440186" lon="-3.887539">
        <ele>37.509</ele>
        <time>2022-08-28T15:29:35Z</time>
      </trkpt>
      <trkpt lat="43.440218" lon="-3.887466">
        <ele>37.646</ele>
        <time>2022-08-28T15:29:37Z</time>
      </trkpt>
      <trkpt lat="43.440238" lon="-3.887404">
        <ele>37.866</ele>
        <time>2022-08-28T15:29:39Z</time>
      </trkpt>
      <trkpt lat="43.440258" lon="-3.887341">
        <ele>38.337</ele>
        <time>2022-08-28T15:29:41Z</time>
      </trkpt>
      <trkpt lat="43.440275" lon="-3.887279">
        <ele>38.726</ele>
        <time>2022-08-28T15:29:43Z</time>
      </trkpt>
      <trkpt lat="43.440300" lon="-3.887204">
        <ele>39.375</ele>
        <time>2022-08-28T15:29:46Z</time>
      </trkpt>
      <trkpt lat="43.440323" lon="-3.887142">
        <ele>40.453</ele>
        <time>2022-08-28T15:29:49Z</time>
      </trkpt>
      <trkpt lat="43.440351" lon="-3.887062">
        <ele>41.057</ele>
        <time>2022-08-28T15:29:52Z</time>
      </trkpt>
      <trkpt lat="43.440376" lon="-3.886980">
        <ele>41.146</ele>
        <time>2022-08-28T15:29:55Z</time>
      </trkpt>
      <trkpt lat="43.440389" lon="-3.886907">
        <ele>41.562</ele>
        <time>2022-08-28T15:29:58Z</time>
      </trkpt>
      <trkpt lat="43.440412" lon="-3.886820">
        <ele>42.892</ele>
        <time>2022-08-28T15:30:01Z</time>
      </trkpt>
      <trkpt lat="43.440437" lon="-3.886755">
        <ele>43.473</ele>
        <time>2022-08-28T15:30:03Z</time>
      </trkpt>
      <trkpt lat="43.440457" lon="-3.886693">
        <ele>43.820</ele>
        <time>2022-08-28T15:30:05Z</time>
      </trkpt>
      <trkpt lat="43.440477" lon="-3.886626">
        <ele>44.209</ele>
        <time>2022-08-28T15:30:07Z</time>
      </trkpt>
      <trkpt lat="43.440497" lon="-3.886558">
        <ele>44.360</ele>
        <time>2022-08-28T15:30:09Z</time>
      </trkpt>
      <trkpt lat="43.440524" lon="-3.886480">
        <ele>44.440</ele>
        <time>2022-08-28T15:30:12Z</time>
      </trkpt>
      <trkpt lat="43.440546" lon="-3.886398">
        <ele>44.631</ele>
        <time>2022-08-28T15:30:15Z</time>
      </trkpt>
      <trkpt lat="43.440566" lon="-3.886333">
        <ele>44.790</ele>
        <time>2022-08-28T15:30:17Z</time>
      </trkpt>
      <trkpt lat="43.440583" lon="-3.886270">
        <ele>45.439</ele>
        <time>2022-08-28T15:30:19Z</time>
      </trkpt>
      <trkpt lat="43.440611" lon="-3.886187">
        <ele>46.577</ele>
        <time>2022-08-28T15:30:22Z</time>
      </trkpt>
      <trkpt lat="43.440636" lon="-3.886102">
        <ele>46.581</ele>
        <time>2022-08-28T15:30:25Z</time>
      </trkpt>
      <trkpt lat="43.440654" lon="-3.886044">
        <ele>46.670</ele>
        <time>2022-08-28T15:30:27Z</time>
      </trkpt>
      <trkpt lat="43.440674" lon="-3.885987">
        <ele>46.756</ele>
        <time>2022-08-28T15:30:29Z</time>
      </trkpt>
      <trkpt lat="43.440692" lon="-3.885924">
        <ele>46.726</ele>
        <time>2022-08-28T15:30:31Z</time>
      </trkpt>
      <trkpt lat="43.440714" lon="-3.885866">
        <ele>47.147</ele>
        <time>2022-08-28T15:30:33Z</time>
      </trkpt>
      <trkpt lat="43.440734" lon="-3.885808">
        <ele>47.511</ele>
        <time>2022-08-28T15:30:35Z</time>
      </trkpt>
      <trkpt lat="43.440756" lon="-3.885720">
        <ele>47.709</ele>
        <time>2022-08-28T15:30:38Z</time>
      </trkpt>
      <trkpt lat="43.440769" lon="-3.885660">
        <ele>48.013</ele>
        <time>2022-08-28T15:30:40Z</time>
      </trkpt>
      <trkpt lat="43.440789" lon="-3.885575">
        <ele>48.253</ele>
        <time>2022-08-28T15:30:43Z</time>
      </trkpt>
      <trkpt lat="43.440816" lon="-3.885493">
        <ele>48.314</ele>
        <time>2022-08-28T15:30:46Z</time>
      </trkpt>
      <trkpt lat="43.440833" lon="-3.885435">
        <ele>48.693</ele>
        <time>2022-08-28T15:30:48Z</time>
      </trkpt>
      <trkpt lat="43.440851" lon="-3.885373">
        <ele>48.862</ele>
        <time>2022-08-28T15:30:50Z</time>
      </trkpt>
      <trkpt lat="43.440874" lon="-3.885308">
        <ele>48.850</ele>
        <time>2022-08-28T15:30:52Z</time>
      </trkpt>
      <trkpt lat="43.440899" lon="-3.885248">
        <ele>48.834</ele>
        <time>2022-08-28T15:30:54Z</time>
      </trkpt>
      <trkpt lat="43.440921" lon="-3.885163">
        <ele>48.933</ele>
        <time>2022-08-28T15:30:57Z</time>
      </trkpt>
      <trkpt lat="43.440934" lon="-3.885078">
        <ele>49.539</ele>
        <time>2022-08-28T15:31:00Z</time>
      </trkpt>
      <trkpt lat="43.440954" lon="-3.885003">
        <ele>49.797</ele>
        <time>2022-08-28T15:31:03Z</time>
      </trkpt>
      <trkpt lat="43.440969" lon="-3.884943">
        <ele>49.723</ele>
        <time>2022-08-28T15:31:05Z</time>
      </trkpt>
      <trkpt lat="43.440977" lon="-3.884863">
        <ele>49.925</ele>
        <time>2022-08-28T15:31:07Z</time>
      </trkpt>
      <trkpt lat="43.440987" lon="-3.884778">
        <ele>50.109</ele>
        <time>2022-08-28T15:31:09Z</time>
      </trkpt>
      <trkpt lat="43.441002" lon="-3.884681">
        <ele>50.620</ele>
        <time>2022-08-28T15:31:11Z</time>
      </trkpt>
      <trkpt lat="43.441025" lon="-3.884566">
        <ele>51.430</ele>
        <time>2022-08-28T15:31:13Z</time>
      </trkpt>
      <trkpt lat="43.441047" lon="-3.884439">
        <ele>52.331</ele>
        <time>2022-08-28T15:31:15Z</time>
      </trkpt>
      <trkpt lat="43.441059" lon="-3.884372">
        <ele>52.490</ele>
        <time>2022-08-28T15:31:16Z</time>
      </trkpt>
      <trkpt lat="43.441087" lon="-3.884225">
        <ele>52.379</ele>
        <time>2022-08-28T15:31:18Z</time>
      </trkpt>
      <trkpt lat="43.441117" lon="-3.884068">
        <ele>52.257</ele>
        <time>2022-08-28T15:31:20Z</time>
      </trkpt>
      <trkpt lat="43.441149" lon="-3.883905">
        <ele>52.191</ele>
        <time>2022-08-28T15:31:22Z</time>
      </trkpt>
      <trkpt lat="43.441179" lon="-3.883735">
        <ele>51.960</ele>
        <time>2022-08-28T15:31:24Z</time>
      </trkpt>
      <trkpt lat="43.441197" lon="-3.883645">
        <ele>51.696</ele>
        <time>2022-08-28T15:31:25Z</time>
      </trkpt>
      <trkpt lat="43.441235" lon="-3.883453">
        <ele>50.829</ele>
        <time>2022-08-28T15:31:27Z</time>
      </trkpt>
      <trkpt lat="43.441275" lon="-3.883253">
        <ele>49.000</ele>
        <time>2022-08-28T15:31:29Z</time>
      </trkpt>
      <trkpt lat="43.441298" lon="-3.883146">
        <ele>48.020</ele>
        <time>2022-08-28T15:31:30Z</time>
      </trkpt>
      <trkpt lat="43.441320" lon="-3.883038">
        <ele>47.109</ele>
        <time>2022-08-28T15:31:31Z</time>
      </trkpt>
      <trkpt lat="43.441345" lon="-3.882930">
        <ele>46.423</ele>
        <time>2022-08-28T15:31:32Z</time>
      </trkpt>
      <trkpt lat="43.441365" lon="-3.882825">
        <ele>46.163</ele>
        <time>2022-08-28T15:31:33Z</time>
      </trkpt>
      <trkpt lat="43.441385" lon="-3.882727">
        <ele>46.084</ele>
        <time>2022-08-28T15:31:34Z</time>
      </trkpt>
      <trkpt lat="43.441423" lon="-3.882550">
        <ele>45.533</ele>
        <time>2022-08-28T15:31:36Z</time>
      </trkpt>
      <trkpt lat="43.441456" lon="-3.882405">
        <ele>45.262</ele>
        <time>2022-08-28T15:31:38Z</time>
      </trkpt>
      <trkpt lat="43.441469" lon="-3.882345">
        <ele>45.270</ele>
        <time>2022-08-28T15:31:39Z</time>
      </trkpt>
      <trkpt lat="43.441487" lon="-3.882263">
        <ele>44.934</ele>
        <time>2022-08-28T15:31:41Z</time>
      </trkpt>
      <trkpt lat="43.441504" lon="-3.882190">
        <ele>44.743</ele>
        <time>2022-08-28T15:31:44Z</time>
      </trkpt>
      <trkpt lat="43.441526" lon="-3.882092">
        <ele>44.819</ele>
        <time>2022-08-28T15:31:47Z</time>
      </trkpt>
      <trkpt lat="43.441541" lon="-3.882009">
        <ele>44.791</ele>
        <time>2022-08-28T15:31:49Z</time>
      </trkpt>
      <trkpt lat="43.441538" lon="-3.881934">
        <ele>44.581</ele>
        <time>2022-08-28T15:31:53Z</time>
      </trkpt>
      <trkpt lat="43.441543" lon="-3.881842">
        <ele>44.519</ele>
        <time>2022-08-28T15:31:56Z</time>
      </trkpt>
      <trkpt lat="43.441560" lon="-3.881740">
        <ele>44.409</ele>
        <time>2022-08-28T15:31:58Z</time>
      </trkpt>
      <trkpt lat="43.441587" lon="-3.881622">
        <ele>44.350</ele>
        <time>2022-08-28T15:32:00Z</time>
      </trkpt>
      <trkpt lat="43.441615" lon="-3.881487">
        <ele>43.940</ele>
        <time>2022-08-28T15:32:02Z</time>
      </trkpt>
      <trkpt lat="43.441638" lon="-3.881344">
        <ele>43.551</ele>
        <time>2022-08-28T15:32:04Z</time>
      </trkpt>
      <trkpt lat="43.441663" lon="-3.881194">
        <ele>43.520</ele>
        <time>2022-08-28T15:32:06Z</time>
      </trkpt>
      <trkpt lat="43.441693" lon="-3.881041">
        <ele>43.799</ele>
        <time>2022-08-28T15:32:08Z</time>
      </trkpt>
      <trkpt lat="43.441708" lon="-3.880966">
        <ele>43.717</ele>
        <time>2022-08-28T15:32:09Z</time>
      </trkpt>
      <trkpt lat="43.441723" lon="-3.880888">
        <ele>43.931</ele>
        <time>2022-08-28T15:32:10Z</time>
      </trkpt>
      <trkpt lat="43.441751" lon="-3.880735">
        <ele>44.080</ele>
        <time>2022-08-28T15:32:12Z</time>
      </trkpt>
      <trkpt lat="43.441778" lon="-3.880583">
        <ele>44.126</ele>
        <time>2022-08-28T15:32:14Z</time>
      </trkpt>
      <trkpt lat="43.441791" lon="-3.880511">
        <ele>44.121</ele>
        <time>2022-08-28T15:32:15Z</time>
      </trkpt>
      <trkpt lat="43.441806" lon="-3.880439">
        <ele>44.141</ele>
        <time>2022-08-28T15:32:16Z</time>
      </trkpt>
      <trkpt lat="43.441834" lon="-3.880306">
        <ele>44.105</ele>
        <time>2022-08-28T15:32:18Z</time>
      </trkpt>
      <trkpt lat="43.441862" lon="-3.880174">
        <ele>44.009</ele>
        <time>2022-08-28T15:32:20Z</time>
      </trkpt>
      <trkpt lat="43.441885" lon="-3.880039">
        <ele>44.023</ele>
        <time>2022-08-28T15:32:22Z</time>
      </trkpt>
      <trkpt lat="43.441897" lon="-3.879974">
        <ele>44.143</ele>
        <time>2022-08-28T15:32:23Z</time>
      </trkpt>
      <trkpt lat="43.441919" lon="-3.879849">
        <ele>44.174</ele>
        <time>2022-08-28T15:32:25Z</time>
      </trkpt>
      <trkpt lat="43.441929" lon="-3.879787">
        <ele>44.183</ele>
        <time>2022-08-28T15:32:26Z</time>
      </trkpt>
      <trkpt lat="43.441949" lon="-3.879665">
        <ele>44.152</ele>
        <time>2022-08-28T15:32:28Z</time>
      </trkpt>
      <trkpt lat="43.441961" lon="-3.879605">
        <ele>44.130</ele>
        <time>2022-08-28T15:32:29Z</time>
      </trkpt>
      <trkpt lat="43.441984" lon="-3.879487">
        <ele>44.114</ele>
        <time>2022-08-28T15:32:31Z</time>
      </trkpt>
      <trkpt lat="43.441996" lon="-3.879427">
        <ele>44.133</ele>
        <time>2022-08-28T15:32:32Z</time>
      </trkpt>
      <trkpt lat="43.442023" lon="-3.879309">
        <ele>44.169</ele>
        <time>2022-08-28T15:32:34Z</time>
      </trkpt>
      <trkpt lat="43.442048" lon="-3.879191">
        <ele>44.261</ele>
        <time>2022-08-28T15:32:36Z</time>
      </trkpt>
      <trkpt lat="43.442070" lon="-3.879078">
        <ele>44.621</ele>
        <time>2022-08-28T15:32:38Z</time>
      </trkpt>
      <trkpt lat="43.442088" lon="-3.878973">
        <ele>44.713</ele>
        <time>2022-08-28T15:32:40Z</time>
      </trkpt>
      <trkpt lat="43.442105" lon="-3.878881">
        <ele>44.709</ele>
        <time>2022-08-28T15:32:42Z</time>
      </trkpt>
      <trkpt lat="43.442128" lon="-3.878793">
        <ele>44.777</ele>
        <time>2022-08-28T15:32:44Z</time>
      </trkpt>
      <trkpt lat="43.442148" lon="-3.878711">
        <ele>44.937</ele>
        <time>2022-08-28T15:32:46Z</time>
      </trkpt>
      <trkpt lat="43.442166" lon="-3.878633">
        <ele>45.268</ele>
        <time>2022-08-28T15:32:48Z</time>
      </trkpt>
      <trkpt lat="43.442186" lon="-3.878558">
        <ele>45.347</ele>
        <time>2022-08-28T15:32:50Z</time>
      </trkpt>
      <trkpt lat="43.442209" lon="-3.878486">
        <ele>45.426</ele>
        <time>2022-08-28T15:32:52Z</time>
      </trkpt>
      <trkpt lat="43.442232" lon="-3.878416">
        <ele>45.734</ele>
        <time>2022-08-28T15:32:54Z</time>
      </trkpt>
      <trkpt lat="43.442254" lon="-3.878344">
        <ele>46.918</ele>
        <time>2022-08-28T15:32:56Z</time>
      </trkpt>
      <trkpt lat="43.442272" lon="-3.878269">
        <ele>48.147</ele>
        <time>2022-08-28T15:32:58Z</time>
      </trkpt>
      <trkpt lat="43.442292" lon="-3.878201">
        <ele>49.213</ele>
        <time>2022-08-28T15:33:00Z</time>
      </trkpt>
      <trkpt lat="43.442309" lon="-3.878133">
        <ele>50.273</ele>
        <time>2022-08-28T15:33:02Z</time>
      </trkpt>
      <trkpt lat="43.442322" lon="-3.878070">
        <ele>50.985</ele>
        <time>2022-08-28T15:33:04Z</time>
      </trkpt>
      <trkpt lat="43.442335" lon="-3.878007">
        <ele>51.213</ele>
        <time>2022-08-28T15:33:06Z</time>
      </trkpt>
      <trkpt lat="43.442347" lon="-3.877937">
        <ele>51.509</ele>
        <time>2022-08-28T15:33:08Z</time>
      </trkpt>
      <trkpt lat="43.442355" lon="-3.877874">
        <ele>51.558</ele>
        <time>2022-08-28T15:33:10Z</time>
      </trkpt>
      <trkpt lat="43.442348" lon="-3.877786">
        <ele>51.538</ele>
        <time>2022-08-28T15:33:13Z</time>
      </trkpt>
      <trkpt lat="43.442335" lon="-3.877716">
        <ele>51.469</ele>
        <time>2022-08-28T15:33:15Z</time>
      </trkpt>
      <trkpt lat="43.442308" lon="-3.877641">
        <ele>50.988</ele>
        <time>2022-08-28T15:33:17Z</time>
      </trkpt>
      <trkpt lat="43.442288" lon="-3.877566">
        <ele>50.777</ele>
        <time>2022-08-28T15:33:19Z</time>
      </trkpt>
      <trkpt lat="43.442275" lon="-3.877496">
        <ele>50.735</ele>
        <time>2022-08-28T15:33:21Z</time>
      </trkpt>
      <trkpt lat="43.442272" lon="-3.877429">
        <ele>50.719</ele>
        <time>2022-08-28T15:33:23Z</time>
      </trkpt>
      <trkpt lat="43.442282" lon="-3.877362">
        <ele>50.898</ele>
        <time>2022-08-28T15:33:25Z</time>
      </trkpt>
      <trkpt lat="43.442302" lon="-3.877300">
        <ele>50.894</ele>
        <time>2022-08-28T15:33:27Z</time>
      </trkpt>
      <trkpt lat="43.442329" lon="-3.877247">
        <ele>50.872</ele>
        <time>2022-08-28T15:33:29Z</time>
      </trkpt>
      <trkpt lat="43.442366" lon="-3.877185">
        <ele>50.813</ele>
        <time>2022-08-28T15:33:31Z</time>
      </trkpt>
      <trkpt lat="43.442403" lon="-3.877140">
        <ele>51.114</ele>
        <time>2022-08-28T15:33:33Z</time>
      </trkpt>
      <trkpt lat="43.442443" lon="-3.877098">
        <ele>50.809</ele>
        <time>2022-08-28T15:33:35Z</time>
      </trkpt>
      <trkpt lat="43.442495" lon="-3.877088">
        <ele>50.628</ele>
        <time>2022-08-28T15:33:37Z</time>
      </trkpt>
      <trkpt lat="43.442545" lon="-3.877090">
        <ele>50.328</ele>
        <time>2022-08-28T15:33:39Z</time>
      </trkpt>
      <trkpt lat="43.442600" lon="-3.877087">
        <ele>49.729</ele>
        <time>2022-08-28T15:33:41Z</time>
      </trkpt>
      <trkpt lat="43.442660" lon="-3.877075">
        <ele>49.188</ele>
        <time>2022-08-28T15:33:43Z</time>
      </trkpt>
      <trkpt lat="43.442720" lon="-3.877048">
        <ele>48.477</ele>
        <time>2022-08-28T15:33:45Z</time>
      </trkpt>
      <trkpt lat="43.442770" lon="-3.877008">
        <ele>47.785</ele>
        <time>2022-08-28T15:33:47Z</time>
      </trkpt>
      <trkpt lat="43.442808" lon="-3.876973">
        <ele>47.379</ele>
        <time>2022-08-28T15:33:49Z</time>
      </trkpt>
      <trkpt lat="43.442850" lon="-3.876918">
        <ele>47.398</ele>
        <time>2022-08-28T15:33:52Z</time>
      </trkpt>
      <trkpt lat="43.442888" lon="-3.876848">
        <ele>47.184</ele>
        <time>2022-08-28T15:33:55Z</time>
      </trkpt>
      <trkpt lat="43.442916" lon="-3.876796">
        <ele>46.997</ele>
        <time>2022-08-28T15:33:57Z</time>
      </trkpt>
      <trkpt lat="43.442949" lon="-3.876748">
        <ele>46.923</ele>
        <time>2022-08-28T15:33:59Z</time>
      </trkpt>
      <trkpt lat="43.442981" lon="-3.876698">
        <ele>46.925</ele>
        <time>2022-08-28T15:34:01Z</time>
      </trkpt>
      <trkpt lat="43.443014" lon="-3.876648">
        <ele>46.909</ele>
        <time>2022-08-28T15:34:03Z</time>
      </trkpt>
      <trkpt lat="43.443047" lon="-3.876595">
        <ele>47.020</ele>
        <time>2022-08-28T15:34:05Z</time>
      </trkpt>
      <trkpt lat="43.443082" lon="-3.876543">
        <ele>47.480</ele>
        <time>2022-08-28T15:34:07Z</time>
      </trkpt>
      <trkpt lat="43.443115" lon="-3.876493">
        <ele>47.411</ele>
        <time>2022-08-28T15:34:09Z</time>
      </trkpt>
      <trkpt lat="43.443150" lon="-3.876446">
        <ele>47.410</ele>
        <time>2022-08-28T15:34:11Z</time>
      </trkpt>
      <trkpt lat="43.443183" lon="-3.876394">
        <ele>47.569</ele>
        <time>2022-08-28T15:34:13Z</time>
      </trkpt>
      <trkpt lat="43.443221" lon="-3.876332">
        <ele>47.597</ele>
        <time>2022-08-28T15:34:16Z</time>
      </trkpt>
      <trkpt lat="43.443249" lon="-3.876262">
        <ele>47.581</ele>
        <time>2022-08-28T15:34:22Z</time>
      </trkpt>
      <trkpt lat="43.443277" lon="-3.876182">
        <ele>47.580</ele>
        <time>2022-08-28T15:34:26Z</time>
      </trkpt>
      <trkpt lat="43.443290" lon="-3.876097">
        <ele>47.546</ele>
        <time>2022-08-28T15:34:29Z</time>
      </trkpt>
      <trkpt lat="43.443293" lon="-3.876029">
        <ele>47.587</ele>
        <time>2022-08-28T15:34:31Z</time>
      </trkpt>
      <trkpt lat="43.443291" lon="-3.875961">
        <ele>47.442</ele>
        <time>2022-08-28T15:34:33Z</time>
      </trkpt>
      <trkpt lat="43.443301" lon="-3.875868">
        <ele>46.626</ele>
        <time>2022-08-28T15:34:36Z</time>
      </trkpt>
      <trkpt lat="43.443323" lon="-3.875801">
        <ele>46.509</ele>
        <time>2022-08-28T15:34:38Z</time>
      </trkpt>
      <trkpt lat="43.443351" lon="-3.875736">
        <ele>46.589</ele>
        <time>2022-08-28T15:34:40Z</time>
      </trkpt>
      <trkpt lat="43.443384" lon="-3.875678">
        <ele>46.539</ele>
        <time>2022-08-28T15:34:42Z</time>
      </trkpt>
      <trkpt lat="43.443424" lon="-3.875625">
        <ele>46.570</ele>
        <time>2022-08-28T15:34:44Z</time>
      </trkpt>
      <trkpt lat="43.443474" lon="-3.875598">
        <ele>46.759</ele>
        <time>2022-08-28T15:34:46Z</time>
      </trkpt>
      <trkpt lat="43.443531" lon="-3.875586">
        <ele>47.498</ele>
        <time>2022-08-28T15:34:48Z</time>
      </trkpt>
      <trkpt lat="43.443588" lon="-3.875598">
        <ele>47.516</ele>
        <time>2022-08-28T15:34:50Z</time>
      </trkpt>
      <trkpt lat="43.443646" lon="-3.875623">
        <ele>47.760</ele>
        <time>2022-08-28T15:34:52Z</time>
      </trkpt>
      <trkpt lat="43.443696" lon="-3.875655">
        <ele>47.879</ele>
        <time>2022-08-28T15:34:54Z</time>
      </trkpt>
      <trkpt lat="43.443746" lon="-3.875685">
        <ele>47.985</ele>
        <time>2022-08-28T15:34:56Z</time>
      </trkpt>
      <trkpt lat="43.443799" lon="-3.875703">
        <ele>47.939</ele>
        <time>2022-08-28T15:34:58Z</time>
      </trkpt>
      <trkpt lat="43.443852" lon="-3.875711">
        <ele>47.901</ele>
        <time>2022-08-28T15:35:00Z</time>
      </trkpt>
      <trkpt lat="43.443914" lon="-3.875711">
        <ele>47.921</ele>
        <time>2022-08-28T15:35:02Z</time>
      </trkpt>
      <trkpt lat="43.443979" lon="-3.875689">
        <ele>47.909</ele>
        <time>2022-08-28T15:35:04Z</time>
      </trkpt>
      <trkpt lat="43.444052" lon="-3.875654">
        <ele>47.664</ele>
        <time>2022-08-28T15:35:06Z</time>
      </trkpt>
      <trkpt lat="43.444125" lon="-3.875601">
        <ele>47.544</ele>
        <time>2022-08-28T15:35:08Z</time>
      </trkpt>
      <trkpt lat="43.444165" lon="-3.875573">
        <ele>47.495</ele>
        <time>2022-08-28T15:35:09Z</time>
      </trkpt>
      <trkpt lat="43.444245" lon="-3.875508">
        <ele>47.314</ele>
        <time>2022-08-28T15:35:11Z</time>
      </trkpt>
      <trkpt lat="43.444317" lon="-3.875435">
        <ele>47.213</ele>
        <time>2022-08-28T15:35:13Z</time>
      </trkpt>
      <trkpt lat="43.444392" lon="-3.875355">
        <ele>47.131</ele>
        <time>2022-08-28T15:35:15Z</time>
      </trkpt>
      <trkpt lat="43.444474" lon="-3.875275">
        <ele>46.595</ele>
        <time>2022-08-28T15:35:17Z</time>
      </trkpt>
      <trkpt lat="43.444551" lon="-3.875190">
        <ele>46.244</ele>
        <time>2022-08-28T15:35:19Z</time>
      </trkpt>
      <trkpt lat="43.444589" lon="-3.875147">
        <ele>46.270</ele>
        <time>2022-08-28T15:35:20Z</time>
      </trkpt>
      <trkpt lat="43.444627" lon="-3.875104">
        <ele>46.296</ele>
        <time>2022-08-28T15:35:21Z</time>
      </trkpt>
      <trkpt lat="43.444702" lon="-3.875011">
        <ele>46.231</ele>
        <time>2022-08-28T15:35:23Z</time>
      </trkpt>
      <trkpt lat="43.444742" lon="-3.874963">
        <ele>46.224</ele>
        <time>2022-08-28T15:35:24Z</time>
      </trkpt>
      <trkpt lat="43.444782" lon="-3.874913">
        <ele>46.209</ele>
        <time>2022-08-28T15:35:25Z</time>
      </trkpt>
      <trkpt lat="43.444865" lon="-3.874803">
        <ele>46.240</ele>
        <time>2022-08-28T15:35:27Z</time>
      </trkpt>
      <trkpt lat="43.444907" lon="-3.874740">
        <ele>45.720</ele>
        <time>2022-08-28T15:35:28Z</time>
      </trkpt>
      <trkpt lat="43.444992" lon="-3.874603">
        <ele>45.011</ele>
        <time>2022-08-28T15:35:30Z</time>
      </trkpt>
      <trkpt lat="43.445075" lon="-3.874456">
        <ele>44.120</ele>
        <time>2022-08-28T15:35:32Z</time>
      </trkpt>
      <trkpt lat="43.445147" lon="-3.874296">
        <ele>43.789</ele>
        <time>2022-08-28T15:35:34Z</time>
      </trkpt>
      <trkpt lat="43.445184" lon="-3.874214">
        <ele>43.747</ele>
        <time>2022-08-28T15:35:35Z</time>
      </trkpt>
      <trkpt lat="43.445246" lon="-3.874059">
        <ele>43.751</ele>
        <time>2022-08-28T15:35:37Z</time>
      </trkpt>
      <trkpt lat="43.445296" lon="-3.873909">
        <ele>43.910</ele>
        <time>2022-08-28T15:35:39Z</time>
      </trkpt>
      <trkpt lat="43.445319" lon="-3.873839">
        <ele>44.146</ele>
        <time>2022-08-28T15:35:40Z</time>
      </trkpt>
      <trkpt lat="43.445344" lon="-3.873769">
        <ele>44.353</ele>
        <time>2022-08-28T15:35:41Z</time>
      </trkpt>
      <trkpt lat="43.445366" lon="-3.873697">
        <ele>44.304</ele>
        <time>2022-08-28T15:35:42Z</time>
      </trkpt>
      <trkpt lat="43.445409" lon="-3.873557">
        <ele>44.314</ele>
        <time>2022-08-28T15:35:44Z</time>
      </trkpt>
      <trkpt lat="43.445456" lon="-3.873412">
        <ele>43.909</ele>
        <time>2022-08-28T15:35:46Z</time>
      </trkpt>
      <trkpt lat="43.445479" lon="-3.873339">
        <ele>43.676</ele>
        <time>2022-08-28T15:35:47Z</time>
      </trkpt>
      <trkpt lat="43.445524" lon="-3.873189">
        <ele>43.266</ele>
        <time>2022-08-28T15:35:49Z</time>
      </trkpt>
      <trkpt lat="43.445544" lon="-3.873116">
        <ele>43.157</ele>
        <time>2022-08-28T15:35:50Z</time>
      </trkpt>
      <trkpt lat="43.445567" lon="-3.873044">
        <ele>43.126</ele>
        <time>2022-08-28T15:35:51Z</time>
      </trkpt>
      <trkpt lat="43.445589" lon="-3.872974">
        <ele>43.195</ele>
        <time>2022-08-28T15:35:52Z</time>
      </trkpt>
      <trkpt lat="43.445631" lon="-3.872842">
        <ele>43.383</ele>
        <time>2022-08-28T15:35:54Z</time>
      </trkpt>
      <trkpt lat="43.445668" lon="-3.872717">
        <ele>43.777</ele>
        <time>2022-08-28T15:35:56Z</time>
      </trkpt>
      <trkpt lat="43.445701" lon="-3.872599">
        <ele>44.196</ele>
        <time>2022-08-28T15:35:58Z</time>
      </trkpt>
      <trkpt lat="43.445739" lon="-3.872487">
        <ele>44.192</ele>
        <time>2022-08-28T15:36:00Z</time>
      </trkpt>
      <trkpt lat="43.445759" lon="-3.872427">
        <ele>44.164</ele>
        <time>2022-08-28T15:36:01Z</time>
      </trkpt>
      <trkpt lat="43.445779" lon="-3.872369">
        <ele>44.106</ele>
        <time>2022-08-28T15:36:02Z</time>
      </trkpt>
      <trkpt lat="43.445819" lon="-3.872257">
        <ele>44.016</ele>
        <time>2022-08-28T15:36:04Z</time>
      </trkpt>
      <trkpt lat="43.445837" lon="-3.872199">
        <ele>44.009</ele>
        <time>2022-08-28T15:36:05Z</time>
      </trkpt>
      <trkpt lat="43.445875" lon="-3.872077">
        <ele>44.047</ele>
        <time>2022-08-28T15:36:07Z</time>
      </trkpt>
      <trkpt lat="43.445910" lon="-3.871965">
        <ele>44.087</ele>
        <time>2022-08-28T15:36:09Z</time>
      </trkpt>
      <trkpt lat="43.445948" lon="-3.871860">
        <ele>43.818</ele>
        <time>2022-08-28T15:36:11Z</time>
      </trkpt>
      <trkpt lat="43.445976" lon="-3.871745">
        <ele>43.897</ele>
        <time>2022-08-28T15:36:13Z</time>
      </trkpt>
      <trkpt lat="43.446004" lon="-3.871625">
        <ele>43.616</ele>
        <time>2022-08-28T15:36:15Z</time>
      </trkpt>
      <trkpt lat="43.446022" lon="-3.871568">
        <ele>43.634</ele>
        <time>2022-08-28T15:36:16Z</time>
      </trkpt>
      <trkpt lat="43.446059" lon="-3.871456">
        <ele>43.518</ele>
        <time>2022-08-28T15:36:18Z</time>
      </trkpt>
      <trkpt lat="43.446094" lon="-3.871344">
        <ele>43.597</ele>
        <time>2022-08-28T15:36:20Z</time>
      </trkpt>
      <trkpt lat="43.446129" lon="-3.871234">
        <ele>43.593</ele>
        <time>2022-08-28T15:36:22Z</time>
      </trkpt>
      <trkpt lat="43.446167" lon="-3.871127">
        <ele>44.067</ele>
        <time>2022-08-28T15:36:24Z</time>
      </trkpt>
      <trkpt lat="43.446202" lon="-3.871029">
        <ele>44.881</ele>
        <time>2022-08-28T15:36:26Z</time>
      </trkpt>
      <trkpt lat="43.446235" lon="-3.870927">
        <ele>45.219</ele>
        <time>2022-08-28T15:36:28Z</time>
      </trkpt>
      <trkpt lat="43.446260" lon="-3.870830">
        <ele>45.509</ele>
        <time>2022-08-28T15:36:30Z</time>
      </trkpt>
      <trkpt lat="43.446288" lon="-3.870733">
        <ele>45.787</ele>
        <time>2022-08-28T15:36:32Z</time>
      </trkpt>
      <trkpt lat="43.446318" lon="-3.870638">
        <ele>45.867</ele>
        <time>2022-08-28T15:36:34Z</time>
      </trkpt>
      <trkpt lat="43.446345" lon="-3.870545">
        <ele>46.058</ele>
        <time>2022-08-28T15:36:36Z</time>
      </trkpt>
      <trkpt lat="43.446373" lon="-3.870455">
        <ele>46.457</ele>
        <time>2022-08-28T15:36:38Z</time>
      </trkpt>
      <trkpt lat="43.446400" lon="-3.870362">
        <ele>46.426</ele>
        <time>2022-08-28T15:36:40Z</time>
      </trkpt>
      <trkpt lat="43.446432" lon="-3.870270">
        <ele>46.524</ele>
        <time>2022-08-28T15:36:42Z</time>
      </trkpt>
      <trkpt lat="43.446462" lon="-3.870178">
        <ele>46.588</ele>
        <time>2022-08-28T15:36:44Z</time>
      </trkpt>
      <trkpt lat="43.446490" lon="-3.870083">
        <ele>46.517</ele>
        <time>2022-08-28T15:36:46Z</time>
      </trkpt>
      <trkpt lat="43.446520" lon="-3.869991">
        <ele>46.553</ele>
        <time>2022-08-28T15:36:48Z</time>
      </trkpt>
      <trkpt lat="43.446543" lon="-3.869898">
        <ele>46.495</ele>
        <time>2022-08-28T15:36:50Z</time>
      </trkpt>
      <trkpt lat="43.446565" lon="-3.869795">
        <ele>46.349</ele>
        <time>2022-08-28T15:36:52Z</time>
      </trkpt>
      <trkpt lat="43.446595" lon="-3.869692">
        <ele>46.323</ele>
        <time>2022-08-28T15:36:54Z</time>
      </trkpt>
      <trkpt lat="43.446628" lon="-3.869589">
        <ele>46.309</ele>
        <time>2022-08-28T15:36:56Z</time>
      </trkpt>
      <trkpt lat="43.446658" lon="-3.869487">
        <ele>46.360</ele>
        <time>2022-08-28T15:36:58Z</time>
      </trkpt>
      <trkpt lat="43.446690" lon="-3.869384">
        <ele>46.320</ele>
        <time>2022-08-28T15:37:00Z</time>
      </trkpt>
      <trkpt lat="43.446723" lon="-3.869282">
        <ele>46.391</ele>
        <time>2022-08-28T15:37:02Z</time>
      </trkpt>
      <trkpt lat="43.446750" lon="-3.869185">
        <ele>46.370</ele>
        <time>2022-08-28T15:37:04Z</time>
      </trkpt>
      <trkpt lat="43.446778" lon="-3.869080">
        <ele>46.499</ele>
        <time>2022-08-28T15:37:06Z</time>
      </trkpt>
      <trkpt lat="43.446810" lon="-3.868978">
        <ele>46.587</ele>
        <time>2022-08-28T15:37:08Z</time>
      </trkpt>
      <trkpt lat="43.446843" lon="-3.868871">
        <ele>46.541</ele>
        <time>2022-08-28T15:37:10Z</time>
      </trkpt>
      <trkpt lat="43.446871" lon="-3.868763">
        <ele>46.480</ele>
        <time>2022-08-28T15:37:12Z</time>
      </trkpt>
      <trkpt lat="43.446903" lon="-3.868655">
        <ele>45.936</ele>
        <time>2022-08-28T15:37:14Z</time>
      </trkpt>
      <trkpt lat="43.446920" lon="-3.868595">
        <ele>45.976</ele>
        <time>2022-08-28T15:37:15Z</time>
      </trkpt>
      <trkpt lat="43.446947" lon="-3.868477">
        <ele>45.990</ele>
        <time>2022-08-28T15:37:17Z</time>
      </trkpt>
      <trkpt lat="43.446975" lon="-3.868365">
        <ele>46.119</ele>
        <time>2022-08-28T15:37:19Z</time>
      </trkpt>
      <trkpt lat="43.447010" lon="-3.868263">
        <ele>46.309</ele>
        <time>2022-08-28T15:37:21Z</time>
      </trkpt>
      <trkpt lat="43.447042" lon="-3.868158">
        <ele>46.858</ele>
        <time>2022-08-28T15:37:23Z</time>
      </trkpt>
      <trkpt lat="43.447075" lon="-3.868053">
        <ele>47.468</ele>
        <time>2022-08-28T15:37:25Z</time>
      </trkpt>
      <trkpt lat="43.447103" lon="-3.867951">
        <ele>48.049</ele>
        <time>2022-08-28T15:37:27Z</time>
      </trkpt>
      <trkpt lat="43.447126" lon="-3.867856">
        <ele>48.578</ele>
        <time>2022-08-28T15:37:29Z</time>
      </trkpt>
      <trkpt lat="43.447153" lon="-3.867763">
        <ele>48.627</ele>
        <time>2022-08-28T15:37:31Z</time>
      </trkpt>
      <trkpt lat="43.447180" lon="-3.867673">
        <ele>48.665</ele>
        <time>2022-08-28T15:37:33Z</time>
      </trkpt>
      <trkpt lat="43.447208" lon="-3.867578">
        <ele>48.539</ele>
        <time>2022-08-28T15:37:35Z</time>
      </trkpt>
      <trkpt lat="43.447233" lon="-3.867486">
        <ele>48.338</ele>
        <time>2022-08-28T15:37:37Z</time>
      </trkpt>
      <trkpt lat="43.447258" lon="-3.867396">
        <ele>48.284</ele>
        <time>2022-08-28T15:37:39Z</time>
      </trkpt>
      <trkpt lat="43.447283" lon="-3.867308">
        <ele>48.278</ele>
        <time>2022-08-28T15:37:41Z</time>
      </trkpt>
      <trkpt lat="43.447306" lon="-3.867228">
        <ele>48.233</ele>
        <time>2022-08-28T15:37:43Z</time>
      </trkpt>
      <trkpt lat="43.447331" lon="-3.867143">
        <ele>48.726</ele>
        <time>2022-08-28T15:37:45Z</time>
      </trkpt>
      <trkpt lat="43.447353" lon="-3.867068">
        <ele>48.709</ele>
        <time>2022-08-28T15:37:47Z</time>
      </trkpt>
      <trkpt lat="43.447376" lon="-3.867006">
        <ele>48.898</ele>
        <time>2022-08-28T15:37:49Z</time>
      </trkpt>
      <trkpt lat="43.447396" lon="-3.866923">
        <ele>48.878</ele>
        <time>2022-08-28T15:37:52Z</time>
      </trkpt>
      <trkpt lat="43.447414" lon="-3.866860">
        <ele>48.369</ele>
        <time>2022-08-28T15:37:55Z</time>
      </trkpt>
      <trkpt lat="43.447474" lon="-3.866760">
        <ele>49.998</ele>
        <time>2022-08-28T15:38:18Z</time>
      </trkpt>
      <trkpt lat="43.447461" lon="-3.866700">
        <ele>49.947</ele>
        <time>2022-08-28T15:38:21Z</time>
      </trkpt>
      <trkpt lat="43.447454" lon="-3.866638">
        <ele>49.925</ele>
        <time>2022-08-28T15:38:25Z</time>
      </trkpt>
      <trkpt lat="43.447476" lon="-3.866561">
        <ele>49.969</ele>
        <time>2022-08-28T15:38:29Z</time>
      </trkpt>
      <trkpt lat="43.447503" lon="-3.866503">
        <ele>49.978</ele>
        <time>2022-08-28T15:38:55Z</time>
      </trkpt>
      <trkpt lat="43.447528" lon="-3.866440">
        <ele>49.534</ele>
        <time>2022-08-28T15:38:58Z</time>
      </trkpt>
      <trkpt lat="43.447531" lon="-3.866363">
        <ele>49.571</ele>
        <time>2022-08-28T15:39:01Z</time>
      </trkpt>
      <trkpt lat="43.447519" lon="-3.866286">
        <ele>49.541</ele>
        <time>2022-08-28T15:39:04Z</time>
      </trkpt>
      <trkpt lat="43.447517" lon="-3.866199">
        <ele>49.515</ele>
        <time>2022-08-28T15:39:07Z</time>
      </trkpt>
      <trkpt lat="43.447522" lon="-3.866134">
        <ele>47.809</ele>
        <time>2022-08-28T15:39:09Z</time>
      </trkpt>
      <trkpt lat="43.447537" lon="-3.866049">
        <ele>47.718</ele>
        <time>2022-08-28T15:39:12Z</time>
      </trkpt>
      <trkpt lat="43.447540" lon="-3.865966">
        <ele>47.138</ele>
        <time>2022-08-28T15:39:15Z</time>
      </trkpt>
      <trkpt lat="43.447528" lon="-3.865906">
        <ele>47.239</ele>
        <time>2022-08-28T15:39:18Z</time>
      </trkpt>
      <trkpt lat="43.447481" lon="-3.865813">
        <ele>47.198</ele>
        <time>2022-08-28T15:40:13Z</time>
      </trkpt>
      <trkpt lat="43.447469" lon="-3.865890">
        <ele>47.197</ele>
        <time>2022-08-28T15:40:18Z</time>
      </trkpt>
      <trkpt lat="43.447322" lon="-3.865832">
        <ele>44.325</ele>
        <time>2022-08-28T15:46:06Z</time>
      </trkpt>
      <trkpt lat="43.447337" lon="-3.865712">
        <ele>44.319</ele>
        <time>2022-08-28T15:46:10Z</time>
      </trkpt>
      <trkpt lat="43.447364" lon="-3.865635">
        <ele>44.358</ele>
        <time>2022-08-28T15:46:12Z</time>
      </trkpt>
      <trkpt lat="43.447364" lon="-3.865502">
        <ele>46.424</ele>
        <time>2022-08-28T15:46:25Z</time>
      </trkpt>
      <trkpt lat="43.447392" lon="-3.865939">
        <ele>51.816</ele>
        <time>2022-08-28T15:46:54Z</time>
      </trkpt>
      <trkpt lat="43.447479" lon="-3.865796">
        <ele>32.176</ele>
        <time>2022-08-28T15:47:14Z</time>
      </trkpt>
      <trkpt lat="43.447497" lon="-3.866044">
        <ele>33.913</ele>
        <time>2022-08-28T15:47:22Z</time>
      </trkpt>
      <trkpt lat="43.447452" lon="-3.865972">
        <ele>33.909</ele>
        <time>2022-08-28T15:47:24Z</time>
      </trkpt>
      <trkpt lat="43.447410" lon="-3.865939">
        <ele>33.942</ele>
        <time>2022-08-28T15:47:26Z</time>
      </trkpt>
      <trkpt lat="43.447513" lon="-3.865981">
        <ele>34.652</ele>
        <time>2022-08-28T15:47:35Z</time>
      </trkpt>
      <trkpt lat="43.447553" lon="-3.866034">
        <ele>34.613</ele>
        <time>2022-08-28T15:47:39Z</time>
      </trkpt>
      <trkpt lat="43.447793" lon="-3.865899">
        <ele>34.512</ele>
        <time>2022-08-28T15:50:15Z</time>
      </trkpt>
      <trkpt lat="43.447615" lon="-3.865992">
        <ele>19.141</ele>
        <time>2022-08-28T15:57:12Z</time>
      </trkpt>
      <trkpt lat="43.447560" lon="-3.865992">
        <ele>18.939</ele>
        <time>2022-08-28T15:57:14Z</time>
      </trkpt>
      <trkpt lat="43.447453" lon="-3.865870">
        <ele>41.063</ele>
        <time>2022-08-28T16:10:23Z</time>
      </trkpt>
      <trkpt lat="43.447475" lon="-3.865805">
        <ele>41.082</ele>
        <time>2022-08-28T16:10:25Z</time>
      </trkpt>
      <trkpt lat="43.447517" lon="-3.865748">
        <ele>41.068</ele>
        <time>2022-08-28T16:10:27Z</time>
      </trkpt>
      <trkpt lat="43.447562" lon="-3.865695">
        <ele>41.034</ele>
        <time>2022-08-28T16:10:29Z</time>
      </trkpt>
      <trkpt lat="43.447610" lon="-3.865640">
        <ele>41.055</ele>
        <time>2022-08-28T16:10:31Z</time>
      </trkpt>
      <trkpt lat="43.447658" lon="-3.865580">
        <ele>42.610</ele>
        <time>2022-08-28T16:10:33Z</time>
      </trkpt>
      <trkpt lat="43.447700" lon="-3.865522">
        <ele>43.609</ele>
        <time>2022-08-28T16:10:35Z</time>
      </trkpt>
      <trkpt lat="43.447732" lon="-3.865454">
        <ele>44.794</ele>
        <time>2022-08-28T16:10:37Z</time>
      </trkpt>
      <trkpt lat="43.447750" lon="-3.865376">
        <ele>45.394</ele>
        <time>2022-08-28T16:10:39Z</time>
      </trkpt>
      <trkpt lat="43.447777" lon="-3.865288">
        <ele>45.955</ele>
        <time>2022-08-28T16:10:41Z</time>
      </trkpt>
      <trkpt lat="43.447805" lon="-3.865196">
        <ele>45.984</ele>
        <time>2022-08-28T16:10:43Z</time>
      </trkpt>
      <trkpt lat="43.447832" lon="-3.865111">
        <ele>46.113</ele>
        <time>2022-08-28T16:10:45Z</time>
      </trkpt>
      <trkpt lat="43.447852" lon="-3.865034">
        <ele>46.251</ele>
        <time>2022-08-28T16:10:47Z</time>
      </trkpt>
      <trkpt lat="43.447865" lon="-3.864947">
        <ele>46.425</ele>
        <time>2022-08-28T16:10:49Z</time>
      </trkpt>
      <trkpt lat="43.447865" lon="-3.864855">
        <ele>46.574</ele>
        <time>2022-08-28T16:10:51Z</time>
      </trkpt>
      <trkpt lat="43.447852" lon="-3.864768">
        <ele>46.550</ele>
        <time>2022-08-28T16:10:53Z</time>
      </trkpt>
      <trkpt lat="43.447830" lon="-3.864693">
        <ele>46.926</ele>
        <time>2022-08-28T16:10:55Z</time>
      </trkpt>
      <trkpt lat="43.447830" lon="-3.864623">
        <ele>47.447</ele>
        <time>2022-08-28T16:10:57Z</time>
      </trkpt>
      <trkpt lat="43.447842" lon="-3.864556">
        <ele>47.911</ele>
        <time>2022-08-28T16:10:59Z</time>
      </trkpt>
      <trkpt lat="43.447865" lon="-3.864488">
        <ele>48.709</ele>
        <time>2022-08-28T16:11:01Z</time>
      </trkpt>
      <trkpt lat="43.447895" lon="-3.864438">
        <ele>49.363</ele>
        <time>2022-08-28T16:11:03Z</time>
      </trkpt>
      <trkpt lat="43.447948" lon="-3.864393">
        <ele>49.813</ele>
        <time>2022-08-28T16:11:06Z</time>
      </trkpt>
      <trkpt lat="43.448006" lon="-3.864383">
        <ele>50.394</ele>
        <time>2022-08-28T16:11:09Z</time>
      </trkpt>
      <trkpt lat="43.448061" lon="-3.864390">
        <ele>50.343</ele>
        <time>2022-08-28T16:11:11Z</time>
      </trkpt>
      <trkpt lat="43.448126" lon="-3.864392">
        <ele>50.392</ele>
        <time>2022-08-28T16:11:13Z</time>
      </trkpt>
      <trkpt lat="43.448199" lon="-3.864379">
        <ele>50.030</ele>
        <time>2022-08-28T16:11:15Z</time>
      </trkpt>
      <trkpt lat="43.448271" lon="-3.864336">
        <ele>48.184</ele>
        <time>2022-08-28T16:11:17Z</time>
      </trkpt>
      <trkpt lat="43.448338" lon="-3.864294">
        <ele>46.463</ele>
        <time>2022-08-28T16:11:19Z</time>
      </trkpt>
      <trkpt lat="43.448403" lon="-3.864237">
        <ele>46.289</ele>
        <time>2022-08-28T16:11:21Z</time>
      </trkpt>
      <trkpt lat="43.448466" lon="-3.864159">
        <ele>46.012</ele>
        <time>2022-08-28T16:11:23Z</time>
      </trkpt>
      <trkpt lat="43.448503" lon="-3.864116">
        <ele>46.032</ele>
        <time>2022-08-28T16:11:24Z</time>
      </trkpt>
      <trkpt lat="43.448568" lon="-3.864019">
        <ele>46.005</ele>
        <time>2022-08-28T16:11:26Z</time>
      </trkpt>
      <trkpt lat="43.448605" lon="-3.863969">
        <ele>46.109</ele>
        <time>2022-08-28T16:11:27Z</time>
      </trkpt>
      <trkpt lat="43.448640" lon="-3.863921">
        <ele>46.142</ele>
        <time>2022-08-28T16:11:28Z</time>
      </trkpt>
      <trkpt lat="43.448675" lon="-3.863866">
        <ele>46.162</ele>
        <time>2022-08-28T16:11:29Z</time>
      </trkpt>
      <trkpt lat="43.448743" lon="-3.863741">
        <ele>46.193</ele>
        <time>2022-08-28T16:11:31Z</time>
      </trkpt>
      <trkpt lat="43.448780" lon="-3.863681">
        <ele>46.022</ele>
        <time>2022-08-28T16:11:32Z</time>
      </trkpt>
      <trkpt lat="43.448858" lon="-3.863553">
        <ele>44.961</ele>
        <time>2022-08-28T16:11:34Z</time>
      </trkpt>
      <trkpt lat="43.448940" lon="-3.863416">
        <ele>44.589</ele>
        <time>2022-08-28T16:11:36Z</time>
      </trkpt>
      <trkpt lat="43.448978" lon="-3.863348">
        <ele>44.283</ele>
        <time>2022-08-28T16:11:37Z</time>
      </trkpt>
      <trkpt lat="43.449020" lon="-3.863285">
        <ele>43.792</ele>
        <time>2022-08-28T16:11:38Z</time>
      </trkpt>
      <trkpt lat="43.449100" lon="-3.863140">
        <ele>42.978</ele>
        <time>2022-08-28T16:11:40Z</time>
      </trkpt>
      <trkpt lat="43.449180" lon="-3.862985">
        <ele>42.199</ele>
        <time>2022-08-28T16:11:42Z</time>
      </trkpt>
      <trkpt lat="43.449225" lon="-3.862907">
        <ele>41.807</ele>
        <time>2022-08-28T16:11:43Z</time>
      </trkpt>
      <trkpt lat="43.449313" lon="-3.862749">
        <ele>41.127</ele>
        <time>2022-08-28T16:11:45Z</time>
      </trkpt>
      <trkpt lat="43.449358" lon="-3.862666">
        <ele>40.609</ele>
        <time>2022-08-28T16:11:46Z</time>
      </trkpt>
      <trkpt lat="43.449453" lon="-3.862494">
        <ele>39.790</ele>
        <time>2022-08-28T16:11:48Z</time>
      </trkpt>
      <trkpt lat="43.449550" lon="-3.862309">
        <ele>38.670</ele>
        <time>2022-08-28T16:11:50Z</time>
      </trkpt>
      <trkpt lat="43.449655" lon="-3.862126">
        <ele>38.041</ele>
        <time>2022-08-28T16:11:52Z</time>
      </trkpt>
      <trkpt lat="43.449703" lon="-3.862029">
        <ele>37.760</ele>
        <time>2022-08-28T16:11:53Z</time>
      </trkpt>
      <trkpt lat="43.449795" lon="-3.861834">
        <ele>36.799</ele>
        <time>2022-08-28T16:11:55Z</time>
      </trkpt>
      <trkpt lat="43.449837" lon="-3.861739">
        <ele>36.477</ele>
        <time>2022-08-28T16:11:56Z</time>
      </trkpt>
      <trkpt lat="43.449877" lon="-3.861644">
        <ele>36.081</ele>
        <time>2022-08-28T16:11:57Z</time>
      </trkpt>
      <trkpt lat="43.449917" lon="-3.861546">
        <ele>35.440</ele>
        <time>2022-08-28T16:11:58Z</time>
      </trkpt>
      <trkpt lat="43.449990" lon="-3.861351">
        <ele>34.476</ele>
        <time>2022-08-28T16:12:00Z</time>
      </trkpt>
      <trkpt lat="43.450060" lon="-3.861164">
        <ele>33.841</ele>
        <time>2022-08-28T16:12:02Z</time>
      </trkpt>
      <trkpt lat="43.450093" lon="-3.861072">
        <ele>33.681</ele>
        <time>2022-08-28T16:12:03Z</time>
      </trkpt>
      <trkpt lat="43.450123" lon="-3.860982">
        <ele>33.409</ele>
        <time>2022-08-28T16:12:04Z</time>
      </trkpt>
      <trkpt lat="43.450186" lon="-3.860805">
        <ele>32.809</ele>
        <time>2022-08-28T16:12:06Z</time>
      </trkpt>
      <trkpt lat="43.450248" lon="-3.860640">
        <ele>32.555</ele>
        <time>2022-08-28T16:12:08Z</time>
      </trkpt>
      <trkpt lat="43.450305" lon="-3.860488">
        <ele>32.425</ele>
        <time>2022-08-28T16:12:10Z</time>
      </trkpt>
      <trkpt lat="43.450332" lon="-3.860413">
        <ele>32.316</ele>
        <time>2022-08-28T16:12:11Z</time>
      </trkpt>
      <trkpt lat="43.450357" lon="-3.860338">
        <ele>32.385</ele>
        <time>2022-08-28T16:12:12Z</time>
      </trkpt>
      <trkpt lat="43.450379" lon="-3.860263">
        <ele>32.044</ele>
        <time>2022-08-28T16:12:13Z</time>
      </trkpt>
      <trkpt lat="43.450426" lon="-3.860116">
        <ele>31.952</ele>
        <time>2022-08-28T16:12:15Z</time>
      </trkpt>
      <trkpt lat="43.450478" lon="-3.859974">
        <ele>31.596</ele>
        <time>2022-08-28T16:12:17Z</time>
      </trkpt>
      <trkpt lat="43.450530" lon="-3.859836">
        <ele>31.415</ele>
        <time>2022-08-28T16:12:19Z</time>
      </trkpt>
      <trkpt lat="43.450583" lon="-3.859698">
        <ele>31.481</ele>
        <time>2022-08-28T16:12:21Z</time>
      </trkpt>
      <trkpt lat="43.450636" lon="-3.859556">
        <ele>31.524</ele>
        <time>2022-08-28T16:12:23Z</time>
      </trkpt>
      <trkpt lat="43.450686" lon="-3.859413">
        <ele>31.404</ele>
        <time>2022-08-28T16:12:25Z</time>
      </trkpt>
      <trkpt lat="43.450713" lon="-3.859343">
        <ele>31.414</ele>
        <time>2022-08-28T16:12:26Z</time>
      </trkpt>
      <trkpt lat="43.450738" lon="-3.859271">
        <ele>31.109</ele>
        <time>2022-08-28T16:12:27Z</time>
      </trkpt>
      <trkpt lat="43.450765" lon="-3.859198">
        <ele>31.123</ele>
        <time>2022-08-28T16:12:28Z</time>
      </trkpt>
      <trkpt lat="43.450817" lon="-3.859051">
        <ele>30.853</ele>
        <time>2022-08-28T16:12:30Z</time>
      </trkpt>
      <trkpt lat="43.450842" lon="-3.858976">
        <ele>30.694</ele>
        <time>2022-08-28T16:12:31Z</time>
      </trkpt>
      <trkpt lat="43.450897" lon="-3.858828">
        <ele>30.483</ele>
        <time>2022-08-28T16:12:33Z</time>
      </trkpt>
      <trkpt lat="43.450950" lon="-3.858683">
        <ele>30.472</ele>
        <time>2022-08-28T16:12:35Z</time>
      </trkpt>
      <trkpt lat="43.450977" lon="-3.858613">
        <ele>30.590</ele>
        <time>2022-08-28T16:12:36Z</time>
      </trkpt>
      <trkpt lat="43.451004" lon="-3.858545">
        <ele>30.634</ele>
        <time>2022-08-28T16:12:37Z</time>
      </trkpt>
      <trkpt lat="43.451029" lon="-3.858477">
        <ele>30.693</ele>
        <time>2022-08-28T16:12:38Z</time>
      </trkpt>
      <trkpt lat="43.451081" lon="-3.858340">
        <ele>30.659</ele>
        <time>2022-08-28T16:12:40Z</time>
      </trkpt>
      <trkpt lat="43.451128" lon="-3.858210">
        <ele>30.562</ele>
        <time>2022-08-28T16:12:42Z</time>
      </trkpt>
      <trkpt lat="43.451158" lon="-3.858147">
        <ele>30.583</ele>
        <time>2022-08-28T16:12:43Z</time>
      </trkpt>
      <trkpt lat="43.451205" lon="-3.858019">
        <ele>30.511</ele>
        <time>2022-08-28T16:12:45Z</time>
      </trkpt>
      <trkpt lat="43.451225" lon="-3.857954">
        <ele>30.509</ele>
        <time>2022-08-28T16:12:46Z</time>
      </trkpt>
      <trkpt lat="43.451270" lon="-3.857827">
        <ele>30.687</ele>
        <time>2022-08-28T16:12:48Z</time>
      </trkpt>
      <trkpt lat="43.451307" lon="-3.857695">
        <ele>30.737</ele>
        <time>2022-08-28T16:12:50Z</time>
      </trkpt>
      <trkpt lat="43.451329" lon="-3.857632">
        <ele>30.848</ele>
        <time>2022-08-28T16:12:51Z</time>
      </trkpt>
      <trkpt lat="43.451369" lon="-3.857505">
        <ele>30.897</ele>
        <time>2022-08-28T16:12:53Z</time>
      </trkpt>
      <trkpt lat="43.451389" lon="-3.857445">
        <ele>30.886</ele>
        <time>2022-08-28T16:12:54Z</time>
      </trkpt>
      <trkpt lat="43.451409" lon="-3.857385">
        <ele>30.864</ele>
        <time>2022-08-28T16:12:55Z</time>
      </trkpt>
      <trkpt lat="43.451427" lon="-3.857325">
        <ele>30.838</ele>
        <time>2022-08-28T16:12:56Z</time>
      </trkpt>
      <trkpt lat="43.451474" lon="-3.857210">
        <ele>31.327</ele>
        <time>2022-08-28T16:12:58Z</time>
      </trkpt>
      <trkpt lat="43.451514" lon="-3.857098">
        <ele>31.923</ele>
        <time>2022-08-28T16:13:00Z</time>
      </trkpt>
      <trkpt lat="43.451536" lon="-3.857040">
        <ele>32.447</ele>
        <time>2022-08-28T16:13:01Z</time>
      </trkpt>
      <trkpt lat="43.451573" lon="-3.856923">
        <ele>33.329</ele>
        <time>2022-08-28T16:13:03Z</time>
      </trkpt>
      <trkpt lat="43.451610" lon="-3.856806">
        <ele>33.721</ele>
        <time>2022-08-28T16:13:05Z</time>
      </trkpt>
      <trkpt lat="43.451625" lon="-3.856743">
        <ele>33.809</ele>
        <time>2022-08-28T16:13:06Z</time>
      </trkpt>
      <trkpt lat="43.451662" lon="-3.856620">
        <ele>33.875</ele>
        <time>2022-08-28T16:13:08Z</time>
      </trkpt>
      <trkpt lat="43.451679" lon="-3.856558">
        <ele>33.945</ele>
        <time>2022-08-28T16:13:09Z</time>
      </trkpt>
      <trkpt lat="43.451714" lon="-3.856431">
        <ele>34.016</ele>
        <time>2022-08-28T16:13:11Z</time>
      </trkpt>
      <trkpt lat="43.451734" lon="-3.856366">
        <ele>34.065</ele>
        <time>2022-08-28T16:13:12Z</time>
      </trkpt>
      <trkpt lat="43.451752" lon="-3.856301">
        <ele>34.044</ele>
        <time>2022-08-28T16:13:13Z</time>
      </trkpt>
      <trkpt lat="43.451784" lon="-3.856179">
        <ele>33.992</ele>
        <time>2022-08-28T16:13:15Z</time>
      </trkpt>
      <trkpt lat="43.451821" lon="-3.856056">
        <ele>33.466</ele>
        <time>2022-08-28T16:13:17Z</time>
      </trkpt>
      <trkpt lat="43.451838" lon="-3.855993">
        <ele>33.295</ele>
        <time>2022-08-28T16:13:18Z</time>
      </trkpt>
      <trkpt lat="43.451870" lon="-3.855863">
        <ele>32.891</ele>
        <time>2022-08-28T16:13:20Z</time>
      </trkpt>
      <trkpt lat="43.451905" lon="-3.855731">
        <ele>32.789</ele>
        <time>2022-08-28T16:13:22Z</time>
      </trkpt>
      <trkpt lat="43.451935" lon="-3.855594">
        <ele>32.806</ele>
        <time>2022-08-28T16:13:24Z</time>
      </trkpt>
      <trkpt lat="43.451950" lon="-3.855529">
        <ele>33.126</ele>
        <time>2022-08-28T16:13:25Z</time>
      </trkpt>
      <trkpt lat="43.451985" lon="-3.855397">
        <ele>33.909</ele>
        <time>2022-08-28T16:13:27Z</time>
      </trkpt>
      <trkpt lat="43.452002" lon="-3.855332">
        <ele>34.269</ele>
        <time>2022-08-28T16:13:28Z</time>
      </trkpt>
      <trkpt lat="43.452022" lon="-3.855272">
        <ele>34.459</ele>
        <time>2022-08-28T16:13:29Z</time>
      </trkpt>
      <trkpt lat="43.452060" lon="-3.855154">
        <ele>34.430</ele>
        <time>2022-08-28T16:13:31Z</time>
      </trkpt>
      <trkpt lat="43.452090" lon="-3.855044">
        <ele>34.419</ele>
        <time>2022-08-28T16:13:33Z</time>
      </trkpt>
      <trkpt lat="43.452118" lon="-3.854941">
        <ele>34.238</ele>
        <time>2022-08-28T16:13:35Z</time>
      </trkpt>
      <trkpt lat="43.452146" lon="-3.854836">
        <ele>33.956</ele>
        <time>2022-08-28T16:13:37Z</time>
      </trkpt>
      <trkpt lat="43.452176" lon="-3.854733">
        <ele>33.950</ele>
        <time>2022-08-28T16:13:39Z</time>
      </trkpt>
      <trkpt lat="43.452206" lon="-3.854628">
        <ele>33.969</ele>
        <time>2022-08-28T16:13:41Z</time>
      </trkpt>
      <trkpt lat="43.452238" lon="-3.854521">
        <ele>34.275</ele>
        <time>2022-08-28T16:13:43Z</time>
      </trkpt>
      <trkpt lat="43.452268" lon="-3.854411">
        <ele>34.234</ele>
        <time>2022-08-28T16:13:45Z</time>
      </trkpt>
      <trkpt lat="43.452286" lon="-3.854354">
        <ele>34.255</ele>
        <time>2022-08-28T16:13:46Z</time>
      </trkpt>
      <trkpt lat="43.452304" lon="-3.854297">
        <ele>33.910</ele>
        <time>2022-08-28T16:13:47Z</time>
      </trkpt>
      <trkpt lat="43.452337" lon="-3.854184">
        <ele>33.509</ele>
        <time>2022-08-28T16:13:49Z</time>
      </trkpt>
      <trkpt lat="43.452369" lon="-3.854071">
        <ele>33.474</ele>
        <time>2022-08-28T16:13:51Z</time>
      </trkpt>
      <trkpt lat="43.452399" lon="-3.853961">
        <ele>33.454</ele>
        <time>2022-08-28T16:13:53Z</time>
      </trkpt>
      <trkpt lat="43.452434" lon="-3.853848">
        <ele>33.395</ele>
        <time>2022-08-28T16:13:55Z</time>
      </trkpt>
      <trkpt lat="43.452466" lon="-3.853738">
        <ele>33.224</ele>
        <time>2022-08-28T16:13:57Z</time>
      </trkpt>
      <trkpt lat="43.452499" lon="-3.853635">
        <ele>33.173</ele>
        <time>2022-08-28T16:13:59Z</time>
      </trkpt>
      <trkpt lat="43.452527" lon="-3.853537">
        <ele>33.061</ele>
        <time>2022-08-28T16:14:01Z</time>
      </trkpt>
      <trkpt lat="43.452554" lon="-3.853442">
        <ele>32.955</ele>
        <time>2022-08-28T16:14:03Z</time>
      </trkpt>
      <trkpt lat="43.452577" lon="-3.853354">
        <ele>33.024</ele>
        <time>2022-08-28T16:14:05Z</time>
      </trkpt>
      <trkpt lat="43.452600" lon="-3.853277">
        <ele>33.020</ele>
        <time>2022-08-28T16:14:07Z</time>
      </trkpt>
      <trkpt lat="43.452620" lon="-3.853204">
        <ele>32.933</ele>
        <time>2022-08-28T16:14:09Z</time>
      </trkpt>
      <trkpt lat="43.452638" lon="-3.853126">
        <ele>33.023</ele>
        <time>2022-08-28T16:14:11Z</time>
      </trkpt>
      <trkpt lat="43.452658" lon="-3.853048">
        <ele>33.115</ele>
        <time>2022-08-28T16:14:13Z</time>
      </trkpt>
      <trkpt lat="43.452678" lon="-3.852973">
        <ele>33.109</ele>
        <time>2022-08-28T16:14:15Z</time>
      </trkpt>
      <trkpt lat="43.452693" lon="-3.852898">
        <ele>33.444</ele>
        <time>2022-08-28T16:14:17Z</time>
      </trkpt>
      <trkpt lat="43.452710" lon="-3.852825">
        <ele>33.894</ele>
        <time>2022-08-28T16:14:19Z</time>
      </trkpt>
      <trkpt lat="43.452732" lon="-3.852755">
        <ele>34.265</ele>
        <time>2022-08-28T16:14:21Z</time>
      </trkpt>
      <trkpt lat="43.452749" lon="-3.852685">
        <ele>34.614</ele>
        <time>2022-08-28T16:14:23Z</time>
      </trkpt>
      <trkpt lat="43.452762" lon="-3.852613">
        <ele>35.353</ele>
        <time>2022-08-28T16:14:25Z</time>
      </trkpt>
      <trkpt lat="43.452767" lon="-3.852543">
        <ele>36.031</ele>
        <time>2022-08-28T16:14:27Z</time>
      </trkpt>
      <trkpt lat="43.452780" lon="-3.852473">
        <ele>36.625</ele>
        <time>2022-08-28T16:14:29Z</time>
      </trkpt>
      <trkpt lat="43.452795" lon="-3.852401">
        <ele>37.484</ele>
        <time>2022-08-28T16:14:31Z</time>
      </trkpt>
      <trkpt lat="43.452810" lon="-3.852329">
        <ele>38.040</ele>
        <time>2022-08-28T16:14:33Z</time>
      </trkpt>
      <trkpt lat="43.452830" lon="-3.852252">
        <ele>38.136</ele>
        <time>2022-08-28T16:14:35Z</time>
      </trkpt>
      <trkpt lat="43.452843" lon="-3.852175">
        <ele>38.317</ele>
        <time>2022-08-28T16:14:37Z</time>
      </trkpt>
      <trkpt lat="43.452856" lon="-3.852097">
        <ele>38.418</ele>
        <time>2022-08-28T16:14:39Z</time>
      </trkpt>
      <trkpt lat="43.452873" lon="-3.852019">
        <ele>39.009</ele>
        <time>2022-08-28T16:14:41Z</time>
      </trkpt>
      <trkpt lat="43.452893" lon="-3.851936">
        <ele>39.344</ele>
        <time>2022-08-28T16:14:43Z</time>
      </trkpt>
      <trkpt lat="43.452908" lon="-3.851851">
        <ele>39.754</ele>
        <time>2022-08-28T16:14:45Z</time>
      </trkpt>
      <trkpt lat="43.452920" lon="-3.851759">
        <ele>39.775</ele>
        <time>2022-08-28T16:14:47Z</time>
      </trkpt>
      <trkpt lat="43.452930" lon="-3.851662">
        <ele>39.794</ele>
        <time>2022-08-28T16:14:49Z</time>
      </trkpt>
      <trkpt lat="43.452945" lon="-3.851559">
        <ele>39.433</ele>
        <time>2022-08-28T16:14:51Z</time>
      </trkpt>
      <trkpt lat="43.452957" lon="-3.851441">
        <ele>39.331</ele>
        <time>2022-08-28T16:14:53Z</time>
      </trkpt>
      <trkpt lat="43.452962" lon="-3.851373">
        <ele>39.265</ele>
        <time>2022-08-28T16:14:54Z</time>
      </trkpt>
      <trkpt lat="43.452977" lon="-3.851220">
        <ele>38.164</ele>
        <time>2022-08-28T16:14:56Z</time>
      </trkpt>
      <trkpt lat="43.452985" lon="-3.851135">
        <ele>37.410</ele>
        <time>2022-08-28T16:14:57Z</time>
      </trkpt>
      <trkpt lat="43.453002" lon="-3.850947">
        <ele>36.147</ele>
        <time>2022-08-28T16:14:59Z</time>
      </trkpt>
      <trkpt lat="43.453020" lon="-3.850727">
        <ele>34.229</ele>
        <time>2022-08-28T16:15:01Z</time>
      </trkpt>
      <trkpt lat="43.453052" lon="-3.850480">
        <ele>32.021</ele>
        <time>2022-08-28T16:15:03Z</time>
      </trkpt>
      <trkpt lat="43.453070" lon="-3.850343">
        <ele>30.909</ele>
        <time>2022-08-28T16:15:04Z</time>
      </trkpt>
      <trkpt lat="43.453092" lon="-3.850201">
        <ele>29.395</ele>
        <time>2022-08-28T16:15:05Z</time>
      </trkpt>
      <trkpt lat="43.453117" lon="-3.850059">
        <ele>28.225</ele>
        <time>2022-08-28T16:15:06Z</time>
      </trkpt>
      <trkpt lat="43.453170" lon="-3.849767">
        <ele>25.866</ele>
        <time>2022-08-28T16:15:08Z</time>
      </trkpt>
      <trkpt lat="43.453197" lon="-3.849620">
        <ele>24.525</ele>
        <time>2022-08-28T16:15:09Z</time>
      </trkpt>
      <trkpt lat="43.453250" lon="-3.849312">
        <ele>22.174</ele>
        <time>2022-08-28T16:15:11Z</time>
      </trkpt>
      <trkpt lat="43.453278" lon="-3.849157">
        <ele>21.262</ele>
        <time>2022-08-28T16:15:12Z</time>
      </trkpt>
      <trkpt lat="43.453330" lon="-3.848857">
        <ele>19.976</ele>
        <time>2022-08-28T16:15:14Z</time>
      </trkpt>
      <trkpt lat="43.453355" lon="-3.848717">
        <ele>19.255</ele>
        <time>2022-08-28T16:15:15Z</time>
      </trkpt>
      <trkpt lat="43.453402" lon="-3.848449">
        <ele>18.621</ele>
        <time>2022-08-28T16:15:17Z</time>
      </trkpt>
      <trkpt lat="43.453450" lon="-3.848197">
        <ele>18.446</ele>
        <time>2022-08-28T16:15:19Z</time>
      </trkpt>
      <trkpt lat="43.453492" lon="-3.847967">
        <ele>18.088</ele>
        <time>2022-08-28T16:15:21Z</time>
      </trkpt>
      <trkpt lat="43.453510" lon="-3.847859">
        <ele>17.816</ele>
        <time>2022-08-28T16:15:22Z</time>
      </trkpt>
      <trkpt lat="43.453547" lon="-3.847649">
        <ele>17.209</ele>
        <time>2022-08-28T16:15:24Z</time>
      </trkpt>
      <trkpt lat="43.453584" lon="-3.847454">
        <ele>17.075</ele>
        <time>2022-08-28T16:15:26Z</time>
      </trkpt>
      <trkpt lat="43.453601" lon="-3.847362">
        <ele>16.955</ele>
        <time>2022-08-28T16:15:27Z</time>
      </trkpt>
      <trkpt lat="43.453634" lon="-3.847190">
        <ele>16.856</ele>
        <time>2022-08-28T16:15:29Z</time>
      </trkpt>
      <trkpt lat="43.453649" lon="-3.847108">
        <ele>16.985</ele>
        <time>2022-08-28T16:15:30Z</time>
      </trkpt>
      <trkpt lat="43.453684" lon="-3.846956">
        <ele>17.044</ele>
        <time>2022-08-28T16:15:32Z</time>
      </trkpt>
      <trkpt lat="43.453696" lon="-3.846886">
        <ele>17.132</ele>
        <time>2022-08-28T16:15:33Z</time>
      </trkpt>
      <trkpt lat="43.453718" lon="-3.846753">
        <ele>17.346</ele>
        <time>2022-08-28T16:15:35Z</time>
      </trkpt>
      <trkpt lat="43.453733" lon="-3.846658">
        <ele>17.135</ele>
        <time>2022-08-28T16:15:37Z</time>
      </trkpt>
      <trkpt lat="43.453783" lon="-3.846585">
        <ele>16.291</ele>
        <time>2022-08-28T16:16:30Z</time>
      </trkpt>
      <trkpt lat="43.453778" lon="-3.846510">
        <ele>16.249</ele>
        <time>2022-08-28T16:16:32Z</time>
      </trkpt>
      <trkpt lat="43.453786" lon="-3.846422">
        <ele>16.202</ele>
        <time>2022-08-28T16:16:34Z</time>
      </trkpt>
      <trkpt lat="43.453803" lon="-3.846312">
        <ele>16.222</ele>
        <time>2022-08-28T16:16:36Z</time>
      </trkpt>
      <trkpt lat="43.453818" lon="-3.846195">
        <ele>16.909</ele>
        <time>2022-08-28T16:16:38Z</time>
      </trkpt>
      <trkpt lat="43.453825" lon="-3.846133">
        <ele>16.845</ele>
        <time>2022-08-28T16:16:39Z</time>
      </trkpt>
      <trkpt lat="43.453830" lon="-3.846070">
        <ele>16.455</ele>
        <time>2022-08-28T16:16:40Z</time>
      </trkpt>
      <trkpt lat="43.453855" lon="-3.845938">
        <ele>15.796</ele>
        <time>2022-08-28T16:16:42Z</time>
      </trkpt>
      <trkpt lat="43.453870" lon="-3.845871">
        <ele>15.465</ele>
        <time>2022-08-28T16:16:43Z</time>
      </trkpt>
      <trkpt lat="43.453883" lon="-3.845803">
        <ele>15.244</ele>
        <time>2022-08-28T16:16:44Z</time>
      </trkpt>
      <trkpt lat="43.453896" lon="-3.845731">
        <ele>14.982</ele>
        <time>2022-08-28T16:16:45Z</time>
      </trkpt>
      <trkpt lat="43.453911" lon="-3.845663">
        <ele>14.596</ele>
        <time>2022-08-28T16:16:46Z</time>
      </trkpt>
      <trkpt lat="43.453941" lon="-3.845523">
        <ele>14.145</ele>
        <time>2022-08-28T16:16:48Z</time>
      </trkpt>
      <trkpt lat="43.453956" lon="-3.845453">
        <ele>13.911</ele>
        <time>2022-08-28T16:16:49Z</time>
      </trkpt>
      <trkpt lat="43.453991" lon="-3.845310">
        <ele>13.816</ele>
        <time>2022-08-28T16:16:51Z</time>
      </trkpt>
      <trkpt lat="43.454018" lon="-3.845163">
        <ele>13.876</ele>
        <time>2022-08-28T16:16:53Z</time>
      </trkpt>
      <trkpt lat="43.454030" lon="-3.845086">
        <ele>13.813</ele>
        <time>2022-08-28T16:16:54Z</time>
      </trkpt>
      <trkpt lat="43.454058" lon="-3.844938">
        <ele>13.809</ele>
        <time>2022-08-28T16:16:56Z</time>
      </trkpt>
      <trkpt lat="43.454081" lon="-3.844793">
        <ele>13.342</ele>
        <time>2022-08-28T16:16:58Z</time>
      </trkpt>
      <trkpt lat="43.454103" lon="-3.844653">
        <ele>12.852</ele>
        <time>2022-08-28T16:17:00Z</time>
      </trkpt>
      <trkpt lat="43.454128" lon="-3.844508">
        <ele>12.373</ele>
        <time>2022-08-28T16:17:02Z</time>
      </trkpt>
      <trkpt lat="43.454143" lon="-3.844435">
        <ele>11.982</ele>
        <time>2022-08-28T16:17:03Z</time>
      </trkpt>
      <trkpt lat="43.454156" lon="-3.844360">
        <ele>11.731</ele>
        <time>2022-08-28T16:17:04Z</time>
      </trkpt>
      <trkpt lat="43.454179" lon="-3.844208">
        <ele>11.739</ele>
        <time>2022-08-28T16:17:06Z</time>
      </trkpt>
      <trkpt lat="43.454206" lon="-3.844056">
        <ele>11.743</ele>
        <time>2022-08-28T16:17:08Z</time>
      </trkpt>
      <trkpt lat="43.454218" lon="-3.843979">
        <ele>11.782</ele>
        <time>2022-08-28T16:17:09Z</time>
      </trkpt>
      <trkpt lat="43.454245" lon="-3.843822">
        <ele>11.338</ele>
        <time>2022-08-28T16:17:11Z</time>
      </trkpt>
      <trkpt lat="43.454260" lon="-3.843745">
        <ele>11.318</ele>
        <time>2022-08-28T16:17:12Z</time>
      </trkpt>
      <trkpt lat="43.454275" lon="-3.843670">
        <ele>11.498</ele>
        <time>2022-08-28T16:17:13Z</time>
      </trkpt>
      <trkpt lat="43.454288" lon="-3.843595">
        <ele>11.717</ele>
        <time>2022-08-28T16:17:14Z</time>
      </trkpt>
      <trkpt lat="43.454315" lon="-3.843443">
        <ele>12.109</ele>
        <time>2022-08-28T16:17:16Z</time>
      </trkpt>
      <trkpt lat="43.454345" lon="-3.843293">
        <ele>12.312</ele>
        <time>2022-08-28T16:17:18Z</time>
      </trkpt>
      <trkpt lat="43.454360" lon="-3.843218">
        <ele>12.372</ele>
        <time>2022-08-28T16:17:19Z</time>
      </trkpt>
      <trkpt lat="43.454375" lon="-3.843146">
        <ele>12.393</ele>
        <time>2022-08-28T16:17:20Z</time>
      </trkpt>
      <trkpt lat="43.454390" lon="-3.843074">
        <ele>12.372</ele>
        <time>2022-08-28T16:17:21Z</time>
      </trkpt>
      <trkpt lat="43.454415" lon="-3.842926">
        <ele>11.841</ele>
        <time>2022-08-28T16:17:23Z</time>
      </trkpt>
      <trkpt lat="43.454443" lon="-3.842778">
        <ele>11.699</ele>
        <time>2022-08-28T16:17:25Z</time>
      </trkpt>
      <trkpt lat="43.454458" lon="-3.842705">
        <ele>11.363</ele>
        <time>2022-08-28T16:17:26Z</time>
      </trkpt>
      <trkpt lat="43.454491" lon="-3.842562">
        <ele>11.272</ele>
        <time>2022-08-28T16:17:28Z</time>
      </trkpt>
      <trkpt lat="43.454506" lon="-3.842490">
        <ele>10.938</ele>
        <time>2022-08-28T16:17:29Z</time>
      </trkpt>
      <trkpt lat="43.454523" lon="-3.842418">
        <ele>10.699</ele>
        <time>2022-08-28T16:17:30Z</time>
      </trkpt>
      <trkpt lat="43.454543" lon="-3.842348">
        <ele>10.407</ele>
        <time>2022-08-28T16:17:31Z</time>
      </trkpt>
      <trkpt lat="43.454578" lon="-3.842205">
        <ele>10.027</ele>
        <time>2022-08-28T16:17:33Z</time>
      </trkpt>
      <trkpt lat="43.454595" lon="-3.842137">
        <ele>10.009</ele>
        <time>2022-08-28T16:17:34Z</time>
      </trkpt>
      <trkpt lat="43.454623" lon="-3.841995">
        <ele>10.150</ele>
        <time>2022-08-28T16:17:36Z</time>
      </trkpt>
      <trkpt lat="43.454650" lon="-3.841852">
        <ele>10.240</ele>
        <time>2022-08-28T16:17:38Z</time>
      </trkpt>
      <trkpt lat="43.454665" lon="-3.841785">
        <ele>10.221</ele>
        <time>2022-08-28T16:17:39Z</time>
      </trkpt>
      <trkpt lat="43.454680" lon="-3.841637">
        <ele>10.160</ele>
        <time>2022-08-28T16:17:41Z</time>
      </trkpt>
      <trkpt lat="43.454692" lon="-3.841480">
        <ele>10.189</ele>
        <time>2022-08-28T16:17:43Z</time>
      </trkpt>
      <trkpt lat="43.454702" lon="-3.841402">
        <ele>10.527</ele>
        <time>2022-08-28T16:17:44Z</time>
      </trkpt>
      <trkpt lat="43.454710" lon="-3.841324">
        <ele>10.861</ele>
        <time>2022-08-28T16:17:45Z</time>
      </trkpt>
      <trkpt lat="43.454707" lon="-3.841161">
        <ele>10.910</ele>
        <time>2022-08-28T16:17:47Z</time>
      </trkpt>
      <trkpt lat="43.454699" lon="-3.841076">
        <ele>10.916</ele>
        <time>2022-08-28T16:17:48Z</time>
      </trkpt>
      <trkpt lat="43.454667" lon="-3.840908">
        <ele>10.564</ele>
        <time>2022-08-28T16:17:50Z</time>
      </trkpt>
      <trkpt lat="43.454654" lon="-3.840823">
        <ele>10.406</ele>
        <time>2022-08-28T16:17:51Z</time>
      </trkpt>
      <trkpt lat="43.454639" lon="-3.840741">
        <ele>10.016</ele>
        <time>2022-08-28T16:17:52Z</time>
      </trkpt>
      <trkpt lat="43.454626" lon="-3.840659">
        <ele>9.309</ele>
        <time>2022-08-28T16:17:53Z</time>
      </trkpt>
      <trkpt lat="43.454589" lon="-3.840494">
        <ele>8.127</ele>
        <time>2022-08-28T16:17:55Z</time>
      </trkpt>
      <trkpt lat="43.454544" lon="-3.840339">
        <ele>7.447</ele>
        <time>2022-08-28T16:17:57Z</time>
      </trkpt>
      <trkpt lat="43.454527" lon="-3.840259">
        <ele>7.278</ele>
        <time>2022-08-28T16:17:58Z</time>
      </trkpt>
      <trkpt lat="43.454492" lon="-3.840099">
        <ele>7.287</ele>
        <time>2022-08-28T16:18:00Z</time>
      </trkpt>
      <trkpt lat="43.454455" lon="-3.839949">
        <ele>7.336</ele>
        <time>2022-08-28T16:18:02Z</time>
      </trkpt>
      <trkpt lat="43.454438" lon="-3.839877">
        <ele>7.594</ele>
        <time>2022-08-28T16:18:03Z</time>
      </trkpt>
      <trkpt lat="43.454408" lon="-3.839740">
        <ele>8.438</ele>
        <time>2022-08-28T16:18:05Z</time>
      </trkpt>
      <trkpt lat="43.454378" lon="-3.839620">
        <ele>9.077</ele>
        <time>2022-08-28T16:18:07Z</time>
      </trkpt>
      <trkpt lat="43.454345" lon="-3.839508">
        <ele>9.283</ele>
        <time>2022-08-28T16:18:09Z</time>
      </trkpt>
      <trkpt lat="43.454313" lon="-3.839395">
        <ele>9.855</ele>
        <time>2022-08-28T16:18:11Z</time>
      </trkpt>
      <trkpt lat="43.454285" lon="-3.839287">
        <ele>10.407</ele>
        <time>2022-08-28T16:18:13Z</time>
      </trkpt>
      <trkpt lat="43.454262" lon="-3.839179">
        <ele>10.817</ele>
        <time>2022-08-28T16:18:15Z</time>
      </trkpt>
      <trkpt lat="43.454240" lon="-3.839072">
        <ele>11.009</ele>
        <time>2022-08-28T16:18:17Z</time>
      </trkpt>
      <trkpt lat="43.454223" lon="-3.838967">
        <ele>11.156</ele>
        <time>2022-08-28T16:18:19Z</time>
      </trkpt>
      <trkpt lat="43.454213" lon="-3.838869">
        <ele>11.166</ele>
        <time>2022-08-28T16:18:21Z</time>
      </trkpt>
      <trkpt lat="43.454203" lon="-3.838772">
        <ele>11.027</ele>
        <time>2022-08-28T16:18:23Z</time>
      </trkpt>
      <trkpt lat="43.454195" lon="-3.838675">
        <ele>10.986</ele>
        <time>2022-08-28T16:18:25Z</time>
      </trkpt>
      <trkpt lat="43.454187" lon="-3.838575">
        <ele>10.535</ele>
        <time>2022-08-28T16:18:27Z</time>
      </trkpt>
      <trkpt lat="43.454184" lon="-3.838478">
        <ele>10.153</ele>
        <time>2022-08-28T16:18:29Z</time>
      </trkpt>
      <trkpt lat="43.454182" lon="-3.838375">
        <ele>10.077</ele>
        <time>2022-08-28T16:18:31Z</time>
      </trkpt>
      <trkpt lat="43.454180" lon="-3.838268">
        <ele>10.046</ele>
        <time>2022-08-28T16:18:33Z</time>
      </trkpt>
      <trkpt lat="43.454175" lon="-3.838163">
        <ele>10.372</ele>
        <time>2022-08-28T16:18:35Z</time>
      </trkpt>
      <trkpt lat="43.454172" lon="-3.838053">
        <ele>10.438</ele>
        <time>2022-08-28T16:18:37Z</time>
      </trkpt>
      <trkpt lat="43.454164" lon="-3.837936">
        <ele>11.070</ele>
        <time>2022-08-28T16:18:39Z</time>
      </trkpt>
      <trkpt lat="43.454157" lon="-3.837874">
        <ele>11.117</ele>
        <time>2022-08-28T16:18:40Z</time>
      </trkpt>
      <trkpt lat="43.454145" lon="-3.837754">
        <ele>11.409</ele>
        <time>2022-08-28T16:18:42Z</time>
      </trkpt>
      <trkpt lat="43.454133" lon="-3.837627">
        <ele>12.454</ele>
        <time>2022-08-28T16:18:44Z</time>
      </trkpt>
      <trkpt lat="43.454123" lon="-3.837495">
        <ele>13.294</ele>
        <time>2022-08-28T16:18:46Z</time>
      </trkpt>
      <trkpt lat="43.454125" lon="-3.837357">
        <ele>13.435</ele>
        <time>2022-08-28T16:18:48Z</time>
      </trkpt>
      <trkpt lat="43.454128" lon="-3.837224">
        <ele>13.534</ele>
        <time>2022-08-28T16:18:50Z</time>
      </trkpt>
      <trkpt lat="43.454135" lon="-3.837157">
        <ele>13.693</ele>
        <time>2022-08-28T16:18:51Z</time>
      </trkpt>
      <trkpt lat="43.454140" lon="-3.837090">
        <ele>13.761</ele>
        <time>2022-08-28T16:18:52Z</time>
      </trkpt>
      <trkpt lat="43.454148" lon="-3.836955">
        <ele>13.975</ele>
        <time>2022-08-28T16:18:54Z</time>
      </trkpt>
      <trkpt lat="43.454155" lon="-3.836882">
        <ele>14.054</ele>
        <time>2022-08-28T16:18:55Z</time>
      </trkpt>
      <trkpt lat="43.454167" lon="-3.836742">
        <ele>14.020</ele>
        <time>2022-08-28T16:18:57Z</time>
      </trkpt>
      <trkpt lat="43.454177" lon="-3.836592">
        <ele>14.095</ele>
        <time>2022-08-28T16:18:59Z</time>
      </trkpt>
      <trkpt lat="43.454184" lon="-3.836520">
        <ele>14.149</ele>
        <time>2022-08-28T16:19:00Z</time>
      </trkpt>
      <trkpt lat="43.454189" lon="-3.836445">
        <ele>14.523</ele>
        <time>2022-08-28T16:19:01Z</time>
      </trkpt>
      <trkpt lat="43.454209" lon="-3.836300">
        <ele>15.109</ele>
        <time>2022-08-28T16:19:03Z</time>
      </trkpt>
      <trkpt lat="43.454231" lon="-3.836167">
        <ele>15.580</ele>
        <time>2022-08-28T16:19:05Z</time>
      </trkpt>
      <trkpt lat="43.454256" lon="-3.836037">
        <ele>15.830</ele>
        <time>2022-08-28T16:19:07Z</time>
      </trkpt>
      <trkpt lat="43.454281" lon="-3.835907">
        <ele>16.191</ele>
        <time>2022-08-28T16:19:09Z</time>
      </trkpt>
      <trkpt lat="43.454301" lon="-3.835844">
        <ele>16.270</ele>
        <time>2022-08-28T16:19:10Z</time>
      </trkpt>
      <trkpt lat="43.454341" lon="-3.835724">
        <ele>16.289</ele>
        <time>2022-08-28T16:19:12Z</time>
      </trkpt>
      <trkpt lat="43.454361" lon="-3.835667">
        <ele>16.127</ele>
        <time>2022-08-28T16:19:13Z</time>
      </trkpt>
      <trkpt lat="43.454399" lon="-3.835555">
        <ele>15.041</ele>
        <time>2022-08-28T16:19:15Z</time>
      </trkpt>
      <trkpt lat="43.454421" lon="-3.835498">
        <ele>14.450</ele>
        <time>2022-08-28T16:19:16Z</time>
      </trkpt>
      <trkpt lat="43.454459" lon="-3.835385">
        <ele>13.496</ele>
        <time>2022-08-28T16:19:18Z</time>
      </trkpt>
      <trkpt lat="43.454492" lon="-3.835270">
        <ele>12.076</ele>
        <time>2022-08-28T16:19:20Z</time>
      </trkpt>
      <trkpt lat="43.454529" lon="-3.835158">
        <ele>10.990</ele>
        <time>2022-08-28T16:19:22Z</time>
      </trkpt>
      <trkpt lat="43.454547" lon="-3.835101">
        <ele>10.519</ele>
        <time>2022-08-28T16:19:23Z</time>
      </trkpt>
      <trkpt lat="43.454577" lon="-3.834988">
        <ele>10.309</ele>
        <time>2022-08-28T16:19:25Z</time>
      </trkpt>
      <trkpt lat="43.454609" lon="-3.834876">
        <ele>10.388</ele>
        <time>2022-08-28T16:19:27Z</time>
      </trkpt>
      <trkpt lat="43.454641" lon="-3.834778">
        <ele>10.498</ele>
        <time>2022-08-28T16:19:29Z</time>
      </trkpt>
      <trkpt lat="43.454669" lon="-3.834683">
        <ele>10.829</ele>
        <time>2022-08-28T16:19:31Z</time>
      </trkpt>
      <trkpt lat="43.454689" lon="-3.834591">
        <ele>11.178</ele>
        <time>2022-08-28T16:19:33Z</time>
      </trkpt>
      <trkpt lat="43.454711" lon="-3.834504">
        <ele>11.777</ele>
        <time>2022-08-28T16:19:35Z</time>
      </trkpt>
      <trkpt lat="43.454738" lon="-3.834419">
        <ele>12.875</ele>
        <time>2022-08-28T16:19:37Z</time>
      </trkpt>
      <trkpt lat="43.454760" lon="-3.834339">
        <ele>13.789</ele>
        <time>2022-08-28T16:19:39Z</time>
      </trkpt>
      <trkpt lat="43.454780" lon="-3.834274">
        <ele>14.148</ele>
        <time>2022-08-28T16:19:41Z</time>
      </trkpt>
      <trkpt lat="43.454798" lon="-3.834217">
        <ele>14.734</ele>
        <time>2022-08-28T16:19:43Z</time>
      </trkpt>
      <trkpt lat="43.454825" lon="-3.834159">
        <ele>15.479</ele>
        <time>2022-08-28T16:19:45Z</time>
      </trkpt>
      <trkpt lat="43.454862" lon="-3.834096">
        <ele>15.805</ele>
        <time>2022-08-28T16:19:47Z</time>
      </trkpt>
      <trkpt lat="43.454900" lon="-3.834028">
        <ele>16.125</ele>
        <time>2022-08-28T16:19:49Z</time>
      </trkpt>
      <trkpt lat="43.454930" lon="-3.833951">
        <ele>16.909</ele>
        <time>2022-08-28T16:19:51Z</time>
      </trkpt>
      <trkpt lat="43.454955" lon="-3.833873">
        <ele>17.978</ele>
        <time>2022-08-28T16:19:53Z</time>
      </trkpt>
      <trkpt lat="43.454972" lon="-3.833791">
        <ele>18.088</ele>
        <time>2022-08-28T16:19:55Z</time>
      </trkpt>
      <trkpt lat="43.454985" lon="-3.833718">
        <ele>18.159</ele>
        <time>2022-08-28T16:19:57Z</time>
      </trkpt>
      <trkpt lat="43.454998" lon="-3.833646">
        <ele>18.398</ele>
        <time>2022-08-28T16:19:59Z</time>
      </trkpt>
      <trkpt lat="43.455013" lon="-3.833579">
        <ele>18.927</ele>
        <time>2022-08-28T16:20:01Z</time>
      </trkpt>
      <trkpt lat="43.455031" lon="-3.833519">
        <ele>19.925</ele>
        <time>2022-08-28T16:20:03Z</time>
      </trkpt>
      <trkpt lat="43.455043" lon="-3.833451">
        <ele>20.369</ele>
        <time>2022-08-28T16:20:05Z</time>
      </trkpt>
      <trkpt lat="43.455061" lon="-3.833376">
        <ele>21.348</ele>
        <time>2022-08-28T16:20:07Z</time>
      </trkpt>
      <trkpt lat="43.455081" lon="-3.833308">
        <ele>21.974</ele>
        <time>2022-08-28T16:20:09Z</time>
      </trkpt>
      <trkpt lat="43.455099" lon="-3.833235">
        <ele>22.563</ele>
        <time>2022-08-28T16:20:11Z</time>
      </trkpt>
      <trkpt lat="43.455116" lon="-3.833165">
        <ele>22.944</ele>
        <time>2022-08-28T16:20:13Z</time>
      </trkpt>
      <trkpt lat="43.455138" lon="-3.833097">
        <ele>23.318</ele>
        <time>2022-08-28T16:20:15Z</time>
      </trkpt>
      <trkpt lat="43.455163" lon="-3.833009">
        <ele>23.609</ele>
        <time>2022-08-28T16:20:18Z</time>
      </trkpt>
      <trkpt lat="43.455180" lon="-3.832946">
        <ele>24.477</ele>
        <time>2022-08-28T16:20:20Z</time>
      </trkpt>
      <trkpt lat="43.455220" lon="-3.832869">
        <ele>24.787</ele>
        <time>2022-08-28T16:20:23Z</time>
      </trkpt>
      <trkpt lat="43.455248" lon="-3.832814">
        <ele>25.578</ele>
        <time>2022-08-28T16:20:25Z</time>
      </trkpt>
      <trkpt lat="43.455295" lon="-3.832751">
        <ele>25.647</ele>
        <time>2022-08-28T16:20:28Z</time>
      </trkpt>
      <trkpt lat="43.455343" lon="-3.832698">
        <ele>26.216</ele>
        <time>2022-08-28T16:20:31Z</time>
      </trkpt>
      <trkpt lat="43.455400" lon="-3.832655">
        <ele>26.534</ele>
        <time>2022-08-28T16:20:34Z</time>
      </trkpt>
      <trkpt lat="43.455442" lon="-3.832630">
        <ele>26.598</ele>
        <time>2022-08-28T16:20:36Z</time>
      </trkpt>
      <trkpt lat="43.455502" lon="-3.832602">
        <ele>27.267</ele>
        <time>2022-08-28T16:20:39Z</time>
      </trkpt>
      <trkpt lat="43.455564" lon="-3.832589">
        <ele>27.843</ele>
        <time>2022-08-28T16:20:42Z</time>
      </trkpt>
      <trkpt lat="43.455626" lon="-3.832581">
        <ele>28.211</ele>
        <time>2022-08-28T16:20:45Z</time>
      </trkpt>
      <trkpt lat="43.455676" lon="-3.832566">
        <ele>28.321</ele>
        <time>2022-08-28T16:20:48Z</time>
      </trkpt>
      <trkpt lat="43.455729" lon="-3.832534">
        <ele>29.303</ele>
        <time>2022-08-28T16:20:52Z</time>
      </trkpt>
      <trkpt lat="43.455792" lon="-3.832489">
        <ele>29.809</ele>
        <time>2022-08-28T16:21:06Z</time>
      </trkpt>
      <trkpt lat="43.455814" lon="-3.832409">
        <ele>29.812</ele>
        <time>2022-08-28T16:21:09Z</time>
      </trkpt>
      <trkpt lat="43.455832" lon="-3.832344">
        <ele>29.812</ele>
        <time>2022-08-28T16:21:11Z</time>
      </trkpt>
      <trkpt lat="43.455849" lon="-3.832269">
        <ele>29.893</ele>
        <time>2022-08-28T16:21:13Z</time>
      </trkpt>
      <trkpt lat="43.455869" lon="-3.832192">
        <ele>29.822</ele>
        <time>2022-08-28T16:21:15Z</time>
      </trkpt>
      <trkpt lat="43.455899" lon="-3.832125">
        <ele>28.671</ele>
        <time>2022-08-28T16:21:17Z</time>
      </trkpt>
      <trkpt lat="43.455937" lon="-3.832068">
        <ele>27.959</ele>
        <time>2022-08-28T16:21:19Z</time>
      </trkpt>
      <trkpt lat="43.455982" lon="-3.832028">
        <ele>27.363</ele>
        <time>2022-08-28T16:21:21Z</time>
      </trkpt>
      <trkpt lat="43.456030" lon="-3.832000">
        <ele>27.392</ele>
        <time>2022-08-28T16:21:23Z</time>
      </trkpt>
      <trkpt lat="43.456082" lon="-3.831977">
        <ele>27.368</ele>
        <time>2022-08-28T16:21:25Z</time>
      </trkpt>
      <trkpt lat="43.456135" lon="-3.831959">
        <ele>27.358</ele>
        <time>2022-08-28T16:21:27Z</time>
      </trkpt>
      <trkpt lat="43.456190" lon="-3.831941">
        <ele>27.552</ele>
        <time>2022-08-28T16:21:29Z</time>
      </trkpt>
      <trkpt lat="43.456252" lon="-3.831924">
        <ele>27.917</ele>
        <time>2022-08-28T16:21:31Z</time>
      </trkpt>
      <trkpt lat="43.456310" lon="-3.831891">
        <ele>28.309</ele>
        <time>2022-08-28T16:21:33Z</time>
      </trkpt>
      <trkpt lat="43.456365" lon="-3.831846">
        <ele>28.836</ele>
        <time>2022-08-28T16:21:35Z</time>
      </trkpt>
      <trkpt lat="43.456410" lon="-3.831794">
        <ele>29.446</ele>
        <time>2022-08-28T16:21:37Z</time>
      </trkpt>
      <trkpt lat="43.456453" lon="-3.831737">
        <ele>29.827</ele>
        <time>2022-08-28T16:21:39Z</time>
      </trkpt>
      <trkpt lat="43.456498" lon="-3.831684">
        <ele>30.156</ele>
        <time>2022-08-28T16:21:41Z</time>
      </trkpt>
      <trkpt lat="43.456543" lon="-3.831632">
        <ele>30.485</ele>
        <time>2022-08-28T16:21:43Z</time>
      </trkpt>
      <trkpt lat="43.456586" lon="-3.831579">
        <ele>30.863</ele>
        <time>2022-08-28T16:21:45Z</time>
      </trkpt>
      <trkpt lat="43.456633" lon="-3.831526">
        <ele>31.337</ele>
        <time>2022-08-28T16:21:47Z</time>
      </trkpt>
      <trkpt lat="43.456680" lon="-3.831478">
        <ele>31.666</ele>
        <time>2022-08-28T16:21:49Z</time>
      </trkpt>
      <trkpt lat="43.456733" lon="-3.831430">
        <ele>32.182</ele>
        <time>2022-08-28T16:21:51Z</time>
      </trkpt>
      <trkpt lat="43.456785" lon="-3.831378">
        <ele>32.334</ele>
        <time>2022-08-28T16:21:53Z</time>
      </trkpt>
      <trkpt lat="43.456832" lon="-3.831320">
        <ele>32.955</ele>
        <time>2022-08-28T16:21:55Z</time>
      </trkpt>
      <trkpt lat="43.456870" lon="-3.831258">
        <ele>33.710</ele>
        <time>2022-08-28T16:21:57Z</time>
      </trkpt>
      <trkpt lat="43.456898" lon="-3.831190">
        <ele>34.709</ele>
        <time>2022-08-28T16:21:59Z</time>
      </trkpt>
      <trkpt lat="43.456928" lon="-3.831120">
        <ele>35.294</ele>
        <time>2022-08-28T16:22:01Z</time>
      </trkpt>
      <trkpt lat="43.456961" lon="-3.831045">
        <ele>35.774</ele>
        <time>2022-08-28T16:22:03Z</time>
      </trkpt>
      <trkpt lat="43.456996" lon="-3.830970">
        <ele>36.365</ele>
        <time>2022-08-28T16:22:05Z</time>
      </trkpt>
      <trkpt lat="43.457041" lon="-3.830902">
        <ele>36.314</ele>
        <time>2022-08-28T16:22:07Z</time>
      </trkpt>
      <trkpt lat="43.457091" lon="-3.830844">
        <ele>36.383</ele>
        <time>2022-08-28T16:22:09Z</time>
      </trkpt>
      <trkpt lat="43.457146" lon="-3.830779">
        <ele>36.081</ele>
        <time>2022-08-28T16:22:11Z</time>
      </trkpt>
      <trkpt lat="43.457204" lon="-3.830701">
        <ele>35.885</ele>
        <time>2022-08-28T16:22:13Z</time>
      </trkpt>
      <trkpt lat="43.457251" lon="-3.830606">
        <ele>35.344</ele>
        <time>2022-08-28T16:22:15Z</time>
      </trkpt>
      <trkpt lat="43.457291" lon="-3.830501">
        <ele>34.750</ele>
        <time>2022-08-28T16:22:17Z</time>
      </trkpt>
      <trkpt lat="43.457326" lon="-3.830398">
        <ele>33.959</ele>
        <time>2022-08-28T16:22:19Z</time>
      </trkpt>
      <trkpt lat="43.457361" lon="-3.830298">
        <ele>33.303</ele>
        <time>2022-08-28T16:22:21Z</time>
      </trkpt>
      <trkpt lat="43.457396" lon="-3.830203">
        <ele>32.923</ele>
        <time>2022-08-28T16:22:23Z</time>
      </trkpt>
      <trkpt lat="43.457431" lon="-3.830108">
        <ele>32.909</ele>
        <time>2022-08-28T16:22:25Z</time>
      </trkpt>
      <trkpt lat="43.457464" lon="-3.830010">
        <ele>32.916</ele>
        <time>2022-08-28T16:22:27Z</time>
      </trkpt>
      <trkpt lat="43.457501" lon="-3.829912">
        <ele>32.926</ele>
        <time>2022-08-28T16:22:29Z</time>
      </trkpt>
      <trkpt lat="43.457534" lon="-3.829814">
        <ele>32.927</ele>
        <time>2022-08-28T16:22:31Z</time>
      </trkpt>
      <trkpt lat="43.457562" lon="-3.829719">
        <ele>32.746</ele>
        <time>2022-08-28T16:22:33Z</time>
      </trkpt>
      <trkpt lat="43.457594" lon="-3.829632">
        <ele>32.755</ele>
        <time>2022-08-28T16:22:35Z</time>
      </trkpt>
      <trkpt lat="43.457627" lon="-3.829540">
        <ele>32.773</ele>
        <time>2022-08-28T16:22:37Z</time>
      </trkpt>
      <trkpt lat="43.457664" lon="-3.829452">
        <ele>33.067</ele>
        <time>2022-08-28T16:22:39Z</time>
      </trkpt>
      <trkpt lat="43.457697" lon="-3.829365">
        <ele>33.366</ele>
        <time>2022-08-28T16:22:41Z</time>
      </trkpt>
      <trkpt lat="43.457730" lon="-3.829290">
        <ele>33.392</ele>
        <time>2022-08-28T16:22:43Z</time>
      </trkpt>
      <trkpt lat="43.457758" lon="-3.829215">
        <ele>33.268</ele>
        <time>2022-08-28T16:22:45Z</time>
      </trkpt>
      <trkpt lat="43.457790" lon="-3.829158">
        <ele>33.342</ele>
        <time>2022-08-28T16:22:47Z</time>
      </trkpt>
      <trkpt lat="43.457807" lon="-3.829100">
        <ele>33.326</ele>
        <time>2022-08-28T16:22:49Z</time>
      </trkpt>
      <trkpt lat="43.457829" lon="-3.829028">
        <ele>33.509</ele>
        <time>2022-08-28T16:22:51Z</time>
      </trkpt>
      <trkpt lat="43.457847" lon="-3.828950">
        <ele>33.587</ele>
        <time>2022-08-28T16:22:53Z</time>
      </trkpt>
      <trkpt lat="43.457862" lon="-3.828867">
        <ele>33.517</ele>
        <time>2022-08-28T16:22:55Z</time>
      </trkpt>
      <trkpt lat="43.457874" lon="-3.828777">
        <ele>33.578</ele>
        <time>2022-08-28T16:22:57Z</time>
      </trkpt>
      <trkpt lat="43.457896" lon="-3.828694">
        <ele>33.067</ele>
        <time>2022-08-28T16:22:59Z</time>
      </trkpt>
      <trkpt lat="43.457909" lon="-3.828606">
        <ele>32.886</ele>
        <time>2022-08-28T16:23:01Z</time>
      </trkpt>
      <trkpt lat="43.457926" lon="-3.828523">
        <ele>32.534</ele>
        <time>2022-08-28T16:23:03Z</time>
      </trkpt>
      <trkpt lat="43.457961" lon="-3.828446">
        <ele>32.578</ele>
        <time>2022-08-28T16:23:05Z</time>
      </trkpt>
      <trkpt lat="43.457983" lon="-3.828369">
        <ele>32.517</ele>
        <time>2022-08-28T16:23:07Z</time>
      </trkpt>
      <trkpt lat="43.457995" lon="-3.828294">
        <ele>34.243</ele>
        <time>2022-08-28T16:23:09Z</time>
      </trkpt>
      <trkpt lat="43.458010" lon="-3.828224">
        <ele>35.056</ele>
        <time>2022-08-28T16:23:11Z</time>
      </trkpt>
      <trkpt lat="43.458018" lon="-3.828159">
        <ele>35.259</ele>
        <time>2022-08-28T16:23:13Z</time>
      </trkpt>
      <trkpt lat="43.458025" lon="-3.828081">
        <ele>35.614</ele>
        <time>2022-08-28T16:23:16Z</time>
      </trkpt>
      <trkpt lat="43.458042" lon="-3.828023">
        <ele>35.909</ele>
        <time>2022-08-28T16:23:34Z</time>
      </trkpt>
      <trkpt lat="43.458067" lon="-3.827936">
        <ele>35.966</ele>
        <time>2022-08-28T16:23:37Z</time>
      </trkpt>
      <trkpt lat="43.458082" lon="-3.827869">
        <ele>35.926</ele>
        <time>2022-08-28T16:23:39Z</time>
      </trkpt>
      <trkpt lat="43.458092" lon="-3.827802">
        <ele>35.957</ele>
        <time>2022-08-28T16:23:41Z</time>
      </trkpt>
      <trkpt lat="43.458095" lon="-3.827734">
        <ele>32.776</ele>
        <time>2022-08-28T16:23:43Z</time>
      </trkpt>
      <trkpt lat="43.458095" lon="-3.827664">
        <ele>31.465</ele>
        <time>2022-08-28T16:23:45Z</time>
      </trkpt>
      <trkpt lat="43.458092" lon="-3.827591">
        <ele>31.283</ele>
        <time>2022-08-28T16:23:47Z</time>
      </trkpt>
      <trkpt lat="43.458100" lon="-3.827521">
        <ele>31.037</ele>
        <time>2022-08-28T16:23:49Z</time>
      </trkpt>
      <trkpt lat="43.458118" lon="-3.827454">
        <ele>30.316</ele>
        <time>2022-08-28T16:23:51Z</time>
      </trkpt>
      <trkpt lat="43.458128" lon="-3.827386">
        <ele>29.372</ele>
        <time>2022-08-28T16:23:53Z</time>
      </trkpt>
      <trkpt lat="43.458136" lon="-3.827319">
        <ele>28.921</ele>
        <time>2022-08-28T16:23:55Z</time>
      </trkpt>
      <trkpt lat="43.458144" lon="-3.827251">
        <ele>28.741</ele>
        <time>2022-08-28T16:23:57Z</time>
      </trkpt>
      <trkpt lat="43.458159" lon="-3.827189">
        <ele>28.105</ele>
        <time>2022-08-28T16:23:59Z</time>
      </trkpt>
      <trkpt lat="43.458172" lon="-3.827126">
        <ele>28.109</ele>
        <time>2022-08-28T16:24:01Z</time>
      </trkpt>
      <trkpt lat="43.458189" lon="-3.827058">
        <ele>28.193</ele>
        <time>2022-08-28T16:24:03Z</time>
      </trkpt>
      <trkpt lat="43.458207" lon="-3.826996">
        <ele>28.383</ele>
        <time>2022-08-28T16:24:05Z</time>
      </trkpt>
      <trkpt lat="43.458227" lon="-3.826939">
        <ele>28.634</ele>
        <time>2022-08-28T16:24:07Z</time>
      </trkpt>
      <trkpt lat="43.458252" lon="-3.826882">
        <ele>29.133</ele>
        <time>2022-08-28T16:24:09Z</time>
      </trkpt>
      <trkpt lat="43.458275" lon="-3.826827">
        <ele>29.642</ele>
        <time>2022-08-28T16:24:11Z</time>
      </trkpt>
      <trkpt lat="43.458327" lon="-3.826767">
        <ele>30.230</ele>
        <time>2022-08-28T16:24:14Z</time>
      </trkpt>
      <trkpt lat="43.458354" lon="-3.826714">
        <ele>31.584</ele>
        <time>2022-08-28T16:24:17Z</time>
      </trkpt>
      <trkpt lat="43.458372" lon="-3.826584">
        <ele>36.943</ele>
        <time>2022-08-28T16:24:43Z</time>
      </trkpt>
      <trkpt lat="43.458347" lon="-3.826526">
        <ele>36.989</ele>
        <time>2022-08-28T16:24:45Z</time>
      </trkpt>
      <trkpt lat="43.458332" lon="-3.826453">
        <ele>36.929</ele>
        <time>2022-08-28T16:24:47Z</time>
      </trkpt>
      <trkpt lat="43.458319" lon="-3.826365">
        <ele>36.900</ele>
        <time>2022-08-28T16:24:49Z</time>
      </trkpt>
      <trkpt lat="43.458317" lon="-3.826272">
        <ele>36.920</ele>
        <time>2022-08-28T16:24:51Z</time>
      </trkpt>
      <trkpt lat="43.458335" lon="-3.826177">
        <ele>36.609</ele>
        <time>2022-08-28T16:24:53Z</time>
      </trkpt>
      <trkpt lat="43.458370" lon="-3.826090">
        <ele>37.113</ele>
        <time>2022-08-28T16:24:55Z</time>
      </trkpt>
      <trkpt lat="43.458423" lon="-3.826035">
        <ele>38.073</ele>
        <time>2022-08-28T16:24:57Z</time>
      </trkpt>
      <trkpt lat="43.458475" lon="-3.825992">
        <ele>38.914</ele>
        <time>2022-08-28T16:24:59Z</time>
      </trkpt>
      <trkpt lat="43.458525" lon="-3.825932">
        <ele>39.613</ele>
        <time>2022-08-28T16:25:01Z</time>
      </trkpt>
      <trkpt lat="43.458573" lon="-3.825822">
        <ele>40.092</ele>
        <time>2022-08-28T16:25:03Z</time>
      </trkpt>
      <trkpt lat="43.458636" lon="-3.825677">
        <ele>41.040</ele>
        <time>2022-08-28T16:25:05Z</time>
      </trkpt>
      <trkpt lat="43.458663" lon="-3.825604">
        <ele>41.364</ele>
        <time>2022-08-28T16:25:06Z</time>
      </trkpt>
      <trkpt lat="43.458715" lon="-3.825456">
        <ele>42.113</ele>
        <time>2022-08-28T16:25:08Z</time>
      </trkpt>
      <trkpt lat="43.458740" lon="-3.825383">
        <ele>42.179</ele>
        <time>2022-08-28T16:25:09Z</time>
      </trkpt>
      <trkpt lat="43.458797" lon="-3.825236">
        <ele>42.177</ele>
        <time>2022-08-28T16:25:11Z</time>
      </trkpt>
      <trkpt lat="43.458829" lon="-3.825159">
        <ele>42.061</ele>
        <time>2022-08-28T16:25:12Z</time>
      </trkpt>
      <trkpt lat="43.458899" lon="-3.825006">
        <ele>41.627</ele>
        <time>2022-08-28T16:25:14Z</time>
      </trkpt>
      <trkpt lat="43.458926" lon="-3.824924">
        <ele>41.509</ele>
        <time>2022-08-28T16:25:15Z</time>
      </trkpt>
      <trkpt lat="43.458988" lon="-3.824759">
        <ele>41.388</ele>
        <time>2022-08-28T16:25:17Z</time>
      </trkpt>
      <trkpt lat="43.459041" lon="-3.824589">
        <ele>41.048</ele>
        <time>2022-08-28T16:25:19Z</time>
      </trkpt>
      <trkpt lat="43.459098" lon="-3.824419">
        <ele>40.649</ele>
        <time>2022-08-28T16:25:21Z</time>
      </trkpt>
      <trkpt lat="43.459125" lon="-3.824332">
        <ele>40.418</ele>
        <time>2022-08-28T16:25:22Z</time>
      </trkpt>
      <trkpt lat="43.459148" lon="-3.824244">
        <ele>40.267</ele>
        <time>2022-08-28T16:25:23Z</time>
      </trkpt>
      <trkpt lat="43.459176" lon="-3.824162">
        <ele>39.835</ele>
        <time>2022-08-28T16:25:24Z</time>
      </trkpt>
      <trkpt lat="43.459204" lon="-3.824075">
        <ele>39.619</ele>
        <time>2022-08-28T16:25:25Z</time>
      </trkpt>
      <trkpt lat="43.459269" lon="-3.823905">
        <ele>38.528</ele>
        <time>2022-08-28T16:25:27Z</time>
      </trkpt>
      <trkpt lat="43.459332" lon="-3.823733">
        <ele>37.934</ele>
        <time>2022-08-28T16:25:29Z</time>
      </trkpt>
      <trkpt lat="43.459359" lon="-3.823640">
        <ele>37.596</ele>
        <time>2022-08-28T16:25:30Z</time>
      </trkpt>
      <trkpt lat="43.459381" lon="-3.823548">
        <ele>37.231</ele>
        <time>2022-08-28T16:25:31Z</time>
      </trkpt>
      <trkpt lat="43.459424" lon="-3.823360">
        <ele>36.424</ele>
        <time>2022-08-28T16:25:33Z</time>
      </trkpt>
      <trkpt lat="43.459447" lon="-3.823267">
        <ele>36.009</ele>
        <time>2022-08-28T16:25:34Z</time>
      </trkpt>
      <trkpt lat="43.459487" lon="-3.823089">
        <ele>35.020</ele>
        <time>2022-08-28T16:25:36Z</time>
      </trkpt>
      <trkpt lat="43.459519" lon="-3.822936">
        <ele>34.670</ele>
        <time>2022-08-28T16:25:38Z</time>
      </trkpt>
      <trkpt lat="43.459534" lon="-3.822869">
        <ele>34.521</ele>
        <time>2022-08-28T16:25:39Z</time>
      </trkpt>
      <trkpt lat="43.459546" lon="-3.822806">
        <ele>34.110</ele>
        <time>2022-08-28T16:25:40Z</time>
      </trkpt>
      <trkpt lat="43.459583" lon="-3.822683">
        <ele>33.759</ele>
        <time>2022-08-28T16:25:42Z</time>
      </trkpt>
      <trkpt lat="43.459616" lon="-3.822575">
        <ele>33.017</ele>
        <time>2022-08-28T16:25:44Z</time>
      </trkpt>
      <trkpt lat="43.459643" lon="-3.822460">
        <ele>32.421</ele>
        <time>2022-08-28T16:25:46Z</time>
      </trkpt>
      <trkpt lat="43.459661" lon="-3.822350">
        <ele>32.360</ele>
        <time>2022-08-28T16:25:48Z</time>
      </trkpt>
      <trkpt lat="43.459683" lon="-3.822257">
        <ele>31.766</ele>
        <time>2022-08-28T16:25:50Z</time>
      </trkpt>
      <trkpt lat="43.459710" lon="-3.822155">
        <ele>30.737</ele>
        <time>2022-08-28T16:25:52Z</time>
      </trkpt>
      <trkpt lat="43.459733" lon="-3.822053">
        <ele>30.749</ele>
        <time>2022-08-28T16:25:54Z</time>
      </trkpt>
      <trkpt lat="43.459741" lon="-3.821960">
        <ele>30.713</ele>
        <time>2022-08-28T16:25:56Z</time>
      </trkpt>
      <trkpt lat="43.459758" lon="-3.821888">
        <ele>31.009</ele>
        <time>2022-08-28T16:25:58Z</time>
      </trkpt>
      <trkpt lat="43.459776" lon="-3.821811">
        <ele>31.884</ele>
        <time>2022-08-28T16:26:00Z</time>
      </trkpt>
      <trkpt lat="43.459808" lon="-3.821729">
        <ele>32.314</ele>
        <time>2022-08-28T16:26:02Z</time>
      </trkpt>
      <trkpt lat="43.459833" lon="-3.821634">
        <ele>33.155</ele>
        <time>2022-08-28T16:26:04Z</time>
      </trkpt>
      <trkpt lat="43.459861" lon="-3.821521">
        <ele>33.114</ele>
        <time>2022-08-28T16:26:06Z</time>
      </trkpt>
      <trkpt lat="43.459874" lon="-3.821459">
        <ele>33.193</ele>
        <time>2022-08-28T16:26:07Z</time>
      </trkpt>
      <trkpt lat="43.459922" lon="-3.821334">
        <ele>32.761</ele>
        <time>2022-08-28T16:26:09Z</time>
      </trkpt>
      <trkpt lat="43.459964" lon="-3.821199">
        <ele>31.325</ele>
        <time>2022-08-28T16:26:11Z</time>
      </trkpt>
      <trkpt lat="43.459986" lon="-3.821129">
        <ele>30.514</ele>
        <time>2022-08-28T16:26:12Z</time>
      </trkpt>
      <trkpt lat="43.460036" lon="-3.820987">
        <ele>28.760</ele>
        <time>2022-08-28T16:26:14Z</time>
      </trkpt>
      <trkpt lat="43.460081" lon="-3.820840">
        <ele>28.473</ele>
        <time>2022-08-28T16:26:16Z</time>
      </trkpt>
      <trkpt lat="43.460121" lon="-3.820688">
        <ele>28.285</ele>
        <time>2022-08-28T16:26:18Z</time>
      </trkpt>
      <trkpt lat="43.460139" lon="-3.820610">
        <ele>27.813</ele>
        <time>2022-08-28T16:26:19Z</time>
      </trkpt>
      <trkpt lat="43.460171" lon="-3.820450">
        <ele>26.809</ele>
        <time>2022-08-28T16:26:21Z</time>
      </trkpt>
      <trkpt lat="43.460188" lon="-3.820368">
        <ele>26.448</ele>
        <time>2022-08-28T16:26:22Z</time>
      </trkpt>
      <trkpt lat="43.460208" lon="-3.820286">
        <ele>25.888</ele>
        <time>2022-08-28T16:26:23Z</time>
      </trkpt>
      <trkpt lat="43.460246" lon="-3.820123">
        <ele>25.119</ele>
        <time>2022-08-28T16:26:25Z</time>
      </trkpt>
      <trkpt lat="43.460291" lon="-3.819953">
        <ele>24.758</ele>
        <time>2022-08-28T16:26:27Z</time>
      </trkpt>
      <trkpt lat="43.460334" lon="-3.819778">
        <ele>24.477</ele>
        <time>2022-08-28T16:26:29Z</time>
      </trkpt>
      <trkpt lat="43.460377" lon="-3.819608">
        <ele>24.355</ele>
        <time>2022-08-28T16:26:31Z</time>
      </trkpt>
      <trkpt lat="43.460399" lon="-3.819521">
        <ele>24.029</ele>
        <time>2022-08-28T16:26:32Z</time>
      </trkpt>
      <trkpt lat="43.460434" lon="-3.819344">
        <ele>23.378</ele>
        <time>2022-08-28T16:26:34Z</time>
      </trkpt>
      <trkpt lat="43.460449" lon="-3.819252">
        <ele>22.934</ele>
        <time>2022-08-28T16:26:35Z</time>
      </trkpt>
      <trkpt lat="43.460466" lon="-3.819159">
        <ele>22.447</ele>
        <time>2022-08-28T16:26:36Z</time>
      </trkpt>
      <trkpt lat="43.460504" lon="-3.818984">
        <ele>22.229</ele>
        <time>2022-08-28T16:26:38Z</time>
      </trkpt>
      <trkpt lat="43.460529" lon="-3.818897">
        <ele>21.821</ele>
        <time>2022-08-28T16:26:39Z</time>
      </trkpt>
      <trkpt lat="43.460551" lon="-3.818807">
        <ele>21.309</ele>
        <time>2022-08-28T16:26:40Z</time>
      </trkpt>
      <trkpt lat="43.460576" lon="-3.818720">
        <ele>21.165</ele>
        <time>2022-08-28T16:26:41Z</time>
      </trkpt>
      <trkpt lat="43.460623" lon="-3.818547">
        <ele>20.615</ele>
        <time>2022-08-28T16:26:43Z</time>
      </trkpt>
      <trkpt lat="43.460641" lon="-3.818455">
        <ele>20.526</ele>
        <time>2022-08-28T16:26:44Z</time>
      </trkpt>
      <trkpt lat="43.460664" lon="-3.818367">
        <ele>20.495</ele>
        <time>2022-08-28T16:26:45Z</time>
      </trkpt>
      <trkpt lat="43.460691" lon="-3.818277">
        <ele>20.474</ele>
        <time>2022-08-28T16:26:46Z</time>
      </trkpt>
      <trkpt lat="43.460726" lon="-3.818107">
        <ele>20.472</ele>
        <time>2022-08-28T16:26:48Z</time>
      </trkpt>
      <trkpt lat="43.460739" lon="-3.818022">
        <ele>20.416</ele>
        <time>2022-08-28T16:26:49Z</time>
      </trkpt>
      <trkpt lat="43.460757" lon="-3.817937">
        <ele>20.045</ele>
        <time>2022-08-28T16:26:50Z</time>
      </trkpt>
      <trkpt lat="43.460782" lon="-3.817790">
        <ele>19.561</ele>
        <time>2022-08-28T16:26:52Z</time>
      </trkpt>
      <trkpt lat="43.460817" lon="-3.817665">
        <ele>18.777</ele>
        <time>2022-08-28T16:26:54Z</time>
      </trkpt>
      <trkpt lat="43.460850" lon="-3.817593">
        <ele>18.561</ele>
        <time>2022-08-28T16:26:56Z</time>
      </trkpt>
      <trkpt lat="43.460828" lon="-3.817516">
        <ele>18.127</ele>
        <time>2022-08-28T16:27:00Z</time>
      </trkpt>
      <trkpt lat="43.460800" lon="-3.817449">
        <ele>18.209</ele>
        <time>2022-08-28T16:27:02Z</time>
      </trkpt>
      <trkpt lat="43.460778" lon="-3.817367">
        <ele>18.398</ele>
        <time>2022-08-28T16:27:04Z</time>
      </trkpt>
      <trkpt lat="43.460785" lon="-3.817259">
        <ele>18.578</ele>
        <time>2022-08-28T16:27:06Z</time>
      </trkpt>
      <trkpt lat="43.460808" lon="-3.817144">
        <ele>19.899</ele>
        <time>2022-08-28T16:27:08Z</time>
      </trkpt>
      <trkpt lat="43.460835" lon="-3.817036">
        <ele>20.218</ele>
        <time>2022-08-28T16:27:10Z</time>
      </trkpt>
      <trkpt lat="43.460860" lon="-3.816918">
        <ele>20.227</ele>
        <time>2022-08-28T16:27:12Z</time>
      </trkpt>
      <trkpt lat="43.460888" lon="-3.816798">
        <ele>20.255</ele>
        <time>2022-08-28T16:27:14Z</time>
      </trkpt>
      <trkpt lat="43.460915" lon="-3.816690">
        <ele>19.949</ele>
        <time>2022-08-28T16:27:16Z</time>
      </trkpt>
      <trkpt lat="43.460953" lon="-3.816585">
        <ele>19.788</ele>
        <time>2022-08-28T16:27:18Z</time>
      </trkpt>
      <trkpt lat="43.460973" lon="-3.816470">
        <ele>19.074</ele>
        <time>2022-08-28T16:27:20Z</time>
      </trkpt>
      <trkpt lat="43.460933" lon="-3.816355">
        <ele>18.069</ele>
        <time>2022-08-28T16:27:22Z</time>
      </trkpt>
      <trkpt lat="43.460908" lon="-3.816253">
        <ele>16.104</ele>
        <time>2022-08-28T16:27:24Z</time>
      </trkpt>
      <trkpt lat="43.460886" lon="-3.816141">
        <ele>14.524</ele>
        <time>2022-08-28T16:27:26Z</time>
      </trkpt>
      <trkpt lat="43.460868" lon="-3.816038">
        <ele>13.609</ele>
        <time>2022-08-28T16:27:28Z</time>
      </trkpt>
      <trkpt lat="43.460871" lon="-3.815938">
        <ele>13.067</ele>
        <time>2022-08-28T16:27:30Z</time>
      </trkpt>
      <trkpt lat="43.460893" lon="-3.815840">
        <ele>12.667</ele>
        <time>2022-08-28T16:27:32Z</time>
      </trkpt>
      <trkpt lat="43.460921" lon="-3.815745">
        <ele>12.568</ele>
        <time>2022-08-28T16:27:34Z</time>
      </trkpt>
      <trkpt lat="43.460938" lon="-3.815647">
        <ele>12.457</ele>
        <time>2022-08-28T16:27:36Z</time>
      </trkpt>
      <trkpt lat="43.460938" lon="-3.815550">
        <ele>12.446</ele>
        <time>2022-08-28T16:27:38Z</time>
      </trkpt>
      <trkpt lat="43.460943" lon="-3.815447">
        <ele>12.814</ele>
        <time>2022-08-28T16:27:40Z</time>
      </trkpt>
      <trkpt lat="43.460941" lon="-3.815337">
        <ele>13.948</ele>
        <time>2022-08-28T16:27:42Z</time>
      </trkpt>
      <trkpt lat="43.460943" lon="-3.815227">
        <ele>14.667</ele>
        <time>2022-08-28T16:27:44Z</time>
      </trkpt>
      <trkpt lat="43.460966" lon="-3.815109">
        <ele>15.133</ele>
        <time>2022-08-28T16:27:46Z</time>
      </trkpt>
      <trkpt lat="43.460993" lon="-3.814996">
        <ele>16.094</ele>
        <time>2022-08-28T16:27:48Z</time>
      </trkpt>
      <trkpt lat="43.461011" lon="-3.814934">
        <ele>16.457</ele>
        <time>2022-08-28T16:27:49Z</time>
      </trkpt>
      <trkpt lat="43.461049" lon="-3.814822">
        <ele>16.422</ele>
        <time>2022-08-28T16:27:51Z</time>
      </trkpt>
      <trkpt lat="43.461067" lon="-3.814762">
        <ele>16.409</ele>
        <time>2022-08-28T16:27:52Z</time>
      </trkpt>
      <trkpt lat="43.461107" lon="-3.814639">
        <ele>15.920</ele>
        <time>2022-08-28T16:27:54Z</time>
      </trkpt>
      <trkpt lat="43.461144" lon="-3.814501">
        <ele>15.940</ele>
        <time>2022-08-28T16:27:56Z</time>
      </trkpt>
      <trkpt lat="43.461161" lon="-3.814431">
        <ele>15.991</ele>
        <time>2022-08-28T16:27:57Z</time>
      </trkpt>
      <trkpt lat="43.461189" lon="-3.814293">
        <ele>16.280</ele>
        <time>2022-08-28T16:27:59Z</time>
      </trkpt>
      <trkpt lat="43.461192" lon="-3.814220">
        <ele>16.529</ele>
        <time>2022-08-28T16:28:00Z</time>
      </trkpt>
      <trkpt lat="43.461197" lon="-3.814145">
        <ele>16.997</ele>
        <time>2022-08-28T16:28:01Z</time>
      </trkpt>
      <trkpt lat="43.461205" lon="-3.813990">
        <ele>18.841</ele>
        <time>2022-08-28T16:28:03Z</time>
      </trkpt>
      <trkpt lat="43.461218" lon="-3.813848">
        <ele>20.140</ele>
        <time>2022-08-28T16:28:05Z</time>
      </trkpt>
      <trkpt lat="43.461220" lon="-3.813776">
        <ele>20.516</ele>
        <time>2022-08-28T16:28:06Z</time>
      </trkpt>
      <trkpt lat="43.461220" lon="-3.813704">
        <ele>20.741</ele>
        <time>2022-08-28T16:28:07Z</time>
      </trkpt>
      <trkpt lat="43.461222" lon="-3.813634">
        <ele>21.081</ele>
        <time>2022-08-28T16:28:08Z</time>
      </trkpt>
      <trkpt lat="43.461222" lon="-3.813502">
        <ele>21.609</ele>
        <time>2022-08-28T16:28:10Z</time>
      </trkpt>
      <trkpt lat="43.461230" lon="-3.813377">
        <ele>21.709</ele>
        <time>2022-08-28T16:28:12Z</time>
      </trkpt>
      <trkpt lat="43.461270" lon="-3.813255">
        <ele>22.545</ele>
        <time>2022-08-28T16:28:14Z</time>
      </trkpt>
      <trkpt lat="43.461277" lon="-3.813130">
        <ele>23.945</ele>
        <time>2022-08-28T16:28:16Z</time>
      </trkpt>
      <trkpt lat="43.461295" lon="-3.813012">
        <ele>25.626</ele>
        <time>2022-08-28T16:28:18Z</time>
      </trkpt>
      <trkpt lat="43.461302" lon="-3.812905">
        <ele>26.455</ele>
        <time>2022-08-28T16:28:20Z</time>
      </trkpt>
      <trkpt lat="43.461310" lon="-3.812800">
        <ele>26.434</ele>
        <time>2022-08-28T16:28:22Z</time>
      </trkpt>
      <trkpt lat="43.461310" lon="-3.812710">
        <ele>26.032</ele>
        <time>2022-08-28T16:28:24Z</time>
      </trkpt>
      <trkpt lat="43.461270" lon="-3.812622">
        <ele>25.986</ele>
        <time>2022-08-28T16:28:26Z</time>
      </trkpt>
      <trkpt lat="43.461255" lon="-3.812550">
        <ele>27.615</ele>
        <time>2022-08-28T16:28:36Z</time>
      </trkpt>
      <trkpt lat="43.461335" lon="-3.812550">
        <ele>28.271</ele>
        <time>2022-08-28T16:28:38Z</time>
      </trkpt>
      <trkpt lat="43.461445" lon="-3.812587">
        <ele>28.219</ele>
        <time>2022-08-28T16:28:40Z</time>
      </trkpt>
      <trkpt lat="43.461512" lon="-3.812609">
        <ele>28.209</ele>
        <time>2022-08-28T16:28:41Z</time>
      </trkpt>
      <trkpt lat="43.461567" lon="-3.812632">
        <ele>31.019</ele>
        <time>2022-08-28T16:28:42Z</time>
      </trkpt>
      <trkpt lat="43.461650" lon="-3.812617">
        <ele>31.109</ele>
        <time>2022-08-28T16:28:44Z</time>
      </trkpt>
      <trkpt lat="43.461713" lon="-3.812570">
        <ele>30.172</ele>
        <time>2022-08-28T16:28:46Z</time>
      </trkpt>
      <trkpt lat="43.461765" lon="-3.812513">
        <ele>28.172</ele>
        <time>2022-08-28T16:28:48Z</time>
      </trkpt>
      <trkpt lat="43.461798" lon="-3.812451">
        <ele>25.913</ele>
        <time>2022-08-28T16:28:50Z</time>
      </trkpt>
      <trkpt lat="43.461893" lon="-3.812324">
        <ele>16.312</ele>
        <time>2022-08-28T16:29:38Z</time>
      </trkpt>
      <trkpt lat="43.461903" lon="-3.812221">
        <ele>16.341</ele>
        <time>2022-08-28T16:29:40Z</time>
      </trkpt>
      <trkpt lat="43.461921" lon="-3.812098">
        <ele>16.349</ele>
        <time>2022-08-28T16:29:42Z</time>
      </trkpt>
      <trkpt lat="43.461928" lon="-3.811971">
        <ele>16.243</ele>
        <time>2022-08-28T16:29:44Z</time>
      </trkpt>
      <trkpt lat="43.461925" lon="-3.811906">
        <ele>16.182</ele>
        <time>2022-08-28T16:29:45Z</time>
      </trkpt>
      <trkpt lat="43.461927" lon="-3.811838">
        <ele>15.918</ele>
        <time>2022-08-28T16:29:46Z</time>
      </trkpt>
      <trkpt lat="43.461930" lon="-3.811698">
        <ele>15.441</ele>
        <time>2022-08-28T16:29:48Z</time>
      </trkpt>
      <trkpt lat="43.461933" lon="-3.811625">
        <ele>15.181</ele>
        <time>2022-08-28T16:29:49Z</time>
      </trkpt>
      <trkpt lat="43.461926" lon="-3.811472">
        <ele>14.809</ele>
        <time>2022-08-28T16:29:51Z</time>
      </trkpt>
      <trkpt lat="43.461918" lon="-3.811324">
        <ele>14.609</ele>
        <time>2022-08-28T16:29:53Z</time>
      </trkpt>
      <trkpt lat="43.461910" lon="-3.811247">
        <ele>14.155</ele>
        <time>2022-08-28T16:29:54Z</time>
      </trkpt>
      <trkpt lat="43.461898" lon="-3.811082">
        <ele>12.915</ele>
        <time>2022-08-28T16:29:56Z</time>
      </trkpt>
      <trkpt lat="43.461873" lon="-3.811002">
        <ele>12.796</ele>
        <time>2022-08-28T16:29:57Z</time>
      </trkpt>
      <trkpt lat="43.461833" lon="-3.810855">
        <ele>12.755</ele>
        <time>2022-08-28T16:29:59Z</time>
      </trkpt>
      <trkpt lat="43.461780" lon="-3.810705">
        <ele>12.574</ele>
        <time>2022-08-28T16:30:01Z</time>
      </trkpt>
      <trkpt lat="43.461750" lon="-3.810633">
        <ele>12.592</ele>
        <time>2022-08-28T16:30:02Z</time>
      </trkpt>
      <trkpt lat="43.461688" lon="-3.810486">
        <ele>12.376</ele>
        <time>2022-08-28T16:30:04Z</time>
      </trkpt>
      <trkpt lat="43.461636" lon="-3.810334">
        <ele>11.925</ele>
        <time>2022-08-28T16:30:06Z</time>
      </trkpt>
      <trkpt lat="43.461613" lon="-3.810264">
        <ele>11.921</ele>
        <time>2022-08-28T16:30:07Z</time>
      </trkpt>
      <trkpt lat="43.461560" lon="-3.810101">
        <ele>9.534</ele>
        <time>2022-08-28T16:30:09Z</time>
      </trkpt>
      <trkpt lat="43.461532" lon="-3.810016">
        <ele>8.855</ele>
        <time>2022-08-28T16:30:10Z</time>
      </trkpt>
      <trkpt lat="43.461477" lon="-3.809843">
        <ele>7.710</ele>
        <time>2022-08-28T16:30:12Z</time>
      </trkpt>
      <trkpt lat="43.461450" lon="-3.809760">
        <ele>7.209</ele>
        <time>2022-08-28T16:30:13Z</time>
      </trkpt>
      <trkpt lat="43.461415" lon="-3.809588">
        <ele>7.184</ele>
        <time>2022-08-28T16:30:15Z</time>
      </trkpt>
      <trkpt lat="43.461410" lon="-3.809413">
        <ele>7.374</ele>
        <time>2022-08-28T16:30:17Z</time>
      </trkpt>
      <trkpt lat="43.461412" lon="-3.809231">
        <ele>7.585</ele>
        <time>2022-08-28T16:30:19Z</time>
      </trkpt>
      <trkpt lat="43.461407" lon="-3.809141">
        <ele>7.864</ele>
        <time>2022-08-28T16:30:20Z</time>
      </trkpt>
      <trkpt lat="43.461409" lon="-3.808959">
        <ele>8.823</ele>
        <time>2022-08-28T16:30:22Z</time>
      </trkpt>
      <trkpt lat="43.461407" lon="-3.808782">
        <ele>9.281</ele>
        <time>2022-08-28T16:30:24Z</time>
      </trkpt>
      <trkpt lat="43.461410" lon="-3.808610">
        <ele>9.385</ele>
        <time>2022-08-28T16:30:26Z</time>
      </trkpt>
      <trkpt lat="43.461420" lon="-3.808527">
        <ele>9.394</ele>
        <time>2022-08-28T16:30:27Z</time>
      </trkpt>
      <trkpt lat="43.461433" lon="-3.808360">
        <ele>9.470</ele>
        <time>2022-08-28T16:30:29Z</time>
      </trkpt>
      <trkpt lat="43.461445" lon="-3.808192">
        <ele>9.484</ele>
        <time>2022-08-28T16:30:31Z</time>
      </trkpt>
      <trkpt lat="43.461457" lon="-3.808027">
        <ele>9.007</ele>
        <time>2022-08-28T16:30:33Z</time>
      </trkpt>
      <trkpt lat="43.461467" lon="-3.807950">
        <ele>8.917</ele>
        <time>2022-08-28T16:30:34Z</time>
      </trkpt>
      <trkpt lat="43.461469" lon="-3.807868">
        <ele>8.909</ele>
        <time>2022-08-28T16:30:35Z</time>
      </trkpt>
      <trkpt lat="43.461476" lon="-3.807788">
        <ele>8.979</ele>
        <time>2022-08-28T16:30:36Z</time>
      </trkpt>
      <trkpt lat="43.461483" lon="-3.807625">
        <ele>9.099</ele>
        <time>2022-08-28T16:30:38Z</time>
      </trkpt>
      <trkpt lat="43.461495" lon="-3.807467">
        <ele>9.280</ele>
        <time>2022-08-28T16:30:40Z</time>
      </trkpt>
      <trkpt lat="43.461502" lon="-3.807392">
        <ele>9.369</ele>
        <time>2022-08-28T16:30:41Z</time>
      </trkpt>
      <trkpt lat="43.461497" lon="-3.807247">
        <ele>9.358</ele>
        <time>2022-08-28T16:30:43Z</time>
      </trkpt>
      <trkpt lat="43.461497" lon="-3.807177">
        <ele>9.356</ele>
        <time>2022-08-28T16:30:44Z</time>
      </trkpt>
      <trkpt lat="43.461502" lon="-3.807107">
        <ele>9.010</ele>
        <time>2022-08-28T16:30:45Z</time>
      </trkpt>
      <trkpt lat="43.461509" lon="-3.807039">
        <ele>8.469</ele>
        <time>2022-08-28T16:30:46Z</time>
      </trkpt>
      <trkpt lat="43.461521" lon="-3.806904">
        <ele>7.365</ele>
        <time>2022-08-28T16:30:48Z</time>
      </trkpt>
      <trkpt lat="43.461524" lon="-3.806834">
        <ele>6.625</ele>
        <time>2022-08-28T16:30:49Z</time>
      </trkpt>
      <trkpt lat="43.461527" lon="-3.806697">
        <ele>5.526</ele>
        <time>2022-08-28T16:30:51Z</time>
      </trkpt>
      <trkpt lat="43.461544" lon="-3.806579">
        <ele>3.908</ele>
        <time>2022-08-28T16:30:53Z</time>
      </trkpt>
      <trkpt lat="43.461559" lon="-3.806496">
        <ele>4.509</ele>
        <time>2022-08-28T16:30:55Z</time>
      </trkpt>
      <trkpt lat="43.461574" lon="-3.806414">
        <ele>5.753</ele>
        <time>2022-08-28T16:30:57Z</time>
      </trkpt>
      <trkpt lat="43.461581" lon="-3.806319">
        <ele>6.483</ele>
        <time>2022-08-28T16:30:59Z</time>
      </trkpt>
      <trkpt lat="43.461588" lon="-3.806202">
        <ele>5.914</ele>
        <time>2022-08-28T16:31:01Z</time>
      </trkpt>
      <trkpt lat="43.461581" lon="-3.806084">
        <ele>6.433</ele>
        <time>2022-08-28T16:31:03Z</time>
      </trkpt>
      <trkpt lat="43.461578" lon="-3.805972">
        <ele>6.892</ele>
        <time>2022-08-28T16:31:05Z</time>
      </trkpt>
      <trkpt lat="43.461580" lon="-3.805855">
        <ele>7.020</ele>
        <time>2022-08-28T16:31:07Z</time>
      </trkpt>
      <trkpt lat="43.461585" lon="-3.805732">
        <ele>7.034</ele>
        <time>2022-08-28T16:31:09Z</time>
      </trkpt>
      <trkpt lat="43.461588" lon="-3.805669">
        <ele>7.063</ele>
        <time>2022-08-28T16:31:10Z</time>
      </trkpt>
      <trkpt lat="43.461593" lon="-3.805546">
        <ele>6.629</ele>
        <time>2022-08-28T16:31:12Z</time>
      </trkpt>
      <trkpt lat="43.461598" lon="-3.805483">
        <ele>6.557</ele>
        <time>2022-08-28T16:31:13Z</time>
      </trkpt>
      <trkpt lat="43.461610" lon="-3.805350">
        <ele>6.300</ele>
        <time>2022-08-28T16:31:15Z</time>
      </trkpt>
      <trkpt lat="43.461617" lon="-3.805283">
        <ele>6.120</ele>
        <time>2022-08-28T16:31:16Z</time>
      </trkpt>
      <trkpt lat="43.461624" lon="-3.805215">
        <ele>6.009</ele>
        <time>2022-08-28T16:31:17Z</time>
      </trkpt>
      <trkpt lat="43.461636" lon="-3.805080">
        <ele>5.556</ele>
        <time>2022-08-28T16:31:19Z</time>
      </trkpt>
      <trkpt lat="43.461648" lon="-3.804948">
        <ele>5.156</ele>
        <time>2022-08-28T16:31:21Z</time>
      </trkpt>
      <trkpt lat="43.461653" lon="-3.804883">
        <ele>5.187</ele>
        <time>2022-08-28T16:31:22Z</time>
      </trkpt>
      <trkpt lat="43.461661" lon="-3.804750">
        <ele>4.456</ele>
        <time>2022-08-28T16:31:24Z</time>
      </trkpt>
      <trkpt lat="43.461676" lon="-3.804622">
        <ele>4.175</ele>
        <time>2022-08-28T16:31:26Z</time>
      </trkpt>
      <trkpt lat="43.461689" lon="-3.804502">
        <ele>4.413</ele>
        <time>2022-08-28T16:31:28Z</time>
      </trkpt>
      <trkpt lat="43.461699" lon="-3.804375">
        <ele>4.117</ele>
        <time>2022-08-28T16:31:30Z</time>
      </trkpt>
      <trkpt lat="43.461704" lon="-3.804312">
        <ele>4.016</ele>
        <time>2022-08-28T16:31:31Z</time>
      </trkpt>
      <trkpt lat="43.461717" lon="-3.804179">
        <ele>3.842</ele>
        <time>2022-08-28T16:31:33Z</time>
      </trkpt>
      <trkpt lat="43.461722" lon="-3.804111">
        <ele>3.674</ele>
        <time>2022-08-28T16:31:34Z</time>
      </trkpt>
      <trkpt lat="43.461735" lon="-3.803981">
        <ele>3.356</ele>
        <time>2022-08-28T16:31:36Z</time>
      </trkpt>
      <trkpt lat="43.461743" lon="-3.803864">
        <ele>3.421</ele>
        <time>2022-08-28T16:31:38Z</time>
      </trkpt>
      <trkpt lat="43.461753" lon="-3.803747">
        <ele>3.509</ele>
        <time>2022-08-28T16:31:40Z</time>
      </trkpt>
      <trkpt lat="43.461756" lon="-3.803635">
        <ele>3.898</ele>
        <time>2022-08-28T16:31:42Z</time>
      </trkpt>
      <trkpt lat="43.461764" lon="-3.803532">
        <ele>4.118</ele>
        <time>2022-08-28T16:31:44Z</time>
      </trkpt>
      <trkpt lat="43.461776" lon="-3.803427">
        <ele>4.469</ele>
        <time>2022-08-28T16:31:46Z</time>
      </trkpt>
      <trkpt lat="43.461793" lon="-3.803330">
        <ele>4.498</ele>
        <time>2022-08-28T16:31:48Z</time>
      </trkpt>
      <trkpt lat="43.461810" lon="-3.803232">
        <ele>4.787</ele>
        <time>2022-08-28T16:31:50Z</time>
      </trkpt>
      <trkpt lat="43.461835" lon="-3.803139">
        <ele>4.775</ele>
        <time>2022-08-28T16:31:52Z</time>
      </trkpt>
      <trkpt lat="43.461845" lon="-3.803052">
        <ele>4.979</ele>
        <time>2022-08-28T16:31:54Z</time>
      </trkpt>
      <trkpt lat="43.461863" lon="-3.802989">
        <ele>5.178</ele>
        <time>2022-08-28T16:31:56Z</time>
      </trkpt>
      <trkpt lat="43.461858" lon="-3.802921">
        <ele>5.014</ele>
        <time>2022-08-28T16:31:59Z</time>
      </trkpt>
      <trkpt lat="43.461853" lon="-3.802849">
        <ele>5.797</ele>
        <time>2022-08-28T16:32:03Z</time>
      </trkpt>
      <trkpt lat="43.461843" lon="-3.802771">
        <ele>6.323</ele>
        <time>2022-08-28T16:32:06Z</time>
      </trkpt>
      <trkpt lat="43.461820" lon="-3.802698">
        <ele>6.425</ele>
        <time>2022-08-28T16:32:08Z</time>
      </trkpt>
      <trkpt lat="43.461783" lon="-3.802621">
        <ele>7.209</ele>
        <time>2022-08-28T16:32:10Z</time>
      </trkpt>
      <trkpt lat="43.461733" lon="-3.802556">
        <ele>7.780</ele>
        <time>2022-08-28T16:32:12Z</time>
      </trkpt>
      <trkpt lat="43.461686" lon="-3.802496">
        <ele>8.280</ele>
        <time>2022-08-28T16:32:14Z</time>
      </trkpt>
      <trkpt lat="43.461646" lon="-3.802413">
        <ele>8.331</ele>
        <time>2022-08-28T16:32:16Z</time>
      </trkpt>
      <trkpt lat="43.461616" lon="-3.802320">
        <ele>7.920</ele>
        <time>2022-08-28T16:32:18Z</time>
      </trkpt>
      <trkpt lat="43.461601" lon="-3.802225">
        <ele>6.479</ele>
        <time>2022-08-28T16:32:20Z</time>
      </trkpt>
      <trkpt lat="43.461604" lon="-3.802145">
        <ele>3.087</ele>
        <time>2022-08-28T16:32:22Z</time>
      </trkpt>
      <trkpt lat="43.461632" lon="-3.802065">
        <ele>2.591</ele>
        <time>2022-08-28T16:32:24Z</time>
      </trkpt>
      <trkpt lat="43.461659" lon="-3.801973">
        <ele>2.070</ele>
        <time>2022-08-28T16:32:26Z</time>
      </trkpt>
      <trkpt lat="43.461676" lon="-3.801875">
        <ele>2.326</ele>
        <time>2022-08-28T16:32:28Z</time>
      </trkpt>
      <trkpt lat="43.461689" lon="-3.801783">
        <ele>2.545</ele>
        <time>2022-08-28T16:32:30Z</time>
      </trkpt>
      <trkpt lat="43.461702" lon="-3.801703">
        <ele>2.647</ele>
        <time>2022-08-28T16:32:32Z</time>
      </trkpt>
      <trkpt lat="43.461720" lon="-3.801621">
        <ele>3.011</ele>
        <time>2022-08-28T16:32:34Z</time>
      </trkpt>
      <trkpt lat="43.461733" lon="-3.801529">
        <ele>2.709</ele>
        <time>2022-08-28T16:32:36Z</time>
      </trkpt>
      <trkpt lat="43.461740" lon="-3.801444">
        <ele>2.695</ele>
        <time>2022-08-28T16:32:38Z</time>
      </trkpt>
      <trkpt lat="43.461745" lon="-3.801364">
        <ele>2.725</ele>
        <time>2022-08-28T16:32:40Z</time>
      </trkpt>
      <trkpt lat="43.461752" lon="-3.801276">
        <ele>2.696</ele>
        <time>2022-08-28T16:32:42Z</time>
      </trkpt>
      <trkpt lat="43.461760" lon="-3.801176">
        <ele>2.695</ele>
        <time>2022-08-28T16:32:44Z</time>
      </trkpt>
      <trkpt lat="43.461767" lon="-3.801074">
        <ele>2.794</ele>
        <time>2022-08-28T16:32:46Z</time>
      </trkpt>
      <trkpt lat="43.461775" lon="-3.800967">
        <ele>2.752</ele>
        <time>2022-08-28T16:32:48Z</time>
      </trkpt>
      <trkpt lat="43.461785" lon="-3.800870">
        <ele>2.876</ele>
        <time>2022-08-28T16:32:50Z</time>
      </trkpt>
      <trkpt lat="43.461798" lon="-3.800768">
        <ele>2.775</ele>
        <time>2022-08-28T16:32:52Z</time>
      </trkpt>
      <trkpt lat="43.461810" lon="-3.800663">
        <ele>2.831</ele>
        <time>2022-08-28T16:32:54Z</time>
      </trkpt>
      <trkpt lat="43.461818" lon="-3.800556">
        <ele>3.139</ele>
        <time>2022-08-28T16:32:56Z</time>
      </trkpt>
      <trkpt lat="43.461831" lon="-3.800448">
        <ele>3.401</ele>
        <time>2022-08-28T16:32:58Z</time>
      </trkpt>
      <trkpt lat="43.461843" lon="-3.800341">
        <ele>3.521</ele>
        <time>2022-08-28T16:33:00Z</time>
      </trkpt>
      <trkpt lat="43.461853" lon="-3.800234">
        <ele>3.809</ele>
        <time>2022-08-28T16:33:02Z</time>
      </trkpt>
      <trkpt lat="43.461865" lon="-3.800127">
        <ele>4.324</ele>
        <time>2022-08-28T16:33:04Z</time>
      </trkpt>
      <trkpt lat="43.461873" lon="-3.800020">
        <ele>4.664</ele>
        <time>2022-08-28T16:33:06Z</time>
      </trkpt>
      <trkpt lat="43.461883" lon="-3.799920">
        <ele>4.675</ele>
        <time>2022-08-28T16:33:08Z</time>
      </trkpt>
      <trkpt lat="43.461893" lon="-3.799832">
        <ele>4.784</ele>
        <time>2022-08-28T16:33:10Z</time>
      </trkpt>
      <trkpt lat="43.461900" lon="-3.799745">
        <ele>4.863</ele>
        <time>2022-08-28T16:33:12Z</time>
      </trkpt>
      <trkpt lat="43.461910" lon="-3.799655">
        <ele>4.521</ele>
        <time>2022-08-28T16:33:14Z</time>
      </trkpt>
      <trkpt lat="43.461917" lon="-3.799560">
        <ele>4.325</ele>
        <time>2022-08-28T16:33:16Z</time>
      </trkpt>
      <trkpt lat="43.461924" lon="-3.799463">
        <ele>4.444</ele>
        <time>2022-08-28T16:33:18Z</time>
      </trkpt>
      <trkpt lat="43.461932" lon="-3.799368">
        <ele>4.280</ele>
        <time>2022-08-28T16:33:20Z</time>
      </trkpt>
      <trkpt lat="43.461940" lon="-3.799271">
        <ele>3.767</ele>
        <time>2022-08-28T16:33:22Z</time>
      </trkpt>
      <trkpt lat="43.461950" lon="-3.799173">
        <ele>3.681</ele>
        <time>2022-08-28T16:33:24Z</time>
      </trkpt>
      <trkpt lat="43.461960" lon="-3.799083">
        <ele>3.419</ele>
        <time>2022-08-28T16:33:26Z</time>
      </trkpt>
      <trkpt lat="43.461965" lon="-3.798995">
        <ele>3.109</ele>
        <time>2022-08-28T16:33:28Z</time>
      </trkpt>
      <trkpt lat="43.461972" lon="-3.798902">
        <ele>2.837</ele>
        <time>2022-08-28T16:33:30Z</time>
      </trkpt>
      <trkpt lat="43.461984" lon="-3.798812">
        <ele>2.297</ele>
        <time>2022-08-28T16:33:32Z</time>
      </trkpt>
      <trkpt lat="43.461996" lon="-3.798715">
        <ele>2.218</ele>
        <time>2022-08-28T16:33:34Z</time>
      </trkpt>
      <trkpt lat="43.462009" lon="-3.798608">
        <ele>2.157</ele>
        <time>2022-08-28T16:33:36Z</time>
      </trkpt>
      <trkpt lat="43.462019" lon="-3.798503">
        <ele>1.866</ele>
        <time>2022-08-28T16:33:38Z</time>
      </trkpt>
      <trkpt lat="43.462029" lon="-3.798405">
        <ele>2.074</ele>
        <time>2022-08-28T16:33:40Z</time>
      </trkpt>
      <trkpt lat="43.462037" lon="-3.798308">
        <ele>1.998</ele>
        <time>2022-08-28T16:33:42Z</time>
      </trkpt>
      <trkpt lat="43.462044" lon="-3.798216">
        <ele>1.917</ele>
        <time>2022-08-28T16:33:44Z</time>
      </trkpt>
      <trkpt lat="43.462051" lon="-3.798131">
        <ele>1.883</ele>
        <time>2022-08-28T16:33:46Z</time>
      </trkpt>
      <trkpt lat="43.462058" lon="-3.798053">
        <ele>1.563</ele>
        <time>2022-08-28T16:33:48Z</time>
      </trkpt>
      <trkpt lat="43.462065" lon="-3.797965">
        <ele>1.544</ele>
        <time>2022-08-28T16:33:50Z</time>
      </trkpt>
      <trkpt lat="43.462067" lon="-3.797872">
        <ele>1.618</ele>
        <time>2022-08-28T16:33:52Z</time>
      </trkpt>
      <trkpt lat="43.462070" lon="-3.797770">
        <ele>1.909</ele>
        <time>2022-08-28T16:33:54Z</time>
      </trkpt>
      <trkpt lat="43.462075" lon="-3.797665">
        <ele>2.087</ele>
        <time>2022-08-28T16:33:56Z</time>
      </trkpt>
      <trkpt lat="43.462082" lon="-3.797567">
        <ele>2.057</ele>
        <time>2022-08-28T16:33:58Z</time>
      </trkpt>
      <trkpt lat="43.462105" lon="-3.797479">
        <ele>2.218</ele>
        <time>2022-08-28T16:34:00Z</time>
      </trkpt>
      <trkpt lat="43.462145" lon="-3.797404">
        <ele>2.487</ele>
        <time>2022-08-28T16:34:02Z</time>
      </trkpt>
      <trkpt lat="43.462195" lon="-3.797329">
        <ele>2.936</ele>
        <time>2022-08-28T16:34:04Z</time>
      </trkpt>
      <trkpt lat="43.462240" lon="-3.797252">
        <ele>3.394</ele>
        <time>2022-08-28T16:34:06Z</time>
      </trkpt>
      <trkpt lat="43.462283" lon="-3.797174">
        <ele>3.558</ele>
        <time>2022-08-28T16:34:08Z</time>
      </trkpt>
      <trkpt lat="43.462330" lon="-3.797092">
        <ele>3.837</ele>
        <time>2022-08-28T16:34:10Z</time>
      </trkpt>
      <trkpt lat="43.462378" lon="-3.797009">
        <ele>3.823</ele>
        <time>2022-08-28T16:34:12Z</time>
      </trkpt>
      <trkpt lat="43.462431" lon="-3.796922">
        <ele>4.087</ele>
        <time>2022-08-28T16:34:14Z</time>
      </trkpt>
      <trkpt lat="43.462479" lon="-3.796832">
        <ele>4.542</ele>
        <time>2022-08-28T16:34:16Z</time>
      </trkpt>
      <trkpt lat="43.462527" lon="-3.796742">
        <ele>4.726</ele>
        <time>2022-08-28T16:34:18Z</time>
      </trkpt>
      <trkpt lat="43.462560" lon="-3.796650">
        <ele>5.109</ele>
        <time>2022-08-28T16:34:20Z</time>
      </trkpt>
      <trkpt lat="43.462580" lon="-3.796558">
        <ele>5.499</ele>
        <time>2022-08-28T16:34:22Z</time>
      </trkpt>
      <trkpt lat="43.462608" lon="-3.796471">
        <ele>5.199</ele>
        <time>2022-08-28T16:34:24Z</time>
      </trkpt>
      <trkpt lat="43.462653" lon="-3.796393">
        <ele>5.570</ele>
        <time>2022-08-28T16:34:26Z</time>
      </trkpt>
      <trkpt lat="43.462703" lon="-3.796328">
        <ele>5.549</ele>
        <time>2022-08-28T16:34:28Z</time>
      </trkpt>
      <trkpt lat="43.462761" lon="-3.796263">
        <ele>5.388</ele>
        <time>2022-08-28T16:34:30Z</time>
      </trkpt>
      <trkpt lat="43.462814" lon="-3.796175">
        <ele>4.446</ele>
        <time>2022-08-28T16:34:32Z</time>
      </trkpt>
      <trkpt lat="43.462851" lon="-3.796068">
        <ele>4.460</ele>
        <time>2022-08-28T16:34:34Z</time>
      </trkpt>
      <trkpt lat="43.462874" lon="-3.795956">
        <ele>4.019</ele>
        <time>2022-08-28T16:34:36Z</time>
      </trkpt>
      <trkpt lat="43.462874" lon="-3.795856">
        <ele>3.415</ele>
        <time>2022-08-28T16:34:38Z</time>
      </trkpt>
      <trkpt lat="43.462849" lon="-3.795789">
        <ele>2.773</ele>
        <time>2022-08-28T16:34:40Z</time>
      </trkpt>
      <trkpt lat="43.462822" lon="-3.795686">
        <ele>2.185</ele>
        <time>2022-08-28T16:36:14Z</time>
      </trkpt>
      <trkpt lat="43.462837" lon="-3.795606">
        <ele>3.013</ele>
        <time>2022-08-28T16:36:17Z</time>
      </trkpt>
      <trkpt lat="43.462845" lon="-3.795528">
        <ele>2.909</ele>
        <time>2022-08-28T16:36:19Z</time>
      </trkpt>
      <trkpt lat="43.462842" lon="-3.795440">
        <ele>2.898</ele>
        <time>2022-08-28T16:36:21Z</time>
      </trkpt>
      <trkpt lat="43.462837" lon="-3.795348">
        <ele>2.618</ele>
        <time>2022-08-28T16:36:23Z</time>
      </trkpt>
      <trkpt lat="43.462837" lon="-3.795248">
        <ele>2.659</ele>
        <time>2022-08-28T16:36:25Z</time>
      </trkpt>
      <trkpt lat="43.462824" lon="-3.795141">
        <ele>2.778</ele>
        <time>2022-08-28T16:36:27Z</time>
      </trkpt>
      <trkpt lat="43.462804" lon="-3.795034">
        <ele>3.337</ele>
        <time>2022-08-28T16:36:29Z</time>
      </trkpt>
      <trkpt lat="43.462797" lon="-3.794931">
        <ele>3.375</ele>
        <time>2022-08-28T16:36:31Z</time>
      </trkpt>
      <trkpt lat="43.462784" lon="-3.794828">
        <ele>3.739</ele>
        <time>2022-08-28T16:36:33Z</time>
      </trkpt>
      <trkpt lat="43.462774" lon="-3.794720">
        <ele>3.988</ele>
        <time>2022-08-28T16:36:35Z</time>
      </trkpt>
      <trkpt lat="43.462762" lon="-3.794612">
        <ele>4.134</ele>
        <time>2022-08-28T16:36:37Z</time>
      </trkpt>
      <trkpt lat="43.462755" lon="-3.794504">
        <ele>4.287</ele>
        <time>2022-08-28T16:36:39Z</time>
      </trkpt>
      <trkpt lat="43.462748" lon="-3.794389">
        <ele>3.842</ele>
        <time>2022-08-28T16:36:41Z</time>
      </trkpt>
      <trkpt lat="43.462738" lon="-3.794271">
        <ele>3.626</ele>
        <time>2022-08-28T16:36:43Z</time>
      </trkpt>
      <trkpt lat="43.462736" lon="-3.794156">
        <ele>3.009</ele>
        <time>2022-08-28T16:36:45Z</time>
      </trkpt>
      <trkpt lat="43.462729" lon="-3.794038">
        <ele>2.169</ele>
        <time>2022-08-28T16:36:47Z</time>
      </trkpt>
      <trkpt lat="43.462717" lon="-3.793920">
        <ele>1.899</ele>
        <time>2022-08-28T16:36:49Z</time>
      </trkpt>
      <trkpt lat="43.462709" lon="-3.793800">
        <ele>1.170</ele>
        <time>2022-08-28T16:36:51Z</time>
      </trkpt>
      <trkpt lat="43.462704" lon="-3.793737">
        <ele>0.819</ele>
        <time>2022-08-28T16:36:52Z</time>
      </trkpt>
      <trkpt lat="43.462699" lon="-3.793675">
        <ele>0.448</ele>
        <time>2022-08-28T16:36:53Z</time>
      </trkpt>
      <trkpt lat="43.462691" lon="-3.793550">
        <ele>-0.766</ele>
        <time>2022-08-28T16:36:55Z</time>
      </trkpt>
      <trkpt lat="43.462686" lon="-3.793428">
        <ele>-1.160</ele>
        <time>2022-08-28T16:36:57Z</time>
      </trkpt>
      <trkpt lat="43.462681" lon="-3.793366">
        <ele>-1.569</ele>
        <time>2022-08-28T16:36:58Z</time>
      </trkpt>
      <trkpt lat="43.462674" lon="-3.793244">
        <ele>-1.965</ele>
        <time>2022-08-28T16:37:00Z</time>
      </trkpt>
      <trkpt lat="43.462669" lon="-3.793124">
        <ele>-2.146</ele>
        <time>2022-08-28T16:37:02Z</time>
      </trkpt>
      <trkpt lat="43.462664" lon="-3.793004">
        <ele>-2.588</ele>
        <time>2022-08-28T16:37:04Z</time>
      </trkpt>
      <trkpt lat="43.462657" lon="-3.792887">
        <ele>-2.516</ele>
        <time>2022-08-28T16:37:06Z</time>
      </trkpt>
      <trkpt lat="43.462647" lon="-3.792772">
        <ele>-2.209</ele>
        <time>2022-08-28T16:37:08Z</time>
      </trkpt>
      <trkpt lat="43.462642" lon="-3.792650">
        <ele>-2.585</ele>
        <time>2022-08-28T16:37:10Z</time>
      </trkpt>
      <trkpt lat="43.462634" lon="-3.792532">
        <ele>-3.155</ele>
        <time>2022-08-28T16:37:12Z</time>
      </trkpt>
      <trkpt lat="43.462627" lon="-3.792469">
        <ele>-2.686</ele>
        <time>2022-08-28T16:37:13Z</time>
      </trkpt>
      <trkpt lat="43.462615" lon="-3.792349">
        <ele>-2.545</ele>
        <time>2022-08-28T16:37:15Z</time>
      </trkpt>
      <trkpt lat="43.462607" lon="-3.792236">
        <ele>-2.554</ele>
        <time>2022-08-28T16:37:17Z</time>
      </trkpt>
      <trkpt lat="43.462597" lon="-3.792121">
        <ele>-2.712</ele>
        <time>2022-08-28T16:37:19Z</time>
      </trkpt>
      <trkpt lat="43.462589" lon="-3.792004">
        <ele>-2.196</ele>
        <time>2022-08-28T16:37:21Z</time>
      </trkpt>
      <trkpt lat="43.462582" lon="-3.791887">
        <ele>-1.985</ele>
        <time>2022-08-28T16:37:23Z</time>
      </trkpt>
      <trkpt lat="43.462579" lon="-3.791784">
        <ele>-1.591</ele>
        <time>2022-08-28T16:37:25Z</time>
      </trkpt>
      <trkpt lat="43.462572" lon="-3.791689">
        <ele>-1.338</ele>
        <time>2022-08-28T16:37:27Z</time>
      </trkpt>
      <trkpt lat="43.462572" lon="-3.791612">
        <ele>-1.570</ele>
        <time>2022-08-28T16:37:29Z</time>
      </trkpt>
      <trkpt lat="43.462619" lon="-3.791574">
        <ele>-1.317</ele>
        <time>2022-08-28T16:37:32Z</time>
      </trkpt>
      <trkpt lat="43.462569" lon="-3.791574">
        <ele>-1.009</ele>
        <time>2022-08-28T16:38:05Z</time>
      </trkpt>
      <trkpt lat="43.462527" lon="-3.791547">
        <ele>-1.074</ele>
        <time>2022-08-28T16:38:09Z</time>
      </trkpt>
      <trkpt lat="43.462557" lon="-3.791485">
        <ele>-0.254</ele>
        <time>2022-08-28T16:38:15Z</time>
      </trkpt>
      <trkpt lat="43.462589" lon="-3.791397">
        <ele>0.715</ele>
        <time>2022-08-28T16:38:18Z</time>
      </trkpt>
      <trkpt lat="43.462577" lon="-3.791305">
        <ele>0.924</ele>
        <time>2022-08-28T16:38:20Z</time>
      </trkpt>
      <trkpt lat="43.462560" lon="-3.791225">
        <ele>-0.133</ele>
        <time>2022-08-28T16:38:22Z</time>
      </trkpt>
      <trkpt lat="43.462543" lon="-3.791133">
        <ele>-0.981</ele>
        <time>2022-08-28T16:38:24Z</time>
      </trkpt>
      <trkpt lat="43.462535" lon="-3.791045">
        <ele>-0.845</ele>
        <time>2022-08-28T16:38:26Z</time>
      </trkpt>
      <trkpt lat="43.462520" lon="-3.790965">
        <ele>-1.034</ele>
        <time>2022-08-28T16:38:28Z</time>
      </trkpt>
      <trkpt lat="43.462508" lon="-3.790888">
        <ele>-0.560</ele>
        <time>2022-08-28T16:38:30Z</time>
      </trkpt>
      <trkpt lat="43.462496" lon="-3.790813">
        <ele>-0.457</ele>
        <time>2022-08-28T16:38:32Z</time>
      </trkpt>
      <trkpt lat="43.462479" lon="-3.790715">
        <ele>-0.500</ele>
        <time>2022-08-28T16:38:34Z</time>
      </trkpt>
      <trkpt lat="43.462454" lon="-3.790607">
        <ele>-0.820</ele>
        <time>2022-08-28T16:38:36Z</time>
      </trkpt>
      <trkpt lat="43.462424" lon="-3.790494">
        <ele>-0.909</ele>
        <time>2022-08-28T16:38:38Z</time>
      </trkpt>
      <trkpt lat="43.462391" lon="-3.790377">
        <ele>-0.946</ele>
        <time>2022-08-28T16:38:40Z</time>
      </trkpt>
      <trkpt lat="43.462349" lon="-3.790252">
        <ele>-0.416</ele>
        <time>2022-08-28T16:38:42Z</time>
      </trkpt>
      <trkpt lat="43.462332" lon="-3.790184">
        <ele>0.227</ele>
        <time>2022-08-28T16:38:43Z</time>
      </trkpt>
      <trkpt lat="43.462304" lon="-3.790056">
        <ele>0.966</ele>
        <time>2022-08-28T16:38:45Z</time>
      </trkpt>
      <trkpt lat="43.462281" lon="-3.789924">
        <ele>1.385</ele>
        <time>2022-08-28T16:38:47Z</time>
      </trkpt>
      <trkpt lat="43.462258" lon="-3.789782">
        <ele>1.383</ele>
        <time>2022-08-28T16:38:49Z</time>
      </trkpt>
      <trkpt lat="43.462238" lon="-3.789639">
        <ele>1.247</ele>
        <time>2022-08-28T16:38:51Z</time>
      </trkpt>
      <trkpt lat="43.462220" lon="-3.789496">
        <ele>0.866</ele>
        <time>2022-08-28T16:38:53Z</time>
      </trkpt>
      <trkpt lat="43.462208" lon="-3.789356">
        <ele>0.352</ele>
        <time>2022-08-28T16:38:55Z</time>
      </trkpt>
      <trkpt lat="43.462193" lon="-3.789218">
        <ele>0.252</ele>
        <time>2022-08-28T16:38:57Z</time>
      </trkpt>
      <trkpt lat="43.462186" lon="-3.789153">
        <ele>0.153</ele>
        <time>2022-08-28T16:38:58Z</time>
      </trkpt>
      <trkpt lat="43.462171" lon="-3.789053">
        <ele>0.408</ele>
        <time>2022-08-28T16:39:00Z</time>
      </trkpt>
      <trkpt lat="43.462158" lon="-3.788963">
        <ele>0.509</ele>
        <time>2022-08-28T16:39:02Z</time>
      </trkpt>
      <trkpt lat="43.462150" lon="-3.788885">
        <ele>0.066</ele>
        <time>2022-08-28T16:39:04Z</time>
      </trkpt>
      <trkpt lat="43.462142" lon="-3.788810">
        <ele>-0.476</ele>
        <time>2022-08-28T16:39:06Z</time>
      </trkpt>
      <trkpt lat="43.462134" lon="-3.788748">
        <ele>-0.417</ele>
        <time>2022-08-28T16:39:08Z</time>
      </trkpt>
      <trkpt lat="43.462126" lon="-3.788673">
        <ele>-0.486</ele>
        <time>2022-08-28T16:39:10Z</time>
      </trkpt>
      <trkpt lat="43.462119" lon="-3.788595">
        <ele>0.285</ele>
        <time>2022-08-28T16:39:12Z</time>
      </trkpt>
      <trkpt lat="43.462117" lon="-3.788488">
        <ele>5.743</ele>
        <time>2022-08-28T16:40:30Z</time>
      </trkpt>
      <trkpt lat="43.462107" lon="-3.788416">
        <ele>5.677</ele>
        <time>2022-08-28T16:40:32Z</time>
      </trkpt>
      <trkpt lat="43.462089" lon="-3.788326">
        <ele>6.176</ele>
        <time>2022-08-28T16:40:34Z</time>
      </trkpt>
      <trkpt lat="43.462072" lon="-3.788229">
        <ele>6.332</ele>
        <time>2022-08-28T16:40:36Z</time>
      </trkpt>
      <trkpt lat="43.462052" lon="-3.788141">
        <ele>6.159</ele>
        <time>2022-08-28T16:40:38Z</time>
      </trkpt>
      <trkpt lat="43.462044" lon="-3.788056">
        <ele>6.103</ele>
        <time>2022-08-28T16:40:40Z</time>
      </trkpt>
      <trkpt lat="43.462034" lon="-3.787979">
        <ele>6.123</ele>
        <time>2022-08-28T16:40:42Z</time>
      </trkpt>
      <trkpt lat="43.462031" lon="-3.787907">
        <ele>5.709</ele>
        <time>2022-08-28T16:40:44Z</time>
      </trkpt>
      <trkpt lat="43.462033" lon="-3.787842">
        <ele>5.536</ele>
        <time>2022-08-28T16:40:46Z</time>
      </trkpt>
      <trkpt lat="43.462056" lon="-3.787777">
        <ele>5.256</ele>
        <time>2022-08-28T16:40:48Z</time>
      </trkpt>
      <trkpt lat="43.462081" lon="-3.787705">
        <ele>5.097</ele>
        <time>2022-08-28T16:40:51Z</time>
      </trkpt>
      <trkpt lat="43.462108" lon="-3.787650">
        <ele>5.126</ele>
        <time>2022-08-28T16:40:53Z</time>
      </trkpt>
      <trkpt lat="43.462145" lon="-3.787595">
        <ele>5.335</ele>
        <time>2022-08-28T16:40:55Z</time>
      </trkpt>
      <trkpt lat="43.462192" lon="-3.787535">
        <ele>5.163</ele>
        <time>2022-08-28T16:40:57Z</time>
      </trkpt>
      <trkpt lat="43.462247" lon="-3.787478">
        <ele>5.237</ele>
        <time>2022-08-28T16:40:59Z</time>
      </trkpt>
      <trkpt lat="43.462299" lon="-3.787426">
        <ele>5.546</ele>
        <time>2022-08-28T16:41:01Z</time>
      </trkpt>
      <trkpt lat="43.462349" lon="-3.787389">
        <ele>5.722</ele>
        <time>2022-08-28T16:41:03Z</time>
      </trkpt>
      <trkpt lat="43.462389" lon="-3.787352">
        <ele>6.051</ele>
        <time>2022-08-28T16:41:05Z</time>
      </trkpt>
      <trkpt lat="43.462427" lon="-3.787309">
        <ele>6.101</ele>
        <time>2022-08-28T16:41:07Z</time>
      </trkpt>
      <trkpt lat="43.462470" lon="-3.787259">
        <ele>6.211</ele>
        <time>2022-08-28T16:41:09Z</time>
      </trkpt>
      <trkpt lat="43.462522" lon="-3.787199">
        <ele>6.609</ele>
        <time>2022-08-28T16:41:11Z</time>
      </trkpt>
      <trkpt lat="43.462577" lon="-3.787129">
        <ele>6.936</ele>
        <time>2022-08-28T16:41:13Z</time>
      </trkpt>
      <trkpt lat="43.462622" lon="-3.787067">
        <ele>7.136</ele>
        <time>2022-08-28T16:41:15Z</time>
      </trkpt>
      <trkpt lat="43.462657" lon="-3.787007">
        <ele>7.257</ele>
        <time>2022-08-28T16:41:17Z</time>
      </trkpt>
      <trkpt lat="43.462690" lon="-3.786955">
        <ele>7.666</ele>
        <time>2022-08-28T16:41:19Z</time>
      </trkpt>
      <trkpt lat="43.462737" lon="-3.786898">
        <ele>7.945</ele>
        <time>2022-08-28T16:41:21Z</time>
      </trkpt>
      <trkpt lat="43.462782" lon="-3.786838">
        <ele>8.083</ele>
        <time>2022-08-28T16:41:23Z</time>
      </trkpt>
      <trkpt lat="43.462820" lon="-3.786778">
        <ele>8.217</ele>
        <time>2022-08-28T16:41:25Z</time>
      </trkpt>
      <trkpt lat="43.462858" lon="-3.786711">
        <ele>8.296</ele>
        <time>2022-08-28T16:41:27Z</time>
      </trkpt>
      <trkpt lat="43.462895" lon="-3.786646">
        <ele>8.342</ele>
        <time>2022-08-28T16:41:29Z</time>
      </trkpt>
      <trkpt lat="43.462932" lon="-3.786573">
        <ele>8.072</ele>
        <time>2022-08-28T16:41:31Z</time>
      </trkpt>
      <trkpt lat="43.462972" lon="-3.786496">
        <ele>7.713</ele>
        <time>2022-08-28T16:41:33Z</time>
      </trkpt>
      <trkpt lat="43.463010" lon="-3.786416">
        <ele>7.514</ele>
        <time>2022-08-28T16:41:35Z</time>
      </trkpt>
      <trkpt lat="43.463038" lon="-3.786318">
        <ele>6.709</ele>
        <time>2022-08-28T16:41:37Z</time>
      </trkpt>
      <trkpt lat="43.463061" lon="-3.786213">
        <ele>6.548</ele>
        <time>2022-08-28T16:41:39Z</time>
      </trkpt>
      <trkpt lat="43.463088" lon="-3.786105">
        <ele>6.448</ele>
        <time>2022-08-28T16:41:41Z</time>
      </trkpt>
      <trkpt lat="43.463110" lon="-3.785997">
        <ele>5.929</ele>
        <time>2022-08-28T16:41:43Z</time>
      </trkpt>
      <trkpt lat="43.463130" lon="-3.785892">
        <ele>5.658</ele>
        <time>2022-08-28T16:41:45Z</time>
      </trkpt>
      <trkpt lat="43.463152" lon="-3.785785">
        <ele>5.697</ele>
        <time>2022-08-28T16:41:47Z</time>
      </trkpt>
      <trkpt lat="43.463177" lon="-3.785678">
        <ele>5.515</ele>
        <time>2022-08-28T16:41:49Z</time>
      </trkpt>
      <trkpt lat="43.463202" lon="-3.785573">
        <ele>5.589</ele>
        <time>2022-08-28T16:41:51Z</time>
      </trkpt>
      <trkpt lat="43.463227" lon="-3.785466">
        <ele>5.218</ele>
        <time>2022-08-28T16:41:53Z</time>
      </trkpt>
      <trkpt lat="43.463252" lon="-3.785354">
        <ele>4.444</ele>
        <time>2022-08-28T16:41:55Z</time>
      </trkpt>
      <trkpt lat="43.463269" lon="-3.785246">
        <ele>4.448</ele>
        <time>2022-08-28T16:41:57Z</time>
      </trkpt>
      <trkpt lat="43.463267" lon="-3.785139">
        <ele>4.561</ele>
        <time>2022-08-28T16:41:59Z</time>
      </trkpt>
      <trkpt lat="43.463252" lon="-3.785037">
        <ele>4.317</ele>
        <time>2022-08-28T16:42:01Z</time>
      </trkpt>
      <trkpt lat="43.463230" lon="-3.784940">
        <ele>4.109</ele>
        <time>2022-08-28T16:42:03Z</time>
      </trkpt>
      <trkpt lat="43.463200" lon="-3.784847">
        <ele>3.745</ele>
        <time>2022-08-28T16:42:05Z</time>
      </trkpt>
      <trkpt lat="43.463162" lon="-3.784757">
        <ele>2.655</ele>
        <time>2022-08-28T16:42:07Z</time>
      </trkpt>
      <trkpt lat="43.463127" lon="-3.784667">
        <ele>2.256</ele>
        <time>2022-08-28T16:42:09Z</time>
      </trkpt>
      <trkpt lat="43.463094" lon="-3.784569">
        <ele>1.535</ele>
        <time>2022-08-28T16:42:11Z</time>
      </trkpt>
      <trkpt lat="43.463059" lon="-3.784472">
        <ele>0.584</ele>
        <time>2022-08-28T16:42:13Z</time>
      </trkpt>
      <trkpt lat="43.463039" lon="-3.784367">
        <ele>0.442</ele>
        <time>2022-08-28T16:42:15Z</time>
      </trkpt>
      <trkpt lat="43.463029" lon="-3.784259">
        <ele>0.186</ele>
        <time>2022-08-28T16:42:17Z</time>
      </trkpt>
      <trkpt lat="43.463031" lon="-3.784146">
        <ele>-0.435</ele>
        <time>2022-08-28T16:42:19Z</time>
      </trkpt>
      <trkpt lat="43.463033" lon="-3.784033">
        <ele>-0.431</ele>
        <time>2022-08-28T16:42:21Z</time>
      </trkpt>
      <trkpt lat="43.463048" lon="-3.783916">
        <ele>-0.524</ele>
        <time>2022-08-28T16:42:23Z</time>
      </trkpt>
      <trkpt lat="43.463065" lon="-3.783803">
        <ele>-0.804</ele>
        <time>2022-08-28T16:42:25Z</time>
      </trkpt>
      <trkpt lat="43.463083" lon="-3.783691">
        <ele>-1.314</ele>
        <time>2022-08-28T16:42:27Z</time>
      </trkpt>
      <trkpt lat="43.463101" lon="-3.783578">
        <ele>-1.509</ele>
        <time>2022-08-28T16:42:29Z</time>
      </trkpt>
      <trkpt lat="43.463121" lon="-3.783468">
        <ele>-0.563</ele>
        <time>2022-08-28T16:42:31Z</time>
      </trkpt>
      <trkpt lat="43.463141" lon="-3.783358">
        <ele>-0.143</ele>
        <time>2022-08-28T16:42:33Z</time>
      </trkpt>
      <trkpt lat="43.463158" lon="-3.783253">
        <ele>0.134</ele>
        <time>2022-08-28T16:42:35Z</time>
      </trkpt>
      <trkpt lat="43.463173" lon="-3.783146">
        <ele>0.353</ele>
        <time>2022-08-28T16:42:37Z</time>
      </trkpt>
      <trkpt lat="43.463203" lon="-3.783058">
        <ele>0.552</ele>
        <time>2022-08-28T16:42:39Z</time>
      </trkpt>
      <trkpt lat="43.463226" lon="-3.782973">
        <ele>0.640</ele>
        <time>2022-08-28T16:42:41Z</time>
      </trkpt>
      <trkpt lat="43.463238" lon="-3.782888">
        <ele>1.074</ele>
        <time>2022-08-28T16:42:43Z</time>
      </trkpt>
      <trkpt lat="43.463251" lon="-3.782801">
        <ele>1.633</ele>
        <time>2022-08-28T16:42:45Z</time>
      </trkpt>
      <trkpt lat="43.463273" lon="-3.782709">
        <ele>1.619</ele>
        <time>2022-08-28T16:42:47Z</time>
      </trkpt>
      <trkpt lat="43.463305" lon="-3.782616">
        <ele>1.753</ele>
        <time>2022-08-28T16:42:49Z</time>
      </trkpt>
      <trkpt lat="43.463320" lon="-3.782524">
        <ele>1.804</ele>
        <time>2022-08-28T16:42:51Z</time>
      </trkpt>
      <trkpt lat="43.463340" lon="-3.782446">
        <ele>2.114</ele>
        <time>2022-08-28T16:42:53Z</time>
      </trkpt>
      <trkpt lat="43.463380" lon="-3.782386">
        <ele>2.609</ele>
        <time>2022-08-28T16:42:55Z</time>
      </trkpt>
      <trkpt lat="43.463430" lon="-3.782338">
        <ele>2.496</ele>
        <time>2022-08-28T16:42:57Z</time>
      </trkpt>
      <trkpt lat="43.463477" lon="-3.782285">
        <ele>2.626</ele>
        <time>2022-08-28T16:42:59Z</time>
      </trkpt>
      <trkpt lat="43.463532" lon="-3.782233">
        <ele>2.837</ele>
        <time>2022-08-28T16:43:01Z</time>
      </trkpt>
      <trkpt lat="43.463597" lon="-3.782180">
        <ele>2.816</ele>
        <time>2022-08-28T16:43:03Z</time>
      </trkpt>
      <trkpt lat="43.463657" lon="-3.782110">
        <ele>2.965</ele>
        <time>2022-08-28T16:43:05Z</time>
      </trkpt>
      <trkpt lat="43.463695" lon="-3.782027">
        <ele>3.063</ele>
        <time>2022-08-28T16:43:07Z</time>
      </trkpt>
      <trkpt lat="43.463728" lon="-3.781935">
        <ele>2.817</ele>
        <time>2022-08-28T16:43:09Z</time>
      </trkpt>
      <trkpt lat="43.463753" lon="-3.781835">
        <ele>2.876</ele>
        <time>2022-08-28T16:43:11Z</time>
      </trkpt>
      <trkpt lat="43.463773" lon="-3.781732">
        <ele>2.622</ele>
        <time>2022-08-28T16:43:13Z</time>
      </trkpt>
      <trkpt lat="43.463791" lon="-3.781629">
        <ele>2.682</ele>
        <time>2022-08-28T16:43:15Z</time>
      </trkpt>
      <trkpt lat="43.463813" lon="-3.781529">
        <ele>2.643</ele>
        <time>2022-08-28T16:43:17Z</time>
      </trkpt>
      <trkpt lat="43.463840" lon="-3.781431">
        <ele>2.917</ele>
        <time>2022-08-28T16:43:19Z</time>
      </trkpt>
      <trkpt lat="43.463860" lon="-3.781333">
        <ele>3.609</ele>
        <time>2022-08-28T16:43:21Z</time>
      </trkpt>
      <trkpt lat="43.463877" lon="-3.781231">
        <ele>3.919</ele>
        <time>2022-08-28T16:43:23Z</time>
      </trkpt>
      <trkpt lat="43.463894" lon="-3.781129">
        <ele>4.169</ele>
        <time>2022-08-28T16:43:25Z</time>
      </trkpt>
      <trkpt lat="43.463911" lon="-3.781031">
        <ele>4.660</ele>
        <time>2022-08-28T16:43:27Z</time>
      </trkpt>
      <trkpt lat="43.463933" lon="-3.780941">
        <ele>4.849</ele>
        <time>2022-08-28T16:43:29Z</time>
      </trkpt>
      <trkpt lat="43.463956" lon="-3.780869">
        <ele>5.658</ele>
        <time>2022-08-28T16:43:31Z</time>
      </trkpt>
      <trkpt lat="43.463998" lon="-3.780829">
        <ele>5.896</ele>
        <time>2022-08-28T16:43:33Z</time>
      </trkpt>
      <trkpt lat="43.464060" lon="-3.780827">
        <ele>5.660</ele>
        <time>2022-08-28T16:43:35Z</time>
      </trkpt>
      <trkpt lat="43.464125" lon="-3.780859">
        <ele>5.819</ele>
        <time>2022-08-28T16:43:37Z</time>
      </trkpt>
      <trkpt lat="43.464172" lon="-3.780909">
        <ele>6.085</ele>
        <time>2022-08-28T16:43:39Z</time>
      </trkpt>
      <trkpt lat="43.464215" lon="-3.780979">
        <ele>6.127</ele>
        <time>2022-08-28T16:43:42Z</time>
      </trkpt>
      <trkpt lat="43.464248" lon="-3.781042">
        <ele>6.168</ele>
        <time>2022-08-28T16:43:44Z</time>
      </trkpt>
      <trkpt lat="43.464285" lon="-3.780974">
        <ele>4.914</ele>
        <time>2022-08-28T16:44:02Z</time>
      </trkpt>
      <trkpt lat="43.464340" lon="-3.780926">
        <ele>5.109</ele>
        <time>2022-08-28T16:44:05Z</time>
      </trkpt>
      <trkpt lat="43.464387" lon="-3.780901">
        <ele>5.313</ele>
        <time>2022-08-28T16:44:07Z</time>
      </trkpt>
      <trkpt lat="43.464437" lon="-3.780879">
        <ele>5.113</ele>
        <time>2022-08-28T16:44:09Z</time>
      </trkpt>
      <trkpt lat="43.464489" lon="-3.780864">
        <ele>4.834</ele>
        <time>2022-08-28T16:44:12Z</time>
      </trkpt>
      <trkpt lat="43.464541" lon="-3.780852">
        <ele>5.123</ele>
        <time>2022-08-28T16:44:14Z</time>
      </trkpt>
      <trkpt lat="43.464599" lon="-3.780849">
        <ele>5.052</ele>
        <time>2022-08-28T16:44:16Z</time>
      </trkpt>
      <trkpt lat="43.464667" lon="-3.780847">
        <ele>5.280</ele>
        <time>2022-08-28T16:44:18Z</time>
      </trkpt>
      <trkpt lat="43.464725" lon="-3.780850">
        <ele>5.884</ele>
        <time>2022-08-28T16:44:20Z</time>
      </trkpt>
      <trkpt lat="43.464602" lon="-3.780837">
        <ele>7.163</ele>
        <time>2022-08-28T16:44:31Z</time>
      </trkpt>
      <trkpt lat="43.464502" lon="-3.780834">
        <ele>9.419</ele>
        <time>2022-08-28T16:44:49Z</time>
      </trkpt>
      <trkpt lat="43.464407" lon="-3.780861">
        <ele>9.572</ele>
        <time>2022-08-28T16:45:00Z</time>
      </trkpt>
      <trkpt lat="43.464365" lon="-3.780898">
        <ele>9.513</ele>
        <time>2022-08-28T16:45:02Z</time>
      </trkpt>
      <trkpt lat="43.464320" lon="-3.780950">
        <ele>10.314</ele>
        <time>2022-08-28T16:45:05Z</time>
      </trkpt>
      <trkpt lat="43.464282" lon="-3.780987">
        <ele>10.309</ele>
        <time>2022-08-28T16:45:08Z</time>
      </trkpt>
      <trkpt lat="43.464242" lon="-3.781029">
        <ele>7.778</ele>
        <time>2022-08-28T16:45:12Z</time>
      </trkpt>
      <trkpt lat="43.464189" lon="-3.781064">
        <ele>5.148</ele>
        <time>2022-08-28T16:45:17Z</time>
      </trkpt>
      <trkpt lat="43.464144" lon="-3.781131">
        <ele>5.119</ele>
        <time>2022-08-28T16:45:20Z</time>
      </trkpt>
      <trkpt lat="43.464116" lon="-3.781196">
        <ele>4.748</ele>
        <time>2022-08-28T16:45:22Z</time>
      </trkpt>
      <trkpt lat="43.464089" lon="-3.781271">
        <ele>4.877</ele>
        <time>2022-08-28T16:45:24Z</time>
      </trkpt>
      <trkpt lat="43.464061" lon="-3.781353">
        <ele>4.665</ele>
        <time>2022-08-28T16:45:26Z</time>
      </trkpt>
      <trkpt lat="43.464036" lon="-3.781435">
        <ele>4.249</ele>
        <time>2022-08-28T16:45:28Z</time>
      </trkpt>
      <trkpt lat="43.464016" lon="-3.781523">
        <ele>4.128</ele>
        <time>2022-08-28T16:45:30Z</time>
      </trkpt>
      <trkpt lat="43.463999" lon="-3.781605">
        <ele>4.564</ele>
        <time>2022-08-28T16:45:32Z</time>
      </trkpt>
      <trkpt lat="43.463982" lon="-3.781690">
        <ele>5.151</ele>
        <time>2022-08-28T16:45:34Z</time>
      </trkpt>
      <trkpt lat="43.463959" lon="-3.781777">
        <ele>5.401</ele>
        <time>2022-08-28T16:45:36Z</time>
      </trkpt>
      <trkpt lat="43.463951" lon="-3.781872">
        <ele>5.211</ele>
        <time>2022-08-28T16:45:38Z</time>
      </trkpt>
      <trkpt lat="43.463936" lon="-3.781960">
        <ele>5.209</ele>
        <time>2022-08-28T16:45:40Z</time>
      </trkpt>
      <trkpt lat="43.463919" lon="-3.782037">
        <ele>5.266</ele>
        <time>2022-08-28T16:45:42Z</time>
      </trkpt>
      <trkpt lat="43.463912" lon="-3.782107">
        <ele>4.756</ele>
        <time>2022-08-28T16:45:44Z</time>
      </trkpt>
      <trkpt lat="43.463905" lon="-3.782187">
        <ele>3.697</ele>
        <time>2022-08-28T16:45:47Z</time>
      </trkpt>
      <trkpt lat="43.463895" lon="-3.782262">
        <ele>3.716</ele>
        <time>2022-08-28T16:45:49Z</time>
      </trkpt>
      <trkpt lat="43.463885" lon="-3.782342">
        <ele>3.495</ele>
        <time>2022-08-28T16:45:51Z</time>
      </trkpt>
      <trkpt lat="43.463875" lon="-3.782432">
        <ele>3.223</ele>
        <time>2022-08-28T16:45:53Z</time>
      </trkpt>
      <trkpt lat="43.463862" lon="-3.782537">
        <ele>2.977</ele>
        <time>2022-08-28T16:45:55Z</time>
      </trkpt>
      <trkpt lat="43.463847" lon="-3.782645">
        <ele>2.826</ele>
        <time>2022-08-28T16:45:57Z</time>
      </trkpt>
      <trkpt lat="43.463832" lon="-3.782760">
        <ele>3.052</ele>
        <time>2022-08-28T16:45:59Z</time>
      </trkpt>
      <trkpt lat="43.463814" lon="-3.782883">
        <ele>2.886</ele>
        <time>2022-08-28T16:46:01Z</time>
      </trkpt>
      <trkpt lat="43.463806" lon="-3.782946">
        <ele>2.860</ele>
        <time>2022-08-28T16:46:02Z</time>
      </trkpt>
      <trkpt lat="43.463796" lon="-3.783011">
        <ele>2.826</ele>
        <time>2022-08-28T16:46:03Z</time>
      </trkpt>
      <trkpt lat="43.463774" lon="-3.783141">
        <ele>2.909</ele>
        <time>2022-08-28T16:46:05Z</time>
      </trkpt>
      <trkpt lat="43.463754" lon="-3.783271">
        <ele>2.899</ele>
        <time>2022-08-28T16:46:07Z</time>
      </trkpt>
      <trkpt lat="43.463729" lon="-3.783406">
        <ele>2.569</ele>
        <time>2022-08-28T16:46:09Z</time>
      </trkpt>
      <trkpt lat="43.463706" lon="-3.783534">
        <ele>2.570</ele>
        <time>2022-08-28T16:46:11Z</time>
      </trkpt>
      <trkpt lat="43.463701" lon="-3.783597">
        <ele>2.389</ele>
        <time>2022-08-28T16:46:12Z</time>
      </trkpt>
      <trkpt lat="43.463691" lon="-3.783660">
        <ele>2.638</ele>
        <time>2022-08-28T16:46:13Z</time>
      </trkpt>
      <trkpt lat="43.463668" lon="-3.783802">
        <ele>2.836</ele>
        <time>2022-08-28T16:46:15Z</time>
      </trkpt>
      <trkpt lat="43.463658" lon="-3.783870">
        <ele>2.820</ele>
        <time>2022-08-28T16:46:16Z</time>
      </trkpt>
      <trkpt lat="43.463636" lon="-3.784010">
        <ele>2.989</ele>
        <time>2022-08-28T16:46:18Z</time>
      </trkpt>
      <trkpt lat="43.463623" lon="-3.784083">
        <ele>3.035</ele>
        <time>2022-08-28T16:46:19Z</time>
      </trkpt>
      <trkpt lat="43.463606" lon="-3.784156">
        <ele>3.336</ele>
        <time>2022-08-28T16:46:20Z</time>
      </trkpt>
      <trkpt lat="43.463593" lon="-3.784229">
        <ele>3.117</ele>
        <time>2022-08-28T16:46:21Z</time>
      </trkpt>
      <trkpt lat="43.463571" lon="-3.784377">
        <ele>3.118</ele>
        <time>2022-08-28T16:46:23Z</time>
      </trkpt>
      <trkpt lat="43.463548" lon="-3.784525">
        <ele>3.309</ele>
        <time>2022-08-28T16:46:25Z</time>
      </trkpt>
      <trkpt lat="43.463531" lon="-3.784605">
        <ele>3.634</ele>
        <time>2022-08-28T16:46:26Z</time>
      </trkpt>
      <trkpt lat="43.463514" lon="-3.784683">
        <ele>3.644</ele>
        <time>2022-08-28T16:46:27Z</time>
      </trkpt>
      <trkpt lat="43.463497" lon="-3.784761">
        <ele>3.615</ele>
        <time>2022-08-28T16:46:28Z</time>
      </trkpt>
      <trkpt lat="43.463482" lon="-3.784839">
        <ele>3.424</ele>
        <time>2022-08-28T16:46:29Z</time>
      </trkpt>
      <trkpt lat="43.463439" lon="-3.784977">
        <ele>3.593</ele>
        <time>2022-08-28T16:46:31Z</time>
      </trkpt>
      <trkpt lat="43.463391" lon="-3.785104">
        <ele>3.581</ele>
        <time>2022-08-28T16:46:33Z</time>
      </trkpt>
      <trkpt lat="43.463326" lon="-3.785206">
        <ele>3.415</ele>
        <time>2022-08-28T16:46:35Z</time>
      </trkpt>
      <trkpt lat="43.463289" lon="-3.785253">
        <ele>3.394</ele>
        <time>2022-08-28T16:46:36Z</time>
      </trkpt>
      <trkpt lat="43.463242" lon="-3.785350">
        <ele>2.940</ele>
        <time>2022-08-28T16:46:38Z</time>
      </trkpt>
      <trkpt lat="43.463249" lon="-3.785422">
        <ele>3.014</ele>
        <time>2022-08-28T16:46:41Z</time>
      </trkpt>
      <trkpt lat="43.463234" lon="-3.785492">
        <ele>2.754</ele>
        <time>2022-08-28T16:46:43Z</time>
      </trkpt>
      <trkpt lat="43.463219" lon="-3.785584">
        <ele>2.509</ele>
        <time>2022-08-28T16:46:45Z</time>
      </trkpt>
      <trkpt lat="43.463201" lon="-3.785681">
        <ele>2.509</ele>
        <time>2022-08-28T16:46:47Z</time>
      </trkpt>
      <trkpt lat="43.463183" lon="-3.785766">
        <ele>2.572</ele>
        <time>2022-08-28T16:46:49Z</time>
      </trkpt>
      <trkpt lat="43.463166" lon="-3.785849">
        <ele>2.342</ele>
        <time>2022-08-28T16:46:51Z</time>
      </trkpt>
      <trkpt lat="43.463146" lon="-3.785941">
        <ele>2.253</ele>
        <time>2022-08-28T16:46:53Z</time>
      </trkpt>
      <trkpt lat="43.463124" lon="-3.786044">
        <ele>2.312</ele>
        <time>2022-08-28T16:46:55Z</time>
      </trkpt>
      <trkpt lat="43.463102" lon="-3.786151">
        <ele>2.241</ele>
        <time>2022-08-28T16:46:57Z</time>
      </trkpt>
      <trkpt lat="43.463079" lon="-3.786266">
        <ele>2.329</ele>
        <time>2022-08-28T16:46:59Z</time>
      </trkpt>
      <trkpt lat="43.463056" lon="-3.786379">
        <ele>2.073</ele>
        <time>2022-08-28T16:47:01Z</time>
      </trkpt>
      <trkpt lat="43.463021" lon="-3.786482">
        <ele>1.972</ele>
        <time>2022-08-28T16:47:03Z</time>
      </trkpt>
      <trkpt lat="43.462966" lon="-3.786574">
        <ele>1.878</ele>
        <time>2022-08-28T16:47:05Z</time>
      </trkpt>
      <trkpt lat="43.462918" lon="-3.786677">
        <ele>1.451</ele>
        <time>2022-08-28T16:47:07Z</time>
      </trkpt>
      <trkpt lat="43.462888" lon="-3.786732">
        <ele>1.401</ele>
        <time>2022-08-28T16:47:08Z</time>
      </trkpt>
      <trkpt lat="43.462823" lon="-3.786834">
        <ele>1.511</ele>
        <time>2022-08-28T16:47:10Z</time>
      </trkpt>
      <trkpt lat="43.462755" lon="-3.786931">
        <ele>1.809</ele>
        <time>2022-08-28T16:47:12Z</time>
      </trkpt>
      <trkpt lat="43.462722" lon="-3.786976">
        <ele>2.166</ele>
        <time>2022-08-28T16:47:13Z</time>
      </trkpt>
      <trkpt lat="43.462687" lon="-3.787021">
        <ele>2.386</ele>
        <time>2022-08-28T16:47:14Z</time>
      </trkpt>
      <trkpt lat="43.462619" lon="-3.787119">
        <ele>2.747</ele>
        <time>2022-08-28T16:47:16Z</time>
      </trkpt>
      <trkpt lat="43.462546" lon="-3.787212">
        <ele>2.886</ele>
        <time>2022-08-28T16:47:18Z</time>
      </trkpt>
      <trkpt lat="43.462504" lon="-3.787252">
        <ele>3.035</ele>
        <time>2022-08-28T16:47:19Z</time>
      </trkpt>
      <trkpt lat="43.462462" lon="-3.787290">
        <ele>3.353</ele>
        <time>2022-08-28T16:47:20Z</time>
      </trkpt>
      <trkpt lat="43.462380" lon="-3.787375">
        <ele>3.267</ele>
        <time>2022-08-28T16:47:22Z</time>
      </trkpt>
      <trkpt lat="43.462338" lon="-3.787417">
        <ele>3.136</ele>
        <time>2022-08-28T16:47:23Z</time>
      </trkpt>
      <trkpt lat="43.462296" lon="-3.787459">
        <ele>3.212</ele>
        <time>2022-08-28T16:47:24Z</time>
      </trkpt>
      <trkpt lat="43.462211" lon="-3.787534">
        <ele>3.328</ele>
        <time>2022-08-28T16:47:26Z</time>
      </trkpt>
      <trkpt lat="43.462171" lon="-3.787574">
        <ele>3.489</ele>
        <time>2022-08-28T16:47:27Z</time>
      </trkpt>
      <trkpt lat="43.462104" lon="-3.787686">
        <ele>3.417</ele>
        <time>2022-08-28T16:47:29Z</time>
      </trkpt>
      <trkpt lat="43.462056" lon="-3.787818">
        <ele>3.209</ele>
        <time>2022-08-28T16:47:31Z</time>
      </trkpt>
      <trkpt lat="43.462044" lon="-3.787890">
        <ele>3.233</ele>
        <time>2022-08-28T16:47:32Z</time>
      </trkpt>
      <trkpt lat="43.462037" lon="-3.787963">
        <ele>3.063</ele>
        <time>2022-08-28T16:47:33Z</time>
      </trkpt>
      <trkpt lat="43.462047" lon="-3.788103">
        <ele>2.614</ele>
        <time>2022-08-28T16:47:35Z</time>
      </trkpt>
      <trkpt lat="43.462062" lon="-3.788170">
        <ele>2.753</ele>
        <time>2022-08-28T16:47:36Z</time>
      </trkpt>
      <trkpt lat="43.462100" lon="-3.788300">
        <ele>3.122</ele>
        <time>2022-08-28T16:47:38Z</time>
      </trkpt>
      <trkpt lat="43.462178" lon="-3.788387">
        <ele>3.340</ele>
        <time>2022-08-28T16:47:40Z</time>
      </trkpt>
      <trkpt lat="43.462230" lon="-3.788390">
        <ele>3.434</ele>
        <time>2022-08-28T16:47:41Z</time>
      </trkpt>
      <trkpt lat="43.462278" lon="-3.788380">
        <ele>3.433</ele>
        <time>2022-08-28T16:47:42Z</time>
      </trkpt>
      <trkpt lat="43.462366" lon="-3.788352">
        <ele>3.519</ele>
        <time>2022-08-28T16:47:44Z</time>
      </trkpt>
      <trkpt lat="43.462433" lon="-3.788320">
        <ele>4.085</ele>
        <time>2022-08-28T16:47:46Z</time>
      </trkpt>
      <trkpt lat="43.462483" lon="-3.788298">
        <ele>4.689</ele>
        <time>2022-08-28T16:47:48Z</time>
      </trkpt>
      <trkpt lat="43.462543" lon="-3.788283">
        <ele>4.917</ele>
        <time>2022-08-28T16:47:51Z</time>
      </trkpt>
      <trkpt lat="43.462590" lon="-3.788270">
        <ele>4.909</ele>
        <time>2022-08-28T16:47:53Z</time>
      </trkpt>
      <trkpt lat="43.462640" lon="-3.788260">
        <ele>5.119</ele>
        <time>2022-08-28T16:47:55Z</time>
      </trkpt>
      <trkpt lat="43.462700" lon="-3.788253">
        <ele>4.969</ele>
        <time>2022-08-28T16:47:57Z</time>
      </trkpt>
      <trkpt lat="43.462750" lon="-3.788248">
        <ele>5.290</ele>
        <time>2022-08-28T16:47:59Z</time>
      </trkpt>
      <trkpt lat="43.462797" lon="-3.788243">
        <ele>5.639</ele>
        <time>2022-08-28T16:48:01Z</time>
      </trkpt>
      <trkpt lat="43.462860" lon="-3.788236">
        <ele>6.348</ele>
        <time>2022-08-28T16:48:04Z</time>
      </trkpt>
      <trkpt lat="43.462917" lon="-3.788238">
        <ele>5.646</ele>
        <time>2022-08-28T16:48:07Z</time>
      </trkpt>
      <trkpt lat="43.462975" lon="-3.788231">
        <ele>6.210</ele>
        <time>2022-08-28T16:48:10Z</time>
      </trkpt>
      <trkpt lat="43.463028" lon="-3.788241">
        <ele>6.319</ele>
        <time>2022-08-28T16:48:13Z</time>
      </trkpt>
      <trkpt lat="43.463081" lon="-3.788279">
        <ele>6.715</ele>
        <time>2022-08-28T16:48:16Z</time>
      </trkpt>
      <trkpt lat="43.463108" lon="-3.788204">
        <ele>6.897</ele>
        <time>2022-08-28T16:48:20Z</time>
      </trkpt>
      <trkpt lat="43.463115" lon="-3.788112">
        <ele>7.223</ele>
        <time>2022-08-28T16:48:23Z</time>
      </trkpt>
      <trkpt lat="43.463118" lon="-3.788025">
        <ele>7.425</ele>
        <time>2022-08-28T16:48:26Z</time>
      </trkpt>
      <trkpt lat="43.463110" lon="-3.787935">
        <ele>7.809</ele>
        <time>2022-08-28T16:48:29Z</time>
      </trkpt>
      <trkpt lat="43.463098" lon="-3.787875">
        <ele>8.640</ele>
        <time>2022-08-28T16:48:31Z</time>
      </trkpt>
      <trkpt lat="43.463076" lon="-3.787785">
        <ele>9.430</ele>
        <time>2022-08-28T16:48:34Z</time>
      </trkpt>
      <trkpt lat="43.463063" lon="-3.787717">
        <ele>9.651</ele>
        <time>2022-08-28T16:48:36Z</time>
      </trkpt>
      <trkpt lat="43.463053" lon="-3.787654">
        <ele>10.120</ele>
        <time>2022-08-28T16:48:38Z</time>
      </trkpt>
      <trkpt lat="43.463043" lon="-3.787567">
        <ele>11.269</ele>
        <time>2022-08-28T16:48:41Z</time>
      </trkpt>
      <trkpt lat="43.463048" lon="-3.787487">
        <ele>12.637</ele>
        <time>2022-08-28T16:48:44Z</time>
      </trkpt>
      <trkpt lat="43.463076" lon="-3.787429">
        <ele>13.431</ele>
        <time>2022-08-28T16:48:47Z</time>
      </trkpt>
      <trkpt lat="43.463131" lon="-3.787391">
        <ele>14.060</ele>
        <time>2022-08-28T16:48:50Z</time>
      </trkpt>
      <trkpt lat="43.463178" lon="-3.787394">
        <ele>14.196</ele>
        <time>2022-08-28T16:48:52Z</time>
      </trkpt>
      <trkpt lat="43.463241" lon="-3.787389">
        <ele>14.255</ele>
        <time>2022-08-28T16:48:55Z</time>
      </trkpt>
      <trkpt lat="43.463291" lon="-3.787369">
        <ele>14.807</ele>
        <time>2022-08-28T16:48:58Z</time>
      </trkpt>
      <trkpt lat="43.463343" lon="-3.787359">
        <ele>15.517</ele>
        <time>2022-08-28T16:49:01Z</time>
      </trkpt>
      <trkpt lat="43.463406" lon="-3.787342">
        <ele>15.609</ele>
        <time>2022-08-28T16:49:04Z</time>
      </trkpt>
      <trkpt lat="43.463468" lon="-3.787319">
        <ele>16.086</ele>
        <time>2022-08-28T16:49:07Z</time>
      </trkpt>
      <trkpt lat="43.463508" lon="-3.787284">
        <ele>16.426</ele>
        <time>2022-08-28T16:49:09Z</time>
      </trkpt>
      <trkpt lat="43.463521" lon="-3.787196">
        <ele>17.467</ele>
        <time>2022-08-28T16:49:12Z</time>
      </trkpt>
      <trkpt lat="43.463528" lon="-3.787133">
        <ele>18.526</ele>
        <time>2022-08-28T16:49:14Z</time>
      </trkpt>
      <trkpt lat="43.463535" lon="-3.787065">
        <ele>18.975</ele>
        <time>2022-08-28T16:49:16Z</time>
      </trkpt>
      <trkpt lat="43.463543" lon="-3.786992">
        <ele>19.223</ele>
        <time>2022-08-28T16:49:18Z</time>
      </trkpt>
      <trkpt lat="43.463551" lon="-3.786917">
        <ele>19.327</ele>
        <time>2022-08-28T16:49:20Z</time>
      </trkpt>
      <trkpt lat="43.463556" lon="-3.786837">
        <ele>19.486</ele>
        <time>2022-08-28T16:49:22Z</time>
      </trkpt>
      <trkpt lat="43.463564" lon="-3.786762">
        <ele>19.452</ele>
        <time>2022-08-28T16:49:24Z</time>
      </trkpt>
      <trkpt lat="43.463577" lon="-3.786684">
        <ele>19.186</ele>
        <time>2022-08-28T16:49:26Z</time>
      </trkpt>
      <trkpt lat="43.463600" lon="-3.786604">
        <ele>19.060</ele>
        <time>2022-08-28T16:49:28Z</time>
      </trkpt>
      <trkpt lat="43.463615" lon="-3.786521">
        <ele>18.826</ele>
        <time>2022-08-28T16:49:30Z</time>
      </trkpt>
      <trkpt lat="43.463623" lon="-3.786429">
        <ele>18.509</ele>
        <time>2022-08-28T16:49:32Z</time>
      </trkpt>
      <trkpt lat="43.463630" lon="-3.786336">
        <ele>18.149</ele>
        <time>2022-08-28T16:49:34Z</time>
      </trkpt>
      <trkpt lat="43.463640" lon="-3.786243">
        <ele>18.029</ele>
        <time>2022-08-28T16:49:36Z</time>
      </trkpt>
      <trkpt lat="43.463653" lon="-3.786151">
        <ele>18.090</ele>
        <time>2022-08-28T16:49:38Z</time>
      </trkpt>
      <trkpt lat="43.463663" lon="-3.786058">
        <ele>18.159</ele>
        <time>2022-08-28T16:49:40Z</time>
      </trkpt>
      <trkpt lat="43.463683" lon="-3.785963">
        <ele>18.368</ele>
        <time>2022-08-28T16:49:42Z</time>
      </trkpt>
      <trkpt lat="43.463706" lon="-3.785866">
        <ele>18.416</ele>
        <time>2022-08-28T16:49:44Z</time>
      </trkpt>
      <trkpt lat="43.463728" lon="-3.785769">
        <ele>19.070</ele>
        <time>2022-08-28T16:49:46Z</time>
      </trkpt>
      <trkpt lat="43.463751" lon="-3.785677">
        <ele>19.429</ele>
        <time>2022-08-28T16:49:48Z</time>
      </trkpt>
      <trkpt lat="43.463774" lon="-3.785587">
        <ele>20.165</ele>
        <time>2022-08-28T16:49:50Z</time>
      </trkpt>
      <trkpt lat="43.463801" lon="-3.785497">
        <ele>20.761</ele>
        <time>2022-08-28T16:49:52Z</time>
      </trkpt>
      <trkpt lat="43.463828" lon="-3.785405">
        <ele>21.221</ele>
        <time>2022-08-28T16:49:54Z</time>
      </trkpt>
      <trkpt lat="43.463855" lon="-3.785313">
        <ele>21.413</ele>
        <time>2022-08-28T16:49:56Z</time>
      </trkpt>
      <trkpt lat="43.463882" lon="-3.785223">
        <ele>21.509</ele>
        <time>2022-08-28T16:49:58Z</time>
      </trkpt>
      <trkpt lat="43.463904" lon="-3.785126">
        <ele>21.557</ele>
        <time>2022-08-28T16:50:00Z</time>
      </trkpt>
      <trkpt lat="43.463926" lon="-3.785026">
        <ele>21.847</ele>
        <time>2022-08-28T16:50:02Z</time>
      </trkpt>
      <trkpt lat="43.463951" lon="-3.784933">
        <ele>22.278</ele>
        <time>2022-08-28T16:50:04Z</time>
      </trkpt>
      <trkpt lat="43.463976" lon="-3.784843">
        <ele>22.377</ele>
        <time>2022-08-28T16:50:06Z</time>
      </trkpt>
      <trkpt lat="43.463999" lon="-3.784751">
        <ele>22.486</ele>
        <time>2022-08-28T16:50:08Z</time>
      </trkpt>
      <trkpt lat="43.464022" lon="-3.784663">
        <ele>22.584</ele>
        <time>2022-08-28T16:50:10Z</time>
      </trkpt>
      <trkpt lat="43.464049" lon="-3.784575">
        <ele>22.658</ele>
        <time>2022-08-28T16:50:12Z</time>
      </trkpt>
      <trkpt lat="43.464076" lon="-3.784483">
        <ele>22.837</ele>
        <time>2022-08-28T16:50:14Z</time>
      </trkpt>
      <trkpt lat="43.464108" lon="-3.784393">
        <ele>22.973</ele>
        <time>2022-08-28T16:50:16Z</time>
      </trkpt>
      <trkpt lat="43.464135" lon="-3.784303">
        <ele>23.469</ele>
        <time>2022-08-28T16:50:18Z</time>
      </trkpt>
      <trkpt lat="43.464158" lon="-3.784218">
        <ele>24.104</ele>
        <time>2022-08-28T16:50:20Z</time>
      </trkpt>
      <trkpt lat="43.464186" lon="-3.784136">
        <ele>24.624</ele>
        <time>2022-08-28T16:50:22Z</time>
      </trkpt>
      <trkpt lat="43.464208" lon="-3.784051">
        <ele>25.009</ele>
        <time>2022-08-28T16:50:24Z</time>
      </trkpt>
      <trkpt lat="43.464228" lon="-3.783961">
        <ele>25.447</ele>
        <time>2022-08-28T16:50:26Z</time>
      </trkpt>
      <trkpt lat="43.464253" lon="-3.783874">
        <ele>25.467</ele>
        <time>2022-08-28T16:50:28Z</time>
      </trkpt>
      <trkpt lat="43.464278" lon="-3.783781">
        <ele>25.568</ele>
        <time>2022-08-28T16:50:30Z</time>
      </trkpt>
      <trkpt lat="43.464300" lon="-3.783688">
        <ele>25.517</ele>
        <time>2022-08-28T16:50:32Z</time>
      </trkpt>
      <trkpt lat="43.464323" lon="-3.783590">
        <ele>25.946</ele>
        <time>2022-08-28T16:50:34Z</time>
      </trkpt>
      <trkpt lat="43.464348" lon="-3.783492">
        <ele>26.274</ele>
        <time>2022-08-28T16:50:36Z</time>
      </trkpt>
      <trkpt lat="43.464375" lon="-3.783394">
        <ele>26.638</ele>
        <time>2022-08-28T16:50:38Z</time>
      </trkpt>
      <trkpt lat="43.464402" lon="-3.783306">
        <ele>27.327</ele>
        <time>2022-08-28T16:50:40Z</time>
      </trkpt>
      <trkpt lat="43.464424" lon="-3.783218">
        <ele>27.863</ele>
        <time>2022-08-28T16:50:42Z</time>
      </trkpt>
      <trkpt lat="43.464447" lon="-3.783128">
        <ele>27.822</ele>
        <time>2022-08-28T16:50:44Z</time>
      </trkpt>
      <trkpt lat="43.464470" lon="-3.783040">
        <ele>27.862</ele>
        <time>2022-08-28T16:50:46Z</time>
      </trkpt>
      <trkpt lat="43.464493" lon="-3.782948">
        <ele>27.808</ele>
        <time>2022-08-28T16:50:48Z</time>
      </trkpt>
      <trkpt lat="43.464516" lon="-3.782858">
        <ele>27.809</ele>
        <time>2022-08-28T16:50:50Z</time>
      </trkpt>
      <trkpt lat="43.464538" lon="-3.782770">
        <ele>28.183</ele>
        <time>2022-08-28T16:50:52Z</time>
      </trkpt>
      <trkpt lat="43.464563" lon="-3.782682">
        <ele>28.263</ele>
        <time>2022-08-28T16:50:54Z</time>
      </trkpt>
      <trkpt lat="43.464593" lon="-3.782592">
        <ele>28.284</ele>
        <time>2022-08-28T16:50:56Z</time>
      </trkpt>
      <trkpt lat="43.464623" lon="-3.782500">
        <ele>27.743</ele>
        <time>2022-08-28T16:50:58Z</time>
      </trkpt>
      <trkpt lat="43.464648" lon="-3.782410">
        <ele>27.152</ele>
        <time>2022-08-28T16:51:00Z</time>
      </trkpt>
      <trkpt lat="43.464675" lon="-3.782323">
        <ele>26.710</ele>
        <time>2022-08-28T16:51:02Z</time>
      </trkpt>
      <trkpt lat="43.464702" lon="-3.782240">
        <ele>26.294</ele>
        <time>2022-08-28T16:51:04Z</time>
      </trkpt>
      <trkpt lat="43.464720" lon="-3.782162">
        <ele>25.753</ele>
        <time>2022-08-28T16:51:06Z</time>
      </trkpt>
      <trkpt lat="43.464743" lon="-3.782072">
        <ele>25.749</ele>
        <time>2022-08-28T16:51:08Z</time>
      </trkpt>
      <trkpt lat="43.464765" lon="-3.781982">
        <ele>25.741</ele>
        <time>2022-08-28T16:51:10Z</time>
      </trkpt>
      <trkpt lat="43.464800" lon="-3.781892">
        <ele>26.181</ele>
        <time>2022-08-28T16:51:12Z</time>
      </trkpt>
      <trkpt lat="43.464828" lon="-3.781800">
        <ele>26.509</ele>
        <time>2022-08-28T16:51:14Z</time>
      </trkpt>
      <trkpt lat="43.464855" lon="-3.781710">
        <ele>26.809</ele>
        <time>2022-08-28T16:51:16Z</time>
      </trkpt>
      <trkpt lat="43.464883" lon="-3.781618">
        <ele>27.215</ele>
        <time>2022-08-28T16:51:18Z</time>
      </trkpt>
      <trkpt lat="43.464916" lon="-3.781530">
        <ele>27.715</ele>
        <time>2022-08-28T16:51:20Z</time>
      </trkpt>
      <trkpt lat="43.464949" lon="-3.781438">
        <ele>28.276</ele>
        <time>2022-08-28T16:51:22Z</time>
      </trkpt>
      <trkpt lat="43.464986" lon="-3.781351">
        <ele>28.765</ele>
        <time>2022-08-28T16:51:24Z</time>
      </trkpt>
      <trkpt lat="43.465029" lon="-3.781264">
        <ele>29.644</ele>
        <time>2022-08-28T16:51:26Z</time>
      </trkpt>
      <trkpt lat="43.465074" lon="-3.781187">
        <ele>30.522</ele>
        <time>2022-08-28T16:51:28Z</time>
      </trkpt>
      <trkpt lat="43.465129" lon="-3.781119">
        <ele>31.276</ele>
        <time>2022-08-28T16:51:30Z</time>
      </trkpt>
      <trkpt lat="43.465189" lon="-3.781057">
        <ele>31.855</ele>
        <time>2022-08-28T16:51:32Z</time>
      </trkpt>
      <trkpt lat="43.465247" lon="-3.781004">
        <ele>32.221</ele>
        <time>2022-08-28T16:51:34Z</time>
      </trkpt>
      <trkpt lat="43.465312" lon="-3.780951">
        <ele>32.322</ele>
        <time>2022-08-28T16:51:36Z</time>
      </trkpt>
      <trkpt lat="43.465379" lon="-3.780896">
        <ele>32.362</ele>
        <time>2022-08-28T16:51:38Z</time>
      </trkpt>
      <trkpt lat="43.465442" lon="-3.780841">
        <ele>31.908</ele>
        <time>2022-08-28T16:51:40Z</time>
      </trkpt>
      <trkpt lat="43.465502" lon="-3.780779">
        <ele>31.409</ele>
        <time>2022-08-28T16:51:42Z</time>
      </trkpt>
      <trkpt lat="43.465557" lon="-3.780702">
        <ele>31.023</ele>
        <time>2022-08-28T16:51:44Z</time>
      </trkpt>
      <trkpt lat="43.465605" lon="-3.780620">
        <ele>30.933</ele>
        <time>2022-08-28T16:51:46Z</time>
      </trkpt>
      <trkpt lat="43.465653" lon="-3.780542">
        <ele>30.824</ele>
        <time>2022-08-28T16:51:48Z</time>
      </trkpt>
      <trkpt lat="43.465708" lon="-3.780460">
        <ele>30.823</ele>
        <time>2022-08-28T16:51:50Z</time>
      </trkpt>
      <trkpt lat="43.465756" lon="-3.780385">
        <ele>30.172</ele>
        <time>2022-08-28T16:51:52Z</time>
      </trkpt>
      <trkpt lat="43.465806" lon="-3.780308">
        <ele>29.230</ele>
        <time>2022-08-28T16:51:54Z</time>
      </trkpt>
      <trkpt lat="43.465858" lon="-3.780235">
        <ele>28.274</ele>
        <time>2022-08-28T16:51:56Z</time>
      </trkpt>
      <trkpt lat="43.465911" lon="-3.780160">
        <ele>27.993</ele>
        <time>2022-08-28T16:51:58Z</time>
      </trkpt>
      <trkpt lat="43.465959" lon="-3.780087">
        <ele>27.869</ele>
        <time>2022-08-28T16:52:00Z</time>
      </trkpt>
      <trkpt lat="43.466006" lon="-3.780015">
        <ele>27.791</ele>
        <time>2022-08-28T16:52:02Z</time>
      </trkpt>
      <trkpt lat="43.466054" lon="-3.779943">
        <ele>27.681</ele>
        <time>2022-08-28T16:52:04Z</time>
      </trkpt>
      <trkpt lat="43.466106" lon="-3.779855">
        <ele>27.419</ele>
        <time>2022-08-28T16:52:06Z</time>
      </trkpt>
      <trkpt lat="43.466163" lon="-3.779757">
        <ele>27.409</ele>
        <time>2022-08-28T16:52:08Z</time>
      </trkpt>
      <trkpt lat="43.466216" lon="-3.779660">
        <ele>27.220</ele>
        <time>2022-08-28T16:52:10Z</time>
      </trkpt>
      <trkpt lat="43.466264" lon="-3.779567">
        <ele>26.690</ele>
        <time>2022-08-28T16:52:12Z</time>
      </trkpt>
      <trkpt lat="43.466311" lon="-3.779460">
        <ele>26.211</ele>
        <time>2022-08-28T16:52:14Z</time>
      </trkpt>
      <trkpt lat="43.466336" lon="-3.779408">
        <ele>26.260</ele>
        <time>2022-08-28T16:52:15Z</time>
      </trkpt>
      <trkpt lat="43.466383" lon="-3.779310">
        <ele>26.069</ele>
        <time>2022-08-28T16:52:17Z</time>
      </trkpt>
      <trkpt lat="43.466431" lon="-3.779208">
        <ele>25.987</ele>
        <time>2022-08-28T16:52:19Z</time>
      </trkpt>
      <trkpt lat="43.466478" lon="-3.779100">
        <ele>25.121</ele>
        <time>2022-08-28T16:52:21Z</time>
      </trkpt>
      <trkpt lat="43.466503" lon="-3.779048">
        <ele>24.440</ele>
        <time>2022-08-28T16:52:22Z</time>
      </trkpt>
      <trkpt lat="43.466553" lon="-3.778945">
        <ele>24.236</ele>
        <time>2022-08-28T16:52:24Z</time>
      </trkpt>
      <trkpt lat="43.466598" lon="-3.778843">
        <ele>24.219</ele>
        <time>2022-08-28T16:52:26Z</time>
      </trkpt>
      <trkpt lat="43.466645" lon="-3.778741">
        <ele>24.009</ele>
        <time>2022-08-28T16:52:28Z</time>
      </trkpt>
      <trkpt lat="43.466693" lon="-3.778643">
        <ele>23.919</ele>
        <time>2022-08-28T16:52:30Z</time>
      </trkpt>
      <trkpt lat="43.466743" lon="-3.778543">
        <ele>23.809</ele>
        <time>2022-08-28T16:52:32Z</time>
      </trkpt>
      <trkpt lat="43.466786" lon="-3.778438">
        <ele>23.952</ele>
        <time>2022-08-28T16:52:34Z</time>
      </trkpt>
      <trkpt lat="43.466833" lon="-3.778335">
        <ele>24.132</ele>
        <time>2022-08-28T16:52:36Z</time>
      </trkpt>
      <trkpt lat="43.466860" lon="-3.778283">
        <ele>24.253</ele>
        <time>2022-08-28T16:52:37Z</time>
      </trkpt>
      <trkpt lat="43.466913" lon="-3.778176">
        <ele>24.512</ele>
        <time>2022-08-28T16:52:39Z</time>
      </trkpt>
      <trkpt lat="43.466938" lon="-3.778124">
        <ele>24.671</ele>
        <time>2022-08-28T16:52:40Z</time>
      </trkpt>
      <trkpt lat="43.466988" lon="-3.778021">
        <ele>24.639</ele>
        <time>2022-08-28T16:52:42Z</time>
      </trkpt>
      <trkpt lat="43.467038" lon="-3.777918">
        <ele>24.323</ele>
        <time>2022-08-28T16:52:44Z</time>
      </trkpt>
      <trkpt lat="43.467081" lon="-3.777816">
        <ele>24.232</ele>
        <time>2022-08-28T16:52:46Z</time>
      </trkpt>
      <trkpt lat="43.467128" lon="-3.777714">
        <ele>23.928</ele>
        <time>2022-08-28T16:52:48Z</time>
      </trkpt>
      <trkpt lat="43.467173" lon="-3.777612">
        <ele>23.758</ele>
        <time>2022-08-28T16:52:50Z</time>
      </trkpt>
      <trkpt lat="43.467221" lon="-3.777505">
        <ele>23.752</ele>
        <time>2022-08-28T16:52:52Z</time>
      </trkpt>
      <trkpt lat="43.467248" lon="-3.777448">
        <ele>23.617</ele>
        <time>2022-08-28T16:52:53Z</time>
      </trkpt>
      <trkpt lat="43.467275" lon="-3.777391">
        <ele>23.609</ele>
        <time>2022-08-28T16:52:54Z</time>
      </trkpt>
      <trkpt lat="43.467302" lon="-3.777334">
        <ele>23.656</ele>
        <time>2022-08-28T16:52:55Z</time>
      </trkpt>
      <trkpt lat="43.467354" lon="-3.777221">
        <ele>23.236</ele>
        <time>2022-08-28T16:52:57Z</time>
      </trkpt>
      <trkpt lat="43.467377" lon="-3.777164">
        <ele>22.927</ele>
        <time>2022-08-28T16:52:58Z</time>
      </trkpt>
      <trkpt lat="43.467427" lon="-3.777052">
        <ele>22.636</ele>
        <time>2022-08-28T16:53:00Z</time>
      </trkpt>
      <trkpt lat="43.467452" lon="-3.776999">
        <ele>22.615</ele>
        <time>2022-08-28T16:53:01Z</time>
      </trkpt>
      <trkpt lat="43.467479" lon="-3.776944">
        <ele>22.643</ele>
        <time>2022-08-28T16:53:02Z</time>
      </trkpt>
      <trkpt lat="43.467539" lon="-3.776831">
        <ele>22.317</ele>
        <time>2022-08-28T16:53:04Z</time>
      </trkpt>
      <trkpt lat="43.467596" lon="-3.776709">
        <ele>22.236</ele>
        <time>2022-08-28T16:53:06Z</time>
      </trkpt>
      <trkpt lat="43.467626" lon="-3.776651">
        <ele>22.342</ele>
        <time>2022-08-28T16:53:07Z</time>
      </trkpt>
      <trkpt lat="43.467654" lon="-3.776594">
        <ele>22.364</ele>
        <time>2022-08-28T16:53:08Z</time>
      </trkpt>
      <trkpt lat="43.467682" lon="-3.776537">
        <ele>22.506</ele>
        <time>2022-08-28T16:53:09Z</time>
      </trkpt>
      <trkpt lat="43.467712" lon="-3.776480">
        <ele>22.616</ele>
        <time>2022-08-28T16:53:10Z</time>
      </trkpt>
      <trkpt lat="43.467765" lon="-3.776370">
        <ele>22.909</ele>
        <time>2022-08-28T16:53:12Z</time>
      </trkpt>
      <trkpt lat="43.467815" lon="-3.776272">
        <ele>22.967</ele>
        <time>2022-08-28T16:53:14Z</time>
      </trkpt>
      <trkpt lat="43.467858" lon="-3.776182">
        <ele>22.537</ele>
        <time>2022-08-28T16:53:16Z</time>
      </trkpt>
      <trkpt lat="43.467900" lon="-3.776105">
        <ele>22.598</ele>
        <time>2022-08-28T16:53:18Z</time>
      </trkpt>
      <trkpt lat="43.467940" lon="-3.776040">
        <ele>22.617</ele>
        <time>2022-08-28T16:53:20Z</time>
      </trkpt>
      <trkpt lat="43.467983" lon="-3.775993">
        <ele>23.096</ele>
        <time>2022-08-28T16:53:22Z</time>
      </trkpt>
      <trkpt lat="43.468026" lon="-3.775951">
        <ele>23.644</ele>
        <time>2022-08-28T16:53:25Z</time>
      </trkpt>
      <trkpt lat="43.468068" lon="-3.775921">
        <ele>25.398</ele>
        <time>2022-08-28T16:53:43Z</time>
      </trkpt>
      <trkpt lat="43.468101" lon="-3.775866">
        <ele>25.577</ele>
        <time>2022-08-28T16:53:45Z</time>
      </trkpt>
      <trkpt lat="43.468141" lon="-3.775836">
        <ele>27.643</ele>
        <time>2022-08-28T16:54:20Z</time>
      </trkpt>
      <trkpt lat="43.468183" lon="-3.775784">
        <ele>27.674</ele>
        <time>2022-08-28T16:54:22Z</time>
      </trkpt>
      <trkpt lat="43.468230" lon="-3.775694">
        <ele>27.656</ele>
        <time>2022-08-28T16:54:24Z</time>
      </trkpt>
      <trkpt lat="43.468278" lon="-3.775571">
        <ele>30.821</ele>
        <time>2022-08-28T16:54:26Z</time>
      </trkpt>
      <trkpt lat="43.468301" lon="-3.775508">
        <ele>23.509</ele>
        <time>2022-08-28T16:54:27Z</time>
      </trkpt>
      <trkpt lat="43.468338" lon="-3.775383">
        <ele>21.998</ele>
        <time>2022-08-28T16:54:29Z</time>
      </trkpt>
      <trkpt lat="43.468371" lon="-3.775271">
        <ele>20.868</ele>
        <time>2022-08-28T16:54:31Z</time>
      </trkpt>
      <trkpt lat="43.468403" lon="-3.775178">
        <ele>20.169</ele>
        <time>2022-08-28T16:54:33Z</time>
      </trkpt>
      <trkpt lat="43.468445" lon="-3.775145">
        <ele>19.898</ele>
        <time>2022-08-28T16:54:35Z</time>
      </trkpt>
      <trkpt lat="43.468488" lon="-3.775162">
        <ele>19.697</ele>
        <time>2022-08-28T16:54:37Z</time>
      </trkpt>
      <trkpt lat="43.468533" lon="-3.775214">
        <ele>19.555</ele>
        <time>2022-08-28T16:54:39Z</time>
      </trkpt>
      <trkpt lat="43.468578" lon="-3.775289">
        <ele>19.449</ele>
        <time>2022-08-28T16:54:41Z</time>
      </trkpt>
      <trkpt lat="43.468635" lon="-3.775392">
        <ele>18.538</ele>
        <time>2022-08-28T16:54:43Z</time>
      </trkpt>
      <trkpt lat="43.468693" lon="-3.775507">
        <ele>15.824</ele>
        <time>2022-08-28T16:54:45Z</time>
      </trkpt>
      <trkpt lat="43.468748" lon="-3.775615">
        <ele>13.865</ele>
        <time>2022-08-28T16:54:47Z</time>
      </trkpt>
      <trkpt lat="43.468798" lon="-3.775718">
        <ele>11.768</ele>
        <time>2022-08-28T16:54:49Z</time>
      </trkpt>
      <trkpt lat="43.468843" lon="-3.775796">
        <ele>9.814</ele>
        <time>2022-08-28T16:54:51Z</time>
      </trkpt>
      <trkpt lat="43.468950" lon="-3.775744">
        <ele>5.909</ele>
        <time>2022-08-28T16:55:16Z</time>
      </trkpt>
      <trkpt lat="43.469030" lon="-3.775667">
        <ele>9.287</ele>
        <time>2022-08-28T17:03:20Z</time>
      </trkpt>
      <trkpt lat="43.468990" lon="-3.775819">
        <ele>11.037</ele>
        <time>2022-08-28T17:03:37Z</time>
      </trkpt>
      <trkpt lat="43.469032" lon="-3.775787">
        <ele>19.648</ele>
        <time>2022-08-28T17:03:53Z</time>
      </trkpt>
      <trkpt lat="43.469025" lon="-3.775700">
        <ele>17.067</ele>
        <time>2022-08-28T17:04:00Z</time>
      </trkpt>
      <trkpt lat="43.469015" lon="-3.775617">
        <ele>12.816</ele>
        <time>2022-08-28T17:04:08Z</time>
      </trkpt>
      <trkpt lat="43.468970" lon="-3.775577">
        <ele>11.794</ele>
        <time>2022-08-28T17:04:14Z</time>
      </trkpt>
      <trkpt lat="43.469038" lon="-3.775585">
        <ele>6.838</ele>
        <time>2022-08-28T17:04:38Z</time>
      </trkpt>
      <trkpt lat="43.469091" lon="-3.775585">
        <ele>6.417</ele>
        <time>2022-08-28T17:04:42Z</time>
      </trkpt>
      <trkpt lat="43.469138" lon="-3.775580">
        <ele>6.113</ele>
        <time>2022-08-28T17:04:47Z</time>
      </trkpt>
      <trkpt lat="43.469175" lon="-3.775537">
        <ele>6.332</ele>
        <time>2022-08-28T17:04:51Z</time>
      </trkpt>
      <trkpt lat="43.469188" lon="-3.775475">
        <ele>6.392</ele>
        <time>2022-08-28T17:04:56Z</time>
      </trkpt>
      <trkpt lat="43.469210" lon="-3.775283">
        <ele>3.211</ele>
        <time>2022-08-28T17:05:12Z</time>
      </trkpt>
      <trkpt lat="43.469165" lon="-3.775255">
        <ele>8.609</ele>
        <time>2022-08-28T17:16:22Z</time>
      </trkpt>
      <trkpt lat="43.469158" lon="-3.775373">
        <ele>9.964</ele>
        <time>2022-08-28T17:16:32Z</time>
      </trkpt>
      <trkpt lat="43.469121" lon="-3.775435">
        <ele>10.974</ele>
        <time>2022-08-28T17:16:38Z</time>
      </trkpt>
      <trkpt lat="43.469093" lon="-3.775525">
        <ele>12.335</ele>
        <time>2022-08-28T17:16:45Z</time>
      </trkpt>
      <trkpt lat="43.469060" lon="-3.775575">
        <ele>10.874</ele>
        <time>2022-08-28T17:16:50Z</time>
      </trkpt>
      <trkpt lat="43.469033" lon="-3.775628">
        <ele>13.243</ele>
        <time>2022-08-28T17:18:35Z</time>
      </trkpt>
      <trkpt lat="43.468985" lon="-3.775713">
        <ele>13.211</ele>
        <time>2022-08-28T17:18:53Z</time>
      </trkpt>
      <trkpt lat="43.468970" lon="-3.775811">
        <ele>13.235</ele>
        <time>2022-08-28T17:19:01Z</time>
      </trkpt>
      <trkpt lat="43.468927" lon="-3.775774">
        <ele>13.684</ele>
        <time>2022-08-28T17:19:10Z</time>
      </trkpt>
      <trkpt lat="43.468919" lon="-3.775684">
        <ele>13.940</ele>
        <time>2022-08-28T17:27:23Z</time>
      </trkpt>
      <trkpt lat="43.468917" lon="-3.775621">
        <ele>13.916</ele>
        <time>2022-08-28T17:27:27Z</time>
      </trkpt>
      <trkpt lat="43.468374" lon="-3.775528">
        <ele>19.076</ele>
        <time>2022-08-28T17:34:18Z</time>
      </trkpt>
      <trkpt lat="43.468364" lon="-3.775593">
        <ele>19.613</ele>
        <time>2022-08-28T17:34:21Z</time>
      </trkpt>
      <trkpt lat="43.468364" lon="-3.775673">
        <ele>19.809</ele>
        <time>2022-08-28T17:34:24Z</time>
      </trkpt>
      <trkpt lat="43.468364" lon="-3.775746">
        <ele>20.112</ele>
        <time>2022-08-28T17:34:26Z</time>
      </trkpt>
      <trkpt lat="43.468381" lon="-3.775818">
        <ele>20.232</ele>
        <time>2022-08-28T17:34:28Z</time>
      </trkpt>
      <trkpt lat="43.468393" lon="-3.775881">
        <ele>20.393</ele>
        <time>2022-08-28T17:34:30Z</time>
      </trkpt>
      <trkpt lat="43.468398" lon="-3.775969">
        <ele>21.482</ele>
        <time>2022-08-28T17:34:33Z</time>
      </trkpt>
      <trkpt lat="43.468345" lon="-3.775994">
        <ele>22.361</ele>
        <time>2022-08-28T17:34:37Z</time>
      </trkpt>
      <trkpt lat="43.468280" lon="-3.775964">
        <ele>22.489</ele>
        <time>2022-08-28T17:34:40Z</time>
      </trkpt>
      <trkpt lat="43.468225" lon="-3.775954">
        <ele>22.553</ele>
        <time>2022-08-28T17:34:42Z</time>
      </trkpt>
      <trkpt lat="43.468163" lon="-3.775952">
        <ele>22.622</ele>
        <time>2022-08-28T17:34:44Z</time>
      </trkpt>
      <trkpt lat="43.468101" lon="-3.775945">
        <ele>23.088</ele>
        <time>2022-08-28T17:34:46Z</time>
      </trkpt>
      <trkpt lat="43.468051" lon="-3.775965">
        <ele>23.071</ele>
        <time>2022-08-28T17:34:48Z</time>
      </trkpt>
      <trkpt lat="43.468011" lon="-3.776010">
        <ele>23.141</ele>
        <time>2022-08-28T17:34:50Z</time>
      </trkpt>
      <trkpt lat="43.467961" lon="-3.776052">
        <ele>23.415</ele>
        <time>2022-08-28T17:34:52Z</time>
      </trkpt>
      <trkpt lat="43.467906" lon="-3.776107">
        <ele>23.509</ele>
        <time>2022-08-28T17:34:54Z</time>
      </trkpt>
      <trkpt lat="43.467854" lon="-3.776175">
        <ele>23.588</ele>
        <time>2022-08-28T17:34:56Z</time>
      </trkpt>
      <trkpt lat="43.467809" lon="-3.776258">
        <ele>23.258</ele>
        <time>2022-08-28T17:34:58Z</time>
      </trkpt>
      <trkpt lat="43.467767" lon="-3.776345">
        <ele>22.419</ele>
        <time>2022-08-28T17:35:00Z</time>
      </trkpt>
      <trkpt lat="43.467720" lon="-3.776442">
        <ele>22.228</ele>
        <time>2022-08-28T17:35:02Z</time>
      </trkpt>
      <trkpt lat="43.467673" lon="-3.776537">
        <ele>22.197</ele>
        <time>2022-08-28T17:35:04Z</time>
      </trkpt>
      <trkpt lat="43.467626" lon="-3.776639">
        <ele>22.275</ele>
        <time>2022-08-28T17:35:06Z</time>
      </trkpt>
      <trkpt lat="43.467581" lon="-3.776742">
        <ele>22.299</ele>
        <time>2022-08-28T17:35:08Z</time>
      </trkpt>
      <trkpt lat="43.467558" lon="-3.776795">
        <ele>22.268</ele>
        <time>2022-08-28T17:35:09Z</time>
      </trkpt>
      <trkpt lat="43.467510" lon="-3.776895">
        <ele>22.314</ele>
        <time>2022-08-28T17:35:11Z</time>
      </trkpt>
      <trkpt lat="43.467460" lon="-3.776997">
        <ele>22.489</ele>
        <time>2022-08-28T17:35:13Z</time>
      </trkpt>
      <trkpt lat="43.467437" lon="-3.777050">
        <ele>22.406</ele>
        <time>2022-08-28T17:35:14Z</time>
      </trkpt>
      <trkpt lat="43.467412" lon="-3.777102">
        <ele>22.526</ele>
        <time>2022-08-28T17:35:15Z</time>
      </trkpt>
      <trkpt lat="43.467364" lon="-3.777210">
        <ele>23.109</ele>
        <time>2022-08-28T17:35:17Z</time>
      </trkpt>
      <trkpt lat="43.467312" lon="-3.777320">
        <ele>23.649</ele>
        <time>2022-08-28T17:35:19Z</time>
      </trkpt>
      <trkpt lat="43.467287" lon="-3.777372">
        <ele>23.739</ele>
        <time>2022-08-28T17:35:20Z</time>
      </trkpt>
      <trkpt lat="43.467259" lon="-3.777425">
        <ele>23.870</ele>
        <time>2022-08-28T17:35:21Z</time>
      </trkpt>
      <trkpt lat="43.467206" lon="-3.777528">
        <ele>24.149</ele>
        <time>2022-08-28T17:35:23Z</time>
      </trkpt>
      <trkpt lat="43.467156" lon="-3.777631">
        <ele>24.638</ele>
        <time>2022-08-28T17:35:25Z</time>
      </trkpt>
      <trkpt lat="43.467129" lon="-3.777683">
        <ele>24.666</ele>
        <time>2022-08-28T17:35:26Z</time>
      </trkpt>
      <trkpt lat="43.467104" lon="-3.777735">
        <ele>24.720</ele>
        <time>2022-08-28T17:35:27Z</time>
      </trkpt>
      <trkpt lat="43.467081" lon="-3.777792">
        <ele>24.979</ele>
        <time>2022-08-28T17:35:28Z</time>
      </trkpt>
      <trkpt lat="43.467031" lon="-3.777905">
        <ele>25.375</ele>
        <time>2022-08-28T17:35:30Z</time>
      </trkpt>
      <trkpt lat="43.467008" lon="-3.777962">
        <ele>25.415</ele>
        <time>2022-08-28T17:35:31Z</time>
      </trkpt>
      <trkpt lat="43.466981" lon="-3.778017">
        <ele>25.465</ele>
        <time>2022-08-28T17:35:32Z</time>
      </trkpt>
      <trkpt lat="43.466954" lon="-3.778072">
        <ele>25.511</ele>
        <time>2022-08-28T17:35:33Z</time>
      </trkpt>
      <trkpt lat="43.466901" lon="-3.778177">
        <ele>25.609</ele>
        <time>2022-08-28T17:35:35Z</time>
      </trkpt>
      <trkpt lat="43.466856" lon="-3.778277">
        <ele>25.742</ele>
        <time>2022-08-28T17:35:37Z</time>
      </trkpt>
      <trkpt lat="43.466813" lon="-3.778374">
        <ele>26.242</ele>
        <time>2022-08-28T17:35:39Z</time>
      </trkpt>
      <trkpt lat="43.466766" lon="-3.778471">
        <ele>26.423</ele>
        <time>2022-08-28T17:35:41Z</time>
      </trkpt>
      <trkpt lat="43.466721" lon="-3.778569">
        <ele>26.442</ele>
        <time>2022-08-28T17:35:43Z</time>
      </trkpt>
      <trkpt lat="43.466676" lon="-3.778674">
        <ele>26.581</ele>
        <time>2022-08-28T17:35:45Z</time>
      </trkpt>
      <trkpt lat="43.466631" lon="-3.778769">
        <ele>26.999</ele>
        <time>2022-08-28T17:35:47Z</time>
      </trkpt>
      <trkpt lat="43.466606" lon="-3.778821">
        <ele>27.113</ele>
        <time>2022-08-28T17:35:48Z</time>
      </trkpt>
      <trkpt lat="43.466561" lon="-3.778924">
        <ele>27.362</ele>
        <time>2022-08-28T17:35:50Z</time>
      </trkpt>
      <trkpt lat="43.466511" lon="-3.779026">
        <ele>27.478</ele>
        <time>2022-08-28T17:35:52Z</time>
      </trkpt>
      <trkpt lat="43.466461" lon="-3.779126">
        <ele>27.588</ele>
        <time>2022-08-28T17:35:54Z</time>
      </trkpt>
      <trkpt lat="43.466413" lon="-3.779234">
        <ele>28.224</ele>
        <time>2022-08-28T17:35:56Z</time>
      </trkpt>
      <trkpt lat="43.466363" lon="-3.779336">
        <ele>28.926</ele>
        <time>2022-08-28T17:35:58Z</time>
      </trkpt>
      <trkpt lat="43.466313" lon="-3.779431">
        <ele>29.609</ele>
        <time>2022-08-28T17:36:00Z</time>
      </trkpt>
      <trkpt lat="43.466265" lon="-3.779528">
        <ele>30.469</ele>
        <time>2022-08-28T17:36:02Z</time>
      </trkpt>
      <trkpt lat="43.466215" lon="-3.779620">
        <ele>31.499</ele>
        <time>2022-08-28T17:36:04Z</time>
      </trkpt>
      <trkpt lat="43.466163" lon="-3.779712">
        <ele>32.290</ele>
        <time>2022-08-28T17:36:06Z</time>
      </trkpt>
      <trkpt lat="43.466105" lon="-3.779800">
        <ele>33.099</ele>
        <time>2022-08-28T17:36:08Z</time>
      </trkpt>
      <trkpt lat="43.466058" lon="-3.779882">
        <ele>33.798</ele>
        <time>2022-08-28T17:36:10Z</time>
      </trkpt>
      <trkpt lat="43.466003" lon="-3.779914">
        <ele>34.286</ele>
        <time>2022-08-28T17:36:12Z</time>
      </trkpt>
      <trkpt lat="43.465965" lon="-3.779957">
        <ele>34.440</ele>
        <time>2022-08-28T17:36:14Z</time>
      </trkpt>
      <trkpt lat="43.465910" lon="-3.779965">
        <ele>35.349</ele>
        <time>2022-08-28T17:36:17Z</time>
      </trkpt>
      <trkpt lat="43.465907" lon="-3.780107">
        <ele>38.555</ele>
        <time>2022-08-28T17:36:44Z</time>
      </trkpt>
      <trkpt lat="43.465889" lon="-3.780169">
        <ele>38.512</ele>
        <time>2022-08-28T17:36:48Z</time>
      </trkpt>
      <trkpt lat="43.465856" lon="-3.780227">
        <ele>38.532</ele>
        <time>2022-08-28T17:36:50Z</time>
      </trkpt>
      <trkpt lat="43.465806" lon="-3.780297">
        <ele>38.505</ele>
        <time>2022-08-28T17:36:52Z</time>
      </trkpt>
      <trkpt lat="43.465758" lon="-3.780372">
        <ele>37.509</ele>
        <time>2022-08-28T17:36:54Z</time>
      </trkpt>
      <trkpt lat="43.465715" lon="-3.780447">
        <ele>37.312</ele>
        <time>2022-08-28T17:36:56Z</time>
      </trkpt>
      <trkpt lat="43.465672" lon="-3.780515">
        <ele>37.232</ele>
        <time>2022-08-28T17:36:58Z</time>
      </trkpt>
      <trkpt lat="43.465629" lon="-3.780583">
        <ele>37.383</ele>
        <time>2022-08-28T17:37:00Z</time>
      </trkpt>
      <trkpt lat="43.465592" lon="-3.780648">
        <ele>37.472</ele>
        <time>2022-08-28T17:37:02Z</time>
      </trkpt>
      <trkpt lat="43.465550" lon="-3.780715">
        <ele>37.441</ele>
        <time>2022-08-28T17:37:04Z</time>
      </trkpt>
      <trkpt lat="43.465507" lon="-3.780777">
        <ele>37.459</ele>
        <time>2022-08-28T17:37:06Z</time>
      </trkpt>
      <trkpt lat="43.465457" lon="-3.780854">
        <ele>37.393</ele>
        <time>2022-08-28T17:37:08Z</time>
      </trkpt>
      <trkpt lat="43.465407" lon="-3.780917">
        <ele>37.362</ele>
        <time>2022-08-28T17:37:10Z</time>
      </trkpt>
      <trkpt lat="43.465352" lon="-3.780960">
        <ele>37.378</ele>
        <time>2022-08-28T17:37:12Z</time>
      </trkpt>
      <trkpt lat="43.465294" lon="-3.781007">
        <ele>38.013</ele>
        <time>2022-08-28T17:37:14Z</time>
      </trkpt>
      <trkpt lat="43.465231" lon="-3.781055">
        <ele>38.143</ele>
        <time>2022-08-28T17:37:16Z</time>
      </trkpt>
      <trkpt lat="43.465171" lon="-3.781107">
        <ele>38.107</ele>
        <time>2022-08-28T17:37:18Z</time>
      </trkpt>
      <trkpt lat="43.465116" lon="-3.781165">
        <ele>37.909</ele>
        <time>2022-08-28T17:37:20Z</time>
      </trkpt>
      <trkpt lat="43.465061" lon="-3.781228">
        <ele>37.662</ele>
        <time>2022-08-28T17:37:22Z</time>
      </trkpt>
      <trkpt lat="43.465009" lon="-3.781305">
        <ele>37.182</ele>
        <time>2022-08-28T17:37:24Z</time>
      </trkpt>
      <trkpt lat="43.464959" lon="-3.781392">
        <ele>36.193</ele>
        <time>2022-08-28T17:37:26Z</time>
      </trkpt>
      <trkpt lat="43.464919" lon="-3.781484">
        <ele>35.222</ele>
        <time>2022-08-28T17:37:28Z</time>
      </trkpt>
      <trkpt lat="43.464879" lon="-3.781584">
        <ele>34.311</ele>
        <time>2022-08-28T17:37:30Z</time>
      </trkpt>
      <trkpt lat="43.464847" lon="-3.781691">
        <ele>33.619</ele>
        <time>2022-08-28T17:37:32Z</time>
      </trkpt>
      <trkpt lat="43.464822" lon="-3.781788">
        <ele>33.473</ele>
        <time>2022-08-28T17:37:34Z</time>
      </trkpt>
      <trkpt lat="43.464792" lon="-3.781893">
        <ele>33.252</ele>
        <time>2022-08-28T17:37:36Z</time>
      </trkpt>
      <trkpt lat="43.464769" lon="-3.782000">
        <ele>31.798</ele>
        <time>2022-08-28T17:37:38Z</time>
      </trkpt>
      <trkpt lat="43.464742" lon="-3.782125">
        <ele>30.527</ele>
        <time>2022-08-28T17:37:40Z</time>
      </trkpt>
      <trkpt lat="43.464727" lon="-3.782193">
        <ele>29.668</ele>
        <time>2022-08-28T17:37:41Z</time>
      </trkpt>
      <trkpt lat="43.464689" lon="-3.782321">
        <ele>28.814</ele>
        <time>2022-08-28T17:37:43Z</time>
      </trkpt>
      <trkpt lat="43.464667" lon="-3.782384">
        <ele>28.709</ele>
        <time>2022-08-28T17:37:44Z</time>
      </trkpt>
      <trkpt lat="43.464627" lon="-3.782516">
        <ele>28.523</ele>
        <time>2022-08-28T17:37:46Z</time>
      </trkpt>
      <trkpt lat="43.464587" lon="-3.782648">
        <ele>27.953</ele>
        <time>2022-08-28T17:37:48Z</time>
      </trkpt>
      <trkpt lat="43.464549" lon="-3.782786">
        <ele>27.794</ele>
        <time>2022-08-28T17:37:50Z</time>
      </trkpt>
      <trkpt lat="43.464526" lon="-3.782854">
        <ele>27.733</ele>
        <time>2022-08-28T17:37:51Z</time>
      </trkpt>
      <trkpt lat="43.464481" lon="-3.782997">
        <ele>27.792</ele>
        <time>2022-08-28T17:37:53Z</time>
      </trkpt>
      <trkpt lat="43.464444" lon="-3.783142">
        <ele>28.050</ele>
        <time>2022-08-28T17:37:55Z</time>
      </trkpt>
      <trkpt lat="43.464427" lon="-3.783222">
        <ele>28.014</ele>
        <time>2022-08-28T17:37:56Z</time>
      </trkpt>
      <trkpt lat="43.464385" lon="-3.783382">
        <ele>27.713</ele>
        <time>2022-08-28T17:37:58Z</time>
      </trkpt>
      <trkpt lat="43.464365" lon="-3.783464">
        <ele>27.639</ele>
        <time>2022-08-28T17:37:59Z</time>
      </trkpt>
      <trkpt lat="43.464320" lon="-3.783622">
        <ele>27.476</ele>
        <time>2022-08-28T17:38:01Z</time>
      </trkpt>
      <trkpt lat="43.464277" lon="-3.783789">
        <ele>27.490</ele>
        <time>2022-08-28T17:38:03Z</time>
      </trkpt>
      <trkpt lat="43.464232" lon="-3.783956">
        <ele>27.519</ele>
        <time>2022-08-28T17:38:05Z</time>
      </trkpt>
      <trkpt lat="43.464187" lon="-3.784126">
        <ele>27.509</ele>
        <time>2022-08-28T17:38:07Z</time>
      </trkpt>
      <trkpt lat="43.464137" lon="-3.784296">
        <ele>27.678</ele>
        <time>2022-08-28T17:38:09Z</time>
      </trkpt>
      <trkpt lat="43.464114" lon="-3.784379">
        <ele>27.638</ele>
        <time>2022-08-28T17:38:10Z</time>
      </trkpt>
      <trkpt lat="43.464072" lon="-3.784541">
        <ele>27.969</ele>
        <time>2022-08-28T17:38:12Z</time>
      </trkpt>
      <trkpt lat="43.464027" lon="-3.784709">
        <ele>27.628</ele>
        <time>2022-08-28T17:38:14Z</time>
      </trkpt>
      <trkpt lat="43.463982" lon="-3.784877">
        <ele>27.567</ele>
        <time>2022-08-28T17:38:16Z</time>
      </trkpt>
      <trkpt lat="43.463960" lon="-3.784957">
        <ele>27.125</ele>
        <time>2022-08-28T17:38:17Z</time>
      </trkpt>
      <trkpt lat="43.463938" lon="-3.785032">
        <ele>26.739</ele>
        <time>2022-08-28T17:38:18Z</time>
      </trkpt>
      <trkpt lat="43.463918" lon="-3.785109">
        <ele>26.558</ele>
        <time>2022-08-28T17:38:19Z</time>
      </trkpt>
      <trkpt lat="43.463881" lon="-3.785252">
        <ele>25.734</ele>
        <time>2022-08-28T17:38:21Z</time>
      </trkpt>
      <trkpt lat="43.463864" lon="-3.785317">
        <ele>25.445</ele>
        <time>2022-08-28T17:38:22Z</time>
      </trkpt>
      <trkpt lat="43.463824" lon="-3.785450">
        <ele>25.347</ele>
        <time>2022-08-28T17:38:24Z</time>
      </trkpt>
      <trkpt lat="43.463786" lon="-3.785588">
        <ele>24.911</ele>
        <time>2022-08-28T17:38:26Z</time>
      </trkpt>
      <trkpt lat="43.463748" lon="-3.785728">
        <ele>24.609</ele>
        <time>2022-08-28T17:38:28Z</time>
      </trkpt>
      <trkpt lat="43.463713" lon="-3.785873">
        <ele>24.665</ele>
        <time>2022-08-28T17:38:30Z</time>
      </trkpt>
      <trkpt lat="43.463696" lon="-3.785945">
        <ele>24.675</ele>
        <time>2022-08-28T17:38:31Z</time>
      </trkpt>
      <trkpt lat="43.463659" lon="-3.786085">
        <ele>24.646</ele>
        <time>2022-08-28T17:38:33Z</time>
      </trkpt>
      <trkpt lat="43.463646" lon="-3.786158">
        <ele>24.745</ele>
        <time>2022-08-28T17:38:34Z</time>
      </trkpt>
      <trkpt lat="43.463624" lon="-3.786315">
        <ele>24.794</ele>
        <time>2022-08-28T17:38:36Z</time>
      </trkpt>
      <trkpt lat="43.463616" lon="-3.786392">
        <ele>24.752</ele>
        <time>2022-08-28T17:38:37Z</time>
      </trkpt>
      <trkpt lat="43.463598" lon="-3.786542">
        <ele>24.526</ele>
        <time>2022-08-28T17:38:39Z</time>
      </trkpt>
      <trkpt lat="43.463583" lon="-3.786692">
        <ele>24.445</ele>
        <time>2022-08-28T17:38:41Z</time>
      </trkpt>
      <trkpt lat="43.463566" lon="-3.786832">
        <ele>24.421</ele>
        <time>2022-08-28T17:38:43Z</time>
      </trkpt>
      <trkpt lat="43.463561" lon="-3.786899">
        <ele>24.368</ele>
        <time>2022-08-28T17:38:44Z</time>
      </trkpt>
      <trkpt lat="43.463549" lon="-3.787021">
        <ele>24.542</ele>
        <time>2022-08-28T17:38:46Z</time>
      </trkpt>
      <trkpt lat="43.463536" lon="-3.787143">
        <ele>24.826</ele>
        <time>2022-08-28T17:38:48Z</time>
      </trkpt>
      <trkpt lat="43.463524" lon="-3.787265">
        <ele>25.009</ele>
        <time>2022-08-28T17:38:50Z</time>
      </trkpt>
      <trkpt lat="43.463519" lon="-3.787328">
        <ele>25.187</ele>
        <time>2022-08-28T17:38:51Z</time>
      </trkpt>
      <trkpt lat="43.463507" lon="-3.787448">
        <ele>25.427</ele>
        <time>2022-08-28T17:38:53Z</time>
      </trkpt>
      <trkpt lat="43.463489" lon="-3.787568">
        <ele>25.888</ele>
        <time>2022-08-28T17:38:55Z</time>
      </trkpt>
      <trkpt lat="43.463472" lon="-3.787666">
        <ele>25.867</ele>
        <time>2022-08-28T17:38:57Z</time>
      </trkpt>
      <trkpt lat="43.463457" lon="-3.787739">
        <ele>24.846</ele>
        <time>2022-08-28T17:38:59Z</time>
      </trkpt>
      <trkpt lat="43.463440" lon="-3.787861">
        <ele>23.894</ele>
        <time>2022-08-28T17:40:02Z</time>
      </trkpt>
      <trkpt lat="43.463448" lon="-3.787944">
        <ele>23.878</ele>
        <time>2022-08-28T17:40:05Z</time>
      </trkpt>
      <trkpt lat="43.463475" lon="-3.788021">
        <ele>23.817</ele>
        <time>2022-08-28T17:40:07Z</time>
      </trkpt>
      <trkpt lat="43.463480" lon="-3.788089">
        <ele>23.823</ele>
        <time>2022-08-28T17:40:09Z</time>
      </trkpt>
      <trkpt lat="43.463468" lon="-3.788162">
        <ele>23.837</ele>
        <time>2022-08-28T17:40:11Z</time>
      </trkpt>
      <trkpt lat="43.463461" lon="-3.788239">
        <ele>26.349</ele>
        <time>2022-08-28T17:40:13Z</time>
      </trkpt>
      <trkpt lat="43.463456" lon="-3.788317">
        <ele>25.113</ele>
        <time>2022-08-28T17:40:15Z</time>
      </trkpt>
      <trkpt lat="43.463444" lon="-3.788395">
        <ele>24.309</ele>
        <time>2022-08-28T17:40:17Z</time>
      </trkpt>
      <trkpt lat="43.463441" lon="-3.788475">
        <ele>23.944</ele>
        <time>2022-08-28T17:40:19Z</time>
      </trkpt>
      <trkpt lat="43.463443" lon="-3.788570">
        <ele>23.624</ele>
        <time>2022-08-28T17:40:21Z</time>
      </trkpt>
      <trkpt lat="43.463443" lon="-3.788668">
        <ele>23.075</ele>
        <time>2022-08-28T17:40:23Z</time>
      </trkpt>
      <trkpt lat="43.463436" lon="-3.788773">
        <ele>22.614</ele>
        <time>2022-08-28T17:40:25Z</time>
      </trkpt>
      <trkpt lat="43.463428" lon="-3.788865">
        <ele>22.643</ele>
        <time>2022-08-28T17:40:27Z</time>
      </trkpt>
      <trkpt lat="43.463416" lon="-3.788960">
        <ele>22.551</ele>
        <time>2022-08-28T17:40:29Z</time>
      </trkpt>
      <trkpt lat="43.463404" lon="-3.789063">
        <ele>22.085</ele>
        <time>2022-08-28T17:40:31Z</time>
      </trkpt>
      <trkpt lat="43.463401" lon="-3.789173">
        <ele>21.384</ele>
        <time>2022-08-28T17:40:33Z</time>
      </trkpt>
      <trkpt lat="43.463408" lon="-3.789293">
        <ele>20.610</ele>
        <time>2022-08-28T17:40:35Z</time>
      </trkpt>
      <trkpt lat="43.463410" lon="-3.789445">
        <ele>19.342</ele>
        <time>2022-08-28T17:40:37Z</time>
      </trkpt>
      <trkpt lat="43.463423" lon="-3.789582">
        <ele>18.022</ele>
        <time>2022-08-28T17:40:39Z</time>
      </trkpt>
      <trkpt lat="43.463430" lon="-3.789734">
        <ele>17.114</ele>
        <time>2022-08-28T17:40:41Z</time>
      </trkpt>
      <trkpt lat="43.463428" lon="-3.789816">
        <ele>16.909</ele>
        <time>2022-08-28T17:40:42Z</time>
      </trkpt>
      <trkpt lat="43.463418" lon="-3.789899">
        <ele>16.565</ele>
        <time>2022-08-28T17:40:43Z</time>
      </trkpt>
      <trkpt lat="43.463395" lon="-3.790081">
        <ele>15.095</ele>
        <time>2022-08-28T17:40:45Z</time>
      </trkpt>
      <trkpt lat="43.463377" lon="-3.790276">
        <ele>13.856</ele>
        <time>2022-08-28T17:40:47Z</time>
      </trkpt>
      <trkpt lat="43.463364" lon="-3.790388">
        <ele>13.655</ele>
        <time>2022-08-28T17:40:48Z</time>
      </trkpt>
      <trkpt lat="43.463316" lon="-3.790620">
        <ele>12.944</ele>
        <time>2022-08-28T17:40:50Z</time>
      </trkpt>
      <trkpt lat="43.463281" lon="-3.790735">
        <ele>12.152</ele>
        <time>2022-08-28T17:40:51Z</time>
      </trkpt>
      <trkpt lat="43.463244" lon="-3.790845">
        <ele>11.246</ele>
        <time>2022-08-28T17:40:52Z</time>
      </trkpt>
      <trkpt lat="43.463159" lon="-3.791057">
        <ele>9.165</ele>
        <time>2022-08-28T17:40:54Z</time>
      </trkpt>
      <trkpt lat="43.463109" lon="-3.791164">
        <ele>8.051</ele>
        <time>2022-08-28T17:40:55Z</time>
      </trkpt>
      <trkpt lat="43.462994" lon="-3.791356">
        <ele>4.726</ele>
        <time>2022-08-28T17:40:57Z</time>
      </trkpt>
      <trkpt lat="43.462911" lon="-3.791524">
        <ele>2.747</ele>
        <time>2022-08-28T17:40:59Z</time>
      </trkpt>
      <trkpt lat="43.462844" lon="-3.791654">
        <ele>1.511</ele>
        <time>2022-08-28T17:41:01Z</time>
      </trkpt>
      <trkpt lat="43.462759" lon="-3.791706">
        <ele>1.309</ele>
        <time>2022-08-28T17:41:03Z</time>
      </trkpt>
      <trkpt lat="43.462707" lon="-3.791684">
        <ele>1.623</ele>
        <time>2022-08-28T17:41:04Z</time>
      </trkpt>
      <trkpt lat="43.462674" lon="-3.791642">
        <ele>1.963</ele>
        <time>2022-08-28T17:41:05Z</time>
      </trkpt>
      <trkpt lat="43.462639" lon="-3.791547">
        <ele>2.794</ele>
        <time>2022-08-28T17:41:07Z</time>
      </trkpt>
      <trkpt lat="43.462594" lon="-3.791545">
        <ele>4.273</ele>
        <time>2022-08-28T17:41:10Z</time>
      </trkpt>
      <trkpt lat="43.462589" lon="-3.791637">
        <ele>4.622</ele>
        <time>2022-08-28T17:41:12Z</time>
      </trkpt>
      <trkpt lat="43.462599" lon="-3.791745">
        <ele>5.370</ele>
        <time>2022-08-28T17:41:14Z</time>
      </trkpt>
      <trkpt lat="43.462607" lon="-3.791862">
        <ele>5.724</ele>
        <time>2022-08-28T17:41:16Z</time>
      </trkpt>
      <trkpt lat="43.462610" lon="-3.791997">
        <ele>6.263</ele>
        <time>2022-08-28T17:41:18Z</time>
      </trkpt>
      <trkpt lat="43.462618" lon="-3.792130">
        <ele>6.589</ele>
        <time>2022-08-28T17:41:20Z</time>
      </trkpt>
      <trkpt lat="43.462623" lon="-3.792198">
        <ele>6.252</ele>
        <time>2022-08-28T17:41:21Z</time>
      </trkpt>
      <trkpt lat="43.462628" lon="-3.792335">
        <ele>5.753</ele>
        <time>2022-08-28T17:41:23Z</time>
      </trkpt>
      <trkpt lat="43.462631" lon="-3.792403">
        <ele>5.308</ele>
        <time>2022-08-28T17:41:24Z</time>
      </trkpt>
      <trkpt lat="43.462643" lon="-3.792546">
        <ele>4.909</ele>
        <time>2022-08-28T17:41:26Z</time>
      </trkpt>
      <trkpt lat="43.462651" lon="-3.792618">
        <ele>4.486</ele>
        <time>2022-08-28T17:41:27Z</time>
      </trkpt>
      <trkpt lat="43.462663" lon="-3.792766">
        <ele>4.486</ele>
        <time>2022-08-28T17:41:29Z</time>
      </trkpt>
      <trkpt lat="43.462668" lon="-3.792839">
        <ele>4.197</ele>
        <time>2022-08-28T17:41:30Z</time>
      </trkpt>
      <trkpt lat="43.462680" lon="-3.792976">
        <ele>3.076</ele>
        <time>2022-08-28T17:41:32Z</time>
      </trkpt>
      <trkpt lat="43.462687" lon="-3.793048">
        <ele>3.255</ele>
        <time>2022-08-28T17:41:33Z</time>
      </trkpt>
      <trkpt lat="43.462704" lon="-3.793190">
        <ele>3.713</ele>
        <time>2022-08-28T17:41:35Z</time>
      </trkpt>
      <trkpt lat="43.462717" lon="-3.793328">
        <ele>3.587</ele>
        <time>2022-08-28T17:41:37Z</time>
      </trkpt>
      <trkpt lat="43.462725" lon="-3.793476">
        <ele>3.276</ele>
        <time>2022-08-28T17:41:39Z</time>
      </trkpt>
      <trkpt lat="43.462732" lon="-3.793554">
        <ele>3.372</ele>
        <time>2022-08-28T17:41:40Z</time>
      </trkpt>
      <trkpt lat="43.462742" lon="-3.793704">
        <ele>2.757</ele>
        <time>2022-08-28T17:41:42Z</time>
      </trkpt>
      <trkpt lat="43.462754" lon="-3.793854">
        <ele>2.300</ele>
        <time>2022-08-28T17:41:44Z</time>
      </trkpt>
      <trkpt lat="43.462757" lon="-3.793931">
        <ele>2.320</ele>
        <time>2022-08-28T17:41:45Z</time>
      </trkpt>
      <trkpt lat="43.462767" lon="-3.794076">
        <ele>3.409</ele>
        <time>2022-08-28T17:41:47Z</time>
      </trkpt>
      <trkpt lat="43.462774" lon="-3.794149">
        <ele>3.646</ele>
        <time>2022-08-28T17:41:48Z</time>
      </trkpt>
      <trkpt lat="43.462786" lon="-3.794289">
        <ele>3.896</ele>
        <time>2022-08-28T17:41:50Z</time>
      </trkpt>
      <trkpt lat="43.462798" lon="-3.794427">
        <ele>4.387</ele>
        <time>2022-08-28T17:41:52Z</time>
      </trkpt>
      <trkpt lat="43.462815" lon="-3.794567">
        <ele>4.916</ele>
        <time>2022-08-28T17:41:54Z</time>
      </trkpt>
      <trkpt lat="43.462822" lon="-3.794709">
        <ele>5.265</ele>
        <time>2022-08-28T17:41:56Z</time>
      </trkpt>
      <trkpt lat="43.462832" lon="-3.794849">
        <ele>5.113</ele>
        <time>2022-08-28T17:41:58Z</time>
      </trkpt>
      <trkpt lat="43.462844" lon="-3.794982">
        <ele>4.557</ele>
        <time>2022-08-28T17:42:00Z</time>
      </trkpt>
      <trkpt lat="43.462851" lon="-3.795117">
        <ele>4.056</ele>
        <time>2022-08-28T17:42:02Z</time>
      </trkpt>
      <trkpt lat="43.462861" lon="-3.795189">
        <ele>4.032</ele>
        <time>2022-08-28T17:42:03Z</time>
      </trkpt>
      <trkpt lat="43.462868" lon="-3.795307">
        <ele>4.153</ele>
        <time>2022-08-28T17:42:05Z</time>
      </trkpt>
      <trkpt lat="43.462870" lon="-3.795424">
        <ele>3.704</ele>
        <time>2022-08-28T17:42:07Z</time>
      </trkpt>
      <trkpt lat="43.462873" lon="-3.795489">
        <ele>3.714</ele>
        <time>2022-08-28T17:42:08Z</time>
      </trkpt>
      <trkpt lat="43.462881" lon="-3.795622">
        <ele>3.809</ele>
        <time>2022-08-28T17:42:10Z</time>
      </trkpt>
      <trkpt lat="43.462888" lon="-3.795685">
        <ele>3.996</ele>
        <time>2022-08-28T17:42:11Z</time>
      </trkpt>
      <trkpt lat="43.462896" lon="-3.795810">
        <ele>3.776</ele>
        <time>2022-08-28T17:42:13Z</time>
      </trkpt>
      <trkpt lat="43.462896" lon="-3.795873">
        <ele>3.717</ele>
        <time>2022-08-28T17:42:14Z</time>
      </trkpt>
      <trkpt lat="43.462883" lon="-3.796008">
        <ele>4.876</ele>
        <time>2022-08-28T17:42:16Z</time>
      </trkpt>
      <trkpt lat="43.462856" lon="-3.796140">
        <ele>5.595</ele>
        <time>2022-08-28T17:42:18Z</time>
      </trkpt>
      <trkpt lat="43.462838" lon="-3.796200">
        <ele>5.353</ele>
        <time>2022-08-28T17:42:19Z</time>
      </trkpt>
      <trkpt lat="43.462813" lon="-3.796252">
        <ele>5.217</ele>
        <time>2022-08-28T17:42:20Z</time>
      </trkpt>
      <trkpt lat="43.462780" lon="-3.796295">
        <ele>5.366</ele>
        <time>2022-08-28T17:42:21Z</time>
      </trkpt>
      <trkpt lat="43.462713" lon="-3.796363">
        <ele>5.292</ele>
        <time>2022-08-28T17:42:23Z</time>
      </trkpt>
      <trkpt lat="43.462660" lon="-3.796418">
        <ele>5.634</ele>
        <time>2022-08-28T17:42:25Z</time>
      </trkpt>
      <trkpt lat="43.462618" lon="-3.796456">
        <ele>5.255</ele>
        <time>2022-08-28T17:42:29Z</time>
      </trkpt>
      <trkpt lat="43.462576" lon="-3.796503">
        <ele>4.310</ele>
        <time>2022-08-28T17:42:33Z</time>
      </trkpt>
      <trkpt lat="43.462563" lon="-3.796568">
        <ele>4.409</ele>
        <time>2022-08-28T17:42:36Z</time>
      </trkpt>
      <trkpt lat="43.462561" lon="-3.796651">
        <ele>2.334</ele>
        <time>2022-08-28T17:42:38Z</time>
      </trkpt>
      <trkpt lat="43.462534" lon="-3.796738">
        <ele>1.944</ele>
        <time>2022-08-28T17:42:40Z</time>
      </trkpt>
      <trkpt lat="43.462479" lon="-3.796846">
        <ele>3.025</ele>
        <time>2022-08-28T17:42:42Z</time>
      </trkpt>
      <trkpt lat="43.462434" lon="-3.796928">
        <ele>3.794</ele>
        <time>2022-08-28T17:42:44Z</time>
      </trkpt>
      <trkpt lat="43.462392" lon="-3.797015">
        <ele>4.333</ele>
        <time>2022-08-28T17:42:46Z</time>
      </trkpt>
      <trkpt lat="43.462349" lon="-3.797107">
        <ele>3.951</ele>
        <time>2022-08-28T17:42:48Z</time>
      </trkpt>
      <trkpt lat="43.462294" lon="-3.797209">
        <ele>3.815</ele>
        <time>2022-08-28T17:42:50Z</time>
      </trkpt>
      <trkpt lat="43.462259" lon="-3.797254">
        <ele>3.774</ele>
        <time>2022-08-28T17:42:51Z</time>
      </trkpt>
      <trkpt lat="43.462191" lon="-3.797349">
        <ele>3.430</ele>
        <time>2022-08-28T17:42:53Z</time>
      </trkpt>
      <trkpt lat="43.462156" lon="-3.797404">
        <ele>3.524</ele>
        <time>2022-08-28T17:42:54Z</time>
      </trkpt>
      <trkpt lat="43.462111" lon="-3.797529">
        <ele>3.304</ele>
        <time>2022-08-28T17:42:56Z</time>
      </trkpt>
      <trkpt lat="43.462094" lon="-3.797666">
        <ele>2.614</ele>
        <time>2022-08-28T17:42:58Z</time>
      </trkpt>
      <trkpt lat="43.462091" lon="-3.797739">
        <ele>3.009</ele>
        <time>2022-08-28T17:42:59Z</time>
      </trkpt>
      <trkpt lat="43.462078" lon="-3.797882">
        <ele>3.763</ele>
        <time>2022-08-28T17:43:01Z</time>
      </trkpt>
      <trkpt lat="43.462073" lon="-3.797952">
        <ele>4.133</ele>
        <time>2022-08-28T17:43:02Z</time>
      </trkpt>
      <trkpt lat="43.462068" lon="-3.798020">
        <ele>3.914</ele>
        <time>2022-08-28T17:43:03Z</time>
      </trkpt>
      <trkpt lat="43.462058" lon="-3.798158">
        <ele>4.093</ele>
        <time>2022-08-28T17:43:05Z</time>
      </trkpt>
      <trkpt lat="43.462046" lon="-3.798295">
        <ele>3.812</ele>
        <time>2022-08-28T17:43:07Z</time>
      </trkpt>
      <trkpt lat="43.462041" lon="-3.798363">
        <ele>4.030</ele>
        <time>2022-08-28T17:43:08Z</time>
      </trkpt>
      <trkpt lat="43.462028" lon="-3.798501">
        <ele>4.174</ele>
        <time>2022-08-28T17:43:10Z</time>
      </trkpt>
      <trkpt lat="43.462013" lon="-3.798636">
        <ele>3.833</ele>
        <time>2022-08-28T17:43:12Z</time>
      </trkpt>
      <trkpt lat="43.462000" lon="-3.798768">
        <ele>3.879</ele>
        <time>2022-08-28T17:43:14Z</time>
      </trkpt>
      <trkpt lat="43.461995" lon="-3.798833">
        <ele>3.894</ele>
        <time>2022-08-28T17:43:15Z</time>
      </trkpt>
      <trkpt lat="43.461983" lon="-3.798956">
        <ele>3.957</ele>
        <time>2022-08-28T17:43:17Z</time>
      </trkpt>
      <trkpt lat="43.461975" lon="-3.799081">
        <ele>4.122</ele>
        <time>2022-08-28T17:43:19Z</time>
      </trkpt>
      <trkpt lat="43.461962" lon="-3.799203">
        <ele>4.309</ele>
        <time>2022-08-28T17:43:21Z</time>
      </trkpt>
      <trkpt lat="43.461950" lon="-3.799335">
        <ele>4.040</ele>
        <time>2022-08-28T17:43:23Z</time>
      </trkpt>
      <trkpt lat="43.461943" lon="-3.799400">
        <ele>3.730</ele>
        <time>2022-08-28T17:43:24Z</time>
      </trkpt>
      <trkpt lat="43.461928" lon="-3.799520">
        <ele>3.061</ele>
        <time>2022-08-28T17:43:26Z</time>
      </trkpt>
      <trkpt lat="43.461916" lon="-3.799638">
        <ele>2.810</ele>
        <time>2022-08-28T17:43:28Z</time>
      </trkpt>
      <trkpt lat="43.461908" lon="-3.799768">
        <ele>2.669</ele>
        <time>2022-08-28T17:43:30Z</time>
      </trkpt>
      <trkpt lat="43.461905" lon="-3.799831">
        <ele>2.877</ele>
        <time>2022-08-28T17:43:31Z</time>
      </trkpt>
      <trkpt lat="43.461888" lon="-3.799961">
        <ele>3.141</ele>
        <time>2022-08-28T17:43:33Z</time>
      </trkpt>
      <trkpt lat="43.461878" lon="-3.800079">
        <ele>3.170</ele>
        <time>2022-08-28T17:43:35Z</time>
      </trkpt>
      <trkpt lat="43.461868" lon="-3.800196">
        <ele>3.296</ele>
        <time>2022-08-28T17:43:37Z</time>
      </trkpt>
      <trkpt lat="43.461856" lon="-3.800311">
        <ele>3.043</ele>
        <time>2022-08-28T17:43:39Z</time>
      </trkpt>
      <trkpt lat="43.461843" lon="-3.800428">
        <ele>2.764</ele>
        <time>2022-08-28T17:43:41Z</time>
      </trkpt>
      <trkpt lat="43.461831" lon="-3.800541">
        <ele>2.710</ele>
        <time>2022-08-28T17:43:43Z</time>
      </trkpt>
      <trkpt lat="43.461823" lon="-3.800651">
        <ele>2.709</ele>
        <time>2022-08-28T17:43:45Z</time>
      </trkpt>
      <trkpt lat="43.461815" lon="-3.800759">
        <ele>2.985</ele>
        <time>2022-08-28T17:43:47Z</time>
      </trkpt>
      <trkpt lat="43.461803" lon="-3.800867">
        <ele>2.915</ele>
        <time>2022-08-28T17:43:49Z</time>
      </trkpt>
      <trkpt lat="43.461786" lon="-3.800982">
        <ele>2.736</ele>
        <time>2022-08-28T17:43:51Z</time>
      </trkpt>
      <trkpt lat="43.461773" lon="-3.801107">
        <ele>3.025</ele>
        <time>2022-08-28T17:43:53Z</time>
      </trkpt>
      <trkpt lat="43.461760" lon="-3.801235">
        <ele>2.834</ele>
        <time>2022-08-28T17:43:55Z</time>
      </trkpt>
      <trkpt lat="43.461753" lon="-3.801302">
        <ele>2.992</ele>
        <time>2022-08-28T17:43:56Z</time>
      </trkpt>
      <trkpt lat="43.461736" lon="-3.801430">
        <ele>3.416</ele>
        <time>2022-08-28T17:43:58Z</time>
      </trkpt>
      <trkpt lat="43.461729" lon="-3.801492">
        <ele>3.195</ele>
        <time>2022-08-28T17:43:59Z</time>
      </trkpt>
      <trkpt lat="43.461709" lon="-3.801625">
        <ele>3.381</ele>
        <time>2022-08-28T17:44:01Z</time>
      </trkpt>
      <trkpt lat="43.461699" lon="-3.801690">
        <ele>3.549</ele>
        <time>2022-08-28T17:44:02Z</time>
      </trkpt>
      <trkpt lat="43.461689" lon="-3.801755">
        <ele>3.502</ele>
        <time>2022-08-28T17:44:03Z</time>
      </trkpt>
      <trkpt lat="43.461681" lon="-3.801817">
        <ele>3.322</ele>
        <time>2022-08-28T17:44:04Z</time>
      </trkpt>
      <trkpt lat="43.461661" lon="-3.801939">
        <ele>2.909</ele>
        <time>2022-08-28T17:44:06Z</time>
      </trkpt>
      <trkpt lat="43.461629" lon="-3.802044">
        <ele>1.665</ele>
        <time>2022-08-28T17:44:08Z</time>
      </trkpt>
      <trkpt lat="43.461581" lon="-3.802144">
        <ele>1.355</ele>
        <time>2022-08-28T17:44:10Z</time>
      </trkpt>
      <trkpt lat="43.461551" lon="-3.802194">
        <ele>1.276</ele>
        <time>2022-08-28T17:44:11Z</time>
      </trkpt>
      <trkpt lat="43.461478" lon="-3.802291">
        <ele>1.545</ele>
        <time>2022-08-28T17:44:13Z</time>
      </trkpt>
      <trkpt lat="43.461443" lon="-3.802344">
        <ele>1.514</ele>
        <time>2022-08-28T17:44:14Z</time>
      </trkpt>
      <trkpt lat="43.461378" lon="-3.802459">
        <ele>1.932</ele>
        <time>2022-08-28T17:44:16Z</time>
      </trkpt>
      <trkpt lat="43.461313" lon="-3.802571">
        <ele>1.776</ele>
        <time>2022-08-28T17:44:18Z</time>
      </trkpt>
      <trkpt lat="43.461280" lon="-3.802626">
        <ele>1.935</ele>
        <time>2022-08-28T17:44:19Z</time>
      </trkpt>
      <trkpt lat="43.461223" lon="-3.802738">
        <ele>2.051</ele>
        <time>2022-08-28T17:44:21Z</time>
      </trkpt>
      <trkpt lat="43.461198" lon="-3.802795">
        <ele>1.995</ele>
        <time>2022-08-28T17:44:22Z</time>
      </trkpt>
      <trkpt lat="43.461171" lon="-3.802853">
        <ele>1.949</ele>
        <time>2022-08-28T17:44:23Z</time>
      </trkpt>
      <trkpt lat="43.461113" lon="-3.802970">
        <ele>3.023</ele>
        <time>2022-08-28T17:44:25Z</time>
      </trkpt>
      <trkpt lat="43.461050" lon="-3.803077">
        <ele>3.009</ele>
        <time>2022-08-28T17:44:27Z</time>
      </trkpt>
      <trkpt lat="43.460960" lon="-3.803145">
        <ele>3.770</ele>
        <time>2022-08-28T17:44:29Z</time>
      </trkpt>
      <trkpt lat="43.460913" lon="-3.803173">
        <ele>4.150</ele>
        <time>2022-08-28T17:44:30Z</time>
      </trkpt>
      <trkpt lat="43.460815" lon="-3.803226">
        <ele>4.721</ele>
        <time>2022-08-28T17:44:32Z</time>
      </trkpt>
      <trkpt lat="43.460725" lon="-3.803296">
        <ele>5.220</ele>
        <time>2022-08-28T17:44:34Z</time>
      </trkpt>
      <trkpt lat="43.460682" lon="-3.803338">
        <ele>5.219</ele>
        <time>2022-08-28T17:44:35Z</time>
      </trkpt>
      <trkpt lat="43.460604" lon="-3.803430">
        <ele>5.437</ele>
        <time>2022-08-28T17:44:37Z</time>
      </trkpt>
      <trkpt lat="43.460537" lon="-3.803545">
        <ele>5.811</ele>
        <time>2022-08-28T17:44:39Z</time>
      </trkpt>
      <trkpt lat="43.460494" lon="-3.803657">
        <ele>6.030</ele>
        <time>2022-08-28T17:44:41Z</time>
      </trkpt>
      <trkpt lat="43.460436" lon="-3.803759">
        <ele>6.536</ele>
        <time>2022-08-28T17:44:43Z</time>
      </trkpt>
      <trkpt lat="43.460371" lon="-3.803849">
        <ele>6.778</ele>
        <time>2022-08-28T17:44:45Z</time>
      </trkpt>
      <trkpt lat="43.460306" lon="-3.803921">
        <ele>6.633</ele>
        <time>2022-08-28T17:44:47Z</time>
      </trkpt>
      <trkpt lat="43.460259" lon="-3.803958">
        <ele>6.726</ele>
        <time>2022-08-28T17:44:48Z</time>
      </trkpt>
      <trkpt lat="43.460217" lon="-3.803988">
        <ele>6.809</ele>
        <time>2022-08-28T17:44:49Z</time>
      </trkpt>
      <trkpt lat="43.460142" lon="-3.804010">
        <ele>7.568</ele>
        <time>2022-08-28T17:44:51Z</time>
      </trkpt>
      <trkpt lat="43.460069" lon="-3.804078">
        <ele>8.838</ele>
        <time>2022-08-28T17:44:53Z</time>
      </trkpt>
      <trkpt lat="43.460047" lon="-3.804140">
        <ele>8.879</ele>
        <time>2022-08-28T17:44:55Z</time>
      </trkpt>
      <trkpt lat="43.460030" lon="-3.804233">
        <ele>8.618</ele>
        <time>2022-08-28T17:44:57Z</time>
      </trkpt>
      <trkpt lat="43.459990" lon="-3.804313">
        <ele>7.247</ele>
        <time>2022-08-28T17:44:59Z</time>
      </trkpt>
      <trkpt lat="43.459957" lon="-3.804360">
        <ele>1.195</ele>
        <time>2022-08-28T17:45:00Z</time>
      </trkpt>
      <trkpt lat="43.459894" lon="-3.804463">
        <ele>0.419</ele>
        <time>2022-08-28T17:45:02Z</time>
      </trkpt>
      <trkpt lat="43.459819" lon="-3.804563">
        <ele>1.728</ele>
        <time>2022-08-28T17:45:04Z</time>
      </trkpt>
      <trkpt lat="43.459779" lon="-3.804605">
        <ele>1.834</ele>
        <time>2022-08-28T17:45:05Z</time>
      </trkpt>
      <trkpt lat="43.459742" lon="-3.804645">
        <ele>2.471</ele>
        <time>2022-08-28T17:45:06Z</time>
      </trkpt>
      <trkpt lat="43.459680" lon="-3.804735">
        <ele>3.641</ele>
        <time>2022-08-28T17:45:08Z</time>
      </trkpt>
      <trkpt lat="43.459657" lon="-3.804840">
        <ele>3.915</ele>
        <time>2022-08-28T17:45:10Z</time>
      </trkpt>
      <trkpt lat="43.459667" lon="-3.804943">
        <ele>4.709</ele>
        <time>2022-08-28T17:45:12Z</time>
      </trkpt>
      <trkpt lat="43.459704" lon="-3.805028">
        <ele>5.258</ele>
        <time>2022-08-28T17:45:14Z</time>
      </trkpt>
      <trkpt lat="43.459747" lon="-3.805108">
        <ele>5.828</ele>
        <time>2022-08-28T17:45:16Z</time>
      </trkpt>
      <trkpt lat="43.459789" lon="-3.805190">
        <ele>5.989</ele>
        <time>2022-08-28T17:45:18Z</time>
      </trkpt>
      <trkpt lat="43.459834" lon="-3.805277">
        <ele>6.388</ele>
        <time>2022-08-28T17:45:20Z</time>
      </trkpt>
      <trkpt lat="43.459872" lon="-3.805360">
        <ele>6.247</ele>
        <time>2022-08-28T17:45:22Z</time>
      </trkpt>
      <trkpt lat="43.459905" lon="-3.805440">
        <ele>5.985</ele>
        <time>2022-08-28T17:45:24Z</time>
      </trkpt>
      <trkpt lat="43.459915" lon="-3.805528">
        <ele>5.089</ele>
        <time>2022-08-28T17:45:26Z</time>
      </trkpt>
      <trkpt lat="43.459923" lon="-3.805621">
        <ele>5.748</ele>
        <time>2022-08-28T17:45:28Z</time>
      </trkpt>
      <trkpt lat="43.459913" lon="-3.805718">
        <ele>5.754</ele>
        <time>2022-08-28T17:45:30Z</time>
      </trkpt>
      <trkpt lat="43.459893" lon="-3.805813">
        <ele>5.737</ele>
        <time>2022-08-28T17:45:32Z</time>
      </trkpt>
      <trkpt lat="43.459865" lon="-3.805908">
        <ele>5.149</ele>
        <time>2022-08-28T17:45:34Z</time>
      </trkpt>
      <trkpt lat="43.459830" lon="-3.806000">
        <ele>5.013</ele>
        <time>2022-08-28T17:45:36Z</time>
      </trkpt>
      <trkpt lat="43.459790" lon="-3.806085">
        <ele>4.709</ele>
        <time>2022-08-28T17:45:38Z</time>
      </trkpt>
      <trkpt lat="43.459750" lon="-3.806167">
        <ele>4.834</ele>
        <time>2022-08-28T17:45:40Z</time>
      </trkpt>
      <trkpt lat="43.459703" lon="-3.806232">
        <ele>5.564</ele>
        <time>2022-08-28T17:45:42Z</time>
      </trkpt>
      <trkpt lat="43.459658" lon="-3.806292">
        <ele>5.865</ele>
        <time>2022-08-28T17:45:44Z</time>
      </trkpt>
      <trkpt lat="43.459613" lon="-3.806360">
        <ele>5.854</ele>
        <time>2022-08-28T17:45:46Z</time>
      </trkpt>
      <trkpt lat="43.459565" lon="-3.806420">
        <ele>5.543</ele>
        <time>2022-08-28T17:45:48Z</time>
      </trkpt>
      <trkpt lat="43.459520" lon="-3.806478">
        <ele>5.421</ele>
        <time>2022-08-28T17:45:50Z</time>
      </trkpt>
      <trkpt lat="43.459475" lon="-3.806538">
        <ele>5.315</ele>
        <time>2022-08-28T17:45:52Z</time>
      </trkpt>
      <trkpt lat="43.459430" lon="-3.806591">
        <ele>5.254</ele>
        <time>2022-08-28T17:45:54Z</time>
      </trkpt>
      <trkpt lat="43.459388" lon="-3.806646">
        <ele>5.590</ele>
        <time>2022-08-28T17:45:56Z</time>
      </trkpt>
      <trkpt lat="43.459348" lon="-3.806699">
        <ele>4.917</ele>
        <time>2022-08-28T17:45:58Z</time>
      </trkpt>
      <trkpt lat="43.459313" lon="-3.806754">
        <ele>5.087</ele>
        <time>2022-08-28T17:46:00Z</time>
      </trkpt>
      <trkpt lat="43.459326" lon="-3.806819">
        <ele>5.515</ele>
        <time>2022-08-28T17:46:02Z</time>
      </trkpt>
      <trkpt lat="43.459358" lon="-3.806872">
        <ele>5.609</ele>
        <time>2022-08-28T17:46:09Z</time>
      </trkpt>
      <trkpt lat="43.459396" lon="-3.806930">
        <ele>4.912</ele>
        <time>2022-08-28T17:46:11Z</time>
      </trkpt>
      <trkpt lat="43.459443" lon="-3.806995">
        <ele>5.042</ele>
        <time>2022-08-28T17:46:13Z</time>
      </trkpt>
      <trkpt lat="43.459493" lon="-3.807055">
        <ele>4.843</ele>
        <time>2022-08-28T17:46:15Z</time>
      </trkpt>
      <trkpt lat="43.459528" lon="-3.807113">
        <ele>4.742</ele>
        <time>2022-08-28T17:46:17Z</time>
      </trkpt>
      <trkpt lat="43.459560" lon="-3.807170">
        <ele>5.131</ele>
        <time>2022-08-28T17:46:19Z</time>
      </trkpt>
      <trkpt lat="43.459588" lon="-3.807240">
        <ele>5.969</ele>
        <time>2022-08-28T17:46:21Z</time>
      </trkpt>
      <trkpt lat="43.459601" lon="-3.807315">
        <ele>6.863</ele>
        <time>2022-08-28T17:46:23Z</time>
      </trkpt>
      <trkpt lat="43.459596" lon="-3.807392">
        <ele>7.242</ele>
        <time>2022-08-28T17:46:25Z</time>
      </trkpt>
      <trkpt lat="43.459584" lon="-3.807465">
        <ele>7.788</ele>
        <time>2022-08-28T17:46:27Z</time>
      </trkpt>
      <trkpt lat="43.459567" lon="-3.807537">
        <ele>7.179</ele>
        <time>2022-08-28T17:46:29Z</time>
      </trkpt>
      <trkpt lat="43.459549" lon="-3.807610">
        <ele>7.605</ele>
        <time>2022-08-28T17:46:31Z</time>
      </trkpt>
      <trkpt lat="43.459532" lon="-3.807688">
        <ele>8.425</ele>
        <time>2022-08-28T17:46:33Z</time>
      </trkpt>
      <trkpt lat="43.459512" lon="-3.807771">
        <ele>8.709</ele>
        <time>2022-08-28T17:46:35Z</time>
      </trkpt>
      <trkpt lat="43.459487" lon="-3.807854">
        <ele>9.118</ele>
        <time>2022-08-28T17:46:37Z</time>
      </trkpt>
      <trkpt lat="43.459464" lon="-3.807937">
        <ele>9.988</ele>
        <time>2022-08-28T17:46:39Z</time>
      </trkpt>
      <trkpt lat="43.459442" lon="-3.808014">
        <ele>10.659</ele>
        <time>2022-08-28T17:46:41Z</time>
      </trkpt>
      <trkpt lat="43.459422" lon="-3.808092">
        <ele>10.898</ele>
        <time>2022-08-28T17:46:43Z</time>
      </trkpt>
      <trkpt lat="43.459404" lon="-3.808167">
        <ele>10.897</ele>
        <time>2022-08-28T17:46:45Z</time>
      </trkpt>
      <trkpt lat="43.459381" lon="-3.808247">
        <ele>10.655</ele>
        <time>2022-08-28T17:46:47Z</time>
      </trkpt>
      <trkpt lat="43.459354" lon="-3.808330">
        <ele>9.749</ele>
        <time>2022-08-28T17:46:49Z</time>
      </trkpt>
      <trkpt lat="43.459321" lon="-3.808405">
        <ele>9.748</ele>
        <time>2022-08-28T17:46:51Z</time>
      </trkpt>
      <trkpt lat="43.459274" lon="-3.808462">
        <ele>9.654</ele>
        <time>2022-08-28T17:46:53Z</time>
      </trkpt>
      <trkpt lat="43.459211" lon="-3.808504">
        <ele>9.698</ele>
        <time>2022-08-28T17:46:55Z</time>
      </trkpt>
      <trkpt lat="43.459204" lon="-3.808597">
        <ele>9.115</ele>
        <time>2022-08-28T17:46:58Z</time>
      </trkpt>
      <trkpt lat="43.459181" lon="-3.808679">
        <ele>8.926</ele>
        <time>2022-08-28T17:47:00Z</time>
      </trkpt>
      <trkpt lat="43.459166" lon="-3.808757">
        <ele>8.309</ele>
        <time>2022-08-28T17:47:02Z</time>
      </trkpt>
      <trkpt lat="43.459153" lon="-3.808837">
        <ele>8.070</ele>
        <time>2022-08-28T17:47:04Z</time>
      </trkpt>
      <trkpt lat="43.459131" lon="-3.808922">
        <ele>7.830</ele>
        <time>2022-08-28T17:47:06Z</time>
      </trkpt>
      <trkpt lat="43.459089" lon="-3.808999">
        <ele>7.551</ele>
        <time>2022-08-28T17:47:08Z</time>
      </trkpt>
      <trkpt lat="43.459056" lon="-3.809071">
        <ele>7.150</ele>
        <time>2022-08-28T17:47:10Z</time>
      </trkpt>
      <trkpt lat="43.459038" lon="-3.809143">
        <ele>2.249</ele>
        <time>2022-08-28T17:47:12Z</time>
      </trkpt>
      <trkpt lat="43.459023" lon="-3.809216">
        <ele>2.057</ele>
        <time>2022-08-28T17:47:14Z</time>
      </trkpt>
      <trkpt lat="43.459018" lon="-3.809289">
        <ele>2.081</ele>
        <time>2022-08-28T17:47:16Z</time>
      </trkpt>
      <trkpt lat="43.458993" lon="-3.809376">
        <ele>0.410</ele>
        <time>2022-08-28T17:47:19Z</time>
      </trkpt>
      <trkpt lat="43.458971" lon="-3.809451">
        <ele>-0.296</ele>
        <time>2022-08-28T17:47:21Z</time>
      </trkpt>
      <trkpt lat="43.458961" lon="-3.809521">
        <ele>-0.125</ele>
        <time>2022-08-28T17:47:23Z</time>
      </trkpt>
      <trkpt lat="43.458943" lon="-3.809596">
        <ele>-0.426</ele>
        <time>2022-08-28T17:47:25Z</time>
      </trkpt>
      <trkpt lat="43.458930" lon="-3.809674">
        <ele>-1.008</ele>
        <time>2022-08-28T17:47:27Z</time>
      </trkpt>
      <trkpt lat="43.458913" lon="-3.809754">
        <ele>-0.709</ele>
        <time>2022-08-28T17:47:29Z</time>
      </trkpt>
      <trkpt lat="43.458891" lon="-3.809844">
        <ele>-0.163</ele>
        <time>2022-08-28T17:47:31Z</time>
      </trkpt>
      <trkpt lat="43.458884" lon="-3.809924">
        <ele>0.453</ele>
        <time>2022-08-28T17:47:34Z</time>
      </trkpt>
      <trkpt lat="43.458857" lon="-3.809986">
        <ele>0.564</ele>
        <time>2022-08-28T17:47:36Z</time>
      </trkpt>
      <trkpt lat="43.458824" lon="-3.810083">
        <ele>1.583</ele>
        <time>2022-08-28T17:47:40Z</time>
      </trkpt>
      <trkpt lat="43.458807" lon="-3.810153">
        <ele>0.992</ele>
        <time>2022-08-28T17:47:43Z</time>
      </trkpt>
      <trkpt lat="43.458817" lon="-3.810216">
        <ele>-0.210</ele>
        <time>2022-08-28T17:47:46Z</time>
      </trkpt>
      <trkpt lat="43.458792" lon="-3.810268">
        <ele>-1.984</ele>
        <time>2022-08-28T17:47:49Z</time>
      </trkpt>
      <trkpt lat="43.458865" lon="-3.810408">
        <ele>5.573</ele>
        <time>2022-08-28T17:48:52Z</time>
      </trkpt>
      <trkpt lat="43.458943" lon="-3.810446">
        <ele>6.059</ele>
        <time>2022-08-28T17:48:54Z</time>
      </trkpt>
      <trkpt lat="43.459033" lon="-3.810508">
        <ele>6.488</ele>
        <time>2022-08-28T17:48:56Z</time>
      </trkpt>
      <trkpt lat="43.459103" lon="-3.810580">
        <ele>6.524</ele>
        <time>2022-08-28T17:48:58Z</time>
      </trkpt>
      <trkpt lat="43.459173" lon="-3.810622">
        <ele>6.826</ele>
        <time>2022-08-28T17:49:00Z</time>
      </trkpt>
      <trkpt lat="43.459240" lon="-3.810654">
        <ele>6.709</ele>
        <time>2022-08-28T17:49:02Z</time>
      </trkpt>
      <trkpt lat="43.459303" lon="-3.810684">
        <ele>6.959</ele>
        <time>2022-08-28T17:49:04Z</time>
      </trkpt>
      <trkpt lat="43.459360" lon="-3.810699">
        <ele>7.149</ele>
        <time>2022-08-28T17:49:06Z</time>
      </trkpt>
      <trkpt lat="43.459417" lon="-3.810637">
        <ele>7.970</ele>
        <time>2022-08-28T17:49:09Z</time>
      </trkpt>
      <trkpt lat="43.459460" lon="-3.810547">
        <ele>7.979</ele>
        <time>2022-08-28T17:49:11Z</time>
      </trkpt>
      <trkpt lat="43.459500" lon="-3.810452">
        <ele>7.998</ele>
        <time>2022-08-28T17:49:13Z</time>
      </trkpt>
      <trkpt lat="43.459525" lon="-3.810352">
        <ele>6.826</ele>
        <time>2022-08-28T17:49:15Z</time>
      </trkpt>
      <trkpt lat="43.459543" lon="-3.810260">
        <ele>6.750</ele>
        <time>2022-08-28T17:49:17Z</time>
      </trkpt>
      <trkpt lat="43.459565" lon="-3.810163">
        <ele>6.929</ele>
        <time>2022-08-28T17:49:19Z</time>
      </trkpt>
      <trkpt lat="43.459585" lon="-3.810063">
        <ele>6.855</ele>
        <time>2022-08-28T17:49:21Z</time>
      </trkpt>
      <trkpt lat="43.459613" lon="-3.809978">
        <ele>7.018</ele>
        <time>2022-08-28T17:49:23Z</time>
      </trkpt>
      <trkpt lat="43.459636" lon="-3.809911">
        <ele>7.198</ele>
        <time>2022-08-28T17:49:25Z</time>
      </trkpt>
      <trkpt lat="43.459668" lon="-3.809838">
        <ele>7.117</ele>
        <time>2022-08-28T17:49:27Z</time>
      </trkpt>
      <trkpt lat="43.459701" lon="-3.809758">
        <ele>7.109</ele>
        <time>2022-08-28T17:49:29Z</time>
      </trkpt>
      <trkpt lat="43.459734" lon="-3.809691">
        <ele>4.762</ele>
        <time>2022-08-28T17:49:31Z</time>
      </trkpt>
      <trkpt lat="43.459759" lon="-3.809608">
        <ele>5.152</ele>
        <time>2022-08-28T17:49:34Z</time>
      </trkpt>
      <trkpt lat="43.459784" lon="-3.809556">
        <ele>5.113</ele>
        <time>2022-08-28T17:49:36Z</time>
      </trkpt>
      <trkpt lat="43.459826" lon="-3.809518">
        <ele>4.612</ele>
        <time>2022-08-28T17:49:38Z</time>
      </trkpt>
      <trkpt lat="43.459866" lon="-3.809445">
        <ele>4.371</ele>
        <time>2022-08-28T17:49:40Z</time>
      </trkpt>
      <trkpt lat="43.459918" lon="-3.809348">
        <ele>4.399</ele>
        <time>2022-08-28T17:49:42Z</time>
      </trkpt>
      <trkpt lat="43.459946" lon="-3.809263">
        <ele>4.513</ele>
        <time>2022-08-28T17:49:44Z</time>
      </trkpt>
      <trkpt lat="43.459979" lon="-3.809176">
        <ele>4.172</ele>
        <time>2022-08-28T17:49:46Z</time>
      </trkpt>
      <trkpt lat="43.459991" lon="-3.809098">
        <ele>3.428</ele>
        <time>2022-08-28T17:49:48Z</time>
      </trkpt>
      <trkpt lat="43.460009" lon="-3.809015">
        <ele>3.074</ele>
        <time>2022-08-28T17:49:51Z</time>
      </trkpt>
      <trkpt lat="43.460051" lon="-3.808953">
        <ele>3.756</ele>
        <time>2022-08-28T17:49:54Z</time>
      </trkpt>
      <trkpt lat="43.460141" lon="-3.808945">
        <ele>3.721</ele>
        <time>2022-08-28T17:49:56Z</time>
      </trkpt>
      <trkpt lat="43.460249" lon="-3.808950">
        <ele>3.609</ele>
        <time>2022-08-28T17:49:58Z</time>
      </trkpt>
      <trkpt lat="43.460361" lon="-3.808967">
        <ele>3.348</ele>
        <time>2022-08-28T17:50:00Z</time>
      </trkpt>
      <trkpt lat="43.460413" lon="-3.808989">
        <ele>3.168</ele>
        <time>2022-08-28T17:50:01Z</time>
      </trkpt>
      <trkpt lat="43.460511" lon="-3.809034">
        <ele>3.079</ele>
        <time>2022-08-28T17:50:03Z</time>
      </trkpt>
      <trkpt lat="43.460616" lon="-3.809102">
        <ele>3.658</ele>
        <time>2022-08-28T17:50:05Z</time>
      </trkpt>
      <trkpt lat="43.460668" lon="-3.809127">
        <ele>4.147</ele>
        <time>2022-08-28T17:50:06Z</time>
      </trkpt>
      <trkpt lat="43.460710" lon="-3.809152">
        <ele>4.415</ele>
        <time>2022-08-28T17:50:07Z</time>
      </trkpt>
      <trkpt lat="43.460803" lon="-3.809197">
        <ele>4.649</ele>
        <time>2022-08-28T17:50:09Z</time>
      </trkpt>
      <trkpt lat="43.460876" lon="-3.809229">
        <ele>4.618</ele>
        <time>2022-08-28T17:50:11Z</time>
      </trkpt>
      <trkpt lat="43.460929" lon="-3.809237">
        <ele>4.914</ele>
        <time>2022-08-28T17:50:12Z</time>
      </trkpt>
      <trkpt lat="43.461042" lon="-3.809255">
        <ele>5.733</ele>
        <time>2022-08-28T17:50:14Z</time>
      </trkpt>
      <trkpt lat="43.461084" lon="-3.809278">
        <ele>5.823</ele>
        <time>2022-08-28T17:50:15Z</time>
      </trkpt>
      <trkpt lat="43.461176" lon="-3.809306">
        <ele>5.515</ele>
        <time>2022-08-28T17:50:17Z</time>
      </trkpt>
      <trkpt lat="43.461249" lon="-3.809333">
        <ele>5.309</ele>
        <time>2022-08-28T17:50:18Z</time>
      </trkpt>
      <trkpt lat="43.461396" lon="-3.809511">
        <ele>2.134</ele>
        <time>2022-08-28T17:50:20Z</time>
      </trkpt>
      <trkpt lat="43.461449" lon="-3.809554">
        <ele>1.864</ele>
        <time>2022-08-28T17:50:21Z</time>
      </trkpt>
      <trkpt lat="43.461504" lon="-3.809686">
        <ele>1.075</ele>
        <time>2022-08-28T17:50:23Z</time>
      </trkpt>
      <trkpt lat="43.461521" lon="-3.809763">
        <ele>0.974</ele>
        <time>2022-08-28T17:50:24Z</time>
      </trkpt>
      <trkpt lat="43.461556" lon="-3.809913">
        <ele>0.723</ele>
        <time>2022-08-28T17:50:26Z</time>
      </trkpt>
      <trkpt lat="43.461588" lon="-3.810055">
        <ele>0.621</ele>
        <time>2022-08-28T17:50:28Z</time>
      </trkpt>
      <trkpt lat="43.461600" lon="-3.810127">
        <ele>1.035</ele>
        <time>2022-08-28T17:50:29Z</time>
      </trkpt>
      <trkpt lat="43.461637" lon="-3.810257">
        <ele>2.484</ele>
        <time>2022-08-28T17:50:31Z</time>
      </trkpt>
      <trkpt lat="43.461690" lon="-3.810339">
        <ele>3.330</ele>
        <time>2022-08-28T17:50:33Z</time>
      </trkpt>
      <trkpt lat="43.461722" lon="-3.810412">
        <ele>6.829</ele>
        <time>2022-08-28T17:50:39Z</time>
      </trkpt>
      <trkpt lat="43.461679" lon="-3.810429">
        <ele>7.400</ele>
        <time>2022-08-28T17:50:41Z</time>
      </trkpt>
      <trkpt lat="43.461606" lon="-3.810426">
        <ele>7.020</ele>
        <time>2022-08-28T17:50:43Z</time>
      </trkpt>
      <trkpt lat="43.461528" lon="-3.810391">
        <ele>6.809</ele>
        <time>2022-08-28T17:50:45Z</time>
      </trkpt>
      <trkpt lat="43.461473" lon="-3.810323">
        <ele>7.073</ele>
        <time>2022-08-28T17:50:47Z</time>
      </trkpt>
      <trkpt lat="43.461446" lon="-3.810250">
        <ele>6.923</ele>
        <time>2022-08-28T17:50:49Z</time>
      </trkpt>
      <trkpt lat="43.461418" lon="-3.810200">
        <ele>4.114</ele>
        <time>2022-08-28T17:50:51Z</time>
      </trkpt>
      <trkpt lat="43.461313" lon="-3.810197">
        <ele>3.073</ele>
        <time>2022-08-28T17:51:24Z</time>
      </trkpt>
      <trkpt lat="43.461263" lon="-3.810209">
        <ele>2.732</ele>
        <time>2022-08-28T17:51:25Z</time>
      </trkpt>
      <trkpt lat="43.461196" lon="-3.810214">
        <ele>3.020</ele>
        <time>2022-08-28T17:51:27Z</time>
      </trkpt>
      <trkpt lat="43.461151" lon="-3.810234">
        <ele>6.784</ele>
        <time>2022-08-28T17:51:29Z</time>
      </trkpt>
      <trkpt lat="43.461204" lon="-3.810177">
        <ele>9.153</ele>
        <time>2022-08-28T17:52:04Z</time>
      </trkpt>
      <trkpt lat="43.461194" lon="-3.810102">
        <ele>8.639</ele>
        <time>2022-08-28T17:52:06Z</time>
      </trkpt>
      <trkpt lat="43.461184" lon="-3.810004">
        <ele>8.556</ele>
        <time>2022-08-28T17:52:08Z</time>
      </trkpt>
      <trkpt lat="43.461171" lon="-3.809902">
        <ele>7.659</ele>
        <time>2022-08-28T17:52:10Z</time>
      </trkpt>
      <trkpt lat="43.461146" lon="-3.809810">
        <ele>8.314</ele>
        <time>2022-08-28T17:52:12Z</time>
      </trkpt>
      <trkpt lat="43.461114" lon="-3.809752">
        <ele>7.209</ele>
        <time>2022-08-28T17:52:14Z</time>
      </trkpt>
      <trkpt lat="43.461116" lon="-3.809669">
        <ele>3.616</ele>
        <time>2022-08-28T17:52:17Z</time>
      </trkpt>
      <trkpt lat="43.461058" lon="-3.809639">
        <ele>4.776</ele>
        <time>2022-08-28T17:52:22Z</time>
      </trkpt>
      <trkpt lat="43.461013" lon="-3.809657">
        <ele>6.377</ele>
        <time>2022-08-28T17:52:24Z</time>
      </trkpt>
      <trkpt lat="43.460968" lon="-3.809670">
        <ele>7.956</ele>
        <time>2022-08-28T17:52:26Z</time>
      </trkpt>
      <trkpt lat="43.460910" lon="-3.809662">
        <ele>8.885</ele>
        <time>2022-08-28T17:52:28Z</time>
      </trkpt>
      <trkpt lat="43.460825" lon="-3.809642">
        <ele>6.893</ele>
        <time>2022-08-28T17:52:30Z</time>
      </trkpt>
      <trkpt lat="43.460778" lon="-3.809627">
        <ele>8.267</ele>
        <time>2022-08-28T17:52:31Z</time>
      </trkpt>
      <trkpt lat="43.460685" lon="-3.809604">
        <ele>9.186</ele>
        <time>2022-08-28T17:52:33Z</time>
      </trkpt>
      <trkpt lat="43.460635" lon="-3.809591">
        <ele>9.172</ele>
        <time>2022-08-28T17:52:34Z</time>
      </trkpt>
      <trkpt lat="43.460510" lon="-3.809576">
        <ele>9.183</ele>
        <time>2022-08-28T17:52:36Z</time>
      </trkpt>
      <trkpt lat="43.460425" lon="-3.809503">
        <ele>9.025</ele>
        <time>2022-08-28T17:52:38Z</time>
      </trkpt>
      <trkpt lat="43.460392" lon="-3.809451">
        <ele>8.717</ele>
        <time>2022-08-28T17:52:39Z</time>
      </trkpt>
      <trkpt lat="43.460342" lon="-3.809379">
        <ele>8.309</ele>
        <time>2022-08-28T17:52:41Z</time>
      </trkpt>
      <trkpt lat="43.460255" lon="-3.809331">
        <ele>8.139</ele>
        <time>2022-08-28T17:52:43Z</time>
      </trkpt>
      <trkpt lat="43.460177" lon="-3.809279">
        <ele>8.279</ele>
        <time>2022-08-28T17:52:45Z</time>
      </trkpt>
      <trkpt lat="43.460082" lon="-3.809247">
        <ele>8.440</ele>
        <time>2022-08-28T17:52:47Z</time>
      </trkpt>
      <trkpt lat="43.460025" lon="-3.809234">
        <ele>8.599</ele>
        <time>2022-08-28T17:52:48Z</time>
      </trkpt>
      <trkpt lat="43.459965" lon="-3.809226">
        <ele>8.538</ele>
        <time>2022-08-28T17:52:49Z</time>
      </trkpt>
      <trkpt lat="43.459860" lon="-3.809133">
        <ele>8.366</ele>
        <time>2022-08-28T17:52:51Z</time>
      </trkpt>
      <trkpt lat="43.459812" lon="-3.809010">
        <ele>9.650</ele>
        <time>2022-08-28T17:52:53Z</time>
      </trkpt>
      <trkpt lat="43.459742" lon="-3.808958">
        <ele>13.969</ele>
        <time>2022-08-28T17:52:55Z</time>
      </trkpt>
      <trkpt lat="43.459689" lon="-3.808913">
        <ele>13.825</ele>
        <time>2022-08-28T17:52:57Z</time>
      </trkpt>
      <trkpt lat="43.459649" lon="-3.808876">
        <ele>13.783</ele>
        <time>2022-08-28T17:52:58Z</time>
      </trkpt>
      <trkpt lat="43.459569" lon="-3.808843">
        <ele>13.625</ele>
        <time>2022-08-28T17:53:00Z</time>
      </trkpt>
      <trkpt lat="43.459504" lon="-3.808805">
        <ele>13.017</ele>
        <time>2022-08-28T17:53:02Z</time>
      </trkpt>
      <trkpt lat="43.459452" lon="-3.808765">
        <ele>11.909</ele>
        <time>2022-08-28T17:53:04Z</time>
      </trkpt>
      <trkpt lat="43.459389" lon="-3.808745">
        <ele>11.869</ele>
        <time>2022-08-28T17:53:06Z</time>
      </trkpt>
      <trkpt lat="43.459354" lon="-3.808802">
        <ele>11.729</ele>
        <time>2022-08-28T17:53:08Z</time>
      </trkpt>
      <trkpt lat="43.459319" lon="-3.808907">
        <ele>11.120</ele>
        <time>2022-08-28T17:53:10Z</time>
      </trkpt>
      <trkpt lat="43.459286" lon="-3.809019">
        <ele>9.579</ele>
        <time>2022-08-28T17:53:12Z</time>
      </trkpt>
      <trkpt lat="43.459268" lon="-3.809077">
        <ele>9.118</ele>
        <time>2022-08-28T17:53:13Z</time>
      </trkpt>
      <trkpt lat="43.459258" lon="-3.809175">
        <ele>2.156</ele>
        <time>2022-08-28T17:53:15Z</time>
      </trkpt>
      <trkpt lat="43.459300" lon="-3.809223">
        <ele>1.010</ele>
        <time>2022-08-28T17:53:18Z</time>
      </trkpt>
      <trkpt lat="43.459358" lon="-3.809241">
        <ele>0.669</ele>
        <time>2022-08-28T17:53:20Z</time>
      </trkpt>
      <trkpt lat="43.459415" lon="-3.809291">
        <ele>0.875</ele>
        <time>2022-08-28T17:53:22Z</time>
      </trkpt>
      <trkpt lat="43.459415" lon="-3.809366">
        <ele>1.171</ele>
        <time>2022-08-28T17:53:24Z</time>
      </trkpt>
      <trkpt lat="43.459380" lon="-3.809428">
        <ele>1.341</ele>
        <time>2022-08-28T17:53:26Z</time>
      </trkpt>
      <trkpt lat="43.459345" lon="-3.809486">
        <ele>1.315</ele>
        <time>2022-08-28T17:53:28Z</time>
      </trkpt>
      <trkpt lat="43.459325" lon="-3.809579">
        <ele>-0.509</ele>
        <time>2022-08-28T17:53:30Z</time>
      </trkpt>
      <trkpt lat="43.459308" lon="-3.809687">
        <ele>-1.328</ele>
        <time>2022-08-28T17:53:32Z</time>
      </trkpt>
      <trkpt lat="43.459275" lon="-3.809757">
        <ele>-3.328</ele>
        <time>2022-08-28T17:53:34Z</time>
      </trkpt>
      <trkpt lat="43.459277" lon="-3.809825">
        <ele>-3.479</ele>
        <time>2022-08-28T17:53:36Z</time>
      </trkpt>
      <trkpt lat="43.459309" lon="-3.809905">
        <ele>-1.358</ele>
        <time>2022-08-28T17:53:39Z</time>
      </trkpt>
      <trkpt lat="43.459302" lon="-3.809985">
        <ele>0.437</ele>
        <time>2022-08-28T17:53:41Z</time>
      </trkpt>
      <trkpt lat="43.459277" lon="-3.810065">
        <ele>0.965</ele>
        <time>2022-08-28T17:53:43Z</time>
      </trkpt>
      <trkpt lat="43.459317" lon="-3.810015">
        <ele>1.849</ele>
        <time>2022-08-28T17:53:51Z</time>
      </trkpt>
      <trkpt lat="43.459339" lon="-3.809942">
        <ele>1.648</ele>
        <time>2022-08-28T17:53:53Z</time>
      </trkpt>
      <trkpt lat="43.459372" lon="-3.809864">
        <ele>1.754</ele>
        <time>2022-08-28T17:53:55Z</time>
      </trkpt>
      <trkpt lat="43.459415" lon="-3.809767">
        <ele>1.591</ele>
        <time>2022-08-28T17:53:57Z</time>
      </trkpt>
      <trkpt lat="43.459437" lon="-3.809697">
        <ele>1.781</ele>
        <time>2022-08-28T17:53:59Z</time>
      </trkpt>
      <trkpt lat="43.459399" lon="-3.809765">
        <ele>2.019</ele>
        <time>2022-08-28T17:54:11Z</time>
      </trkpt>
      <trkpt lat="43.459467" lon="-3.809662">
        <ele>2.309</ele>
        <time>2022-08-28T17:54:20Z</time>
      </trkpt>
      <trkpt lat="43.459555" lon="-3.809670">
        <ele>2.490</ele>
        <time>2022-08-28T17:54:22Z</time>
      </trkpt>
      <trkpt lat="43.459638" lon="-3.809655">
        <ele>2.410</ele>
        <time>2022-08-28T17:54:24Z</time>
      </trkpt>
      <trkpt lat="43.459698" lon="-3.809633">
        <ele>2.441</ele>
        <time>2022-08-28T17:54:26Z</time>
      </trkpt>
      <trkpt lat="43.459706" lon="-3.809561">
        <ele>2.530</ele>
        <time>2022-08-28T17:54:29Z</time>
      </trkpt>
    </trkseg>
  </trk>
</gpx>
